
Distance (Route):
Temperature : 17.7°C
Humidity : 73.6%
Pressure : 984.4hPa| Receiver | Frames | First received | Last received |
|---|---|---|---|
| BIOWL1-15 | 917 | 2026-09-01 09:49:18 | 2026-09-01 12:19:29 |
| DL1XH-west | 783 | 2026-09-01 09:52:59 | 2026-09-01 12:12:03 |
| DM0DOS-11 | 769 | 2026-09-01 09:48:08 | 2026-09-01 12:19:16 |
| DL1XH1-15 | 563 | 2026-09-01 09:53:13 | 2026-09-01 12:11:50 |
| DO2JMG | 547 | 2026-09-01 10:03:16 | 2026-09-01 12:04:14 |
| DL1XH-15 | 475 | 2026-09-01 09:58:55 | 2026-09-01 12:08:28 |
| AA1-15 | 461 | 2026-09-01 10:12:46 | 2026-09-01 11:59:35 |
| HSKMA3-T | 375 | 2026-09-01 10:26:18 | 2026-09-01 11:41:11 |
| GOEST3-10 | 298 | 2026-09-01 09:51:13 | 2026-09-01 12:03:23 |
| DB0DAN | 276 | 2026-09-01 10:18:40 | 2026-09-01 12:18:40 |
| DF8AY | 275 | 2026-09-01 10:28:47 | 2026-09-01 11:55:26 |
| DD8BA-10 | 254 | 2026-09-01 09:48:57 | 2026-09-01 12:15:03 |
| DJ2DS-15 | 153 | 2026-09-01 09:48:53 | 2026-09-01 12:14:16 |
| DF5WG-10 | 143 | 2026-09-01 09:57:09 | 2026-09-01 12:07:09 |
| DL3AQ-11 | 102 | 2026-09-01 10:02:11 | 2026-09-01 12:07:59 |
| DL4XJ-10 | 99 | 2026-09-01 10:10:27 | 2026-09-01 12:14:29 |
| DL4BBY-15 | 69 | 2026-09-01 09:49:25 | 2026-09-01 12:08:03 |
| DO9LL-15 | 64 | 2026-09-01 09:48:58 | 2026-09-01 12:02:29 |
| BIOWL9-15 | 58 | 2026-09-01 09:49:11 | 2026-09-01 12:18:45 |
| DD1CC3-15 | 42 | 2026-09-01 09:57:40 | 2026-09-01 11:39:11 |
| BUE01 | 40 | 2026-09-01 10:05:15 | 2026-09-01 12:09:09 |
| DC6BW-12 | 38 | 2026-09-01 09:49:17 | 2026-09-01 12:00:56 |
| DO3DL | 37 | 2026-09-01 10:24:05 | 2026-09-01 11:29:02 |
| DO2SHX-10 | 34 | 2026-09-01 10:30:58 | 2026-09-01 11:42:02 |
| HTAHTA | 33 | 2026-09-01 09:52:34 | 2026-09-01 11:59:53 |
| DK9SH | 33 | 2026-09-01 09:54:11 | 2026-09-01 11:50:56 |
| DL1LOL-11 | 31 | 2026-09-01 09:47:52 | 2026-09-01 12:12:30 |
| SONCRA | 30 | 2026-09-01 10:05:25 | 2026-09-01 11:56:12 |
| DL8OAI-8 | 30 | 2026-09-01 10:25:46 | 2026-09-01 12:01:21 |
| DF4FW | 24 | 2026-09-01 09:56:17 | 2026-09-01 11:10:43 |
| BIOWL7-15 | 23 | 2026-09-01 09:50:28 | 2026-09-01 11:55:31 |
| DD1CC8 | 23 | 2026-09-01 10:12:22 | 2026-09-01 11:42:56 |
| D01LWL | 23 | 2026-09-01 10:19:45 | 2026-09-01 11:47:44 |
| SONDE2-11 | 22 | 2026-09-01 10:24:10 | 2026-09-01 11:31:57 |
| DL1CLM-18 | 21 | 2026-09-01 09:49:10 | 2026-09-01 12:09:26 |
| SMARD9-15 | 21 | 2026-09-01 10:22:47 | 2026-09-01 12:07:50 |
| EDDB2-12 | 16 | 2026-09-01 10:37:08 | 2026-09-01 11:31:58 |
| SMARD9-10 | 15 | 2026-09-01 10:16:45 | 2026-09-01 11:58:13 |
| DD1CC2-15 | 14 | 2026-09-01 10:06:26 | 2026-09-01 11:35:48 |
| DJ2KF-10 | 10 | 2026-09-01 10:01:31 | 2026-09-01 11:41:30 |
| DB0UT-7 | 9 | 2026-09-01 10:07:28 | 2026-09-01 11:52:13 |
| DL3OBA | 9 | 2026-09-01 10:28:06 | 2026-09-01 11:28:55 |
| DO2LYB-13 | 8 | 2026-09-01 11:02:00 | 2026-09-01 12:15:31 |
| MET0W-2 | 6 | 2026-09-01 10:00:51 | 2026-09-01 10:08:36 |
| DB0NH | 5 | 2026-09-01 10:27:15 | 2026-09-01 10:48:16 |
| DL1NUX | 3 | 2026-09-01 10:41:40 | 2026-09-01 10:42:05 |
| DL8DAS-14 | 3 | 2026-09-01 10:56:22 | 2026-09-01 11:13:56 |
| AU51GT2 | 2 | 2026-09-01 10:26:42 | 2026-09-01 10:34:59 |
| DL1ZP-14 | 2 | 2026-09-01 10:45:14 | 2026-09-01 10:45:45 |
| DO1YAY-16 | 2 | 2026-09-01 11:06:47 | 2026-09-01 11:09:53 |
| NBG1-10 | 1 | 2026-09-01 10:38:21 | 2026-09-01 10:38:21 |
| DD1CC9-15 | 1 | 2026-09-01 10:38:30 | 2026-09-01 10:38:30 |
| SO1NDE-10 | 1 | 2026-09-01 10:42:08 | 2026-09-01 10:42:08 |
| DK5PH-5 | 1 | 2026-09-01 10:45:46 | 2026-09-01 10:45:46 |
| DF8AY-15 | 1 | 2026-09-01 11:10:44 | 2026-09-01 11:10:44 |
| DL8DAS-15 | 1 | 2026-09-01 11:12:56 | 2026-09-01 11:12:56 |
| Receiver | Date | Latitude | Longitude | Direction | Speed | Altitude | Climb | Temperature | Humidity | Pressure | Voltage | Killtimer | Uptime | BKT | XDATA |
|---|---|---|---|---|---|---|---|---|---|---|---|---|---|---|---|
| BIOWL1-15 | 2026-09-01 12:19:29 | 52.84901 | 9.20556 | 84° | 40km/h | 310m | -4.1m/s | 17.7°C | 73.6% | 984.4hPa | 2.8V | 07:20:52 | 02:45:20 | 00:00:00 | |
| BIOWL1-15 | 2026-09-01 12:19:26 | 52.84900 | 9.20540 | 85° | 38km/h | 314m | -4.4m/s | 17.6°C | 73.4% | 984hPa | 2.8V | 07:20:52 | 02:45:19 | 00:00:00 | |
| BIOWL1-15 | 2026-09-01 12:19:21 | 52.84899 | 9.20479 | 86° | 33km/h | 330m | -4.3m/s | 17.5°C | 74.4% | 982.1hPa | 2.8V | 07:20:52 | 02:45:15 | 00:00:00 | |
| BIOWL1-15 | 2026-09-01 12:19:17 | 52.84898 | 9.20467 | 85° | 29km/h | 334m | -4.3m/s | 17.5°C | 73.7% | 981.6hPa | 2.8V | 07:20:52 | 02:45:14 | 00:00:00 | |
| DM0DOS-11 | 2026-09-01 12:19:16 | 52.84887 | 9.20397 | 68° | 35km/h | 359m | -4.2m/s | 17.2°C | 68.9% | 978.8hPa | 2.8V | 07:19:47 | 02:45:08 | 00:00:00 | |
| BIOWL1-15 | 2026-09-01 12:19:10 | 52.84877 | 9.20143 | 75° | 24km/h | 427m | -3.7m/s | 16.6°C | 76.6% | 971.2hPa | 2.7V | 07:20:52 | 02:44:50 | 00:00:00 | |
| DM0DOS-11 | 2026-09-01 12:19:10 | 52.84875 | 9.20288 | 88° | 38km/h | 386m | -4.1m/s | 17°C | 69.2% | 975.9hPa | 2.8V | 07:19:54 | 02:45:01 | 00:00:00 | |
| DM0DOS-11 | 2026-09-01 12:19:03 | 52.84874 | 9.20257 | 87° | 37km/h | 393m | -4.1m/s | 16.9°C | 69.7% | 974.9hPa | 2.8V | 07:19:56 | 02:44:59 | 00:00:00 | |
| DM0DOS-11 | 2026-09-01 12:19:03 | 52.84875 | 9.20226 | 92° | 38km/h | 401m | -4.1m/s | 16.8°C | 70.1% | 974hPa | 2.8V | 07:19:58 | 02:44:57 | 00:00:00 | |
| BIOWL1-15 | 2026-09-01 12:19:00 | 52.84865 | 9.20007 | 96° | 37km/h | 461m | -3.3m/s | 16.2°C | 78.3% | 967.3hPa | 2.8V | 07:20:52 | 02:44:40 | 00:00:00 | |
| DM0DOS-11 | 2026-09-01 12:18:57 | 52.84878 | 9.20174 | 94° | 27km/h | 416m | -3.7m/s | 16.7°C | 71.8% | 972.4hPa | 2.8V | 07:20:02 | 02:44:53 | 00:00:00 | |
| DM0DOS-11 | 2026-09-01 12:18:57 | 52.84878 | 9.20153 | 87° | 22km/h | 423m | -3.7m/s | 16.6°C | 71.7% | 971.6hPa | 2.8V | 07:20:04 | 02:44:51 | 00:00:00 | |
| DM0DOS-11 | 2026-09-01 12:18:57 | 52.84875 | 9.20133 | 74° | 27km/h | 431m | -3.6m/s | 16.6°C | 71.7% | 970.8hPa | 2.8V | 07:20:06 | 02:44:49 | 00:00:00 | |
| BIOWL1-15 | 2026-09-01 12:18:54 | 52.84866 | 9.19992 | 98° | 35km/h | 465m | -3.2m/s | 16.2°C | 78.2% | 967hPa | 2.8V | 07:20:52 | 02:44:39 | 00:00:00 | |
| BIOWL1-15 | 2026-09-01 12:18:51 | 52.84873 | 9.19912 | 89° | 24km/h | 486m | -2.5m/s | 16°C | 77.2% | 964.6hPa | 2.8V | 07:20:52 | 02:44:32 | 00:00:00 | |
| BIOWL1-15 | 2026-09-01 12:18:48 | 52.84873 | 9.19902 | 87° | 24km/h | 489m | -2.7m/s | 16°C | 76.7% | 964.4hPa | 2.8V | 07:20:52 | 02:44:31 | 00:00:00 | |
| BIOWL1-15 | 2026-09-01 12:18:46 | 52.84873 | 9.19892 | 81° | 27km/h | 491m | -2.4m/s | 16°C | 76.7% | 964hPa | 2.8V | 07:20:52 | 02:44:30 | 00:00:00 | |
| DM0DOS-11 | 2026-09-01 12:18:45 | 52.84870 | 9.19955 | 100° | 29km/h | 473m | -3.5m/s | 16.1°C | 73.2% | 966.2hPa | 2.8V | 07:20:19 | 02:44:36 | 00:00:00 | |
| BIOWL9-15 | 2026-09-01 12:18:45 | 52.84864 | 9.20022 | 95° | 37km/h | 458m | -3.1m/s | 16.3°C | 72.2% | 967.7hPa | 2.8V | 00:00:00 | 00:00:00 | 00:00:00 | |
| BIOWL1-15 | 2026-09-01 12:18:40 | 52.84872 | 9.19881 | 83° | 27km/h | 493m | -2.3m/s | 15.9°C | 76.5% | 963.7hPa | 2.8V | 07:20:52 | 02:44:29 | 00:00:00 | |
| DM0DOS-11 | 2026-09-01 12:18:40 | 52.84871 | 9.19944 | 99° | 26km/h | 477m | -3.5m/s | 16.1°C | 73.4% | 965.7hPa | 2.7V | 07:20:20 | 02:44:35 | 00:00:00 | |
| DM0DOS-11 | 2026-09-01 12:18:40 | 52.84873 | 9.19922 | 95° | 24km/h | 483m | -2.6m/s | 16.1°C | 73.5% | 964.9hPa | 2.8V | 07:20:22 | 02:44:33 | 00:00:00 | |
| DB0DAN | 2026-09-01 12:18:40 | 52.84869 | 9.19967 | 96° | 27km/h | 471m | -3.1m/s | 16.2°C | 72.5% | 966.34hPa | 2.8V | 00:00:00 | 00:00:00 | 00:00:00 | |
| BIOWL1-15 | 2026-09-01 12:18:38 | 52.84870 | 9.19868 | 76° | 31km/h | 496m | -2.7m/s | 15.9°C | 76.7% | 963.6hPa | 2.8V | 07:20:52 | 02:44:28 | 00:00:00 | |
| DM0DOS-11 | 2026-09-01 12:18:34 | 52.84872 | 9.19880 | 82° | 27km/h | 493m | -2.3m/s | 15.9°C | 73.6% | 963.7hPa | 2.8V | 07:20:26 | 02:44:29 | 00:00:00 | |
| DM0DOS-11 | 2026-09-01 12:18:34 | 52.84868 | 9.19855 | 79° | 35km/h | 499m | -2.7m/s | 15.9°C | 73.7% | 963.1hPa | 2.8V | 07:20:28 | 02:44:27 | 00:00:00 | |
| DM0DOS-11 | 2026-09-01 12:18:34 | 52.84866 | 9.19810 | 87° | 37km/h | 507m | -3m/s | 15.8°C | 74.3% | 962.5hPa | 2.8V | 07:20:31 | 02:44:24 | 00:00:00 | |
| BIOWL1-15 | 2026-09-01 12:18:32 | 52.84868 | 9.19855 | 79° | 35km/h | 499m | -2.7m/s | 15.9°C | 76.4% | 963.1hPa | 2.8V | 07:20:52 | 02:44:27 | 00:00:00 | |
| BIOWL1-15 | 2026-09-01 12:18:32 | 52.84867 | 9.19841 | 85° | 37km/h | 501m | -2.4m/s | 15.8°C | 76.9% | 963hPa | 2.8V | 07:20:52 | 02:44:26 | 00:00:00 | |
| BIOWL1-15 | 2026-09-01 12:18:28 | 52.84867 | 9.19825 | 88° | 37km/h | 504m | -2.9m/s | 15.8°C | 77.5% | 962.6hPa | 2.8V | 07:20:52 | 02:44:25 | 00:00:00 | |
| DM0DOS-11 | 2026-09-01 12:18:28 | 52.84866 | 9.19794 | 86° | 37km/h | 510m | -2.7m/s | 15.8°C | 74.4% | 962.4hPa | 2.8V | 07:20:32 | 02:44:23 | 00:00:00 | |
| DM0DOS-11 | 2026-09-01 12:18:28 | 52.84866 | 9.19763 | 91° | 38km/h | 516m | -3.1m/s | 15.7°C | 74.6% | 961.6hPa | 2.7V | 07:20:34 | 02:44:21 | 00:00:00 | |
| DM0DOS-11 | 2026-09-01 12:18:28 | 52.84867 | 9.19732 | 98° | 37km/h | 522m | -3.2m/s | 15.6°C | 74.8% | 960.9hPa | 2.8V | 07:20:36 | 02:44:19 | 00:00:00 | |
| BIOWL1-15 | 2026-09-01 12:18:26 | 52.84866 | 9.19794 | 87° | 37km/h | 510m | -2.7m/s | 15.8°C | 78.5% | 962.4hPa | 2.8V | 07:20:52 | 02:44:23 | 00:00:00 | |
| DB0DAN | 2026-09-01 12:18:25 | 52.84866 | 9.19779 | 92° | 35km/h | 513m | -3m/s | 15.7°C | 73.9% | 961.82hPa | 2.8V | 00:00:00 | 00:00:00 | 00:00:00 | |
| BIOWL1-15 | 2026-09-01 12:18:25 | 52.84866 | 9.19748 | 91° | 37km/h | 519m | -3m/s | 15.7°C | 80.3% | 961.1hPa | 2.8V | 07:20:52 | 02:44:20 | 00:00:00 | |
| BIOWL1-15 | 2026-09-01 12:18:23 | 52.84873 | 9.19673 | 102° | 37km/h | 537m | -3.5m/s | 15.5°C | 82.1% | 959.4hPa | 2.8V | 07:20:52 | 02:44:15 | 00:00:00 | |
| DM0DOS-11 | 2026-09-01 12:18:22 | 52.84869 | 9.19702 | 102° | 37km/h | 529m | -3.5m/s | 15.6°C | 75.3% | 960.2hPa | 2.8V | 07:20:38 | 02:44:17 | 00:00:00 | |
| BIOWL1-15 | 2026-09-01 12:18:22 | 52.84866 | 9.19474 | 90° | 38km/h | 574m | -1.8m/s | 15.2°C | 79.5% | 955.4hPa | 2.8V | 07:21:43 | 02:44:00 | 00:00:00 | |
| BIOWL1-15 | 2026-09-01 12:18:18 | 52.84866 | 9.19458 | 91° | 40km/h | 577m | -2.4m/s | 15.2°C | 78.8% | 955.2hPa | 2.8V | 07:21:43 | 02:43:59 | 00:00:00 | |
| DM0DOS-11 | 2026-09-01 12:18:17 | 52.84879 | 9.19621 | 91° | 26km/h | 549m | -2.2m/s | 15.4°C | 76.1% | 958.1hPa | 2.8V | 07:20:44 | 02:44:11 | 00:00:00 | |
| DM0DOS-11 | 2026-09-01 12:18:17 | 52.84877 | 9.19600 | 80° | 26km/h | 554m | -2.7m/s | 15.4°C | 76% | 957.5hPa | 2.8V | 07:20:46 | 02:44:09 | 00:00:00 | |
| BIOWL1-15 | 2026-09-01 12:18:14 | 52.84866 | 9.19442 | 90° | 40km/h | 579m | -2.5m/s | 15.2°C | 79.3% | 954.9hPa | 2.8V | 07:21:43 | 02:43:58 | 00:00:00 | |
| BIOWL9-15 | 2026-09-01 12:18:14 | 52.84878 | 9.19611 | 82° | 24km/h | 551m | -1.8m/s | 15.4°C | 75.7% | 957.8hPa | 2.8V | 00:00:00 | 00:00:00 | 00:00:00 | |
| DM0DOS-11 | 2026-09-01 12:18:12 | 52.84870 | 9.19552 | 75° | 35km/h | 564m | -2m/s | 15.3°C | 75.5% | 956.6hPa | 2.8V | 07:20:50 | 02:44:05 | 00:00:00 | |
| DB0DAN | 2026-09-01 12:18:10 | 52.84874 | 9.19578 | 73° | 29km/h | 559m | -2.7m/s | 15.4°C | 74.2% | 956.96hPa | 2.7V | 00:00:00 | 00:00:00 | 00:00:00 | |
| DM0DOS-11 | 2026-09-01 12:18:07 | 52.84866 | 9.19491 | 89° | 38km/h | 572m | -2m/s | 15.3°C | 75.5% | 955.5hPa | 2.8V | 07:20:54 | 02:44:01 | 00:00:00 | |
| DM0DOS-11 | 2026-09-01 12:18:07 | 52.84866 | 9.19442 | 89° | 40km/h | 579m | -2.5m/s | 15.2°C | 77.2% | 954.9hPa | 2.8V | 07:20:57 | 02:43:58 | 00:00:00 | |
| BIOWL1-15 | 2026-09-01 12:18:02 | 52.84866 | 9.19425 | 91° | 38km/h | 582m | -2.8m/s | 15.2°C | 79.7% | 954.7hPa | 2.8V | 07:21:43 | 02:43:57 | 00:00:00 | |
| DM0DOS-11 | 2026-09-01 12:18:02 | 52.84867 | 9.19383 | 90° | 27km/h | 591m | -3m/s | 15.1°C | 78.1% | 953.8hPa | 2.7V | 07:21:01 | 02:43:54 | 00:00:00 | |
| BIOWL1-15 | 2026-09-01 12:18:01 | 52.84866 | 9.19410 | 92° | 35km/h | 585m | -2.5m/s | 15.2°C | 80.3% | 954.2hPa | 2.8V | 07:21:43 | 02:43:56 | 00:00:00 | |
| BIOWL1-15 | 2026-09-01 12:17:57 | 52.84867 | 9.19383 | 90° | 27km/h | 591m | -3m/s | 15.1°C | 82.3% | 953.8hPa | 2.7V | 07:21:43 | 02:43:54 | 00:00:00 | |
| DM0DOS-11 | 2026-09-01 12:17:56 | 52.84865 | 9.19338 | 77° | 27km/h | 605m | -3.8m/s | 14.9°C | 77.1% | 952.2hPa | 2.8V | 07:21:05 | 02:43:50 | 00:00:00 | |
| DM0DOS-11 | 2026-09-01 12:17:56 | 52.84861 | 9.19316 | 73° | 29km/h | 613m | -3.7m/s | 14.9°C | 77.5% | 951.4hPa | 2.8V | 07:21:07 | 02:43:48 | 00:00:00 | |
| DB0DAN | 2026-09-01 12:17:55 | 52.84867 | 9.19361 | 85° | 26km/h | 598m | -3.6m/s | 15°C | 76.8% | 952.93hPa | 2.8V | 00:00:00 | 00:00:00 | 00:00:00 | |
| BIOWL1-15 | 2026-09-01 12:17:55 | 52.84867 | 9.19361 | 85° | 27km/h | 598m | -3.6m/s | 15°C | 82.9% | 952.9hPa | 2.8V | 07:21:43 | 02:43:52 | 00:00:00 | |
| BIOWL1-15 | 2026-09-01 12:17:54 | 52.84866 | 9.19349 | 81° | 27km/h | 601m | -3.7m/s | 15°C | 83.5% | 952.7hPa | 2.8V | 07:21:43 | 02:43:51 | 00:00:00 | |
| BIOWL1-15 | 2026-09-01 12:17:53 | 52.84865 | 9.19338 | 78° | 27km/h | 605m | -3.8m/s | 14.9°C | 83.1% | 952.2hPa | 2.8V | 07:21:43 | 02:43:50 | 00:00:00 | |
| BIOWL1-15 | 2026-09-01 12:17:52 | 52.84861 | 9.19316 | 74° | 29km/h | 613m | -3.7m/s | 14.9°C | 84.3% | 951.4hPa | 2.8V | 07:21:43 | 02:43:48 | 00:00:00 | |
| BIOWL1-15 | 2026-09-01 12:17:50 | 52.84859 | 9.19304 | 71° | 31km/h | 617m | -4.1m/s | 14.8°C | 84.4% | 950.9hPa | 2.8V | 07:21:43 | 02:43:47 | 00:00:00 | |
| DM0DOS-11 | 2026-09-01 12:17:50 | 52.84856 | 9.19291 | 72° | 33km/h | 621m | -3.6m/s | 14.8°C | 77.8% | 950.4hPa | 2.8V | 07:21:09 | 02:43:46 | 00:00:00 | |
| DM0DOS-11 | 2026-09-01 12:17:50 | 52.84846 | 9.19229 | 79° | 40km/h | 634m | -3.4m/s | 14.6°C | 78.6% | 949hPa | 2.8V | 07:21:13 | 02:43:42 | 00:00:00 | |
| BIOWL1-15 | 2026-09-01 12:17:49 | 52.84856 | 9.19291 | 73° | 33km/h | 621m | -3.6m/s | 14.8°C | 84.5% | 950.4hPa | 2.8V | 07:21:43 | 02:43:46 | 00:00:00 | |
| BIOWL1-15 | 2026-09-01 12:17:47 | 52.84846 | 9.19229 | 79° | 40km/h | 634m | -3.4m/s | 14.6°C | 83.8% | 949hPa | 2.8V | 07:21:43 | 02:43:42 | 00:00:00 | |
| BIOWL1-15 | 2026-09-01 12:17:47 | 52.84845 | 9.19212 | 84° | 38km/h | 638m | -3.2m/s | 14.6°C | 83% | 948.3hPa | 2.7V | 07:21:43 | 02:43:41 | 00:00:00 | |
| BIOWL1-15 | 2026-09-01 12:17:43 | 52.84844 | 9.19196 | 85° | 37km/h | 641m | -2.6m/s | 14.6°C | 82.4% | 948.1hPa | 2.8V | 07:21:43 | 02:43:40 | 00:00:00 | |
| BIOWL1-15 | 2026-09-01 12:17:42 | 52.84842 | 9.19139 | 89° | 31km/h | 651m | -2.8m/s | 14.5°C | 83.2% | 946.9hPa | 2.8V | 07:21:43 | 02:43:36 | 00:00:00 | |
| DB0DAN | 2026-09-01 12:17:40 | 52.84842 | 9.19152 | 88° | 31km/h | 649m | -2.7m/s | 14.5°C | 78% | 947.24hPa | 2.8V | 00:00:00 | 00:00:00 | 00:00:00 | |
| DM0DOS-11 | 2026-09-01 12:17:38 | 52.84843 | 9.19089 | 96° | 29km/h | 663m | -2.8m/s | 14.3°C | 79.3% | 945.4hPa | 2.8V | 07:21:23 | 02:43:32 | 00:00:00 | |
| DM0DOS-11 | 2026-09-01 12:17:38 | 52.84844 | 9.19052 | 91° | 27km/h | 671m | -2.7m/s | 14.3°C | 79.7% | 944.6hPa | 2.7V | 07:21:26 | 02:43:29 | 00:00:00 | |
| BIOWL1-15 | 2026-09-01 12:17:38 | 52.84842 | 9.19126 | 91° | 29km/h | 654m | -2.9m/s | 14.4°C | 83.3% | 946.6hPa | 2.8V | 07:21:43 | 02:43:35 | 00:00:00 | |
| BIOWL1-15 | 2026-09-01 12:17:36 | 52.84844 | 9.19041 | 89° | 26km/h | 674m | -3.2m/s | 14.2°C | 83.2% | 944.3hPa | 2.8V | 07:21:43 | 02:43:28 | 00:00:00 | |
| DM0DOS-11 | 2026-09-01 12:17:33 | 52.84840 | 9.19009 | 71° | 27km/h | 684m | -3.2m/s | 14.2°C | 79.2% | 943.2hPa | 2.8V | 07:21:30 | 02:43:25 | 00:00:00 | |
| BIOWL1-15 | 2026-09-01 12:17:33 | 52.84843 | 9.19031 | 83° | 26km/h | 677m | -3m/s | 14.2°C | 83.7% | 944hPa | 2.8V | 07:21:43 | 02:43:27 | 00:00:00 | |
| BIOWL1-15 | 2026-09-01 12:17:28 | 52.84840 | 9.19009 | 72° | 27km/h | 684m | -3.2m/s | 14.2°C | 83.5% | 943.2hPa | 2.8V | 07:21:43 | 02:43:25 | 00:00:00 | |
| BIOWL1-15 | 2026-09-01 12:17:27 | 52.84838 | 9.18998 | 68° | 29km/h | 687m | -3.2m/s | 14.1°C | 83.9% | 942.9hPa | 2.8V | 07:21:43 | 02:43:24 | 00:00:00 | |
| DM0DOS-11 | 2026-09-01 12:17:27 | 52.84834 | 9.18986 | 63° | 33km/h | 690m | -3.4m/s | 14.1°C | 80.1% | 942.4hPa | 2.8V | 07:21:32 | 02:43:23 | 00:00:00 | |
| DM0DOS-11 | 2026-09-01 12:17:27 | 52.84827 | 9.18961 | 66° | 33km/h | 697m | -3.2m/s | 14°C | 80.2% | 941.8hPa | 2.8V | 07:21:34 | 02:43:21 | 00:00:00 | |
| DM0DOS-11 | 2026-09-01 12:17:27 | 52.84820 | 9.18934 | 67° | 37km/h | 703m | -3.3m/s | 14°C | 80.6% | 940.9hPa | 2.8V | 07:21:36 | 02:43:19 | 00:00:00 | |
| BIOWL1-15 | 2026-09-01 12:17:25 | 52.84831 | 9.18973 | 65° | 33km/h | 694m | -3.3m/s | 14.1°C | 84.3% | 942.3hPa | 2.8V | 07:21:43 | 02:43:22 | 00:00:00 | |
| DB0DAN | 2026-09-01 12:17:25 | 52.84831 | 9.18973 | 65° | 31km/h | 694m | -3.3m/s | 14.1°C | 78.5% | 942.28hPa | 2.8V | 00:00:00 | 00:00:00 | 00:00:00 | |
| BIOWL1-15 | 2026-09-01 12:17:23 | 52.84824 | 9.18948 | 64° | 35km/h | 700m | -3.2m/s | 14°C | 85.8% | 941.2hPa | 2.8V | 07:21:43 | 02:43:20 | 00:00:00 | |
| BIOWL1-15 | 2026-09-01 12:17:22 | 52.84817 | 9.18919 | 69° | 38km/h | 707m | -3.2m/s | 13.9°C | 86.1% | 940.5hPa | 2.8V | 07:21:43 | 02:43:18 | 00:00:00 | |
| DM0DOS-11 | 2026-09-01 12:17:21 | 52.84814 | 9.18904 | 70° | 37km/h | 710m | -3.1m/s | 13.9°C | 80.5% | 940.3hPa | 2.7V | 07:21:38 | 02:43:17 | 00:00:00 | |
| DM0DOS-11 | 2026-09-01 12:17:21 | 52.84803 | 9.18810 | 87° | 33km/h | 726m | -2.4m/s | 13.7°C | 81.9% | 938.4hPa | 2.8V | 07:21:44 | 02:43:11 | 00:00:00 | |
| BIOWL1-15 | 2026-09-01 12:17:19 | 52.84804 | 9.18840 | 84° | 38km/h | 721m | -3m/s | 13.8°C | 86.1% | 939.1hPa | 2.8V | 07:21:43 | 02:43:13 | 00:00:00 | |
| BIOWL1-15 | 2026-09-01 12:17:18 | 52.84803 | 9.18824 | 87° | 37km/h | 724m | -2.4m/s | 13.7°C | 86.2% | 938.6hPa | 2.8V | 07:21:43 | 02:43:12 | 00:00:00 | |
| BIOWL1-15 | 2026-09-01 12:17:17 | 52.84803 | 9.18809 | 87° | 33km/h | 726m | -2.4m/s | 13.7°C | 86% | 938.4hPa | 2.8V | 07:22:34 | 02:43:11 | 00:00:00 | |
| BIOWL1-15 | 2026-09-01 12:17:16 | 52.84803 | 9.18797 | 85° | 29km/h | 728m | -2.4m/s | 13.7°C | 86% | 938hPa | 2.8V | 07:22:34 | 02:43:10 | 00:00:00 | |
| DM0DOS-11 | 2026-09-01 12:17:15 | 52.84803 | 9.18797 | 84° | 29km/h | 728m | -2.4m/s | 13.7°C | 82.2% | 938hPa | 2.8V | 07:21:45 | 02:43:10 | 00:00:00 | |
| DM0DOS-11 | 2026-09-01 12:17:15 | 52.84795 | 9.18751 | 73° | 33km/h | 739m | -2.6m/s | 13.6°C | 82.9% | 936.9hPa | 2.8V | 07:21:49 | 02:43:06 | 00:00:00 | |
| BIOWL1-15 | 2026-09-01 12:17:11 | 52.84787 | 9.18689 | 78° | 44km/h | 749m | -3.2m/s | 13.5°C | 87.8% | 935.7hPa | 2.8V | 07:22:34 | 02:43:02 | 00:00:00 | |
| BIOWL1-15 | 2026-09-01 12:17:10 | 52.84784 | 9.18652 | 86° | 42km/h | 755m | -3.1m/s | 13.4°C | 88.1% | 935hPa | 2.8V | 07:22:34 | 02:43:00 | 00:00:00 | |
| DB0DAN | 2026-09-01 12:17:10 | 52.84798 | 9.18763 | 70° | 27km/h | 736m | -2.8m/s | 13.6°C | 81.9% | 937.05hPa | 2.8V | 00:00:00 | 00:00:00 | 00:00:00 | |
| DM0DOS-11 | 2026-09-01 12:17:08 | 52.84787 | 9.18689 | 78° | 44km/h | 749m | -3.2m/s | 13.5°C | 84% | 935.6hPa | 2.8V | 07:21:53 | 02:43:02 | 00:00:00 | |
| BIOWL1-15 | 2026-09-01 12:17:06 | 52.84783 | 9.18634 | 88° | 46km/h | 758m | -3.3m/s | 13.4°C | 88.6% | 934.7hPa | 2.8V | 07:22:34 | 02:42:59 | 00:00:00 | |
| DM0DOS-11 | 2026-09-01 12:17:02 | 52.84783 | 9.18616 | 85° | 44km/h | 761m | -2.9m/s | 13.3°C | 84.7% | 934.2hPa | 2.8V | 07:21:57 | 02:42:58 | 00:00:00 | |
| DM0DOS-11 | 2026-09-01 12:17:02 | 52.84781 | 9.18545 | 86° | 42km/h | 771m | -3m/s | 13.2°C | 85.4% | 933.2hPa | 2.7V | 07:22:01 | 02:42:54 | 00:00:00 | |
| BIOWL1-15 | 2026-09-01 12:17:01 | 52.84782 | 9.18581 | 91° | 42km/h | 766m | -2.4m/s | 13.3°C | 90.2% | 933.7hPa | 2.8V | 07:22:34 | 02:42:56 | 00:00:00 | |
| BIOWL1-15 | 2026-09-01 12:17:00 | 52.84782 | 9.18563 | 85° | 44km/h | 769m | -2.5m/s | 13.3°C | 90.9% | 933.5hPa | 2.8V | 07:22:34 | 02:42:55 | 00:00:00 | |
| BIOWL1-15 | 2026-09-01 12:16:56 | 52.84780 | 9.18508 | 87° | 46km/h | 777m | -2m/s | 13.2°C | 91.7% | 932.7hPa | 2.8V | 07:22:34 | 02:42:52 | 00:00:00 | |
| DB0DAN | 2026-09-01 12:16:55 | 52.84780 | 9.18508 | 87° | 44km/h | 777m | -2m/s | 13.2°C | 84.7% | 932.71hPa | 2.8V | 00:00:00 | 00:00:00 | 00:00:00 | |
| BIOWL1-15 | 2026-09-01 12:16:54 | 52.84780 | 9.18489 | 92° | 46km/h | 779m | -2.5m/s | 13.2°C | 90.3% | 932.3hPa | 2.8V | 07:22:34 | 02:42:51 | 00:00:00 | |
| BIOWL1-15 | 2026-09-01 12:16:52 | 52.84785 | 9.18436 | 100° | 38km/h | 786m | -2.1m/s | 13.2°C | 86.6% | 931.6hPa | 2.8V | 07:22:34 | 02:42:48 | 00:00:00 | |
| DM0DOS-11 | 2026-09-01 12:16:52 | 52.84785 | 9.18436 | 100° | 38km/h | 786m | -2.1m/s | 13.2°C | 84.1% | 931.6hPa | 2.8V | 07:22:07 | 02:42:48 | 00:00:00 | |
| DM0DOS-11 | 2026-09-01 12:16:52 | 52.84787 | 9.18406 | 90° | 35km/h | 790m | -1.6m/s | 13.1°C | 84.3% | 931.2hPa | 2.8V | 07:22:09 | 02:42:46 | 00:00:00 | |
| BIOWL1-15 | 2026-09-01 12:16:52 | 52.84786 | 9.18420 | 97° | 35km/h | 788m | -2m/s | 13.2°C | 85.5% | 931.4hPa | 2.8V | 07:22:34 | 02:42:47 | 00:00:00 | |
| BIOWL1-15 | 2026-09-01 12:16:49 | 52.84785 | 9.18377 | 79° | 37km/h | 794m | -1.9m/s | 13.1°C | 87.7% | 930.8hPa | 2.8V | 07:22:34 | 02:42:44 | 00:00:00 | |
| BIOWL1-15 | 2026-09-01 12:16:48 | 52.84783 | 9.18361 | 78° | 38km/h | 796m | -2.2m/s | 13.1°C | 88.4% | 930.8hPa | 2.7V | 07:22:34 | 02:42:43 | 00:00:00 | |
| DM0DOS-11 | 2026-09-01 12:16:46 | 52.84781 | 9.18345 | 78° | 40km/h | 798m | -2.5m/s | 13.1°C | 84.6% | 930.4hPa | 2.8V | 07:22:13 | 02:42:42 | 00:00:00 | |
| DM0DOS-11 | 2026-09-01 12:16:46 | 52.84777 | 9.18309 | 81° | 44km/h | 803m | -2.4m/s | 13°C | 84.6% | 929.9hPa | 2.8V | 07:22:15 | 02:42:40 | 00:00:00 | |
| BIOWL1-15 | 2026-09-01 12:16:45 | 52.84779 | 9.18328 | 81° | 44km/h | 801m | -2.5m/s | 13.1°C | 90.2% | 930.2hPa | 2.8V | 07:22:34 | 02:42:41 | 00:00:00 | |
| BIOWL1-15 | 2026-09-01 12:16:43 | 52.84777 | 9.18310 | 82° | 44km/h | 803m | -2.4m/s | 13°C | 90.1% | 929.9hPa | 2.8V | 07:22:34 | 02:42:40 | 00:00:00 | |
| BIOWL1-15 | 2026-09-01 12:16:42 | 52.84776 | 9.18291 | 82° | 46km/h | 806m | -2m/s | 13°C | 89.8% | 929.5hPa | 2.8V | 07:22:34 | 02:42:39 | 00:00:00 | |
| DM0DOS-11 | 2026-09-01 12:16:41 | 52.84771 | 9.18231 | 83° | 47km/h | 811m | -1.6m/s | 13°C | 83% | 928.9hPa | 2.8V | 07:22:19 | 02:42:36 | 00:00:00 | |
| DM0DOS-11 | 2026-09-01 12:16:41 | 52.84770 | 9.18191 | 89° | 49km/h | 815m | -1.8m/s | 12.9°C | 85.8% | 928.6hPa | 2.8V | 07:22:21 | 02:42:34 | 00:00:00 | |
| DB0DAN | 2026-09-01 12:16:40 | 52.84773 | 9.18251 | 83° | 46km/h | 810m | -1.8m/s | 13°C | 81.8% | 929.2hPa | 2.8V | 00:00:00 | 00:00:00 | 00:00:00 | |
| BIOWL1-15 | 2026-09-01 12:16:40 | 52.84773 | 9.18251 | 83° | 47km/h | 810m | -1.8m/s | 13°C | 87.4% | 929.2hPa | 2.8V | 07:22:34 | 02:42:37 | 00:00:00 | |
| BIOWL1-15 | 2026-09-01 12:16:39 | 52.84771 | 9.18231 | 83° | 47km/h | 811m | -1.6m/s | 13°C | 86.3% | 928.9hPa | 2.8V | 07:22:34 | 02:42:36 | 00:00:00 | |
| BIOWL1-15 | 2026-09-01 12:16:37 | 52.84770 | 9.18191 | 90° | 49km/h | 815m | -1.8m/s | 12.9°C | 86.9% | 928.6hPa | 2.8V | 07:22:34 | 02:42:34 | 00:00:00 | |
| BIOWL1-15 | 2026-09-01 12:16:35 | 52.84775 | 9.18100 | 96° | 38km/h | 824m | -2.1m/s | 12.8°C | 88.9% | 927.7hPa | 2.8V | 07:22:34 | 02:42:29 | 00:00:00 | |
| BIOWL1-15 | 2026-09-01 12:16:35 | 52.84775 | 9.18085 | 93° | 37km/h | 826m | -2.1m/s | 12.8°C | 90.4% | 927.4hPa | 2.8V | 07:22:34 | 02:42:28 | 00:00:00 | |
| DM0DOS-11 | 2026-09-01 12:16:34 | 52.84775 | 9.18085 | 92° | 37km/h | 826m | -2m/s | 12.8°C | 87.7% | 927.4hPa | 2.8V | 07:22:27 | 02:42:28 | 00:00:00 | |
| BIOWL1-15 | 2026-09-01 12:16:32 | 52.84775 | 9.18070 | 89° | 35km/h | 828m | -2.4m/s | 12.7°C | 90.6% | 927.2hPa | 2.8V | 07:22:34 | 02:42:27 | 00:00:00 | |
| BIOWL1-15 | 2026-09-01 12:16:29 | 52.84770 | 9.18008 | 77° | 40km/h | 837m | -2.1m/s | 12.6°C | 92.8% | 926.2hPa | 2.8V | 07:22:34 | 02:42:23 | 00:00:00 | |
| DM0DOS-11 | 2026-09-01 12:16:28 | 52.84772 | 9.18024 | 78° | 38km/h | 835m | -2m/s | 12.7°C | 86% | 926.5hPa | 2.8V | 07:22:31 | 02:42:24 | 00:00:00 | |
| DM0DOS-11 | 2026-09-01 12:16:28 | 52.84768 | 9.17991 | 77° | 42km/h | 839m | -2.4m/s | 12.6°C | 88.7% | 925.9hPa | 2.7V | 07:22:33 | 02:42:22 | 00:00:00 | |
| DM0DOS-11 | 2026-09-01 12:16:28 | 52.84763 | 9.17956 | 79° | 46km/h | 844m | -2.1m/s | 12.6°C | 89.1% | 925.6hPa | 2.8V | 07:22:35 | 02:42:20 | 00:00:00 | |
| DB0DAN | 2026-09-01 12:16:25 | 52.84768 | 9.17991 | 78° | 40km/h | 839m | -2.4m/s | 12.6°C | 87.7% | 925.91hPa | 2.7V | 00:00:00 | 00:00:00 | 00:00:00 | |
| BIOWL1-15 | 2026-09-01 12:16:25 | 52.84768 | 9.17991 | 78° | 42km/h | 839m | -2.4m/s | 12.6°C | 93.3% | 925.9hPa | 2.7V | 07:22:34 | 02:42:22 | 00:00:00 | |
| BIOWL1-15 | 2026-09-01 12:16:23 | 52.84758 | 9.17877 | 91° | 49km/h | 853m | -2.7m/s | 12.6°C | 91.4% | 924.3hPa | 2.8V | 07:23:25 | 02:42:16 | 00:00:00 | |
| DM0DOS-11 | 2026-09-01 12:16:22 | 52.84759 | 9.17917 | 83° | 47km/h | 848m | -2.4m/s | 12.5°C | 88.7% | 925.1hPa | 2.8V | 07:22:37 | 02:42:18 | 00:00:00 | |
| BIOWL1-15 | 2026-09-01 12:16:20 | 52.84758 | 9.17856 | 94° | 47km/h | 855m | -2.5m/s | 12.6°C | 88.1% | 924.1hPa | 2.8V | 07:23:25 | 02:42:15 | 00:00:00 | |
| BIOWL1-15 | 2026-09-01 12:16:19 | 52.84759 | 9.17837 | 97° | 46km/h | 857m | -2.5m/s | 12.7°C | 80.2% | 923.9hPa | 2.8V | 07:23:25 | 02:42:14 | 00:00:00 | |
| BIOWL1-15 | 2026-09-01 12:16:16 | 52.84763 | 9.17785 | 92° | 37km/h | 864m | -1.9m/s | 12.6°C | 80.3% | 923.1hPa | 2.8V | 07:23:25 | 02:42:11 | 00:00:00 | |
| BIOWL1-15 | 2026-09-01 12:16:15 | 52.84763 | 9.17771 | 91° | 35km/h | 866m | -1.9m/s | 12.6°C | 79.8% | 922.8hPa | 2.8V | 07:23:25 | 02:42:10 | 00:00:00 | |
| BIOWL1-15 | 2026-09-01 12:16:12 | 52.84755 | 9.17591 | 94° | 49km/h | 888m | -2.1m/s | 12.4°C | 81.2% | 920.4hPa | 2.8V | 07:23:25 | 02:42:00 | 00:00:00 | |
| BIOWL1-15 | 2026-09-01 12:16:11 | 52.84756 | 9.17570 | 92° | 49km/h | 890m | -2.5m/s | 12.4°C | 80.3% | 920hPa | 2.8V | 07:23:25 | 02:41:59 | 00:00:00 | |
| DM0DOS-11 | 2026-09-01 12:16:10 | 52.84758 | 9.17708 | 80° | 42km/h | 875m | -2.5m/s | 12.5°C | 76.6% | 921.9hPa | 2.8V | 07:22:49 | 02:42:06 | 00:00:00 | |
| DM0DOS-11 | 2026-09-01 12:16:10 | 52.84755 | 9.17671 | 86° | 46km/h | 879m | -2.2m/s | 12.5°C | 77.6% | 921.4hPa | 2.8V | 07:22:51 | 02:42:04 | 00:00:00 | |
| DM0DOS-11 | 2026-09-01 12:16:10 | 52.84755 | 9.17611 | 92° | 49km/h | 885m | -2.2m/s | 12.4°C | 77.2% | 920.6hPa | 2.8V | 07:22:54 | 02:42:01 | 00:00:00 | |
| DB0DAN | 2026-09-01 12:16:10 | 52.84760 | 9.17725 | 80° | 38km/h | 873m | -2.2m/s | 12.6°C | 75.2% | 922.18hPa | 2.8V | 00:00:00 | 00:00:00 | 00:00:00 | |
| BIOWL1-15 | 2026-09-01 12:16:09 | 52.84756 | 9.17550 | 92° | 49km/h | 892m | -2.8m/s | 12.4°C | 80.6% | 919.8hPa | 2.8V | 07:23:25 | 02:41:58 | 00:00:00 | |
| BIOWL1-15 | 2026-09-01 12:16:09 | 52.84757 | 9.17530 | 89° | 47km/h | 895m | -2.1m/s | 12.3°C | 80.6% | 919.8hPa | 2.8V | 07:23:25 | 02:41:57 | 00:00:00 | |
| BIOWL1-15 | 2026-09-01 12:16:06 | 52.84756 | 9.17510 | 87° | 46km/h | 897m | -2.2m/s | 12.3°C | 81.4% | 919.3hPa | 2.8V | 07:23:25 | 02:41:56 | 00:00:00 | |
| DM0DOS-11 | 2026-09-01 12:16:05 | 52.84756 | 9.17529 | 88° | 47km/h | 895m | -2.1m/s | 12.3°C | 76.8% | 919.7hPa | 2.8V | 07:22:58 | 02:41:57 | 00:00:00 | |
| DM0DOS-11 | 2026-09-01 12:16:05 | 52.84754 | 9.17472 | 84° | 46km/h | 902m | -2.7m/s | 12.3°C | 76.9% | 918.8hPa | 2.8V | 07:23:01 | 02:41:54 | 00:00:00 | |
| BIOWL1-15 | 2026-09-01 12:16:00 | 52.84755 | 9.17491 | 84° | 46km/h | 899m | -2.3m/s | 12.3°C | 81.4% | 919.2hPa | 2.8V | 07:23:25 | 02:41:55 | 00:00:00 | |
| BIOWL1-15 | 2026-09-01 12:15:59 | 52.84754 | 9.17472 | 84° | 46km/h | 902m | -2.7m/s | 12.3°C | 81.1% | 918.8hPa | 2.8V | 07:23:25 | 02:41:54 | 00:00:00 | |
| DM0DOS-11 | 2026-09-01 12:15:57 | 52.84752 | 9.17433 | 85° | 47km/h | 907m | -2.5m/s | 12.2°C | 76.6% | 918.2hPa | 2.7V | 07:23:03 | 02:41:52 | 00:00:00 | |
| DM0DOS-11 | 2026-09-01 12:15:57 | 52.84752 | 9.17393 | 91° | 49km/h | 912m | -2.5m/s | 12.2°C | 76.2% | 917.9hPa | 2.8V | 07:23:05 | 02:41:50 | 00:00:00 | |
| DM0DOS-11 | 2026-09-01 12:15:57 | 52.84754 | 9.17352 | 98° | 47km/h | 917m | -2.3m/s | 12.2°C | 75.6% | 917.2hPa | 2.8V | 07:23:07 | 02:41:48 | 00:00:00 | |
| BIOWL1-15 | 2026-09-01 12:15:55 | 52.84752 | 9.17433 | 86° | 47km/h | 907m | -2.5m/s | 12.2°C | 80.7% | 918.2hPa | 2.7V | 07:23:25 | 02:41:52 | 00:00:00 | |
| DB0DAN | 2026-09-01 12:15:55 | 52.84752 | 9.17433 | 86° | 44km/h | 907m | -2.5m/s | 12.2°C | 75.7% | 918.17hPa | 2.7V | 00:00:00 | 00:00:00 | 00:00:00 | |
| BIOWL1-15 | 2026-09-01 12:15:54 | 52.84752 | 9.17414 | 89° | 47km/h | 910m | -2.4m/s | 12.2°C | 79.9% | 918.1hPa | 2.8V | 07:23:25 | 02:41:51 | 00:00:00 | |
| BIOWL1-15 | 2026-09-01 12:15:53 | 52.84764 | 9.17268 | 100° | 37km/h | 930m | -2.7m/s | 12°C | 80.5% | 915.9hPa | 2.7V | 07:23:25 | 02:41:43 | 00:00:00 | |
| BIOWL1-15 | 2026-09-01 12:15:52 | 52.84787 | 9.17047 | 84° | 40km/h | 964m | -2.2m/s | 11.7°C | 81.5% | 912hPa | 2.8V | 07:24:16 | 02:41:29 | 00:00:00 | |
| DM0DOS-11 | 2026-09-01 12:15:50 | 52.84758 | 9.17315 | 100° | 42km/h | 922m | -2.3m/s | 12.1°C | 75.1% | 916.6hPa | 2.8V | 07:23:09 | 02:41:46 | 00:00:00 | |
| DM0DOS-11 | 2026-09-01 12:15:50 | 52.84762 | 9.17283 | 100° | 37km/h | 927m | -3m/s | 12.1°C | 75.2% | 916.1hPa | 2.8V | 07:23:11 | 02:41:44 | 00:00:00 | |
| DM0DOS-11 | 2026-09-01 12:15:50 | 52.84767 | 9.17237 | 101° | 38km/h | 935m | -2.9m/s | 12°C | 76.1% | 915.2hPa | 2.8V | 07:23:14 | 02:41:41 | 00:00:00 | |
| BIOWL1-15 | 2026-09-01 12:15:46 | 52.84784 | 9.17011 | 84° | 46km/h | 968m | -2.4m/s | 11.7°C | 81.4% | 911.5hPa | 2.8V | 07:24:16 | 02:41:27 | 00:00:00 | |
| DM0DOS-11 | 2026-09-01 12:15:45 | 52.84769 | 9.17222 | 103° | 40km/h | 938m | -2.5m/s | 11.9°C | 77.2% | 915.1hPa | 2.8V | 07:23:15 | 02:41:40 | 00:00:00 | |
| DM0DOS-11 | 2026-09-01 12:15:45 | 52.84774 | 9.17188 | 102° | 42km/h | 943m | -2.5m/s | 11.9°C | 76.3% | 914.4hPa | 2.8V | 07:23:17 | 02:41:38 | 00:00:00 | |
| DM0DOS-11 | 2026-09-01 12:15:45 | 52.84779 | 9.17153 | 103° | 42km/h | 948m | -2.2m/s | 11.8°C | 77.8% | 913.8hPa | 2.8V | 07:23:19 | 02:41:36 | 00:00:00 | |
| BIOWL1-15 | 2026-09-01 12:15:41 | 52.84788 | 9.16852 | 99° | 40km/h | 988m | -2.6m/s | 11.5°C | 81.6% | 909.3hPa | 2.8V | 07:24:16 | 02:41:19 | 00:00:00 | |
| BIOWL1-15 | 2026-09-01 12:15:40 | 52.84786 | 9.16698 | 82° | 42km/h | 1017m | -2.9m/s | 11.2°C | 84.7% | 906.4hPa | 2.8V | 07:24:16 | 02:41:09 | 00:00:00 | |
| DB0DAN | 2026-09-01 12:15:40 | 52.84777 | 9.17170 | 104° | 42km/h | 945m | -2.5m/s | 11.9°C | 75.9% | 914.24hPa | 2.8V | 00:00:00 | 00:00:00 | 00:00:00 | |
| DM0DOS-11 | 2026-09-01 12:15:38 | 52.84784 | 9.17122 | 103° | 37km/h | 952m | -2.5m/s | 11.8°C | 76.2% | 913.4hPa | 2.8V | 07:23:21 | 02:41:34 | 00:00:00 | |
| DM0DOS-11 | 2026-09-01 12:15:38 | 52.84788 | 9.17092 | 96° | 35km/h | 957m | -2.4m/s | 11.8°C | 76.3% | 912.7hPa | 2.8V | 07:23:23 | 02:41:32 | 00:00:00 | |
| DM0DOS-11 | 2026-09-01 12:15:38 | 52.84788 | 9.17063 | 84° | 38km/h | 962m | -2.4m/s | 11.7°C | 77.1% | 912.4hPa | 2.8V | 07:23:25 | 02:41:30 | 00:00:00 | |
| BIOWL1-15 | 2026-09-01 12:15:36 | 52.84783 | 9.16661 | 83° | 47km/h | 1022m | -2.8m/s | 11.1°C | 85.9% | 905.6hPa | 2.8V | 07:24:16 | 02:41:07 | 00:00:00 | |
| DM0DOS-11 | 2026-09-01 12:15:32 | 52.84786 | 9.17029 | 82° | 42km/h | 966m | -2.2m/s | 11.7°C | 77.5% | 911.7hPa | 2.8V | 07:23:27 | 02:41:28 | 00:00:00 | |
| DM0DOS-11 | 2026-09-01 12:15:32 | 52.84783 | 9.16992 | 85° | 47km/h | 971m | -2.2m/s | 11.6°C | 77.6% | 911.3hPa | 2.8V | 07:23:29 | 02:41:26 | 00:00:00 | |
| DM0DOS-11 | 2026-09-01 12:15:32 | 52.84782 | 9.16951 | 89° | 49km/h | 975m | -2.3m/s | 11.6°C | 78.1% | 910.7hPa | 2.7V | 07:23:31 | 02:41:24 | 00:00:00 | |
| DO2LYB-13 | 2026-09-01 12:15:31 | 52.84784 | 9.17011 | 85° | 46km/h | 969m | -2.4m/s | 11.7°C | 76.4% | 911.5hPa | 2.8V | 00:00:00 | 00:00:00 | 00:00:00 | |
| DM0DOS-11 | 2026-09-01 12:15:26 | 52.84790 | 9.16805 | 90° | 35km/h | 996m | -2.9m/s | 11.4°C | 77.5% | 908.5hPa | 2.8V | 07:23:39 | 02:41:16 | 00:00:00 | |
| DB0DAN | 2026-09-01 12:15:25 | 52.84783 | 9.16909 | 95° | 47km/h | 980m | -2.8m/s | 11.5°C | 76.5% | 910.17hPa | 2.8V | 00:00:00 | 00:00:00 | 00:00:00 | |
| BIOWL1-15 | 2026-09-01 12:15:22 | 52.84782 | 9.16641 | 85° | 47km/h | 1025m | -2.6m/s | 11.1°C | 85.6% | 905.4hPa | 2.7V | 07:24:16 | 02:41:06 | 00:00:00 | |
| DM0DOS-11 | 2026-09-01 12:15:21 | 52.84790 | 9.16790 | 89° | 35km/h | 999m | -2.9m/s | 11.4°C | 78.2% | 908.2hPa | 2.7V | 07:23:40 | 02:41:15 | 00:00:00 | |
| DM0DOS-11 | 2026-09-01 12:15:21 | 52.84790 | 9.16761 | 88° | 35km/h | 1005m | -3m/s | 11.3°C | 78.6% | 907.6hPa | 2.8V | 07:23:42 | 02:41:13 | 00:00:00 | |
| DM0DOS-11 | 2026-09-01 12:15:21 | 52.84787 | 9.16715 | 81° | 40km/h | 1013m | -3m/s | 11.2°C | 78.6% | 906.6hPa | 2.8V | 07:23:45 | 02:41:10 | 00:00:00 | |
| DM0DOS-11 | 2026-09-01 12:15:14 | 52.84786 | 9.16698 | 82° | 42km/h | 1016m | -2.9m/s | 11.2°C | 79.2% | 906.4hPa | 2.8V | 07:23:46 | 02:41:09 | 00:00:00 | |
| DM0DOS-11 | 2026-09-01 12:15:14 | 52.84783 | 9.16661 | 83° | 47km/h | 1022m | -2.8m/s | 11.1°C | 80.4% | 905.6hPa | 2.8V | 07:23:48 | 02:41:07 | 00:00:00 | |
| BIOWL1-15 | 2026-09-01 12:15:12 | 52.84781 | 9.16621 | 87° | 49km/h | 1027m | -2.8m/s | 11.1°C | 87.2% | 905hPa | 2.8V | 07:24:16 | 02:41:05 | 00:00:00 | |
| DB0DAN | 2026-09-01 12:15:10 | 52.84783 | 9.16661 | 83° | 44km/h | 1022m | -2.8m/s | 11.1°C | 79.4% | 905.62hPa | 2.8V | 00:00:00 | 00:00:00 | 00:00:00 | |
| BIOWL1-15 | 2026-09-01 12:15:09 | 52.84780 | 9.16600 | 89° | 51km/h | 1030m | -3m/s | 11°C | 87.1% | 904.7hPa | 2.8V | 07:24:16 | 02:41:04 | 00:00:00 | |
| BIOWL1-15 | 2026-09-01 12:15:06 | 52.84784 | 9.16518 | 100° | 46km/h | 1042m | -3.3m/s | 10.9°C | 86.7% | 903.5hPa | 2.8V | 07:24:16 | 02:41:00 | 00:00:00 | |
| BIOWL1-15 | 2026-09-01 12:15:05 | 52.84787 | 9.16390 | 80° | 40km/h | 1065m | -2.9m/s | 10.7°C | 88.4% | 901hPa | 2.8V | 07:24:16 | 02:40:52 | 00:00:00 | |
| DD8BA-10 | 2026-09-01 12:15:03 | 52.84784 | 9.16518 | 101° | 44km/h | 1042m | -3.3m/s | 10.9°C | 82.5% | 903.5hPa | 2.7V | 00:00:00 | 00:00:00 | 00:00:00 | |
| DM0DOS-11 | 2026-09-01 12:15:02 | 52.84790 | 9.16467 | 96° | 38km/h | 1051m | -2.9m/s | 10.9°C | 83.3% | 902.5hPa | 2.7V | 07:23:58 | 02:40:57 | 00:00:00 | |
| DM0DOS-11 | 2026-09-01 12:15:02 | 52.84791 | 9.16436 | 88° | 35km/h | 1057m | -2.7m/s | 10.8°C | 83.5% | 901.8hPa | 2.8V | 07:24:00 | 02:40:55 | 00:00:00 | |
| BIOWL1-15 | 2026-09-01 12:15:01 | 52.84784 | 9.16354 | 83° | 46km/h | 1071m | -3m/s | 10.7°C | 89.4% | 900.3hPa | 2.8V | 07:24:16 | 02:40:50 | 00:00:00 | |
| BIOWL1-15 | 2026-09-01 12:14:59 | 52.84783 | 9.16335 | 84° | 47km/h | 1074m | -3m/s | 10.6°C | 89.7% | 900hPa | 2.8V | 07:24:16 | 02:40:49 | 00:00:00 | |
| DM0DOS-11 | 2026-09-01 12:14:55 | 52.84783 | 9.16335 | 84° | 47km/h | 1074m | -3m/s | 10.6°C | 84.6% | 900hPa | 2.8V | 07:24:06 | 02:40:49 | 00:00:00 | |
| DB0DAN | 2026-09-01 12:14:55 | 52.84787 | 9.16390 | 80° | 38km/h | 1065m | -2.9m/s | 10.7°C | 82.9% | 901.05hPa | 2.8V | 00:00:00 | 00:00:00 | 00:00:00 | |
| BIOWL1-15 | 2026-09-01 12:14:55 | 52.84782 | 9.16315 | 86° | 49km/h | 1077m | -3m/s | 10.6°C | 90% | 899.7hPa | 2.7V | 07:24:16 | 02:40:48 | 00:00:00 | |
| BIOWL1-15 | 2026-09-01 12:14:51 | 52.84781 | 9.16294 | 87° | 49km/h | 1080m | -2.9m/s | 10.6°C | 90.2% | 899.4hPa | 2.8V | 07:24:16 | 02:40:47 | 00:00:00 | |
| DM0DOS-11 | 2026-09-01 12:14:50 | 52.84781 | 9.16232 | 91° | 51km/h | 1089m | -3m/s | 10.5°C | 85.2% | 898.4hPa | 2.8V | 07:24:11 | 02:40:44 | 00:00:00 | |
| DM0DOS-11 | 2026-09-01 12:14:50 | 52.84781 | 9.16190 | 90° | 49km/h | 1095m | -3m/s | 10.4°C | 84.9% | 897.8hPa | 2.8V | 07:24:13 | 02:40:42 | 00:00:00 | |
| BIOWL1-15 | 2026-09-01 12:14:48 | 52.84780 | 9.16253 | 91° | 51km/h | 1086m | -3.1m/s | 10.5°C | 89.8% | 898.7hPa | 2.8V | 07:24:16 | 02:40:45 | 00:00:00 | |
| BIOWL1-15 | 2026-09-01 12:14:46 | 52.84781 | 9.16210 | 92° | 51km/h | 1092m | -2.9m/s | 10.5°C | 89.5% | 898hPa | 2.8V | 07:24:16 | 02:40:43 | 00:00:00 | |
| BIOWL1-15 | 2026-09-01 12:14:45 | 52.84781 | 9.16190 | 91° | 49km/h | 1095m | -3m/s | 10.4°C | 89.1% | 897.8hPa | 2.8V | 07:24:16 | 02:40:42 | 00:00:00 | |
| BIOWL1-15 | 2026-09-01 12:14:44 | 52.84781 | 9.16148 | 88° | 51km/h | 1101m | -3m/s | 10.4°C | 88.2% | 897.1hPa | 2.8V | 07:24:16 | 02:40:40 | 00:00:00 | |
| DM0DOS-11 | 2026-09-01 12:14:44 | 52.84780 | 9.16105 | 86° | 51km/h | 1107m | -2.9m/s | 10.3°C | 85.7% | 896.4hPa | 2.8V | 07:24:17 | 02:40:38 | 00:00:00 | |
| BIOWL1-15 | 2026-09-01 12:14:42 | 52.84779 | 9.16084 | 85° | 51km/h | 1110m | -3m/s | 10.3°C | 88.3% | 896.2hPa | 2.8V | 07:25:07 | 02:40:37 | 00:00:00 | |
| BIOWL1-15 | 2026-09-01 12:14:40 | 52.84778 | 9.16063 | 86° | 51km/h | 1113m | -3m/s | 10.3°C | 88.7% | 895.9hPa | 2.8V | 07:25:07 | 02:40:36 | 00:00:00 | |
| DB0DAN | 2026-09-01 12:14:40 | 52.84779 | 9.16084 | 85° | 47km/h | 1110m | -3m/s | 10.3°C | 84.4% | 896.17hPa | 2.8V | 00:00:00 | 00:00:00 | 00:00:00 | |
| BIOWL1-15 | 2026-09-01 12:14:39 | 52.84778 | 9.16042 | 89° | 51km/h | 1116m | -3.1m/s | 10.2°C | 87.7% | 895.6hPa | 2.8V | 07:25:07 | 02:40:35 | 00:00:00 | |
| BIOWL1-15 | 2026-09-01 12:14:39 | 52.84778 | 9.16020 | 93° | 51km/h | 1119m | -3.1m/s | 10.2°C | 88% | 895.1hPa | 2.8V | 07:25:07 | 02:40:34 | 00:00:00 | |
| DD8BA-10 | 2026-09-01 12:14:39 | 52.84778 | 9.16063 | 87° | 51km/h | 1113m | -2.9m/s | 10.2°C | 85.9% | 895.9hPa | 2.7V | 00:00:00 | 00:00:00 | 00:00:00 | |
| DM0DOS-11 | 2026-09-01 12:14:38 | 52.84779 | 9.15999 | 95° | 51km/h | 1122m | -2.9m/s | 10.2°C | 85.1% | 895hPa | 2.8V | 07:24:22 | 02:40:33 | 00:00:00 | |
| DM0DOS-11 | 2026-09-01 12:14:38 | 52.84782 | 9.15959 | 100° | 46km/h | 1127m | -3.1m/s | 10.1°C | 86.2% | 894.3hPa | 2.7V | 07:24:24 | 02:40:31 | 00:00:00 | |
| DM0DOS-11 | 2026-09-01 12:14:38 | 52.84787 | 9.15923 | 99° | 40km/h | 1134m | -3.1m/s | 10.1°C | 86.5% | 893.6hPa | 2.8V | 07:24:26 | 02:40:29 | 00:00:00 | |
| BIOWL1-15 | 2026-09-01 12:14:36 | 52.84782 | 9.15959 | 101° | 46km/h | 1127m | -3.1m/s | 10.1°C | 89.5% | 894.3hPa | 2.7V | 07:25:07 | 02:40:31 | 00:00:00 | |
| BIOWL1-15 | 2026-09-01 12:14:35 | 52.84784 | 9.15940 | 102° | 44km/h | 1131m | -3m/s | 10.1°C | 89.9% | 893.9hPa | 2.8V | 07:25:07 | 02:40:30 | 00:00:00 | |
| DD8BA-10 | 2026-09-01 12:14:33 | 52.84784 | 9.15940 | 102° | 40km/h | 1131m | -3.0m/s | 10.0°C | 86.3% | 893.8hPa | 2.8V | 00:00:00 | 00:00:00 | 00:00:00 | |
| DO2LYB-13 | 2026-09-01 12:14:33 | 52.84784 | 9.15940 | 103° | 44km/h | 1131m | -3.0m/s | 10.1°C | 85.2% | 893.9hPa | 2.8V | 00:00:00 | 00:00:00 | 00:00:00 | |
| DM0DOS-11 | 2026-09-01 12:14:31 | 52.84787 | 9.15841 | 85° | 44km/h | 1149m | -3m/s | 9.9°C | 86.8% | 891.8hPa | 2.8V | 07:24:31 | 02:40:24 | 00:00:00 | |
| BIOWL1-15 | 2026-09-01 12:14:31 | 52.84788 | 9.15859 | 85° | 40km/h | 1146m | -3.2m/s | 9.9°C | 91.5% | 892.2hPa | 2.8V | 07:25:07 | 02:40:25 | 00:00:00 | |
| BIOWL1-15 | 2026-09-01 12:14:29 | 52.84788 | 9.15841 | 85° | 44km/h | 1149m | -3.1m/s | 9.9°C | 91.8% | 891.8hPa | 2.8V | 07:25:07 | 02:40:24 | 00:00:00 | |
| DL4XJ-10 | 2026-09-01 12:14:29 | 52.84789 | 9.15875 | 89° | 38km/h | 1142m | -3.0m/s | 11.6°C | 0% | 0hPa | 2.8V | 00:00:00 | 00:00:00 | 00:00:00 | |
| DD8BA-10 | 2026-09-01 12:14:27 | 52.84788 | 9.15841 | 86° | 46km/h | 1149m | -3.0m/s | 9.9°C | 86.8% | 891.7hPa | 2.8V | 00:00:00 | 00:00:00 | 00:00:00 | |
| DM0DOS-11 | 2026-09-01 12:14:26 | 52.84784 | 9.15762 | 86° | 49km/h | 1161m | -2.9m/s | 9.9°C | 85.8% | 890.6hPa | 2.8V | 07:24:35 | 02:40:20 | 00:00:00 | |
| BIOWL1-15 | 2026-09-01 12:14:25 | 52.84785 | 9.15783 | 86° | 49km/h | 1158m | -2.8m/s | 9.9°C | 91% | 890.9hPa | 2.8V | 07:25:07 | 02:40:21 | 00:00:00 | |
| DB0DAN | 2026-09-01 12:14:25 | 52.84786 | 9.15803 | 86° | 46km/h | 1155m | -3m/s | 9.9°C | 85.6% | 891.26hPa | 2.8V | 00:00:00 | 00:00:00 | 00:00:00 | |
| BIOWL1-15 | 2026-09-01 12:14:22 | 52.84783 | 9.15741 | 86° | 49km/h | 1164m | -3.1m/s | 9.9°C | 89.9% | 890.3hPa | 2.8V | 07:25:07 | 02:40:19 | 00:00:00 | |
| DM0DOS-11 | 2026-09-01 12:14:21 | 52.84778 | 9.15592 | 93° | 51km/h | 1184m | -2.9m/s | 9.7°C | 87.9% | 888.2hPa | 2.8V | 07:24:43 | 02:40:12 | 00:00:00 | |
| BIOWL1-15 | 2026-09-01 12:14:20 | 52.84778 | 9.15592 | 94° | 51km/h | 1184m | -2.9m/s | 9.7°C | 90% | 888.2hPa | 2.8V | 07:25:07 | 02:40:12 | 00:00:00 | |
| BIOWL1-15 | 2026-09-01 12:14:17 | 52.84779 | 9.15571 | 96° | 51km/h | 1187m | -3m/s | 9.6°C | 89.7% | 887.9hPa | 2.8V | 07:25:07 | 02:40:11 | 00:00:00 | |
| DJ2DS-15 | 2026-09-01 12:14:16 | 52.84778 | 9.15614 | 91° | 51km/h | 1181m | -3.0m/s | 9.7°C | 86.4% | 888.3hPa | 2.8V | 00:00:00 | 00:00:00 | 00:00:00 | |
| DM0DOS-11 | 2026-09-01 12:14:16 | 52.84779 | 9.15571 | 96° | 51km/h | 1187m | -3m/s | 9.6°C | 87.5% | 887.9hPa | 2.8V | 07:24:44 | 02:40:11 | 00:00:00 | |
| BIOWL1-15 | 2026-09-01 12:14:13 | 52.84781 | 9.15550 | 98° | 49km/h | 1190m | -3m/s | 9.6°C | 90.1% | 887.5hPa | 2.8V | 07:25:07 | 02:40:10 | 00:00:00 | |
| BIOWL1-15 | 2026-09-01 12:14:12 | 52.84783 | 9.15530 | 98° | 47km/h | 1193m | -3.1m/s | 9.6°C | 90.1% | 887.1hPa | 2.8V | 07:25:07 | 02:40:09 | 00:00:00 | |
| BIOWL1-15 | 2026-09-01 12:14:10 | 52.84786 | 9.15492 | 98° | 42km/h | 1199m | -3.2m/s | 9.6°C | 90.3% | 886.5hPa | 2.8V | 07:25:07 | 02:40:07 | 00:00:00 | |
| DB0DAN | 2026-09-01 12:14:10 | 52.84786 | 9.15492 | 98° | 40km/h | 1199m | -3.2m/s | 9.6°C | 86% | 886.55hPa | 2.8V | 00:00:00 | 00:00:00 | 00:00:00 | |
| BIOWL1-15 | 2026-09-01 12:14:09 | 52.84787 | 9.15475 | 95° | 40km/h | 1202m | -3.1m/s | 9.6°C | 89.9% | 886.3hPa | 2.7V | 07:25:07 | 02:40:06 | 00:00:00 | |
| BIOWL1-15 | 2026-09-01 12:14:08 | 52.84787 | 9.15427 | 84° | 38km/h | 1211m | -2.9m/s | 9.6°C | 88.1% | 885.1hPa | 2.8V | 07:25:07 | 02:40:03 | 00:00:00 | |
| DM0DOS-11 | 2026-09-01 12:14:07 | 52.84784 | 9.15394 | 78° | 42km/h | 1216m | -3.2m/s | 9.6°C | 84.4% | 884.5hPa | 2.8V | 07:24:54 | 02:40:01 | 00:00:00 | |
| DM0DOS-11 | 2026-09-01 12:14:07 | 52.84779 | 9.15359 | 77° | 46km/h | 1223m | -3.4m/s | 9.6°C | 82.6% | 883.9hPa | 2.8V | 07:24:56 | 02:39:59 | 00:00:00 | |
| BIOWL1-15 | 2026-09-01 12:14:06 | 52.84786 | 9.15411 | 80° | 40km/h | 1214m | -2.8m/s | 9.6°C | 87.8% | 884.9hPa | 2.8V | 07:25:07 | 02:40:02 | 00:00:00 | |
| BIOWL1-15 | 2026-09-01 12:14:04 | 52.84784 | 9.15394 | 79° | 42km/h | 1216m | -3.2m/s | 9.6°C | 87.9% | 884.5hPa | 2.8V | 07:25:07 | 02:40:01 | 00:00:00 | |
| BIOWL1-15 | 2026-09-01 12:14:03 | 52.84781 | 9.15377 | 78° | 44km/h | 1220m | -3.5m/s | 9.6°C | 88.2% | 884hPa | 2.8V | 07:25:07 | 02:40:00 | 00:00:00 | |
| BIOWL1-15 | 2026-09-01 12:14:01 | 52.84776 | 9.15340 | 77° | 47km/h | 1227m | -3.2m/s | 9.6°C | 86.4% | 883.3hPa | 2.7V | 07:25:07 | 02:39:58 | 00:00:00 | |
| DM0DOS-11 | 2026-09-01 12:14:01 | 52.84774 | 9.15320 | 78° | 49km/h | 1230m | -3.3m/s | 9.5°C | 82.7% | 883.3hPa | 2.8V | 07:24:58 | 02:39:57 | 00:00:00 | |
| DM0DOS-11 | 2026-09-01 12:14:01 | 52.84769 | 9.15277 | 81° | 53km/h | 1236m | -3.2m/s | 9.5°C | 83.1% | 882.5hPa | 2.8V | 07:25:00 | 02:39:55 | 00:00:00 | |
| BIOWL1-15 | 2026-09-01 12:13:59 | 52.84767 | 9.15255 | 83° | 53km/h | 1239m | -2.9m/s | 9.5°C | 85% | 882.2hPa | 2.8V | 07:25:07 | 02:39:54 | 00:00:00 | |
| DD8BA-10 | 2026-09-01 12:13:57 | 52.84767 | 9.15255 | 84° | 53km/h | 1239m | -2.9m/s | 9.4°C | 82.7% | 882.2hPa | 2.7V | 00:00:00 | 00:00:00 | 00:00:00 | |
| DM0DOS-11 | 2026-09-01 12:13:56 | 52.84764 | 9.15167 | 90° | 51km/h | 1250m | -3.1m/s | 9.5°C | 82.6% | 881hPa | 2.7V | 07:25:05 | 02:39:50 | 00:00:00 | |
| DM0DOS-11 | 2026-09-01 12:13:56 | 52.84765 | 9.15127 | 92° | 46km/h | 1256m | -3m/s | 9.4°C | 82.3% | 880.2hPa | 2.8V | 07:25:07 | 02:39:48 | 00:00:00 | |
| BIOWL1-15 | 2026-09-01 12:13:55 | 52.84765 | 9.15211 | 87° | 53km/h | 1244m | -2.9m/s | 9.5°C | 85.3% | 881.5hPa | 2.8V | 07:25:07 | 02:39:52 | 00:00:00 | |
| DB0DAN | 2026-09-01 12:13:55 | 52.84765 | 9.15211 | 87° | 51km/h | 1244m | -2.9m/s | 9.5°C | 81.2% | 881.48hPa | 2.8V | 00:00:00 | 00:00:00 | 00:00:00 | |
| BIOWL1-15 | 2026-09-01 12:13:53 | 52.84764 | 9.15167 | 90° | 51km/h | 1250m | -3.1m/s | 9.5°C | 86.5% | 881hPa | 2.7V | 07:25:07 | 02:39:50 | 00:00:00 | |
| BIOWL1-15 | 2026-09-01 12:13:51 | 52.84765 | 9.15127 | 93° | 46km/h | 1256m | -3m/s | 9.4°C | 86.2% | 880.2hPa | 2.8V | 07:25:07 | 02:39:48 | 00:00:00 | |
| DM0DOS-11 | 2026-09-01 12:13:50 | 52.84766 | 9.15091 | 90° | 42km/h | 1262m | -2.9m/s | 9.4°C | 83% | 879.6hPa | 2.8V | 07:25:09 | 02:39:46 | 00:00:00 | |
| BIOWL1-15 | 2026-09-01 12:13:50 | 52.84765 | 9.15109 | 92° | 44km/h | 1259m | -3.2m/s | 9.4°C | 86.7% | 879.8hPa | 2.8V | 07:25:58 | 02:39:47 | 00:00:00 | |
| BIOWL1-15 | 2026-09-01 12:13:48 | 52.84765 | 9.15057 | 88° | 40km/h | 1268m | -3.1m/s | 9.3°C | 86% | 878.8hPa | 2.8V | 07:25:58 | 02:39:44 | 00:00:00 | |
| BIOWL1-15 | 2026-09-01 12:13:45 | 52.84764 | 9.15025 | 84° | 38km/h | 1274m | -3.3m/s | 9.3°C | 86.1% | 878.3hPa | 2.7V | 07:25:58 | 02:39:42 | 00:00:00 | |
| DM0DOS-11 | 2026-09-01 12:13:45 | 52.84761 | 9.14994 | 77° | 38km/h | 1281m | -3.2m/s | 9.3°C | 82.8% | 877.5hPa | 2.8V | 07:25:15 | 02:39:40 | 00:00:00 | |
| DM0DOS-11 | 2026-09-01 12:13:45 | 52.84748 | 9.14924 | 73° | 49km/h | 1293m | -3.2m/s | 9.3°C | 82.6% | 876.1hPa | 2.8V | 07:25:19 | 02:39:36 | 00:00:00 | |
| BIOWL1-15 | 2026-09-01 12:13:44 | 52.84752 | 9.14943 | 72° | 46km/h | 1290m | -2.9m/s | 9.3°C | 85% | 876.6hPa | 2.8V | 07:25:58 | 02:39:37 | 00:00:00 | |
| BIOWL1-15 | 2026-09-01 12:13:43 | 52.84749 | 9.14924 | 73° | 49km/h | 1293m | -3.2m/s | 9.3°C | 85% | 876.2hPa | 2.8V | 07:25:58 | 02:39:36 | 00:00:00 | |
| BIOWL1-15 | 2026-09-01 12:13:40 | 52.84739 | 9.14778 | 91° | 44km/h | 1313m | -3m/s | 9.5°C | 82.7% | 874hPa | 2.8V | 07:25:58 | 02:39:29 | 00:00:00 | |
| DB0DAN | 2026-09-01 12:13:40 | 52.84752 | 9.14943 | 72° | 44km/h | 1290m | -2.9m/s | 9.3°C | 81.4% | 876.58hPa | 2.8V | 00:00:00 | 00:00:00 | 00:00:00 | |
| BIOWL1-15 | 2026-09-01 12:13:39 | 52.84739 | 9.14760 | 89° | 40km/h | 1316m | -3.1m/s | 9.5°C | 82.2% | 873.7hPa | 2.8V | 07:25:58 | 02:39:28 | 00:00:00 | |
| BIOWL1-15 | 2026-09-01 12:13:35 | 52.84738 | 9.14744 | 86° | 40km/h | 1319m | -3.1m/s | 9.6°C | 82.5% | 873.3hPa | 2.7V | 07:25:58 | 02:39:27 | 00:00:00 | |
| DD8BA-10 | 2026-09-01 12:13:35 | 52.84739 | 9.14838 | 87° | 49km/h | 1305m | -3.1m/s | 9.3°C | 80.8% | 875.0hPa | 2.7V | 00:00:00 | 00:00:00 | 00:00:00 | |
| DJ2DS-15 | 2026-09-01 12:13:35 | 52.84739 | 9.14838 | 87° | 47km/h | 1305m | -3.1m/s | 9.3°C | 80.8% | 875.0hPa | 2.7V | 00:00:00 | 02:39:32 | 00:00:00 | |
| BIOWL9-15 | 2026-09-01 12:13:34 | 52.84739 | 9.14817 | 89° | 49km/h | 1307m | -3.2m/s | 9.4°C | 79.4% | 874.6hPa | 2.8V | 00:00:00 | 00:00:00 | 00:00:00 | |
| DL4XJ-10 | 2026-09-01 12:13:34 | 52.84738 | 9.14817 | 90° | 42km/h | 1308m | -3.1m/s | 11.0°C | 0% | 0hPa | 2.8V | 00:00:00 | 00:00:00 | 00:00:00 | |
| DM0DOS-11 | 2026-09-01 12:13:32 | 52.84736 | 9.14711 | 80° | 38km/h | 1325m | -3.2m/s | 9.5°C | 78.4% | 872.7hPa | 2.8V | 07:25:30 | 02:39:25 | 00:00:00 | |
| DM0DOS-11 | 2026-09-01 12:13:32 | 52.84732 | 9.14679 | 75° | 40km/h | 1331m | -3.1m/s | 9.5°C | 78.5% | 872hPa | 2.8V | 07:25:32 | 02:39:23 | 00:00:00 | |
| BIOWL1-15 | 2026-09-01 12:13:31 | 52.84738 | 9.14727 | 83° | 38km/h | 1322m | -3.1m/s | 9.6°C | 83% | 873hPa | 2.8V | 07:25:58 | 02:39:26 | 00:00:00 | |
| BIOWL1-15 | 2026-09-01 12:13:28 | 52.84729 | 9.14662 | 74° | 42km/h | 1334m | -3.2m/s | 9.5°C | 83.6% | 871.7hPa | 2.8V | 07:25:58 | 02:39:22 | 00:00:00 | |
| BIOWL1-15 | 2026-09-01 12:13:26 | 52.84726 | 9.14644 | 74° | 44km/h | 1337m | -3.2m/s | 9.5°C | 83.6% | 871.3hPa | 2.8V | 07:25:58 | 02:39:21 | 00:00:00 | |
| DD8BA-10 | 2026-09-01 12:13:26 | 52.84732 | 9.14679 | 76° | 42km/h | 1331m | -3.1m/s | 9.4°C | 78.5% | 872.0hPa | 2.7V | 00:00:00 | 00:00:00 | 00:00:00 | |
| DM0DOS-11 | 2026-09-01 12:13:25 | 52.84726 | 9.14644 | 73° | 44km/h | 1337m | -3.2m/s | 9.4°C | 78.7% | 871.3hPa | 2.8V | 07:25:34 | 02:39:21 | 00:00:00 | |
| DB0DAN | 2026-09-01 12:13:25 | 52.84729 | 9.14662 | 74° | 40km/h | 1334m | -3.2m/s | 9.5°C | 77.4% | 871.73hPa | 2.8V | 00:00:00 | 00:00:00 | 00:00:00 | |
| BIOWL1-15 | 2026-09-01 12:13:22 | 52.84720 | 9.14607 | 75° | 47km/h | 1343m | -3.2m/s | 9.4°C | 83% | 870.8hPa | 2.7V | 07:25:58 | 02:39:19 | 00:00:00 | |
| BIOWL1-15 | 2026-09-01 12:13:21 | 52.84716 | 9.14588 | 76° | 49km/h | 1346m | -3.1m/s | 9.4°C | 82.6% | 870.3hPa | 2.8V | 07:25:58 | 02:39:18 | 00:00:00 | |
| BIOWL1-15 | 2026-09-01 12:13:20 | 52.84713 | 9.14567 | 78° | 53km/h | 1349m | -3.2m/s | 9.4°C | 82.7% | 869.9hPa | 2.8V | 07:25:58 | 02:39:17 | 00:00:00 | |
| BIOWL1-15 | 2026-09-01 12:13:19 | 52.84711 | 9.14545 | 79° | 53km/h | 1352m | -3.2m/s | 9.4°C | 82.6% | 869.7hPa | 2.8V | 07:25:58 | 02:39:16 | 00:00:00 | |
| DM0DOS-11 | 2026-09-01 12:13:18 | 52.84705 | 9.14432 | 90° | 53km/h | 1368m | -3.2m/s | 9.2°C | 78.2% | 868hPa | 2.8V | 07:25:44 | 02:39:11 | 00:00:00 | |
| BIOWL1-15 | 2026-09-01 12:13:18 | 52.84707 | 9.14500 | 84° | 55km/h | 1359m | -3.4m/s | 9.3°C | 82.4% | 869hPa | 2.8V | 07:25:58 | 02:39:14 | 00:00:00 | |
| BIOWL1-15 | 2026-09-01 12:13:16 | 52.84705 | 9.14477 | 86° | 55km/h | 1362m | -3.4m/s | 9.3°C | 82.3% | 868.6hPa | 2.8V | 07:25:58 | 02:39:13 | 00:00:00 | |
| BIOWL1-15 | 2026-09-01 12:13:14 | 52.84704 | 9.14432 | 91° | 53km/h | 1369m | -3.2m/s | 9.2°C | 83% | 868hPa | 2.8V | 07:25:58 | 02:39:11 | 00:00:00 | |
| DL4XJ-10 | 2026-09-01 12:13:14 | 52.84705 | 9.14432 | 91° | 46km/h | 1368m | -3.2m/s | 10.9°C | 0% | 0hPa | 2.8V | 00:00:00 | 00:00:00 | 00:00:00 | |
| DM0DOS-11 | 2026-09-01 12:13:13 | 52.84706 | 9.14390 | 94° | 49km/h | 1375m | -3.3m/s | 9.2°C | 78.2% | 867.3hPa | 2.8V | 07:25:46 | 02:39:09 | 00:00:00 | |
| DM0DOS-11 | 2026-09-01 12:13:13 | 52.84708 | 9.14316 | 87° | 40km/h | 1387m | -3m/s | 9.1°C | 77.8% | 866hPa | 2.8V | 07:25:50 | 02:39:05 | 00:00:00 | |
| BIOWL1-15 | 2026-09-01 12:13:13 | 52.84705 | 9.14283 | 80° | 42km/h | 1393m | -3.2m/s | 9.1°C | 81.8% | 865.4hPa | 2.8V | 07:25:58 | 02:39:03 | 00:00:00 | |
| BIOWL1-15 | 2026-09-01 12:13:12 | 52.84703 | 9.14265 | 76° | 46km/h | 1396m | -3m/s | 9°C | 82.1% | 865hPa | 2.8V | 07:25:58 | 02:39:02 | 00:00:00 | |
| BIOWL1-15 | 2026-09-01 12:13:10 | 52.84700 | 9.14246 | 74° | 47km/h | 1399m | -3.2m/s | 9°C | 82% | 864.7hPa | 2.8V | 07:25:58 | 02:39:01 | 00:00:00 | |
| DB0DAN | 2026-09-01 12:13:10 | 52.84707 | 9.14351 | 93° | 42km/h | 1381m | -3.1m/s | 9.2°C | 76.2% | 866.53hPa | 2.8V | 00:00:00 | 00:00:00 | 00:00:00 | |
| BIOWL1-15 | 2026-09-01 12:13:09 | 52.84697 | 9.14226 | 77° | 49km/h | 1402m | -3.1m/s | 9°C | 82.2% | 864.3hPa | 2.8V | 07:25:58 | 02:39:00 | 00:00:00 | |
| BIOWL1-15 | 2026-09-01 12:13:06 | 52.84694 | 9.14206 | 78° | 53km/h | 1405m | -3.5m/s | 8.9°C | 82.2% | 864hPa | 2.8V | 07:25:58 | 02:38:59 | 00:00:00 | |
| DJ2DS-15 | 2026-09-01 12:13:05 | 52.84703 | 9.14265 | 77° | 49km/h | 1396m | -2.9m/s | 9.0°C | 77.7% | 865.0hPa | 2.7V | 00:00:00 | 02:39:02 | 00:00:00 | |
| DJ2DS-15 | 2026-09-01 12:13:04 | 52.84700 | 9.14246 | 74° | 47km/h | 1398m | -3.2m/s | 9.0°C | 76.4% | 864.7hPa | 2.8V | 00:00:00 | 00:00:00 | 00:00:00 | |
| DL4XJ-10 | 2026-09-01 12:13:04 | 52.84700 | 9.14246 | 75° | 55km/h | 1398m | -3.2m/s | 10.6°C | 0% | 0hPa | 2.8V | 00:00:00 | 00:00:00 | 00:00:00 | |
| DD8BA-10 | 2026-09-01 12:13:04 | 52.84700 | 9.14246 | 75° | 49km/h | 1399m | -3.2m/s | 9.0°C | 77.5% | 864.6hPa | 2.8V | 07:25:00 | 00:00:00 | 00:00:00 | |
| BIOWL9-15 | 2026-09-01 12:13:03 | 52.84697 | 9.14226 | 77° | 47km/h | 1401m | -3.1m/s | 9.0°C | 76.7% | 864.3hPa | 2.8V | 00:00:00 | 00:00:00 | 00:00:00 | |
| DM0DOS-11 | 2026-09-01 12:13:03 | 52.84682 | 9.14069 | 87° | 58km/h | 1425m | -3.5m/s | 8.8°C | 78.2% | 861.9hPa | 2.8V | 07:26:02 | 02:38:53 | 00:00:00 | |
| BIOWL1-15 | 2026-09-01 12:13:01 | 52.84689 | 9.14162 | 80° | 55km/h | 1411m | -3.5m/s | 8.9°C | 82.5% | 863.3hPa | 2.7V | 07:25:58 | 02:38:57 | 00:00:00 | |
| BIOWL1-15 | 2026-09-01 12:12:59 | 52.84687 | 9.14139 | 81° | 55km/h | 1415m | -3.7m/s | 8.9°C | 82.3% | 863hPa | 2.8V | 07:26:49 | 02:38:56 | 00:00:00 | |
| BIOWL1-15 | 2026-09-01 12:12:57 | 52.84682 | 9.14045 | 88° | 57km/h | 1428m | -3.3m/s | 8.8°C | 82.7% | 861.5hPa | 2.8V | 07:26:49 | 02:38:52 | 00:00:00 | |
| DM0DOS-11 | 2026-09-01 12:12:57 | 52.84683 | 9.13976 | 91° | 53km/h | 1438m | -3.5m/s | 8.7°C | 78.7% | 860.4hPa | 2.8V | 07:26:06 | 02:38:49 | 00:00:00 | |
| BIOWL1-15 | 2026-09-01 12:12:56 | 52.84682 | 9.14021 | 91° | 55km/h | 1431m | -3.4m/s | 8.7°C | 83% | 861.1hPa | 2.8V | 07:26:49 | 02:38:51 | 00:00:00 | |
| DB0DAN | 2026-09-01 12:12:55 | 52.84682 | 9.14045 | 88° | 55km/h | 1428m | -3.3m/s | 8.8°C | 77.3% | 861.51hPa | 2.8V | 00:00:00 | 00:00:00 | 00:00:00 | |
| BIOWL1-15 | 2026-09-01 12:12:53 | 52.84684 | 9.13933 | 94° | 47km/h | 1445m | -3.4m/s | 8.6°C | 83.8% | 859.7hPa | 2.8V | 07:26:49 | 02:38:47 | 00:00:00 | |
| DD8BA-10 | 2026-09-01 12:12:52 | 52.84683 | 9.13976 | 92° | 51km/h | 1438m | -3.5m/s | 8.6°C | 78.7% | 860.4hPa | 2.8V | 00:00:00 | 00:00:00 | 00:00:00 | |
| DM0DOS-11 | 2026-09-01 12:12:51 | 52.84686 | 9.13895 | 89° | 44km/h | 1451m | -3.2m/s | 8.5°C | 79.8% | 859hPa | 2.8V | 07:26:10 | 02:38:45 | 00:00:00 | |
| BIOWL1-15 | 2026-09-01 12:12:50 | 52.84685 | 9.13914 | 94° | 46km/h | 1448m | -3.4m/s | 8.6°C | 84% | 859.3hPa | 2.8V | 07:26:49 | 02:38:46 | 00:00:00 | |
| BIOWL1-15 | 2026-09-01 12:12:47 | 52.84685 | 9.13877 | 86° | 44km/h | 1454m | -3.4m/s | 8.5°C | 84.4% | 858.6hPa | 2.8V | 07:26:49 | 02:38:44 | 00:00:00 | |
| BIOWL1-15 | 2026-09-01 12:12:46 | 52.84684 | 9.13859 | 83° | 44km/h | 1457m | -3.5m/s | 8.5°C | 84.4% | 858.4hPa | 2.8V | 07:26:49 | 02:38:43 | 00:00:00 | |
| BIOWL1-15 | 2026-09-01 12:12:45 | 52.84682 | 9.13841 | 79° | 46km/h | 1461m | -3.3m/s | 8.5°C | 84.5% | 858hPa | 2.7V | 07:26:49 | 02:38:42 | 00:00:00 | |
| BIOWL1-15 | 2026-09-01 12:12:43 | 52.84677 | 9.13802 | 78° | 51km/h | 1467m | -3.7m/s | 8.4°C | 84.5% | 857.3hPa | 2.8V | 07:26:49 | 02:38:40 | 00:00:00 | |
| BIOWL1-15 | 2026-09-01 12:12:43 | 52.84675 | 9.13780 | 79° | 55km/h | 1470m | -3.3m/s | 8.4°C | 83.9% | 856.8hPa | 2.8V | 07:26:49 | 02:38:39 | 00:00:00 | |
| DD8BA-10 | 2026-09-01 12:12:42 | 52.84675 | 9.13780 | 80° | 57km/h | 1471m | -3.2m/s | 8.4°C | 79.5% | 856.8hPa | 2.7V | 00:00:00 | 00:00:00 | 00:00:00 | |
| DM0DOS-11 | 2026-09-01 12:12:41 | 52.84667 | 9.13685 | 81° | 58km/h | 1483m | -3.7m/s | 8.3°C | 80.5% | 855.6hPa | 2.7V | 07:26:20 | 02:38:35 | 00:00:00 | |
| DM0DOS-11 | 2026-09-01 12:12:41 | 52.84663 | 9.13637 | 81° | 60km/h | 1490m | -3.7m/s | 8.2°C | 80.9% | 854.9hPa | 2.8V | 07:26:22 | 02:38:33 | 00:00:00 | |
| BIOWL1-15 | 2026-09-01 12:12:40 | 52.84670 | 9.13734 | 83° | 58km/h | 1476m | -3.4m/s | 8.4°C | 84.7% | 856.4hPa | 2.8V | 07:26:49 | 02:38:37 | 00:00:00 | |
| DB0DAN | 2026-09-01 12:12:40 | 52.84670 | 9.13734 | 83° | 55km/h | 1477m | -3.4m/s | 8.4°C | 78.9% | 856.37hPa | 2.8V | 00:00:00 | 00:00:00 | 00:00:00 | |
| BIOWL1-15 | 2026-09-01 12:12:39 | 52.84669 | 9.13710 | 84° | 58km/h | 1480m | -3.7m/s | 8.3°C | 84.9% | 856hPa | 2.8V | 07:26:49 | 02:38:36 | 00:00:00 | |
| BIOWL1-15 | 2026-09-01 12:12:38 | 52.84667 | 9.13685 | 82° | 58km/h | 1483m | -3.7m/s | 8.3°C | 85.2% | 855.6hPa | 2.7V | 07:26:49 | 02:38:35 | 00:00:00 | |
| BIOWL1-15 | 2026-09-01 12:12:37 | 52.84659 | 9.13588 | 84° | 60km/h | 1497m | -3.6m/s | 8.2°C | 86% | 854.1hPa | 2.8V | 07:26:49 | 02:38:31 | 00:00:00 | |
| DD8BA-10 | 2026-09-01 12:12:36 | 52.84663 | 9.13637 | 82° | 60km/h | 1490m | -3.7m/s | 8.2°C | 80.9% | 854.8hPa | 2.8V | 00:00:00 | 00:00:00 | 00:00:00 | |
| DM0DOS-11 | 2026-09-01 12:12:35 | 52.84659 | 9.13588 | 84° | 60km/h | 1497m | -3.6m/s | 8.2°C | 81.1% | 854.1hPa | 2.8V | 07:26:24 | 02:38:31 | 00:00:00 | |
| DM0DOS-11 | 2026-09-01 12:12:35 | 52.84658 | 9.13467 | 93° | 55km/h | 1513m | -4.1m/s | 8.1°C | 80.6% | 852.3hPa | 2.8V | 07:26:29 | 02:38:26 | 00:00:00 | |
| BIOWL1-15 | 2026-09-01 12:12:33 | 52.84657 | 9.13563 | 83° | 60km/h | 1500m | -3.4m/s | 8.2°C | 85.9% | 853.9hPa | 2.8V | 07:26:49 | 02:38:30 | 00:00:00 | |
| BIOWL1-15 | 2026-09-01 12:12:32 | 52.84657 | 9.13490 | 93° | 55km/h | 1510m | -3.9m/s | 8.1°C | 85.7% | 852.7hPa | 2.8V | 07:26:49 | 02:38:27 | 00:00:00 | |
| DL1LOL-11 | 2026-09-01 12:12:30 | 52.84656 | 9.13514 | 92° | 58km/h | 1506m | -3.9m/s | 8.1°C | 79.7% | 853.1hPa | 2.8V | 00:00:00 | 00:00:00 | 00:00:00 | |
| BIOWL1-15 | 2026-09-01 12:12:30 | 52.84658 | 9.13467 | 94° | 55km/h | 1513m | -4.1m/s | 8.1°C | 85.3% | 852.3hPa | 2.8V | 07:26:49 | 02:38:26 | 00:00:00 | |
| DJ2DS-15 | 2026-09-01 12:12:30 | 52.84657 | 9.13490 | 94° | 53km/h | 1510m | -3.8m/s | 8.0°C | 81.1% | 852.6hPa | 2.8V | 00:00:00 | 02:38:27 | 00:00:00 | |
| DM0DOS-11 | 2026-09-01 12:12:29 | 52.84659 | 9.13445 | 93° | 53km/h | 1517m | -4.2m/s | 8°C | 80.7% | 851.9hPa | 2.8V | 07:26:30 | 02:38:25 | 00:00:00 | |
| BIOWL1-15 | 2026-09-01 12:12:29 | 52.84659 | 9.13445 | 94° | 53km/h | 1517m | -4.2m/s | 8°C | 85.3% | 851.9hPa | 2.8V | 07:26:49 | 02:38:25 | 00:00:00 | |
| BIOWL1-15 | 2026-09-01 12:12:26 | 52.84661 | 9.13402 | 96° | 49km/h | 1525m | -3.8m/s | 8°C | 85.1% | 851.2hPa | 2.8V | 07:26:49 | 02:38:23 | 00:00:00 | |
| DB0DAN | 2026-09-01 12:12:25 | 52.84662 | 9.13382 | 93° | 46km/h | 1528m | -3.9m/s | 8°C | 79.3% | 850.99hPa | 2.8V | 00:00:00 | 00:00:00 | 00:00:00 | |
| BIOWL1-15 | 2026-09-01 12:12:24 | 52.84663 | 9.13362 | 92° | 47km/h | 1532m | -4m/s | 8°C | 84.5% | 850.5hPa | 2.7V | 07:26:49 | 02:38:21 | 00:00:00 | |
| BIOWL1-15 | 2026-09-01 12:12:23 | 52.84663 | 9.13342 | 90° | 46km/h | 1536m | -4m/s | 7.9°C | 84.7% | 850.2hPa | 2.8V | 07:26:49 | 02:38:20 | 00:00:00 | |
| BIOWL1-15 | 2026-09-01 12:12:21 | 52.84652 | 9.13221 | 80° | 58km/h | 1558m | -3.6m/s | 7.8°C | 85.4% | 847.9hPa | 2.7V | 07:26:49 | 02:38:14 | 00:00:00 | |
| BIOWL1-15 | 2026-09-01 12:12:20 | 52.84649 | 9.13197 | 81° | 60km/h | 1561m | -3.6m/s | 7.7°C | 85.6% | 847.6hPa | 2.8V | 07:26:49 | 02:38:13 | 00:00:00 | |
| BIOWL1-15 | 2026-09-01 12:12:19 | 52.84645 | 9.13070 | 93° | 60km/h | 1579m | -3.9m/s | 7.5°C | 86.6% | 845.8hPa | 2.8V | 07:26:49 | 02:38:08 | 00:00:00 | |
| BIOWL1-15 | 2026-09-01 12:12:13 | 52.84646 | 9.13046 | 94° | 58km/h | 1583m | -4m/s | 7.5°C | 86.7% | 845.5hPa | 2.7V | 07:26:49 | 02:38:07 | 00:00:00 | |
| DM0DOS-11 | 2026-09-01 12:12:12 | 52.84645 | 9.13070 | 93° | 60km/h | 1579m | -3.9m/s | 7.5°C | 81.6% | 845.8hPa | 2.8V | 07:26:47 | 02:38:08 | 00:00:00 | |
| DM0DOS-11 | 2026-09-01 12:12:12 | 52.84650 | 9.12977 | 93° | 51km/h | 1595m | -4.1m/s | 7.4°C | 82.3% | 844.4hPa | 2.8V | 07:26:51 | 02:38:04 | 00:00:00 | |
| DB0DAN | 2026-09-01 12:12:10 | 52.84646 | 9.13046 | 94° | 57km/h | 1583m | -4m/s | 7.5°C | 80.5% | 845.51hPa | 2.7V | 00:00:00 | 00:00:00 | 00:00:00 | |
| BIOWL1-15 | 2026-09-01 12:12:09 | 52.84647 | 9.13022 | 95° | 55km/h | 1587m | -4.1m/s | 7.5°C | 86.8% | 845.1hPa | 2.8V | 07:26:49 | 02:38:06 | 00:00:00 | |
| BIOWL1-15 | 2026-09-01 12:12:08 | 52.84649 | 9.12999 | 96° | 55km/h | 1591m | -4.1m/s | 7.4°C | 86.9% | 844.8hPa | 2.8V | 07:27:40 | 02:38:05 | 00:00:00 | |
| BIOWL1-15 | 2026-09-01 12:12:06 | 52.84651 | 9.12956 | 97° | 49km/h | 1599m | -3.5m/s | 7.4°C | 87% | 844hPa | 2.8V | 07:27:40 | 02:38:03 | 00:00:00 | |
| DM0DOS-11 | 2026-09-01 12:12:05 | 52.84652 | 9.12935 | 92° | 49km/h | 1602m | -3.8m/s | 7.3°C | 82.5% | 843.6hPa | 2.7V | 07:26:53 | 02:38:02 | 00:00:00 | |
| BIOWL1-15 | 2026-09-01 12:12:05 | 52.84652 | 9.12935 | 92° | 49km/h | 1602m | -3.8m/s | 7.3°C | 87.1% | 843.6hPa | 2.7V | 07:27:40 | 02:38:02 | 00:00:00 | |
| BIOWL1-15 | 2026-09-01 12:12:04 | 52.84652 | 9.12915 | 87° | 46km/h | 1606m | -3.4m/s | 7.3°C | 87.2% | 843.1hPa | 2.7V | 07:27:40 | 02:38:01 | 00:00:00 | |
| DL1XH-west | 2026-09-01 12:12:03 | 52.84652 | 9.12896 | 89° | 44km/h | 1610m | -3.6m/s | 7.3°C | 87.3% | 842.9hPa | 2.7V | 07:27:40 | 02:38:00 | 00:00:00 | |
| BIOWL1-15 | 2026-09-01 12:12:02 | 52.84651 | 9.12877 | 83° | 47km/h | 1613m | -3.5m/s | 7.3°C | 87.6% | 842.5hPa | 2.7V | 07:27:40 | 02:37:59 | 00:00:00 | |
| DL1XH-west | 2026-09-01 12:12:01 | 52.84649 | 9.12858 | 77° | 47km/h | 1617m | -3.6m/s | 7.3°C | 87.5% | 842.2hPa | 2.8V | 07:27:40 | 02:37:58 | 00:00:00 | |
| BIOWL1-15 | 2026-09-01 12:12:00 | 52.84646 | 9.12837 | 78° | 51km/h | 1620m | -3.8m/s | 7.2°C | 87.7% | 841.8hPa | 2.8V | 07:27:40 | 02:37:57 | 00:00:00 | |
| DM0DOS-11 | 2026-09-01 12:12:00 | 52.84637 | 9.12773 | 78° | 55km/h | 1631m | -3.8m/s | 7.1°C | 83.7% | 840.6hPa | 2.8V | 07:27:01 | 02:37:54 | 00:00:00 | |
| DL1XH-west | 2026-09-01 12:11:59 | 52.84643 | 9.12816 | 75° | 53km/h | 1624m | -4m/s | 7.2°C | 87.9% | 841.4hPa | 2.8V | 07:27:40 | 02:37:56 | 00:00:00 | |
| DL1XH-west | 2026-09-01 12:11:58 | 52.84640 | 9.12795 | 77° | 53km/h | 1628m | -3.7m/s | 7.1°C | 87.9% | 841hPa | 2.8V | 07:27:40 | 02:37:55 | 00:00:00 | |
| BIOWL1-15 | 2026-09-01 12:11:57 | 52.84637 | 9.12773 | 79° | 55km/h | 1631m | -3.8m/s | 7.1°C | 88% | 840.6hPa | 2.8V | 07:27:40 | 02:37:54 | 00:00:00 | |
| DL1XH-west | 2026-09-01 12:11:56 | 52.84634 | 9.12750 | 79° | 58km/h | 1635m | -3.5m/s | 7.1°C | 88% | 840.3hPa | 2.8V | 07:27:40 | 02:37:53 | 00:00:00 | |
| BIOWL1-15 | 2026-09-01 12:11:55 | 52.84629 | 9.12675 | 89° | 60km/h | 1646m | -3.6m/s | 7°C | 88.6% | 839.3hPa | 2.7V | 07:27:40 | 02:37:50 | 00:00:00 | |
| DB0DAN | 2026-09-01 12:11:55 | 52.84632 | 9.12725 | 80° | 58km/h | 1638m | -3.5m/s | 7.1°C | 82.4% | 840hPa | 2.7V | 00:00:00 | 00:00:00 | 00:00:00 | |
| DL1XH-west | 2026-09-01 12:11:55 | 52.84627 | 9.12528 | 83° | 46km/h | 1670m | -3.9m/s | 6.8°C | 90.3% | 836.9hPa | 2.8V | 07:27:40 | 02:37:43 | 00:00:00 | |
| DM0DOS-11 | 2026-09-01 12:11:54 | 52.84629 | 9.12675 | 89° | 60km/h | 1646m | -3.6m/s | 7°C | 84.3% | 839.3hPa | 2.7V | 07:27:05 | 02:37:50 | 00:00:00 | |
| BIOWL1-15 | 2026-09-01 12:11:54 | 52.84629 | 9.12650 | 89° | 57km/h | 1649m | -2.7m/s | 7°C | 88.8% | 838.9hPa | 2.7V | 07:27:40 | 02:37:49 | 00:00:00 | |
| DJ2DS-15 | 2026-09-01 12:11:52 | 52.84629 | 9.12627 | 92° | 53km/h | 1652m | -3.3m/s | 6.9°C | 83.3% | 838.5hPa | 2.8V | 00:00:00 | 00:00:00 | 00:00:00 | |
| DL1XH1-15 | 2026-09-01 12:11:50 | 52.84630 | 9.12566 | 85° | 46km/h | 1662m | -3.9m/s | 6.8°C | 85.2% | 837.5hPa | 2.8V | 07:27:10 | 02:37:45 | 00:00:00 | |
| BIOWL1-15 | 2026-09-01 12:11:50 | 52.84630 | 9.12566 | 86° | 46km/h | 1662m | -3.9m/s | 6.8°C | 89.6% | 837.5hPa | 2.8V | 07:27:40 | 02:37:45 | 00:00:00 | |
| BIOWL1-15 | 2026-09-01 12:11:49 | 52.84629 | 9.12547 | 84° | 47km/h | 1666m | -3.9m/s | 6.8°C | 90.1% | 837hPa | 2.7V | 07:27:40 | 02:37:44 | 00:00:00 | |
| DL4XJ-10 | 2026-09-01 12:11:49 | 52.84630 | 9.12585 | 93° | 51km/h | 1659m | -3.5m/s | 8.5°C | 0% | 0hPa | 2.8V | 00:00:00 | 00:00:00 | 00:00:00 | |
| DD8BA-10 | 2026-09-01 12:11:48 | 52.84630 | 9.12566 | 86° | 53km/h | 1662m | -3.9m/s | 6.8°C | 85.2% | 837.5hPa | 2.8V | 00:00:00 | 00:00:00 | 00:00:00 | |
| DM0DOS-11 | 2026-09-01 12:11:47 | 52.84625 | 9.12509 | 74° | 47km/h | 1674m | -4m/s | 6.7°C | 86.9% | 836.3hPa | 2.8V | 07:27:13 | 02:37:42 | 00:00:00 | |
| DL1XH-west | 2026-09-01 12:11:45 | 52.84625 | 9.12509 | 75° | 47km/h | 1674m | -4m/s | 6.7°C | 90.7% | 836.3hPa | 2.8V | 07:27:40 | 02:37:42 | 00:00:00 | |
| DJ2DS-15 | 2026-09-01 12:11:45 | 52.84625 | 9.12508 | 75° | 53km/h | 1674m | -3.9m/s | 6.7°C | 86.9% | 836.2hPa | 2.8V | 00:00:00 | 02:37:42 | 00:00:00 | |
| DL1XH1-15 | 2026-09-01 12:11:44 | 52.84618 | 9.12467 | 72° | 53km/h | 1682m | -3.6m/s | 6.7°C | 87.2% | 835.6hPa | 2.8V | 07:27:15 | 02:37:40 | 00:00:00 | |
| BIOWL1-15 | 2026-09-01 12:11:44 | 52.84622 | 9.12488 | 76° | 51km/h | 1678m | -4.2m/s | 6.7°C | 90.7% | 836hPa | 2.7V | 07:27:40 | 02:37:41 | 00:00:00 | |
| DL1XH-west | 2026-09-01 12:11:43 | 52.84618 | 9.12467 | 73° | 53km/h | 1682m | -3.6m/s | 6.7°C | 90.9% | 835.6hPa | 2.8V | 07:27:40 | 02:37:40 | 00:00:00 | |
| BIOWL1-15 | 2026-09-01 12:11:42 | 52.84614 | 9.12446 | 73° | 55km/h | 1685m | -3.3m/s | 6.7°C | 91.1% | 835.3hPa | 2.8V | 07:27:40 | 02:37:39 | 00:00:00 | |
| DL1XH-west | 2026-09-01 12:11:41 | 52.84605 | 9.12375 | 81° | 60km/h | 1695m | -3.6m/s | 6.6°C | 92.5% | 834.3hPa | 2.8V | 07:27:40 | 02:37:36 | 00:00:00 | |
| BIOWL1-15 | 2026-09-01 12:11:40 | 52.84607 | 9.12400 | 78° | 60km/h | 1692m | -3.4m/s | 6.6°C | 92% | 834.8hPa | 2.8V | 07:27:40 | 02:37:37 | 00:00:00 | |
| DB0DAN | 2026-09-01 12:11:40 | 52.84607 | 9.12400 | 78° | 57km/h | 1692m | -3.4m/s | 6.6°C | 86.6% | 834.78hPa | 2.8V | 00:00:00 | 00:00:00 | 00:00:00 | |
| DL4XJ-10 | 2026-09-01 12:11:39 | 52.84605 | 9.12375 | 82° | 57km/h | 1695m | -3.5m/s | 8.2°C | 0% | 0hPa | 2.8V | 00:00:00 | 00:00:00 | 00:00:00 | |
| DL1XH1-15 | 2026-09-01 12:11:38 | 52.84601 | 9.12325 | 83° | 60km/h | 1702m | -3.5m/s | 6.5°C | 88.4% | 833.4hPa | 2.8V | 07:27:21 | 02:37:34 | 00:00:00 | |
| DL1XH1-15 | 2026-09-01 12:11:38 | 52.84599 | 9.12276 | 89° | 58km/h | 1710m | -3.7m/s | 6.5°C | 89.2% | 832.9hPa | 2.7V | 07:27:23 | 02:37:32 | 00:00:00 | |
| DL1XH-west | 2026-09-01 12:11:38 | 52.84603 | 9.12350 | 83° | 60km/h | 1698m | -3.6m/s | 6.6°C | 92.7% | 833.9hPa | 2.8V | 07:27:40 | 02:37:35 | 00:00:00 | |
| DL1XH-west | 2026-09-01 12:11:37 | 52.84600 | 9.12301 | 86° | 58km/h | 1706m | -3.8m/s | 6.5°C | 93% | 833.2hPa | 2.7V | 07:27:40 | 02:37:33 | 00:00:00 | |
| BIOWL1-15 | 2026-09-01 12:11:36 | 52.84599 | 9.12251 | 89° | 58km/h | 1713m | -3.7m/s | 6.4°C | 93.8% | 832.6hPa | 2.7V | 07:27:40 | 02:37:31 | 00:00:00 | |
| DL1XH-west | 2026-09-01 12:11:35 | 52.84599 | 9.12276 | 89° | 58km/h | 1710m | -3.7m/s | 6.5°C | 94.1% | 832.9hPa | 2.7V | 07:27:40 | 02:37:32 | 00:00:00 | |
| DM0DOS-11 | 2026-09-01 12:11:34 | 52.84599 | 9.12251 | 89° | 58km/h | 1713m | -3.7m/s | 6.4°C | 88.7% | 832.5hPa | 2.7V | 07:27:24 | 02:37:31 | 00:00:00 | |
| DL1XH-west | 2026-09-01 12:11:33 | 52.84599 | 9.12228 | 90° | 57km/h | 1717m | -3.8m/s | 6.4°C | 94% | 832.2hPa | 2.7V | 07:27:40 | 02:37:30 | 00:00:00 | |
| DL1XH-west | 2026-09-01 12:11:31 | 52.84599 | 9.12184 | 90° | 49km/h | 1725m | -3.7m/s | 6.4°C | 93.2% | 831.4hPa | 2.8V | 07:27:40 | 02:37:28 | 00:00:00 | |
| DL1XH-west | 2026-09-01 12:11:30 | 52.84596 | 9.12128 | 79° | 44km/h | 1735m | -3.6m/s | 6.3°C | 93.2% | 830.4hPa | 2.8V | 07:27:40 | 02:37:25 | 00:00:00 | |
| DM0DOS-11 | 2026-09-01 12:11:29 | 52.84591 | 9.12092 | 73° | 47km/h | 1742m | -3.7m/s | 6.2°C | 90% | 829.7hPa | 2.8V | 07:27:32 | 02:37:23 | 00:00:00 | |
| DL1XH-west | 2026-09-01 12:11:28 | 52.84591 | 9.12092 | 73° | 47km/h | 1742m | -3.7m/s | 6.2°C | 93.2% | 829.7hPa | 2.8V | 07:27:40 | 02:37:23 | 00:00:00 | |
| DL1XH-west | 2026-09-01 12:11:27 | 52.84587 | 9.12072 | 74° | 51km/h | 1746m | -3.2m/s | 6.2°C | 93.3% | 829.3hPa | 2.7V | 07:27:40 | 02:37:22 | 00:00:00 | |
| DB0DAN | 2026-09-01 12:11:25 | 52.84587 | 9.12072 | 74° | 47km/h | 1746m | -3.2m/s | 6.2°C | 88.6% | 829.34hPa | 2.7V | 00:00:00 | 00:00:00 | 00:00:00 | |
| DL1XH-west | 2026-09-01 12:11:25 | 52.84584 | 9.12051 | 73° | 53km/h | 1749m | -3.1m/s | 6.1°C | 93.5% | 829.1hPa | 2.7V | 07:27:40 | 02:37:21 | 00:00:00 | |
| DM0DOS-11 | 2026-09-01 12:11:24 | 52.84577 | 9.12006 | 81° | 57km/h | 1755m | -3m/s | 6.1°C | 90.6% | 828.5hPa | 2.7V | 07:27:36 | 02:37:19 | 00:00:00 | |
| DM0DOS-11 | 2026-09-01 12:11:24 | 52.84573 | 9.11958 | 82° | 58km/h | 1762m | -3.2m/s | 6°C | 91.1% | 827.8hPa | 2.7V | 07:27:38 | 02:37:17 | 00:00:00 | |
| DM0DOS-11 | 2026-09-01 12:11:24 | 52.84571 | 9.11910 | 89° | 57km/h | 1768m | -3.5m/s | 5.9°C | 91.4% | 827.2hPa | 2.7V | 07:27:40 | 02:37:15 | 00:00:00 | |
| DL1XH-west | 2026-09-01 12:11:23 | 52.84580 | 9.12029 | 75° | 57km/h | 1753m | -2.9m/s | 6.1°C | 93.4% | 828.8hPa | 2.7V | 07:27:40 | 02:37:20 | 00:00:00 | |
| DL1XH-west | 2026-09-01 12:11:22 | 52.84577 | 9.12006 | 81° | 57km/h | 1755m | -3.1m/s | 6.1°C | 93.8% | 828.5hPa | 2.7V | 07:27:40 | 02:37:19 | 00:00:00 | |
| BIOWL1-15 | 2026-09-01 12:11:21 | 52.84571 | 9.11886 | 89° | 53km/h | 1772m | -3.2m/s | 5.9°C | 95% | 826.8hPa | 2.7V | 07:28:31 | 02:37:14 | 00:00:00 | |
| DL1XH-west | 2026-09-01 12:11:21 | 52.84573 | 9.11958 | 83° | 58km/h | 1762m | -3.2m/s | 6°C | 94.4% | 827.8hPa | 2.7V | 07:27:40 | 02:37:17 | 00:00:00 | |
| BIOWL1-15 | 2026-09-01 12:11:20 | 52.84572 | 9.11865 | 92° | 51km/h | 1775m | -3.5m/s | 5.9°C | 94.9% | 826.3hPa | 2.7V | 07:28:31 | 02:37:13 | 00:00:00 | |
| DL1XH1-15 | 2026-09-01 12:11:20 | 52.84572 | 9.11934 | 88° | 57km/h | 1765m | -3m/s | 6°C | 91.3% | 827.4hPa | 2.8V | 07:27:39 | 02:37:16 | 00:00:00 | |
| DL1XH1-15 | 2026-09-01 12:11:20 | 52.84571 | 9.11886 | 89° | 53km/h | 1772m | -3.2m/s | 5.9°C | 91.7% | 826.8hPa | 2.7V | 07:27:41 | 02:37:14 | 00:00:00 | |
| BIOWL1-15 | 2026-09-01 12:11:20 | 52.84572 | 9.11844 | 89° | 49km/h | 1778m | -3.4m/s | 5.9°C | 95% | 826.1hPa | 2.7V | 07:28:31 | 02:37:12 | 00:00:00 | |
| DL1XH-west | 2026-09-01 12:11:18 | 52.84572 | 9.11824 | 91° | 44km/h | 1782m | -3.4m/s | 5.8°C | 95.3% | 825.7hPa | 2.7V | 07:28:31 | 02:37:11 | 00:00:00 | |
| DM0DOS-11 | 2026-09-01 12:11:17 | 52.84571 | 9.11865 | 91° | 51km/h | 1775m | -3.5m/s | 5.9°C | 91.7% | 826.3hPa | 2.7V | 07:27:42 | 02:37:13 | 00:00:00 | |
| BIOWL1-15 | 2026-09-01 12:11:15 | 52.84571 | 9.11787 | 85° | 42km/h | 1789m | -3.4m/s | 5.8°C | 95.5% | 825hPa | 2.7V | 07:28:31 | 02:37:09 | 00:00:00 | |
| DL1XH-west | 2026-09-01 12:11:13 | 52.84572 | 9.11805 | 87° | 46km/h | 1785m | -3.4m/s | 5.8°C | 95.1% | 825.5hPa | 2.7V | 07:28:31 | 02:37:10 | 00:00:00 | |
| DM0DOS-11 | 2026-09-01 12:11:12 | 52.84568 | 9.11752 | 78° | 40km/h | 1795m | -3.3m/s | 5.7°C | 92.3% | 824.4hPa | 2.7V | 07:27:48 | 02:37:07 | 00:00:00 | |
| DL1XH-west | 2026-09-01 12:11:11 | 52.84569 | 9.11770 | 81° | 44km/h | 1792m | -3.2m/s | 5.7°C | 95.6% | 824.9hPa | 2.7V | 07:28:31 | 02:37:08 | 00:00:00 | |
| BIOWL1-15 | 2026-09-01 12:11:11 | 52.84565 | 9.11735 | 75° | 44km/h | 1799m | -3.2m/s | 5.7°C | 95.4% | 824.1hPa | 2.6V | 07:28:31 | 02:37:06 | 00:00:00 | |
| BIOWL1-15 | 2026-09-01 12:11:10 | 52.84562 | 9.11718 | 74° | 44km/h | 1802m | -3.4m/s | 5.6°C | 95.4% | 823.7hPa | 2.7V | 07:28:31 | 02:37:05 | 00:00:00 | |
| DB0DAN | 2026-09-01 12:11:10 | 52.84568 | 9.11752 | 79° | 38km/h | 1795m | -3.3m/s | 5.7°C | 90.6% | 824.4hPa | 2.7V | 00:00:00 | 00:00:00 | 00:00:00 | |
| DL1XH-west | 2026-09-01 12:11:09 | 52.84551 | 9.11660 | 72° | 51km/h | 1811m | -3.3m/s | 5.6°C | 95.6% | 822.8hPa | 2.7V | 07:28:31 | 02:37:02 | 00:00:00 | |
| DL1XH-west | 2026-09-01 12:11:09 | 52.84534 | 9.11522 | 85° | 57km/h | 1831m | -3.3m/s | 5.4°C | 96% | 821hPa | 2.7V | 07:28:31 | 02:36:56 | 00:00:00 | |
| BIOWL1-15 | 2026-09-01 12:11:07 | 52.84559 | 9.11699 | 73° | 47km/h | 1805m | -3.3m/s | 5.6°C | 95.4% | 823.4hPa | 2.7V | 07:28:31 | 02:37:04 | 00:00:00 | |
| BIOWL1-15 | 2026-09-01 12:11:05 | 52.84533 | 9.11499 | 88° | 53km/h | 1834m | -3.1m/s | 5.4°C | 96.3% | 820.6hPa | 2.7V | 07:28:31 | 02:36:55 | 00:00:00 | |
| BIOWL1-15 | 2026-09-01 12:11:04 | 52.84533 | 9.11478 | 87° | 49km/h | 1837m | -3.2m/s | 5.4°C | 96.3% | 820.5hPa | 2.7V | 07:28:31 | 02:36:54 | 00:00:00 | |
| BIOWL1-15 | 2026-09-01 12:10:58 | 52.84532 | 9.11457 | 87° | 47km/h | 1840m | -3.1m/s | 5.3°C | 96.4% | 820hPa | 2.7V | 07:28:31 | 02:36:53 | 00:00:00 | |
| DD8BA-10 | 2026-09-01 12:10:58 | 52.84533 | 9.11499 | 88° | 46km/h | 1834m | -3.1m/s | 5.4°C | 93.6% | 820.6hPa | 2.7V | 00:00:00 | 00:00:00 | 00:00:00 | |
| DL1XH1-15 | 2026-09-01 12:10:57 | 52.84526 | 9.11365 | 80° | 44km/h | 1857m | -3.6m/s | 5.2°C | 94.4% | 818.5hPa | 2.7V | 07:28:07 | 02:36:48 | 00:00:00 | |
| BIOWL1-15 | 2026-09-01 12:10:55 | 52.84531 | 9.11438 | 85° | 46km/h | 1843m | -3.1m/s | 5.3°C | 96.7% | 819.7hPa | 2.7V | 07:28:31 | 02:36:52 | 00:00:00 | |
| DB0DAN | 2026-09-01 12:10:55 | 52.84531 | 9.11438 | 85° | 44km/h | 1844m | -3.1m/s | 5.3°C | 91.8% | 819.69hPa | 2.7V | 00:00:00 | 00:00:00 | 00:00:00 | |
| DL1XH-west | 2026-09-01 12:10:53 | 52.84529 | 9.11401 | 83° | 44km/h | 1850m | -3.4m/s | 5.3°C | 97.3% | 819.1hPa | 2.7V | 07:28:31 | 02:36:50 | 00:00:00 | |
| BIOWL1-15 | 2026-09-01 12:10:53 | 52.84526 | 9.11365 | 80° | 44km/h | 1857m | -3.6m/s | 5.2°C | 97.8% | 818.5hPa | 2.7V | 07:28:31 | 02:36:48 | 00:00:00 | |
| DL1XH-west | 2026-09-01 12:10:52 | 52.84527 | 9.11383 | 81° | 44km/h | 1853m | -3.1m/s | 5.3°C | 97.5% | 818.8hPa | 2.7V | 07:28:31 | 02:36:49 | 00:00:00 | |
| DL1XH1-15 | 2026-09-01 12:10:50 | 52.84521 | 9.11330 | 78° | 44km/h | 1864m | -3.5m/s | 5.2°C | 95.3% | 817.8hPa | 2.7V | 07:28:09 | 02:36:46 | 00:00:00 | |
| DL1XH-west | 2026-09-01 12:10:50 | 52.84524 | 9.11347 | 79° | 44km/h | 1860m | -3.6m/s | 5.2°C | 98.1% | 818hPa | 2.7V | 07:28:31 | 02:36:47 | 00:00:00 | |
| BIOWL1-15 | 2026-09-01 12:10:50 | 52.84517 | 9.11295 | 78° | 44km/h | 1871m | -3.4m/s | 5.2°C | 98.9% | 817.1hPa | 2.7V | 07:28:31 | 02:36:44 | 00:00:00 | |
| DL1XH-west | 2026-09-01 12:10:48 | 52.84519 | 9.11312 | 78° | 42km/h | 1867m | -3.6m/s | 5.2°C | 98.7% | 817.5hPa | 2.7V | 07:28:31 | 02:36:45 | 00:00:00 | |
| DL1XH-west | 2026-09-01 12:10:47 | 52.84506 | 9.11226 | 72° | 44km/h | 1884m | -3.4m/s | 5.1°C | 98.8% | 815.7hPa | 2.7V | 07:28:31 | 02:36:40 | 00:00:00 | |
| BIOWL1-15 | 2026-09-01 12:10:46 | 52.84515 | 9.11277 | 77° | 42km/h | 1874m | -3m/s | 5.2°C | 99% | 816.8hPa | 2.7V | 07:28:31 | 02:36:43 | 00:00:00 | |
| DJ2DS-15 | 2026-09-01 12:10:45 | 52.84512 | 9.11260 | 77° | 46km/h | 1877m | -3.3m/s | 5.1°C | 96.2% | 816.5hPa | 2.7V | 00:00:00 | 02:36:42 | 00:00:00 | |
| DL1XH1-15 | 2026-09-01 12:10:45 | 52.84506 | 9.11226 | 71° | 44km/h | 1884m | -3.4m/s | 5.1°C | 96.6% | 815.7hPa | 2.7V | 07:28:15 | 02:36:40 | 00:00:00 | |
| BIOWL1-15 | 2026-09-01 12:10:44 | 52.84509 | 9.11243 | 75° | 42km/h | 1881m | -3.5m/s | 5.1°C | 98.9% | 816.2hPa | 2.7V | 07:28:31 | 02:36:41 | 00:00:00 | |
| DM0DOS-11 | 2026-09-01 12:10:43 | 52.84486 | 9.11129 | 73° | 55km/h | 1901m | -3.6m/s | 5°C | 97.4% | 814.4hPa | 2.7V | 07:28:20 | 02:36:35 | 00:00:00 | |
| BIOWL1-15 | 2026-09-01 12:10:42 | 52.84502 | 9.11208 | 71° | 46km/h | 1888m | -3.4m/s | 5.1°C | 98.9% | 815.6hPa | 2.7V | 07:28:31 | 02:36:39 | 00:00:00 | |
| DL1XH-west | 2026-09-01 12:10:41 | 52.84499 | 9.11189 | 71° | 47km/h | 1891m | -3.4m/s | 5.1°C | 99.2% | 815.2hPa | 2.7V | 07:28:31 | 02:36:38 | 00:00:00 | |
| BIOWL1-15 | 2026-09-01 12:10:40 | 52.84494 | 9.11170 | 70° | 49km/h | 1894m | -3.3m/s | 5.1°C | 99.1% | 814.9hPa | 2.7V | 07:28:31 | 02:36:37 | 00:00:00 | |
| DB0DAN | 2026-09-01 12:10:40 | 52.84494 | 9.11170 | 70° | 47km/h | 1894m | -3.3m/s | 5.1°C | 95.7% | 814.93hPa | 2.7V | 00:00:00 | 00:00:00 | 00:00:00 | |
| BIOWL1-15 | 2026-09-01 12:10:39 | 52.84490 | 9.11150 | 71° | 53km/h | 1898m | -3.3m/s | 5°C | 99.1% | 814.6hPa | 2.7V | 07:28:31 | 02:36:36 | 00:00:00 | |
| DJ2DS-15 | 2026-09-01 12:10:39 | 52.84490 | 9.11150 | 71° | 55km/h | 1898m | -3.3m/s | 5.0°C | 97.5% | 814.5hPa | 2.7V | 00:00:00 | 02:36:36 | 00:00:00 | |
| DL4XJ-10 | 2026-09-01 12:10:39 | 52.84490 | 9.11150 | 71° | 53km/h | 1898m | -3.3m/s | 6.7°C | 0% | 0hPa | 2.7V | 00:00:00 | 00:00:00 | 00:00:00 | |
| DL1XH1-15 | 2026-09-01 12:10:38 | 52.84472 | 9.10995 | 82° | 51km/h | 1921m | -3.2m/s | 4.9°C | 98.2% | 812.2hPa | 2.7V | 07:28:26 | 02:36:29 | 00:00:00 | |
| DL1XH-west | 2026-09-01 12:10:38 | 52.84486 | 9.11129 | 74° | 55km/h | 1901m | -3.6m/s | 5°C | 99.4% | 814.4hPa | 2.7V | 07:28:31 | 02:36:35 | 00:00:00 | |
| BIOWL1-15 | 2026-09-01 12:10:38 | 52.84482 | 9.11107 | 76° | 55km/h | 1905m | -3.2m/s | 5°C | 99.7% | 814hPa | 2.7V | 07:28:31 | 02:36:34 | 00:00:00 | |
| DL1XH-west | 2026-09-01 12:10:36 | 52.84471 | 9.10995 | 83° | 51km/h | 1921m | -3.2m/s | 4.9°C | 100% | 812.3hPa | 2.7V | 07:28:31 | 02:36:29 | 00:00:00 | |
| BIOWL1-15 | 2026-09-01 12:10:36 | 52.84479 | 9.11084 | 79° | 55km/h | 1908m | -3.3m/s | 5°C | 99.8% | 813.5hPa | 2.7V | 07:28:31 | 02:36:33 | 00:00:00 | |
| DL1XH-west | 2026-09-01 12:10:35 | 52.84470 | 9.10974 | 83° | 47km/h | 1925m | -3.5m/s | 4.9°C | 100% | 812hPa | 2.7V | 07:28:31 | 02:36:28 | 00:00:00 | |
| BIOWL1-15 | 2026-09-01 12:10:34 | 52.84475 | 9.11039 | 82° | 55km/h | 1915m | -3.4m/s | 5°C | 99.8% | 813hPa | 2.7V | 07:28:31 | 02:36:31 | 00:00:00 | |
| DJ2DS-15 | 2026-09-01 12:10:34 | 52.84475 | 9.11038 | 82° | 51km/h | 1915m | -3.4m/s | 4.9°C | 97.9% | 812.9hPa | 2.7V | 00:00:00 | 02:36:31 | 00:00:00 | |
| DM0DOS-11 | 2026-09-01 12:10:32 | 52.84468 | 9.10955 | 83° | 46km/h | 1928m | -3.5m/s | 4.9°C | 98.4% | 811.5hPa | 2.7V | 07:28:28 | 02:36:27 | 00:00:00 | |
| DM0DOS-11 | 2026-09-01 12:10:32 | 52.84466 | 9.10917 | 83° | 44km/h | 1935m | -3.4m/s | 4.8°C | 98.8% | 811hPa | 2.7V | 07:28:30 | 02:36:25 | 00:00:00 | |
| BIOWL1-15 | 2026-09-01 12:10:31 | 52.84467 | 9.10936 | 83° | 46km/h | 1931m | -3.2m/s | 4.8°C | 100% | 811.3hPa | 2.7V | 07:28:31 | 02:36:26 | 00:00:00 | |
| DL1XH-west | 2026-09-01 12:10:30 | 52.84468 | 9.10955 | 84° | 46km/h | 1928m | -3.5m/s | 4.9°C | 100% | 811.5hPa | 2.7V | 07:28:31 | 02:36:27 | 00:00:00 | |
| DL1XH-west | 2026-09-01 12:10:28 | 52.84466 | 9.10917 | 83° | 44km/h | 1935m | -3.4m/s | 4.8°C | 100% | 811hPa | 2.7V | 07:28:31 | 02:36:25 | 00:00:00 | |
| BIOWL1-15 | 2026-09-01 12:10:27 | 52.84461 | 9.10843 | 84° | 44km/h | 1948m | -3.5m/s | 4.7°C | 100% | 809.6hPa | 2.7V | 07:29:22 | 02:36:21 | 00:00:00 | |
| DL1XH1-15 | 2026-09-01 12:10:27 | 52.84463 | 9.10880 | 84° | 44km/h | 1941m | -3.2m/s | 4.8°C | 99% | 810.2hPa | 2.7V | 07:28:32 | 02:36:23 | 00:00:00 | |
| DM0DOS-11 | 2026-09-01 12:10:26 | 52.84461 | 9.10843 | 83° | 44km/h | 1948m | -3.5m/s | 4.7°C | 98.8% | 809.6hPa | 2.7V | 07:28:34 | 02:36:21 | 00:00:00 | |
| DM0DOS-11 | 2026-09-01 12:10:26 | 52.84458 | 9.10807 | 80° | 42km/h | 1955m | -3.6m/s | 4.7°C | 99% | 808.8hPa | 2.7V | 07:28:36 | 02:36:19 | 00:00:00 | |
| DL1XH-west | 2026-09-01 12:10:26 | 52.84463 | 9.10880 | 84° | 44km/h | 1942m | -3.2m/s | 4.8°C | 100% | 810.2hPa | 2.7V | 07:29:22 | 02:36:23 | 00:00:00 | |
| BIOWL1-15 | 2026-09-01 12:10:25 | 52.84460 | 9.10825 | 83° | 44km/h | 1952m | -3.5m/s | 4.8°C | 100% | 809.2hPa | 2.7V | 07:29:22 | 02:36:20 | 00:00:00 | |
| DL1XH-west | 2026-09-01 12:10:25 | 52.84462 | 9.10861 | 85° | 44km/h | 1945m | -3.5m/s | 4.7°C | 100% | 810hPa | 2.7V | 07:29:22 | 02:36:22 | 00:00:00 | |
| DB0DAN | 2026-09-01 12:10:25 | 52.84462 | 9.10861 | 85° | 42km/h | 1945m | -3.5m/s | 4.7°C | 97.2% | 809.96hPa | 2.7V | 00:00:00 | 00:00:00 | 00:00:00 | |
| BIOWL1-15 | 2026-09-01 12:10:21 | 52.84456 | 9.10790 | 78° | 42km/h | 1959m | -3.4m/s | 4.7°C | 100% | 808.5hPa | 2.7V | 07:29:22 | 02:36:18 | 00:00:00 | |
| BIOWL1-15 | 2026-09-01 12:10:20 | 52.84453 | 9.10773 | 74° | 42km/h | 1962m | -3.5m/s | 4.7°C | 100% | 808.1hPa | 2.7V | 07:29:22 | 02:36:17 | 00:00:00 | |
| DM0DOS-11 | 2026-09-01 12:10:19 | 52.84446 | 9.10740 | 67° | 44km/h | 1969m | -3.2m/s | 4.5°C | 0% | 807.4hPa | 2.7V | 07:28:40 | 02:36:15 | 00:00:00 | |
| DL1XH-west | 2026-09-01 12:10:19 | 52.84450 | 9.10757 | 71° | 42km/h | 1966m | -3.4m/s | 4.6°C | 100% | 807.9hPa | 2.7V | 07:29:22 | 02:36:16 | 00:00:00 | |
| DL1XH-west | 2026-09-01 12:10:18 | 52.84446 | 9.10740 | 67° | 44km/h | 1969m | -3.2m/s | 4.5°C | 100% | 807.4hPa | 2.7V | 07:29:22 | 02:36:15 | 00:00:00 | |
| DL1XH1-15 | 2026-09-01 12:10:17 | 52.84426 | 9.10666 | 66° | 51km/h | 1982m | -3.1m/s | 4.4°C | 0% | 806.2hPa | 2.7V | 07:28:44 | 02:36:11 | 00:00:00 | |
| DL1XH-west | 2026-09-01 12:10:16 | 52.84437 | 9.10704 | 65° | 49km/h | 1976m | -3.2m/s | 4.5°C | 100% | 806.8hPa | 2.7V | 07:29:22 | 02:36:13 | 00:00:00 | |
| DL1XH-west | 2026-09-01 12:10:15 | 52.84405 | 9.10556 | 80° | 55km/h | 1998m | -2.9m/s | 4.3°C | 100% | 804.6hPa | 2.7V | 07:29:22 | 02:36:06 | 00:00:00 | |
| DM0DOS-11 | 2026-09-01 12:10:14 | 52.84416 | 9.10624 | 70° | 57km/h | 1989m | -3.2m/s | 4.4°C | 0% | 805.5hPa | 2.7V | 07:28:46 | 02:36:09 | 00:00:00 | |
| DM0DOS-11 | 2026-09-01 12:10:14 | 52.84401 | 9.10514 | 81° | 47km/h | 2004m | -2.9m/s | 4.2°C | 0% | 804.1hPa | 2.7V | 07:28:51 | 02:36:04 | 00:00:00 | |
| DJ2DS-15 | 2026-09-01 12:10:14 | 52.84426 | 9.10666 | 67° | 55km/h | 1982m | -3.0m/s | 4.4°C | 0% | 806.1hPa | 2.7V | 00:00:00 | 02:36:11 | 00:00:00 | |
| DB0DAN | 2026-09-01 12:10:10 | 52.84408 | 9.10579 | 76° | 53km/h | 1995m | -3.2m/s | 4.3°C | 99.1% | 805.02hPa | 2.7V | 00:00:00 | 00:00:00 | 00:00:00 | |
| DL1XH-west | 2026-09-01 12:10:08 | 52.84395 | 9.10461 | 77° | 42km/h | 2013m | -3m/s | 4.2°C | 100% | 803.2hPa | 2.7V | 07:29:22 | 02:36:01 | 00:00:00 | |
| DM0DOS-11 | 2026-09-01 12:10:08 | 52.84387 | 9.10412 | 71° | 40km/h | 2023m | -3.3m/s | 4.2°C | 0% | 802.3hPa | 2.7V | 07:28:57 | 02:35:58 | 00:00:00 | |
| DD8BA-10 | 2026-09-01 12:10:08 | 52.84403 | 9.10534 | 82° | 42km/h | 2001m | -2.9m/s | 4.2°C | 0% | 804.3hPa | 2.7V | 00:00:00 | 00:00:00 | 00:00:00 | |
| DJ2DS-15 | 2026-09-01 12:10:04 | 52.84395 | 9.10460 | 78° | 47km/h | 2013m | -2.9m/s | 4.1°C | 0% | 803.1hPa | 2.7V | 00:00:00 | 02:36:01 | 00:00:00 | |
| DJ2DS-15 | 2026-09-01 12:10:03 | 52.84393 | 9.10444 | 75° | 40km/h | 2016m | -3.0m/s | 4.2°C | 99.3% | 802.8hPa | 2.7V | 00:00:00 | 00:00:00 | 00:00:00 | |
| DL1XH1-15 | 2026-09-01 12:10:01 | 52.84360 | 9.10311 | 62° | 51km/h | 2042m | -3.6m/s | 4°C | 0% | 800.4hPa | 2.7V | 07:29:03 | 02:35:52 | 00:00:00 | |
| BIOWL1-15 | 2026-09-01 12:10:00 | 52.84383 | 9.10396 | 70° | 40km/h | 2026m | -3.1m/s | 4.2°C | 100% | 801.9hPa | 2.7V | 07:29:22 | 02:35:57 | 00:00:00 | |
| BIOWL9-15 | 2026-09-01 12:09:57 | 52.84365 | 9.10330 | 63° | 47km/h | 2039m | -3.6m/s | 4.0°C | 99.6% | 800.9hPa | 2.7V | 00:00:00 | 00:00:00 | 00:00:00 | |
| DL1XH1-15 | 2026-09-01 12:09:55 | 52.84332 | 9.10207 | 72° | 57km/h | 2060m | -3.5m/s | 4.1°C | 97.6% | 798.6hPa | 2.7V | 07:29:08 | 02:35:47 | 00:00:00 | |
| DB0DAN | 2026-09-01 12:09:55 | 52.84360 | 9.10311 | 63° | 47km/h | 2042m | -3.6m/s | 4°C | 99.4% | 800.37hPa | 2.7V | 00:00:00 | 00:00:00 | 00:00:00 | |
| DL1XH-west | 2026-09-01 12:09:54 | 52.84354 | 9.10292 | 63° | 53km/h | 2046m | -3.4m/s | 4.1°C | 100% | 800.1hPa | 2.7V | 07:29:22 | 02:35:51 | 00:00:00 | |
| DL1XH1-15 | 2026-09-01 12:09:50 | 52.84319 | 9.10104 | 79° | 44km/h | 2078m | -3.7m/s | 4.3°C | 91.3% | 797hPa | 2.7V | 07:29:13 | 02:35:42 | 00:00:00 | |
| BIOWL1-15 | 2026-09-01 12:09:50 | 52.84332 | 9.10207 | 73° | 57km/h | 2060m | -3.5m/s | 4.1°C | 100% | 798.6hPa | 2.7V | 07:29:22 | 02:35:47 | 00:00:00 | |
| DD8BA-10 | 2026-09-01 12:09:48 | 52.84325 | 9.10163 | 79° | 46km/h | 2067m | -3.4m/s | 4.1°C | 95.0% | 798.0hPa | 2.7V | 00:00:00 | 00:00:00 | 00:00:00 | |
| DL1XH1-15 | 2026-09-01 12:09:45 | 52.84302 | 9.10020 | 63° | 44km/h | 2096m | -3.4m/s | 4°C | 94.2% | 795.3hPa | 2.7V | 07:29:18 | 02:35:37 | 00:00:00 | |
| DL1XH-west | 2026-09-01 12:09:43 | 52.84314 | 9.10069 | 75° | 42km/h | 2085m | -3.5m/s | 4.2°C | 97.4% | 796.1hPa | 2.7V | 07:29:22 | 02:35:40 | 00:00:00 | |
| DL1XH1-15 | 2026-09-01 12:09:40 | 52.84275 | 9.09920 | 72° | 57km/h | 2112m | -3.2m/s | 3.9°C | 96.4% | 793.7hPa | 2.6V | 07:29:23 | 02:35:32 | 00:00:00 | |
| DB0DAN | 2026-09-01 12:09:40 | 52.84302 | 9.10020 | 63° | 42km/h | 2096m | -3.4m/s | 4°C | 92.4% | 795.3hPa | 2.7V | 00:00:00 | 00:00:00 | 00:00:00 | |
| BIOWL1-15 | 2026-09-01 12:09:39 | 52.84297 | 9.10003 | 62° | 47km/h | 2099m | -3m/s | 4°C | 97.3% | 794.8hPa | 2.7V | 07:29:22 | 02:35:36 | 00:00:00 | |
| DL1XH-west | 2026-09-01 12:09:32 | 52.84266 | 9.09855 | 78° | 49km/h | 2123m | -3.5m/s | 3.8°C | 98% | 792.8hPa | 2.7V | 07:30:13 | 02:35:29 | 00:00:00 | |
| DL1XH1-15 | 2026-09-01 12:09:30 | 52.84224 | 9.09671 | 73° | 58km/h | 2155m | -4.3m/s | 3.5°C | 97% | 789.6hPa | 2.7V | 07:29:35 | 02:35:20 | 00:00:00 | |
| BIOWL1-15 | 2026-09-01 12:09:29 | 52.84224 | 9.09672 | 73° | 58km/h | 2155m | -4.3m/s | 3.5°C | 100% | 789.6hPa | 2.7V | 07:30:13 | 02:35:20 | 00:00:00 | |
| DD8BA-10 | 2026-09-01 12:09:28 | 52.84267 | 9.09780 | 65° | 57km/h | 2136m | -2.9m/s | 3.6°C | 96.6% | 791.4hPa | 2.7V | 00:00:00 | 00:00:00 | 00:00:00 | |
| DJ2DS-15 | 2026-09-01 12:09:27 | 52.84244 | 9.09760 | 65° | 53km/h | 2139m | -4.1m/s | 3.6°C | 94.5% | 791.2hPa | 2.7V | 00:00:00 | 00:00:00 | 00:00:00 | |
| DL1CLM-18 | 2026-09-01 12:09:26 | 52.84245 | 9.09760 | 67° | 53km/h | 2139m | -4.1m/s | 3.6°C | 94.5% | 791.2hPa | 2.7V | 00:00:00 | 00:00:00 | 00:00:00 | |
| DB0DAN | 2026-09-01 12:09:25 | 52.84234 | 9.09717 | 69° | 55km/h | 2147m | -3.6m/s | 3.6°C | 95% | 790.37hPa | 2.7V | 00:00:00 | 00:00:00 | 00:00:00 | |
| DJ2DS-15 | 2026-09-01 12:09:24 | 52.84229 | 9.09694 | 71° | 53km/h | 2151m | -3.8m/s | 3.5°C | 96.6% | 790.0hPa | 2.7V | 00:00:00 | 02:35:21 | 00:00:00 | |
| DL1XH1-15 | 2026-09-01 12:09:23 | 52.84210 | 9.09557 | 82° | 51km/h | 2177m | -3.9m/s | 3.3°C | 97.5% | 787.5hPa | 2.7V | 07:29:40 | 02:35:15 | 00:00:00 | |
| DL1XH-west | 2026-09-01 12:09:21 | 52.84217 | 9.09625 | 78° | 58km/h | 2164m | -3.9m/s | 3.4°C | 100% | 788.9hPa | 2.7V | 07:30:13 | 02:35:18 | 00:00:00 | |
| DM0DOS-11 | 2026-09-01 12:09:19 | 52.84199 | 9.09462 | 71° | 47km/h | 2198m | -4.4m/s | 3.2°C | 95.1% | 785.4hPa | 2.6V | 07:29:45 | 02:35:10 | 00:00:00 | |
| DL1XH1-15 | 2026-09-01 12:09:18 | 52.84195 | 9.09443 | 70° | 51km/h | 2202m | -4.1m/s | 3.1°C | 96.3% | 785hPa | 2.7V | 07:29:46 | 02:35:09 | 00:00:00 | |
| BIOWL1-15 | 2026-09-01 12:09:14 | 52.84202 | 9.09481 | 75° | 46km/h | 2193m | -4.5m/s | 3.2°C | 100% | 786.1hPa | 2.7V | 07:30:13 | 02:35:11 | 00:00:00 | |
| DL4XJ-10 | 2026-09-01 12:09:14 | 52.84202 | 9.09481 | 75° | 57km/h | 2194m | -4.5m/s | 4.8°C | 0% | 0hPa | 2.7V | 00:00:00 | 00:00:00 | 00:00:00 | |
| DM0DOS-11 | 2026-09-01 12:09:14 | 52.84175 | 9.09327 | 75° | 58km/h | 2222m | -4.2m/s | 2.9°C | 98.2% | 783.1hPa | 2.7V | 07:29:51 | 02:35:04 | 00:00:00 | |
| DL1XH1-15 | 2026-09-01 12:09:13 | 52.84175 | 9.09327 | 75° | 58km/h | 2222m | -4.2m/s | 2.9°C | 98.2% | 783.1hPa | 2.7V | 07:29:51 | 02:35:04 | 00:00:00 | |
| DL1XH-west | 2026-09-01 12:09:10 | 52.84187 | 9.09400 | 75° | 58km/h | 2210m | -3.7m/s | 3°C | 99.2% | 784.3hPa | 2.7V | 07:30:13 | 02:35:07 | 00:00:00 | |
| DB0DAN | 2026-09-01 12:09:10 | 52.84187 | 9.09400 | 75° | 55km/h | 2210m | -3.7m/s | 3°C | 95.8% | 784.29hPa | 2.7V | 00:00:00 | 00:00:00 | 00:00:00 | |
| BUE01 | 2026-09-01 12:09:09 | 52.84179 | 9.09351 | 75° | 60km/h | 2218m | -4.0m/s | 2.9°C | 96.5% | 783.5hPa | 2.7V | 00:00:00 | 00:00:00 | 00:00:00 | |
| DD8BA-10 | 2026-09-01 12:09:08 | 52.84179 | 9.09351 | 76° | 58km/h | 2218m | -3.9m/s | 2.9°C | 98.5% | 783.5hPa | 2.7V | 00:00:00 | 00:00:00 | 00:00:00 | |
| DM0DOS-11 | 2026-09-01 12:09:07 | 52.84155 | 9.09214 | 73° | 57km/h | 2246m | -5.1m/s | 2.7°C | 97.3% | 780.9hPa | 2.7V | 07:29:56 | 02:34:59 | 00:00:00 | |
| BIOWL1-15 | 2026-09-01 12:09:03 | 52.84159 | 9.09237 | 72° | 55km/h | 2241m | -5.6m/s | 2.8°C | 99.8% | 781.4hPa | 2.7V | 07:30:13 | 02:35:00 | 00:00:00 | |
| DL1XH-west | 2026-09-01 12:08:59 | 52.84141 | 9.09145 | 73° | 60km/h | 2261m | -4.6m/s | 2.6°C | 100% | 779.5hPa | 2.7V | 07:30:13 | 02:34:56 | 00:00:00 | |
| DD8BA-10 | 2026-09-01 12:08:58 | 52.84137 | 9.09120 | 75° | 58km/h | 2265m | -3.5m/s | 2.5°C | 0% | 779.0hPa | 2.7V | 07:30:00 | 00:00:00 | 00:00:00 | |
| DL1XH1-15 | 2026-09-01 12:08:57 | 52.84119 | 9.08944 | 85° | 57km/h | 2296m | -4.3m/s | 2.3°C | 0% | 776.2hPa | 2.7V | 07:30:07 | 02:34:48 | 00:00:00 | |
| DB0DAN | 2026-09-01 12:08:55 | 52.84126 | 9.09045 | 80° | 60km/h | 2278m | -5m/s | 2.4°C | 97.8% | 777.79hPa | 2.7V | 00:00:00 | 00:00:00 | 00:00:00 | |
| BIOWL1-15 | 2026-09-01 12:08:55 | 52.84118 | 9.08921 | 88° | 53km/h | 2301m | -4.3m/s | 2.3°C | 100% | 775.6hPa | 2.7V | 07:30:13 | 02:34:47 | 00:00:00 | |
| BIOWL9-15 | 2026-09-01 12:08:55 | 52.84124 | 9.09019 | 80° | 62km/h | 2283m | -4.5m/s | 2.4°C | 97.9% | 777.3hPa | 2.6V | 00:00:00 | 00:00:00 | 00:00:00 | |
| DL4XJ-10 | 2026-09-01 12:08:54 | 52.84123 | 9.09019 | 81° | 57km/h | 2283m | -4.4m/s | 4.0°C | 0% | 0hPa | 2.6V | 00:00:00 | 00:00:00 | 00:00:00 | |
| DL1XH1-15 | 2026-09-01 12:08:51 | 52.84108 | 9.08819 | 72° | 51km/h | 2320m | -3.4m/s | 2.2°C | 0% | 773.8hPa | 2.6V | 07:30:13 | 02:34:42 | 00:00:00 | |
| DL1XH-west | 2026-09-01 12:08:48 | 52.84116 | 9.08879 | 83° | 51km/h | 2309m | -4.1m/s | 2.2°C | 100% | 774.8hPa | 2.7V | 07:30:13 | 02:34:45 | 00:00:00 | |
| DD8BA-10 | 2026-09-01 12:08:48 | 52.84116 | 9.08879 | 84° | 55km/h | 2309m | -4.1m/s | 2.2°C | 0% | 774.8hPa | 2.7V | 00:00:00 | 00:00:00 | 00:00:00 | |
| DL1XH1-15 | 2026-09-01 12:08:45 | 52.84075 | 9.08661 | 72° | 64km/h | 2347m | -4m/s | 2.2°C | 0% | 771.1hPa | 2.7V | 07:30:20 | 02:34:35 | 00:00:00 | |
| BIOWL1-15 | 2026-09-01 12:08:41 | 52.84090 | 9.08734 | 70° | 58km/h | 2336m | -4.1m/s | 2.3°C | 100% | 772.3hPa | 2.7V | 07:31:04 | 02:34:38 | 00:00:00 | |
| DM0DOS-11 | 2026-09-01 12:08:40 | 52.84059 | 9.08558 | 80° | 60km/h | 2364m | -4.5m/s | 2.1°C | 0% | 769.5hPa | 2.7V | 07:30:24 | 02:34:31 | 00:00:00 | |
| DB0DAN | 2026-09-01 12:08:40 | 52.84085 | 9.08710 | 70° | 58km/h | 2340m | -3.5m/s | 2.2°C | 100% | 771.77hPa | 2.7V | 00:00:00 | 00:00:00 | 00:00:00 | |
| DL1XH1-15 | 2026-09-01 12:08:39 | 52.84059 | 9.08558 | 80° | 60km/h | 2364m | -4.5m/s | 2.1°C | 0% | 769.5hPa | 2.7V | 07:30:24 | 02:34:31 | 00:00:00 | |
| DL1XH-west | 2026-09-01 12:08:38 | 52.84075 | 9.08661 | 73° | 64km/h | 2347m | -4m/s | 2.2°C | 100% | 771.1hPa | 2.7V | 07:31:04 | 02:34:35 | 00:00:00 | |
| DD8BA-10 | 2026-09-01 12:08:38 | 52.84075 | 9.08660 | 73° | 58km/h | 2347m | -3.9m/s | 2.1°C | 0% | 771.1hPa | 2.6V | 00:00:00 | 00:00:00 | 00:00:00 | |
| DL1LOL-11 | 2026-09-01 12:08:36 | 52.84070 | 9.08635 | 76° | 64km/h | 2351m | -4.5m/s | 2.2°C | 0% | 770.7hPa | 2.6V | 07:31:00 | 00:00:00 | 00:00:00 | |
| DM0DOS-11 | 2026-09-01 12:08:35 | 52.84052 | 9.08466 | 80° | 49km/h | 2381m | -4m/s | 2°C | 0% | 767.8hPa | 2.6V | 07:30:28 | 02:34:27 | 00:00:00 | |
| BIOWL1-15 | 2026-09-01 12:08:31 | 52.84054 | 9.08487 | 83° | 53km/h | 2377m | -4.1m/s | 2.1°C | 100% | 768.3hPa | 2.7V | 07:31:04 | 02:34:28 | 00:00:00 | |
| DL1XH1-15 | 2026-09-01 12:08:29 | 52.84049 | 9.08446 | 76° | 49km/h | 2385m | -3.6m/s | 1.9°C | 0% | 767.4hPa | 2.6V | 07:30:29 | 02:34:26 | 00:00:00 | |
| DL1XH-15 | 2026-09-01 12:08:28 | 52.84046 | 9.08426 | 72° | 51km/h | 2388m | -3.3m/s | 1.8°C | 0% | 767hPa | 2.7V | 07:30:30 | 02:34:25 | 00:00:00 | |
| DL1XH-west | 2026-09-01 12:08:28 | 52.84046 | 9.08426 | 72° | 51km/h | 2389m | -3.3m/s | 1.8°C | 100% | 767hPa | 2.7V | 07:31:04 | 02:34:25 | 00:00:00 | |
| DD8BA-10 | 2026-09-01 12:08:28 | 52.84046 | 9.08426 | 73° | 60km/h | 2389m | -3.2m/s | 1.8°C | 0% | 767.0hPa | 2.7V | 00:00:00 | 00:00:00 | 00:00:00 | |
| DM0DOS-11 | 2026-09-01 12:08:25 | 52.84031 | 9.08361 | 69° | 57km/h | 2399m | -3.4m/s | 1.8°C | 0% | 765.9hPa | 2.7V | 07:30:33 | 02:34:22 | 00:00:00 | |
| DM0DOS-11 | 2026-09-01 12:08:25 | 52.84010 | 9.08205 | 82° | 66km/h | 2419m | -3.9m/s | 1.7°C | 0% | 763.9hPa | 2.7V | 07:30:39 | 02:34:16 | 00:00:00 | |
| DB0DAN | 2026-09-01 12:08:25 | 52.84031 | 9.08361 | 69° | 55km/h | 2399m | -3.4m/s | 1.8°C | 100% | 765.87hPa | 2.7V | 00:00:00 | 00:00:00 | 00:00:00 | |
| DL1XH1-15 | 2026-09-01 12:08:24 | 52.84026 | 9.08337 | 74° | 64km/h | 2402m | -3.3m/s | 1.7°C | 0% | 765.3hPa | 2.7V | 07:30:34 | 02:34:21 | 00:00:00 | |
| DL1XH1-15 | 2026-09-01 12:08:24 | 52.84007 | 9.08178 | 81° | 64km/h | 2423m | -3.6m/s | 1.6°C | 0% | 763.5hPa | 2.6V | 07:30:40 | 02:34:15 | 00:00:00 | |
| BIOWL9-15 | 2026-09-01 12:08:24 | 52.84022 | 9.08312 | 75° | 60km/h | 2406m | -3.1m/s | 1.7°C | 100.0% | 765.3hPa | 2.7V | 00:00:00 | 00:00:00 | 00:00:00 | |
| DL1XH-15 | 2026-09-01 12:08:23 | 52.84005 | 9.08152 | 85° | 60km/h | 2426m | -3.3m/s | 1.6°C | 0% | 763hPa | 2.7V | 07:30:41 | 02:34:14 | 00:00:00 | |
| BIOWL1-15 | 2026-09-01 12:08:21 | 52.84004 | 9.08104 | 88° | 57km/h | 2433m | -3.5m/s | 1.6°C | 100% | 762.6hPa | 2.7V | 07:31:04 | 02:34:12 | 00:00:00 | |
| DM0DOS-11 | 2026-09-01 12:08:20 | 52.84003 | 9.08081 | 85° | 53km/h | 2437m | -3.1m/s | 1.6°C | 0% | 762.3hPa | 2.7V | 07:30:44 | 02:34:11 | 00:00:00 | |
| DL1XH-west | 2026-09-01 12:08:18 | 52.84006 | 9.08152 | 85° | 60km/h | 2426m | -3.3m/s | 1.6°C | 100% | 763hPa | 2.7V | 07:31:04 | 02:34:14 | 00:00:00 | |
| DJ2DS-15 | 2026-09-01 12:08:16 | 52.84004 | 9.08104 | 87° | 57km/h | 2433m | -3.5m/s | 1.6°C | 100.0% | 762.6hPa | 2.6V | 00:00:00 | 00:00:00 | 00:00:00 | |
| DM0DOS-11 | 2026-09-01 12:08:14 | 52.83997 | 9.07974 | 83° | 53km/h | 2452m | -3m/s | 1.7°C | 0% | 760.8hPa | 2.6V | 07:30:49 | 02:34:06 | 00:00:00 | |
| DL4XJ-10 | 2026-09-01 12:08:14 | 52.84003 | 9.08080 | 86° | 53km/h | 2437m | -3.0m/s | 3.2°C | 0% | 0hPa | 2.7V | 00:00:00 | 00:00:00 | 00:00:00 | |
| DL1XH-15 | 2026-09-01 12:08:12 | 52.83992 | 9.07908 | 84° | 53km/h | 2462m | -3.1m/s | 2.2°C | 93.8% | 759.8hPa | 2.7V | 07:30:52 | 02:34:03 | 00:00:00 | |
| BIOWL1-15 | 2026-09-01 12:08:11 | 52.83993 | 9.07908 | 84° | 53km/h | 2462m | -3.1m/s | 2.2°C | 92.1% | 759.8hPa | 2.7V | 07:31:04 | 02:34:03 | 00:00:00 | |
| DB0DAN | 2026-09-01 12:08:10 | 52.83998 | 9.07995 | 84° | 49km/h | 2449m | -3.2m/s | 1.7°C | 100% | 761.14hPa | 2.7V | 00:00:00 | 00:00:00 | 00:00:00 | |
| DM0DOS-11 | 2026-09-01 12:08:08 | 52.83989 | 9.07842 | 85° | 53km/h | 2472m | -3.3m/s | 2.7°C | 69.8% | 758.9hPa | 2.7V | 07:30:55 | 02:34:00 | 00:00:00 | |
| DL1XH-west | 2026-09-01 12:08:08 | 52.83994 | 9.07930 | 84° | 53km/h | 2459m | -3.2m/s | 1.8°C | 95.1% | 760.1hPa | 2.7V | 07:31:04 | 02:34:04 | 00:00:00 | |
| DL1XH1-15 | 2026-09-01 12:08:07 | 52.83987 | 9.07799 | 88° | 51km/h | 2478m | -3.3m/s | 2.7°C | 66.9% | 758.4hPa | 2.7V | 07:30:57 | 02:33:58 | 00:00:00 | |
| DJ2DS-15 | 2026-09-01 12:08:04 | 52.83990 | 9.07864 | 85° | 58km/h | 2468m | -3.2m/s | 2.7°C | 68.8% | 759.2hPa | 2.7V | 00:00:00 | 02:34:01 | 00:00:00 | |
| DM0DOS-11 | 2026-09-01 12:08:03 | 52.83984 | 9.07735 | 82° | 51km/h | 2488m | -3.2m/s | 2.5°C | 72% | 757.4hPa | 2.6V | 07:31:00 | 02:33:55 | 00:00:00 | |
| DL4BBY-15 | 2026-09-01 12:08:03 | 52.83989 | 9.07842 | 86° | 58km/h | 2472m | -3.3m/s | 4.3°C | 0% | 0hPa | 2.7V | 00:00:00 | 00:00:00 | 00:00:00 | |
| DL1XH1-15 | 2026-09-01 12:08:01 | 52.83979 | 9.07691 | 77° | 58km/h | 2494m | -3m/s | 2.5°C | 70% | 756.8hPa | 2.7V | 07:31:02 | 02:33:53 | 00:00:00 | |
| DL1XH-15 | 2026-09-01 12:08:01 | 52.83976 | 9.07666 | 77° | 62km/h | 2497m | -2.9m/s | 2.6°C | 63.2% | 756.5hPa | 2.7V | 07:31:03 | 02:33:52 | 00:00:00 | |
| DL3AQ-11 | 2026-09-01 12:07:59 | 52.83986 | 9.07756 | 85° | 49km/h | 2485m | -3.4m/s | 2.5°C | 70.5% | 757.7hPa | 2.7V | 00:00:00 | 00:00:00 | 00:00:00 | |
| DM0DOS-11 | 2026-09-01 12:07:58 | 52.83970 | 9.07612 | 81° | 68km/h | 2503m | -2.8m/s | 2.7°C | 63.9% | 756hPa | 2.7V | 07:31:05 | 02:33:50 | 00:00:00 | |
| DL1XH-west | 2026-09-01 12:07:57 | 52.83982 | 9.07713 | 79° | 55km/h | 2491m | -3m/s | 2.4°C | 76.8% | 757.1hPa | 2.7V | 07:31:04 | 02:33:54 | 00:00:00 | |
| BIOWL1-15 | 2026-09-01 12:07:56 | 52.83979 | 9.07691 | 78° | 58km/h | 2494m | -3m/s | 2.5°C | 75.2% | 756.8hPa | 2.7V | 07:31:04 | 02:33:53 | 00:00:00 | |
| DB0DAN | 2026-09-01 12:07:55 | 52.83976 | 9.07666 | 78° | 60km/h | 2497m | -2.9m/s | 2.6°C | 61.9% | 756.47hPa | 2.7V | 00:00:00 | 00:00:00 | 00:00:00 | |
| DL4XJ-10 | 2026-09-01 12:07:54 | 52.83973 | 9.07640 | 80° | 60km/h | 2501m | -2.9m/s | 4.3°C | 0% | 0hPa | 2.6V | 00:00:00 | 00:00:00 | 00:00:00 | |
| DM0DOS-11 | 2026-09-01 12:07:53 | 52.83966 | 9.07474 | 91° | 60km/h | 2518m | -2.8m/s | 2.5°C | 65.6% | 754.6hPa | 2.6V | 07:31:10 | 02:33:45 | 00:00:00 | |
| DL1CLM-18 | 2026-09-01 12:07:52 | 52.83968 | 9.07584 | 85° | 69km/h | 2506m | -3.0m/s | 2.6°C | 61.4% | 755.8hPa | 2.7V | 00:00:00 | 00:00:00 | 00:00:00 | |
| DL1XH1-15 | 2026-09-01 12:07:51 | 52.83966 | 9.07403 | 89° | 55km/h | 2527m | -3.2m/s | 2.4°C | 68.3% | 753.7hPa | 2.7V | 07:31:13 | 02:33:42 | 00:00:00 | |
| SMARD9-15 | 2026-09-01 12:07:50 | 52.83966 | 9.07403 | 89° | 53km/h | 2527m | -3.2m/s | 2.4°C | 66.8% | 753.7hPa | 2.7V | 00:00:00 | 00:00:00 | 00:00:00 | |
| DM0DOS-11 | 2026-09-01 12:07:48 | 52.83966 | 9.07358 | 86° | 53km/h | 2533m | -3.1m/s | 2.4°C | 68.5% | 753.1hPa | 2.7V | 07:31:15 | 02:33:40 | 00:00:00 | |
| BIOWL1-15 | 2026-09-01 12:07:46 | 52.83966 | 9.07426 | 90° | 57km/h | 2524m | -3m/s | 2.5°C | 70.4% | 754.1hPa | 2.7V | 07:31:55 | 02:33:43 | 00:00:00 | |
| DL1XH1-15 | 2026-09-01 12:07:45 | 52.83959 | 9.07269 | 80° | 57km/h | 2546m | -3.1m/s | 2.2°C | 71.2% | 751.9hPa | 2.6V | 07:31:19 | 02:33:36 | 00:00:00 | |
| DJ2DS-15 | 2026-09-01 12:07:44 | 52.83966 | 9.07380 | 89° | 62km/h | 2530m | -3.1m/s | 2.4°C | 68.5% | 753.5hPa | 2.6V | 07:31:00 | 02:33:41 | 00:00:00 | |
| DM0DOS-11 | 2026-09-01 12:07:43 | 52.83957 | 9.07244 | 80° | 60km/h | 2549m | -3.2m/s | 2.2°C | 72.7% | 751.6hPa | 2.6V | 07:31:20 | 02:33:35 | 00:00:00 | |
| DL1XH-15 | 2026-09-01 12:07:42 | 52.83954 | 9.07218 | 81° | 64km/h | 2552m | -2.9m/s | 2.2°C | 73.9% | 751.4hPa | 2.7V | 07:31:21 | 02:33:34 | 00:00:00 | |
| DB0DAN | 2026-09-01 12:07:40 | 52.83961 | 9.07292 | 81° | 51km/h | 2543m | -3.1m/s | 2.2°C | 67.9% | 752.22hPa | 2.7V | 00:00:00 | 00:00:00 | 00:00:00 | |
| DL1XH1-15 | 2026-09-01 12:07:40 | 52.83948 | 9.07134 | 85° | 69km/h | 2560m | -3m/s | 2.2°C | 74.6% | 750.6hPa | 2.7V | 07:31:24 | 02:33:31 | 00:00:00 | |
| DJ2DS-15 | 2026-09-01 12:07:39 | 52.83959 | 9.07269 | 80° | 57km/h | 2546m | -3.2m/s | 2.2°C | 69.7% | 751.9hPa | 2.7V | 00:00:00 | 00:00:00 | 00:00:00 | |
| DD8BA-10 | 2026-09-01 12:07:38 | 52.83957 | 9.07244 | 81° | 68km/h | 2549m | -3.1m/s | 2.2°C | 72.7% | 751.6hPa | 2.7V | 07:31:00 | 00:00:00 | 00:00:00 | |
| DM0DOS-11 | 2026-09-01 12:07:37 | 52.83947 | 9.07105 | 86° | 69km/h | 2563m | -3.1m/s | 2.2°C | 74.4% | 750.2hPa | 2.7V | 07:31:25 | 02:33:30 | 00:00:00 | |
| DL1XH-west | 2026-09-01 12:07:36 | 52.83946 | 9.07046 | 90° | 71km/h | 2570m | -3.4m/s | 2.2°C | 78.4% | 749.7hPa | 2.7V | 07:31:55 | 02:33:28 | 00:00:00 | |
| BIOWL1-15 | 2026-09-01 12:07:35 | 52.83950 | 9.07163 | 84° | 69km/h | 2558m | -2.9m/s | 2.2°C | 80.1% | 750.8hPa | 2.7V | 07:31:55 | 02:33:32 | 00:00:00 | |
| DL1XH1-15 | 2026-09-01 12:07:34 | 52.83947 | 9.06959 | 93° | 68km/h | 2580m | -3.5m/s | 2.3°C | 70.4% | 748.7hPa | 2.7V | 07:31:30 | 02:33:25 | 00:00:00 | |
| DL4XJ-10 | 2026-09-01 12:07:34 | 52.83948 | 9.07134 | 86° | 64km/h | 2561m | -2.9m/s | 3.8°C | 0% | 0hPa | 2.6V | 00:00:00 | 00:00:00 | 00:00:00 | |
| DL1XH-15 | 2026-09-01 12:07:33 | 52.83946 | 9.07075 | 88° | 71km/h | 2567m | -3.1m/s | 2.2°C | 74.4% | 750hPa | 2.6V | 07:31:26 | 02:33:29 | 00:00:00 | |
| DL4BBY-15 | 2026-09-01 12:07:33 | 52.83947 | 9.07105 | 87° | 64km/h | 2563m | -3.1m/s | 3.8°C | 0% | 0hPa | 2.7V | 00:00:00 | 00:00:00 | 00:00:00 | |
| DM0DOS-11 | 2026-09-01 12:07:31 | 52.83947 | 9.06959 | 93° | 68km/h | 2580m | -3.5m/s | 2.3°C | 70.4% | 748.7hPa | 2.7V | 07:31:30 | 02:33:25 | 00:00:00 | |
| DL1XH-15 | 2026-09-01 12:07:27 | 52.83949 | 9.06932 | 95° | 64km/h | 2583m | -3.4m/s | 2.2°C | 70.4% | 748.4hPa | 2.6V | 07:31:31 | 02:33:24 | 00:00:00 | |
| DL1XH-15 | 2026-09-01 12:07:27 | 52.83950 | 9.06814 | 84° | 55km/h | 2600m | -3.1m/s | 2°C | 68.1% | 747hPa | 2.7V | 07:31:36 | 02:33:19 | 00:00:00 | |
| DL1XH-west | 2026-09-01 12:07:25 | 52.83951 | 9.06882 | 94° | 57km/h | 2590m | -3.3m/s | 2.1°C | 74.2% | 747.7hPa | 2.7V | 07:31:55 | 02:33:22 | 00:00:00 | |
| DB0DAN | 2026-09-01 12:07:25 | 52.83951 | 9.06882 | 94° | 53km/h | 2590m | -3.3m/s | 2.1°C | 70.1% | 747.74hPa | 2.7V | 00:00:00 | 00:00:00 | 00:00:00 | |
| DM0DOS-11 | 2026-09-01 12:07:23 | 52.83952 | 9.06837 | 86° | 53km/h | 2597m | -3.5m/s | 2.1°C | 68.7% | 747.2hPa | 2.7V | 07:31:35 | 02:33:20 | 00:00:00 | |
| DM0DOS-11 | 2026-09-01 12:07:23 | 52.83943 | 9.06715 | 83° | 64km/h | 2613m | -3.2m/s | 2°C | 63.4% | 745.7hPa | 2.6V | 07:31:40 | 02:33:15 | 00:00:00 | |
| DL1XH1-15 | 2026-09-01 12:07:23 | 52.83941 | 9.06688 | 83° | 66km/h | 2617m | -3.4m/s | 1.9°C | 63.4% | 745.4hPa | 2.7V | 07:31:41 | 02:33:14 | 00:00:00 | |
| BIOWL9-15 | 2026-09-01 12:07:21 | 52.83949 | 9.06791 | 82° | 57km/h | 2603m | -3.2m/s | 2.0°C | 65.1% | 746.7hPa | 2.7V | 00:00:00 | 00:00:00 | 00:00:00 | |
| DM0DOS-11 | 2026-09-01 12:07:18 | 52.83936 | 9.06575 | 88° | 69km/h | 2630m | -3.2m/s | 1.9°C | 62.9% | 744.2hPa | 2.7V | 07:31:45 | 02:33:10 | 00:00:00 | |
| BIOWL1-15 | 2026-09-01 12:07:16 | 52.83937 | 9.06604 | 88° | 69km/h | 2626m | -3.4m/s | 1.9°C | 68% | 744.5hPa | 2.7V | 07:31:55 | 02:33:11 | 00:00:00 | |
| DL1XH-west | 2026-09-01 12:07:15 | 52.83938 | 9.06632 | 87° | 68km/h | 2623m | -3.3m/s | 1.9°C | 68.5% | 744.8hPa | 2.7V | 07:31:55 | 02:33:12 | 00:00:00 | |
| DL4XJ-10 | 2026-09-01 12:07:14 | 52.83937 | 9.06604 | 88° | 64km/h | 2626m | -3.3m/s | 3.5°C | 0% | 0hPa | 2.7V | 00:00:00 | 00:00:00 | 00:00:00 | |
| DL1XH-15 | 2026-09-01 12:07:12 | 52.83936 | 9.06546 | 90° | 69km/h | 2633m | -3.2m/s | 1.9°C | 63.1% | 744hPa | 2.7V | 07:31:46 | 02:33:09 | 00:00:00 | |
| DL1XH-15 | 2026-09-01 12:07:12 | 52.83945 | 9.06381 | 98° | 62km/h | 2654m | -3.5m/s | 1.7°C | 63.7% | 742hPa | 2.7V | 07:31:52 | 02:33:03 | 00:00:00 | |
| DB0DAN | 2026-09-01 12:07:10 | 52.83937 | 9.06489 | 94° | 66km/h | 2640m | -3.4m/s | 1.9°C | 62% | 743.21hPa | 2.7V | 00:00:00 | 00:00:00 | 00:00:00 | |
| DF5WG-10 | 2026-09-01 12:07:09 | 52.83939 | 9.06461 | 96° | 64km/h | 2643m | -3.3m/s | 1.8°C | 63.2% | 742.9hPa | 2.6V | 00:00:00 | 02:33:06 | 00:00:00 | |
| DM0DOS-11 | 2026-09-01 12:07:08 | 52.83952 | 9.06286 | 93° | 53km/h | 2667m | -3.4m/s | 1.7°C | 63.6% | 740.8hPa | 2.7V | 07:31:56 | 02:32:59 | 00:00:00 | |
| DD8BA-10 | 2026-09-01 12:07:08 | 52.83940 | 9.06433 | 97° | 58km/h | 2647m | -3.4m/s | 1.8°C | 63.3% | 742.5hPa | 2.7V | 00:00:00 | 00:00:00 | 00:00:00 | |
| DL1XH1-15 | 2026-09-01 12:07:07 | 52.83953 | 9.06264 | 90° | 55km/h | 2670m | -3.2m/s | 1.6°C | 63.9% | 740.5hPa | 2.7V | 07:31:57 | 02:32:58 | 00:00:00 | |
| BIOWL1-15 | 2026-09-01 12:07:03 | 52.83951 | 9.06309 | 97° | 55km/h | 2664m | -3.4m/s | 1.7°C | 66.2% | 741.1hPa | 2.7V | 07:31:55 | 02:33:00 | 00:00:00 | |
| DL4BBY-15 | 2026-09-01 12:07:03 | 52.83951 | 9.06308 | 97° | 66km/h | 2664m | -3.4m/s | 3.3°C | 0% | 0hPa | 2.7V | 00:00:00 | 00:00:00 | 00:00:00 | |
| DM0DOS-11 | 2026-09-01 12:07:02 | 52.83949 | 9.06162 | 86° | 66km/h | 2683m | -3.6m/s | 1.4°C | 64% | 739.4hPa | 2.7V | 07:32:01 | 02:32:54 | 00:00:00 | |
| DL1XH1-15 | 2026-09-01 12:07:01 | 52.83949 | 9.06134 | 87° | 66km/h | 2687m | -3.4m/s | 1.4°C | 64.1% | 739hPa | 2.7V | 07:32:02 | 02:32:53 | 00:00:00 | |
| DD8BA-10 | 2026-09-01 12:06:58 | 52.83950 | 9.06189 | 87° | 68km/h | 2680m | -3.2m/s | 1.3°C | 64.4% | 739.5hPa | 2.7V | 00:00:00 | 00:00:00 | 00:00:00 | |
| DM0DOS-11 | 2026-09-01 12:06:57 | 52.83947 | 9.06021 | 90° | 69km/h | 2701m | -3.6m/s | 1.4°C | 63.1% | 737.7hPa | 2.7V | 07:32:06 | 02:32:49 | 00:00:00 | |
| DL1XH1-15 | 2026-09-01 12:06:56 | 52.83947 | 9.05992 | 92° | 69km/h | 2704m | -3.6m/s | 1.5°C | 62.3% | 737.4hPa | 2.7V | 07:32:07 | 02:32:48 | 00:00:00 | |
| DB0DAN | 2026-09-01 12:06:55 | 52.83948 | 9.06106 | 88° | 64km/h | 2690m | -3.2m/s | 1.3°C | 62.6% | 738.62hPa | 2.7V | 00:00:00 | 00:00:00 | 00:00:00 | |
| BIOWL1-15 | 2026-09-01 12:06:53 | 52.83971 | 9.05748 | 100° | 66km/h | 2735m | -3.4m/s | 1.6°C | 59% | 734.3hPa | 2.7V | 07:32:46 | 02:32:39 | 00:00:00 | |
| DL1XH-west | 2026-09-01 12:06:53 | 52.83947 | 9.06021 | 91° | 69km/h | 2701m | -3.7m/s | 1.4°C | 66.9% | 737.7hPa | 2.7V | 07:32:46 | 02:32:49 | 00:00:00 | |
| BIOWL9-15 | 2026-09-01 12:06:50 | 52.83949 | 9.05964 | 95° | 68km/h | 2708m | -3.5m/s | 1.6°C | 59.8% | 737.0hPa | 2.7V | 00:00:00 | 00:00:00 | 00:00:00 | |
| DD8BA-10 | 2026-09-01 12:06:48 | 52.83953 | 9.05907 | 99° | 66km/h | 2715m | -3.3m/s | 1.6°C | 58.8% | 736.3hPa | 2.7V | 00:00:00 | 00:00:00 | 00:00:00 | |
| DL1XH1-15 | 2026-09-01 12:06:45 | 52.83977 | 9.05664 | 93° | 68km/h | 2745m | -3.3m/s | 1.5°C | 54.2% | 733.5hPa | 2.7V | 07:32:19 | 02:32:36 | 00:00:00 | |
| DL1XH-west | 2026-09-01 12:06:41 | 52.83979 | 9.05607 | 93° | 69km/h | 2752m | -3.6m/s | 1.6°C | 56% | 732.8hPa | 2.7V | 07:32:46 | 02:32:34 | 00:00:00 | |
| DB0DAN | 2026-09-01 12:06:40 | 52.83976 | 9.05693 | 95° | 64km/h | 2742m | -3.3m/s | 1.5°C | 53.1% | 733.77hPa | 2.7V | 00:00:00 | 00:00:00 | 00:00:00 | |
| DL1XH1-15 | 2026-09-01 12:06:40 | 52.83985 | 9.05491 | 97° | 69km/h | 2766m | -3.7m/s | 1.7°C | 47.2% | 731.5hPa | 2.7V | 07:32:25 | 02:32:30 | 00:00:00 | |
| DL3AQ-11 | 2026-09-01 12:06:39 | 52.83977 | 9.05664 | 93° | 68km/h | 2745m | -3.3m/s | 1.5°C | 53.0% | 733.5hPa | 2.7V | 00:00:00 | 00:00:00 | 00:00:00 | |
| DD8BA-10 | 2026-09-01 12:06:38 | 52.83978 | 9.05636 | 93° | 68km/h | 2749m | -3.4m/s | 1.4°C | 54.8% | 733.1hPa | 2.7V | 00:00:00 | 00:00:00 | 00:00:00 | |
| DM0DOS-11 | 2026-09-01 12:06:35 | 52.83994 | 9.05407 | 101° | 66km/h | 2777m | -3.5m/s | 1.6°C | 47.4% | 730.5hPa | 2.7V | 07:32:28 | 02:32:27 | 00:00:00 | |
| DL1XH-15 | 2026-09-01 12:06:34 | 52.84004 | 9.05332 | 103° | 57km/h | 2788m | -3.7m/s | 1.6°C | 47% | 729.6hPa | 2.6V | 07:32:31 | 02:32:24 | 00:00:00 | |
| BIOWL1-15 | 2026-09-01 12:06:31 | 52.83990 | 9.05434 | 100° | 68km/h | 2774m | -3.6m/s | 1.7°C | 51.8% | 731hPa | 2.7V | 07:32:46 | 02:32:28 | 00:00:00 | |
| DL1XH-west | 2026-09-01 12:06:31 | 52.83994 | 9.05407 | 102° | 66km/h | 2777m | -3.5m/s | 1.6°C | 51.9% | 730.6hPa | 2.7V | 07:32:46 | 02:32:27 | 00:00:00 | |
| DD8BA-10 | 2026-09-01 12:06:28 | 52.84001 | 9.05356 | 104° | 55km/h | 2785m | -3.5m/s | 1.6°C | 47.3% | 729.9hPa | 2.7V | 00:00:00 | 00:00:00 | 00:00:00 | |
| DF5WG-10 | 2026-09-01 12:06:27 | 52.84004 | 9.05332 | 104° | 58km/h | 2788m | -3.7m/s | 1.5°C | 47.0% | 729.6hPa | 2.7V | 00:00:00 | 02:32:24 | 00:00:00 | |
| DM0DOS-11 | 2026-09-01 12:06:25 | 52.84015 | 9.05179 | 89° | 53km/h | 2813m | -3.7m/s | 1.4°C | 48.3% | 727.2hPa | 2.7V | 07:32:38 | 02:32:17 | 00:00:00 | |
| DB0DAN | 2026-09-01 12:06:25 | 52.84010 | 9.05287 | 100° | 51km/h | 2795m | -3.5m/s | 1.6°C | 46.1% | 728.91hPa | 2.7V | 00:00:00 | 00:00:00 | 00:00:00 | |
| DJ2DS-15 | 2026-09-01 12:06:24 | 52.84012 | 9.05265 | 99° | 58km/h | 2799m | -3.5m/s | 1.5°C | 47.8% | 728.5hPa | 2.7V | 00:00:00 | 02:32:21 | 00:00:00 | |
| DL3AQ-11 | 2026-09-01 12:06:23 | 52.84014 | 9.05244 | 95° | 51km/h | 2802m | -3.6m/s | 1.6°C | 46.9% | 728.3hPa | 2.7V | 00:00:00 | 00:00:00 | 00:00:00 | |
| DL1XH1-15 | 2026-09-01 12:06:21 | 52.84014 | 9.05085 | 88° | 60km/h | 2828m | -3.5m/s | 1.3°C | 48.9% | 725.8hPa | 2.7V | 07:32:42 | 02:32:13 | 00:00:00 | |
| BIOWL1-15 | 2026-09-01 12:06:20 | 52.84015 | 9.05179 | 89° | 53km/h | 2814m | -3.7m/s | 1.4°C | 53.1% | 727.2hPa | 2.7V | 07:32:46 | 02:32:17 | 00:00:00 | |
| DL1XH-west | 2026-09-01 12:06:20 | 52.84015 | 9.05157 | 89° | 55km/h | 2817m | -3.7m/s | 1.4°C | 53.1% | 726.9hPa | 2.7V | 07:32:46 | 02:32:16 | 00:00:00 | |
| BIOWL9-15 | 2026-09-01 12:06:19 | 52.84015 | 9.05157 | 88° | 53km/h | 2817m | -3.7m/s | 1.4°C | 47.4% | 726.9hPa | 2.6V | 00:00:00 | 00:00:00 | 00:00:00 | |
| DD8BA-10 | 2026-09-01 12:06:18 | 52.84015 | 9.05134 | 88° | 64km/h | 2821m | -3.7m/s | 1.3°C | 48.7% | 726.4hPa | 2.6V | 07:32:00 | 00:00:00 | 00:00:00 | |
| DF5WG-10 | 2026-09-01 12:06:17 | 52.84013 | 9.05059 | 90° | 58km/h | 2832m | -3.6m/s | 1.2°C | 49.1% | 725.6hPa | 2.6V | 00:00:00 | 02:32:12 | 00:00:00 | |
| DM0DOS-11 | 2026-09-01 12:06:15 | 52.84023 | 9.04871 | 99° | 58km/h | 2857m | -3.4m/s | 1.2°C | 49.5% | 723.3hPa | 2.6V | 07:32:50 | 02:32:05 | 00:00:00 | |
| DL1XH-15 | 2026-09-01 12:06:11 | 52.84016 | 9.04949 | 96° | 66km/h | 2846m | -3.8m/s | 1.2°C | 49.1% | 724.3hPa | 2.7V | 07:32:47 | 02:32:08 | 00:00:00 | |
| DL1XH-15 | 2026-09-01 12:06:11 | 52.84027 | 9.04826 | 98° | 51km/h | 2864m | -3.4m/s | 1.2°C | 49.2% | 722.7hPa | 2.7V | 07:32:52 | 02:32:03 | 00:00:00 | |
| DL1XH1-15 | 2026-09-01 12:06:11 | 52.84029 | 9.04806 | 95° | 47km/h | 2867m | -3.6m/s | 1.3°C | 48.2% | 722.4hPa | 2.7V | 07:32:53 | 02:32:02 | 00:00:00 | |
| DB0DAN | 2026-09-01 12:06:10 | 52.84018 | 9.04922 | 98° | 62km/h | 2850m | -3.7m/s | 1.2°C | 48.2% | 723.95hPa | 2.7V | 00:00:00 | 00:00:00 | 00:00:00 | |
| BIOWL1-15 | 2026-09-01 12:06:10 | 52.84028 | 9.04826 | 99° | 51km/h | 2864m | -3.4m/s | 1.2°C | 53.6% | 722.7hPa | 2.7V | 07:33:37 | 02:32:03 | 00:00:00 | |
| DL1XH-west | 2026-09-01 12:06:09 | 52.84021 | 9.04896 | 99° | 62km/h | 2854m | -3.7m/s | 1.2°C | 53.6% | 723.7hPa | 2.6V | 07:33:37 | 02:32:06 | 00:00:00 | |
| DD8BA-10 | 2026-09-01 12:06:08 | 52.84023 | 9.04871 | 100° | 51km/h | 2857m | -3.4m/s | 1.2°C | 49.5% | 723.2hPa | 2.7V | 00:00:00 | 00:00:00 | 00:00:00 | |
| DO2LYB-13 | 2026-09-01 12:06:07 | 52.84023 | 9.04871 | 101° | 58km/h | 2857m | -3.4m/s | 1.2°C | 48.4% | 723.3hPa | 2.7V | 00:00:00 | 00:00:00 | 00:00:00 | |
| DL1XH-15 | 2026-09-01 12:06:06 | 52.84029 | 9.04726 | 85° | 47km/h | 2882m | -3.8m/s | 1.2°C | 47.1% | 721hPa | 2.7V | 07:32:57 | 02:31:58 | 00:00:00 | |
| DL1XH1-15 | 2026-09-01 12:06:05 | 52.84028 | 9.04706 | 84° | 49km/h | 2886m | -3.8m/s | 1.1°C | 47.3% | 720.6hPa | 2.6V | 07:32:58 | 02:31:57 | 00:00:00 | |
| DJ2DS-15 | 2026-09-01 12:06:04 | 52.84030 | 9.04786 | 93° | 53km/h | 2871m | -3.9m/s | 1.1°C | 48.1% | 721.9hPa | 2.7V | 00:00:00 | 02:32:01 | 00:00:00 | |
| DM0DOS-11 | 2026-09-01 12:06:03 | 52.84026 | 9.04662 | 83° | 55km/h | 2893m | -3.7m/s | 1°C | 47.5% | 720hPa | 2.7V | 07:33:00 | 02:31:55 | 00:00:00 | |
| DL4BBY-15 | 2026-09-01 12:06:03 | 52.84030 | 9.04766 | 91° | 53km/h | 2874m | -3.8m/s | 2.8°C | 0% | 0hPa | 2.7V | 00:00:00 | 00:00:00 | 00:00:00 | |
| BUE01 | 2026-09-01 12:06:02 | 52.84030 | 9.04746 | 87° | 47km/h | 2878m | -3.8m/s | 1.2°C | 46.4% | 721.3hPa | 2.7V | 00:00:00 | 00:00:00 | 00:00:00 | |
| DL1XH-15 | 2026-09-01 12:06:01 | 52.84023 | 9.04615 | 85° | 60km/h | 2900m | -3.4m/s | 1°C | 47.6% | 719.4hPa | 2.7V | 07:33:02 | 02:31:53 | 00:00:00 | |
| BIOWL1-15 | 2026-09-01 12:06:01 | 52.84027 | 9.04685 | 83° | 53km/h | 2890m | -3.8m/s | 1.1°C | 52.4% | 720.3hPa | 2.6V | 07:33:37 | 02:31:56 | 00:00:00 | |
| DL1XH1-15 | 2026-09-01 12:06:00 | 52.84022 | 9.04589 | 88° | 62km/h | 2904m | -3.6m/s | 0.9°C | 47.7% | 719hPa | 2.7V | 07:33:03 | 02:31:52 | 00:00:00 | |
| DL1XH-west | 2026-09-01 12:05:59 | 52.84025 | 9.04662 | 83° | 55km/h | 2893m | -3.7m/s | 1°C | 52.6% | 720hPa | 2.7V | 07:33:37 | 02:31:55 | 00:00:00 | |
| DD8BA-10 | 2026-09-01 12:05:58 | 52.84025 | 9.04662 | 84° | 58km/h | 2893m | -3.7m/s | 1.0°C | 47.5% | 719.9hPa | 2.7V | 00:00:00 | 00:00:00 | 00:00:00 | |
| DM0DOS-11 | 2026-09-01 12:05:57 | 52.84024 | 9.04512 | 95° | 60km/h | 2914m | -3.7m/s | 0.9°C | 47.5% | 717.9hPa | 2.7V | 07:33:06 | 02:31:49 | 00:00:00 | |
| DL1XH-15 | 2026-09-01 12:05:56 | 52.84026 | 9.04488 | 97° | 58km/h | 2918m | -3.6m/s | 0.9°C | 47.7% | 717.8hPa | 2.6V | 07:33:07 | 02:31:48 | 00:00:00 | |
| DL1XH1-15 | 2026-09-01 12:05:55 | 52.84032 | 9.04420 | 100° | 49km/h | 2929m | -3.7m/s | 0.9°C | 47.4% | 716.7hPa | 2.7V | 07:33:10 | 02:31:45 | 00:00:00 | |
| DB0DAN | 2026-09-01 12:05:55 | 52.84022 | 9.04589 | 88° | 58km/h | 2904m | -3.6m/s | 0.9°C | 46.5% | 719.02hPa | 2.7V | 00:00:00 | 00:00:00 | 00:00:00 | |
| DL4XJ-10 | 2026-09-01 12:05:54 | 52.84022 | 9.04564 | 92° | 53km/h | 2907m | -3.6m/s | 2.5°C | 0% | 0hPa | 2.7V | 00:00:00 | 00:00:00 | 00:00:00 | |
| DM0DOS-11 | 2026-09-01 12:05:52 | 52.84035 | 9.04400 | 99° | 47km/h | 2932m | -3.6m/s | 0.9°C | 47% | 716.4hPa | 2.7V | 07:33:11 | 02:31:44 | 00:00:00 | |
| DL1XH-15 | 2026-09-01 12:05:51 | 52.84036 | 9.04381 | 97° | 46km/h | 2936m | -3.7m/s | 0.9°C | 47% | 716.2hPa | 2.7V | 07:33:12 | 02:31:43 | 00:00:00 | |
| DL1XH1-15 | 2026-09-01 12:05:50 | 52.84038 | 9.04326 | 86° | 46km/h | 2947m | -3.8m/s | 0.7°C | 47.1% | 715.1hPa | 2.7V | 07:33:15 | 02:31:40 | 00:00:00 | |
| DL1XH-west | 2026-09-01 12:05:48 | 52.84035 | 9.04400 | 100° | 47km/h | 2932m | -3.6m/s | 0.9°C | 50.9% | 716.4hPa | 2.7V | 07:33:37 | 02:31:44 | 00:00:00 | |
| BIOWL1-15 | 2026-09-01 12:05:48 | 52.84032 | 9.04420 | 100° | 49km/h | 2929m | -3.7m/s | 0.9°C | 51.3% | 716.7hPa | 2.7V | 07:33:37 | 02:31:45 | 00:00:00 | |
| DL1XH-15 | 2026-09-01 12:05:46 | 52.84035 | 9.04287 | 80° | 51km/h | 2954m | -3.5m/s | 0.6°C | 46.4% | 714.5hPa | 2.6V | 07:33:17 | 02:31:38 | 00:00:00 | |
| DL1CLM-18 | 2026-09-01 12:05:45 | 52.84036 | 9.04381 | 99° | 46km/h | 2936m | -3.7m/s | 0.9°C | 45.9% | 716.2hPa | 2.7V | 00:00:00 | 00:00:00 | 00:00:00 | |
| DL3AQ-11 | 2026-09-01 12:05:44 | 52.84035 | 9.04287 | 80° | 49km/h | 2954m | -3.5m/s | 0.6°C | 45.3% | 714.5hPa | 2.7V | 00:00:00 | 00:00:00 | 00:00:00 | |
| DL1XH1-15 | 2026-09-01 12:05:43 | 52.84029 | 9.04219 | 82° | 57km/h | 2964m | -3.6m/s | 0.6°C | 47.2% | 713.5hPa | 2.7V | 07:33:20 | 02:31:35 | 00:00:00 | |
| DL1XH-15 | 2026-09-01 12:05:41 | 52.84026 | 9.04171 | 85° | 58km/h | 2972m | -3.8m/s | 0.5°C | 46.5% | 712.8hPa | 2.6V | 07:33:22 | 02:31:33 | 00:00:00 | |
| DB0DAN | 2026-09-01 12:05:40 | 52.84033 | 9.04265 | 81° | 51km/h | 2957m | -3.7m/s | 0.6°C | 45.5% | 714.27hPa | 2.7V | 00:00:00 | 00:00:00 | 00:00:00 | |
| DM0DOS-11 | 2026-09-01 12:05:38 | 52.84027 | 9.04196 | 83° | 58km/h | 2968m | -3.6m/s | 0.6°C | 46.9% | 713.2hPa | 2.7V | 07:33:21 | 02:31:34 | 00:00:00 | |
| BIOWL1-15 | 2026-09-01 12:05:37 | 52.84027 | 9.04196 | 84° | 58km/h | 2968m | -3.6m/s | 0.6°C | 52.1% | 713.2hPa | 2.7V | 07:33:37 | 02:31:34 | 00:00:00 | |
| DL4XJ-10 | 2026-09-01 12:05:34 | 52.84024 | 9.04121 | 90° | 53km/h | 2979m | -3.7m/s | 2.1°C | 0% | 0hPa | 2.7V | 00:00:00 | 00:00:00 | 00:00:00 | |
| DM0DOS-11 | 2026-09-01 12:05:33 | 52.84025 | 9.04072 | 93° | 58km/h | 2986m | -3.7m/s | 0.5°C | 45.2% | 711.6hPa | 2.7V | 07:33:26 | 02:31:29 | 00:00:00 | |
| DL1XH-15 | 2026-09-01 12:05:31 | 52.84031 | 9.03950 | 87° | 42km/h | 3007m | -3.8m/s | 0.4°C | 45.8% | 709.5hPa | 2.7V | 07:33:32 | 02:31:23 | 00:00:00 | |
| DL1XH1-15 | 2026-09-01 12:05:30 | 52.84031 | 9.03986 | 95° | 46km/h | 3000m | -3.7m/s | 0.4°C | 45.4% | 710.2hPa | 2.6V | 07:33:30 | 02:31:25 | 00:00:00 | |
| DL1XH-west | 2026-09-01 12:05:28 | 52.84031 | 9.03986 | 96° | 46km/h | 3000m | -3.7m/s | 0.4°C | 49.4% | 710.2hPa | 2.6V | 07:33:37 | 02:31:25 | 00:00:00 | |
| BIOWL1-15 | 2026-09-01 12:05:26 | 52.84031 | 9.03950 | 87° | 42km/h | 3008m | -3.8m/s | 0.4°C | 49.9% | 709.6hPa | 2.7V | 07:33:37 | 02:31:23 | 00:00:00 | |
| DB0DAN | 2026-09-01 12:05:25 | 52.84030 | 9.03933 | 83° | 40km/h | 3011m | -3.7m/s | 0.3°C | 44.7% | 709.3hPa | 2.7V | 00:00:00 | 00:00:00 | 00:00:00 | |
| DJ2DS-15 | 2026-09-01 12:05:24 | 52.84029 | 9.03914 | 80° | 49km/h | 3015m | -3.6m/s | 0.3°C | 45.9% | 708.9hPa | 2.7V | 00:00:00 | 02:31:21 | 00:00:00 | |
| DL1XH1-15 | 2026-09-01 12:05:23 | 52.84012 | 9.03761 | 85° | 58km/h | 3040m | -3.7m/s | 0.1°C | 41.2% | 706.6hPa | 2.7V | 07:33:41 | 02:31:14 | 00:00:00 | |
| DL1XH-west | 2026-09-01 12:05:18 | 52.84012 | 9.03761 | 86° | 58km/h | 3040m | -3.7m/s | 0.1°C | 46.6% | 706.7hPa | 2.7V | 07:34:28 | 02:31:14 | 00:00:00 | |
| BIOWL1-15 | 2026-09-01 12:05:18 | 52.84011 | 9.03714 | 92° | 55km/h | 3047m | -3.5m/s | 0.1°C | 44.5% | 706hPa | 2.7V | 07:34:28 | 02:31:12 | 00:00:00 | |
| DM0DOS-11 | 2026-09-01 12:05:18 | 52.84011 | 9.03737 | 88° | 57km/h | 3043m | -3.5m/s | 0.1°C | 40.2% | 706.4hPa | 2.7V | 07:33:42 | 02:31:13 | 00:00:00 | |
| BIOWL9-15 | 2026-09-01 12:05:17 | 52.84012 | 9.03761 | 85° | 57km/h | 3040m | -3.7m/s | 0.1°C | 40.1% | 706.7hPa | 2.7V | 00:00:00 | 00:00:00 | 00:00:00 | |
| DL1XH-15 | 2026-09-01 12:05:16 | 52.84016 | 9.03612 | 94° | 44km/h | 3064m | -3.7m/s | 0.1°C | 33.7% | 704.3hPa | 2.7V | 07:33:48 | 02:31:07 | 00:00:00 | |
| DJ2DS-15 | 2026-09-01 12:05:15 | 52.84012 | 9.03692 | 94° | 51km/h | 3050m | -3.6m/s | 0.1°C | 36.7% | 705.7hPa | 2.7V | 00:00:00 | 00:00:00 | 00:00:00 | |
| DL4XJ-10 | 2026-09-01 12:05:14 | 52.84012 | 9.03692 | 95° | 47km/h | 3050m | -3.5m/s | 1.7°C | 0% | 0hPa | 2.7V | 00:00:00 | 00:00:00 | 00:00:00 | |
| DO2LYB-13 | 2026-09-01 12:05:13 | 52.84012 | 9.03691 | 95° | 53km/h | 3050m | -3.6m/s | 0.1°C | 36.7% | 705.7hPa | 2.7V | 00:00:00 | 00:00:00 | 00:00:00 | |
| DM0DOS-11 | 2026-09-01 12:05:12 | 52.84017 | 9.03561 | 88° | 38km/h | 3075m | -4m/s | 0°C | 33.8% | 703.4hPa | 2.7V | 07:33:51 | 02:31:04 | 00:00:00 | |
| DL1XH-15 | 2026-09-01 12:05:10 | 52.84016 | 9.03529 | 83° | 38km/h | 3083m | -3.8m/s | -0.1°C | 33.4% | 702.8hPa | 2.7V | 07:33:53 | 02:31:02 | 00:00:00 | |
| DB0DAN | 2026-09-01 12:05:10 | 52.84016 | 9.03612 | 94° | 40km/h | 3064m | -3.7m/s | 0.1°C | 32.9% | 704.32hPa | 2.7V | 00:00:00 | 00:00:00 | 00:00:00 | |
| DL1XH-west | 2026-09-01 12:05:08 | 52.84017 | 9.03561 | 89° | 38km/h | 3075m | -4m/s | 0°C | 37.6% | 703.4hPa | 2.7V | 07:34:28 | 02:31:04 | 00:00:00 | |
| DM0DOS-11 | 2026-09-01 12:05:07 | 52.84007 | 9.03458 | 76° | 49km/h | 3097m | -3.3m/s | -0.3°C | 33.7% | 701.5hPa | 2.7V | 07:33:57 | 02:30:58 | 00:00:00 | |
| BIOWL1-15 | 2026-09-01 12:05:05 | 52.84016 | 9.03529 | 83° | 38km/h | 3083m | -3.8m/s | -0.1°C | 37.2% | 702.8hPa | 2.7V | 07:34:28 | 02:31:02 | 00:00:00 | |
| DL1XH-15 | 2026-09-01 12:05:05 | 52.84004 | 9.03438 | 77° | 51km/h | 3100m | -3.5m/s | -0.3°C | 33.4% | 701.2hPa | 2.7V | 07:33:58 | 02:30:57 | 00:00:00 | |
| DJ2DS-15 | 2026-09-01 12:05:04 | 52.84014 | 9.03512 | 81° | 49km/h | 3087m | -3.8m/s | -0.1°C | 33.7% | 702.4hPa | 2.7V | 07:33:00 | 02:31:01 | 00:00:00 | |
| DL4BBY-15 | 2026-09-01 12:05:03 | 52.84012 | 9.03495 | 78° | 47km/h | 3090m | -3.6m/s | 1.4°C | 0% | 0hPa | 2.7V | 00:00:00 | 00:00:00 | 00:00:00 | |
| DL1XH1-15 | 2026-09-01 12:05:02 | 52.83993 | 9.03350 | 77° | 55km/h | 3114m | -3.9m/s | -0.5°C | 32.7% | 699.9hPa | 2.7V | 07:34:02 | 02:30:53 | 00:00:00 | |
| DM0DOS-11 | 2026-09-01 12:05:02 | 52.83993 | 9.03350 | 77° | 55km/h | 3114m | -3.9m/s | -0.5°C | 32.7% | 699.9hPa | 2.7V | 07:34:02 | 02:30:53 | 00:00:00 | |
| DL1XH-15 | 2026-09-01 12:05:00 | 52.83990 | 9.03328 | 78° | 55km/h | 3118m | -4.1m/s | -0.5°C | 32.6% | 699.6hPa | 2.6V | 07:34:03 | 02:30:52 | 00:00:00 | |
| DL1XH-west | 2026-09-01 12:04:57 | 52.83993 | 9.03350 | 78° | 55km/h | 3114m | -3.9m/s | -0.5°C | 36.5% | 699.9hPa | 2.7V | 07:34:28 | 02:30:53 | 00:00:00 | |
| DB0DAN | 2026-09-01 12:04:55 | 52.83990 | 9.03328 | 79° | 53km/h | 3118m | -4.1m/s | -0.5°C | 31.8% | 699.63hPa | 2.6V | 00:00:00 | 00:00:00 | 00:00:00 | |
| DL1XH-15 | 2026-09-01 12:04:54 | 52.83984 | 9.03212 | 92° | 53km/h | 3136m | -4.1m/s | -0.4°C | 28% | 697.9hPa | 2.7V | 07:34:08 | 02:30:47 | 00:00:00 | |
| BIOWL1-15 | 2026-09-01 12:04:54 | 52.83984 | 9.03212 | 92° | 53km/h | 3136m | -4.1m/s | -0.4°C | 31.6% | 697.9hPa | 2.7V | 07:34:28 | 02:30:47 | 00:00:00 | |
| DL1XH1-15 | 2026-09-01 12:04:50 | 52.83986 | 9.03136 | 88° | 40km/h | 3150m | -3.2m/s | -0.3°C | 23.6% | 696.7hPa | 2.7V | 07:34:12 | 02:30:43 | 00:00:00 | |
| DL1XH-west | 2026-09-01 12:04:45 | 52.83986 | 9.03120 | 88° | 40km/h | 3154m | -3.7m/s | -0.3°C | 27.4% | 696.4hPa | 2.7V | 07:34:28 | 02:30:42 | 00:00:00 | |
| DL1XH-15 | 2026-09-01 12:04:44 | 52.83973 | 9.03023 | 73° | 40km/h | 3175m | -3.8m/s | -0.4°C | 28.2% | 694.5hPa | 2.7V | 07:34:19 | 02:30:36 | 00:00:00 | |
| BIOWL1-15 | 2026-09-01 12:04:43 | 52.83981 | 9.03071 | 75° | 40km/h | 3164m | -3.7m/s | -0.4°C | 28.1% | 695.3hPa | 2.6V | 07:34:28 | 02:30:39 | 00:00:00 | |
| DM0DOS-11 | 2026-09-01 12:04:42 | 52.83979 | 9.03055 | 76° | 40km/h | 3168m | -3.8m/s | -0.4°C | 25.1% | 695.2hPa | 2.6V | 07:34:17 | 02:30:38 | 00:00:00 | |
| DB0DAN | 2026-09-01 12:04:40 | 52.83976 | 9.03039 | 72° | 38km/h | 3171m | -3.6m/s | -0.4°C | 25.9% | 694.91hPa | 2.7V | 00:00:00 | 00:00:00 | 00:00:00 | |
| DL1XH-west | 2026-09-01 12:04:35 | 52.83960 | 9.02949 | 79° | 53km/h | 3189m | -3.1m/s | -0.5°C | 33.6% | 693.3hPa | 2.7V | 07:34:28 | 02:30:32 | 00:00:00 | |
| BIOWL1-15 | 2026-09-01 12:04:32 | 52.83955 | 9.02817 | 93° | 49km/h | 3208m | -3.6m/s | -0.6°C | 29.9% | 691.6hPa | 2.7V | 07:35:19 | 02:30:26 | 00:00:00 | |
| DL1XH-15 | 2026-09-01 12:04:32 | 52.83955 | 9.02883 | 87° | 53km/h | 3198m | -3.6m/s | -0.6°C | 28.8% | 692.5hPa | 2.7V | 07:34:26 | 02:30:29 | 00:00:00 | |
| DL1XH-15 | 2026-09-01 12:04:32 | 52.83956 | 9.02778 | 92° | 44km/h | 3214m | -3.8m/s | -0.7°C | 26.7% | 691hPa | 2.7V | 07:34:31 | 02:30:24 | 00:00:00 | |
| DL1XH1-15 | 2026-09-01 12:04:31 | 52.83955 | 9.02861 | 89° | 53km/h | 3201m | -3.8m/s | -0.6°C | 27.6% | 692.1hPa | 2.7V | 07:34:27 | 02:30:28 | 00:00:00 | |
| BUE01 | 2026-09-01 12:04:29 | 52.83955 | 9.02817 | 92° | 49km/h | 3208m | -3.6m/s | -0.6°C | 25.5% | 691.6hPa | 2.7V | 00:00:00 | 00:00:00 | 00:00:00 | |
| DD8BA-10 | 2026-09-01 12:04:28 | 52.83955 | 9.02797 | 91° | 38km/h | 3211m | -3.2m/s | -0.6°C | 27.1% | 691.1hPa | 2.7V | 00:00:00 | 00:00:00 | 00:00:00 | |
| DL1XH-15 | 2026-09-01 12:04:27 | 52.83951 | 9.02682 | 83° | 35km/h | 3235m | -3.6m/s | -0.8°C | 25.8% | 689.3hPa | 2.7V | 07:34:37 | 02:30:18 | 00:00:00 | |
| DL1XH1-15 | 2026-09-01 12:04:26 | 52.83950 | 9.02667 | 81° | 37km/h | 3239m | -3.4m/s | -0.9°C | 25.9% | 688.9hPa | 2.7V | 07:34:38 | 02:30:17 | 00:00:00 | |
| DB0DAN | 2026-09-01 12:04:25 | 52.83956 | 9.02743 | 87° | 38km/h | 3221m | -3.6m/s | -0.7°C | 25.6% | 690.28hPa | 2.6V | 00:00:00 | 00:00:00 | 00:00:00 | |
| DL1XH-west | 2026-09-01 12:04:24 | 52.83950 | 9.02667 | 82° | 37km/h | 3239m | -3.4m/s | -0.9°C | 29.5% | 688.9hPa | 2.7V | 07:35:19 | 02:30:17 | 00:00:00 | |
| DJ2DS-15 | 2026-09-01 12:04:24 | 52.83955 | 9.02727 | 86° | 46km/h | 3225m | -3.5m/s | -0.7°C | 26.2% | 690.0hPa | 2.7V | 00:00:00 | 02:30:21 | 00:00:00 | |
| DF5WG-10 | 2026-09-01 12:04:23 | 52.83954 | 9.02711 | 82° | 44km/h | 3229m | -3.6m/s | -0.7°C | 25.9% | 689.8hPa | 2.7V | 00:00:00 | 02:30:20 | 00:00:00 | |
| DL1XH-15 | 2026-09-01 12:04:22 | 52.83941 | 9.02606 | 72° | 44km/h | 3252m | -3.5m/s | -1°C | 25.8% | 687.7hPa | 2.7V | 07:34:42 | 02:30:13 | 00:00:00 | |
| BIOWL1-15 | 2026-09-01 12:04:20 | 52.83943 | 9.02622 | 75° | 38km/h | 3249m | -3.7m/s | -1°C | 29.3% | 688.1hPa | 2.6V | 07:35:19 | 02:30:14 | 00:00:00 | |
| DD8BA-10 | 2026-09-01 12:04:18 | 52.83946 | 9.02637 | 73° | 47km/h | 3246m | -3.1m/s | -0.9°C | 26.0% | 688.2hPa | 2.7V | 00:00:00 | 00:00:00 | 00:00:00 | |
| DL1XH-15 | 2026-09-01 12:04:16 | 52.83924 | 9.02507 | 80° | 53km/h | 3269m | -3.3m/s | -1.1°C | 25.8% | 686.2hPa | 2.7V | 07:34:47 | 02:30:08 | 00:00:00 | |
| DM0DOS-11 | 2026-09-01 12:04:15 | 52.83920 | 9.02462 | 83° | 53km/h | 3276m | -3.8m/s | -1.2°C | 25.5% | 685.7hPa | 2.6V | 07:34:49 | 02:30:06 | 00:00:00 | |
| DO2JMG | 2026-09-01 12:04:14 | 52.83934 | 9.02569 | 72° | 47km/h | 3259m | -3.6m/s | -1.1°C | 29.8% | 687.2hPa | 2.7V | 07:37:01 | 02:30:11 | 00:00:00 | |
| DL1XH-west | 2026-09-01 12:04:10 | 52.83922 | 9.02485 | 80° | 55km/h | 3272m | -3.6m/s | -1.2°C | 29.5% | 686.1hPa | 2.6V | 07:35:19 | 02:30:07 | 00:00:00 | |
| DL1XH-15 | 2026-09-01 12:04:10 | 52.83917 | 9.02396 | 92° | 51km/h | 3286m | -3.6m/s | -1.3°C | 25.5% | 684.7hPa | 2.7V | 07:34:52 | 02:30:03 | 00:00:00 | |
| DB0DAN | 2026-09-01 12:04:10 | 52.83922 | 9.02485 | 80° | 51km/h | 3272m | -3.6m/s | -1.2°C | 25% | 686.09hPa | 2.6V | 00:00:00 | 00:00:00 | 00:00:00 | |
| DF5WG-10 | 2026-09-01 12:04:09 | 52.83919 | 9.02462 | 84° | 53km/h | 3276m | -3.8m/s | -1.1°C | 25.5% | 685.7hPa | 2.6V | 00:00:00 | 02:30:06 | 00:00:00 | |
| BIOWL1-15 | 2026-09-01 12:04:09 | 52.83920 | 9.02462 | 84° | 53km/h | 3276m | -3.8m/s | -1.2°C | 29.2% | 685.8hPa | 2.6V | 07:35:19 | 02:30:06 | 00:00:00 | |
| DD8BA-10 | 2026-09-01 12:04:08 | 52.83918 | 9.02440 | 87° | 46km/h | 3280m | -3.8m/s | -1.2°C | 25.6% | 685.3hPa | 2.6V | 00:00:00 | 00:00:00 | 00:00:00 | |
| DL1XH-15 | 2026-09-01 12:04:04 | 52.83921 | 9.02301 | 90° | 38km/h | 3306m | -3.6m/s | -1.4°C | 26.9% | 683.3hPa | 2.6V | 07:34:57 | 02:29:58 | 00:00:00 | |
| DL1XH1-15 | 2026-09-01 12:04:04 | 52.83918 | 9.02254 | 73° | 38km/h | 3317m | -3.6m/s | -1.4°C | 30.2% | 682.4hPa | 2.7V | 07:35:00 | 02:29:55 | 00:00:00 | |
| DO2JMG | 2026-09-01 12:04:02 | 52.83921 | 9.02318 | 94° | 42km/h | 3302m | -4.1m/s | -1.4°C | 30.5% | 683.5hPa | 2.6V | 07:37:01 | 02:29:59 | 00:00:00 | |
| DL1XH-west | 2026-09-01 12:04:00 | 52.83920 | 9.02270 | 83° | 37km/h | 3313m | -3.6m/s | -1.4°C | 32.2% | 682.7hPa | 2.7V | 07:35:19 | 02:29:56 | 00:00:00 | |
| DL3AQ-11 | 2026-09-01 12:04:00 | 52.83920 | 9.02270 | 82° | 35km/h | 3313m | -3.6m/s | -1.4°C | 27.6% | 682.7hPa | 2.6V | 00:00:00 | 00:00:00 | 00:00:00 | |
| DM0DOS-11 | 2026-09-01 12:03:59 | 52.83906 | 9.02183 | 76° | 49km/h | 3331m | -3.5m/s | -1.4°C | 29.5% | 681.2hPa | 2.6V | 07:35:04 | 02:29:51 | 00:00:00 | |
| BIOWL1-15 | 2026-09-01 12:03:59 | 52.83912 | 9.02221 | 75° | 44km/h | 3324m | -3.2m/s | -1.4°C | 33.9% | 681.8hPa | 2.7V | 07:35:19 | 02:29:53 | 00:00:00 | |
| DD8BA-10 | 2026-09-01 12:03:58 | 52.83918 | 9.02254 | 74° | 49km/h | 3317m | -3.6m/s | -1.3°C | 30.2% | 682.4hPa | 2.7V | 00:00:00 | 00:00:00 | 00:00:00 | |
| DB0DAN | 2026-09-01 12:03:55 | 52.83909 | 9.02202 | 76° | 46km/h | 3327m | -3.4m/s | -1.4°C | 28.8% | 681.5hPa | 2.7V | 00:00:00 | 00:00:00 | 00:00:00 | |
| DM0DOS-11 | 2026-09-01 12:03:54 | 52.83891 | 9.02078 | 77° | 55km/h | 3348m | -3.7m/s | -1.6°C | 30% | 679.6hPa | 2.7V | 07:35:09 | 02:29:46 | 00:00:00 | |
| DL4XJ-10 | 2026-09-01 12:03:54 | 52.83906 | 9.02182 | 77° | 47km/h | 3331m | -3.4m/s | 0.2°C | 0% | 0hPa | 2.7V | 00:00:00 | 00:00:00 | 00:00:00 | |
| DL1XH-15 | 2026-09-01 12:03:53 | 52.83888 | 9.02056 | 74° | 55km/h | 3351m | -3.6m/s | -1.6°C | 30.2% | 679.3hPa | 2.7V | 07:35:10 | 02:29:45 | 00:00:00 | |
| DM0DOS-11 | 2026-09-01 12:03:49 | 52.83880 | 9.01945 | 91° | 51km/h | 3368m | -3.4m/s | -1.8°C | 30.7% | 677.9hPa | 2.7V | 07:35:15 | 02:29:40 | 00:00:00 | |
| DL1XH-west | 2026-09-01 12:03:48 | 52.83888 | 9.02056 | 75° | 55km/h | 3352m | -3.6m/s | -1.6°C | 34.4% | 679.3hPa | 2.7V | 07:35:19 | 02:29:45 | 00:00:00 | |
| BIOWL1-15 | 2026-09-01 12:03:47 | 52.83885 | 9.02034 | 80° | 53km/h | 3355m | -3.7m/s | -1.6°C | 34.7% | 679.1hPa | 2.7V | 07:35:19 | 02:29:44 | 00:00:00 | |
| DF5WG-10 | 2026-09-01 12:03:45 | 52.83881 | 9.01988 | 85° | 55km/h | 3362m | -3.2m/s | -1.7°C | 30.6% | 678.3hPa | 2.6V | 00:00:00 | 02:29:42 | 00:00:00 | |
| DJ2DS-15 | 2026-09-01 12:03:44 | 52.83880 | 9.01966 | 89° | 46km/h | 3365m | -3.4m/s | -1.7°C | 30.6% | 678.1hPa | 2.6V | 00:00:00 | 02:29:41 | 00:00:00 | |
| DL1XH1-15 | 2026-09-01 12:03:43 | 52.83881 | 9.01855 | 84° | 37km/h | 3385m | -3.7m/s | -1.9°C | 32.2% | 676.4hPa | 2.6V | 07:35:20 | 02:29:35 | 00:00:00 | |
| DL1XH-15 | 2026-09-01 12:03:43 | 52.83879 | 9.01840 | 81° | 37km/h | 3388m | -3.3m/s | -1.9°C | 32.6% | 676.1hPa | 2.6V | 07:35:21 | 02:29:34 | 00:00:00 | |
| BIOWL1-15 | 2026-09-01 12:03:37 | 52.83879 | 9.01840 | 82° | 37km/h | 3388m | -3.3m/s | -1.9°C | 37% | 676.1hPa | 2.6V | 07:36:10 | 02:29:34 | 00:00:00 | |
| DF5WG-10 | 2026-09-01 12:03:35 | 52.83874 | 9.01808 | 69° | 46km/h | 3395m | -3.1m/s | -1.9°C | 33.0% | 675.5hPa | 2.7V | 00:00:00 | 02:29:32 | 00:00:00 | |
| DL4XJ-10 | 2026-09-01 12:03:34 | 52.83871 | 9.01792 | 71° | 49km/h | 3398m | -3.6m/s | -0.3°C | 0% | 0hPa | 2.7V | 00:00:00 | 00:00:00 | 00:00:00 | |
| DL1XH1-15 | 2026-09-01 12:03:33 | 52.83844 | 9.01659 | 75° | 53km/h | 3422m | -3.4m/s | -2.2°C | 35.7% | 673.3hPa | 2.7V | 07:35:31 | 02:29:24 | 00:00:00 | |
| DL4BBY-15 | 2026-09-01 12:03:33 | 52.83866 | 9.01775 | 66° | 47km/h | 3401m | -3.3m/s | -0.4°C | 0% | 0hPa | 2.7V | 00:00:00 | 00:00:00 | 00:00:00 | |
| DL1XH-15 | 2026-09-01 12:03:32 | 52.83844 | 9.01659 | 75° | 53km/h | 3422m | -3.4m/s | -2.2°C | 35.7% | 673.3hPa | 2.7V | 07:35:31 | 02:29:24 | 00:00:00 | |
| BIOWL1-15 | 2026-09-01 12:03:28 | 52.83841 | 9.01638 | 80° | 53km/h | 3426m | -3.6m/s | -2.3°C | 41% | 673hPa | 2.7V | 07:36:10 | 02:29:23 | 00:00:00 | |
| DL1XH-west | 2026-09-01 12:03:28 | 52.83843 | 9.01659 | 76° | 53km/h | 3422m | -3.4m/s | -2.2°C | 40.4% | 673.3hPa | 2.7V | 07:36:10 | 02:29:24 | 00:00:00 | |
| BUE01 | 2026-09-01 12:03:27 | 52.83843 | 9.01659 | 75° | 53km/h | 3422m | -3.4m/s | -2.2°C | 34.7% | 673.3hPa | 2.7V | 00:00:00 | 00:00:00 | 00:00:00 | |
| DF5WG-10 | 2026-09-01 12:03:25 | 52.83838 | 9.01616 | 83° | 49km/h | 3429m | -3.3m/s | -2.2°C | 36.4% | 672.5hPa | 2.7V | 00:00:00 | 02:29:22 | 00:00:00 | |
| DJ2DS-15 | 2026-09-01 12:03:24 | 52.83837 | 9.01593 | 84° | 47km/h | 3433m | -3.8m/s | -2.3°C | 36.5% | 672.3hPa | 2.7V | 00:00:00 | 02:29:21 | 00:00:00 | |
| GOEST3-10 | 2026-09-01 12:03:23 | 52.83835 | 9.01571 | 85° | 53km/h | 3436m | -3.8m/s | -2.3°C | 36.6% | 672.0hPa | 2.7V | 00:00:00 | 00:00:00 | 00:00:00 | |
| DL1XH1-15 | 2026-09-01 12:03:22 | 52.83830 | 9.01425 | 88° | 38km/h | 3462m | -3.6m/s | -2.6°C | 35.9% | 669.9hPa | 2.7V | 07:35:42 | 02:29:13 | 00:00:00 | |
| DL3AQ-11 | 2026-09-01 12:03:20 | 52.83831 | 9.01482 | 89° | 51km/h | 3451m | -4.1m/s | -2.5°C | 36.2% | 670.7hPa | 2.7V | 00:00:00 | 00:00:00 | 00:00:00 | |
| DD8BA-10 | 2026-09-01 12:03:18 | 52.83831 | 9.01461 | 88° | 42km/h | 3455m | -3.2m/s | -2.5°C | 36.8% | 670.5hPa | 2.7V | 00:00:00 | 00:00:00 | 00:00:00 | |
| DL1XH-15 | 2026-09-01 12:03:17 | 52.83818 | 9.01346 | 70° | 42km/h | 3480m | -3.5m/s | -2.7°C | 37.4% | 668.5hPa | 2.7V | 07:35:47 | 02:29:08 | 00:00:00 | |
| DL1XH-west | 2026-09-01 12:03:17 | 52.83830 | 9.01442 | 88° | 42km/h | 3458m | -3.4m/s | -2.5°C | 40% | 670.2hPa | 2.7V | 07:36:10 | 02:29:14 | 00:00:00 | |
| BIOWL1-15 | 2026-09-01 12:03:16 | 52.83830 | 9.01425 | 89° | 38km/h | 3462m | -3.6m/s | -2.6°C | 40.2% | 669.9hPa | 2.7V | 07:36:10 | 02:29:13 | 00:00:00 | |
| DL4XJ-10 | 2026-09-01 12:03:14 | 52.83827 | 9.01393 | 77° | 49km/h | 3469m | -3.8m/s | -0.9°C | 0% | 0hPa | 2.7V | 00:00:00 | 00:00:00 | 00:00:00 | |
| GOEST3-10 | 2026-09-01 12:03:13 | 52.83825 | 9.01377 | 71° | 44km/h | 3473m | -3.3m/s | -2.6°C | 36.9% | 668.9hPa | 2.7V | 00:00:00 | 00:00:00 | 00:00:00 | |
| DL1XH1-15 | 2026-09-01 12:03:11 | 52.83794 | 9.01226 | 72° | 57km/h | 3500m | -3.4m/s | -2.9°C | 41.9% | 666.6hPa | 2.7V | 07:35:53 | 02:29:02 | 00:00:00 | |
| DL1XH-west | 2026-09-01 12:03:06 | 52.83798 | 9.01248 | 75° | 57km/h | 3496m | -4.1m/s | -2.9°C | 43.7% | 667hPa | 2.6V | 07:36:10 | 02:29:03 | 00:00:00 | |
| DM0DOS-11 | 2026-09-01 12:03:06 | 52.83779 | 9.01137 | 76° | 55km/h | 3514m | -3.5m/s | -2.9°C | 37.7% | 665.4hPa | 2.7V | 07:35:57 | 02:28:58 | 00:00:00 | |
| BIOWL1-15 | 2026-09-01 12:03:05 | 52.83794 | 9.01226 | 73° | 57km/h | 3500m | -3.4m/s | -2.9°C | 46.4% | 666.6hPa | 2.7V | 07:36:10 | 02:29:02 | 00:00:00 | |
| DJ2DS-15 | 2026-09-01 12:03:04 | 52.83790 | 9.01203 | 75° | 55km/h | 3504m | -3.6m/s | -2.8°C | 40.7% | 666.3hPa | 2.7V | 00:00:00 | 02:29:01 | 00:00:00 | |
| GOEST3-10 | 2026-09-01 12:03:03 | 52.83786 | 9.01181 | 75° | 55km/h | 3507m | -3.9m/s | -2.9°C | 39.7% | 665.9hPa | 2.7V | 07:35:00 | 00:00:00 | 00:00:00 | |
| DM0DOS-11 | 2026-09-01 12:03:01 | 52.83772 | 9.01029 | 87° | 51km/h | 3531m | -3.5m/s | -3°C | 37.5% | 663.9hPa | 2.7V | 07:36:02 | 02:28:53 | 00:00:00 | |
| GOEST3-10 | 2026-09-01 12:02:58 | 52.83773 | 9.01071 | 87° | 51km/h | 3525m | -3.3m/s | -3.0°C | 37.9% | 664.4hPa | 2.7V | 00:00:00 | 02:28:55 | 00:00:00 | |
| DF5WG-10 | 2026-09-01 12:02:57 | 52.83772 | 9.01049 | 88° | 53km/h | 3528m | -3.4m/s | -3.0°C | 38.1% | 664.1hPa | 2.6V | 07:36:00 | 02:28:54 | 00:00:00 | |
| DM0DOS-11 | 2026-09-01 12:02:56 | 52.83762 | 9.00916 | 80° | 58km/h | 3548m | -4.2m/s | -3.2°C | 35% | 662.4hPa | 2.6V | 07:36:07 | 02:28:48 | 00:00:00 | |
| DL1XH-west | 2026-09-01 12:02:56 | 52.83760 | 9.00893 | 78° | 57km/h | 3552m | -3.6m/s | -3.2°C | 39.4% | 662hPa | 2.7V | 07:36:10 | 02:28:47 | 00:00:00 | |
| BIOWL1-15 | 2026-09-01 12:02:55 | 52.83771 | 9.01007 | 84° | 53km/h | 3534m | -3.4m/s | -3.1°C | 40.8% | 663.6hPa | 2.7V | 07:36:10 | 02:28:52 | 00:00:00 | |
| DL4XJ-10 | 2026-09-01 12:02:54 | 52.83769 | 9.00985 | 83° | 57km/h | 3538m | -3.9m/s | -1.4°C | 0% | 0hPa | 2.7V | 00:00:00 | 00:00:00 | 00:00:00 | |
| GOEST3-10 | 2026-09-01 12:02:53 | 52.83767 | 9.00962 | 80° | 57km/h | 3542m | -3.4m/s | -3.1°C | 35.0% | 662.9hPa | 2.7V | 00:00:00 | 00:00:00 | 00:00:00 | |
| DM0DOS-11 | 2026-09-01 12:02:51 | 52.83751 | 9.00799 | 78° | 57km/h | 3568m | -3.7m/s | -3.2°C | 36.5% | 660.8hPa | 2.7V | 07:36:12 | 02:28:43 | 00:00:00 | |
| DL1XH-15 | 2026-09-01 12:02:50 | 52.83749 | 9.00776 | 81° | 57km/h | 3571m | -4.1m/s | -3.2°C | 38.1% | 660.5hPa | 2.6V | 07:36:13 | 02:28:42 | 00:00:00 | |
| DD8BA-10 | 2026-09-01 12:02:48 | 52.83755 | 9.00846 | 82° | 58km/h | 3560m | -3.8m/s | -3.1°C | 35.3% | 661.5hPa | 2.7V | 00:00:00 | 00:00:00 | 00:00:00 | |
| DF5WG-10 | 2026-09-01 12:02:47 | 52.83753 | 9.00823 | 83° | 57km/h | 3564m | -4.2m/s | -3.2°C | 35.2% | 661.2hPa | 2.7V | 00:00:00 | 02:28:44 | 00:00:00 | |
| DL1XH-15 | 2026-09-01 12:02:45 | 52.83733 | 9.00658 | 80° | 58km/h | 3589m | -4m/s | -3.4°C | 42.6% | 658.9hPa | 2.7V | 07:36:18 | 02:28:37 | 00:00:00 | |
| BIOWL1-15 | 2026-09-01 12:02:45 | 52.83731 | 9.00634 | 83° | 57km/h | 3593m | -3.9m/s | -3.4°C | 47.9% | 658.7hPa | 2.7V | 07:37:01 | 02:28:36 | 00:00:00 | |
| DM0DOS-11 | 2026-09-01 12:02:44 | 52.83736 | 9.00681 | 75° | 58km/h | 3586m | -3.6m/s | -3.4°C | 41% | 659.3hPa | 2.7V | 07:36:17 | 02:28:38 | 00:00:00 | |
| DO2JMG | 2026-09-01 12:02:44 | 52.83746 | 9.00752 | 78° | 58km/h | 3575m | -3.5m/s | -3.3°C | 42.9% | 660.2hPa | 2.6V | 07:37:01 | 02:28:41 | 00:00:00 | |
| DL1XH-west | 2026-09-01 12:02:42 | 52.83739 | 9.00705 | 78° | 58km/h | 3582m | -3.9m/s | -3.3°C | 45% | 659.6hPa | 2.7V | 07:37:01 | 02:28:39 | 00:00:00 | |
| BIOWL9-15 | 2026-09-01 12:02:42 | 52.83739 | 9.00705 | 78° | 58km/h | 3582m | -3.9m/s | -3.3°C | 39.3% | 659.6hPa | 2.7V | 00:00:00 | 00:00:00 | 00:00:00 | |
| DL1XH1-15 | 2026-09-01 12:02:40 | 52.83726 | 9.00542 | 86° | 57km/h | 3609m | -3.6m/s | -3.4°C | 40.2% | 657.5hPa | 2.7V | 07:36:23 | 02:28:32 | 00:00:00 | |
| SMARD9-15 | 2026-09-01 12:02:39 | 52.83731 | 9.00634 | 83° | 57km/h | 3593m | -3.9m/s | -3.4°C | 42.0% | 658.7hPa | 2.6V | 00:00:00 | 00:00:00 | 00:00:00 | |
| DM0DOS-11 | 2026-09-01 12:02:38 | 52.83727 | 9.00565 | 86° | 55km/h | 3605m | -4.1m/s | -3.4°C | 45.2% | 657.8hPa | 2.6V | 07:36:22 | 02:28:33 | 00:00:00 | |
| DF5WG-10 | 2026-09-01 12:02:37 | 52.83728 | 9.00588 | 85° | 55km/h | 3601m | -4.2m/s | -3.4°C | 45.9% | 658.1hPa | 2.6V | 00:00:00 | 02:28:34 | 00:00:00 | |
| DL1XH1-15 | 2026-09-01 12:02:35 | 52.83722 | 9.00426 | 88° | 51km/h | 3628m | -4.3m/s | -3.5°C | 40.5% | 655.9hPa | 2.6V | 07:36:28 | 02:28:27 | 00:00:00 | |
| BIOWL1-15 | 2026-09-01 12:02:35 | 52.83724 | 9.00494 | 87° | 57km/h | 3616m | -3.9m/s | -3.4°C | 44.5% | 656.9hPa | 2.7V | 07:37:01 | 02:28:30 | 00:00:00 | |
| DO2JMG | 2026-09-01 12:02:34 | 52.83725 | 9.00518 | 87° | 58km/h | 3613m | -3.9m/s | -3.4°C | 44.4% | 657.1hPa | 2.7V | 07:37:01 | 02:28:31 | 00:00:00 | |
| DL4XJ-10 | 2026-09-01 12:02:34 | 52.83725 | 9.00518 | 87° | 53km/h | 3613m | -3.9m/s | -1.7°C | 0% | 0hPa | 2.7V | 00:00:00 | 00:00:00 | 00:00:00 | |
| DL4BBY-15 | 2026-09-01 12:02:33 | 52.83724 | 9.00494 | 87° | 53km/h | 3617m | -3.9m/s | -1.8°C | 0% | 0hPa | 2.7V | 00:00:00 | 00:00:00 | 00:00:00 | |
| DM0DOS-11 | 2026-09-01 12:02:32 | 52.83723 | 9.00448 | 88° | 53km/h | 3624m | -4.2m/s | -3.5°C | 40.3% | 656.3hPa | 2.7V | 07:36:27 | 02:28:28 | 00:00:00 | |
| DL1XH-west | 2026-09-01 12:02:32 | 52.83723 | 9.00448 | 89° | 53km/h | 3624m | -4.3m/s | -3.5°C | 44.6% | 656.3hPa | 2.7V | 07:37:01 | 02:28:28 | 00:00:00 | |
| DL1XH-15 | 2026-09-01 12:02:30 | 52.83714 | 9.00334 | 70° | 46km/h | 3646m | -3.4m/s | -3.7°C | 40.5% | 654.4hPa | 2.7V | 07:36:33 | 02:28:22 | 00:00:00 | |
| DO9LL-15 | 2026-09-01 12:02:29 | 52.83722 | 9.00406 | 87° | 51km/h | 3632m | -4.3m/s | -3.5°C | 40.5% | 655.5hPa | 2.7V | 00:00:00 | 02:28:26 | 00:00:00 | |
| DD8BA-10 | 2026-09-01 12:02:28 | 52.83721 | 9.00387 | 85° | 51km/h | 3636m | -3.7m/s | -3.6°C | 40.6% | 655.1hPa | 2.7V | 00:00:00 | 00:00:00 | 00:00:00 | |
| DF5WG-10 | 2026-09-01 12:02:27 | 52.83719 | 9.00369 | 80° | 49km/h | 3640m | -3.3m/s | -3.6°C | 40.7% | 654.9hPa | 2.7V | 00:00:00 | 02:28:24 | 00:00:00 | |
| DM0DOS-11 | 2026-09-01 12:02:26 | 52.83693 | 9.00230 | 71° | 58km/h | 3665m | -3.4m/s | -3.9°C | 41.7% | 653hPa | 2.7V | 07:36:38 | 02:28:17 | 00:00:00 | |
| BUE01 | 2026-09-01 12:02:25 | 52.83710 | 9.00316 | 68° | 47km/h | 3649m | -4.0m/s | -3.7°C | 39.4% | 654.3hPa | 2.7V | 00:00:00 | 00:00:00 | 00:00:00 | |
| DL1XH1-15 | 2026-09-01 12:02:24 | 52.83693 | 9.00230 | 71° | 58km/h | 3665m | -3.4m/s | -3.9°C | 41.7% | 653hPa | 2.7V | 07:36:38 | 02:28:17 | 00:00:00 | |
| DO2JMG | 2026-09-01 12:02:23 | 52.83705 | 9.00297 | 72° | 51km/h | 3653m | -3.9m/s | -3.8°C | 45.7% | 653.8hPa | 2.6V | 07:37:01 | 02:28:20 | 00:00:00 | |
| BIOWL1-15 | 2026-09-01 12:02:22 | 52.83701 | 9.00276 | 72° | 57km/h | 3657m | -3.8m/s | -3.8°C | 46% | 653.5hPa | 2.6V | 07:37:01 | 02:28:19 | 00:00:00 | |
| DL1XH-west | 2026-09-01 12:02:21 | 52.83697 | 9.00253 | 73° | 57km/h | 3661m | -4m/s | -3.9°C | 46.8% | 653.3hPa | 2.7V | 07:37:01 | 02:28:18 | 00:00:00 | |
| DO2JMG | 2026-09-01 12:02:13 | 52.83676 | 9.00058 | 90° | 55km/h | 3692m | -3.8m/s | -4.1°C | 47.5% | 650.6hPa | 2.7V | 07:37:01 | 02:28:10 | 00:00:00 | |
| BIOWL1-15 | 2026-09-01 12:02:12 | 52.83665 | 8.99751 | 76° | 53km/h | 3748m | -3.9m/s | -4.5°C | 65.5% | 646.3hPa | 2.7V | 07:37:01 | 02:27:55 | 00:00:00 | |
| DL1XH-west | 2026-09-01 12:02:11 | 52.83677 | 8.99993 | 92° | 51km/h | 3703m | -3.7m/s | -4.2°C | 48.6% | 649.8hPa | 2.7V | 07:37:01 | 02:28:07 | 00:00:00 | |
| DL1XH-15 | 2026-09-01 12:02:10 | 52.83677 | 8.99993 | 91° | 51km/h | 3703m | -3.7m/s | -4.2°C | 44.4% | 649.8hPa | 2.7V | 07:36:48 | 02:28:07 | 00:00:00 | |
| GOEST3-10 | 2026-09-01 12:02:09 | 52.83678 | 8.99951 | 90° | 49km/h | 3710m | -4.0m/s | -4.1°C | 47.5% | 649.2hPa | 2.7V | 00:00:00 | 02:28:05 | 00:00:00 | |
| DF5WG-10 | 2026-09-01 12:02:08 | 52.83679 | 8.99930 | 95° | 49km/h | 3714m | -3.9m/s | -4.1°C | 50.3% | 648.9hPa | 2.7V | 00:00:00 | 02:28:04 | 00:00:00 | |
| DO2LYB-13 | 2026-09-01 12:02:07 | 52.83679 | 8.99930 | 95° | 51km/h | 3714m | -4.0m/s | -4.2°C | 48.8% | 648.9hPa | 2.7V | 00:00:00 | 00:00:00 | 00:00:00 | |
| DM0DOS-11 | 2026-09-01 12:02:05 | 52.83665 | 8.99751 | 75° | 53km/h | 3748m | -3.9m/s | -4.5°C | 60.9% | 646.3hPa | 2.7V | 07:37:00 | 02:27:55 | 00:00:00 | |
| DO2JMG | 2026-09-01 12:02:02 | 52.83677 | 8.99832 | 80° | 46km/h | 3733m | -3.9m/s | -4.3°C | 63.5% | 647.4hPa | 2.7V | 07:37:01 | 02:27:59 | 00:00:00 | |
| DL1XH1-15 | 2026-09-01 12:02:01 | 52.83672 | 8.99793 | 76° | 51km/h | 3741m | -3.6m/s | -4.4°C | 60% | 646.8hPa | 2.6V | 07:36:58 | 02:27:57 | 00:00:00 | |
| BIOWL1-15 | 2026-09-01 12:02:01 | 52.83662 | 8.99728 | 77° | 58km/h | 3752m | -3.8m/s | -4.5°C | 65.7% | 645.9hPa | 2.7V | 07:37:01 | 02:27:54 | 00:00:00 | |
| DL1XH-west | 2026-09-01 12:02:00 | 52.83669 | 8.99772 | 73° | 53km/h | 3744m | -3.6m/s | -4.4°C | 64.8% | 646.6hPa | 2.7V | 07:37:01 | 02:27:56 | 00:00:00 | |
| DL3AQ-11 | 2026-09-01 12:02:00 | 52.83648 | 8.99455 | 91° | 51km/h | 3792m | -3.4m/s | -4.8°C | 59.5% | 642.7hPa | 2.6V | 00:00:00 | 00:00:00 | 00:00:00 | |
| DL1XH-15 | 2026-09-01 12:01:59 | 52.83650 | 8.99629 | 80° | 64km/h | 3767m | -4.1m/s | -4.6°C | 61.8% | 644.8hPa | 2.6V | 07:37:05 | 02:27:50 | 00:00:00 | |
| DD8BA-10 | 2026-09-01 12:01:58 | 52.83665 | 8.99751 | 76° | 60km/h | 3748m | -3.8m/s | -4.4°C | 60.9% | 646.2hPa | 2.7V | 00:00:00 | 00:00:00 | 00:00:00 | |
| DF5WG-10 | 2026-09-01 12:01:56 | 52.83658 | 8.99704 | 77° | 60km/h | 3755m | -3.7m/s | -4.5°C | 61.1% | 645.6hPa | 2.7V | 00:00:00 | 02:27:53 | 00:00:00 | |
| DL1XH1-15 | 2026-09-01 12:01:55 | 52.83646 | 8.99525 | 90° | 60km/h | 3782m | -3.7m/s | -4.8°C | 62.2% | 643.7hPa | 2.7V | 07:37:09 | 02:27:46 | 00:00:00 | |
| DO2JMG | 2026-09-01 12:01:52 | 52.83648 | 8.99603 | 85° | 62km/h | 3771m | -3.9m/s | -4.6°C | 67.9% | 644.5hPa | 2.7V | 07:37:52 | 02:27:49 | 00:00:00 | |
| DL1XH1-15 | 2026-09-01 12:01:50 | 52.83649 | 8.99413 | 90° | 51km/h | 3800m | -3.9m/s | -4.9°C | 62.6% | 642.2hPa | 2.7V | 07:37:14 | 02:27:41 | 00:00:00 | |
| DL1XH-west | 2026-09-01 12:01:49 | 52.83646 | 8.99525 | 91° | 60km/h | 3782m | -3.7m/s | -4.8°C | 66.3% | 643.7hPa | 2.7V | 07:37:52 | 02:27:46 | 00:00:00 | |
| DL1XH-15 | 2026-09-01 12:01:48 | 52.83648 | 8.99370 | 84° | 49km/h | 3807m | -3.2m/s | -5°C | 64.1% | 641.6hPa | 2.7V | 07:37:16 | 02:27:39 | 00:00:00 | |
| DF5WG-10 | 2026-09-01 12:01:46 | 52.83648 | 8.99455 | 92° | 53km/h | 3793m | -3.3m/s | -4.8°C | 61.4% | 642.7hPa | 2.6V | 00:00:00 | 02:27:43 | 00:00:00 | |
| DL1XH1-15 | 2026-09-01 12:01:44 | 52.83641 | 8.99305 | 76° | 57km/h | 3817m | -3.4m/s | -5°C | 57% | 640.8hPa | 2.6V | 07:37:19 | 02:27:36 | 00:00:00 | |
| DO2JMG | 2026-09-01 12:01:41 | 52.83647 | 8.99349 | 82° | 53km/h | 3810m | -3.5m/s | -5°C | 63.6% | 641.3hPa | 2.7V | 07:37:52 | 02:27:38 | 00:00:00 | |
| DL1XH-west | 2026-09-01 12:01:39 | 52.83641 | 8.99305 | 77° | 57km/h | 3817m | -3.4m/s | -5°C | 60.7% | 640.8hPa | 2.6V | 07:37:52 | 02:27:36 | 00:00:00 | |
| DD8BA-10 | 2026-09-01 12:01:38 | 52.83638 | 8.99282 | 77° | 57km/h | 3821m | -3.5m/s | -5.0°C | 56.2% | 640.4hPa | 2.6V | 00:00:00 | 00:00:00 | 00:00:00 | |
| DL1XH-15 | 2026-09-01 12:01:37 | 52.83618 | 8.99149 | 73° | 57km/h | 3843m | -4m/s | -5.2°C | 60% | 638.8hPa | 2.6V | 07:37:26 | 02:27:29 | 00:00:00 | |
| BIOWL1-15 | 2026-09-01 12:01:37 | 52.83618 | 8.99149 | 74° | 57km/h | 3843m | -4m/s | -5.2°C | 64.6% | 638.8hPa | 2.6V | 07:37:52 | 02:27:29 | 00:00:00 | |
| DF5WG-10 | 2026-09-01 12:01:36 | 52.83632 | 8.99238 | 78° | 58km/h | 3828m | -3.5m/s | -5.0°C | 62.0% | 639.9hPa | 2.7V | 07:37:00 | 02:27:33 | 00:00:00 | |
| DL1XH1-15 | 2026-09-01 12:01:34 | 52.83600 | 8.99024 | 81° | 66km/h | 3863m | -3.8m/s | -5.3°C | 59% | 637.2hPa | 2.7V | 07:37:31 | 02:27:24 | 00:00:00 | |
| DO2JMG | 2026-09-01 12:01:32 | 52.83614 | 8.99126 | 75° | 58km/h | 3847m | -4.1m/s | -5.2°C | 65.1% | 638.5hPa | 2.7V | 07:37:52 | 02:27:28 | 00:00:00 | |
| DM0DOS-11 | 2026-09-01 12:01:31 | 52.83597 | 8.98968 | 87° | 68km/h | 3870m | -3.7m/s | -5.3°C | 59.1% | 636.7hPa | 2.6V | 07:37:33 | 02:27:22 | 00:00:00 | |
| DL1XH-west | 2026-09-01 12:01:29 | 52.83606 | 8.99077 | 76° | 62km/h | 3855m | -3.6m/s | -5.2°C | 64.3% | 637.9hPa | 2.7V | 07:37:52 | 02:27:26 | 00:00:00 | |
| DO9LL-15 | 2026-09-01 12:01:29 | 52.83606 | 8.99077 | 76° | 62km/h | 3855m | -3.6m/s | -5.2°C | 59.7% | 637.8hPa | 2.7V | 00:00:00 | 02:27:26 | 00:00:00 | |
| DL1XH1-15 | 2026-09-01 12:01:28 | 52.83598 | 8.98864 | 92° | 55km/h | 3885m | -3.5m/s | -5.4°C | 60.3% | 635.5hPa | 2.7V | 07:37:37 | 02:27:18 | 00:00:00 | |
| DB0DAN | 2026-09-01 12:01:25 | 52.83597 | 8.98968 | 87° | 64km/h | 3870m | -3.7m/s | -5.3°C | 57.2% | 636.67hPa | 2.6V | 00:00:00 | 00:00:00 | 00:00:00 | |
| DO2JMG | 2026-09-01 12:01:22 | 52.83598 | 8.98864 | 93° | 55km/h | 3885m | -3.5m/s | -5.4°C | 63.3% | 635.5hPa | 2.7V | 07:37:52 | 02:27:18 | 00:00:00 | |
| DL8OAI-8 | 2026-09-01 12:01:21 | 52.83597 | 8.98888 | 94° | 58km/h | 3882m | -3.6m/s | -5.4°C | 58.2% | 635.8hPa | 2.6V | 07:37:00 | 00:00:00 | 00:00:00 | |
| DL3AQ-11 | 2026-09-01 12:01:20 | 52.83598 | 8.98821 | 87° | 49km/h | 3892m | -3.5m/s | -5.5°C | 59.2% | 634.9hPa | 2.6V | 00:00:00 | 00:00:00 | 00:00:00 | |
| DD8BA-10 | 2026-09-01 12:01:18 | 52.83597 | 8.98799 | 84° | 60km/h | 3896m | -3.5m/s | -5.4°C | 61.6% | 634.7hPa | 2.6V | 00:00:00 | 00:00:00 | 00:00:00 | |
| DL1XH-west | 2026-09-01 12:01:18 | 52.83597 | 8.98799 | 84° | 51km/h | 3896m | -3.5m/s | -5.5°C | 64.5% | 634.8hPa | 2.6V | 07:37:52 | 02:27:15 | 00:00:00 | |
| DL1XH1-15 | 2026-09-01 12:01:16 | 52.83579 | 8.98625 | 78° | 62km/h | 3919m | -3.5m/s | -5.7°C | 64.8% | 632.8hPa | 2.6V | 07:37:47 | 02:27:08 | 00:00:00 | |
| BIOWL1-15 | 2026-09-01 12:01:16 | 52.83588 | 8.98703 | 80° | 64km/h | 3909m | -3.4m/s | -5.6°C | 68.1% | 633.7hPa | 2.7V | 07:37:52 | 02:27:11 | 00:00:00 | |
| DM0DOS-11 | 2026-09-01 12:01:15 | 52.83591 | 8.98729 | 80° | 62km/h | 3906m | -3.4m/s | -5.6°C | 63.1% | 633.9hPa | 2.7V | 07:37:43 | 02:27:12 | 00:00:00 | |
| DM0DOS-11 | 2026-09-01 12:01:15 | 52.83576 | 8.98600 | 78° | 62km/h | 3923m | -3.4m/s | -5.7°C | 65.4% | 632.5hPa | 2.7V | 07:37:48 | 02:27:07 | 00:00:00 | |
| DO2JMG | 2026-09-01 12:01:10 | 52.83576 | 8.98600 | 78° | 62km/h | 3923m | -3.4m/s | -5.7°C | 70.1% | 632.5hPa | 2.7V | 07:37:52 | 02:27:07 | 00:00:00 | |
| DB0DAN | 2026-09-01 12:01:10 | 52.83576 | 8.98600 | 78° | 58km/h | 3923m | -3.4m/s | -5.7°C | 63.3% | 632.48hPa | 2.7V | 00:00:00 | 00:00:00 | 00:00:00 | |
| DL1XH-west | 2026-09-01 12:01:07 | 52.83567 | 8.98521 | 81° | 66km/h | 3934m | -3.7m/s | -5.8°C | 71.4% | 631.6hPa | 2.7V | 07:37:52 | 02:27:04 | 00:00:00 | |
| DL1XH1-15 | 2026-09-01 12:01:06 | 52.83564 | 8.98356 | 94° | 60km/h | 3955m | -3.6m/s | -5.8°C | 66.2% | 630hPa | 2.7V | 07:37:57 | 02:26:58 | 00:00:00 | |
| DM0DOS-11 | 2026-09-01 12:01:05 | 52.83566 | 8.98331 | 95° | 58km/h | 3958m | -3.6m/s | -5.8°C | 66.3% | 629.6hPa | 2.7V | 07:37:58 | 02:26:57 | 00:00:00 | |
| DL4BBY-15 | 2026-09-01 12:01:04 | 52.83563 | 8.98409 | 92° | 58km/h | 3948m | -3.6m/s | -4.1°C | 0% | 0hPa | 2.7V | 00:00:00 | 00:00:00 | 00:00:00 | |
| BIOWL1-15 | 2026-09-01 12:01:04 | 52.83563 | 8.98437 | 89° | 68km/h | 3944m | -3.5m/s | -5.8°C | 69.7% | 630.8hPa | 2.6V | 07:38:43 | 02:27:01 | 00:00:00 | |
| DJ2DS-15 | 2026-09-01 12:01:02 | 52.83563 | 8.98382 | 93° | 62km/h | 3951m | -3.5m/s | -5.8°C | 63.7% | 630.2hPa | 2.7V | 00:00:00 | 00:00:00 | 00:00:00 | |
| DL1XH1-15 | 2026-09-01 12:01:01 | 52.83570 | 8.98219 | 88° | 49km/h | 3977m | -3.5m/s | -5.9°C | 59.6% | 628.2hPa | 2.7V | 07:38:03 | 02:26:52 | 00:00:00 | |
| DO2JMG | 2026-09-01 12:01:00 | 52.83566 | 8.98331 | 95° | 58km/h | 3958m | -3.6m/s | -5.9°C | 68.8% | 629.6hPa | 2.7V | 07:40:25 | 02:26:57 | 00:00:00 | |
| DL1XH-west | 2026-09-01 12:00:58 | 52.83570 | 8.98261 | 94° | 53km/h | 3970m | -3.6m/s | -5.9°C | 67.2% | 628.8hPa | 2.6V | 07:38:43 | 02:26:54 | 00:00:00 | |
| DO9LL-15 | 2026-09-01 12:00:57 | 52.83569 | 8.98261 | 95° | 57km/h | 3970m | -3.5m/s | -5.9°C | 64.2% | 628.8hPa | 2.7V | 07:38:00 | 02:26:54 | 00:00:00 | |
| DC6BW-12 | 2026-09-01 12:00:56 | 52.83570 | 8.98261 | 95° | 53km/h | 3970m | -3.6m/s | -5.9°C | 62.1% | 628.8hPa | 2.7V | 07:38:00 | 00:00:00 | 00:00:00 | |
| DB0DAN | 2026-09-01 12:00:55 | 52.83570 | 8.98219 | 88° | 47km/h | 3977m | -3.5m/s | -5.9°C | 57.7% | 628.23hPa | 2.7V | 00:00:00 | 00:00:00 | 00:00:00 | |
| GOEST3-10 | 2026-09-01 12:00:55 | 52.83570 | 8.98219 | 89° | 55km/h | 3977m | -3.5m/s | -5.9°C | 59.6% | 628.2hPa | 2.7V | 00:00:00 | 02:26:52 | 00:00:00 | |
| DM0DOS-11 | 2026-09-01 12:00:54 | 52.83558 | 8.98085 | 78° | 60km/h | 3999m | -3.7m/s | -6.1°C | 60.2% | 626.5hPa | 2.7V | 07:38:09 | 02:26:46 | 00:00:00 | |
| BIOWL1-15 | 2026-09-01 12:00:54 | 52.83561 | 8.98109 | 78° | 58km/h | 3995m | -3.6m/s | -6.1°C | 65% | 626.8hPa | 2.6V | 07:38:43 | 02:26:47 | 00:00:00 | |
| BUE01 | 2026-09-01 12:00:52 | 52.83563 | 8.98133 | 78° | 55km/h | 3991m | -3.7m/s | -6.1°C | 59.1% | 627.0hPa | 2.6V | 00:00:00 | 00:00:00 | 00:00:00 | |
| DL3AQ-11 | 2026-09-01 12:00:51 | 52.83561 | 8.98109 | 78° | 57km/h | 3995m | -3.6m/s | -6.1°C | 59.1% | 626.8hPa | 2.6V | 00:00:00 | 00:00:00 | 00:00:00 | |
| DL1XH1-15 | 2026-09-01 12:00:50 | 52.83549 | 8.97978 | 86° | 68km/h | 4013m | -3.7m/s | -6.2°C | 66.7% | 625.4hPa | 2.6V | 07:38:13 | 02:26:42 | 00:00:00 | |
| DO2JMG | 2026-09-01 12:00:49 | 52.83558 | 8.98085 | 79° | 60km/h | 3999m | -3.7m/s | -6.1°C | 64.2% | 626.5hPa | 2.7V | 07:40:25 | 02:26:46 | 00:00:00 | |
| DM0DOS-11 | 2026-09-01 12:00:49 | 52.83548 | 8.97950 | 89° | 68km/h | 4016m | -3.5m/s | -6.3°C | 66.9% | 625hPa | 2.6V | 07:38:14 | 02:26:41 | 00:00:00 | |
| DL1XH-west | 2026-09-01 12:00:46 | 52.83550 | 8.98006 | 84° | 68km/h | 4009m | -3.6m/s | -6.2°C | 67.3% | 625.6hPa | 2.7V | 07:38:43 | 02:26:43 | 00:00:00 | |
| DM0DOS-11 | 2026-09-01 12:00:44 | 52.83553 | 8.97821 | 94° | 55km/h | 4034m | -3.6m/s | -6.4°C | 68.2% | 623.6hPa | 2.7V | 07:38:19 | 02:26:36 | 00:00:00 | |
| DJ2DS-15 | 2026-09-01 12:00:44 | 52.83548 | 8.97949 | 90° | 58km/h | 4017m | -3.4m/s | -6.2°C | 66.9% | 625.0hPa | 2.6V | 00:00:00 | 02:26:41 | 00:00:00 | |
| DL1XH-15 | 2026-09-01 12:00:43 | 52.83554 | 8.97777 | 90° | 51km/h | 4042m | -3.5m/s | -6.4°C | 68.6% | 623hPa | 2.6V | 07:38:21 | 02:26:34 | 00:00:00 | |
| DL8OAI-8 | 2026-09-01 12:00:41 | 52.83549 | 8.97895 | 95° | 64km/h | 4023m | -3.6m/s | -6.3°C | 64.7% | 624.5hPa | 2.7V | 07:38:00 | 00:00:00 | 00:00:00 | |
| DB0DAN | 2026-09-01 12:00:40 | 52.83551 | 8.97844 | 95° | 55km/h | 4031m | -3.8m/s | -6.3°C | 66.2% | 623.92hPa | 2.7V | 00:00:00 | 00:00:00 | 00:00:00 | |
| BIOWL1-15 | 2026-09-01 12:00:40 | 52.83539 | 8.97625 | 75° | 57km/h | 4067m | -3.7m/s | -6.6°C | 73.2% | 621.1hPa | 2.6V | 07:38:43 | 02:26:27 | 00:00:00 | |
| DO2JMG | 2026-09-01 12:00:39 | 52.83553 | 8.97821 | 95° | 55km/h | 4034m | -3.6m/s | -6.4°C | 71.5% | 623.6hPa | 2.7V | 07:40:25 | 02:26:36 | 00:00:00 | |
| DM0DOS-11 | 2026-09-01 12:00:39 | 52.83545 | 8.97670 | 76° | 55km/h | 4060m | -3.7m/s | -6.6°C | 69.6% | 621.8hPa | 2.7V | 07:38:26 | 02:26:29 | 00:00:00 | |
| DL1XH-west | 2026-09-01 12:00:36 | 52.83551 | 8.97713 | 80° | 51km/h | 4052m | -3.6m/s | -6.5°C | 72% | 622.2hPa | 2.7V | 07:38:43 | 02:26:31 | 00:00:00 | |
| SMARD9-15 | 2026-09-01 12:00:36 | 52.83548 | 8.97692 | 77° | 53km/h | 4056m | -3.7m/s | -6.6°C | 66.7% | 621.9hPa | 2.6V | 00:00:00 | 00:00:00 | 00:00:00 | |
| DL1XH-15 | 2026-09-01 12:00:35 | 52.83542 | 8.97648 | 75° | 55km/h | 4063m | -3.9m/s | -6.6°C | 70.1% | 621.4hPa | 2.6V | 07:38:27 | 02:26:28 | 00:00:00 | |
| DC6BW-12 | 2026-09-01 12:00:35 | 52.83553 | 8.97734 | 84° | 51km/h | 4049m | -3.5m/s | -6.5°C | 66.4% | 622.5hPa | 2.7V | 07:38:00 | 00:00:00 | 00:00:00 | |
| DL1XH1-15 | 2026-09-01 12:00:34 | 52.83531 | 8.97577 | 76° | 62km/h | 4075m | -3.7m/s | -6.7°C | 66.9% | 620.5hPa | 2.7V | 07:38:30 | 02:26:25 | 00:00:00 | |
| DL4XJ-10 | 2026-09-01 12:00:34 | 52.83551 | 8.97713 | 80° | 55km/h | 4052m | -3.6m/s | -4.9°C | 0% | 0hPa | 2.7V | 00:00:00 | 00:00:00 | 00:00:00 | |
| DM0DOS-11 | 2026-09-01 12:00:33 | 52.83528 | 8.97552 | 79° | 64km/h | 4078m | -3.8m/s | -6.7°C | 66.5% | 620.1hPa | 2.7V | 07:38:31 | 02:26:24 | 00:00:00 | |
| DL4BBY-15 | 2026-09-01 12:00:33 | 52.83548 | 8.97692 | 78° | 57km/h | 4056m | -3.6m/s | -4.9°C | 0% | 0hPa | 2.7V | 00:00:00 | 00:00:00 | 00:00:00 | |
| DL1XH1-15 | 2026-09-01 12:00:28 | 52.83524 | 8.97446 | 93° | 60km/h | 4092m | -3.6m/s | -6.8°C | 62.9% | 619hPa | 2.7V | 07:38:35 | 02:26:20 | 00:00:00 | |
| DO2JMG | 2026-09-01 12:00:27 | 52.83528 | 8.97552 | 80° | 64km/h | 4079m | -3.8m/s | -6.7°C | 70.4% | 620.1hPa | 2.7V | 07:40:25 | 02:26:24 | 00:00:00 | |
| DM0DOS-11 | 2026-09-01 12:00:27 | 52.83525 | 8.97422 | 94° | 57km/h | 4096m | -3.6m/s | -6.8°C | 61.2% | 618.8hPa | 2.7V | 07:38:36 | 02:26:19 | 00:00:00 | |
| DB0DAN | 2026-09-01 12:00:25 | 52.83524 | 8.97498 | 87° | 62km/h | 4086m | -3.3m/s | -6.8°C | 61.2% | 619.66hPa | 2.6V | 00:00:00 | 00:00:00 | 00:00:00 | |
| DL1XH-west | 2026-09-01 12:00:24 | 52.83524 | 8.97472 | 91° | 62km/h | 4089m | -3.6m/s | -6.8°C | 67.2% | 619.3hPa | 2.6V | 07:38:43 | 02:26:21 | 00:00:00 | |
| DL3AQ-11 | 2026-09-01 12:00:24 | 52.83524 | 8.97446 | 93° | 60km/h | 4092m | -3.6m/s | -6.8°C | 60.8% | 619.0hPa | 2.6V | 00:00:00 | 00:00:00 | 00:00:00 | |
| DL1XH1-15 | 2026-09-01 12:00:23 | 52.83529 | 8.97315 | 88° | 47km/h | 4115m | -3.7m/s | -6.9°C | 61.8% | 617.3hPa | 2.6V | 07:38:41 | 02:26:14 | 00:00:00 | |
| DM0DOS-11 | 2026-09-01 12:00:22 | 52.83526 | 8.97276 | 80° | 47km/h | 4122m | -3.5m/s | -7°C | 62.9% | 616.7hPa | 2.7V | 07:38:43 | 02:26:12 | 00:00:00 | |
| GOEST3-10 | 2026-09-01 12:00:22 | 52.83525 | 8.97422 | 95° | 53km/h | 4096m | -3.5m/s | -6.7°C | 61.2% | 618.7hPa | 2.7V | 00:00:00 | 00:00:00 | 00:00:00 | |
| DL8OAI-8 | 2026-09-01 12:00:21 | 52.83526 | 8.97399 | 96° | 55km/h | 4100m | -3.7m/s | -6.8°C | 57.4% | 618.4hPa | 2.6V | 07:38:00 | 00:00:00 | 00:00:00 | |
| DL1XH1-15 | 2026-09-01 12:00:18 | 52.83517 | 8.97212 | 75° | 57km/h | 4133m | -3.7m/s | -7.1°C | 62.8% | 615.8hPa | 2.6V | 07:38:46 | 02:26:09 | 00:00:00 | |
| DO2JMG | 2026-09-01 12:00:17 | 52.83528 | 8.97295 | 84° | 47km/h | 4118m | -3.6m/s | -6.9°C | 65.8% | 617hPa | 2.7V | 07:40:25 | 02:26:13 | 00:00:00 | |
| DM0DOS-11 | 2026-09-01 12:00:17 | 52.83511 | 8.97163 | 79° | 62km/h | 4140m | -3.8m/s | -7.1°C | 63.2% | 615.2hPa | 2.7V | 07:38:48 | 02:26:07 | 00:00:00 | |
| DL1XH-west | 2026-09-01 12:00:14 | 52.83524 | 8.97256 | 77° | 51km/h | 4126m | -3.7m/s | -7°C | 66.9% | 616.3hPa | 2.7V | 07:39:34 | 02:26:11 | 00:00:00 | |
| DL4XJ-10 | 2026-09-01 12:00:14 | 52.83524 | 8.97256 | 78° | 55km/h | 4126m | -3.6m/s | -5.3°C | 0% | 0hPa | 2.7V | 00:00:00 | 00:00:00 | 00:00:00 | |
| DC6BW-12 | 2026-09-01 12:00:13 | 52.83524 | 8.97256 | 78° | 51km/h | 4126m | -3.7m/s | -7.0°C | 61.1% | 616.3hPa | 2.7V | 07:39:00 | 00:00:00 | 00:00:00 | |
| DL1XH1-15 | 2026-09-01 12:00:12 | 52.83506 | 8.97084 | 88° | 64km/h | 4151m | -3.7m/s | -7.2°C | 63.6% | 614.3hPa | 2.7V | 07:38:51 | 02:26:04 | 00:00:00 | |
| GOEST3-10 | 2026-09-01 12:00:12 | 52.83517 | 8.97212 | 76° | 62km/h | 4133m | -3.6m/s | -7.0°C | 62.8% | 615.7hPa | 2.7V | 00:00:00 | 00:00:00 | 00:00:00 | |
| DB0DAN | 2026-09-01 12:00:10 | 52.83511 | 8.97163 | 80° | 58km/h | 4140m | -3.8m/s | -7.1°C | 61.1% | 615.21hPa | 2.7V | 00:00:00 | 00:00:00 | 00:00:00 | |
| DM0DOS-11 | 2026-09-01 12:00:10 | 52.83506 | 8.97032 | 93° | 60km/h | 4159m | -3.7m/s | -7.2°C | 64.2% | 613.7hPa | 2.6V | 07:38:53 | 02:26:02 | 00:00:00 | |
| DD8BA-10 | 2026-09-01 12:00:08 | 52.83506 | 8.97111 | 86° | 55km/h | 4148m | -3.7m/s | -7.1°C | 63.4% | 614.5hPa | 2.7V | 00:00:00 | 00:00:00 | 00:00:00 | |
| DL1XH1-15 | 2026-09-01 12:00:07 | 52.83509 | 8.96964 | 93° | 49km/h | 4171m | -3.7m/s | -7.3°C | 64.7% | 612.9hPa | 2.7V | 07:38:56 | 02:25:59 | 00:00:00 | |
| BIOWL1-15 | 2026-09-01 12:00:06 | 52.83506 | 8.96887 | 78° | 46km/h | 4185m | -3.9m/s | -7.4°C | 69.1% | 611.6hPa | 2.6V | 07:39:34 | 02:25:55 | 00:00:00 | |
| DL1XH-15 | 2026-09-01 12:00:06 | 52.83505 | 8.97058 | 91° | 62km/h | 4155m | -3.8m/s | -7.2°C | 63.9% | 614hPa | 2.7V | 07:38:52 | 02:26:03 | 00:00:00 | |
| DL1XH-15 | 2026-09-01 12:00:06 | 52.83509 | 8.96944 | 89° | 47km/h | 4174m | -3.6m/s | -7.3°C | 64.8% | 612.6hPa | 2.7V | 07:38:57 | 02:25:58 | 00:00:00 | |
| DF5WG-10 | 2026-09-01 12:00:06 | 52.83505 | 8.97058 | 92° | 51km/h | 4155m | -3.8m/s | -7.2°C | 63.9% | 613.9hPa | 2.7V | 00:00:00 | 02:26:03 | 00:00:00 | |
| DM0DOS-11 | 2026-09-01 12:00:05 | 52.83509 | 8.96925 | 85° | 46km/h | 4178m | -3.6m/s | -7.4°C | 65% | 612.2hPa | 2.7V | 07:38:58 | 02:25:57 | 00:00:00 | |
| DL1XH-west | 2026-09-01 12:00:04 | 52.83507 | 8.97008 | 95° | 57km/h | 4163m | -4m/s | -7.3°C | 67.4% | 613.5hPa | 2.6V | 07:39:34 | 02:26:01 | 00:00:00 | |
| DL1XH1-15 | 2026-09-01 12:00:02 | 52.83503 | 8.96868 | 76° | 49km/h | 4189m | -4m/s | -7.5°C | 66.1% | 611.4hPa | 2.7V | 07:39:01 | 02:25:54 | 00:00:00 | |
| GOEST3-10 | 2026-09-01 12:00:02 | 52.83509 | 8.96964 | 94° | 47km/h | 4171m | -3.7m/s | -7.3°C | 64.7% | 612.8hPa | 2.7V | 07:38:00 | 00:00:00 | 00:00:00 | |
| DM0DOS-11 | 2026-09-01 12:00:00 | 52.83493 | 8.96804 | 76° | 57km/h | 4201m | -3.8m/s | -7.6°C | 67.3% | 610.6hPa | 2.7V | 07:39:04 | 02:25:51 | 00:00:00 | |
| DL3AQ-11 | 2026-09-01 12:00:00 | 52.83508 | 8.96906 | 80° | 44km/h | 4182m | -3.7m/s | -7.4°C | 63.0% | 611.9hPa | 2.6V | 00:00:00 | 00:00:00 | 00:00:00 | |
| DL8OAI-8 | 2026-09-01 11:59:59 | 52.83509 | 8.96925 | 86° | 46km/h | 4178m | -3.6m/s | -7.4°C | 62.8% | 612.2hPa | 2.6V | 07:39:00 | 00:00:00 | 00:00:00 | |
| DD8BA-10 | 2026-09-01 11:59:58 | 52.83506 | 8.96887 | 79° | 57km/h | 4185m | -3.9m/s | -7.4°C | 65.6% | 611.6hPa | 2.6V | 00:00:00 | 00:00:00 | 00:00:00 | |
| DL1XH1-15 | 2026-09-01 11:59:57 | 52.83488 | 8.96755 | 82° | 62km/h | 4208m | -3.6m/s | -7.7°C | 67.5% | 609.9hPa | 2.6V | 07:39:06 | 02:25:49 | 00:00:00 | |
| GOEST3-10 | 2026-09-01 11:59:57 | 52.83503 | 8.96868 | 77° | 55km/h | 4189m | -3.9m/s | -7.4°C | 66.1% | 611.3hPa | 2.7V | 00:00:00 | 02:25:54 | 00:00:00 | |
| DF5WG-10 | 2026-09-01 11:59:56 | 52.83500 | 8.96848 | 76° | 57km/h | 4193m | -3.9m/s | -7.5°C | 66.5% | 611.0hPa | 2.7V | 00:00:00 | 02:25:53 | 00:00:00 | |
| DL4XJ-10 | 2026-09-01 11:59:55 | 52.83493 | 8.96804 | 77° | 51km/h | 4201m | -3.7m/s | -6.0°C | 0% | 0hPa | 2.7V | 00:00:00 | 00:00:00 | 00:00:00 | |
| DM0DOS-11 | 2026-09-01 11:59:54 | 52.83487 | 8.96656 | 93° | 55km/h | 4223m | -4m/s | -7.8°C | 68.5% | 608.7hPa | 2.7V | 07:39:10 | 02:25:45 | 00:00:00 | |
| DL1XH-west | 2026-09-01 11:59:54 | 52.83490 | 8.96780 | 79° | 60km/h | 4205m | -3.7m/s | -7.7°C | 71.7% | 610.2hPa | 2.7V | 07:39:34 | 02:25:50 | 00:00:00 | |
| HTAHTA | 2026-09-01 11:59:53 | 52.83488 | 8.96755 | 82° | 60km/h | 4208m | -3.6m/s | -7.7°C | 65.1% | 609.9hPa | 2.7V | 00:00:00 | 00:00:00 | 00:00:00 | |
| DL1XH1-15 | 2026-09-01 11:59:52 | 52.83488 | 8.96633 | 94° | 53km/h | 4227m | -3.9m/s | -7.8°C | 68.5% | 608.5hPa | 2.7V | 07:39:11 | 02:25:44 | 00:00:00 | |
| BIOWL1-15 | 2026-09-01 11:59:52 | 52.83488 | 8.96755 | 83° | 62km/h | 4208m | -3.6m/s | -7.7°C | 71.9% | 609.9hPa | 2.6V | 07:39:34 | 02:25:49 | 00:00:00 | |
| BUE01 | 2026-09-01 11:59:50 | 52.83486 | 8.96680 | 92° | 57km/h | 4219m | -3.8m/s | -7.8°C | 66.1% | 609.0hPa | 2.7V | 00:00:00 | 00:00:00 | 00:00:00 | |
| DD8BA-10 | 2026-09-01 11:59:49 | 52.83487 | 8.96656 | 94° | 47km/h | 4223m | -4.0m/s | -7.7°C | 68.5% | 608.7hPa | 2.7V | 00:00:00 | 00:00:00 | 00:00:00 | |
| DL1XH1-15 | 2026-09-01 11:59:47 | 52.83491 | 8.96533 | 89° | 44km/h | 4246m | -3.8m/s | -7.9°C | 70.1% | 606.9hPa | 2.7V | 07:39:16 | 02:25:39 | 00:00:00 | |
| DL1XH-15 | 2026-09-01 11:59:46 | 52.83489 | 8.96611 | 94° | 51km/h | 4231m | -3.8m/s | -7.8°C | 68.7% | 608.1hPa | 2.6V | 07:39:12 | 02:25:43 | 00:00:00 | |
| DL1XH-15 | 2026-09-01 11:59:46 | 52.83491 | 8.96515 | 88° | 42km/h | 4250m | -3.8m/s | -8°C | 70.9% | 606.7hPa | 2.7V | 07:39:17 | 02:25:38 | 00:00:00 | |
| DF5WG-10 | 2026-09-01 11:59:45 | 52.83490 | 8.96590 | 94° | 47km/h | 4235m | -3.7m/s | -7.8°C | 69.0% | 607.8hPa | 2.6V | 00:00:00 | 02:25:42 | 00:00:00 | |
| DJ2DS-15 | 2026-09-01 11:59:44 | 52.83490 | 8.96571 | 93° | 51km/h | 4239m | -3.6m/s | -7.8°C | 69.6% | 607.5hPa | 2.6V | 07:39:00 | 02:25:41 | 00:00:00 | |
| DM0DOS-11 | 2026-09-01 11:59:43 | 52.83487 | 8.96461 | 78° | 46km/h | 4261m | -3.9m/s | -8.1°C | 72.6% | 605.7hPa | 2.6V | 07:39:20 | 02:25:35 | 00:00:00 | |
| DL1XH-west | 2026-09-01 11:59:42 | 52.83491 | 8.96533 | 90° | 44km/h | 4246m | -3.8m/s | -7.9°C | 72.7% | 607hPa | 2.7V | 07:39:34 | 02:25:39 | 00:00:00 | |
| BIOWL1-15 | 2026-09-01 11:59:42 | 52.83490 | 8.96497 | 86° | 42km/h | 4254m | -4m/s | -8°C | 74.4% | 606.4hPa | 2.7V | 07:39:34 | 02:25:37 | 00:00:00 | |
| DB0DAN | 2026-09-01 11:59:40 | 52.83490 | 8.96497 | 86° | 40km/h | 4254m | -4m/s | -8°C | 69.3% | 606.39hPa | 2.7V | 00:00:00 | 00:00:00 | 00:00:00 | |
| DL8OAI-8 | 2026-09-01 11:59:39 | 52.83490 | 8.96497 | 87° | 42km/h | 4254m | -4.0m/s | -8.0°C | 69.3% | 606.4hPa | 2.7V | 07:39:00 | 00:00:00 | 00:00:00 | |
| DL1XH-15 | 2026-09-01 11:59:38 | 52.83482 | 8.96421 | 75° | 53km/h | 4269m | -3.5m/s | -8.2°C | 73.5% | 605.1hPa | 2.7V | 07:39:22 | 02:25:33 | 00:00:00 | |
| DM0DOS-11 | 2026-09-01 11:59:38 | 52.83474 | 8.96351 | 84° | 60km/h | 4280m | -3.8m/s | -8.3°C | 74.9% | 604.3hPa | 2.6V | 07:39:25 | 02:25:30 | 00:00:00 | |
| AA1-15 | 2026-09-01 11:59:35 | 52.83478 | 8.96399 | 78° | 57km/h | 4273m | -3.7m/s | -8.3°C | 76.9% | 604.9hPa | 2.7V | 07:41:16 | 02:25:32 | 00:00:00 | |
| DF5WG-10 | 2026-09-01 11:59:35 | 52.83478 | 8.96399 | 78° | 57km/h | 4273m | -3.6m/s | -8.2°C | 73.9% | 604.9hPa | 2.7V | 00:00:00 | 02:25:32 | 00:00:00 | |
| DL1CLM-18 | 2026-09-01 11:59:34 | 52.83476 | 8.96375 | 82° | 58km/h | 4276m | -3.6m/s | -8.3°C | 71.8% | 604.6hPa | 2.7V | 00:00:00 | 00:00:00 | 00:00:00 | |
| DL1XH-15 | 2026-09-01 11:59:33 | 52.83472 | 8.96302 | 88° | 58km/h | 4287m | -3.6m/s | -8.4°C | 75.6% | 603.6hPa | 2.7V | 07:39:27 | 02:25:28 | 00:00:00 | |
| DM0DOS-11 | 2026-09-01 11:59:33 | 52.83473 | 8.96229 | 93° | 57km/h | 4299m | -3.9m/s | -8.5°C | 76.4% | 602.9hPa | 2.7V | 07:39:30 | 02:25:25 | 00:00:00 | |
| DL1XH-west | 2026-09-01 11:59:32 | 52.83473 | 8.96326 | 87° | 60km/h | 4284m | -3.9m/s | -8.4°C | 77.7% | 604hPa | 2.6V | 07:39:34 | 02:25:29 | 00:00:00 | |
| BIOWL1-15 | 2026-09-01 11:59:29 | 52.83474 | 8.96205 | 94° | 57km/h | 4303m | -3.7m/s | -8.5°C | 78.5% | 602.5hPa | 2.7V | 07:39:34 | 02:25:24 | 00:00:00 | |
| DL1XH-15 | 2026-09-01 11:59:28 | 52.83475 | 8.96182 | 95° | 55km/h | 4306m | -3.9m/s | -8.5°C | 77.3% | 602.2hPa | 2.6V | 07:39:32 | 02:25:23 | 00:00:00 | |
| DM0DOS-11 | 2026-09-01 11:59:28 | 52.83480 | 8.96101 | 91° | 44km/h | 4321m | -3.7m/s | -8.6°C | 80.2% | 601.1hPa | 2.7V | 07:39:36 | 02:25:19 | 00:00:00 | |
| DO2LYB-13 | 2026-09-01 11:59:28 | 52.83473 | 8.96229 | 95° | 57km/h | 4299m | -3.9m/s | -8.5°C | 73.8% | 602.9hPa | 2.7V | 07:39:00 | 00:00:00 | 00:00:00 | |
| DL1XH1-15 | 2026-09-01 11:59:27 | 52.83480 | 8.96101 | 91° | 44km/h | 4321m | -3.7m/s | -8.6°C | 80.2% | 601.1hPa | 2.7V | 07:39:36 | 02:25:19 | 00:00:00 | |
| DB0DAN | 2026-09-01 11:59:25 | 52.83476 | 8.96160 | 96° | 49km/h | 4310m | -3.9m/s | -8.5°C | 75.5% | 601.87hPa | 2.6V | 00:00:00 | 00:00:00 | 00:00:00 | |
| DF5WG-10 | 2026-09-01 11:59:25 | 52.83476 | 8.96160 | 97° | 47km/h | 4310m | -3.9m/s | -8.5°C | 78.2% | 601.8hPa | 2.7V | 00:00:00 | 02:25:22 | 00:00:00 | |
| DJ2DS-15 | 2026-09-01 11:59:24 | 52.83478 | 8.96139 | 97° | 53km/h | 4314m | -3.6m/s | -8.5°C | 79.2% | 601.5hPa | 2.7V | 00:00:00 | 02:25:21 | 00:00:00 | |
| DL1XH1-15 | 2026-09-01 11:59:22 | 52.83471 | 8.96009 | 74° | 51km/h | 4341m | -3.7m/s | -8.8°C | 81% | 599.6hPa | 2.7V | 07:39:41 | 02:25:14 | 00:00:00 | |
| DL1XH-west | 2026-09-01 11:59:21 | 52.83480 | 8.96083 | 88° | 42km/h | 4325m | -3.7m/s | -8.7°C | 82.7% | 600.8hPa | 2.7V | 07:40:25 | 02:25:18 | 00:00:00 | |
| BIOWL1-15 | 2026-09-01 11:59:18 | 52.83461 | 8.95942 | 79° | 58km/h | 4352m | -3.8m/s | -8.9°C | 83.7% | 598.6hPa | 2.6V | 07:40:25 | 02:25:11 | 00:00:00 | |
| AA1-15 | 2026-09-01 11:59:17 | 52.83468 | 8.95988 | 75° | 53km/h | 4345m | -3.6m/s | -8.9°C | 84% | 599.4hPa | 2.7V | 07:41:16 | 02:25:13 | 00:00:00 | |
| DM0DOS-11 | 2026-09-01 11:59:17 | 52.83456 | 8.95867 | 86° | 60km/h | 4364m | -3.9m/s | -9°C | 82.1% | 597.7hPa | 2.7V | 07:39:47 | 02:25:08 | 00:00:00 | |
| DJ2DS-15 | 2026-09-01 11:59:15 | 52.83461 | 8.95942 | 79° | 58km/h | 4352m | -3.8m/s | -8.9°C | 78.5% | 598.6hPa | 2.7V | 00:00:00 | 00:00:00 | 00:00:00 | |
| DL1XH-15 | 2026-09-01 11:59:14 | 52.83455 | 8.95817 | 92° | 57km/h | 4371m | -3.6m/s | -9°C | 82.4% | 597.3hPa | 2.7V | 07:39:49 | 02:25:06 | 00:00:00 | |
| DL4XJ-10 | 2026-09-01 11:59:14 | 52.83461 | 8.95942 | 80° | 53km/h | 4352m | -3.8m/s | -7.2°C | 0% | 0hPa | 2.6V | 00:00:00 | 00:00:00 | 00:00:00 | |
| DM0DOS-11 | 2026-09-01 11:59:12 | 52.83458 | 8.95751 | 96° | 51km/h | 4382m | -3.7m/s | -9.1°C | 83.1% | 596.4hPa | 2.6V | 07:39:52 | 02:25:03 | 00:00:00 | |
| DL1XH-west | 2026-09-01 11:59:11 | 52.83456 | 8.95867 | 87° | 60km/h | 4364m | -3.9m/s | -9°C | 83.7% | 597.7hPa | 2.7V | 07:40:25 | 02:25:08 | 00:00:00 | |
| DB0DAN | 2026-09-01 11:59:10 | 52.83455 | 8.95842 | 89° | 57km/h | 4367m | -3.8m/s | -9°C | 79.5% | 597.46hPa | 2.7V | 00:00:00 | 00:00:00 | 00:00:00 | |
| DL1XH-15 | 2026-09-01 11:59:08 | 52.83462 | 8.95691 | 92° | 46km/h | 4393m | -3.8m/s | -9.2°C | 84% | 595.5hPa | 2.7V | 07:39:55 | 02:25:00 | 00:00:00 | |
| DD8BA-10 | 2026-09-01 11:59:08 | 52.83456 | 8.95794 | 95° | 49km/h | 4374m | -3.5m/s | -9.0°C | 82.7% | 596.9hPa | 2.6V | 00:00:00 | 00:00:00 | 00:00:00 | |
| DL1XH1-15 | 2026-09-01 11:59:06 | 52.83459 | 8.95635 | 79° | 46km/h | 4404m | -3.8m/s | -9.3°C | 83.8% | 594.6hPa | 2.6V | 07:39:58 | 02:24:57 | 00:00:00 | |
| BIOWL1-15 | 2026-09-01 11:59:05 | 52.83461 | 8.95710 | 95° | 47km/h | 4389m | -3.7m/s | -9.2°C | 84.7% | 595.8hPa | 2.7V | 07:40:25 | 02:25:01 | 00:00:00 | |
| BIOWL9-15 | 2026-09-01 11:59:05 | 52.83461 | 8.95710 | 94° | 46km/h | 4389m | -3.7m/s | -9.2°C | 80.9% | 595.8hPa | 2.7V | 00:00:00 | 00:00:00 | 00:00:00 | |
| DL3AQ-11 | 2026-09-01 11:59:04 | 52.83462 | 8.95691 | 92° | 44km/h | 4393m | -3.8m/s | -9.2°C | 81.0% | 595.5hPa | 2.7V | 00:00:00 | 00:00:00 | 00:00:00 | |
| DL1XH-15 | 2026-09-01 11:59:03 | 52.83454 | 8.95594 | 77° | 53km/h | 4412m | -3.6m/s | -9.4°C | 84.1% | 594hPa | 2.7V | 07:40:00 | 02:24:55 | 00:00:00 | |
| DL1XH1-15 | 2026-09-01 11:59:01 | 52.83445 | 8.95497 | 83° | 62km/h | 4426m | -3.9m/s | -9.5°C | 84.4% | 593hPa | 2.6V | 07:40:04 | 02:24:51 | 00:00:00 | |
| DL1XH-west | 2026-09-01 11:59:00 | 52.83459 | 8.95635 | 79° | 46km/h | 4404m | -3.8m/s | -9.3°C | 86.3% | 594.6hPa | 2.6V | 07:40:25 | 02:24:57 | 00:00:00 | |
| DD8BA-10 | 2026-09-01 11:58:58 | 52.83454 | 8.95594 | 78° | 60km/h | 4412m | -3.6m/s | -9.4°C | 84.1% | 593.9hPa | 2.7V | 00:00:00 | 00:00:00 | 00:00:00 | |
| DB0DAN | 2026-09-01 11:58:55 | 52.83446 | 8.95522 | 83° | 58km/h | 4422m | -3.8m/s | -9.5°C | 81.3% | 593.25hPa | 2.6V | 00:00:00 | 00:00:00 | 00:00:00 | |
| DL1XH1-15 | 2026-09-01 11:58:55 | 52.83438 | 8.95365 | 90° | 62km/h | 4446m | -3.9m/s | -9.6°C | 85% | 591.5hPa | 2.6V | 07:40:09 | 02:24:46 | 00:00:00 | |
| BIOWL1-15 | 2026-09-01 11:58:54 | 52.83445 | 8.95497 | 84° | 62km/h | 4426m | -3.9m/s | -9.5°C | 86% | 593hPa | 2.6V | 07:40:25 | 02:24:51 | 00:00:00 | |
| DL1XH-west | 2026-09-01 11:58:49 | 52.83439 | 8.95365 | 90° | 62km/h | 4446m | -3.9m/s | -9.6°C | 85.5% | 591.5hPa | 2.6V | 07:40:25 | 02:24:46 | 00:00:00 | |
| AA1-15 | 2026-09-01 11:58:48 | 52.83439 | 8.95340 | 93° | 60km/h | 4449m | -3.8m/s | -9.7°C | 85.6% | 591.3hPa | 2.6V | 07:41:16 | 02:24:45 | 00:00:00 | |
| BUE01 | 2026-09-01 11:58:48 | 52.83440 | 8.95315 | 94° | 57km/h | 4453m | -3.8m/s | -9.7°C | 82.1% | 590.9hPa | 2.7V | 00:00:00 | 00:00:00 | 00:00:00 | |
| DL1LOL-11 | 2026-09-01 11:58:47 | 52.83440 | 8.95315 | 96° | 58km/h | 4453m | -3.8m/s | -9.7°C | 82.1% | 590.9hPa | 2.7V | 00:00:00 | 00:00:00 | 00:00:00 | |
| DL1XH1-15 | 2026-09-01 11:58:44 | 52.83435 | 8.95148 | 74° | 53km/h | 4483m | -4m/s | -10°C | 86.9% | 588.5hPa | 2.7V | 07:40:19 | 02:24:36 | 00:00:00 | |
| BIOWL1-15 | 2026-09-01 11:58:43 | 52.83416 | 8.94981 | 87° | 62km/h | 4510m | -3.7m/s | -10.2°C | 89% | 586.6hPa | 2.7V | 07:41:16 | 02:24:29 | 00:00:00 | |
| DL1XH-15 | 2026-09-01 11:58:43 | 52.83432 | 8.95126 | 74° | 55km/h | 4487m | -3.9m/s | -10.1°C | 87% | 588.3hPa | 2.7V | 07:40:20 | 02:24:35 | 00:00:00 | |
| GOEST3-10 | 2026-09-01 11:58:43 | 52.83444 | 8.95228 | 90° | 49km/h | 4468m | -3.7m/s | -9.8°C | 86.5% | 589.7hPa | 2.7V | 00:00:00 | 02:24:40 | 00:00:00 | |
| DB0DAN | 2026-09-01 11:58:40 | 52.83438 | 8.95169 | 76° | 47km/h | 4479m | -3.8m/s | -10°C | 83.7% | 588.82hPa | 2.7V | 00:00:00 | 00:00:00 | 00:00:00 | |
| DL1XH-west | 2026-09-01 11:58:39 | 52.83432 | 8.95126 | 75° | 55km/h | 4487m | -3.9m/s | -10.1°C | 88.5% | 588.3hPa | 2.7V | 07:40:25 | 02:24:35 | 00:00:00 | |
| DO2JMG | 2026-09-01 11:58:39 | 52.83428 | 8.95104 | 75° | 55km/h | 4491m | -3.9m/s | -10.1°C | 88.8% | 588hPa | 2.7V | 07:40:25 | 02:24:34 | 00:00:00 | |
| DD8BA-10 | 2026-09-01 11:58:38 | 52.83432 | 8.95126 | 75° | 60km/h | 4487m | -3.9m/s | -10.0°C | 87.0% | 588.2hPa | 2.7V | 00:00:00 | 00:00:00 | 00:00:00 | |
| DL1XH-15 | 2026-09-01 11:58:37 | 52.83417 | 8.95007 | 84° | 62km/h | 4506m | -3.7m/s | -10.2°C | 87.4% | 586.8hPa | 2.7V | 07:40:25 | 02:24:30 | 00:00:00 | |
| DL1XH1-15 | 2026-09-01 11:58:34 | 52.83415 | 8.94903 | 90° | 62km/h | 4522m | -4.1m/s | -10.3°C | 88% | 585.6hPa | 2.6V | 07:40:29 | 02:24:26 | 00:00:00 | |
| DL4XJ-10 | 2026-09-01 11:58:34 | 52.83419 | 8.95032 | 82° | 57km/h | 4503m | -3.8m/s | -8.6°C | 0% | 0hPa | 2.7V | 00:00:00 | 00:00:00 | 00:00:00 | |
| BIOWL9-15 | 2026-09-01 11:58:33 | 52.83417 | 8.95007 | 84° | 62km/h | 4506m | -3.7m/s | -10.2°C | 84.1% | 586.8hPa | 2.7V | 00:00:00 | 00:00:00 | 00:00:00 | |
| DM0DOS-11 | 2026-09-01 11:58:32 | 52.83416 | 8.94851 | 92° | 60km/h | 4530m | -3.8m/s | -10.4°C | 88.3% | 585.1hPa | 2.7V | 07:40:31 | 02:24:24 | 00:00:00 | |
| AA1-15 | 2026-09-01 11:58:31 | 52.83415 | 8.94955 | 89° | 62km/h | 4514m | -3.8m/s | -10.3°C | 88.9% | 586.2hPa | 2.7V | 07:41:16 | 02:24:28 | 00:00:00 | |
| DL1XH1-15 | 2026-09-01 11:58:29 | 52.83419 | 8.94783 | 92° | 49km/h | 4541m | -4m/s | -10.5°C | 89.4% | 584.3hPa | 2.6V | 07:40:34 | 02:24:21 | 00:00:00 | |
| DL1XH-west | 2026-09-01 11:58:29 | 52.83415 | 8.94877 | 91° | 62km/h | 4526m | -3.9m/s | -10.4°C | 88.4% | 585.4hPa | 2.7V | 07:41:16 | 02:24:25 | 00:00:00 | |
| DO2JMG | 2026-09-01 11:58:27 | 52.83416 | 8.94851 | 93° | 60km/h | 4530m | -3.8m/s | -10.4°C | 88.3% | 585.1hPa | 2.7V | 07:42:07 | 02:24:24 | 00:00:00 | |
| DM0DOS-11 | 2026-09-01 11:58:27 | 52.83419 | 8.94743 | 86° | 46km/h | 4549m | -3.8m/s | -10.6°C | 89.6% | 583.7hPa | 2.7V | 07:40:36 | 02:24:19 | 00:00:00 | |
| GOEST3-10 | 2026-09-01 11:58:27 | 52.83416 | 8.94851 | 93° | 53km/h | 4530m | -3.7m/s | -10.3°C | 88.3% | 585.1hPa | 2.7V | 00:00:00 | 00:00:00 | 00:00:00 | |
| DO2LYB-13 | 2026-09-01 11:58:26 | 52.83416 | 8.94851 | 93° | 60km/h | 4530m | -3.8m/s | -10.4°C | 85.0% | 585.1hPa | 2.7V | 00:00:00 | 00:00:00 | 00:00:00 | |
| DL1XH1-15 | 2026-09-01 11:58:24 | 52.83413 | 8.94685 | 77° | 49km/h | 4560m | -3.8m/s | -10.7°C | 90.6% | 582.7hPa | 2.7V | 07:40:39 | 02:24:16 | 00:00:00 | |
| DJ2DS-15 | 2026-09-01 11:58:24 | 52.83419 | 8.94783 | 93° | 57km/h | 4541m | -3.9m/s | -10.4°C | 89.4% | 584.2hPa | 2.6V | 00:00:00 | 02:24:21 | 00:00:00 | |
| DL3AQ-11 | 2026-09-01 11:58:23 | 52.83418 | 8.94743 | 86° | 46km/h | 4549m | -3.8m/s | -10.6°C | 86.2% | 583.7hPa | 2.6V | 00:00:00 | 00:00:00 | 00:00:00 | |
| DM0DOS-11 | 2026-09-01 11:58:22 | 52.83407 | 8.94642 | 76° | 57km/h | 4568m | -3.6m/s | -10.8°C | 90.8% | 582.2hPa | 2.6V | 07:40:41 | 02:24:14 | 00:00:00 | |
| BIOWL1-15 | 2026-09-01 11:58:20 | 52.83416 | 8.94705 | 79° | 47km/h | 4556m | -3.8m/s | -10.6°C | 90.3% | 583hPa | 2.7V | 07:41:16 | 02:24:17 | 00:00:00 | |
| DL1XH-west | 2026-09-01 11:58:19 | 52.83410 | 8.94664 | 76° | 53km/h | 4564m | -3.8m/s | -10.8°C | 91.3% | 582.5hPa | 2.6V | 07:41:16 | 02:24:15 | 00:00:00 | |
| DO2JMG | 2026-09-01 11:58:17 | 52.83403 | 8.94619 | 77° | 60km/h | 4571m | -3.7m/s | -10.8°C | 92.1% | 581.9hPa | 2.7V | 07:42:07 | 02:24:13 | 00:00:00 | |
| DL4XJ-10 | 2026-09-01 11:58:14 | 52.83397 | 8.94568 | 80° | 58km/h | 4579m | -3.7m/s | -9.2°C | 0% | 0hPa | 2.7V | 00:00:00 | 00:00:00 | 00:00:00 | |
| SMARD9-10 | 2026-09-01 11:58:13 | 52.83397 | 8.94569 | 81° | 64km/h | 4579m | -3.8m/s | -10.9°C | 87.8% | 581.4hPa | 2.7V | 00:00:00 | 00:00:00 | 00:00:00 | |
| DM0DOS-11 | 2026-09-01 11:58:12 | 52.83386 | 8.94383 | 90° | 62km/h | 4606m | -3.7m/s | -11°C | 91.5% | 579.4hPa | 2.7V | 07:40:51 | 02:24:04 | 00:00:00 | |
| BIOWL1-15 | 2026-09-01 11:58:11 | 52.83387 | 8.94436 | 86° | 64km/h | 4598m | -3.9m/s | -11°C | 91.2% | 580hPa | 2.7V | 07:41:16 | 02:24:06 | 00:00:00 | |
| AA1-15 | 2026-09-01 11:58:10 | 52.83388 | 8.94463 | 85° | 64km/h | 4594m | -3.8m/s | -11°C | 91.7% | 580.2hPa | 2.7V | 07:41:16 | 02:24:07 | 00:00:00 | |
| DL1XH-15 | 2026-09-01 11:58:09 | 52.83387 | 8.94436 | 86° | 64km/h | 4598m | -3.9m/s | -11°C | 91.3% | 580hPa | 2.7V | 07:40:49 | 02:24:06 | 00:00:00 | |
| DL1XH-west | 2026-09-01 11:58:07 | 52.83386 | 8.94383 | 91° | 62km/h | 4606m | -3.7m/s | -11°C | 90.5% | 579.4hPa | 2.7V | 07:41:16 | 02:24:04 | 00:00:00 | |
| DM0DOS-11 | 2026-09-01 11:58:07 | 52.83390 | 8.94264 | 92° | 51km/h | 4624m | -3.7m/s | -11.1°C | 91.3% | 577.9hPa | 2.7V | 07:40:56 | 02:23:59 | 00:00:00 | |
| DO2JMG | 2026-09-01 11:58:06 | 52.83387 | 8.94333 | 94° | 58km/h | 4613m | -3.7m/s | -11°C | 90.3% | 578.7hPa | 2.6V | 07:42:07 | 02:24:02 | 00:00:00 | |
| DJ2DS-15 | 2026-09-01 11:58:04 | 52.83388 | 8.94309 | 95° | 57km/h | 4617m | -3.8m/s | -11.0°C | 91.6% | 578.4hPa | 2.7V | 00:00:00 | 02:24:01 | 00:00:00 | |
| DF5WG-10 | 2026-09-01 11:58:03 | 52.83389 | 8.94286 | 95° | 60km/h | 4621m | -3.8m/s | -11.0°C | 91.2% | 578.1hPa | 2.7V | 00:00:00 | 02:24:00 | 00:00:00 | |
| DM0DOS-11 | 2026-09-01 11:58:02 | 52.83381 | 8.94159 | 76° | 58km/h | 4642m | -3.9m/s | -11.4°C | 91.7% | 576.5hPa | 2.7V | 07:41:01 | 02:23:54 | 00:00:00 | |
| GOEST3-10 | 2026-09-01 11:58:02 | 52.83390 | 8.94264 | 93° | 49km/h | 4624m | -3.6m/s | -11.1°C | 91.3% | 577.8hPa | 2.6V | 00:00:00 | 02:23:59 | 00:00:00 | |
| SMARD9-15 | 2026-09-01 11:58:00 | 52.83389 | 8.94223 | 83° | 47km/h | 4632m | -3.8m/s | -11.2°C | 87.7% | 577.3hPa | 2.6V | 00:00:00 | 00:00:00 | 00:00:00 | |
| DL1XH1-15 | 2026-09-01 11:57:59 | 52.83387 | 8.94203 | 79° | 49km/h | 4635m | -3.6m/s | -11.3°C | 91.6% | 577hPa | 2.6V | 07:40:59 | 02:23:56 | 00:00:00 | |
| AA1-15 | 2026-09-01 11:57:59 | 52.83387 | 8.94203 | 79° | 49km/h | 4635m | -3.6m/s | -11.3°C | 91.7% | 577hPa | 2.6V | 07:41:16 | 02:23:56 | 00:00:00 | |
| BIOWL1-15 | 2026-09-01 11:57:58 | 52.83385 | 8.94182 | 77° | 53km/h | 4639m | -3.4m/s | -11.3°C | 92% | 576.8hPa | 2.7V | 07:41:16 | 02:23:55 | 00:00:00 | |
| DD8BA-10 | 2026-09-01 11:57:58 | 52.83384 | 8.94182 | 77° | 60km/h | 4639m | -3.4m/s | -11.3°C | 91.7% | 576.7hPa | 2.7V | 00:00:00 | 00:00:00 | 00:00:00 | |
| DM0DOS-11 | 2026-09-01 11:57:57 | 52.83368 | 8.94033 | 84° | 62km/h | 4662m | -3.7m/s | -11.5°C | 92.2% | 575.1hPa | 2.7V | 07:41:06 | 02:23:49 | 00:00:00 | |
| DL1XH-west | 2026-09-01 11:57:56 | 52.83378 | 8.94135 | 78° | 60km/h | 4646m | -3.8m/s | -11.4°C | 91.8% | 576.2hPa | 2.7V | 07:41:16 | 02:23:53 | 00:00:00 | |
| DO2JMG | 2026-09-01 11:57:55 | 52.83372 | 8.94085 | 80° | 62km/h | 4654m | -3.9m/s | -11.5°C | 91.9% | 575.6hPa | 2.6V | 07:42:07 | 02:23:51 | 00:00:00 | |
| DL4XJ-10 | 2026-09-01 11:57:55 | 52.83372 | 8.94085 | 80° | 60km/h | 4654m | -3.9m/s | -9.8°C | 0% | 0hPa | 2.6V | 00:00:00 | 00:00:00 | 00:00:00 | |
| DM0DOS-11 | 2026-09-01 11:57:52 | 52.83368 | 8.93907 | 93° | 58km/h | 4681m | -4m/s | -11.6°C | 93.3% | 573.6hPa | 2.6V | 07:41:11 | 02:23:44 | 00:00:00 | |
| BIOWL1-15 | 2026-09-01 11:57:48 | 52.83367 | 8.93931 | 92° | 58km/h | 4677m | -3.7m/s | -11.6°C | 91.9% | 573.9hPa | 2.6V | 07:41:16 | 02:23:45 | 00:00:00 | |
| DL3AQ-11 | 2026-09-01 11:57:48 | 52.83367 | 8.93907 | 93° | 57km/h | 4681m | -4.0m/s | -11.6°C | 89.7% | 573.6hPa | 2.6V | 00:00:00 | 00:00:00 | 00:00:00 | |
| DM0DOS-11 | 2026-09-01 11:57:47 | 52.83372 | 8.93785 | 92° | 60km/h | 4699m | -3.7m/s | -11.8°C | 95.5% | 572.2hPa | 2.6V | 07:41:16 | 02:23:39 | 00:00:00 | |
| DL1XH-west | 2026-09-01 11:57:46 | 52.83370 | 8.93835 | 94° | 58km/h | 4692m | -3.8m/s | -11.7°C | 93.4% | 572.8hPa | 2.7V | 07:41:16 | 02:23:41 | 00:00:00 | |
| DL1XH-15 | 2026-09-01 11:57:45 | 52.83370 | 8.93835 | 93° | 58km/h | 4692m | -3.8m/s | -11.7°C | 94.5% | 572.8hPa | 2.7V | 07:41:14 | 02:23:41 | 00:00:00 | |
| DJ2DS-15 | 2026-09-01 11:57:45 | 52.83370 | 8.93835 | 94° | 57km/h | 4692m | -3.7m/s | -11.7°C | 94.5% | 572.8hPa | 2.6V | 00:00:00 | 02:23:41 | 00:00:00 | |
| BUE01 | 2026-09-01 11:57:43 | 52.83372 | 8.93786 | 92° | 58km/h | 4699m | -3.7m/s | -11.8°C | 91.7% | 572.3hPa | 2.6V | 00:00:00 | 00:00:00 | 00:00:00 | |
| GOEST3-10 | 2026-09-01 11:57:42 | 52.83372 | 8.93786 | 93° | 62km/h | 4699m | -3.7m/s | -11.8°C | 95.5% | 572.2hPa | 2.6V | 00:00:00 | 02:23:39 | 00:00:00 | |
| DB0DAN | 2026-09-01 11:57:40 | 52.83372 | 8.93735 | 90° | 58km/h | 4707m | -3.8m/s | -11.9°C | 92.3% | 571.64hPa | 2.7V | 00:00:00 | 00:00:00 | 00:00:00 | |
| DM0DOS-11 | 2026-09-01 11:57:39 | 52.83371 | 8.93657 | 85° | 64km/h | 4718m | -3.7m/s | -12°C | 97.4% | 570.8hPa | 2.7V | 07:41:21 | 02:23:34 | 00:00:00 | |
| BIOWL1-15 | 2026-09-01 11:57:39 | 52.83371 | 8.93657 | 86° | 64km/h | 4718m | -3.7m/s | -12°C | 96.2% | 570.8hPa | 2.7V | 07:42:07 | 02:23:34 | 00:00:00 | |
| DO2JMG | 2026-09-01 11:57:39 | 52.83372 | 8.93683 | 87° | 62km/h | 4715m | -3.7m/s | -12°C | 95.8% | 571.2hPa | 2.7V | 07:42:07 | 02:23:35 | 00:00:00 | |
| DD8BA-10 | 2026-09-01 11:57:38 | 52.83371 | 8.93683 | 87° | 58km/h | 4715m | -3.7m/s | -11.9°C | 96.9% | 571.1hPa | 2.7V | 00:00:00 | 00:00:00 | 00:00:00 | |
| GOEST3-10 | 2026-09-01 11:57:37 | 52.83371 | 8.93657 | 86° | 62km/h | 4718m | -3.7m/s | -11.9°C | 97.4% | 570.8hPa | 2.7V | 07:41:00 | 00:00:00 | 00:00:00 | |
| DL8OAI-8 | 2026-09-01 11:57:36 | 52.83369 | 8.93630 | 87° | 64km/h | 4722m | -4.0m/s | -12.0°C | 93.4% | 570.6hPa | 2.7V | 07:42:00 | 00:00:00 | 00:00:00 | |
| DL1XH-15 | 2026-09-01 11:57:35 | 52.83368 | 8.93577 | 89° | 62km/h | 4730m | -3.8m/s | -12.1°C | 97.4% | 570hPa | 2.7V | 07:41:24 | 02:23:31 | 00:00:00 | |
| AA1-15 | 2026-09-01 11:57:34 | 52.83368 | 8.93552 | 92° | 60km/h | 4734m | -3.8m/s | -12.1°C | 96.5% | 569.7hPa | 2.7V | 07:43:49 | 02:23:30 | 00:00:00 | |
| DM0DOS-11 | 2026-09-01 11:57:34 | 52.83369 | 8.93527 | 93° | 57km/h | 4737m | -3.8m/s | -12.1°C | 98% | 569.4hPa | 2.7V | 07:41:26 | 02:23:29 | 00:00:00 | |
| DL1XH-west | 2026-09-01 11:57:34 | 52.83368 | 8.93577 | 89° | 62km/h | 4730m | -3.8m/s | -12.1°C | 96.4% | 570hPa | 2.7V | 07:42:07 | 02:23:31 | 00:00:00 | |
| BIOWL1-15 | 2026-09-01 11:57:27 | 52.83374 | 8.93420 | 94° | 49km/h | 4756m | -3.8m/s | -12.3°C | 97.9% | 568.1hPa | 2.7V | 07:42:07 | 02:23:24 | 00:00:00 | |
| DL1XH1-15 | 2026-09-01 11:57:26 | 52.83377 | 8.93359 | 97° | 51km/h | 4767m | -3.8m/s | -12.3°C | 99% | 567.2hPa | 2.6V | 07:41:34 | 02:23:21 | 00:00:00 | |
| DB0DAN | 2026-09-01 11:57:25 | 52.83376 | 8.93380 | 96° | 47km/h | 4763m | -3.8m/s | -12.3°C | 95.1% | 567.52hPa | 2.7V | 00:00:00 | 00:00:00 | 00:00:00 | |
| DL1XH-west | 2026-09-01 11:57:23 | 52.83379 | 8.93337 | 98° | 51km/h | 4771m | -3.6m/s | -12.4°C | 96% | 567hPa | 2.6V | 07:42:07 | 02:23:20 | 00:00:00 | |
| AA1-15 | 2026-09-01 11:57:22 | 52.83381 | 8.93316 | 99° | 51km/h | 4774m | -3.7m/s | -12.4°C | 95.8% | 566.6hPa | 2.7V | 07:43:49 | 02:23:19 | 00:00:00 | |
| DO2JMG | 2026-09-01 11:57:17 | 52.83384 | 8.93220 | 83° | 46km/h | 4793m | -3.7m/s | -12.6°C | 97.2% | 565.2hPa | 2.6V | 07:42:07 | 02:23:14 | 00:00:00 | |
| BIOWL1-15 | 2026-09-01 11:57:17 | 52.83375 | 8.93135 | 80° | 57km/h | 4808m | -3.6m/s | -12.7°C | 98.7% | 564.1hPa | 2.7V | 07:42:07 | 02:23:10 | 00:00:00 | |
| DL8OAI-8 | 2026-09-01 11:57:15 | 52.83382 | 8.93200 | 80° | 49km/h | 4797m | -3.7m/s | -12.6°C | 97.9% | 565.0hPa | 2.7V | 07:42:00 | 00:00:00 | 00:00:00 | |
| DL1XH1-15 | 2026-09-01 11:57:14 | 52.83377 | 8.93158 | 79° | 55km/h | 4804m | -3.7m/s | -12.7°C | 0% | 564.4hPa | 2.7V | 07:41:44 | 02:23:11 | 00:00:00 | |
| DL1XH1-15 | 2026-09-01 11:57:14 | 52.83367 | 8.93039 | 85° | 60km/h | 4823m | -3.8m/s | -12.7°C | 0% | 563hPa | 2.7V | 07:41:49 | 02:23:06 | 00:00:00 | |
| AA1-15 | 2026-09-01 11:57:13 | 52.83370 | 8.93088 | 82° | 58km/h | 4815m | -3.9m/s | -12.7°C | 99.1% | 563.6hPa | 2.6V | 07:43:49 | 02:23:08 | 00:00:00 | |
| DM0DOS-11 | 2026-09-01 11:57:12 | 52.83365 | 8.92964 | 90° | 60km/h | 4834m | -3.8m/s | -12.8°C | 0% | 562.2hPa | 2.6V | 07:41:52 | 02:23:03 | 00:00:00 | |
| GOEST3-10 | 2026-09-01 11:57:12 | 52.83372 | 8.93112 | 81° | 58km/h | 4811m | -3.7m/s | -12.7°C | 0% | 563.8hPa | 2.6V | 00:00:00 | 02:23:09 | 00:00:00 | |
| DB0DAN | 2026-09-01 11:57:10 | 52.83368 | 8.93064 | 84° | 57km/h | 4819m | -3.8m/s | -12.7°C | 97.3% | 563.32hPa | 2.7V | 00:00:00 | 00:00:00 | 00:00:00 | |
| DF5WG-10 | 2026-09-01 11:57:09 | 52.83367 | 8.93039 | 86° | 58km/h | 4823m | -3.8m/s | -12.7°C | 0% | 563.0hPa | 2.7V | 00:00:00 | 02:23:06 | 00:00:00 | |
| DL3AQ-11 | 2026-09-01 11:57:08 | 52.83365 | 8.92989 | 88° | 60km/h | 4830m | -3.7m/s | -12.7°C | 97.0% | 562.6hPa | 2.7V | 00:00:00 | 00:00:00 | 00:00:00 | |
| DL1XH-15 | 2026-09-01 11:57:07 | 52.83366 | 8.92914 | 93° | 58km/h | 4842m | -3.8m/s | -12.7°C | 0% | 561.6hPa | 2.7V | 07:41:54 | 02:23:01 | 00:00:00 | |
| DO2JMG | 2026-09-01 11:57:07 | 52.83365 | 8.92964 | 91° | 60km/h | 4834m | -3.8m/s | -12.8°C | 98.9% | 562.2hPa | 2.6V | 07:42:07 | 02:23:03 | 00:00:00 | |
| BIOWL1-15 | 2026-09-01 11:57:03 | 52.83367 | 8.92889 | 95° | 58km/h | 4845m | -3.8m/s | -12.7°C | 97.4% | 561.4hPa | 2.7V | 07:42:07 | 02:23:00 | 00:00:00 | |
| AA1-15 | 2026-09-01 11:57:02 | 52.83372 | 8.92822 | 99° | 49km/h | 4857m | -4.1m/s | -12.7°C | 94.6% | 560.6hPa | 2.6V | 07:43:49 | 02:22:57 | 00:00:00 | |
| DL1XH-west | 2026-09-01 11:57:01 | 52.83370 | 8.92843 | 98° | 53km/h | 4853m | -3.9m/s | -12.7°C | 95.4% | 560.8hPa | 2.6V | 07:42:07 | 02:22:58 | 00:00:00 | |
| DM0DOS-11 | 2026-09-01 11:57:00 | 52.83379 | 8.92746 | 95° | 44km/h | 4873m | -3.8m/s | -12.7°C | 96.5% | 559.3hPa | 2.7V | 07:42:02 | 02:22:53 | 00:00:00 | |
| DL1XH-15 | 2026-09-01 11:56:59 | 52.83374 | 8.92802 | 98° | 47km/h | 4861m | -4.1m/s | -12.7°C | 97.6% | 560.3hPa | 2.7V | 07:41:59 | 02:22:56 | 00:00:00 | |
| DO2JMG | 2026-09-01 11:56:57 | 52.83379 | 8.92746 | 96° | 44km/h | 4873m | -3.8m/s | -12.7°C | 93.4% | 559.3hPa | 2.7V | 07:42:07 | 02:22:53 | 00:00:00 | |
| DB0DAN | 2026-09-01 11:56:55 | 52.83380 | 8.92729 | 92° | 40km/h | 4876m | -3.8m/s | -12.7°C | 92.7% | 559.14hPa | 2.6V | 00:00:00 | 00:00:00 | 00:00:00 | |
| BIOWL1-15 | 2026-09-01 11:56:52 | 52.83378 | 8.92675 | 82° | 46km/h | 4888m | -3.6m/s | -12.8°C | 94.9% | 558.2hPa | 2.7V | 07:42:07 | 02:22:49 | 00:00:00 | |
| DM0DOS-11 | 2026-09-01 11:56:52 | 52.83376 | 8.92656 | 81° | 49km/h | 4891m | -3.8m/s | -12.8°C | 96.5% | 558hPa | 2.7V | 07:42:07 | 02:22:48 | 00:00:00 | |
| DM0DOS-11 | 2026-09-01 11:56:52 | 52.83365 | 8.92547 | 80° | 53km/h | 4910m | -4m/s | -13°C | 96.4% | 556.6hPa | 2.7V | 07:42:12 | 02:22:43 | 00:00:00 | |
| DL3AQ-11 | 2026-09-01 11:56:52 | 52.83376 | 8.92656 | 81° | 47km/h | 4891m | -3.8m/s | -12.8°C | 92.6% | 558.0hPa | 2.6V | 00:00:00 | 00:00:00 | 00:00:00 | |
| DL1XH1-15 | 2026-09-01 11:56:51 | 52.83372 | 8.92614 | 81° | 53km/h | 4899m | -3.7m/s | -12.9°C | 96.4% | 557.4hPa | 2.6V | 07:42:09 | 02:22:46 | 00:00:00 | |
| DL1XH-west | 2026-09-01 11:56:50 | 52.83374 | 8.92635 | 81° | 51km/h | 4895m | -3.8m/s | -12.9°C | 94.9% | 557.7hPa | 2.7V | 07:42:58 | 02:22:47 | 00:00:00 | |
| AA1-15 | 2026-09-01 11:56:49 | 52.83372 | 8.92614 | 81° | 53km/h | 4899m | -3.7m/s | -12.9°C | 94.8% | 557.4hPa | 2.6V | 07:43:49 | 02:22:46 | 00:00:00 | |
| DF5WG-10 | 2026-09-01 11:56:49 | 52.83372 | 8.92614 | 82° | 51km/h | 4899m | -3.7m/s | -12.8°C | 96.4% | 557.4hPa | 2.7V | 07:42:00 | 02:22:46 | 00:00:00 | |
| DD8BA-10 | 2026-09-01 11:56:48 | 52.83369 | 8.92592 | 82° | 51km/h | 4903m | -3.7m/s | -12.9°C | 96.7% | 557.1hPa | 2.7V | 00:00:00 | 00:00:00 | 00:00:00 | |
| GOEST3-10 | 2026-09-01 11:56:47 | 52.83367 | 8.92569 | 81° | 53km/h | 4906m | -3.7m/s | -12.9°C | 96.8% | 556.9hPa | 2.7V | 00:00:00 | 00:00:00 | 00:00:00 | |
| DM0DOS-11 | 2026-09-01 11:56:46 | 52.83351 | 8.92422 | 80° | 47km/h | 4933m | -3.8m/s | -13.1°C | 96.5% | 554.9hPa | 2.7V | 07:42:18 | 02:22:37 | 00:00:00 | |
| DO2JMG | 2026-09-01 11:56:45 | 52.83363 | 8.92526 | 80° | 51km/h | 4914m | -3.6m/s | -13°C | 95.8% | 556.4hPa | 2.7V | 07:42:58 | 02:22:42 | 00:00:00 | |
| BIOWL1-15 | 2026-09-01 11:56:42 | 52.83347 | 8.92350 | 89° | 40km/h | 4949m | -4.1m/s | -13.1°C | 93% | 553.8hPa | 2.7V | 07:42:58 | 02:22:33 | 00:00:00 | |
| GOEST3-10 | 2026-09-01 11:56:42 | 52.83356 | 8.92463 | 79° | 47km/h | 4926m | -3.9m/s | -13.0°C | 96.4% | 555.5hPa | 2.6V | 00:00:00 | 02:22:39 | 00:00:00 | |
| DM0DOS-11 | 2026-09-01 11:56:41 | 52.83346 | 8.92333 | 87° | 40km/h | 4953m | -4.3m/s | -13.2°C | 96.2% | 553.5hPa | 2.7V | 07:42:23 | 02:22:32 | 00:00:00 | |
| DB0DAN | 2026-09-01 11:56:40 | 52.83351 | 8.92422 | 80° | 46km/h | 4933m | -3.8m/s | -13.1°C | 92.5% | 554.89hPa | 2.7V | 00:00:00 | 00:00:00 | 00:00:00 | |
| DL1XH1-15 | 2026-09-01 11:56:40 | 52.83345 | 8.92299 | 81° | 42km/h | 4962m | -4.1m/s | -13.3°C | 97% | 552.8hPa | 2.7V | 07:42:25 | 02:22:30 | 00:00:00 | |
| DL1XH-west | 2026-09-01 11:56:39 | 52.83349 | 8.92403 | 82° | 46km/h | 4937m | -3.7m/s | -13.1°C | 94.3% | 554.7hPa | 2.7V | 07:42:58 | 02:22:36 | 00:00:00 | |
| AA1-15 | 2026-09-01 11:56:38 | 52.83348 | 8.92385 | 85° | 44km/h | 4941m | -3.8m/s | -13.1°C | 93.4% | 554.4hPa | 2.6V | 07:43:49 | 02:22:35 | 00:00:00 | |
| DD8BA-10 | 2026-09-01 11:56:38 | 52.83348 | 8.92384 | 86° | 46km/h | 4941m | -3.7m/s | -13.1°C | 96.0% | 554.3hPa | 2.7V | 00:00:00 | 00:00:00 | 00:00:00 | |
| GOEST3-10 | 2026-09-01 11:56:37 | 52.83347 | 8.92367 | 88° | 40km/h | 4945m | -4.0m/s | -13.1°C | 96.0% | 554.0hPa | 2.7V | 00:00:00 | 00:00:00 | 00:00:00 | |
| DM0DOS-11 | 2026-09-01 11:56:35 | 52.83337 | 8.92215 | 84° | 57km/h | 4977m | -3.7m/s | -13.5°C | 97.8% | 551.8hPa | 2.7V | 07:42:29 | 02:22:26 | 00:00:00 | |
| DO2JMG | 2026-09-01 11:56:34 | 52.83346 | 8.92316 | 85° | 40km/h | 4957m | -4.2m/s | -13.2°C | 93.5% | 553.1hPa | 2.7V | 07:42:58 | 02:22:31 | 00:00:00 | |
| BIOWL1-15 | 2026-09-01 11:56:31 | 52.83337 | 8.92215 | 84° | 57km/h | 4977m | -3.7m/s | -13.5°C | 96% | 551.8hPa | 2.7V | 07:42:58 | 02:22:26 | 00:00:00 | |
| DL1XH-west | 2026-09-01 11:56:28 | 52.83336 | 8.92191 | 86° | 58km/h | 4981m | -3.9m/s | -13.5°C | 96.3% | 551.5hPa | 2.7V | 07:42:58 | 02:22:25 | 00:00:00 | |
| DC6BW-12 | 2026-09-01 11:56:28 | 52.83336 | 8.92191 | 87° | 58km/h | 4981m | -3.9m/s | -13.5°C | 93.9% | 551.5hPa | 2.7V | 07:42:00 | 00:00:00 | 00:00:00 | |
| DL1XH-15 | 2026-09-01 11:56:27 | 52.83331 | 8.92093 | 82° | 58km/h | 4997m | -4.1m/s | -13.6°C | 97.8% | 550.4hPa | 2.7V | 07:42:34 | 02:22:21 | 00:00:00 | |
| AA1-15 | 2026-09-01 11:56:27 | 52.83335 | 8.92166 | 87° | 60km/h | 4985m | -3.9m/s | -13.5°C | 96.5% | 551.2hPa | 2.7V | 07:43:49 | 02:22:24 | 00:00:00 | |
| DO2JMG | 2026-09-01 11:56:23 | 52.83329 | 8.92069 | 81° | 57km/h | 5001m | -4m/s | -13.6°C | 95.9% | 550hPa | 2.7V | 07:42:58 | 02:22:20 | 00:00:00 | |
| GOEST3-10 | 2026-09-01 11:56:22 | 52.83326 | 8.92046 | 79° | 53km/h | 5005m | -3.9m/s | -13.6°C | 97.5% | 549.7hPa | 2.7V | 00:00:00 | 02:22:19 | 00:00:00 | |
| DO9LL-15 | 2026-09-01 11:56:20 | 52.83320 | 8.92002 | 77° | 49km/h | 5013m | -4.0m/s | -13.6°C | 96.9% | 549.1hPa | 2.7V | 00:00:00 | 02:22:17 | 00:00:00 | |
| DM0DOS-11 | 2026-09-01 11:56:19 | 52.83311 | 8.91922 | 86° | 44km/h | 5029m | -3.8m/s | -13.7°C | 96.2% | 548hPa | 2.7V | 07:42:42 | 02:22:13 | 00:00:00 | |
| DF5WG-10 | 2026-09-01 11:56:19 | 52.83317 | 8.91980 | 77° | 44km/h | 5017m | -4.1m/s | -13.6°C | 97.5% | 548.8hPa | 2.6V | 00:00:00 | 02:22:16 | 00:00:00 | |
| DL1XH-15 | 2026-09-01 11:56:18 | 52.83311 | 8.91903 | 91° | 44km/h | 5033m | -3.7m/s | -13.8°C | 96.5% | 547.8hPa | 2.6V | 07:42:43 | 02:22:12 | 00:00:00 | |
| DL1XH-west | 2026-09-01 11:56:18 | 52.83313 | 8.91941 | 81° | 46km/h | 5025m | -4m/s | -13.7°C | 94.3% | 548.4hPa | 2.7V | 07:42:58 | 02:22:14 | 00:00:00 | |
| AA1-15 | 2026-09-01 11:56:16 | 52.83311 | 8.91922 | 87° | 44km/h | 5029m | -3.8m/s | -13.7°C | 94.6% | 548hPa | 2.7V | 07:43:49 | 02:22:13 | 00:00:00 | |
| DO2JMG | 2026-09-01 11:56:14 | 52.83312 | 8.91867 | 95° | 44km/h | 5041m | -4.1m/s | -13.8°C | 94.7% | 547.2hPa | 2.7V | 07:42:58 | 02:22:10 | 00:00:00 | |
| SONCRA | 2026-09-01 11:56:12 | 52.83313 | 8.91832 | 88° | 40km/h | 5049m | -4.0m/s | 0°C | -1.0% | 546.6hPa | 2.7V | 00:00:00 | 00:00:00 | 00:00:00 | |
| DL1XH-15 | 2026-09-01 11:56:11 | 52.83301 | 8.91720 | 77° | 53km/h | 5073m | -4.1m/s | -14.2°C | 98.6% | 544.9hPa | 2.7V | 07:42:53 | 02:22:02 | 00:00:00 | |
| DB0DAN | 2026-09-01 11:56:10 | 52.83313 | 8.91815 | 84° | 40km/h | 5053m | -4.2m/s | -13.9°C | 93.1% | 546.32hPa | 2.7V | 00:00:00 | 00:00:00 | 00:00:00 | |
| BIOWL1-15 | 2026-09-01 11:56:10 | 52.83294 | 8.91650 | 85° | 60km/h | 5085m | -4.1m/s | -14.3°C | 96.7% | 543.9hPa | 2.7V | 07:42:58 | 02:21:59 | 00:00:00 | |
| DL1XH-west | 2026-09-01 11:56:06 | 52.83304 | 8.91741 | 77° | 49km/h | 5069m | -3.9m/s | -14.1°C | 96.4% | 545.1hPa | 2.7V | 07:42:58 | 02:22:03 | 00:00:00 | |
| AA1-15 | 2026-09-01 11:56:06 | 52.83301 | 8.91720 | 77° | 53km/h | 5073m | -4.1m/s | -14.2°C | 96.6% | 544.9hPa | 2.7V | 07:43:49 | 02:22:02 | 00:00:00 | |
| DO2JMG | 2026-09-01 11:56:03 | 52.83296 | 8.91675 | 82° | 58km/h | 5081m | -4m/s | -14.2°C | 96.6% | 544.2hPa | 2.6V | 07:42:58 | 02:22:00 | 00:00:00 | |
| GOEST3-10 | 2026-09-01 11:56:02 | 52.83294 | 8.91650 | 85° | 58km/h | 5085m | -4.0m/s | -14.2°C | 0% | 543.9hPa | 2.7V | 00:00:00 | 02:21:59 | 00:00:00 | |
| SMARD9-10 | 2026-09-01 11:56:01 | 52.83293 | 8.91625 | 90° | 60km/h | 5089m | -4.1m/s | -14.2°C | 95.6% | 543.7hPa | 2.7V | 00:00:00 | 00:00:00 | 00:00:00 | |
| DM0DOS-11 | 2026-09-01 11:55:59 | 52.83298 | 8.91512 | 95° | 47km/h | 5108m | -4m/s | -14.4°C | 99.7% | 542.3hPa | 2.7V | 07:43:02 | 02:21:53 | 00:00:00 | |
| BIOWL1-15 | 2026-09-01 11:55:59 | 52.83301 | 8.91400 | 87° | 44km/h | 5132m | -3.9m/s | -14.6°C | 95.9% | 540.7hPa | 2.7V | 07:43:49 | 02:21:47 | 00:00:00 | |
| DL3AQ-11 | 2026-09-01 11:55:59 | 52.83295 | 8.91554 | 95° | 51km/h | 5101m | -4.0m/s | -14.3°C | 96.1% | 542.8hPa | 2.6V | 00:00:00 | 00:00:00 | 00:00:00 | |
| DD8BA-10 | 2026-09-01 11:55:58 | 52.83295 | 8.91553 | 96° | 46km/h | 5101m | -4.0m/s | -14.3°C | 0% | 542.7hPa | 2.6V | 00:00:00 | 00:00:00 | 00:00:00 | |
| DL1XH-15 | 2026-09-01 11:55:57 | 52.83299 | 8.91492 | 94° | 46km/h | 5112m | -4m/s | -14.4°C | 99.7% | 542hPa | 2.7V | 07:43:03 | 02:21:52 | 00:00:00 | |
| DL1XH-west | 2026-09-01 11:55:56 | 52.83298 | 8.91512 | 96° | 47km/h | 5108m | -4m/s | -14.4°C | 95.3% | 542.3hPa | 2.7V | 07:43:49 | 02:21:53 | 00:00:00 | |
| AA1-15 | 2026-09-01 11:55:55 | 52.83299 | 8.91492 | 95° | 46km/h | 5112m | -4m/s | -14.4°C | 95.1% | 542hPa | 2.7V | 07:43:49 | 02:21:52 | 00:00:00 | |
| DO2JMG | 2026-09-01 11:55:52 | 52.83301 | 8.91436 | 92° | 44km/h | 5124m | -4m/s | -14.5°C | 95.7% | 541.2hPa | 2.6V | 07:43:49 | 02:21:49 | 00:00:00 | |
| GOEST3-10 | 2026-09-01 11:55:52 | 52.83301 | 8.91436 | 92° | 44km/h | 5124m | -3.9m/s | -14.5°C | 0% | 541.1hPa | 2.6V | 00:00:00 | 02:21:49 | 00:00:00 | |
| DO9LL-15 | 2026-09-01 11:55:50 | 52.83301 | 8.91400 | 88° | 53km/h | 5132m | -3.8m/s | -14.5°C | 0% | 540.6hPa | 2.6V | 00:00:00 | 02:21:47 | 00:00:00 | |
| DM0DOS-11 | 2026-09-01 11:55:49 | 52.83295 | 8.91325 | 79° | 47km/h | 5148m | -3.9m/s | -14.6°C | 99.6% | 539.5hPa | 2.6V | 07:43:12 | 02:21:43 | 00:00:00 | |
| DL3AQ-11 | 2026-09-01 11:55:48 | 52.83297 | 8.91344 | 80° | 46km/h | 5144m | -3.8m/s | -14.6°C | 95.8% | 539.8hPa | 2.7V | 00:00:00 | 00:00:00 | 00:00:00 | |
| DL1XH-15 | 2026-09-01 11:55:47 | 52.83293 | 8.91305 | 76° | 49km/h | 5152m | -3.8m/s | -14.6°C | 99.3% | 539.3hPa | 2.7V | 07:43:13 | 02:21:42 | 00:00:00 | |
| DL1XH-west | 2026-09-01 11:55:45 | 52.83293 | 8.91305 | 77° | 49km/h | 5152m | -3.8m/s | -14.6°C | 95.5% | 539.3hPa | 2.7V | 07:43:49 | 02:21:42 | 00:00:00 | |
| HTAHTA | 2026-09-01 11:55:44 | 52.83290 | 8.91284 | 76° | 51km/h | 5156m | -3.9m/s | -14.6°C | 95.0% | 539.0hPa | 2.7V | 00:00:00 | 00:00:00 | 00:00:00 | |
| AA1-15 | 2026-09-01 11:55:42 | 52.83283 | 8.91242 | 75° | 51km/h | 5163m | -3.8m/s | -14.6°C | 96.3% | 538.4hPa | 2.7V | 07:43:49 | 02:21:39 | 00:00:00 | |
| GOEST3-10 | 2026-09-01 11:55:42 | 52.83300 | 8.91242 | 76° | 51km/h | 5164m | -3.8m/s | -14.6°C | 99.4% | 538.3hPa | 2.7V | 00:00:00 | 02:21:39 | 00:00:00 | |
| DB0DAN | 2026-09-01 11:55:40 | 52.83277 | 8.91201 | 75° | 47km/h | 5171m | -3.9m/s | -14.7°C | 94.8% | 537.81hPa | 2.6V | 00:00:00 | 00:00:00 | 00:00:00 | |
| SONCRA | 2026-09-01 11:55:40 | 52.83273 | 8.91181 | 74° | 49km/h | 5175m | -4.2m/s | 0°C | -1.0% | -1.0hPa | 2.6V | 00:00:00 | 00:00:00 | 00:00:00 | |
| DM0DOS-11 | 2026-09-01 11:55:39 | 52.83262 | 8.91120 | 71° | 55km/h | 5187m | -4m/s | -14.8°C | 98.9% | 536.7hPa | 2.6V | 07:43:22 | 02:21:33 | 00:00:00 | |
| DF5WG-10 | 2026-09-01 11:55:39 | 52.83273 | 8.91181 | 75° | 57km/h | 5175m | -4.1m/s | -14.6°C | 99.1% | 537.5hPa | 2.6V | 00:00:00 | 02:21:36 | 00:00:00 | |
| DJ2DS-15 | 2026-09-01 11:55:38 | 52.83266 | 8.91141 | 72° | 51km/h | 5183m | -3.9m/s | -14.7°C | 94.4% | 537.0hPa | 2.6V | 00:00:00 | 00:00:00 | 00:00:00 | |
| GOEST3-10 | 2026-09-01 11:55:37 | 52.83266 | 8.91141 | 73° | 57km/h | 5183m | -3.9m/s | -14.7°C | 98.7% | 537.0hPa | 2.6V | 07:43:00 | 00:00:00 | 00:00:00 | |
| DL1XH-15 | 2026-09-01 11:55:36 | 52.83258 | 8.91098 | 72° | 57km/h | 5191m | -4m/s | -14.8°C | 99% | 536.3hPa | 2.6V | 07:43:23 | 02:21:32 | 00:00:00 | |
| DL1XH-west | 2026-09-01 11:55:35 | 52.83258 | 8.91098 | 73° | 57km/h | 5191m | -4m/s | -14.8°C | 96.3% | 536.3hPa | 2.6V | 07:43:49 | 02:21:32 | 00:00:00 | |
| DL4XJ-10 | 2026-09-01 11:55:34 | 52.83253 | 8.91074 | 74° | 57km/h | 5195m | -3.9m/s | -13.2°C | 0% | 0hPa | 2.7V | 00:00:00 | 00:00:00 | 00:00:00 | |
| DL1XH1-15 | 2026-09-01 11:55:33 | 52.83241 | 8.90932 | 86° | 51km/h | 5218m | -3.9m/s | -14.9°C | 99.1% | 534.5hPa | 2.7V | 07:43:30 | 02:21:25 | 00:00:00 | |
| AA1-15 | 2026-09-01 11:55:32 | 52.83246 | 8.91025 | 79° | 62km/h | 5203m | -3.9m/s | -14.8°C | 95% | 535.5hPa | 2.7V | 07:43:49 | 02:21:29 | 00:00:00 | |
| BIOWL7-15 | 2026-09-01 11:55:31 | 52.83246 | 8.91025 | 80° | 62km/h | 5203m | -3.9m/s | -14.8°C | 94.6% | 535.5hPa | 2.7V | 00:00:00 | 00:00:00 | 00:00:00 | |
| DM0DOS-11 | 2026-09-01 11:55:29 | 52.83239 | 8.90888 | 86° | 53km/h | 5225m | -3.8m/s | -14.9°C | 99.2% | 534hPa | 2.7V | 07:43:32 | 02:21:23 | 00:00:00 | |
| DF5WG-10 | 2026-09-01 11:55:29 | 52.83241 | 8.90953 | 88° | 57km/h | 5214m | -3.7m/s | -14.8°C | 98.9% | 534.8hPa | 2.6V | 07:43:00 | 02:21:26 | 00:00:00 | |
| DD8BA-10 | 2026-09-01 11:55:28 | 52.83241 | 8.90932 | 87° | 55km/h | 5218m | -3.9m/s | -14.9°C | 99.1% | 534.5hPa | 2.7V | 00:00:00 | 00:00:00 | 00:00:00 | |
| GOEST3-10 | 2026-09-01 11:55:27 | 52.83240 | 8.90910 | 87° | 55km/h | 5222m | -3.9m/s | -14.8°C | 98.8% | 534.3hPa | 2.7V | 00:00:00 | 00:00:00 | 00:00:00 | |
| DL1XH-15 | 2026-09-01 11:55:26 | 52.83239 | 8.90866 | 87° | 53km/h | 5229m | -3.7m/s | -14.9°C | 98.9% | 533.8hPa | 2.6V | 07:43:33 | 02:21:22 | 00:00:00 | |
| DF8AY | 2026-09-01 11:55:26 | 52.83239 | 8.90888 | 87° | 53km/h | 5225m | -3.8m/s | 0°C | 0% | 0hPa | 2.7V | 07:43:49 | 02:21:23 | 00:00:00 | |
| BIOWL1-15 | 2026-09-01 11:55:24 | 52.83236 | 8.90796 | 87° | 58km/h | 5240m | -3.8m/s | -14.9°C | 94.4% | 532.9hPa | 2.7V | 07:43:49 | 02:21:19 | 00:00:00 | |
| DL1XH-west | 2026-09-01 11:55:24 | 52.83238 | 8.90843 | 87° | 57km/h | 5233m | -3.7m/s | -14.9°C | 94.8% | 533.5hPa | 2.6V | 07:43:49 | 02:21:21 | 00:00:00 | |
| AA1-15 | 2026-09-01 11:55:21 | 52.83236 | 8.90772 | 87° | 58km/h | 5244m | -3.7m/s | -15°C | 93.9% | 532.7hPa | 2.7V | 07:43:49 | 02:21:18 | 00:00:00 | |
| DL1XH1-15 | 2026-09-01 11:55:20 | 52.83234 | 8.90698 | 87° | 57km/h | 5256m | -3.9m/s | -15°C | 96.5% | 531.8hPa | 2.6V | 07:43:40 | 02:21:15 | 00:00:00 | |
| DO9LL-15 | 2026-09-01 11:55:20 | 52.83235 | 8.90747 | 88° | 58km/h | 5248m | -3.9m/s | -14.9°C | 97.3% | 532.4hPa | 2.7V | 00:00:00 | 02:21:17 | 00:00:00 | |
| DM0DOS-11 | 2026-09-01 11:55:19 | 52.83232 | 8.90654 | 86° | 51km/h | 5264m | -3.7m/s | -15°C | 94.6% | 531.3hPa | 2.7V | 07:43:42 | 02:21:13 | 00:00:00 | |
| DL1XH-west | 2026-09-01 11:55:14 | 52.83229 | 8.90613 | 80° | 47km/h | 5271m | -3.8m/s | -15°C | 89.4% | 530.8hPa | 2.6V | 07:43:49 | 02:21:11 | 00:00:00 | |
| DL4XJ-10 | 2026-09-01 11:55:14 | 52.83229 | 8.90613 | 80° | 60km/h | 5272m | -3.7m/s | -13.4°C | 0% | 0hPa | 2.6V | 00:00:00 | 00:00:00 | 00:00:00 | |
| DL1XH1-15 | 2026-09-01 11:55:13 | 52.83205 | 8.90496 | 67° | 57km/h | 5295m | -4m/s | -15.1°C | 92.3% | 529hPa | 2.6V | 07:43:50 | 02:21:05 | 00:00:00 | |
| DO2JMG | 2026-09-01 11:55:11 | 52.83220 | 8.90557 | 70° | 49km/h | 5283m | -3.9m/s | -15.1°C | 89.5% | 530hPa | 2.7V | 07:43:49 | 02:21:08 | 00:00:00 | |
| BIOWL1-15 | 2026-09-01 11:55:11 | 52.83194 | 8.90450 | 71° | 62km/h | 5303m | -3.9m/s | -15.2°C | 91% | 528.6hPa | 2.7V | 07:44:40 | 02:21:03 | 00:00:00 | |
| DB0DAN | 2026-09-01 11:55:10 | 52.83215 | 8.90537 | 68° | 49km/h | 5287m | -4.1m/s | -15.1°C | 88.5% | 529.7hPa | 2.7V | 00:00:00 | 00:00:00 | 00:00:00 | |
| AA1-15 | 2026-09-01 11:55:08 | 52.83205 | 8.90496 | 67° | 57km/h | 5295m | -4m/s | -15.1°C | 90.1% | 529.1hPa | 2.6V | 07:44:40 | 02:21:05 | 00:00:00 | |
| DF8AY | 2026-09-01 11:55:05 | 52.83189 | 8.90425 | 74° | 64km/h | 5307m | -3.7m/s | 0°C | 0% | 0hPa | 2.7V | 18:12:15 | 02:21:02 | 00:00:00 | |
| DL1XH-west | 2026-09-01 11:55:04 | 52.83185 | 8.90399 | 78° | 64km/h | 5310m | -3.6m/s | -15.2°C | 91.3% | 528hPa | 2.7V | 07:44:40 | 02:21:01 | 00:00:00 | |
| DO2JMG | 2026-09-01 11:55:01 | 52.83177 | 8.90320 | 82° | 64km/h | 5321m | -3.7m/s | -15.2°C | 91.4% | 527.3hPa | 2.7V | 07:44:40 | 02:20:58 | 00:00:00 | |
| DL1XH1-15 | 2026-09-01 11:55:00 | 52.83169 | 8.90240 | 78° | 66km/h | 5333m | -3.6m/s | -15.3°C | 91.7% | 526.5hPa | 2.7V | 07:44:00 | 02:20:55 | 00:00:00 | |
| BIOWL1-15 | 2026-09-01 11:54:59 | 52.83172 | 8.90267 | 81° | 66km/h | 5329m | -3.9m/s | -15.3°C | 91.2% | 526.7hPa | 2.7V | 07:44:40 | 02:20:56 | 00:00:00 | |
| AA1-15 | 2026-09-01 11:54:57 | 52.83166 | 8.90213 | 77° | 68km/h | 5336m | -3.7m/s | -15.4°C | 90.7% | 526.3hPa | 2.6V | 07:44:40 | 02:20:54 | 00:00:00 | |
| GOEST3-10 | 2026-09-01 11:54:57 | 52.83166 | 8.90212 | 78° | 68km/h | 5336m | -3.6m/s | -15.3°C | 92.3% | 526.3hPa | 2.6V | 07:44:00 | 00:00:00 | 00:00:00 | |
| DL1XH-15 | 2026-09-01 11:54:56 | 52.83158 | 8.90157 | 78° | 68km/h | 5344m | -4m/s | -15.4°C | 92.2% | 525.7hPa | 2.7V | 07:44:03 | 02:20:52 | 00:00:00 | |
| DB0DAN | 2026-09-01 11:54:55 | 52.83158 | 8.90157 | 78° | 64km/h | 5344m | -4m/s | -15.4°C | 88.1% | 525.69hPa | 2.7V | 00:00:00 | 00:00:00 | 00:00:00 | |
| DF8AY | 2026-09-01 11:54:55 | 52.83155 | 8.90130 | 81° | 68km/h | 5348m | -4.1m/s | 0°C | 0% | 0hPa | 2.7V | 18:12:15 | 02:20:51 | 00:00:00 | |
| DL1XH-west | 2026-09-01 11:54:53 | 52.83153 | 8.90102 | 83° | 66km/h | 5352m | -4m/s | -15.4°C | 88.9% | 525.1hPa | 2.7V | 07:44:40 | 02:20:50 | 00:00:00 | |
| DO2JMG | 2026-09-01 11:54:50 | 52.83149 | 8.90023 | 87° | 60km/h | 5364m | -4.1m/s | -15.5°C | 89% | 524.3hPa | 2.7V | 07:44:40 | 02:20:47 | 00:00:00 | |
| DO9LL-15 | 2026-09-01 11:54:50 | 52.83149 | 8.90023 | 88° | 57km/h | 5364m | -4.0m/s | -15.4°C | 93.0% | 524.2hPa | 2.6V | 00:00:00 | 02:20:47 | 00:00:00 | |
| DM0DOS-11 | 2026-09-01 11:54:49 | 52.83142 | 8.89931 | 75° | 51km/h | 5379m | -3.6m/s | -15.7°C | 94.1% | 523.2hPa | 2.6V | 07:44:12 | 02:20:43 | 00:00:00 | |
| BIOWL1-15 | 2026-09-01 11:54:49 | 52.83148 | 8.89998 | 87° | 58km/h | 5368m | -4.1m/s | -15.6°C | 90.1% | 524hPa | 2.7V | 07:44:40 | 02:20:46 | 00:00:00 | |
| AA1-15 | 2026-09-01 11:54:46 | 52.83143 | 8.89931 | 75° | 51km/h | 5380m | -3.6m/s | -15.7°C | 91.6% | 523.2hPa | 2.6V | 07:44:40 | 02:20:43 | 00:00:00 | |
| DL1XH-west | 2026-09-01 11:54:43 | 52.83130 | 8.89868 | 69° | 53km/h | 5391m | -4m/s | -15.8°C | 92.1% | 522.4hPa | 2.7V | 07:44:40 | 02:20:40 | 00:00:00 | |
| DO2JMG | 2026-09-01 11:54:40 | 52.83116 | 8.89807 | 75° | 51km/h | 5403m | -4.1m/s | -15.9°C | 91.6% | 521.7hPa | 2.6V | 07:44:40 | 02:20:37 | 00:00:00 | |
| BIOWL1-15 | 2026-09-01 11:54:38 | 52.83106 | 8.89648 | 87° | 58km/h | 5429m | -3.5m/s | -16.1°C | 91.1% | 519.9hPa | 2.6V | 07:44:40 | 02:20:30 | 00:00:00 | |
| DM0DOS-11 | 2026-09-01 11:54:38 | 52.83109 | 8.89721 | 85° | 57km/h | 5418m | -3.7m/s | -16°C | 94.1% | 520.6hPa | 2.7V | 07:44:22 | 02:20:33 | 00:00:00 | |
| AA1-15 | 2026-09-01 11:54:35 | 52.83107 | 8.89697 | 86° | 58km/h | 5422m | -3.7m/s | -16°C | 91.1% | 520.3hPa | 2.6V | 07:44:40 | 02:20:32 | 00:00:00 | |
| DL1XH-west | 2026-09-01 11:54:32 | 52.83105 | 8.89623 | 86° | 60km/h | 5433m | -3.7m/s | -16.1°C | 90.9% | 519.6hPa | 2.7V | 07:44:40 | 02:20:29 | 00:00:00 | |
| DF8AY | 2026-09-01 11:54:31 | 52.83104 | 8.89598 | 87° | 60km/h | 5436m | -3.9m/s | 0°C | 0% | 0hPa | 2.7V | 18:12:15 | 02:20:28 | 00:00:00 | |
| DO2JMG | 2026-09-01 11:54:29 | 52.83102 | 8.89549 | 87° | 60km/h | 5444m | -3.7m/s | -16.2°C | 91% | 518.8hPa | 2.7V | 07:44:40 | 02:20:26 | 00:00:00 | |
| BIOWL1-15 | 2026-09-01 11:54:29 | 52.83101 | 8.89499 | 88° | 58km/h | 5452m | -4.1m/s | -16.2°C | 91.2% | 518.2hPa | 2.6V | 07:44:40 | 02:20:24 | 00:00:00 | |
| DD8BA-10 | 2026-09-01 11:54:28 | 52.83101 | 8.89524 | 88° | 60km/h | 5448m | -3.8m/s | -16.1°C | 94.8% | 518.6hPa | 2.7V | 00:00:00 | 00:00:00 | 00:00:00 | |
| DM0DOS-11 | 2026-09-01 11:54:27 | 52.83100 | 8.89474 | 88° | 60km/h | 5456m | -4m/s | -16.2°C | 95.5% | 518hPa | 2.6V | 07:44:32 | 02:20:23 | 00:00:00 | |
| GOEST3-10 | 2026-09-01 11:54:27 | 52.83101 | 8.89499 | 88° | 60km/h | 5452m | -4.0m/s | -16.2°C | 95.1% | 518.2hPa | 2.6V | 00:00:00 | 00:00:00 | 00:00:00 | |
| DB0DAN | 2026-09-01 11:54:25 | 52.83100 | 8.89449 | 89° | 58km/h | 5460m | -3.9m/s | -16.3°C | 91.2% | 517.69hPa | 2.6V | 00:00:00 | 00:00:00 | 00:00:00 | |
| AA1-15 | 2026-09-01 11:54:24 | 52.83099 | 8.89344 | 90° | 62km/h | 5475m | -3.9m/s | -16.2°C | 89.6% | 516.6hPa | 2.7V | 07:44:40 | 02:20:18 | 00:00:00 | |
| DL1XH-west | 2026-09-01 11:54:22 | 52.83099 | 8.89371 | 89° | 64km/h | 5471m | -3.9m/s | -16.3°C | 90.3% | 516.9hPa | 2.7V | 07:44:40 | 02:20:19 | 00:00:00 | |
| DM0DOS-11 | 2026-09-01 11:54:22 | 52.83097 | 8.89223 | 87° | 55km/h | 5494m | -3.9m/s | -16.3°C | 92.4% | 515.3hPa | 2.7V | 07:44:42 | 02:20:13 | 00:00:00 | |
| DL1XH1-15 | 2026-09-01 11:54:21 | 52.83098 | 8.89270 | 89° | 57km/h | 5486m | -3.8m/s | -16.3°C | 93.9% | 515.9hPa | 2.7V | 07:44:40 | 02:20:15 | 00:00:00 | |
| DF8AY | 2026-09-01 11:54:19 | 52.83098 | 8.89294 | 90° | 58km/h | 5483m | -3.8m/s | 0°C | 0% | 0hPa | 2.6V | 18:12:15 | 02:20:16 | 00:00:00 | |
| BIOWL1-15 | 2026-09-01 11:54:19 | 52.83098 | 8.89246 | 89° | 57km/h | 5490m | -3.7m/s | -16.3°C | 90% | 515.6hPa | 2.7V | 07:45:31 | 02:20:14 | 00:00:00 | |
| DD8BA-10 | 2026-09-01 11:54:18 | 52.83098 | 8.89270 | 90° | 57km/h | 5486m | -3.7m/s | -16.2°C | 93.9% | 515.9hPa | 2.7V | 07:44:00 | 00:00:00 | 00:00:00 | |
| GOEST3-10 | 2026-09-01 11:54:17 | 52.83098 | 8.89246 | 89° | 55km/h | 5490m | -3.7m/s | -16.2°C | 93.6% | 515.5hPa | 2.7V | 07:44:00 | 00:00:00 | 00:00:00 | |
| BIOWL7-15 | 2026-09-01 11:54:16 | 52.83097 | 8.89223 | 89° | 55km/h | 5494m | -3.9m/s | -16.3°C | 88.1% | 515.3hPa | 2.7V | 00:00:00 | 00:00:00 | 00:00:00 | |
| DL4XJ-10 | 2026-09-01 11:54:14 | 52.83097 | 8.89178 | 89° | 57km/h | 5502m | -3.8m/s | -14.6°C | 0% | 0hPa | 2.7V | 00:00:00 | 00:00:00 | 00:00:00 | |
| DL1XH1-15 | 2026-09-01 11:54:13 | 52.83100 | 8.89035 | 94° | 62km/h | 5525m | -4.1m/s | -16.2°C | 87.6% | 513.2hPa | 2.7V | 07:44:50 | 02:20:05 | 00:00:00 | |
| DL1XH-west | 2026-09-01 11:54:12 | 52.83096 | 8.89133 | 91° | 55km/h | 5510m | -4m/s | -16.2°C | 87.9% | 514.3hPa | 2.6V | 07:45:31 | 02:20:09 | 00:00:00 | |
| DB0DAN | 2026-09-01 11:54:10 | 52.83098 | 8.89085 | 93° | 57km/h | 5517m | -4m/s | -16.2°C | 84.8% | 513.74hPa | 2.7V | 00:00:00 | 00:00:00 | 00:00:00 | |
| AA1-15 | 2026-09-01 11:54:10 | 52.83098 | 8.89060 | 94° | 62km/h | 5521m | -4.1m/s | -16.2°C | 86.5% | 513.4hPa | 2.7V | 07:45:31 | 02:20:06 | 00:00:00 | |
| DO2JMG | 2026-09-01 11:54:08 | 52.83100 | 8.89035 | 95° | 62km/h | 5525m | -4.1m/s | -16.2°C | 85.6% | 513.2hPa | 2.7V | 07:45:31 | 02:20:05 | 00:00:00 | |
| DD8BA-10 | 2026-09-01 11:54:08 | 52.83099 | 8.89034 | 95° | 57km/h | 5525m | -4.0m/s | -16.2°C | 87.6% | 513.1hPa | 2.7V | 00:00:00 | 00:00:00 | 00:00:00 | |
| DL1XH-15 | 2026-09-01 11:54:07 | 52.83104 | 8.88958 | 95° | 58km/h | 5537m | -3.9m/s | -16.3°C | 88% | 512.4hPa | 2.7V | 07:44:53 | 02:20:02 | 00:00:00 | |
| DM0DOS-11 | 2026-09-01 11:54:06 | 52.83102 | 8.88983 | 95° | 62km/h | 5533m | -3.8m/s | -16.3°C | 87.8% | 512.7hPa | 2.6V | 07:44:52 | 02:20:03 | 00:00:00 | |
| BIOWL1-15 | 2026-09-01 11:54:06 | 52.83102 | 8.88983 | 95° | 62km/h | 5533m | -3.8m/s | -16.3°C | 84.9% | 512.7hPa | 2.6V | 07:45:31 | 02:20:03 | 00:00:00 | |
| DL1XH-west | 2026-09-01 11:54:01 | 52.83108 | 8.88866 | 94° | 53km/h | 5553m | -4.3m/s | -16.5°C | 85.7% | 511.3hPa | 2.6V | 07:45:31 | 02:19:58 | 00:00:00 | |
| DL1XH1-15 | 2026-09-01 11:54:01 | 52.83108 | 8.88801 | 84° | 53km/h | 5566m | -4m/s | -16.7°C | 90.1% | 510.5hPa | 2.7V | 07:45:00 | 02:19:55 | 00:00:00 | |
| AA1-15 | 2026-09-01 11:53:59 | 52.83109 | 8.88823 | 88° | 53km/h | 5562m | -4.1m/s | -16.6°C | 87% | 510.7hPa | 2.6V | 07:45:31 | 02:19:56 | 00:00:00 | |
| BIOWL1-15 | 2026-09-01 11:53:58 | 52.83104 | 8.88755 | 80° | 58km/h | 5574m | -3.9m/s | -16.7°C | 87.5% | 510hPa | 2.7V | 07:45:31 | 02:19:53 | 00:00:00 | |
| DO2JMG | 2026-09-01 11:53:57 | 52.83106 | 8.88778 | 81° | 57km/h | 5570m | -3.9m/s | -16.7°C | 87.5% | 510.2hPa | 2.7V | 07:45:31 | 02:19:54 | 00:00:00 | |
| DL1XH-15 | 2026-09-01 11:53:57 | 52.83101 | 8.88730 | 79° | 60km/h | 5578m | -4m/s | -16.7°C | 88.3% | 509.6hPa | 2.7V | 07:45:03 | 02:19:52 | 00:00:00 | |
| GOEST3-10 | 2026-09-01 11:53:57 | 52.83106 | 8.88778 | 82° | 60km/h | 5570m | -3.9m/s | -16.6°C | 89.8% | 510.2hPa | 2.7V | 00:00:00 | 00:00:00 | 00:00:00 | |
| DB0DAN | 2026-09-01 11:53:55 | 52.83101 | 8.88730 | 80° | 57km/h | 5578m | -4m/s | -16.7°C | 84.1% | 509.64hPa | 2.7V | 00:00:00 | 00:00:00 | 00:00:00 | |
| DL4BBY-15 | 2026-09-01 11:53:54 | 52.83098 | 8.88705 | 81° | 58km/h | 5581m | -4.0m/s | -15.1°C | 0% | 0hPa | 2.6V | 00:00:00 | 00:00:00 | 00:00:00 | |
| DL1XH1-15 | 2026-09-01 11:53:53 | 52.83094 | 8.88535 | 94° | 69km/h | 5606m | -4.3m/s | -16.8°C | 86.5% | 507.7hPa | 2.6V | 07:45:10 | 02:19:45 | 00:00:00 | |
| DL1XH-west | 2026-09-01 11:53:51 | 52.83093 | 8.88623 | 87° | 69km/h | 5593m | -4m/s | -16.8°C | 84.9% | 508.6hPa | 2.7V | 07:45:31 | 02:19:48 | 00:00:00 | |
| AA1-15 | 2026-09-01 11:53:49 | 52.83094 | 8.88535 | 95° | 69km/h | 5606m | -4.3m/s | -16.8°C | 82.6% | 507.7hPa | 2.6V | 07:45:31 | 02:19:45 | 00:00:00 | |
| BIOWL1-15 | 2026-09-01 11:53:48 | 52.83098 | 8.88479 | 99° | 66km/h | 5614m | -4.1m/s | -16.8°C | 81.2% | 507.2hPa | 2.7V | 07:45:31 | 02:19:43 | 00:00:00 | |
| DO2JMG | 2026-09-01 11:53:47 | 52.83096 | 8.88506 | 97° | 68km/h | 5610m | -4.1m/s | -16.8°C | 81.8% | 507.4hPa | 2.7V | 07:45:31 | 02:19:44 | 00:00:00 | |
| DL1XH-15 | 2026-09-01 11:53:47 | 52.83101 | 8.88452 | 99° | 62km/h | 5618m | -4m/s | -16.8°C | 85.4% | 506.9hPa | 2.7V | 07:45:13 | 02:19:42 | 00:00:00 | |
| GOEST3-10 | 2026-09-01 11:53:47 | 52.83096 | 8.88506 | 97° | 62km/h | 5610m | -4.1m/s | -16.7°C | 86.0% | 507.4hPa | 2.7V | 00:00:00 | 00:00:00 | 00:00:00 | |
| GOEST3-10 | 2026-09-01 11:53:42 | 52.83106 | 8.88383 | 95° | 49km/h | 5630m | -3.9m/s | -16.8°C | 83.6% | 506.1hPa | 2.7V | 00:00:00 | 02:19:39 | 00:00:00 | |
| DB0DAN | 2026-09-01 11:53:40 | 52.83107 | 8.88342 | 88° | 47km/h | 5638m | -4.1m/s | -16.9°C | 78.9% | 505.63hPa | 2.7V | 00:00:00 | 00:00:00 | 00:00:00 | |
| DL1XH1-15 | 2026-09-01 11:53:40 | 52.83105 | 8.88300 | 84° | 49km/h | 5646m | -4.3m/s | -16.9°C | 83% | 505hPa | 2.6V | 07:45:20 | 02:19:35 | 00:00:00 | |
| DL1XH-west | 2026-09-01 11:53:40 | 52.83107 | 8.88342 | 88° | 49km/h | 5638m | -4.1m/s | -16.9°C | 81.4% | 505.6hPa | 2.7V | 07:45:31 | 02:19:37 | 00:00:00 | |
| DM0DOS-11 | 2026-09-01 11:53:40 | 52.83102 | 8.88258 | 81° | 55km/h | 5655m | -4.1m/s | -17°C | 83.6% | 504.4hPa | 2.6V | 07:45:22 | 02:19:33 | 00:00:00 | |
| AA1-15 | 2026-09-01 11:53:37 | 52.83104 | 8.88279 | 83° | 51km/h | 5650m | -4.2m/s | -16.9°C | 82.2% | 504.7hPa | 2.6V | 07:45:31 | 02:19:34 | 00:00:00 | |
| BIOWL1-15 | 2026-09-01 11:53:35 | 52.83100 | 8.88235 | 80° | 57km/h | 5659m | -4m/s | -17°C | 82.1% | 504.2hPa | 2.7V | 07:45:31 | 02:19:32 | 00:00:00 | |
| DL1XH1-15 | 2026-09-01 11:53:34 | 52.83090 | 8.88045 | 94° | 66km/h | 5687m | -4m/s | -17.1°C | 82.9% | 502.3hPa | 2.7V | 07:45:30 | 02:19:25 | 00:00:00 | |
| DL1XH-west | 2026-09-01 11:53:30 | 52.83090 | 8.88102 | 87° | 68km/h | 5679m | -3.9m/s | -17.1°C | 81.8% | 502.8hPa | 2.6V | 07:45:31 | 02:19:27 | 00:00:00 | |
| DL8OAI-8 | 2026-09-01 11:53:29 | 52.83089 | 8.88073 | 92° | 68km/h | 5683m | -4.0m/s | -17.1°C | 79.0% | 502.6hPa | 2.6V | 07:45:00 | 00:00:00 | 00:00:00 | |
| DM0DOS-11 | 2026-09-01 11:53:28 | 52.83094 | 8.87993 | 96° | 58km/h | 5695m | -4m/s | -17.2°C | 83.3% | 501.8hPa | 2.6V | 07:45:32 | 02:19:23 | 00:00:00 | |
| DO2JMG | 2026-09-01 11:53:26 | 52.83094 | 8.87993 | 97° | 58km/h | 5695m | -4m/s | -17.2°C | 81.8% | 501.8hPa | 2.6V | 07:46:22 | 02:19:23 | 00:00:00 | |
| BIOWL1-15 | 2026-09-01 11:53:24 | 52.83096 | 8.87887 | 88° | 47km/h | 5714m | -4m/s | -17.4°C | 81.3% | 500.5hPa | 2.6V | 07:46:22 | 02:19:18 | 00:00:00 | |
| GOEST3-10 | 2026-09-01 11:53:23 | 52.83097 | 8.87906 | 90° | 46km/h | 5710m | -3.7m/s | -17.3°C | 84.0% | 500.7hPa | 2.7V | 00:00:00 | 02:19:19 | 00:00:00 | |
| SMARD9-15 | 2026-09-01 11:53:21 | 52.83096 | 8.87867 | 88° | 46km/h | 5718m | -4.3m/s | -17.4°C | 80.2% | 500.2hPa | 2.7V | 00:00:00 | 00:00:00 | 00:00:00 | |
| DL1XH1-15 | 2026-09-01 11:53:20 | 52.83096 | 8.87829 | 89° | 46km/h | 5727m | -4.2m/s | -17.4°C | 84.6% | 499.6hPa | 2.7V | 07:45:40 | 02:19:15 | 00:00:00 | |
| DL1XH-west | 2026-09-01 11:53:19 | 52.83096 | 8.87848 | 89° | 46km/h | 5722m | -4.3m/s | -17.4°C | 81.2% | 499.9hPa | 2.7V | 07:46:22 | 02:19:16 | 00:00:00 | |
| DL3AQ-11 | 2026-09-01 11:53:19 | 52.83096 | 8.87829 | 89° | 44km/h | 5726m | -4.2m/s | -17.4°C | 80.5% | 499.6hPa | 2.6V | 00:00:00 | 00:00:00 | 00:00:00 | |
| DD8BA-10 | 2026-09-01 11:53:18 | 52.83095 | 8.87829 | 90° | 49km/h | 5727m | -4.1m/s | -17.3°C | 84.6% | 499.6hPa | 2.6V | 00:00:00 | 00:00:00 | 00:00:00 | |
| DM0DOS-11 | 2026-09-01 11:53:17 | 52.83095 | 8.87791 | 87° | 46km/h | 5735m | -4.1m/s | -17.5°C | 84.8% | 499.1hPa | 2.6V | 07:45:42 | 02:19:13 | 00:00:00 | |
| DO2JMG | 2026-09-01 11:53:16 | 52.83095 | 8.87791 | 87° | 46km/h | 5735m | -4.1m/s | -17.5°C | 81.6% | 499.1hPa | 2.6V | 07:46:22 | 02:19:13 | 00:00:00 | |
| AA1-15 | 2026-09-01 11:53:16 | 52.83094 | 8.87772 | 85° | 46km/h | 5739m | -4.2m/s | -17.5°C | 81.9% | 498.8hPa | 2.6V | 07:46:22 | 02:19:12 | 00:00:00 | |
| DL4XJ-10 | 2026-09-01 11:53:14 | 52.83092 | 8.87753 | 82° | 57km/h | 5743m | -4.1m/s | -15.9°C | 0% | 0hPa | 2.7V | 00:00:00 | 00:00:00 | 00:00:00 | |
| DL1XH1-15 | 2026-09-01 11:53:13 | 52.83078 | 8.87622 | 83° | 62km/h | 5766m | -3.8m/s | -17.7°C | 84.5% | 497hPa | 2.7V | 07:45:50 | 02:19:05 | 00:00:00 | |
| DL1XH-15 | 2026-09-01 11:53:12 | 52.83077 | 8.87596 | 85° | 62km/h | 5770m | -3.9m/s | -17.7°C | 84.5% | 496.7hPa | 2.7V | 07:45:51 | 02:19:04 | 00:00:00 | |
| GOEST3-10 | 2026-09-01 11:53:12 | 52.83088 | 8.87714 | 79° | 57km/h | 5751m | -4.1m/s | -17.6°C | 86.3% | 497.9hPa | 2.7V | 00:00:00 | 02:19:09 | 00:00:00 | |
| DB0DAN | 2026-09-01 11:53:10 | 52.83083 | 8.87671 | 78° | 53km/h | 5759m | -3.7m/s | -17.7°C | 80.7% | 497.4hPa | 2.6V | 00:00:00 | 00:00:00 | 00:00:00 | |
| DL1XH-west | 2026-09-01 11:53:09 | 52.83080 | 8.87647 | 81° | 60km/h | 5763m | -3.8m/s | -17.7°C | 82.6% | 497.3hPa | 2.7V | 07:46:22 | 02:19:06 | 00:00:00 | |
| DD8BA-10 | 2026-09-01 11:53:08 | 52.83078 | 8.87621 | 84° | 58km/h | 5767m | -3.7m/s | -17.6°C | 84.5% | 497.0hPa | 2.6V | 00:00:00 | 00:00:00 | 00:00:00 | |
| DM0DOS-11 | 2026-09-01 11:53:07 | 52.83076 | 8.87570 | 88° | 60km/h | 5774m | -3.9m/s | -17.7°C | 84.4% | 496.4hPa | 2.6V | 07:45:52 | 02:19:03 | 00:00:00 | |
| DO2JMG | 2026-09-01 11:53:06 | 52.83076 | 8.87545 | 90° | 60km/h | 5778m | -3.9m/s | -17.7°C | 81.6% | 496.2hPa | 2.6V | 07:46:22 | 02:19:02 | 00:00:00 | |
| AA1-15 | 2026-09-01 11:53:05 | 52.83076 | 8.87521 | 92° | 58km/h | 5782m | -3.8m/s | -17.7°C | 81.6% | 495.9hPa | 2.7V | 07:46:22 | 02:19:01 | 00:00:00 | |
| DJ2DS-15 | 2026-09-01 11:53:03 | 52.83077 | 8.87497 | 95° | 55km/h | 5786m | -4.0m/s | -17.7°C | 83.9% | 495.7hPa | 2.7V | 00:00:00 | 02:19:00 | 00:00:00 | |
| DM0DOS-11 | 2026-09-01 11:53:02 | 52.83083 | 8.87334 | 88° | 58km/h | 5813m | -3.9m/s | -17.9°C | 84.8% | 493.9hPa | 2.6V | 07:46:02 | 02:18:53 | 00:00:00 | |
| DL1XH-west | 2026-09-01 11:52:58 | 52.83082 | 8.87382 | 92° | 57km/h | 5805m | -3.9m/s | -17.9°C | 82.5% | 494.5hPa | 2.7V | 07:46:22 | 02:18:55 | 00:00:00 | |
| BIOWL1-15 | 2026-09-01 11:52:57 | 52.83083 | 8.87358 | 90° | 58km/h | 5809m | -3.8m/s | -17.9°C | 82.6% | 494.1hPa | 2.7V | 07:46:22 | 02:18:54 | 00:00:00 | |
| DO2JMG | 2026-09-01 11:52:55 | 52.83082 | 8.87310 | 89° | 57km/h | 5817m | -3.8m/s | -18°C | 82.6% | 493.6hPa | 2.6V | 07:46:22 | 02:18:52 | 00:00:00 | |
| DL1XH1-15 | 2026-09-01 11:52:54 | 52.83084 | 8.87151 | 92° | 55km/h | 5843m | -4m/s | -18.1°C | 84.9% | 492hPa | 2.7V | 07:46:10 | 02:18:45 | 00:00:00 | |
| AA1-15 | 2026-09-01 11:52:53 | 52.83082 | 8.87264 | 90° | 55km/h | 5824m | -3.6m/s | -18°C | 82.7% | 493.2hPa | 2.7V | 07:46:22 | 02:18:50 | 00:00:00 | |
| DL1LOL-11 | 2026-09-01 11:52:52 | 52.83082 | 8.87241 | 92° | 53km/h | 5828m | -3.9m/s | -18.0°C | 81.2% | 492.9hPa | 2.6V | 00:00:00 | 00:00:00 | 00:00:00 | |
| DM0DOS-11 | 2026-09-01 11:52:51 | 52.83085 | 8.87105 | 93° | 55km/h | 5852m | -4.3m/s | -18.1°C | 84% | 491.3hPa | 2.6V | 07:46:12 | 02:18:43 | 00:00:00 | |
| DF8AY | 2026-09-01 11:52:47 | 52.83085 | 8.87128 | 93° | 55km/h | 5847m | -4.1m/s | 0°C | 0% | 0hPa | 2.6V | 18:12:15 | 02:18:44 | 00:00:00 | |
| BIOWL1-15 | 2026-09-01 11:52:46 | 52.83085 | 8.87105 | 94° | 57km/h | 5852m | -4.3m/s | -18.1°C | 80.8% | 491.3hPa | 2.6V | 07:46:22 | 02:18:43 | 00:00:00 | |
| DO2JMG | 2026-09-01 11:52:45 | 52.83086 | 8.87082 | 94° | 55km/h | 5856m | -4.4m/s | -18.1°C | 80.2% | 491.1hPa | 2.6V | 07:46:22 | 02:18:42 | 00:00:00 | |
| DL1XH-15 | 2026-09-01 11:52:43 | 52.83089 | 8.87017 | 93° | 47km/h | 5868m | -4m/s | -18.1°C | 84.1% | 490.2hPa | 2.6V | 07:46:16 | 02:18:39 | 00:00:00 | |
| AA1-15 | 2026-09-01 11:52:42 | 52.83090 | 8.87017 | 94° | 47km/h | 5869m | -4m/s | -18.1°C | 79.7% | 490.2hPa | 2.6V | 07:46:22 | 02:18:39 | 00:00:00 | |
| GOEST3-10 | 2026-09-01 11:52:42 | 52.83090 | 8.87017 | 94° | 46km/h | 5869m | -4.0m/s | -18.1°C | 84.1% | 490.2hPa | 2.6V | 00:00:00 | 02:18:39 | 00:00:00 | |
| DB0DAN | 2026-09-01 11:52:40 | 52.83090 | 8.86980 | 85° | 42km/h | 5877m | -3.9m/s | -18.2°C | 79.5% | 489.71hPa | 2.6V | 00:00:00 | 00:00:00 | 00:00:00 | |
| DL1XH1-15 | 2026-09-01 11:52:40 | 52.83086 | 8.86941 | 76° | 49km/h | 5884m | -3.7m/s | -18.2°C | 82.6% | 489.2hPa | 2.6V | 07:46:20 | 02:18:35 | 00:00:00 | |
| BIOWL1-15 | 2026-09-01 11:52:36 | 52.83079 | 8.86898 | 76° | 57km/h | 5891m | -4m/s | -18.3°C | 80.7% | 488.7hPa | 2.6V | 07:46:22 | 02:18:33 | 00:00:00 | |
| DM0DOS-11 | 2026-09-01 11:52:36 | 52.83076 | 8.86876 | 75° | 57km/h | 5896m | -4m/s | -18.3°C | 82.4% | 488.4hPa | 2.6V | 07:46:23 | 02:18:32 | 00:00:00 | |
| DO2JMG | 2026-09-01 11:52:35 | 52.83072 | 8.86853 | 76° | 57km/h | 5900m | -4.1m/s | -18.4°C | 81.1% | 488.1hPa | 2.7V | 07:47:13 | 02:18:31 | 00:00:00 | |
| DL4XJ-10 | 2026-09-01 11:52:34 | 52.83072 | 8.86853 | 76° | 57km/h | 5900m | -4.1m/s | -16.8°C | 0% | 0hPa | 2.6V | 00:00:00 | 00:00:00 | 00:00:00 | |
| DL1XH1-15 | 2026-09-01 11:52:33 | 52.83044 | 8.86685 | 79° | 64km/h | 5929m | -4.2m/s | -18.5°C | 79.9% | 486.1hPa | 2.6V | 07:46:31 | 02:18:24 | 00:00:00 | |
| AA1-15 | 2026-09-01 11:52:31 | 52.83060 | 8.86784 | 74° | 57km/h | 5912m | -4.2m/s | -18.4°C | 80% | 487.3hPa | 2.6V | 07:47:13 | 02:18:28 | 00:00:00 | |
| DL1XH-15 | 2026-09-01 11:52:30 | 52.83056 | 8.86760 | 73° | 60km/h | 5916m | -4.2m/s | -18.4°C | 80.8% | 487.1hPa | 2.6V | 07:46:28 | 02:18:27 | 00:00:00 | |
| DF8AY | 2026-09-01 11:52:28 | 52.83045 | 8.86685 | 79° | 64km/h | 5930m | -4.2m/s | 0°C | 0% | 0hPa | 2.6V | 18:12:15 | 02:18:24 | 00:00:00 | |
| DL1XH-west | 2026-09-01 11:52:26 | 52.83041 | 8.86632 | 88° | 64km/h | 5938m | -3.9m/s | -18.5°C | 77.5% | 485.6hPa | 2.6V | 07:47:13 | 02:18:22 | 00:00:00 | |
| DB0DAN | 2026-09-01 11:52:25 | 52.83041 | 8.86632 | 88° | 60km/h | 5938m | -3.9m/s | -18.5°C | 75.8% | 485.65hPa | 2.6V | 00:00:00 | 00:00:00 | 00:00:00 | |
| DL1XH-15 | 2026-09-01 11:52:25 | 52.83045 | 8.86512 | 94° | 51km/h | 5958m | -4.4m/s | -18.6°C | 79.7% | 484.3hPa | 2.6V | 07:46:38 | 02:18:17 | 00:00:00 | |
| DO2JMG | 2026-09-01 11:52:24 | 52.83041 | 8.86606 | 92° | 62km/h | 5941m | -4m/s | -18.5°C | 77.1% | 485.3hPa | 2.7V | 07:47:13 | 02:18:21 | 00:00:00 | |
| DJ2DS-15 | 2026-09-01 11:52:23 | 52.83041 | 8.86581 | 95° | 58km/h | 5945m | -4.0m/s | -18.5°C | 80.6% | 485.1hPa | 2.7V | 00:00:00 | 02:18:20 | 00:00:00 | |
| GOEST3-10 | 2026-09-01 11:52:22 | 52.83042 | 8.86557 | 96° | 51km/h | 5950m | -4.2m/s | -18.5°C | 80.5% | 484.8hPa | 2.7V | 00:00:00 | 02:18:19 | 00:00:00 | |
| BIOWL9-15 | 2026-09-01 11:52:21 | 52.83045 | 8.86512 | 94° | 51km/h | 5958m | -4.4m/s | -18.6°C | 75.6% | 484.3hPa | 2.7V | 00:00:00 | 00:00:00 | 00:00:00 | |
| DL1XH1-15 | 2026-09-01 11:52:20 | 52.83046 | 8.86471 | 86° | 47km/h | 5967m | -4.3m/s | -18.7°C | 78.4% | 483.7hPa | 2.7V | 07:46:40 | 02:18:15 | 00:00:00 | |
| AA1-15 | 2026-09-01 11:52:20 | 52.83045 | 8.86512 | 95° | 51km/h | 5958m | -4.4m/s | -18.6°C | 76.7% | 484.3hPa | 2.6V | 07:47:13 | 02:18:17 | 00:00:00 | |
| DF8AY | 2026-09-01 11:52:16 | 52.83042 | 8.86432 | 76° | 49km/h | 5975m | -4.1m/s | 0°C | 0% | 0hPa | 2.6V | 18:12:15 | 02:18:13 | 00:00:00 | |
| DL1XH-west | 2026-09-01 11:52:15 | 52.83038 | 8.86411 | 72° | 53km/h | 5979m | -4.2m/s | -18.7°C | 74.7% | 482.9hPa | 2.6V | 07:47:13 | 02:18:12 | 00:00:00 | |
| DL1XH-15 | 2026-09-01 11:52:15 | 52.83018 | 8.86289 | 80° | 66km/h | 6001m | -4.3m/s | -18.9°C | 77.6% | 481.5hPa | 2.6V | 07:46:48 | 02:18:07 | 00:00:00 | |
| BIOWL1-15 | 2026-09-01 11:52:13 | 52.83030 | 8.86366 | 72° | 60km/h | 5987m | -4.4m/s | -18.8°C | 74.2% | 482.4hPa | 2.7V | 07:47:13 | 02:18:10 | 00:00:00 | |
| DL1XH1-15 | 2026-09-01 11:52:13 | 52.83014 | 8.86207 | 89° | 64km/h | 6013m | -4.3m/s | -18.9°C | 77.3% | 480.7hPa | 2.6V | 07:46:51 | 02:18:04 | 00:00:00 | |
| DB0UT-7 | 2026-09-01 11:52:13 | 52.83025 | 8.86342 | 75° | 60km/h | 5992m | -4.5m/s | -18.8°C | 77.0% | 482.1hPa | 2.6V | 00:00:00 | 00:00:00 | 00:00:00 | |
| DL3AQ-11 | 2026-09-01 11:52:12 | 52.83021 | 8.86316 | 76° | 64km/h | 5996m | -4.4m/s | -18.9°C | 73.4% | 481.8hPa | 2.6V | 00:00:00 | 00:00:00 | 00:00:00 | |
| DM0DOS-11 | 2026-09-01 11:52:11 | 52.83014 | 8.86156 | 92° | 58km/h | 6022m | -4.5m/s | -18.9°C | 74.7% | 480.2hPa | 2.6V | 07:46:53 | 02:18:02 | 00:00:00 | |
| AA1-15 | 2026-09-01 11:52:09 | 52.83015 | 8.86262 | 84° | 66km/h | 6005m | -4m/s | -18.9°C | 73.5% | 481.4hPa | 2.7V | 07:47:13 | 02:18:06 | 00:00:00 | |
| DF8AY | 2026-09-01 11:52:06 | 52.83004 | 8.86020 | 73° | 58km/h | 6047m | -4.1m/s | 0°C | 0% | 0hPa | 2.6V | 18:12:15 | 02:17:56 | 00:00:00 | |
| DL1XH-west | 2026-09-01 11:52:06 | 52.83014 | 8.86156 | 92° | 58km/h | 6022m | -4.5m/s | -18.9°C | 71.5% | 480.2hPa | 2.6V | 07:47:13 | 02:18:02 | 00:00:00 | |
| DO2JMG | 2026-09-01 11:52:03 | 52.83015 | 8.86109 | 88° | 55km/h | 6031m | -4.4m/s | -19°C | 70.9% | 479.6hPa | 2.6V | 07:47:13 | 02:18:00 | 00:00:00 | |
| DJ2DS-15 | 2026-09-01 11:52:03 | 52.83015 | 8.86109 | 89° | 60km/h | 6031m | -4.4m/s | -19.0°C | 74.1% | 479.6hPa | 2.6V | 00:00:00 | 02:18:00 | 00:00:00 | |
| GOEST3-10 | 2026-09-01 11:52:02 | 52.83014 | 8.86087 | 84° | 55km/h | 6035m | -4.1m/s | -19.0°C | 74.4% | 479.4hPa | 2.6V | 00:00:00 | 02:17:59 | 00:00:00 | |
| BUE01 | 2026-09-01 11:52:01 | 52.83012 | 8.86065 | 78° | 53km/h | 6039m | -4.1m/s | -19.0°C | 69.8% | 479.2hPa | 2.6V | 00:00:00 | 00:00:00 | 00:00:00 | |
| DL1XH1-15 | 2026-09-01 11:52:00 | 52.83000 | 8.85997 | 71° | 58km/h | 6051m | -4.3m/s | -19°C | 71.5% | 478.4hPa | 2.6V | 07:47:00 | 02:17:55 | 00:00:00 | |
| AA1-15 | 2026-09-01 11:51:58 | 52.83000 | 8.85997 | 72° | 58km/h | 6051m | -4.3m/s | -19°C | 69.4% | 478.4hPa | 2.6V | 07:47:13 | 02:17:55 | 00:00:00 | |
| DD8BA-10 | 2026-09-01 11:51:58 | 52.83000 | 8.85997 | 72° | 58km/h | 6051m | -4.3m/s | -19.0°C | 71.5% | 478.3hPa | 2.6V | 00:00:00 | 00:00:00 | 00:00:00 | |
| BIOWL7-15 | 2026-09-01 11:51:57 | 52.82995 | 8.85974 | 72° | 58km/h | 6056m | -4.2m/s | -18.9°C | 65.9% | 478.1hPa | 2.6V | 00:00:00 | 00:00:00 | 00:00:00 | |
| DM0DOS-11 | 2026-09-01 11:51:56 | 52.82985 | 8.85930 | 69° | 55km/h | 6064m | -4.3m/s | -18.8°C | 67.8% | 477.5hPa | 2.6V | 07:47:03 | 02:17:52 | 00:00:00 | |
| DL1XH-15 | 2026-09-01 11:51:55 | 52.82959 | 8.85816 | 71° | 64km/h | 6085m | -4.1m/s | -18.8°C | 65.4% | 476.1hPa | 2.7V | 07:47:08 | 02:17:47 | 00:00:00 | |
| DL1XH-west | 2026-09-01 11:51:55 | 52.82985 | 8.85930 | 70° | 55km/h | 6064m | -4.3m/s | -18.8°C | 67.1% | 477.5hPa | 2.6V | 07:47:13 | 02:17:52 | 00:00:00 | |
| DO2JMG | 2026-09-01 11:51:53 | 52.82975 | 8.85886 | 68° | 57km/h | 6073m | -4.3m/s | -18.8°C | 66.7% | 476.9hPa | 2.6V | 07:47:13 | 02:17:50 | 00:00:00 | |
| DF8AY | 2026-09-01 11:51:51 | 52.82964 | 8.85840 | 69° | 62km/h | 6081m | -4.4m/s | 0°C | 0% | 0hPa | 2.6V | 18:12:15 | 02:17:48 | 00:00:00 | |
| AA1-15 | 2026-09-01 11:51:47 | 52.82946 | 8.85734 | 80° | 69km/h | 6098m | -4.1m/s | -18.8°C | 64.9% | 475.4hPa | 2.6V | 07:47:13 | 02:17:44 | 00:00:00 | |
| DF5WG-10 | 2026-09-01 11:51:47 | 52.82946 | 8.85734 | 80° | 64km/h | 6098m | -4.1m/s | -18.8°C | 65.2% | 475.3hPa | 2.6V | 00:00:00 | 02:17:44 | 00:00:00 | |
| DL1XH-15 | 2026-09-01 11:51:45 | 52.82937 | 8.85545 | 87° | 55km/h | 6127m | -4m/s | -18.9°C | 64.3% | 473.5hPa | 2.6V | 07:47:18 | 02:17:37 | 00:00:00 | |
| DL1XH-west | 2026-09-01 11:51:44 | 52.82939 | 8.85648 | 86° | 68km/h | 6110m | -4.3m/s | -18.8°C | 63.7% | 474.5hPa | 2.7V | 07:48:04 | 02:17:41 | 00:00:00 | |
| DO2JMG | 2026-09-01 11:51:43 | 52.82938 | 8.85620 | 87° | 66km/h | 6114m | -4.4m/s | -18.8°C | 63.6% | 474.2hPa | 2.7V | 07:48:04 | 02:17:40 | 00:00:00 | |
| BIOWL1-15 | 2026-09-01 11:51:39 | 52.82935 | 8.85502 | 83° | 49km/h | 6135m | -4.4m/s | -18.9°C | 64.4% | 472.9hPa | 2.7V | 07:48:04 | 02:17:35 | 00:00:00 | |
| AA1-15 | 2026-09-01 11:51:36 | 52.82930 | 8.85462 | 77° | 49km/h | 6144m | -4.8m/s | -19°C | 65% | 472.3hPa | 2.6V | 07:48:04 | 02:17:33 | 00:00:00 | |
| DL1XH-west | 2026-09-01 11:51:33 | 52.82918 | 8.85400 | 68° | 57km/h | 6158m | -4.1m/s | -19.3°C | 65.7% | 471.5hPa | 2.7V | 07:48:04 | 02:17:30 | 00:00:00 | |
| DO2JMG | 2026-09-01 11:51:33 | 52.82912 | 8.85377 | 69° | 62km/h | 6162m | -4.4m/s | -19.3°C | 65.7% | 471.3hPa | 2.6V | 07:48:04 | 02:17:29 | 00:00:00 | |
| DL1XH1-15 | 2026-09-01 11:51:32 | 52.82893 | 8.85269 | 78° | 69km/h | 6178m | -4.3m/s | -19.4°C | 66.1% | 470.2hPa | 2.6V | 07:47:30 | 02:17:25 | 00:00:00 | |
| BIOWL1-15 | 2026-09-01 11:51:29 | 52.82897 | 8.85298 | 76° | 69km/h | 6174m | -4.1m/s | -19.4°C | 65.7% | 470.5hPa | 2.5V | 07:48:04 | 02:17:26 | 00:00:00 | |
| AA1-15 | 2026-09-01 11:51:26 | 52.82887 | 8.85187 | 86° | 60km/h | 6191m | -4.3m/s | -19.4°C | 65.8% | 469.3hPa | 2.6V | 07:48:04 | 02:17:22 | 00:00:00 | |
| DL1XH-15 | 2026-09-01 11:51:26 | 52.82881 | 8.85076 | 82° | 49km/h | 6212m | -4.4m/s | -19.6°C | 66.9% | 468.1hPa | 2.6V | 07:47:38 | 02:17:17 | 00:00:00 | |
| DB0DAN | 2026-09-01 11:51:25 | 52.82887 | 8.85187 | 86° | 58km/h | 6191m | -4.3m/s | -19.4°C | 62.7% | 469.34hPa | 2.6V | 00:00:00 | 00:00:00 | 00:00:00 | |
| DL1XH-west | 2026-09-01 11:51:23 | 52.82885 | 8.85140 | 85° | 53km/h | 6200m | -4m/s | -19.5°C | 65.9% | 468.8hPa | 2.6V | 07:48:04 | 02:17:20 | 00:00:00 | |
| DO2JMG | 2026-09-01 11:51:22 | 52.82884 | 8.85118 | 83° | 51km/h | 6204m | -4.2m/s | -19.5°C | 65.8% | 468.6hPa | 2.5V | 07:48:04 | 02:17:19 | 00:00:00 | |
| GOEST3-10 | 2026-09-01 11:51:22 | 52.82884 | 8.85118 | 84° | 49km/h | 6204m | -4.1m/s | -19.5°C | 66.7% | 468.5hPa | 2.6V | 00:00:00 | 02:17:19 | 00:00:00 | |
| DL1XH1-15 | 2026-09-01 11:51:20 | 52.82878 | 8.85036 | 84° | 47km/h | 6221m | -4.6m/s | -19.6°C | 67% | 467.6hPa | 2.6V | 07:47:40 | 02:17:15 | 00:00:00 | |
| BIOWL1-15 | 2026-09-01 11:51:19 | 52.82879 | 8.85056 | 84° | 49km/h | 6216m | -4.4m/s | -19.6°C | 65.8% | 467.8hPa | 2.7V | 07:48:04 | 02:17:16 | 00:00:00 | |
| DF8AY | 2026-09-01 11:51:18 | 52.82878 | 8.85036 | 84° | 47km/h | 6221m | -4.6m/s | 0°C | 0% | 0hPa | 2.6V | 18:12:15 | 02:17:15 | 00:00:00 | |
| GOEST3-10 | 2026-09-01 11:51:17 | 52.82877 | 8.85016 | 83° | 47km/h | 6225m | -4.5m/s | -19.6°C | 67.2% | 467.2hPa | 2.6V | 00:00:00 | 00:00:00 | 00:00:00 | |
| DM0DOS-11 | 2026-09-01 11:51:17 | 52.82872 | 8.84978 | 75° | 46km/h | 6234m | -4.5m/s | -19.7°C | 67.2% | 466.7hPa | 2.5V | 07:47:43 | 02:17:12 | 00:00:00 | |
| DL1XH-15 | 2026-09-01 11:51:16 | 52.82850 | 8.84873 | 70° | 64km/h | 6255m | -4.1m/s | -20°C | 67.6% | 465.3hPa | 2.6V | 07:47:48 | 02:17:07 | 00:00:00 | |
| AA1-15 | 2026-09-01 11:51:14 | 52.82869 | 8.84959 | 72° | 47km/h | 6239m | -4.4m/s | -19.7°C | 67.4% | 466.5hPa | 2.6V | 07:48:04 | 02:17:11 | 00:00:00 | |
| DL4XJ-10 | 2026-09-01 11:51:14 | 52.82869 | 8.84959 | 73° | 58km/h | 6239m | -4.4m/s | -18.1°C | 0% | 0hPa | 2.5V | 00:00:00 | 00:00:00 | 00:00:00 | |
| DL1XH1-15 | 2026-09-01 11:51:13 | 52.82840 | 8.84821 | 76° | 68km/h | 6264m | -4.2m/s | -20°C | 67.3% | 464.8hPa | 2.5V | 07:47:50 | 02:17:05 | 00:00:00 | |
| DO2JMG | 2026-09-01 11:51:12 | 52.82855 | 8.84897 | 69° | 58km/h | 6251m | -4.2m/s | -19.9°C | 67.8% | 465.6hPa | 2.6V | 07:48:04 | 02:17:08 | 00:00:00 | |
| BIOWL1-15 | 2026-09-01 11:51:11 | 52.82845 | 8.84848 | 74° | 66km/h | 6259m | -4.2m/s | -20°C | 67.3% | 465.1hPa | 2.6V | 07:48:04 | 02:17:06 | 00:00:00 | |
| DF8AY | 2026-09-01 11:51:08 | 52.82840 | 8.84821 | 76° | 68km/h | 6264m | -4.3m/s | 0°C | 0% | 0hPa | 2.5V | 18:12:15 | 02:17:05 | 00:00:00 | |
| AA1-15 | 2026-09-01 11:51:03 | 52.82830 | 8.84683 | 88° | 62km/h | 6285m | -4.3m/s | -20.1°C | 66.7% | 463.5hPa | 2.6V | 07:48:04 | 02:17:00 | 00:00:00 | |
| DO2JMG | 2026-09-01 11:51:02 | 52.82829 | 8.84634 | 89° | 57km/h | 6293m | -4.3m/s | -20.2°C | 66.9% | 463hPa | 2.5V | 07:48:04 | 02:16:58 | 00:00:00 | |
| DL1XH-15 | 2026-09-01 11:51:02 | 52.82828 | 8.84611 | 85° | 53km/h | 6297m | -4m/s | -20.3°C | 68.7% | 462.6hPa | 2.5V | 07:47:58 | 02:16:57 | 00:00:00 | |
| DL1XH-west | 2026-09-01 11:51:00 | 52.82828 | 8.84611 | 85° | 53km/h | 6297m | -4m/s | -20.3°C | 67% | 462.6hPa | 2.5V | 07:48:04 | 02:16:57 | 00:00:00 | |
| DL1XH1-15 | 2026-09-01 11:51:00 | 52.82824 | 8.84567 | 76° | 53km/h | 6305m | -3.8m/s | -20.5°C | 69.2% | 462.2hPa | 2.6V | 07:48:00 | 02:16:55 | 00:00:00 | |
| BIOWL1-15 | 2026-09-01 11:50:58 | 52.82824 | 8.84567 | 76° | 53km/h | 6305m | -3.8m/s | -20.5°C | 67% | 462.2hPa | 2.6V | 07:48:04 | 02:16:55 | 00:00:00 | |
| GOEST3-10 | 2026-09-01 11:50:57 | 52.82820 | 8.84545 | 74° | 53km/h | 6309m | -3.8m/s | -20.4°C | 68.9% | 461.9hPa | 2.6V | 07:48:00 | 00:00:00 | 00:00:00 | |
| DK9SH | 2026-09-01 11:50:56 | 52.82816 | 8.84523 | 74° | 55km/h | 6313m | -4.0m/s | -20.5°C | 65.0% | 461.7hPa | 2.6V | 07:48:00 | 00:00:00 | 00:00:00 | |
| DF5WG-10 | 2026-09-01 11:50:55 | 52.82812 | 8.84501 | 73° | 55km/h | 6317m | -4.1m/s | -20.5°C | 68.6% | 461.4hPa | 2.6V | 00:00:00 | 02:16:52 | 00:00:00 | |
| DL1XH1-15 | 2026-09-01 11:50:54 | 52.82788 | 8.84355 | 72° | 57km/h | 6345m | -3.9m/s | -20.8°C | 68.8% | 459.8hPa | 2.6V | 07:48:10 | 02:16:45 | 00:00:00 | |
| AA1-15 | 2026-09-01 11:50:53 | 52.82799 | 8.84418 | 76° | 49km/h | 6333m | -4.1m/s | -20.6°C | 67.2% | 460.5hPa | 2.6V | 07:48:55 | 02:16:48 | 00:00:00 | |
| DL1XH-15 | 2026-09-01 11:50:52 | 52.82778 | 8.84307 | 72° | 64km/h | 6353m | -3.8m/s | -20.8°C | 67.8% | 459.3hPa | 2.6V | 07:48:12 | 02:16:43 | 00:00:00 | |
| DO2JMG | 2026-09-01 11:50:51 | 52.82795 | 8.84398 | 75° | 51km/h | 6337m | -4.1m/s | -20.7°C | 67.4% | 460.2hPa | 2.6V | 07:48:55 | 02:16:47 | 00:00:00 | |
| DL1XH-west | 2026-09-01 11:50:49 | 52.82792 | 8.84377 | 73° | 53km/h | 6341m | -4.1m/s | -20.7°C | 67.4% | 460hPa | 2.6V | 07:48:55 | 02:16:46 | 00:00:00 | |
| BIOWL1-15 | 2026-09-01 11:50:47 | 52.82778 | 8.84307 | 73° | 64km/h | 6353m | -3.8m/s | -20.8°C | 66.5% | 459.3hPa | 2.6V | 07:48:55 | 02:16:43 | 00:00:00 | |
| SMARD9-15 | 2026-09-01 11:50:45 | 52.82774 | 8.84281 | 73° | 66km/h | 6356m | -4.1m/s | -20.8°C | 63.9% | 459.0hPa | 2.6V | 00:00:00 | 00:00:00 | 00:00:00 | |
| AA1-15 | 2026-09-01 11:50:42 | 52.82754 | 8.84173 | 72° | 66km/h | 6373m | -4.1m/s | -20.9°C | 65.4% | 458hPa | 2.6V | 07:48:55 | 02:16:38 | 00:00:00 | |
| DL1XH1-15 | 2026-09-01 11:50:41 | 52.82740 | 8.84101 | 74° | 55km/h | 6385m | -3.6m/s | -20.8°C | 59.3% | 457.3hPa | 2.6V | 07:48:20 | 02:16:35 | 00:00:00 | |
| DO2JMG | 2026-09-01 11:50:40 | 52.82744 | 8.84123 | 72° | 58km/h | 6381m | -4m/s | -20.9°C | 62.5% | 457.5hPa | 2.6V | 07:48:55 | 02:16:36 | 00:00:00 | |
| DL1XH-west | 2026-09-01 11:50:38 | 52.82740 | 8.84101 | 74° | 55km/h | 6385m | -3.7m/s | -20.8°C | 58.9% | 457.3hPa | 2.6V | 07:48:55 | 02:16:35 | 00:00:00 | |
| BIOWL1-15 | 2026-09-01 11:50:37 | 52.82736 | 8.84079 | 77° | 53km/h | 6389m | -4m/s | -20.7°C | 52.3% | 457hPa | 2.6V | 07:48:55 | 02:16:34 | 00:00:00 | |
| DM0DOS-11 | 2026-09-01 11:50:36 | 52.82732 | 8.84037 | 81° | 51km/h | 6397m | -4.1m/s | -20.7°C | 44.7% | 456.5hPa | 2.6V | 07:48:23 | 02:16:32 | 00:00:00 | |
| DK9SH | 2026-09-01 11:50:35 | 52.82732 | 8.84037 | 82° | 51km/h | 6397m | -4.1m/s | -20.7°C | 42.0% | 456.5hPa | 2.6V | 07:48:00 | 00:00:00 | 00:00:00 | |
| HTAHTA | 2026-09-01 11:50:34 | 52.82727 | 8.83995 | 78° | 51km/h | 6405m | -4.2m/s | -20.8°C | 39.9% | 456.0hPa | 2.6V | 00:00:00 | 00:00:00 | 00:00:00 | |
| DL1XH1-15 | 2026-09-01 11:50:33 | 52.82705 | 8.83881 | 70° | 62km/h | 6425m | -4.3m/s | -21°C | 42.8% | 454.8hPa | 2.6V | 07:48:30 | 02:16:25 | 00:00:00 | |
| AA1-15 | 2026-09-01 11:50:32 | 52.82720 | 8.83951 | 73° | 57km/h | 6413m | -4m/s | -20.9°C | 44.4% | 455.6hPa | 2.6V | 07:48:55 | 02:16:28 | 00:00:00 | |
| BIOWL1-15 | 2026-09-01 11:50:31 | 52.82700 | 8.83856 | 70° | 62km/h | 6430m | -4.4m/s | -21.1°C | 44.3% | 454.5hPa | 2.5V | 07:48:55 | 02:16:24 | 00:00:00 | |
| DO2JMG | 2026-09-01 11:50:29 | 52.82711 | 8.83905 | 70° | 60km/h | 6421m | -4.2m/s | -21°C | 44.5% | 455hPa | 2.6V | 07:48:55 | 02:16:26 | 00:00:00 | |
| DM0DOS-11 | 2026-09-01 11:50:29 | 52.82690 | 8.83806 | 74° | 66km/h | 6438m | -4.3m/s | -21.1°C | 42.3% | 454hPa | 2.6V | 07:48:33 | 02:16:22 | 00:00:00 | |
| DL1XH-west | 2026-09-01 11:50:28 | 52.82705 | 8.83881 | 70° | 62km/h | 6425m | -4.3m/s | -21°C | 44.4% | 454.8hPa | 2.6V | 07:48:55 | 02:16:25 | 00:00:00 | |
| DL3AQ-11 | 2026-09-01 11:50:28 | 52.82700 | 8.83856 | 70° | 62km/h | 6430m | -4.4m/s | -21.1°C | 40.1% | 454.5hPa | 2.5V | 00:00:00 | 00:00:00 | 00:00:00 | |
| GOEST3-10 | 2026-09-01 11:50:27 | 52.82700 | 8.83856 | 71° | 66km/h | 6430m | -4.3m/s | -21.0°C | 42.8% | 454.4hPa | 2.5V | 00:00:00 | 00:00:00 | 00:00:00 | |
| DB0DAN | 2026-09-01 11:50:25 | 52.82690 | 8.83806 | 75° | 62km/h | 6438m | -4.3m/s | -21.1°C | 39.6% | 453.97hPa | 2.6V | 00:00:00 | 00:00:00 | 00:00:00 | |
| AA1-15 | 2026-09-01 11:50:20 | 52.82681 | 8.83669 | 88° | 66km/h | 6458m | -4.1m/s | -21.1°C | 40.3% | 452.8hPa | 2.6V | 07:48:55 | 02:16:17 | 00:00:00 | |
| DL1XH1-15 | 2026-09-01 11:50:20 | 52.82679 | 8.83614 | 86° | 66km/h | 6466m | -4.1m/s | -21.1°C | 38% | 452.2hPa | 2.6V | 07:48:40 | 02:16:15 | 00:00:00 | |
| DO2JMG | 2026-09-01 11:50:18 | 52.82679 | 8.83614 | 87° | 68km/h | 6466m | -4.1m/s | -21.1°C | 39.8% | 452.2hPa | 2.6V | 07:48:55 | 02:16:15 | 00:00:00 | |
| BIOWL1-15 | 2026-09-01 11:50:18 | 52.82677 | 8.83558 | 84° | 68km/h | 6475m | -4m/s | -21.2°C | 39.4% | 451.8hPa | 2.5V | 07:48:55 | 02:16:13 | 00:00:00 | |
| DL1XH-west | 2026-09-01 11:50:17 | 52.82678 | 8.83586 | 86° | 68km/h | 6471m | -4.1m/s | -21.1°C | 39.4% | 452hPa | 2.5V | 07:48:55 | 02:16:14 | 00:00:00 | |
| DC6BW-12 | 2026-09-01 11:50:15 | 52.82677 | 8.83558 | 85° | 68km/h | 6475m | -4.0m/s | -21.2°C | 34.9% | 451.8hPa | 2.6V | 07:48:00 | 00:00:00 | 00:00:00 | |
| DL4XJ-10 | 2026-09-01 11:50:14 | 52.82672 | 8.83501 | 81° | 62km/h | 6482m | -3.9m/s | -19.7°C | 0% | 0hPa | 2.6V | 00:00:00 | 00:00:00 | 00:00:00 | |
| DL1XH1-15 | 2026-09-01 11:50:13 | 52.82654 | 8.83329 | 81° | 71km/h | 6507m | -4.2m/s | -21.5°C | 37.9% | 449.6hPa | 2.6V | 07:48:50 | 02:16:05 | 00:00:00 | |
| DJ2DS-15 | 2026-09-01 11:50:13 | 52.82669 | 8.83473 | 79° | 68km/h | 6486m | -4.0m/s | -21.3°C | 34.9% | 451.0hPa | 2.6V | 00:00:00 | 00:00:00 | 00:00:00 | |
| DL3AQ-11 | 2026-09-01 11:50:12 | 52.82663 | 8.83416 | 79° | 69km/h | 6494m | -4.1m/s | -21.4°C | 34.9% | 450.4hPa | 2.6V | 00:00:00 | 00:00:00 | 00:00:00 | |
| DM0DOS-11 | 2026-09-01 11:50:10 | 52.82648 | 8.83243 | 87° | 66km/h | 6520m | -4.2m/s | -21.6°C | 37.8% | 449hPa | 2.6V | 07:48:53 | 02:16:02 | 00:00:00 | |
| DO2JMG | 2026-09-01 11:50:09 | 52.82654 | 8.83329 | 81° | 71km/h | 6507m | -4.3m/s | -21.5°C | 40.8% | 449.6hPa | 2.6V | 07:48:55 | 02:16:05 | 00:00:00 | |
| BIOWL1-15 | 2026-09-01 11:50:07 | 52.82649 | 8.83243 | 88° | 66km/h | 6520m | -4.2m/s | -21.6°C | 39.9% | 449hPa | 2.6V | 07:48:55 | 02:16:02 | 00:00:00 | |
| DL1XH-west | 2026-09-01 11:50:07 | 52.82650 | 8.83271 | 85° | 69km/h | 6515m | -4.1m/s | -21.6°C | 40.4% | 449.2hPa | 2.6V | 07:48:55 | 02:16:03 | 00:00:00 | |
| DL1XH-15 | 2026-09-01 11:50:03 | 52.82648 | 8.83165 | 90° | 58km/h | 6533m | -4.6m/s | -21.6°C | 38.3% | 448.2hPa | 2.6V | 07:48:56 | 02:15:59 | 00:00:00 | |
| DJ2DS-15 | 2026-09-01 11:50:03 | 52.82648 | 8.83190 | 91° | 60km/h | 6529m | -4.6m/s | -21.6°C | 38.2% | 448.4hPa | 2.6V | 00:00:00 | 02:16:00 | 00:00:00 | |
| GOEST3-10 | 2026-09-01 11:50:02 | 52.82648 | 8.83165 | 91° | 53km/h | 6533m | -4.5m/s | -21.6°C | 38.3% | 448.1hPa | 2.5V | 00:00:00 | 02:15:59 | 00:00:00 | |
| DL8OAI-8 | 2026-09-01 11:50:01 | 52.82648 | 8.83165 | 92° | 58km/h | 6533m | -4.6m/s | -21.7°C | 35.8% | 448.2hPa | 2.5V | 07:49:00 | 00:00:00 | 00:00:00 | |
| DL1XH1-15 | 2026-09-01 11:50:00 | 52.82646 | 8.83077 | 79° | 49km/h | 6551m | -4.4m/s | -21.8°C | 40.3% | 447.1hPa | 2.5V | 07:49:00 | 02:15:55 | 00:00:00 | |
| AA1-15 | 2026-09-01 11:49:59 | 52.82648 | 8.83097 | 84° | 49km/h | 6547m | -4.5m/s | -21.7°C | 41.1% | 447.4hPa | 2.5V | 07:49:46 | 02:15:56 | 00:00:00 | |
| DO2JMG | 2026-09-01 11:49:58 | 52.82646 | 8.83077 | 79° | 49km/h | 6551m | -4.4m/s | -21.8°C | 41.9% | 447.1hPa | 2.5V | 07:49:46 | 02:15:55 | 00:00:00 | |
| BUE01 | 2026-09-01 11:49:57 | 52.82639 | 8.83037 | 70° | 51km/h | 6560m | -4.4m/s | -21.9°C | 39.1% | 446.4hPa | 2.6V | 00:00:00 | 00:00:00 | 00:00:00 | |
| DM0DOS-11 | 2026-09-01 11:49:56 | 52.82634 | 8.83015 | 69° | 57km/h | 6564m | -4.3m/s | -22°C | 42.1% | 446.2hPa | 2.6V | 07:49:03 | 02:15:52 | 00:00:00 | |
| BIOWL1-15 | 2026-09-01 11:49:56 | 52.82629 | 8.82993 | 70° | 60km/h | 6569m | -4.3m/s | -22°C | 44.5% | 446hPa | 2.6V | 07:49:46 | 02:15:51 | 00:00:00 | |
| DL1XH-west | 2026-09-01 11:49:56 | 52.82639 | 8.83037 | 71° | 53km/h | 6560m | -4.4m/s | -21.9°C | 43.7% | 446.4hPa | 2.6V | 07:49:46 | 02:15:53 | 00:00:00 | |
| DC6BW-12 | 2026-09-01 11:49:55 | 52.82639 | 8.83036 | 72° | 53km/h | 6560m | -4.4m/s | -21.9°C | 39.1% | 446.4hPa | 2.6V | 07:49:00 | 00:00:00 | 00:00:00 | |
| DB0DAN | 2026-09-01 11:49:55 | 52.82634 | 8.83015 | 69° | 53km/h | 6564m | -4.3m/s | -22°C | 39.4% | 446.22hPa | 2.6V | 00:00:00 | 00:00:00 | 00:00:00 | |
| DL4XJ-10 | 2026-09-01 11:49:54 | 52.82629 | 8.82992 | 70° | 58km/h | 6568m | -4.2m/s | -20.5°C | 0% | 0hPa | 2.6V | 00:00:00 | 00:00:00 | 00:00:00 | |
| DL1XH1-15 | 2026-09-01 11:49:53 | 52.82610 | 8.82832 | 86° | 64km/h | 6593m | -4.3m/s | -22.2°C | 42.2% | 444.6hPa | 2.6V | 07:49:10 | 02:15:45 | 00:00:00 | |
| DF5WG-10 | 2026-09-01 11:49:53 | 52.82624 | 8.82968 | 73° | 64km/h | 6573m | -4.4m/s | -22.0°C | 42.4% | 445.7hPa | 2.6V | 00:00:00 | 02:15:50 | 00:00:00 | |
| GOEST3-10 | 2026-09-01 11:49:52 | 52.82619 | 8.82942 | 76° | 66km/h | 6577m | -4.0m/s | -22.0°C | 42.1% | 445.5hPa | 2.6V | 00:00:00 | 02:15:49 | 00:00:00 | |
| DM0DOS-11 | 2026-09-01 11:49:50 | 52.82607 | 8.82753 | 86° | 60km/h | 6606m | -4.1m/s | -22.3°C | 43% | 443.8hPa | 2.6V | 07:49:13 | 02:15:42 | 00:00:00 | |
| AA1-15 | 2026-09-01 11:49:49 | 52.82610 | 8.82832 | 86° | 64km/h | 6593m | -4.3m/s | -22.2°C | 44.6% | 444.6hPa | 2.6V | 07:49:46 | 02:15:45 | 00:00:00 | |
| DO2JMG | 2026-09-01 11:49:48 | 52.82609 | 8.82806 | 87° | 64km/h | 6598m | -4.2m/s | -22.2°C | 44.7% | 444.4hPa | 2.6V | 07:49:46 | 02:15:44 | 00:00:00 | |
| DL1XH-15 | 2026-09-01 11:49:47 | 52.82605 | 8.82683 | 86° | 53km/h | 6618m | -4.3m/s | -22.4°C | 43.3% | 443hPa | 2.6V | 07:49:16 | 02:15:39 | 00:00:00 | |
| DL1XH-west | 2026-09-01 11:49:46 | 52.82604 | 8.82640 | 86° | 51km/h | 6628m | -4.7m/s | -22.4°C | 45% | 442.5hPa | 2.5V | 07:49:46 | 02:15:37 | 00:00:00 | |
| BIOWL1-15 | 2026-09-01 11:49:45 | 52.82606 | 8.82705 | 87° | 55km/h | 6614m | -4.2m/s | -22.3°C | 44.6% | 443.2hPa | 2.6V | 07:49:46 | 02:15:40 | 00:00:00 | |
| DJ2DS-15 | 2026-09-01 11:49:43 | 52.82606 | 8.82705 | 88° | 57km/h | 6614m | -4.2m/s | -22.3°C | 43.1% | 443.2hPa | 2.5V | 00:00:00 | 02:15:40 | 00:00:00 | |
| DL8OAI-8 | 2026-09-01 11:49:42 | 52.82605 | 8.82683 | 88° | 53km/h | 6619m | -4.3m/s | -22.4°C | 40.5% | 443.0hPa | 2.5V | 07:49:00 | 00:00:00 | 00:00:00 | |
| DB0DAN | 2026-09-01 11:49:40 | 52.82604 | 8.82640 | 86° | 47km/h | 6628m | -4.7m/s | -22.4°C | 41.1% | 442.52hPa | 2.5V | 00:00:00 | 00:00:00 | 00:00:00 | |
| DL1XH1-15 | 2026-09-01 11:49:40 | 52.82602 | 8.82599 | 81° | 47km/h | 6637m | -4.7m/s | -22.4°C | 44.1% | 441.9hPa | 2.6V | 07:49:20 | 02:15:35 | 00:00:00 | |
| AA1-15 | 2026-09-01 11:49:39 | 52.82601 | 8.82599 | 82° | 47km/h | 6637m | -4.7m/s | -22.5°C | 45.5% | 441.9hPa | 2.6V | 07:49:46 | 02:15:35 | 00:00:00 | |
| DO2JMG | 2026-09-01 11:49:36 | 52.82596 | 8.82560 | 74° | 49km/h | 6646m | -4.6m/s | -22.6°C | 46.1% | 441.4hPa | 2.6V | 07:49:46 | 02:15:33 | 00:00:00 | |
| DM0DOS-11 | 2026-09-01 11:49:36 | 52.82592 | 8.82540 | 70° | 51km/h | 6650m | -4.4m/s | -22.6°C | 44.3% | 441.1hPa | 2.6V | 07:49:23 | 02:15:32 | 00:00:00 | |
| DC6BW-12 | 2026-09-01 11:49:35 | 52.82592 | 8.82540 | 71° | 51km/h | 6650m | -4.4m/s | -22.6°C | 41.3% | 441.1hPa | 2.6V | 07:49:00 | 00:00:00 | 00:00:00 | |
| DL4XJ-10 | 2026-09-01 11:49:34 | 52.82588 | 8.82519 | 70° | 62km/h | 6655m | -4.4m/s | -21.1°C | 0% | 0hPa | 2.6V | 00:00:00 | 00:00:00 | 00:00:00 | |
| DL1XH1-15 | 2026-09-01 11:49:33 | 52.82566 | 8.82339 | 87° | 62km/h | 6684m | -4.4m/s | -22.9°C | 42.9% | 439.1hPa | 2.6V | 07:49:31 | 02:15:24 | 00:00:00 | |
| DL1XH-west | 2026-09-01 11:49:31 | 52.82573 | 8.82445 | 77° | 66km/h | 6667m | -4.2m/s | -22.9°C | 46.2% | 440.1hPa | 2.6V | 07:49:46 | 02:15:28 | 00:00:00 | |
| AA1-15 | 2026-09-01 11:49:28 | 52.82566 | 8.82339 | 88° | 62km/h | 6684m | -4.4m/s | -22.9°C | 44.7% | 439.1hPa | 2.6V | 07:49:46 | 02:15:24 | 00:00:00 | |
| GOEST3-10 | 2026-09-01 11:49:28 | 52.82566 | 8.82338 | 88° | 64km/h | 6684m | -4.4m/s | -22.8°C | 42.9% | 439.1hPa | 2.6V | 00:00:00 | 00:00:00 | 00:00:00 | |
| DB0DAN | 2026-09-01 11:49:25 | 52.82565 | 8.82286 | 87° | 62km/h | 6692m | -4.3m/s | -23°C | 39.7% | 438.58hPa | 2.6V | 00:00:00 | 00:00:00 | 00:00:00 | |
| DO2JMG | 2026-09-01 11:49:24 | 52.82564 | 8.82259 | 87° | 66km/h | 6697m | -4.3m/s | -23°C | 43.7% | 438.3hPa | 2.6V | 07:49:46 | 02:15:21 | 00:00:00 | |
| DL1XH-15 | 2026-09-01 11:49:24 | 52.82562 | 8.82203 | 86° | 68km/h | 6706m | -4.6m/s | -23°C | 40.8% | 437.8hPa | 2.5V | 07:49:36 | 02:15:19 | 00:00:00 | |
| DL1XH-west | 2026-09-01 11:49:21 | 52.82561 | 8.82176 | 88° | 66km/h | 6710m | -4.5m/s | -23°C | 42.5% | 437.6hPa | 2.5V | 07:49:46 | 02:15:18 | 00:00:00 | |
| DL1XH1-15 | 2026-09-01 11:49:21 | 52.82558 | 8.82077 | 85° | 55km/h | 6727m | -4.3m/s | -23.2°C | 39.7% | 436.6hPa | 2.5V | 07:49:41 | 02:15:14 | 00:00:00 | |
| BIOWL1-15 | 2026-09-01 11:49:20 | 52.82561 | 8.82149 | 89° | 62km/h | 6714m | -4.1m/s | -23.1°C | 41.9% | 437.2hPa | 2.6V | 07:49:46 | 02:15:17 | 00:00:00 | |
| DO9LL-15 | 2026-09-01 11:49:20 | 52.82560 | 8.82149 | 89° | 62km/h | 6714m | -4.0m/s | -23.0°C | 40.1% | 437.2hPa | 2.6V | 00:00:00 | 02:15:17 | 00:00:00 | |
| DL3AQ-11 | 2026-09-01 11:49:19 | 52.82559 | 8.82100 | 86° | 55km/h | 6722m | -4.2m/s | -23.1°C | 37.0% | 436.8hPa | 2.5V | 00:00:00 | 00:00:00 | 00:00:00 | |
| DD8BA-10 | 2026-09-01 11:49:18 | 52.82559 | 8.82100 | 87° | 55km/h | 6723m | -4.1m/s | -23.1°C | 39.7% | 436.8hPa | 2.5V | 00:00:00 | 00:00:00 | 00:00:00 | |
| DL1XH-15 | 2026-09-01 11:49:17 | 52.82554 | 8.81966 | 83° | 51km/h | 6749m | -4.8m/s | -23.4°C | 40% | 435.3hPa | 2.5V | 07:49:46 | 02:15:09 | 00:00:00 | |
| AA1-15 | 2026-09-01 11:49:17 | 52.82558 | 8.82054 | 86° | 53km/h | 6731m | -4.7m/s | -23.2°C | 41.2% | 436.3hPa | 2.5V | 07:49:46 | 02:15:13 | 00:00:00 | |
| DL1XH-west | 2026-09-01 11:49:15 | 52.82549 | 8.81923 | 76° | 55km/h | 6757m | -4.3m/s | -23.5°C | 42% | 434.7hPa | 2.5V | 07:50:37 | 02:15:07 | 00:00:00 | |
| DO2JMG | 2026-09-01 11:49:13 | 52.82555 | 8.81988 | 86° | 53km/h | 6744m | -4.3m/s | -23.3°C | 41.6% | 435.5hPa | 2.6V | 07:49:46 | 02:15:10 | 00:00:00 | |
| GOEST3-10 | 2026-09-01 11:49:12 | 52.82554 | 8.81966 | 84° | 55km/h | 6749m | -4.7m/s | -23.3°C | 40.0% | 435.2hPa | 2.5V | 00:00:00 | 02:15:09 | 00:00:00 | |
| DK9SH | 2026-09-01 11:49:11 | 52.82554 | 8.81966 | 84° | 51km/h | 6749m | -4.8m/s | -23.4°C | 37.2% | 435.3hPa | 2.5V | 07:49:00 | 00:00:00 | 00:00:00 | |
| DM0DOS-11 | 2026-09-01 11:49:09 | 52.82527 | 8.81801 | 73° | 68km/h | 6780m | -4.2m/s | -23.7°C | 39.5% | 433.5hPa | 2.5V | 07:49:53 | 02:15:02 | 00:00:00 | |
| BIOWL1-15 | 2026-09-01 11:49:09 | 52.82546 | 8.81900 | 74° | 58km/h | 6762m | -4.4m/s | -23.6°C | 41.8% | 434.5hPa | 2.6V | 07:52:19 | 02:15:06 | 00:00:00 | |
| DL3AQ-11 | 2026-09-01 11:49:08 | 52.82537 | 8.81852 | 72° | 62km/h | 6771m | -4.5m/s | -23.7°C | 36.4% | 434.0hPa | 2.6V | 00:00:00 | 00:00:00 | 00:00:00 | |
| DL1XH-15 | 2026-09-01 11:49:07 | 52.82515 | 8.81717 | 79° | 71km/h | 6792m | -4.4m/s | -23.7°C | 39.6% | 432.7hPa | 2.6V | 07:49:56 | 02:14:59 | 00:00:00 | |
| AA1-15 | 2026-09-01 11:49:05 | 52.82527 | 8.81801 | 73° | 68km/h | 6780m | -4.2m/s | -23.7°C | 41.9% | 433.5hPa | 2.5V | 07:50:37 | 02:15:02 | 00:00:00 | |
| DO2JMG | 2026-09-01 11:49:03 | 52.82515 | 8.81718 | 79° | 71km/h | 6792m | -4.4m/s | -23.7°C | 42.2% | 432.7hPa | 2.6V | 07:50:37 | 02:14:59 | 00:00:00 | |
| BIOWL1-15 | 2026-09-01 11:49:01 | 52.82509 | 8.81629 | 87° | 71km/h | 6805m | -4.3m/s | -23.6°C | 41.9% | 432hPa | 2.6V | 07:52:19 | 02:14:56 | 00:00:00 | |
| HTAHTA | 2026-09-01 11:49:01 | 52.82509 | 8.81629 | 87° | 69km/h | 6805m | -4.3m/s | -23.6°C | 36.7% | 432.0hPa | 2.6V | 00:00:00 | 00:00:00 | 00:00:00 | |
| DL8OAI-8 | 2026-09-01 11:49:00 | 52.82512 | 8.81688 | 83° | 71km/h | 6797m | -4.1m/s | -23.6°C | 36.6% | 432.4hPa | 2.6V | 07:50:00 | 00:00:00 | 00:00:00 | |
| DD8BA-10 | 2026-09-01 11:48:58 | 52.82508 | 8.81600 | 88° | 71km/h | 6810m | -4.3m/s | -23.6°C | 39.9% | 431.7hPa | 2.6V | 07:50:00 | 00:00:00 | 00:00:00 | |
| DM0DOS-11 | 2026-09-01 11:48:57 | 52.82506 | 8.81511 | 86° | 71km/h | 6823m | -4.2m/s | -23.7°C | 40.7% | 430.9hPa | 2.5V | 07:50:03 | 02:14:52 | 00:00:00 | |
| DL1XH-15 | 2026-09-01 11:48:57 | 52.82501 | 8.81421 | 82° | 73km/h | 6835m | -3.7m/s | -23.8°C | 41.5% | 430.2hPa | 2.6V | 07:50:06 | 02:14:49 | 00:00:00 | |
| AA1-15 | 2026-09-01 11:48:55 | 52.82505 | 8.81481 | 86° | 71km/h | 6827m | -4.1m/s | -23.8°C | 42.5% | 430.6hPa | 2.5V | 07:50:37 | 02:14:51 | 00:00:00 | |
| DO2JMG | 2026-09-01 11:48:51 | 52.82498 | 8.81391 | 81° | 71km/h | 6838m | -4.1m/s | -23.9°C | 43.5% | 430hPa | 2.6V | 07:50:37 | 02:14:48 | 00:00:00 | |
| DO9LL-15 | 2026-09-01 11:48:50 | 52.82495 | 8.81362 | 81° | 66km/h | 6843m | -4.1m/s | -23.9°C | 41.8% | 429.7hPa | 2.6V | 07:50:00 | 02:14:47 | 00:00:00 | |
| DD8BA-10 | 2026-09-01 11:48:48 | 52.82489 | 8.81302 | 80° | 64km/h | 6852m | -4.2m/s | -24.0°C | 42.0% | 429.3hPa | 2.6V | 00:00:00 | 00:00:00 | 00:00:00 | |
| DL1XH-15 | 2026-09-01 11:48:47 | 52.82465 | 8.81135 | 75° | 62km/h | 6877m | -4.4m/s | -24.3°C | 42.2% | 427.7hPa | 2.6V | 07:50:16 | 02:14:39 | 00:00:00 | |
| BIOWL1-15 | 2026-09-01 11:48:47 | 52.82485 | 8.81272 | 79° | 73km/h | 6856m | -4.1m/s | -24.1°C | 44.6% | 429hPa | 2.6V | 07:52:19 | 02:14:44 | 00:00:00 | |
| GOEST3-10 | 2026-09-01 11:48:47 | 52.82485 | 8.81272 | 79° | 69km/h | 6856m | -4.1m/s | -24.0°C | 42.4% | 429.0hPa | 2.6V | 00:00:00 | 00:00:00 | 00:00:00 | |
| DM0DOS-11 | 2026-09-01 11:48:46 | 52.82477 | 8.81215 | 76° | 69km/h | 6864m | -4.4m/s | -24.1°C | 42.7% | 428.5hPa | 2.6V | 07:50:13 | 02:14:42 | 00:00:00 | |
| DL1XH-west | 2026-09-01 11:48:44 | 52.82473 | 8.81187 | 76° | 68km/h | 6868m | -4.3m/s | -24.2°C | 45.6% | 428.3hPa | 2.5V | 07:50:37 | 02:14:41 | 00:00:00 | |
| DJ2DS-15 | 2026-09-01 11:48:43 | 52.82469 | 8.81160 | 76° | 62km/h | 6873m | -4.3m/s | -24.2°C | 42.4% | 428.0hPa | 2.5V | 00:00:00 | 02:14:40 | 00:00:00 | |
| DL1XH1-15 | 2026-09-01 11:48:42 | 52.82454 | 8.81020 | 87° | 53km/h | 6899m | -4.3m/s | -24.4°C | 42.1% | 426.5hPa | 2.5V | 07:50:21 | 02:14:34 | 00:00:00 | |
| DF5WG-10 | 2026-09-01 11:48:42 | 52.82465 | 8.81135 | 76° | 57km/h | 6877m | -4.4m/s | -24.2°C | 42.2% | 427.7hPa | 2.6V | 07:50:00 | 02:14:39 | 00:00:00 | |
| SMARD9-15 | 2026-09-01 11:48:41 | 52.82461 | 8.81111 | 76° | 58km/h | 6882m | -4.3m/s | -24.3°C | 39.0% | 427.6hPa | 2.6V | 00:00:00 | 00:00:00 | 00:00:00 | |
| DO2JMG | 2026-09-01 11:48:41 | 52.82461 | 8.81111 | 76° | 58km/h | 6882m | -4.3m/s | -24.3°C | 45.6% | 427.6hPa | 2.6V | 07:50:37 | 02:14:38 | 00:00:00 | |
| DM0DOS-11 | 2026-09-01 11:48:40 | 52.82453 | 8.80975 | 90° | 55km/h | 6908m | -4.5m/s | -24.4°C | 42.4% | 426hPa | 2.6V | 07:50:23 | 02:14:32 | 00:00:00 | |
| DL8OAI-8 | 2026-09-01 11:48:40 | 52.82458 | 8.81087 | 81° | 57km/h | 6886m | -4.4m/s | -24.3°C | 39.0% | 427.3hPa | 2.5V | 07:50:00 | 00:00:00 | 00:00:00 | |
| DL3AQ-11 | 2026-09-01 11:48:39 | 52.82455 | 8.81042 | 85° | 53km/h | 6895m | -4.5m/s | -24.4°C | 39.1% | 426.8hPa | 2.5V | 00:00:00 | 00:00:00 | 00:00:00 | |
| DL1XH-15 | 2026-09-01 11:48:38 | 52.82456 | 8.80903 | 95° | 62km/h | 6922m | -4.2m/s | -24.6°C | 43.6% | 425.1hPa | 2.5V | 07:50:26 | 02:14:29 | 00:00:00 | |
| GOEST3-10 | 2026-09-01 11:48:37 | 52.82454 | 8.81020 | 88° | 55km/h | 6899m | -4.2m/s | -24.3°C | 42.1% | 426.4hPa | 2.6V | 00:00:00 | 00:00:00 | 00:00:00 | |
| DL4BBY-15 | 2026-09-01 11:48:36 | 52.82453 | 8.80997 | 90° | 69km/h | 6904m | -4.5m/s | -22.8°C | 0% | 0hPa | 2.6V | 00:00:00 | 00:00:00 | 00:00:00 | |
| DL4XJ-10 | 2026-09-01 11:48:34 | 52.82453 | 8.80952 | 93° | 68km/h | 6913m | -4.6m/s | -22.9°C | 0% | 0hPa | 2.6V | 00:00:00 | 00:00:00 | 00:00:00 | |
| DL1XH-west | 2026-09-01 11:48:34 | 52.82454 | 8.80952 | 93° | 55km/h | 6913m | -4.7m/s | -24.5°C | 44.4% | 425.6hPa | 2.6V | 07:50:37 | 02:14:31 | 00:00:00 | |
| DL1XH1-15 | 2026-09-01 11:48:32 | 52.82460 | 8.80760 | 87° | 73km/h | 6945m | -4.6m/s | -24.9°C | 44.5% | 423.8hPa | 2.6V | 07:50:31 | 02:14:24 | 00:00:00 | |
| DO2JMG | 2026-09-01 11:48:31 | 52.82458 | 8.80877 | 96° | 66km/h | 6926m | -4.5m/s | -24.6°C | 45.3% | 424.8hPa | 2.6V | 07:50:37 | 02:14:28 | 00:00:00 | |
| SMARD9-10 | 2026-09-01 11:48:30 | 52.82459 | 8.80849 | 96° | 69km/h | 6931m | -4.6m/s | -24.6°C | 41.0% | 424.6hPa | 2.6V | 00:00:00 | 00:00:00 | 00:00:00 | |
| DM0DOS-11 | 2026-09-01 11:48:29 | 52.82456 | 8.80700 | 79° | 69km/h | 6954m | -4.4m/s | -25°C | 44.7% | 423.3hPa | 2.6V | 07:50:33 | 02:14:22 | 00:00:00 | |
| DL3AQ-11 | 2026-09-01 11:48:28 | 52.82461 | 8.80760 | 87° | 71km/h | 6945m | -4.6m/s | -24.9°C | 41.3% | 423.8hPa | 2.5V | 00:00:00 | 00:00:00 | 00:00:00 | |
| DL1XH-15 | 2026-09-01 11:48:27 | 52.82445 | 8.80617 | 76° | 68km/h | 6967m | -4.5m/s | -25.1°C | 45.1% | 422.6hPa | 2.5V | 07:50:36 | 02:14:19 | 00:00:00 | |
| BIOWL1-15 | 2026-09-01 11:48:26 | 52.82456 | 8.80700 | 80° | 69km/h | 6954m | -4.4m/s | -25°C | 47.7% | 423.3hPa | 2.6V | 07:52:19 | 02:14:22 | 00:00:00 | |
| DB0DAN | 2026-09-01 11:48:25 | 52.82456 | 8.80700 | 80° | 68km/h | 6954m | -4.4m/s | -25°C | 41.5% | 423.33hPa | 2.6V | 00:00:00 | 00:00:00 | 00:00:00 | |
| DL1XH-west | 2026-09-01 11:48:23 | 52.82449 | 8.80644 | 77° | 68km/h | 6963m | -4.4m/s | -25.1°C | 47.8% | 422.8hPa | 2.5V | 07:50:37 | 02:14:20 | 00:00:00 | |
| DO2JMG | 2026-09-01 11:48:17 | 52.82430 | 8.80474 | 86° | 73km/h | 6989m | -4.4m/s | -25.3°C | 47.8% | 421.3hPa | 2.5V | 07:52:19 | 02:14:14 | 00:00:00 | |
| BIOWL1-15 | 2026-09-01 11:48:13 | 52.82420 | 8.80258 | 81° | 73km/h | 7021m | -4.4m/s | -25.7°C | 48.9% | 419.4hPa | 2.6V | 07:52:19 | 02:14:07 | 00:00:00 | |
| DL1XH-west | 2026-09-01 11:48:12 | 52.82425 | 8.80319 | 85° | 75km/h | 7012m | -4.5m/s | -25.5°C | 48.6% | 420hPa | 2.6V | 07:51:28 | 02:14:09 | 00:00:00 | |
| DL1XH1-15 | 2026-09-01 11:48:12 | 52.82410 | 8.80170 | 76° | 68km/h | 7034m | -4.3m/s | -25.8°C | 47.4% | 418.8hPa | 2.5V | 07:50:51 | 02:14:04 | 00:00:00 | |
| DO2JMG | 2026-09-01 11:48:08 | 52.82410 | 8.80170 | 77° | 68km/h | 7034m | -4.3m/s | -25.8°C | 49.4% | 418.8hPa | 2.5V | 07:52:19 | 02:14:04 | 00:00:00 | |
| DL1XH-15 | 2026-09-01 11:48:07 | 52.82391 | 8.80032 | 82° | 71km/h | 7056m | -4m/s | -26°C | 48.3% | 417.4hPa | 2.5V | 07:50:56 | 02:13:59 | 00:00:00 | |
| BIOWL1-15 | 2026-09-01 11:48:03 | 52.82394 | 8.80061 | 79° | 69km/h | 7052m | -4.7m/s | -25.9°C | 50% | 417.7hPa | 2.5V | 07:52:19 | 02:14:00 | 00:00:00 | |
| AA1-15 | 2026-09-01 11:48:02 | 52.82389 | 8.79939 | 90° | 75km/h | 7070m | -4.7m/s | -26.1°C | 50.8% | 416.7hPa | 2.5V | 07:51:28 | 02:13:56 | 00:00:00 | |
| DL1XH-west | 2026-09-01 11:48:01 | 52.82389 | 8.80002 | 86° | 73km/h | 7061m | -4.3m/s | -26°C | 50.5% | 417.2hPa | 2.6V | 07:51:28 | 02:13:58 | 00:00:00 | |
| DL1XH1-15 | 2026-09-01 11:48:00 | 52.82389 | 8.79876 | 90° | 77km/h | 7080m | -4.7m/s | -26.2°C | 49.1% | 416.1hPa | 2.6V | 07:51:01 | 02:13:54 | 00:00:00 | |
| DO2JMG | 2026-09-01 11:47:56 | 52.82389 | 8.79843 | 90° | 77km/h | 7084m | -4.4m/s | -26.2°C | 51.1% | 415.8hPa | 2.6V | 07:52:19 | 02:13:53 | 00:00:00 | |
| DL1XH-15 | 2026-09-01 11:47:56 | 52.82383 | 8.79683 | 79° | 75km/h | 7108m | -4.6m/s | -26.4°C | 50.3% | 414.5hPa | 2.6V | 07:51:07 | 02:13:48 | 00:00:00 | |
| DL4XJ-10 | 2026-09-01 11:47:54 | 52.82388 | 8.79779 | 89° | 73km/h | 7095m | -4.7m/s | -24.7°C | 0% | 0hPa | 2.5V | 00:00:00 | 00:00:00 | 00:00:00 | |
| GOEST3-10 | 2026-09-01 11:47:52 | 52.82386 | 8.79714 | 83° | 77km/h | 7103m | -4.3m/s | -26.4°C | 50.1% | 414.7hPa | 2.5V | 00:00:00 | 02:13:49 | 00:00:00 | |
| DL1XH1-15 | 2026-09-01 11:47:51 | 52.82368 | 8.79558 | 79° | 78km/h | 7127m | -5.2m/s | -26.6°C | 50.8% | 413.4hPa | 2.5V | 07:51:11 | 02:13:44 | 00:00:00 | |
| AA1-15 | 2026-09-01 11:47:50 | 52.82379 | 8.79652 | 77° | 75km/h | 7113m | -4.4m/s | -26.5°C | 52.2% | 414.3hPa | 2.6V | 07:51:28 | 02:13:47 | 00:00:00 | |
| BIOWL1-15 | 2026-09-01 11:47:49 | 52.82375 | 8.79621 | 78° | 77km/h | 7117m | -5m/s | -26.5°C | 52.2% | 413.9hPa | 2.6V | 07:52:19 | 02:13:46 | 00:00:00 | |
| DJ2DS-15 | 2026-09-01 11:47:49 | 52.82371 | 8.79590 | 78° | 77km/h | 7122m | -5.2m/s | -26.6°C | 46.9% | 413.7hPa | 2.6V | 00:00:00 | 00:00:00 | 00:00:00 | |
| DL3AQ-11 | 2026-09-01 11:47:48 | 52.82368 | 8.79558 | 79° | 77km/h | 7127m | -5.2m/s | -26.6°C | 47.0% | 413.4hPa | 2.6V | 00:00:00 | 00:00:00 | 00:00:00 | |
| DM0DOS-11 | 2026-09-01 11:47:47 | 52.82363 | 8.79492 | 87° | 78km/h | 7137m | -4.8m/s | -26.7°C | 51.2% | 412.8hPa | 2.6V | 07:51:13 | 02:13:42 | 00:00:00 | |
| DO2JMG | 2026-09-01 11:47:45 | 52.82363 | 8.79492 | 88° | 78km/h | 7137m | -4.8m/s | -26.7°C | 52.5% | 412.9hPa | 2.6V | 07:52:19 | 02:13:42 | 00:00:00 | |
| D01LWL | 2026-09-01 11:47:44 | 52.82363 | 8.79460 | 91° | 75km/h | 7142m | -4.1m/s | -26.8°C | 47.7% | 412.6hPa | 2.5V | 00:00:00 | 00:00:00 | 00:00:00 | |
| DJ2DS-15 | 2026-09-01 11:47:43 | 52.82364 | 8.79429 | 96° | 64km/h | 7146m | -4.5m/s | -26.8°C | 51.9% | 412.3hPa | 2.5V | 00:00:00 | 02:13:40 | 00:00:00 | |
| DL1XH-15 | 2026-09-01 11:47:42 | 52.82367 | 8.79372 | 93° | 66km/h | 7155m | -4.5m/s | -26.8°C | 52.2% | 411.8hPa | 2.5V | 07:51:17 | 02:13:38 | 00:00:00 | |
| GOEST3-10 | 2026-09-01 11:47:42 | 52.82366 | 8.79400 | 95° | 64km/h | 7151m | -4.7m/s | -26.8°C | 52.0% | 412.0hPa | 2.5V | 00:00:00 | 02:13:39 | 00:00:00 | |
| BIOWL9-15 | 2026-09-01 11:47:41 | 52.82367 | 8.79320 | 87° | 60km/h | 7164m | -4.3m/s | -26.9°C | 49.1% | 411.3hPa | 2.5V | 00:00:00 | 00:00:00 | 00:00:00 | |
| DL1XH1-15 | 2026-09-01 11:47:40 | 52.82364 | 8.79268 | 79° | 66km/h | 7173m | -4.8m/s | -27°C | 53.2% | 410.7hPa | 2.5V | 07:51:21 | 02:13:34 | 00:00:00 | |
| DL1XH-west | 2026-09-01 11:47:40 | 52.82368 | 8.79346 | 91° | 62km/h | 7160m | -4.5m/s | -26.9°C | 53.4% | 411.5hPa | 2.6V | 07:51:28 | 02:13:37 | 00:00:00 | |
| AA1-15 | 2026-09-01 11:47:39 | 52.82367 | 8.79320 | 87° | 60km/h | 7164m | -4.3m/s | -26.9°C | 53.9% | 411.3hPa | 2.6V | 07:51:28 | 02:13:36 | 00:00:00 | |
| BIOWL1-15 | 2026-09-01 11:47:38 | 52.82366 | 8.79294 | 83° | 64km/h | 7168m | -4.3m/s | -26.9°C | 54.3% | 411hPa | 2.5V | 07:52:19 | 02:13:35 | 00:00:00 | |
| GOEST3-10 | 2026-09-01 11:47:37 | 52.82364 | 8.79267 | 80° | 68km/h | 7173m | -4.7m/s | -26.9°C | 53.2% | 410.7hPa | 2.5V | 07:51:00 | 00:00:00 | 00:00:00 | |
| DL1XH-15 | 2026-09-01 11:47:36 | 52.82340 | 8.79104 | 76° | 64km/h | 7200m | -4.5m/s | -27.1°C | 52.1% | 409.1hPa | 2.5V | 07:51:27 | 02:13:28 | 00:00:00 | |
| DM0DOS-11 | 2026-09-01 11:47:36 | 52.82357 | 8.79213 | 76° | 68km/h | 7182m | -4.4m/s | -27°C | 52.5% | 410.2hPa | 2.6V | 07:51:23 | 02:13:32 | 00:00:00 | |
| DO2JMG | 2026-09-01 11:47:34 | 52.82352 | 8.79185 | 76° | 68km/h | 7186m | -4.5m/s | -27°C | 53.7% | 409.9hPa | 2.6V | 07:52:19 | 02:13:31 | 00:00:00 | |
| DL1CLM-18 | 2026-09-01 11:47:34 | 52.82352 | 8.79185 | 77° | 68km/h | 7186m | -4.5m/s | -27.0°C | 48.0% | 409.9hPa | 2.5V | 07:51:00 | 00:00:00 | 00:00:00 | |
| DF5WG-10 | 2026-09-01 11:47:33 | 52.82344 | 8.79130 | 76° | 64km/h | 7195m | -4.8m/s | -27.1°C | 51.6% | 409.3hPa | 2.5V | 00:00:00 | 02:13:29 | 00:00:00 | |
| DL3AQ-11 | 2026-09-01 11:47:32 | 52.82340 | 8.79104 | 76° | 62km/h | 7200m | -4.5m/s | -27.1°C | 48.2% | 409.1hPa | 2.5V | 00:00:00 | 00:00:00 | 00:00:00 | |
| DL1XH1-15 | 2026-09-01 11:47:31 | 52.82333 | 8.79006 | 90° | 60km/h | 7218m | -4.2m/s | -27.3°C | 56.2% | 408hPa | 2.5V | 07:51:31 | 02:13:24 | 00:00:00 | |
| DM0DOS-11 | 2026-09-01 11:47:30 | 52.82333 | 8.78954 | 92° | 66km/h | 7226m | -4.6m/s | -27.3°C | 55.9% | 407.5hPa | 2.5V | 07:51:33 | 02:13:22 | 00:00:00 | |
| DL1XH-west | 2026-09-01 11:47:29 | 52.82334 | 8.78926 | 93° | 68km/h | 7231m | -4.4m/s | -27.4°C | 57.2% | 407.3hPa | 2.6V | 07:52:19 | 02:13:21 | 00:00:00 | |
| AA1-15 | 2026-09-01 11:47:28 | 52.82333 | 8.79031 | 86° | 58km/h | 7213m | -4.2m/s | -27.2°C | 57% | 408.3hPa | 2.6V | 07:52:19 | 02:13:25 | 00:00:00 | |
| BIOWL1-15 | 2026-09-01 11:47:27 | 52.82333 | 8.79006 | 90° | 60km/h | 7218m | -4.2m/s | -27.3°C | 57.3% | 408hPa | 2.5V | 07:52:19 | 02:13:24 | 00:00:00 | |
| DK9SH | 2026-09-01 11:47:26 | 52.82332 | 8.79006 | 91° | 60km/h | 7218m | -4.2m/s | -27.3°C | 52.1% | 408.0hPa | 2.5V | 07:52:00 | 00:00:00 | 00:00:00 | |
| DJ2DS-15 | 2026-09-01 11:47:23 | 52.82335 | 8.78897 | 94° | 66km/h | 7235m | -4.2m/s | -27.4°C | 55.6% | 407.0hPa | 2.5V | 00:00:00 | 00:00:00 | 00:00:00 | |
| DL1XH-15 | 2026-09-01 11:47:22 | 52.82337 | 8.78839 | 92° | 69km/h | 7244m | -4.2m/s | -27.4°C | 55.4% | 406.6hPa | 2.5V | 07:51:37 | 02:13:18 | 00:00:00 | |
| DL1XH1-15 | 2026-09-01 11:47:20 | 52.82341 | 8.78731 | 93° | 62km/h | 7262m | -4.4m/s | -27.6°C | 55.9% | 405.5hPa | 2.5V | 07:51:41 | 02:13:14 | 00:00:00 | |
| AA1-15 | 2026-09-01 11:47:17 | 52.82341 | 8.78731 | 93° | 62km/h | 7262m | -4.4m/s | -27.6°C | 57.4% | 405.5hPa | 2.5V | 07:52:19 | 02:13:14 | 00:00:00 | |
| GOEST3-10 | 2026-09-01 11:47:17 | 52.82341 | 8.78731 | 94° | 64km/h | 7262m | -4.3m/s | -27.5°C | 55.9% | 405.4hPa | 2.6V | 00:00:00 | 00:00:00 | 00:00:00 | |
| DM0DOS-11 | 2026-09-01 11:47:16 | 52.82342 | 8.78678 | 92° | 64km/h | 7270m | -4.2m/s | -27.7°C | 56.1% | 405hPa | 2.6V | 07:51:43 | 02:13:12 | 00:00:00 | |
| DL1XH-15 | 2026-09-01 11:47:16 | 52.82346 | 8.78568 | 93° | 64km/h | 7288m | -4.7m/s | -27.8°C | 54.6% | 404hPa | 2.6V | 07:51:47 | 02:13:08 | 00:00:00 | |
| DF8AY | 2026-09-01 11:47:15 | 52.82343 | 8.78651 | 93° | 66km/h | 7274m | -4.6m/s | -27.7°C | 57.6% | 404.8hPa | 2.6V | 07:52:19 | 02:13:11 | 00:00:00 | |
| DL1XH-west | 2026-09-01 11:47:13 | 52.82344 | 8.78623 | 92° | 66km/h | 7279m | -4.5m/s | -27.7°C | 57.4% | 404.5hPa | 2.5V | 07:52:19 | 02:13:10 | 00:00:00 | |
| DJ2DS-15 | 2026-09-01 11:47:13 | 52.82345 | 8.78596 | 93° | 64km/h | 7284m | -4.8m/s | -27.8°C | 50.7% | 404.2hPa | 2.5V | 00:00:00 | 00:00:00 | 00:00:00 | |
| GOEST3-10 | 2026-09-01 11:47:12 | 52.82345 | 8.78595 | 94° | 64km/h | 7284m | -4.7m/s | -27.7°C | 54.8% | 404.2hPa | 2.5V | 00:00:00 | 02:13:09 | 00:00:00 | |
| DM0DOS-11 | 2026-09-01 11:47:10 | 52.82355 | 8.78380 | 91° | 71km/h | 7321m | -4.7m/s | -28.1°C | 55.7% | 402.1hPa | 2.6V | 07:51:54 | 02:13:01 | 00:00:00 | |
| AA1-15 | 2026-09-01 11:47:07 | 52.82351 | 8.78465 | 96° | 64km/h | 7307m | -4.7m/s | -27.9°C | 57% | 402.9hPa | 2.5V | 07:52:19 | 02:13:04 | 00:00:00 | |
| DK9SH | 2026-09-01 11:47:06 | 52.82351 | 8.78465 | 96° | 64km/h | 7308m | -4.7m/s | -27.9°C | 51.0% | 402.9hPa | 2.5V | 07:52:00 | 00:00:00 | 00:00:00 | |
| DL4BBY-15 | 2026-09-01 11:47:05 | 52.82354 | 8.78410 | 94° | 69km/h | 7317m | -4.5m/s | -26.5°C | 0% | 0hPa | 2.5V | 00:00:00 | 00:00:00 | 00:00:00 | |
| DL1XH-15 | 2026-09-01 11:47:04 | 52.82353 | 8.78288 | 84° | 73km/h | 7335m | -4.7m/s | -28.2°C | 56.8% | 401.3hPa | 2.5V | 07:51:57 | 02:12:58 | 00:00:00 | |
| DJ2DS-15 | 2026-09-01 11:47:04 | 52.82355 | 8.78350 | 90° | 69km/h | 7326m | -4.7m/s | -28.1°C | 56.1% | 401.7hPa | 2.6V | 00:00:00 | 02:13:00 | 00:00:00 | |
| GOEST3-10 | 2026-09-01 11:47:02 | 52.82354 | 8.78319 | 88° | 73km/h | 7331m | -4.7m/s | -28.2°C | 56.5% | 401.5hPa | 2.5V | 00:00:00 | 02:12:59 | 00:00:00 | |
| DF8AY | 2026-09-01 11:47:02 | 52.82354 | 8.78319 | 88° | 75km/h | 7330m | -4.8m/s | -28.2°C | 57.4% | 401.6hPa | 2.5V | 07:52:19 | 02:12:59 | 00:00:00 | |
| DF5WG-10 | 2026-09-01 11:47:01 | 52.82353 | 8.78288 | 85° | 71km/h | 7335m | -4.6m/s | -28.2°C | 56.8% | 401.3hPa | 2.5V | 00:00:00 | 02:12:58 | 00:00:00 | |
| SMARD9-10 | 2026-09-01 11:47:00 | 52.82353 | 8.78288 | 86° | 73km/h | 7335m | -4.7m/s | -28.2°C | 52.5% | 401.3hPa | 2.5V | 00:00:00 | 00:00:00 | 00:00:00 | |
| DM0DOS-11 | 2026-09-01 11:46:59 | 52.82333 | 8.78083 | 81° | 73km/h | 7366m | -4.7m/s | -28.6°C | 57.9% | 399.5hPa | 2.5V | 07:52:04 | 02:12:51 | 00:00:00 | |
| AA1-15 | 2026-09-01 11:46:56 | 52.82339 | 8.78142 | 79° | 71km/h | 7358m | -4.5m/s | -28.5°C | 58.9% | 400hPa | 2.5V | 07:52:19 | 02:12:53 | 00:00:00 | |
| DB0DAN | 2026-09-01 11:46:55 | 52.82336 | 8.78113 | 81° | 68km/h | 7362m | -4.3m/s | -28.5°C | 53.4% | 399.77hPa | 2.5V | 00:00:00 | 00:00:00 | 00:00:00 | |
| DF8AY | 2026-09-01 11:46:52 | 52.82324 | 8.77995 | 79° | 69km/h | 7380m | -4.4m/s | -28.7°C | 60.2% | 398.8hPa | 2.6V | 07:52:19 | 02:12:48 | 00:00:00 | |
| DL3AQ-11 | 2026-09-01 11:46:52 | 52.82324 | 8.77995 | 78° | 68km/h | 7380m | -4.4m/s | -28.7°C | 54.4% | 398.8hPa | 2.6V | 00:00:00 | 00:00:00 | 00:00:00 | |
| DF5WG-10 | 2026-09-01 11:46:51 | 52.82324 | 8.77995 | 79° | 66km/h | 7380m | -4.3m/s | -28.6°C | 58.8% | 398.7hPa | 2.6V | 00:00:00 | 02:12:48 | 00:00:00 | |
| DL1XH1-15 | 2026-09-01 11:46:50 | 52.82309 | 8.77888 | 75° | 64km/h | 7399m | -4.7m/s | -28.8°C | 59.7% | 397.7hPa | 2.6V | 07:52:11 | 02:12:44 | 00:00:00 | |
| DM0DOS-11 | 2026-09-01 11:46:49 | 52.82296 | 8.77810 | 73° | 66km/h | 7413m | -5.1m/s | -29°C | 60.3% | 396.9hPa | 2.6V | 07:52:14 | 02:12:41 | 00:00:00 | |
| DD8BA-10 | 2026-09-01 11:46:48 | 52.82313 | 8.77914 | 77° | 66km/h | 7394m | -4.8m/s | -28.8°C | 59.6% | 397.9hPa | 2.5V | 00:00:00 | 00:00:00 | 00:00:00 | |
| DL1XH-15 | 2026-09-01 11:46:47 | 52.82284 | 8.77729 | 78° | 69km/h | 7428m | -4.8m/s | -29.1°C | 61.2% | 396.1hPa | 2.5V | 07:52:17 | 02:12:38 | 00:00:00 | |
| BUE01 | 2026-09-01 11:46:46 | 52.82305 | 8.77862 | 74° | 64km/h | 7404m | -4.9m/s | -28.9°C | 55.4% | 397.4hPa | 2.5V | 00:00:00 | 00:00:00 | 00:00:00 | |
| AA1-15 | 2026-09-01 11:46:46 | 52.82305 | 8.77862 | 75° | 64km/h | 7404m | -4.9m/s | -28.9°C | 61.5% | 397.4hPa | 2.5V | 07:52:19 | 02:12:43 | 00:00:00 | |
| DL1XH-west | 2026-09-01 11:46:41 | 52.82284 | 8.77729 | 79° | 69km/h | 7428m | -4.8m/s | -29.1°C | 62.8% | 396.1hPa | 2.5V | 07:52:19 | 02:12:38 | 00:00:00 | |
| DF8AY | 2026-09-01 11:46:40 | 52.82279 | 8.77671 | 86° | 69km/h | 7437m | -4.6m/s | -29.2°C | 63% | 395.5hPa | 2.6V | 07:52:19 | 02:12:36 | 00:00:00 | |
| DL1XH1-15 | 2026-09-01 11:46:40 | 52.82278 | 8.77614 | 90° | 68km/h | 7446m | -4.6m/s | -29.2°C | 61.5% | 395hPa | 2.5V | 07:52:21 | 02:12:34 | 00:00:00 | |
| BIOWL1-15 | 2026-09-01 11:46:39 | 52.82279 | 8.77614 | 91° | 68km/h | 7446m | -4.6m/s | -29.2°C | 63.3% | 395hPa | 2.5V | 07:53:10 | 02:12:34 | 00:00:00 | |
| DM0DOS-11 | 2026-09-01 11:46:39 | 52.82280 | 8.77531 | 91° | 66km/h | 7460m | -4.8m/s | -29.3°C | 62.1% | 394.2hPa | 2.6V | 07:52:24 | 02:12:31 | 00:00:00 | |
| AA1-15 | 2026-09-01 11:46:35 | 52.82280 | 8.77559 | 92° | 66km/h | 7455m | -4.8m/s | -29.3°C | 63.6% | 394.6hPa | 2.6V | 07:53:10 | 02:12:32 | 00:00:00 | |
| DL4BBY-15 | 2026-09-01 11:46:35 | 52.82279 | 8.77558 | 92° | 66km/h | 7455m | -4.7m/s | -27.8°C | 0% | 0hPa | 2.5V | 00:00:00 | 00:00:00 | 00:00:00 | |
| DL1XH-15 | 2026-09-01 11:46:34 | 52.82282 | 8.77452 | 92° | 64km/h | 7474m | -4.7m/s | -29.5°C | 62.6% | 393.6hPa | 2.5V | 07:52:27 | 02:12:28 | 00:00:00 | |
| DL1XH-west | 2026-09-01 11:46:30 | 52.82283 | 8.77424 | 92° | 66km/h | 7478m | -4.6m/s | -29.5°C | 64.2% | 393.3hPa | 2.6V | 07:53:10 | 02:12:27 | 00:00:00 | |
| DF8AY | 2026-09-01 11:46:27 | 52.82284 | 8.77339 | 91° | 69km/h | 7492m | -4.7m/s | -29.7°C | 64.3% | 392.4hPa | 2.5V | 07:53:10 | 02:12:24 | 00:00:00 | |
| GOEST3-10 | 2026-09-01 11:46:27 | 52.82284 | 8.77339 | 92° | 64km/h | 7492m | -4.7m/s | -29.6°C | 63.4% | 392.4hPa | 2.5V | 00:00:00 | 00:00:00 | 00:00:00 | |
| DM0DOS-11 | 2026-09-01 11:46:26 | 52.82286 | 8.77257 | 93° | 60km/h | 7506m | -4.6m/s | -29.8°C | 64.6% | 391.7hPa | 2.6V | 07:52:34 | 02:12:21 | 00:00:00 | |
| DB0DAN | 2026-09-01 11:46:25 | 52.82285 | 8.77283 | 92° | 60km/h | 7501m | -4.5m/s | -29.8°C | 59.3% | 391.94hPa | 2.5V | 00:00:00 | 00:00:00 | 00:00:00 | |
| DL1XH-15 | 2026-09-01 11:46:24 | 52.82288 | 8.77184 | 93° | 58km/h | 7519m | -5m/s | -29.9°C | 65.5% | 391hPa | 2.5V | 07:52:37 | 02:12:18 | 00:00:00 | |
| BIOWL1-15 | 2026-09-01 11:46:24 | 52.82286 | 8.77257 | 93° | 60km/h | 7506m | -4.6m/s | -29.8°C | 64.6% | 391.7hPa | 2.6V | 07:53:10 | 02:12:21 | 00:00:00 | |
| DL1XH-west | 2026-09-01 11:46:20 | 52.82289 | 8.77159 | 93° | 60km/h | 7524m | -4.7m/s | -30°C | 66.2% | 390.8hPa | 2.5V | 07:53:10 | 02:12:17 | 00:00:00 | |
| DM0DOS-11 | 2026-09-01 11:46:19 | 52.82291 | 8.76993 | 89° | 69km/h | 7551m | -4.7m/s | -30.3°C | 65.9% | 389.2hPa | 2.5V | 07:52:44 | 02:12:11 | 00:00:00 | |
| DF8AY | 2026-09-01 11:46:17 | 52.82291 | 8.76907 | 90° | 69km/h | 7565m | -4.6m/s | -30.4°C | 67.6% | 388.4hPa | 2.6V | 07:53:10 | 02:12:08 | 00:00:00 | |
| BIOWL1-15 | 2026-09-01 11:46:15 | 52.82294 | 8.76798 | 95° | 62km/h | 7583m | -4.9m/s | -30.5°C | 66.9% | 387.4hPa | 2.5V | 07:53:10 | 02:12:04 | 00:00:00 | |
| DO2JMG | 2026-09-01 11:46:14 | 52.82291 | 8.76993 | 90° | 69km/h | 7551m | -4.7m/s | -30.3°C | 68.2% | 389.2hPa | 2.5V | 07:53:10 | 02:12:11 | 00:00:00 | |
| DL1XH-15 | 2026-09-01 11:46:14 | 52.82291 | 8.76907 | 90° | 69km/h | 7565m | -4.6m/s | -30.4°C | 65.6% | 388.4hPa | 2.6V | 07:52:47 | 02:12:08 | 00:00:00 | |
| AA1-15 | 2026-09-01 11:46:13 | 52.82291 | 8.76964 | 90° | 69km/h | 7556m | -4.8m/s | -30.3°C | 68.2% | 388.9hPa | 2.5V | 07:53:10 | 02:12:10 | 00:00:00 | |
| GOEST3-10 | 2026-09-01 11:46:12 | 52.82290 | 8.76935 | 90° | 68km/h | 7561m | -4.6m/s | -30.3°C | 65.7% | 388.5hPa | 2.6V | 00:00:00 | 02:12:09 | 00:00:00 | |
| DB0DAN | 2026-09-01 11:46:10 | 52.82291 | 8.76878 | 91° | 64km/h | 7569m | -4.7m/s | -30.4°C | 60.7% | 388.13hPa | 2.6V | 00:00:00 | 00:00:00 | 00:00:00 | |
| DL1XH-west | 2026-09-01 11:46:10 | 52.82291 | 8.76878 | 92° | 68km/h | 7569m | -4.7m/s | -30.4°C | 67.3% | 388.1hPa | 2.6V | 07:53:10 | 02:12:07 | 00:00:00 | |
| DO2JMG | 2026-09-01 11:46:04 | 52.82298 | 8.76724 | 95° | 57km/h | 7598m | -5.1m/s | -30.6°C | 68.8% | 386.6hPa | 2.6V | 07:53:10 | 02:12:01 | 00:00:00 | |
| DF8AY | 2026-09-01 11:46:03 | 52.82299 | 8.76702 | 93° | 55km/h | 7603m | -4.9m/s | -30.7°C | 69.6% | 386.3hPa | 2.5V | 07:53:10 | 02:12:00 | 00:00:00 | |
| BIOWL1-15 | 2026-09-01 11:46:03 | 52.82299 | 8.76658 | 85° | 53km/h | 7612m | -4.7m/s | -30.9°C | 70.7% | 385.9hPa | 2.5V | 07:53:10 | 02:11:58 | 00:00:00 | |
| DL1XH-15 | 2026-09-01 11:46:02 | 52.82299 | 8.76658 | 85° | 53km/h | 7612m | -4.7m/s | -30.9°C | 70.1% | 385.9hPa | 2.5V | 07:52:57 | 02:11:58 | 00:00:00 | |
| AA1-15 | 2026-09-01 11:46:02 | 52.82300 | 8.76679 | 90° | 53km/h | 7608m | -4.7m/s | -30.8°C | 70.3% | 386.1hPa | 2.5V | 07:53:10 | 02:11:59 | 00:00:00 | |
| DL1XH-west | 2026-09-01 11:45:59 | 52.82295 | 8.76613 | 77° | 57km/h | 7621m | -4.7m/s | -31°C | 71.3% | 385.3hPa | 2.6V | 07:53:10 | 02:11:56 | 00:00:00 | |
| DL3AQ-11 | 2026-09-01 11:45:59 | 52.82291 | 8.76590 | 74° | 57km/h | 7625m | -4.7m/s | -31.1°C | 64.8% | 385.1hPa | 2.6V | 00:00:00 | 00:00:00 | 00:00:00 | |
| DD8BA-10 | 2026-09-01 11:45:58 | 52.82291 | 8.76590 | 75° | 53km/h | 7626m | -4.7m/s | -31.0°C | 70.2% | 385.1hPa | 2.6V | 00:00:00 | 00:00:00 | 00:00:00 | |
| DL1XH-15 | 2026-09-01 11:45:57 | 52.82274 | 8.76439 | 92° | 51km/h | 7659m | -4.3m/s | -31.4°C | 69.9% | 383.3hPa | 2.5V | 07:53:07 | 02:11:48 | 00:00:00 | |
| DB0DAN | 2026-09-01 11:45:55 | 52.82280 | 8.76522 | 76° | 51km/h | 7640m | -4.8m/s | -31.1°C | 64.8% | 384.32hPa | 2.5V | 00:00:00 | 00:00:00 | 00:00:00 | |
| DO2JMG | 2026-09-01 11:45:53 | 52.82275 | 8.76480 | 84° | 49km/h | 7650m | -4.7m/s | -31.3°C | 70.9% | 383.8hPa | 2.6V | 07:53:10 | 02:11:50 | 00:00:00 | |
| DF8AY | 2026-09-01 11:45:53 | 52.82274 | 8.76460 | 89° | 49km/h | 7654m | -4.8m/s | -31.4°C | 70.5% | 383.6hPa | 2.6V | 07:53:10 | 02:11:49 | 00:00:00 | |
| AA1-15 | 2026-09-01 11:45:51 | 52.82274 | 8.76439 | 92° | 51km/h | 7659m | -4.4m/s | -31.4°C | 69.9% | 383.3hPa | 2.5V | 07:53:10 | 02:11:48 | 00:00:00 | |
| DL1XH1-15 | 2026-09-01 11:45:50 | 52.82278 | 8.76343 | 91° | 64km/h | 7677m | -4.3m/s | -31.5°C | 69.3% | 382.4hPa | 2.6V | 07:53:11 | 02:11:44 | 00:00:00 | |
| BIOWL1-15 | 2026-09-01 11:45:50 | 52.82277 | 8.76369 | 93° | 60km/h | 7673m | -4.8m/s | -31.5°C | 68.9% | 382.5hPa | 2.6V | 07:53:10 | 02:11:45 | 00:00:00 | |
| DL3AQ-11 | 2026-09-01 11:45:49 | 52.82278 | 8.76343 | 91° | 64km/h | 7677m | -4.3m/s | -31.5°C | 63.8% | 382.4hPa | 2.5V | 00:00:00 | 00:00:00 | 00:00:00 | |
| BUE01 | 2026-09-01 11:45:44 | 52.82276 | 8.76258 | 84° | 69km/h | 7690m | -4.9m/s | -31.6°C | 61.7% | 381.6hPa | 2.5V | 00:00:00 | 00:00:00 | 00:00:00 | |
| DO2JMG | 2026-09-01 11:45:43 | 52.82274 | 8.76228 | 84° | 71km/h | 7695m | -4.8m/s | -31.7°C | 67.6% | 381.3hPa | 2.5V | 07:54:01 | 02:11:40 | 00:00:00 | |
| DF8AY | 2026-09-01 11:45:41 | 52.82270 | 8.76168 | 85° | 71km/h | 7704m | -4.9m/s | -31.8°C | 68.3% | 380.8hPa | 2.6V | 07:54:01 | 02:11:38 | 00:00:00 | |
| AA1-15 | 2026-09-01 11:45:40 | 52.82269 | 8.76139 | 87° | 69km/h | 7709m | -5.1m/s | -31.8°C | 68.9% | 380.6hPa | 2.6V | 07:54:01 | 02:11:37 | 00:00:00 | |
| DL1XH1-15 | 2026-09-01 11:45:40 | 52.82269 | 8.76059 | 91° | 58km/h | 7723m | -4.9m/s | -31.9°C | 69.8% | 379.8hPa | 2.5V | 07:53:21 | 02:11:34 | 00:00:00 | |
| DF5WG-10 | 2026-09-01 11:45:40 | 52.82269 | 8.76139 | 88° | 57km/h | 7709m | -5.0m/s | -31.8°C | 68.9% | 380.5hPa | 2.6V | 00:00:00 | 02:11:37 | 00:00:00 | |
| DM0DOS-11 | 2026-09-01 11:45:39 | 52.82268 | 8.75992 | 86° | 53km/h | 7736m | -4.3m/s | -32°C | 70.7% | 379.1hPa | 2.6V | 07:53:24 | 02:11:31 | 00:00:00 | |
| DL1XH-west | 2026-09-01 11:45:38 | 52.82269 | 8.76084 | 91° | 62km/h | 7718m | -4.4m/s | -31.9°C | 69.4% | 380hPa | 2.5V | 07:54:01 | 02:11:35 | 00:00:00 | |
| BIOWL1-15 | 2026-09-01 11:45:37 | 52.82264 | 8.75906 | 86° | 51km/h | 7754m | -4.6m/s | -32.2°C | 71.5% | 378.1hPa | 2.6V | 07:54:01 | 02:11:27 | 00:00:00 | |
| DO2JMG | 2026-09-01 11:45:34 | 52.82267 | 8.75970 | 85° | 53km/h | 7741m | -4.2m/s | -32.1°C | 70.8% | 378.8hPa | 2.5V | 07:54:01 | 02:11:30 | 00:00:00 | |
| BIOWL1-15 | 2026-09-01 11:45:31 | 52.82260 | 8.75845 | 84° | 47km/h | 7767m | -4.7m/s | -32.4°C | 71.7% | 377.4hPa | 2.5V | 07:54:01 | 02:11:24 | 00:00:00 | |
| DL1XH1-15 | 2026-09-01 11:45:30 | 52.82260 | 8.75845 | 83° | 47km/h | 7767m | -4.7m/s | -32.4°C | 71.9% | 377.4hPa | 2.5V | 07:53:31 | 02:11:24 | 00:00:00 | |
| DF8AY | 2026-09-01 11:45:30 | 52.82256 | 8.75804 | 80° | 49km/h | 7777m | -5m/s | -32.5°C | 71.2% | 376.8hPa | 2.5V | 07:54:01 | 02:11:22 | 00:00:00 | |
| AA1-15 | 2026-09-01 11:45:29 | 52.82263 | 8.75885 | 84° | 49km/h | 7759m | -4.2m/s | -32.3°C | 71.5% | 377.7hPa | 2.6V | 07:54:01 | 02:11:26 | 00:00:00 | |
| DL1XH-west | 2026-09-01 11:45:28 | 52.82261 | 8.75865 | 85° | 49km/h | 7763m | -4.5m/s | -32.3°C | 71.7% | 377.5hPa | 2.6V | 07:54:01 | 02:11:25 | 00:00:00 | |
| DD8BA-10 | 2026-09-01 11:45:28 | 52.82261 | 8.75865 | 85° | 57km/h | 7763m | -4.4m/s | -32.3°C | 71.8% | 377.4hPa | 2.6V | 00:00:00 | 00:00:00 | 00:00:00 | |
| DM0DOS-11 | 2026-09-01 11:45:27 | 52.82254 | 8.75783 | 75° | 53km/h | 7782m | -4.9m/s | -32.5°C | 71.2% | 376.5hPa | 2.6V | 07:53:34 | 02:11:21 | 00:00:00 | |
| DC6BW-12 | 2026-09-01 11:45:26 | 52.82258 | 8.75824 | 82° | 49km/h | 7772m | -4.9m/s | -32.4°C | 66.0% | 377.0hPa | 2.5V | 07:54:00 | 00:00:00 | 00:00:00 | |
| DL1XH-15 | 2026-09-01 11:45:25 | 52.82243 | 8.75713 | 77° | 64km/h | 7795m | -4.7m/s | -32.6°C | 71.1% | 375.8hPa | 2.5V | 07:53:37 | 02:11:18 | 00:00:00 | |
| DO2JMG | 2026-09-01 11:45:22 | 52.82246 | 8.75738 | 75° | 58km/h | 7791m | -4.7m/s | -32.6°C | 71.1% | 376hPa | 2.6V | 07:54:01 | 02:11:19 | 00:00:00 | |
| DL1XH1-15 | 2026-09-01 11:45:20 | 52.82231 | 8.75601 | 80° | 69km/h | 7813m | -5.3m/s | -32.8°C | 71% | 374.8hPa | 2.6V | 07:53:41 | 02:11:14 | 00:00:00 | |
| DF8AY | 2026-09-01 11:45:19 | 52.82225 | 8.75546 | 78° | 66km/h | 7823m | -5.1m/s | -32.9°C | 71.4% | 374.3hPa | 2.5V | 07:54:01 | 02:11:12 | 00:00:00 | |
| DL1XH-west | 2026-09-01 11:45:19 | 52.82228 | 8.75573 | 79° | 68km/h | 7818m | -5.3m/s | -32.8°C | 71.3% | 374.6hPa | 2.6V | 07:54:01 | 02:11:13 | 00:00:00 | |
| BIOWL1-15 | 2026-09-01 11:45:18 | 52.82231 | 8.75601 | 81° | 69km/h | 7813m | -5.3m/s | -32.8°C | 71.1% | 374.8hPa | 2.6V | 07:54:01 | 02:11:14 | 00:00:00 | |
| DO9LL-15 | 2026-09-01 11:45:14 | 52.82221 | 8.75520 | 78° | 64km/h | 7828m | -4.6m/s | -32.9°C | 71.4% | 374.0hPa | 2.6V | 00:00:00 | 02:11:11 | 00:00:00 | |
| DL1XH-15 | 2026-09-01 11:45:13 | 52.82209 | 8.75443 | 72° | 62km/h | 7842m | -4.7m/s | -33°C | 71.4% | 373.3hPa | 2.6V | 07:53:47 | 02:11:08 | 00:00:00 | |
| DO2JMG | 2026-09-01 11:45:12 | 52.82214 | 8.75468 | 76° | 64km/h | 7837m | -4.8m/s | -33°C | 71.6% | 373.6hPa | 2.6V | 07:54:01 | 02:11:09 | 00:00:00 | |
| GOEST3-10 | 2026-09-01 11:45:12 | 52.82214 | 8.75468 | 76° | 60km/h | 7837m | -4.8m/s | -32.9°C | 71.3% | 373.5hPa | 2.6V | 00:00:00 | 02:11:09 | 00:00:00 | |
| DB0DAN | 2026-09-01 11:45:10 | 52.82205 | 8.75418 | 75° | 58km/h | 7846m | -5.2m/s | -33.1°C | 65.7% | 373.11hPa | 2.6V | 00:00:00 | 00:00:00 | 00:00:00 | |
| AA1-15 | 2026-09-01 11:45:08 | 52.82190 | 8.75260 | 90° | 55km/h | 7880m | -4.8m/s | -33.4°C | 71.3% | 371.2hPa | 2.5V | 07:54:01 | 02:11:00 | 00:00:00 | |
| DM0DOS-11 | 2026-09-01 11:45:07 | 52.82190 | 8.75282 | 89° | 55km/h | 7875m | -4.7m/s | -33.3°C | 71.9% | 371.6hPa | 2.6V | 07:53:54 | 02:11:01 | 00:00:00 | |
| DL1XH-west | 2026-09-01 11:45:07 | 52.82192 | 8.75326 | 83° | 51km/h | 7866m | -5m/s | -33.3°C | 71.6% | 372.1hPa | 2.6V | 07:54:01 | 02:11:03 | 00:00:00 | |
| DO2JMG | 2026-09-01 11:45:02 | 52.82191 | 8.75237 | 95° | 57km/h | 7885m | -5.2m/s | -33.4°C | 71.3% | 371.1hPa | 2.5V | 07:54:01 | 02:10:59 | 00:00:00 | |
| DF5WG-10 | 2026-09-01 11:45:00 | 52.82193 | 8.75187 | 93° | 71km/h | 7894m | -4.9m/s | -33.5°C | 71.8% | 370.5hPa | 2.6V | 00:00:00 | 02:10:57 | 00:00:00 | |
| DM0DOS-11 | 2026-09-01 11:44:59 | 52.82198 | 8.74984 | 89° | 77km/h | 7926m | -4.9m/s | -33.8°C | 69% | 368.8hPa | 2.6V | 07:54:05 | 02:10:50 | 00:00:00 | |
| DF8AY | 2026-09-01 11:44:58 | 52.82195 | 8.75133 | 94° | 69km/h | 7903m | -4.9m/s | -33.6°C | 71% | 370.1hPa | 2.6V | 07:54:01 | 02:10:55 | 00:00:00 | |
| DD8BA-10 | 2026-09-01 11:44:58 | 52.82195 | 8.75133 | 94° | 73km/h | 7904m | -4.9m/s | -33.6°C | 71.6% | 370.0hPa | 2.6V | 07:54:00 | 00:00:00 | 00:00:00 | |
| GOEST3-10 | 2026-09-01 11:44:57 | 52.82196 | 8.75104 | 93° | 73km/h | 7908m | -4.9m/s | -33.6°C | 71.5% | 369.7hPa | 2.5V | 07:54:00 | 00:00:00 | 00:00:00 | |
| DL1XH-15 | 2026-09-01 11:44:56 | 52.82197 | 8.74919 | 87° | 78km/h | 7936m | -5.1m/s | -33.9°C | 68.6% | 368.3hPa | 2.5V | 07:54:07 | 02:10:48 | 00:00:00 | |
| DL1XH-west | 2026-09-01 11:44:56 | 52.82197 | 8.75075 | 93° | 73km/h | 7913m | -4.5m/s | -33.7°C | 70.4% | 369.5hPa | 2.5V | 07:54:52 | 02:10:53 | 00:00:00 | |
| AA1-15 | 2026-09-01 11:44:54 | 52.82198 | 8.74984 | 90° | 77km/h | 7926m | -4.9m/s | -33.8°C | 68.5% | 368.8hPa | 2.6V | 07:54:52 | 02:10:50 | 00:00:00 | |
| BIOWL1-15 | 2026-09-01 11:44:52 | 52.82198 | 8.74952 | 89° | 78km/h | 7931m | -5.3m/s | -33.8°C | 68.4% | 368.5hPa | 2.5V | 07:54:52 | 02:10:49 | 00:00:00 | |
| DO2JMG | 2026-09-01 11:44:51 | 52.82197 | 8.74919 | 87° | 78km/h | 7936m | -5.1m/s | -33.9°C | 68% | 368.3hPa | 2.5V | 07:54:52 | 02:10:48 | 00:00:00 | |
| DF8AY | 2026-09-01 11:44:47 | 52.82188 | 8.74797 | 80° | 68km/h | 7954m | -5.1m/s | -34°C | 65.7% | 367.2hPa | 2.5V | 07:56:34 | 02:10:44 | 00:00:00 | |
| DM0DOS-11 | 2026-09-01 11:44:46 | 52.82180 | 8.74719 | 83° | 58km/h | 7968m | -5m/s | -34.1°C | 64% | 366.6hPa | 2.5V | 07:54:14 | 02:10:41 | 00:00:00 | |
| DL1XH-west | 2026-09-01 11:44:45 | 52.82182 | 8.74744 | 81° | 62km/h | 7964m | -4.5m/s | -34°C | 64.7% | 366.8hPa | 2.6V | 07:54:52 | 02:10:42 | 00:00:00 | |
| AA1-15 | 2026-09-01 11:44:43 | 52.82177 | 8.74671 | 83° | 58km/h | 7978m | -4.8m/s | -34.2°C | 64.2% | 366.1hPa | 2.6V | 07:54:52 | 02:10:39 | 00:00:00 | |
| DO2JMG | 2026-09-01 11:44:42 | 52.82175 | 8.74646 | 82° | 60km/h | 7983m | -4.7m/s | -34.2°C | 64% | 365.9hPa | 2.6V | 07:54:52 | 02:10:38 | 00:00:00 | |
| DL1XH1-15 | 2026-09-01 11:44:41 | 52.82166 | 8.74551 | 84° | 57km/h | 8002m | -4.9m/s | -34.4°C | 62.6% | 364.8hPa | 2.6V | 07:54:21 | 02:10:34 | 00:00:00 | |
| DM0DOS-11 | 2026-09-01 11:44:40 | 52.82165 | 8.74480 | 93° | 58km/h | 8017m | -5.1m/s | -34.5°C | 61.8% | 364.1hPa | 2.5V | 07:54:24 | 02:10:31 | 00:00:00 | |
| DF8AY | 2026-09-01 11:44:38 | 52.82165 | 8.74528 | 87° | 57km/h | 8006m | -5.2m/s | -34.4°C | 62.5% | 364.6hPa | 2.5V | 07:56:34 | 02:10:33 | 00:00:00 | |
| DL1XH-west | 2026-09-01 11:44:34 | 52.82165 | 8.74480 | 94° | 58km/h | 8017m | -5.1m/s | -34.5°C | 61.7% | 364.1hPa | 2.5V | 07:54:52 | 02:10:31 | 00:00:00 | |
| DO2JMG | 2026-09-01 11:44:31 | 52.82169 | 8.74399 | 95° | 71km/h | 8033m | -5.4m/s | -34.6°C | 59.5% | 363.3hPa | 2.6V | 07:54:52 | 02:10:28 | 00:00:00 | |
| DL8OAI-8 | 2026-09-01 11:44:31 | 52.82168 | 8.74427 | 97° | 68km/h | 8028m | -5.2m/s | -34.6°C | 54.9% | 363.7hPa | 2.6V | 07:54:00 | 00:00:00 | 00:00:00 | |
| DL1XH1-15 | 2026-09-01 11:44:30 | 52.82174 | 8.74278 | 92° | 73km/h | 8053m | -4.7m/s | -34.8°C | 51.8% | 362.4hPa | 2.6V | 07:54:31 | 02:10:24 | 00:00:00 | |
| DF5WG-10 | 2026-09-01 11:44:30 | 52.82170 | 8.74369 | 93° | 75km/h | 8038m | -5.0m/s | -34.6°C | 58.2% | 363.0hPa | 2.6V | 00:00:00 | 02:10:27 | 00:00:00 | |
| DL3AQ-11 | 2026-09-01 11:44:28 | 52.82174 | 8.74278 | 92° | 73km/h | 8053m | -4.7m/s | -34.8°C | 46.9% | 362.4hPa | 2.6V | 00:00:00 | 00:00:00 | 00:00:00 | |
| GOEST3-10 | 2026-09-01 11:44:27 | 52.82174 | 8.74277 | 93° | 73km/h | 8053m | -4.7m/s | -34.7°C | 51.8% | 362.3hPa | 2.6V | 00:00:00 | 00:00:00 | 00:00:00 | |
| DM0DOS-11 | 2026-09-01 11:44:26 | 52.82178 | 8.74186 | 94° | 73km/h | 8067m | -5.3m/s | -34.7°C | 41.6% | 361.6hPa | 2.5V | 07:54:34 | 02:10:21 | 00:00:00 | |
| DL1XH-west | 2026-09-01 11:44:24 | 52.82178 | 8.74186 | 95° | 73km/h | 8067m | -5.3m/s | -34.7°C | 43.5% | 361.6hPa | 2.5V | 07:54:52 | 02:10:21 | 00:00:00 | |
| BIOWL1-15 | 2026-09-01 11:44:23 | 52.82188 | 8.74030 | 98° | 73km/h | 8089m | -4.6m/s | -34.9°C | 40.7% | 360.3hPa | 2.6V | 07:54:52 | 02:10:16 | 00:00:00 | |
| DL1XH-15 | 2026-09-01 11:44:23 | 52.82185 | 8.74061 | 97° | 75km/h | 8085m | -4.1m/s | -34.9°C | 39.1% | 360.6hPa | 2.6V | 07:54:38 | 02:10:17 | 00:00:00 | |
| DO2JMG | 2026-09-01 11:44:21 | 52.82185 | 8.74061 | 97° | 75km/h | 8085m | -4.1m/s | -34.9°C | 41.2% | 360.6hPa | 2.6V | 07:54:52 | 02:10:17 | 00:00:00 | |
| DL1XH1-15 | 2026-09-01 11:44:21 | 52.82193 | 8.73970 | 97° | 71km/h | 8098m | -5.2m/s | -35°C | 38% | 359.9hPa | 2.5V | 07:54:41 | 02:10:14 | 00:00:00 | |
| DF8AY | 2026-09-01 11:44:14 | 52.82201 | 8.73884 | 100° | 68km/h | 8112m | -4.9m/s | -35.1°C | 39.5% | 359.1hPa | 2.6V | 07:56:34 | 02:10:11 | 00:00:00 | |
| DL1XH-west | 2026-09-01 11:44:13 | 52.82204 | 8.73857 | 97° | 64km/h | 8117m | -4.7m/s | -35.1°C | 39.1% | 358.9hPa | 2.6V | 07:54:52 | 02:10:10 | 00:00:00 | |
| GOEST3-10 | 2026-09-01 11:44:12 | 52.82206 | 8.73831 | 103° | 62km/h | 8122m | -4.9m/s | -35.1°C | 36.7% | 358.5hPa | 2.5V | 00:00:00 | 02:10:09 | 00:00:00 | |
| DL1XH-15 | 2026-09-01 11:44:11 | 52.82212 | 8.73780 | 100° | 60km/h | 8132m | -5.5m/s | -35.2°C | 36.1% | 358.1hPa | 2.5V | 07:54:48 | 02:10:07 | 00:00:00 | |
| DB0DAN | 2026-09-01 11:44:10 | 52.82212 | 8.73780 | 100° | 57km/h | 8132m | -5.5m/s | -35.2°C | 32.2% | 358.11hPa | 2.5V | 00:00:00 | 00:00:00 | 00:00:00 | |
| DL1XH1-15 | 2026-09-01 11:44:10 | 52.82223 | 8.73702 | 99° | 68km/h | 8148m | -4.9m/s | -35.3°C | 35.2% | 357.3hPa | 2.5V | 07:54:51 | 02:10:04 | 00:00:00 | |
| DO2JMG | 2026-09-01 11:44:10 | 52.82212 | 8.73780 | 100° | 60km/h | 8132m | -5.5m/s | -35.2°C | 37.9% | 358.1hPa | 2.5V | 07:54:52 | 02:10:07 | 00:00:00 | |
| AA1-15 | 2026-09-01 11:44:10 | 52.82215 | 8.73755 | 104° | 64km/h | 8137m | -5.5m/s | -35.3°C | 37.6% | 357.8hPa | 2.6V | 07:54:52 | 02:10:06 | 00:00:00 | |
| DF5WG-10 | 2026-09-01 11:44:10 | 52.82212 | 8.73780 | 101° | 71km/h | 8132m | -5.4m/s | -35.2°C | 36.1% | 358.1hPa | 2.5V | 00:00:00 | 02:10:07 | 00:00:00 | |
| GOEST3-10 | 2026-09-01 11:44:08 | 52.82223 | 8.73702 | 100° | 75km/h | 8148m | -4.8m/s | -35.3°C | 35.2% | 357.3hPa | 2.5V | 00:00:00 | 00:00:00 | 00:00:00 | |
| BUE01 | 2026-09-01 11:44:07 | 52.82226 | 8.73673 | 100° | 75km/h | 8152m | -4.6m/s | -35.4°C | 30.9% | 357.1hPa | 2.5V | 00:00:00 | 00:00:00 | 00:00:00 | |
| DL1XH-15 | 2026-09-01 11:44:05 | 52.82230 | 8.73449 | 84° | 73km/h | 8186m | -5.4m/s | -35.5°C | 32.8% | 355.3hPa | 2.5V | 07:54:59 | 02:09:56 | 00:00:00 | |
| DL1XH-west | 2026-09-01 11:44:03 | 52.82232 | 8.73578 | 90° | 77km/h | 8166m | -4.5m/s | -35.4°C | 34.7% | 356.4hPa | 2.5V | 07:55:43 | 02:10:00 | 00:00:00 | |
| BIOWL1-15 | 2026-09-01 11:44:02 | 52.82232 | 8.73545 | 90° | 78km/h | 8170m | -4.8m/s | -35.4°C | 34.7% | 356.1hPa | 2.5V | 07:55:43 | 02:09:59 | 00:00:00 | |
| DO2JMG | 2026-09-01 11:44:00 | 52.82230 | 8.73449 | 85° | 73km/h | 8186m | -5.4m/s | -35.5°C | 34.8% | 355.3hPa | 2.5V | 07:55:43 | 02:09:56 | 00:00:00 | |
| DM0DOS-11 | 2026-09-01 11:44:00 | 52.82228 | 8.73314 | 98° | 62km/h | 8210m | -4.6m/s | -35.6°C | 31.8% | 354.1hPa | 2.6V | 07:55:04 | 02:09:51 | 00:00:00 | |
| AA1-15 | 2026-09-01 11:43:58 | 52.82228 | 8.73420 | 83° | 69km/h | 8191m | -4.9m/s | -35.5°C | 34.6% | 355.1hPa | 2.5V | 07:55:43 | 02:09:55 | 00:00:00 | |
| DD8BA-10 | 2026-09-01 11:43:58 | 52.82228 | 8.73420 | 84° | 64km/h | 8191m | -4.9m/s | -35.5°C | 32.6% | 355.0hPa | 2.5V | 00:00:00 | 00:00:00 | 00:00:00 | |
| GOEST3-10 | 2026-09-01 11:43:57 | 52.82226 | 8.73392 | 85° | 62km/h | 8196m | -4.8m/s | -35.5°C | 32.3% | 354.9hPa | 2.5V | 00:00:00 | 00:00:00 | 00:00:00 | |
| DB0DAN | 2026-09-01 11:43:55 | 52.82226 | 8.73339 | 94° | 58km/h | 8206m | -4.4m/s | -35.6°C | 28.5% | 354.31hPa | 2.6V | 00:00:00 | 00:00:00 | 00:00:00 | |
| BIOWL1-15 | 2026-09-01 11:43:53 | 52.82244 | 8.73186 | 99° | 60km/h | 8235m | -5.4m/s | -35.8°C | 32.2% | 352.8hPa | 2.6V | 07:55:43 | 02:09:46 | 00:00:00 | |
| DL1XH-west | 2026-09-01 11:43:53 | 52.82233 | 8.73263 | 104° | 62km/h | 8220m | -5.3m/s | -35.7°C | 33.2% | 353.6hPa | 2.5V | 07:55:43 | 02:09:49 | 00:00:00 | |
| DF8AY | 2026-09-01 11:43:52 | 52.82241 | 8.73212 | 102° | 64km/h | 8230m | -5.6m/s | -35.8°C | 32.5% | 353.1hPa | 2.6V | 07:56:34 | 02:09:47 | 00:00:00 | |
| DL1XH1-15 | 2026-09-01 11:43:50 | 52.82247 | 8.73136 | 92° | 60km/h | 8246m | -5m/s | -35.9°C | 29.6% | 352.3hPa | 2.5V | 07:55:11 | 02:09:44 | 00:00:00 | |
| DO2JMG | 2026-09-01 11:43:49 | 52.82246 | 8.73161 | 94° | 58km/h | 8241m | -5m/s | -35.8°C | 31.8% | 352.6hPa | 2.6V | 07:55:43 | 02:09:45 | 00:00:00 | |
| AA1-15 | 2026-09-01 11:43:47 | 52.82247 | 8.73136 | 92° | 60km/h | 8246m | -5.1m/s | -35.9°C | 31.4% | 352.4hPa | 2.5V | 07:55:43 | 02:09:44 | 00:00:00 | |
| DM0DOS-11 | 2026-09-01 11:43:47 | 52.82244 | 8.73055 | 85° | 69km/h | 8260m | -5m/s | -35.9°C | 28.4% | 351.7hPa | 2.6V | 07:55:14 | 02:09:41 | 00:00:00 | |
| SMARD9-10 | 2026-09-01 11:43:46 | 52.82247 | 8.73110 | 89° | 64km/h | 8251m | -4.7m/s | -35.9°C | 25.8% | 352.2hPa | 2.6V | 00:00:00 | 00:00:00 | 00:00:00 | |
| DL1XH-15 | 2026-09-01 11:43:44 | 52.82237 | 8.72875 | 92° | 78km/h | 8291m | -4.8m/s | -36.1°C | 27.2% | 350.1hPa | 2.6V | 07:55:20 | 02:09:35 | 00:00:00 | |
| DL1XH-west | 2026-09-01 11:43:41 | 52.82239 | 8.72969 | 84° | 71km/h | 8275m | -5.4m/s | -36°C | 29.7% | 350.9hPa | 2.5V | 07:55:43 | 02:09:38 | 00:00:00 | |
| DB0DAN | 2026-09-01 11:43:40 | 52.82237 | 8.72939 | 85° | 69km/h | 8281m | -5.4m/s | -36.1°C | 24.4% | 350.63hPa | 2.5V | 00:00:00 | 00:00:00 | 00:00:00 | |
| BIOWL1-15 | 2026-09-01 11:43:40 | 52.82237 | 8.72939 | 85° | 73km/h | 8281m | -5.4m/s | -36.1°C | 29.5% | 350.6hPa | 2.5V | 07:55:43 | 02:09:37 | 00:00:00 | |
| DM0DOS-11 | 2026-09-01 11:43:40 | 52.82247 | 8.72753 | 102° | 71km/h | 8309m | -5.1m/s | -36.2°C | 25.3% | 349.2hPa | 2.6V | 07:55:24 | 02:09:31 | 00:00:00 | |
| DO2JMG | 2026-09-01 11:43:39 | 52.82238 | 8.72843 | 97° | 75km/h | 8295m | -4.6m/s | -36.2°C | 28.4% | 349.9hPa | 2.6V | 07:55:43 | 02:09:34 | 00:00:00 | |
| AA1-15 | 2026-09-01 11:43:37 | 52.82241 | 8.72812 | 98° | 73km/h | 8300m | -4.6m/s | -36.2°C | 27.9% | 349.6hPa | 2.5V | 07:55:43 | 02:09:33 | 00:00:00 | |
| DF8AY | 2026-09-01 11:43:37 | 52.82251 | 8.72724 | 104° | 73km/h | 8314m | -5.3m/s | -36.2°C | 26.6% | 348.9hPa | 2.6V | 07:56:34 | 02:09:30 | 00:00:00 | |
| DL1XH-west | 2026-09-01 11:43:31 | 52.82264 | 8.72628 | 99° | 82km/h | 8328m | -5.1m/s | -36.3°C | 25.9% | 348.2hPa | 2.5V | 07:55:43 | 02:09:27 | 00:00:00 | |
| DL1XH-15 | 2026-09-01 11:43:29 | 52.82268 | 8.72561 | 91° | 78km/h | 8338m | -5.2m/s | -36.4°C | 23.7% | 347.7hPa | 2.6V | 07:55:30 | 02:09:25 | 00:00:00 | |
| DO2JMG | 2026-09-01 11:43:28 | 52.82269 | 8.72528 | 90° | 77km/h | 8343m | -5m/s | -36.4°C | 24.8% | 347.5hPa | 2.6V | 07:55:43 | 02:09:24 | 00:00:00 | |
| DM0DOS-11 | 2026-09-01 11:43:27 | 52.82269 | 8.72430 | 86° | 77km/h | 8356m | -5.4m/s | -36.4°C | 22% | 346.7hPa | 2.5V | 07:55:34 | 02:09:21 | 00:00:00 | |
| AA1-15 | 2026-09-01 11:43:27 | 52.82269 | 8.72462 | 90° | 78km/h | 8352m | -4.8m/s | -36.4°C | 24% | 346.9hPa | 2.5V | 07:55:43 | 02:09:22 | 00:00:00 | |
| DB0DAN | 2026-09-01 11:43:25 | 52.82269 | 8.72462 | 89° | 75km/h | 8352m | -4.8m/s | -36.4°C | 19.5% | 346.93hPa | 2.5V | 00:00:00 | 00:00:00 | 00:00:00 | |
| DF8AY | 2026-09-01 11:43:22 | 52.82265 | 8.72339 | 85° | 71km/h | 8370m | -5.4m/s | -36.5°C | 22.9% | 346hPa | 2.6V | 07:56:34 | 02:09:18 | 00:00:00 | |
| DL1XH1-15 | 2026-09-01 11:43:20 | 52.82261 | 8.72231 | 91° | 60km/h | 8391m | -5m/s | -36.6°C | 19.9% | 345hPa | 2.6V | 07:55:41 | 02:09:14 | 00:00:00 | |
| DL1XH-west | 2026-09-01 11:43:20 | 52.82263 | 8.72310 | 83° | 68km/h | 8376m | -5.3m/s | -36.6°C | 22.5% | 345.7hPa | 2.5V | 07:55:43 | 02:09:17 | 00:00:00 | |
| BIOWL1-15 | 2026-09-01 11:43:20 | 52.82261 | 8.72283 | 85° | 64km/h | 8380m | -5.1m/s | -36.6°C | 22.1% | 345.5hPa | 2.5V | 07:55:43 | 02:09:16 | 00:00:00 | |
| DM0DOS-11 | 2026-09-01 11:43:19 | 52.82264 | 8.72157 | 96° | 60km/h | 8405m | -4.8m/s | -36.5°C | 18.6% | 344.2hPa | 2.5V | 07:55:44 | 02:09:11 | 00:00:00 | |
| DO2JMG | 2026-09-01 11:43:17 | 52.82260 | 8.72231 | 92° | 60km/h | 8391m | -5m/s | -36.6°C | 21.2% | 345hPa | 2.6V | 07:55:43 | 02:09:14 | 00:00:00 | |
| AA1-15 | 2026-09-01 11:43:16 | 52.82262 | 8.72181 | 96° | 58km/h | 8401m | -4.4m/s | -36.5°C | 20.3% | 344.5hPa | 2.5V | 07:55:43 | 02:09:12 | 00:00:00 | |
| DF8AY | 2026-09-01 11:43:12 | 52.82271 | 8.72083 | 101° | 62km/h | 8420m | -4.8m/s | -36.6°C | 18.9% | 343.6hPa | 2.5V | 07:56:34 | 02:09:08 | 00:00:00 | |
| BIOWL1-15 | 2026-09-01 11:43:11 | 52.82284 | 8.71961 | 99° | 58km/h | 8446m | -5.4m/s | -36.6°C | 17.4% | 342.3hPa | 2.6V | 07:56:34 | 02:09:03 | 00:00:00 | |
| DL1XH-west | 2026-09-01 11:43:09 | 52.82276 | 8.72034 | 101° | 58km/h | 8430m | -5.4m/s | -36.6°C | 18.3% | 343.1hPa | 2.5V | 07:56:34 | 02:09:06 | 00:00:00 | |
| DO2JMG | 2026-09-01 11:43:07 | 52.82281 | 8.71985 | 104° | 60km/h | 8441m | -5.3m/s | -36.6°C | 17.7% | 342.5hPa | 2.6V | 07:56:34 | 02:09:04 | 00:00:00 | |
| AA1-15 | 2026-09-01 11:43:02 | 52.82300 | 8.71859 | 103° | 71km/h | 8468m | -5.4m/s | -36.4°C | 15.2% | 341.4hPa | 2.6V | 07:56:34 | 02:08:59 | 00:00:00 | |
| GOEST3-10 | 2026-09-01 11:43:02 | 52.82299 | 8.71858 | 104° | 75km/h | 8468m | -5.4m/s | -36.3°C | 14.3% | 341.4hPa | 2.5V | 00:00:00 | 02:08:59 | 00:00:00 | |
| DL1XH1-15 | 2026-09-01 11:43:00 | 52.82320 | 8.71705 | 96° | 77km/h | 8492m | -5.4m/s | -36.4°C | 13.7% | 340.2hPa | 2.5V | 07:56:01 | 02:08:54 | 00:00:00 | |
| SMARD9-15 | 2026-09-01 11:43:00 | 52.82308 | 8.71800 | 104° | 75km/h | 8478m | -4.5m/s | -36.3°C | 11.9% | 340.9hPa | 2.5V | 00:00:00 | 00:00:00 | 00:00:00 | |
| DL1XH-15 | 2026-09-01 11:42:59 | 52.82317 | 8.71737 | 99° | 78km/h | 8487m | -5.1m/s | -36.4°C | 13.8% | 340.4hPa | 2.5V | 07:56:00 | 02:08:55 | 00:00:00 | |
| DL1XH-west | 2026-09-01 11:42:59 | 52.82313 | 8.71769 | 102° | 78km/h | 8483m | -4.6m/s | -36.4°C | 15% | 340.6hPa | 2.5V | 07:56:34 | 02:08:56 | 00:00:00 | |
| BIOWL1-15 | 2026-09-01 11:42:58 | 52.82329 | 8.71540 | 95° | 80km/h | 8518m | -5.2m/s | -36.6°C | 14.3% | 339.1hPa | 2.5V | 07:56:34 | 02:08:49 | 00:00:00 | |
| DO2JMG | 2026-09-01 11:42:57 | 52.82322 | 8.71673 | 97° | 78km/h | 8498m | -5.3m/s | -36.4°C | 14.7% | 340hPa | 2.6V | 07:56:34 | 02:08:53 | 00:00:00 | |
| DD1CC8 | 2026-09-01 11:42:56 | 52.82324 | 8.71640 | 95° | 80km/h | 8503m | -4.8m/s | -36.5°C | 11.3% | 339.8hPa | 2.6V | 00:00:00 | 00:00:00 | 00:00:00 | |
| DB0DAN | 2026-09-01 11:42:55 | 52.82324 | 8.71640 | 96° | 77km/h | 8503m | -4.8m/s | -36.5°C | 11.3% | 339.75hPa | 2.6V | 00:00:00 | 00:00:00 | 00:00:00 | |
| DL1XH-15 | 2026-09-01 11:42:54 | 52.82346 | 8.71404 | 105° | 82km/h | 8538m | -5.2m/s | -36.7°C | 12.9% | 338hPa | 2.5V | 07:56:10 | 02:08:45 | 00:00:00 | |
| AA1-15 | 2026-09-01 11:42:51 | 52.82332 | 8.71506 | 99° | 84km/h | 8524m | -5m/s | -36.6°C | 14.2% | 338.8hPa | 2.6V | 07:56:34 | 02:08:48 | 00:00:00 | |
| DL1XH1-15 | 2026-09-01 11:42:50 | 52.82352 | 8.71372 | 108° | 78km/h | 8544m | -4.3m/s | -36.7°C | 13% | 337.7hPa | 2.5V | 07:56:11 | 02:08:44 | 00:00:00 | |
| DL1XH-west | 2026-09-01 11:42:48 | 52.82346 | 8.71404 | 106° | 82km/h | 8538m | -5.2m/s | -36.7°C | 13.8% | 338hPa | 2.5V | 07:56:34 | 02:08:45 | 00:00:00 | |
| DF8AY | 2026-09-01 11:42:48 | 52.82352 | 8.71372 | 108° | 78km/h | 8544m | -4.3m/s | -36.7°C | 13.8% | 337.7hPa | 2.5V | 07:56:34 | 02:08:44 | 00:00:00 | |
| BIOWL1-15 | 2026-09-01 11:42:47 | 52.82357 | 8.71342 | 107° | 73km/h | 8548m | -4.4m/s | -36.7°C | 13.7% | 337.5hPa | 2.5V | 07:56:34 | 02:08:43 | 00:00:00 | |
| DM0DOS-11 | 2026-09-01 11:42:46 | 52.82368 | 8.71286 | 107° | 68km/h | 8558m | -4.7m/s | -36.8°C | 12.9% | 337.1hPa | 2.6V | 07:56:14 | 02:08:41 | 00:00:00 | |
| DO2JMG | 2026-09-01 11:42:46 | 52.82363 | 8.71313 | 109° | 69km/h | 8553m | -5.1m/s | -36.8°C | 13.6% | 337.3hPa | 2.6V | 07:56:34 | 02:08:42 | 00:00:00 | |
| SONCRA | 2026-09-01 11:42:45 | 52.82373 | 8.71260 | 104° | 64km/h | 8562m | -4.2m/s | -36.8°C | 10.6% | 336.9hPa | 2.5V | 00:00:00 | 00:00:00 | 00:00:00 | |
| DJ2DS-15 | 2026-09-01 11:42:44 | 52.82373 | 8.71260 | 105° | 77km/h | 8563m | -4.2m/s | -36.8°C | 12.7% | 336.8hPa | 2.5V | 00:00:00 | 02:08:40 | 00:00:00 | |
| GOEST3-10 | 2026-09-01 11:42:42 | 52.82377 | 8.71234 | 103° | 64km/h | 8567m | -4.8m/s | -36.8°C | 12.6% | 336.6hPa | 2.5V | 00:00:00 | 02:08:39 | 00:00:00 | |
| DL1XH-15 | 2026-09-01 11:42:41 | 52.82386 | 8.71128 | 96° | 66km/h | 8587m | -5.4m/s | -37°C | 12.3% | 335.8hPa | 2.6V | 07:56:20 | 02:08:35 | 00:00:00 | |
| DL1XH1-15 | 2026-09-01 11:42:40 | 52.82387 | 8.71100 | 94° | 71km/h | 8592m | -4.9m/s | -37°C | 12.1% | 335.4hPa | 2.5V | 07:56:21 | 02:08:34 | 00:00:00 | |
| AA1-15 | 2026-09-01 11:42:40 | 52.82382 | 8.71181 | 97° | 64km/h | 8577m | -4.7m/s | -36.9°C | 13.1% | 336.2hPa | 2.5V | 07:56:34 | 02:08:37 | 00:00:00 | |
| DL1XH-west | 2026-09-01 11:42:39 | 52.82386 | 8.71128 | 97° | 66km/h | 8587m | -5.4m/s | -37°C | 12.9% | 335.8hPa | 2.6V | 07:56:34 | 02:08:35 | 00:00:00 | |
| DF8AY | 2026-09-01 11:42:37 | 52.82387 | 8.71100 | 94° | 71km/h | 8592m | -4.9m/s | -37°C | 12.8% | 335.4hPa | 2.5V | 07:56:34 | 02:08:34 | 00:00:00 | |
| DO2JMG | 2026-09-01 11:42:36 | 52.82389 | 8.71038 | 92° | 77km/h | 8603m | -5m/s | -37.1°C | 12.5% | 335.1hPa | 2.5V | 07:56:34 | 02:08:32 | 00:00:00 | |
| DL1XH-15 | 2026-09-01 11:42:34 | 52.82418 | 8.70769 | 107° | 84km/h | 8638m | -4.8m/s | -37°C | 10.9% | 333.2hPa | 2.6V | 07:56:31 | 02:08:24 | 00:00:00 | |
| BUE01 | 2026-09-01 11:42:34 | 52.82392 | 8.70971 | 94° | 82km/h | 8612m | -4.4m/s | -37.1°C | 9.6% | 334.5hPa | 2.6V | 00:00:00 | 00:00:00 | 00:00:00 | |
| GOEST3-10 | 2026-09-01 11:42:32 | 52.82393 | 8.70937 | 97° | 82km/h | 8617m | -4.4m/s | -37.1°C | 11.5% | 334.3hPa | 2.6V | 00:00:00 | 02:08:29 | 00:00:00 | |
| BIOWL9-15 | 2026-09-01 11:42:31 | 52.82400 | 8.70869 | 103° | 82km/h | 8625m | -4.0m/s | -37.1°C | 9.2% | 333.9hPa | 2.6V | 00:00:00 | 00:00:00 | 00:00:00 | |
| DL1XH1-15 | 2026-09-01 11:42:30 | 52.82418 | 8.70769 | 107° | 84km/h | 8638m | -4.8m/s | -37°C | 10.9% | 333.2hPa | 2.6V | 07:56:31 | 02:08:24 | 00:00:00 | |
| AA1-15 | 2026-09-01 11:42:29 | 52.82406 | 8.70835 | 106° | 82km/h | 8629m | -4m/s | -37.1°C | 11.6% | 333.6hPa | 2.5V | 07:56:34 | 02:08:26 | 00:00:00 | |
| DF5WG-10 | 2026-09-01 11:42:29 | 52.82406 | 8.70835 | 106° | 84km/h | 8629m | -4.0m/s | -37.1°C | 11.0% | 333.6hPa | 2.6V | 00:00:00 | 02:08:26 | 00:00:00 | |
| GOEST3-10 | 2026-09-01 11:42:28 | 52.82418 | 8.70769 | 108° | 86km/h | 8638m | -4.8m/s | -37.0°C | 10.9% | 333.2hPa | 2.6V | 00:00:00 | 00:00:00 | 00:00:00 | |
| DL1XH-west | 2026-09-01 11:42:28 | 52.82418 | 8.70769 | 108° | 84km/h | 8638m | -4.8m/s | -37°C | 11.4% | 333.2hPa | 2.6V | 07:56:34 | 02:08:24 | 00:00:00 | |
| DM0DOS-11 | 2026-09-01 11:42:26 | 52.82435 | 8.70666 | 100° | 84km/h | 8654m | -4.7m/s | -37.1°C | 11.2% | 332.5hPa | 2.5V | 07:56:34 | 02:08:21 | 00:00:00 | |
| BIOWL1-15 | 2026-09-01 11:42:26 | 52.82425 | 8.70735 | 107° | 86km/h | 8643m | -5.2m/s | -37°C | 11.5% | 333hPa | 2.6V | 07:56:34 | 02:08:23 | 00:00:00 | |
| DB0DAN | 2026-09-01 11:42:25 | 52.82430 | 8.70701 | 105° | 82km/h | 8648m | -5.3m/s | -37°C | 9.1% | 332.72hPa | 2.5V | 00:00:00 | 00:00:00 | 00:00:00 | |
| DO2JMG | 2026-09-01 11:42:24 | 52.82435 | 8.70666 | 101° | 84km/h | 8654m | -4.7m/s | -37.1°C | 11.8% | 332.5hPa | 2.5V | 07:56:34 | 02:08:21 | 00:00:00 | |
| DJ2DS-15 | 2026-09-01 11:42:24 | 52.82435 | 8.70666 | 100° | 84km/h | 8654m | -4.7m/s | -37.1°C | 9.2% | 332.5hPa | 2.5V | 00:00:00 | 00:00:00 | 00:00:00 | |
| DJ2DS-15 | 2026-09-01 11:42:23 | 52.82439 | 8.70631 | 100° | 73km/h | 8658m | -4.8m/s | -37.1°C | 11.2% | 332.2hPa | 2.5V | 00:00:00 | 02:08:20 | 00:00:00 | |
| GOEST3-10 | 2026-09-01 11:42:22 | 52.82442 | 8.70596 | 98° | 80km/h | 8663m | -4.8m/s | -37.1°C | 11.3% | 332.0hPa | 2.5V | 00:00:00 | 02:08:19 | 00:00:00 | |
| DL1XH-15 | 2026-09-01 11:42:21 | 52.82447 | 8.70462 | 91° | 77km/h | 8683m | -5.5m/s | -37.3°C | 11.6% | 331.1hPa | 2.5V | 07:56:40 | 02:08:15 | 00:00:00 | |
| DL1XH1-15 | 2026-09-01 11:42:20 | 52.82448 | 8.70431 | 91° | 73km/h | 8688m | -4.8m/s | -37.3°C | 11.8% | 330.9hPa | 2.5V | 07:56:41 | 02:08:14 | 00:00:00 | |
| DM0DOS-11 | 2026-09-01 11:42:19 | 52.82452 | 8.70346 | 99° | 66km/h | 8702m | -4.6m/s | -37.4°C | 12% | 330.2hPa | 2.6V | 07:56:44 | 02:08:11 | 00:00:00 | |
| AA1-15 | 2026-09-01 11:42:18 | 52.82447 | 8.70462 | 92° | 77km/h | 8683m | -5.5m/s | -37.3°C | 12.4% | 331.1hPa | 2.5V | 07:57:25 | 02:08:15 | 00:00:00 | |
| DL1XH-west | 2026-09-01 11:42:18 | 52.82448 | 8.70431 | 91° | 73km/h | 8688m | -4.8m/s | -37.3°C | 12.5% | 330.9hPa | 2.5V | 07:57:25 | 02:08:14 | 00:00:00 | |
| BIOWL1-15 | 2026-09-01 11:42:16 | 52.82448 | 8.70401 | 93° | 69km/h | 8693m | -4.4m/s | -37.3°C | 12.6% | 330.7hPa | 2.5V | 07:57:25 | 02:08:13 | 00:00:00 | |
| DF8AY | 2026-09-01 11:42:15 | 52.82449 | 8.70373 | 95° | 66km/h | 8697m | -4.4m/s | -37.4°C | 12.7% | 330.4hPa | 2.6V | 07:57:25 | 02:08:12 | 00:00:00 | |
| DO2JMG | 2026-09-01 11:42:14 | 52.82455 | 8.70318 | 103° | 68km/h | 8706m | -4.6m/s | -37.4°C | 12.8% | 330hPa | 2.6V | 07:57:25 | 02:08:10 | 00:00:00 | |
| DL4XJ-10 | 2026-09-01 11:42:14 | 52.82451 | 8.70345 | 100° | 75km/h | 8702m | -4.6m/s | -35.9°C | 0% | 0hPa | 2.5V | 00:00:00 | 00:00:00 | 00:00:00 | |
| SONCRA | 2026-09-01 11:42:13 | 52.82459 | 8.70291 | 105° | 69km/h | 8711m | -4.2m/s | -37.4°C | 10.1% | 329.8hPa | 2.5V | 00:00:00 | 00:00:00 | 00:00:00 | |
| DL3AQ-11 | 2026-09-01 11:42:12 | 52.82464 | 8.70262 | 106° | 71km/h | 8715m | -4.7m/s | -37.4°C | 10.2% | 329.6hPa | 2.5V | 00:00:00 | 00:00:00 | 00:00:00 | |
| DL1XH1-15 | 2026-09-01 11:42:10 | 52.82484 | 8.70147 | 105° | 71km/h | 8734m | -4.5m/s | -37.6°C | 12.3% | 328.7hPa | 2.5V | 07:56:51 | 02:08:04 | 00:00:00 | |
| BIOWL1-15 | 2026-09-01 11:42:09 | 52.82493 | 8.70091 | 105° | 69km/h | 8743m | -4.5m/s | -37.6°C | 13.2% | 328.3hPa | 2.5V | 07:57:25 | 02:08:02 | 00:00:00 | |
| AA1-15 | 2026-09-01 11:42:07 | 52.82484 | 8.70147 | 105° | 71km/h | 8734m | -4.6m/s | -37.6°C | 13.2% | 328.7hPa | 2.5V | 07:57:25 | 02:08:04 | 00:00:00 | |
| DM0DOS-11 | 2026-09-01 11:42:07 | 52.82498 | 8.70063 | 105° | 69km/h | 8748m | -4.7m/s | -37.6°C | 12.1% | 328hPa | 2.6V | 07:56:54 | 02:08:01 | 00:00:00 | |
| DL1XH-west | 2026-09-01 11:42:06 | 52.82488 | 8.70119 | 105° | 69km/h | 8738m | -4.8m/s | -37.6°C | 13.2% | 328.5hPa | 2.5V | 07:57:25 | 02:08:03 | 00:00:00 | |
| DF8AY | 2026-09-01 11:42:04 | 52.82498 | 8.70063 | 106° | 69km/h | 8748m | -4.7m/s | -37.6°C | 13.1% | 328hPa | 2.6V | 07:57:25 | 02:08:01 | 00:00:00 | |
| DO2JMG | 2026-09-01 11:42:04 | 52.82503 | 8.70034 | 107° | 71km/h | 8753m | -4.9m/s | -37.7°C | 13.1% | 327.8hPa | 2.6V | 07:57:25 | 02:08:00 | 00:00:00 | |
| DO2SHX-10 | 2026-09-01 11:42:02 | 52.82508 | 8.70005 | 108° | 78km/h | 8757m | -4.6m/s | -37.6°C | 12.1% | 327.5hPa | 2.6V | 00:00:00 | 02:07:59 | 00:00:00 | |
| BIOWL9-15 | 2026-09-01 11:42:00 | 52.82526 | 8.69911 | 106° | 82km/h | 8771m | -4.7m/s | -37.8°C | 10.1% | 326.9hPa | 2.6V | 00:00:00 | 00:00:00 | 00:00:00 | |
| DM0DOS-11 | 2026-09-01 11:41:59 | 52.82558 | 8.69697 | 98° | 91km/h | 8800m | -4.5m/s | -37.9°C | 12.6% | 325.6hPa | 2.6V | 07:57:05 | 02:07:50 | 00:00:00 | |
| AA1-15 | 2026-09-01 11:41:56 | 52.82543 | 8.69807 | 105° | 88km/h | 8786m | -4.8m/s | -37.8°C | 13.1% | 326.2hPa | 2.5V | 07:57:25 | 02:07:53 | 00:00:00 | |
| DB0DAN | 2026-09-01 11:41:55 | 52.82549 | 8.69771 | 103° | 84km/h | 8790m | -5m/s | -37.8°C | 10.5% | 326.02hPa | 2.5V | 00:00:00 | 00:00:00 | 00:00:00 | |
| DL1XH-west | 2026-09-01 11:41:55 | 52.82549 | 8.69771 | 103° | 89km/h | 8790m | -5m/s | -37.8°C | 13.2% | 326hPa | 2.5V | 07:57:25 | 02:07:52 | 00:00:00 | |
| DO2JMG | 2026-09-01 11:41:53 | 52.82561 | 8.69660 | 97° | 91km/h | 8804m | -4.8m/s | -37.9°C | 13% | 325.3hPa | 2.5V | 07:57:25 | 02:07:49 | 00:00:00 | |
| GOEST3-10 | 2026-09-01 11:41:53 | 52.82560 | 8.69660 | 97° | 88km/h | 8805m | -4.7m/s | -37.9°C | 12.4% | 325.3hPa | 2.5V | 00:00:00 | 02:07:49 | 00:00:00 | |
| DC6BW-12 | 2026-09-01 11:41:52 | 52.82561 | 8.69660 | 98° | 91km/h | 8805m | -4.8m/s | -37.9°C | 10.2% | 325.3hPa | 2.5V | 07:57:00 | 00:00:00 | 00:00:00 | |
| DF5WG-10 | 2026-09-01 11:41:49 | 52.82566 | 8.69550 | 94° | 84km/h | 8818m | -4.3m/s | -38.0°C | 12.1% | 324.7hPa | 2.5V | 07:57:00 | 02:07:46 | 00:00:00 | |
| DD8BA-10 | 2026-09-01 11:41:48 | 52.82568 | 8.69515 | 94° | 84km/h | 8823m | -4.2m/s | -38.1°C | 12.1% | 324.4hPa | 2.5V | 00:00:00 | 00:00:00 | 00:00:00 | |
| DM0DOS-11 | 2026-09-01 11:41:47 | 52.82573 | 8.69378 | 93° | 84km/h | 8840m | -4.4m/s | -38.3°C | 12% | 323.6hPa | 2.5V | 07:57:14 | 02:07:41 | 00:00:00 | |
| DL1XH-west | 2026-09-01 11:41:46 | 52.82571 | 8.69413 | 93° | 82km/h | 8836m | -4.5m/s | -38.2°C | 12.7% | 323.9hPa | 2.5V | 07:57:25 | 02:07:42 | 00:00:00 | |
| BIOWL1-15 | 2026-09-01 11:41:45 | 52.82572 | 8.69378 | 94° | 84km/h | 8840m | -4.4m/s | -38.3°C | 12.7% | 323.6hPa | 2.5V | 07:57:25 | 02:07:41 | 00:00:00 | |
| DF8AY | 2026-09-01 11:41:42 | 52.82575 | 8.69306 | 93° | 88km/h | 8849m | -4.6m/s | -38.3°C | 12.6% | 323.2hPa | 2.6V | 07:57:25 | 02:07:39 | 00:00:00 | |
| DO2JMG | 2026-09-01 11:41:42 | 52.82576 | 8.69269 | 93° | 88km/h | 8854m | -4.4m/s | -38.4°C | 12.6% | 323hPa | 2.5V | 07:57:25 | 02:07:38 | 00:00:00 | |
| DL1XH-15 | 2026-09-01 11:41:40 | 52.82579 | 8.69161 | 92° | 84km/h | 8868m | -4.8m/s | -38.5°C | 11.8% | 322.4hPa | 2.6V | 07:57:20 | 02:07:35 | 00:00:00 | |
| DB0DAN | 2026-09-01 11:41:40 | 52.82577 | 8.69233 | 93° | 82km/h | 8858m | -4.6m/s | -38.4°C | 9.7% | 322.82hPa | 2.5V | 00:00:00 | 00:00:00 | 00:00:00 | |
| DL4BBY-15 | 2026-09-01 11:41:40 | 52.82577 | 8.69233 | 93° | 93km/h | 8859m | -4.5m/s | -36.9°C | 0% | 0hPa | 2.5V | 00:00:00 | 00:00:00 | 00:00:00 | |
| DF5WG-10 | 2026-09-01 11:41:39 | 52.82578 | 8.69197 | 93° | 93km/h | 8863m | -4.5m/s | -38.4°C | 11.9% | 322.6hPa | 2.5V | 00:00:00 | 02:07:36 | 00:00:00 | |
| DL1XH1-15 | 2026-09-01 11:41:38 | 52.82580 | 8.69127 | 91° | 82km/h | 8872m | -4.6m/s | -38.5°C | 11.8% | 322.2hPa | 2.6V | 07:57:21 | 02:07:34 | 00:00:00 | |
| AA1-15 | 2026-09-01 11:41:35 | 52.82582 | 8.68993 | 92° | 84km/h | 8891m | -4.5m/s | -38.6°C | 12.1% | 321.3hPa | 2.5V | 07:57:25 | 02:07:30 | 00:00:00 | |
| DL1XH-west | 2026-09-01 11:41:35 | 52.82582 | 8.69027 | 92° | 80km/h | 8886m | -4.7m/s | -38.5°C | 12.2% | 321.5hPa | 2.5V | 07:57:25 | 02:07:31 | 00:00:00 | |
| DL1XH-15 | 2026-09-01 11:41:34 | 52.82594 | 8.68722 | 92° | 95km/h | 8921m | -4.5m/s | -38.6°C | 11.6% | 319.9hPa | 2.6V | 07:57:32 | 02:07:23 | 00:00:00 | |
| DF8AY | 2026-09-01 11:41:32 | 52.82583 | 8.68958 | 93° | 88km/h | 8895m | -4.4m/s | -38.6°C | 12% | 321.1hPa | 2.6V | 07:58:16 | 02:07:29 | 00:00:00 | |
| DO2JMG | 2026-09-01 11:41:31 | 52.82584 | 8.68920 | 94° | 91km/h | 8900m | -4.2m/s | -38.6°C | 12% | 320.9hPa | 2.6V | 07:58:16 | 02:07:28 | 00:00:00 | |
| BUE01 | 2026-09-01 11:41:31 | 52.82586 | 8.68881 | 95° | 93km/h | 8904m | -4.2m/s | -38.6°C | 9.4% | 320.7hPa | 2.5V | 00:00:00 | 00:00:00 | 00:00:00 | |
| DJ2KF-10 | 2026-09-01 11:41:30 | 52.82586 | 8.68881 | 96° | 97km/h | 8904m | -4.1m/s | -38.5°C | 11.5% | 320.7hPa | 2.5V | 00:00:00 | 02:07:27 | 00:00:00 | |
| BIOWL9-15 | 2026-09-01 11:41:29 | 52.82591 | 8.68802 | 94° | 95km/h | 8912m | -4.2m/s | -38.6°C | 9.4% | 320.3hPa | 2.5V | 00:00:00 | 00:00:00 | 00:00:00 | |
| DL1LOL-11 | 2026-09-01 11:41:28 | 52.82591 | 8.68802 | 96° | 95km/h | 8912m | -4.2m/s | -38.6°C | 9.4% | 320.3hPa | 2.5V | 00:00:00 | 00:00:00 | 00:00:00 | |
| DM0DOS-11 | 2026-09-01 11:41:27 | 52.82595 | 8.68644 | 90° | 93km/h | 8930m | -4.6m/s | -38.7°C | 11.6% | 319.4hPa | 2.5V | 07:57:34 | 02:07:21 | 00:00:00 | |
| BIOWL1-15 | 2026-09-01 11:41:25 | 52.82606 | 8.68404 | 99° | 97km/h | 8957m | -4.4m/s | -38.9°C | 12.6% | 318.2hPa | 2.5V | 07:58:16 | 02:07:15 | 00:00:00 | |
| DL1XH-west | 2026-09-01 11:41:24 | 52.82595 | 8.68644 | 91° | 93km/h | 8930m | -4.6m/s | -38.7°C | 12.4% | 319.4hPa | 2.5V | 07:58:16 | 02:07:21 | 00:00:00 | |
| DF8AY | 2026-09-01 11:41:21 | 52.82614 | 8.68324 | 100° | 97km/h | 8966m | -4.5m/s | -38.9°C | 13% | 317.8hPa | 2.6V | 07:58:16 | 02:07:13 | 00:00:00 | |
| DL1XH-15 | 2026-09-01 11:41:21 | 52.82614 | 8.68324 | 100° | 97km/h | 8966m | -4.5m/s | -38.9°C | 12.5% | 317.8hPa | 2.6V | 07:57:42 | 02:07:13 | 00:00:00 | |
| DO2JMG | 2026-09-01 11:41:20 | 52.82600 | 8.68484 | 95° | 97km/h | 8949m | -4.3m/s | -38.8°C | 12.3% | 318.7hPa | 2.6V | 07:58:16 | 02:07:17 | 00:00:00 | |
| DL1XH1-15 | 2026-09-01 11:41:18 | 52.82610 | 8.68364 | 99° | 97km/h | 8962m | -4.5m/s | -38.9°C | 12.3% | 318.1hPa | 2.5V | 07:57:41 | 02:07:14 | 00:00:00 | |
| DL1XH-west | 2026-09-01 11:41:14 | 52.82627 | 8.68202 | 100° | 100km/h | 8980m | -4.7m/s | -38.9°C | 13.7% | 317.1hPa | 2.5V | 07:58:16 | 02:07:10 | 00:00:00 | |
| HSKMA3-T | 2026-09-01 11:41:11 | 52.82634 | 8.68119 | 96° | 100km/h | 8989m | -4.3m/s | -39°C | 14% | 316.7hPa | 2.5V | 07:58:16 | 02:07:08 | 00:00:00 | |
| DB0DAN | 2026-09-01 11:41:10 | 52.82636 | 8.68078 | 94° | 95km/h | 8993m | -4.2m/s | -39.1°C | 11% | 316.51hPa | 2.6V | 00:00:00 | 00:00:00 | 00:00:00 | |
| DF8AY | 2026-09-01 11:41:10 | 52.82636 | 8.68078 | 94° | 99km/h | 8993m | -4.2m/s | -39.1°C | 14.1% | 316.5hPa | 2.6V | 07:58:16 | 02:07:07 | 00:00:00 | |
| DL4BBY-15 | 2026-09-01 11:41:10 | 52.82636 | 8.68078 | 94° | 88km/h | 8993m | -4.2m/s | -37.7°C | 0% | 0hPa | 2.5V | 00:00:00 | 00:00:00 | 00:00:00 | |
| DD8BA-10 | 2026-09-01 11:41:08 | 52.82638 | 8.67997 | 91° | 93km/h | 9002m | -4.4m/s | -39.2°C | 13.7% | 316.1hPa | 2.5V | 00:00:00 | 00:00:00 | 00:00:00 | |
| DL1XH-15 | 2026-09-01 11:41:07 | 52.82638 | 8.67920 | 89° | 91km/h | 9010m | -4.2m/s | -39.3°C | 14% | 315.7hPa | 2.5V | 07:57:52 | 02:07:03 | 00:00:00 | |
| DL1XH-west | 2026-09-01 11:41:03 | 52.82637 | 8.67805 | 89° | 95km/h | 9024m | -4.5m/s | -39.4°C | 16% | 315.1hPa | 2.6V | 07:58:16 | 02:07:00 | 00:00:00 | |
| AA1-15 | 2026-09-01 11:41:02 | 52.82637 | 8.67766 | 89° | 95km/h | 9028m | -4.5m/s | -39.4°C | 16.5% | 314.9hPa | 2.5V | 07:59:07 | 02:06:59 | 00:00:00 | |
| BIOWL1-15 | 2026-09-01 11:41:02 | 52.82632 | 8.67611 | 87° | 89km/h | 9046m | -4.8m/s | -39.5°C | 18.9% | 314.1hPa | 2.6V | 07:58:16 | 02:06:55 | 00:00:00 | |
| D01LWL | 2026-09-01 11:41:01 | 52.82642 | 8.67166 | 97° | 82km/h | 9104m | -4.3m/s | -39.8°C | 17.6% | 311.5hPa | 2.5V | 00:00:00 | 00:00:00 | 00:00:00 | |
| DL1XH1-15 | 2026-09-01 11:41:00 | 52.82631 | 8.67574 | 87° | 88km/h | 9051m | -4.5m/s | -39.5°C | 18.3% | 313.9hPa | 2.5V | 07:58:01 | 02:06:54 | 00:00:00 | |
| DO2JMG | 2026-09-01 11:40:59 | 52.82634 | 8.67649 | 87° | 91km/h | 9042m | -4.5m/s | -39.5°C | 18.3% | 314.3hPa | 2.6V | 07:58:16 | 02:06:56 | 00:00:00 | |
| DM0DOS-11 | 2026-09-01 11:40:58 | 52.82630 | 8.67433 | 93° | 80km/h | 9068m | -4.3m/s | -39.7°C | 19.4% | 313.1hPa | 2.6V | 07:58:05 | 02:06:50 | 00:00:00 | |
| BIOWL9-15 | 2026-09-01 11:40:58 | 52.82631 | 8.67574 | 87° | 88km/h | 9051m | -4.5m/s | -39.5°C | -1.0% | 313.9hPa | 2.5V | 00:00:00 | 00:00:00 | 00:00:00 | |
| SMARD9-15 | 2026-09-01 11:40:56 | 52.82630 | 8.67502 | 89° | 82km/h | 9060m | -4.3m/s | -39.6°C | 16.0% | 313.4hPa | 2.5V | 00:00:00 | 00:00:00 | 00:00:00 | |
| DB0DAN | 2026-09-01 11:40:55 | 52.82630 | 8.67502 | 89° | 80km/h | 9060m | -4.3m/s | -39.6°C | 16% | 313.44hPa | 2.5V | 00:00:00 | 00:00:00 | 00:00:00 | |
| DL1XH-west | 2026-09-01 11:40:53 | 52.82630 | 8.67433 | 93° | 82km/h | 9068m | -4.3m/s | -39.7°C | 20.7% | 313.1hPa | 2.6V | 07:58:16 | 02:06:50 | 00:00:00 | |
| BIOWL1-15 | 2026-09-01 11:40:51 | 52.82638 | 8.67234 | 94° | 78km/h | 9095m | -4.7m/s | -39.8°C | 22.4% | 311.9hPa | 2.6V | 07:58:16 | 02:06:44 | 00:00:00 | |
| AA1-15 | 2026-09-01 11:40:51 | 52.82633 | 8.67366 | 94° | 80km/h | 9077m | -4.2m/s | -39.7°C | 21.6% | 312.8hPa | 2.5V | 07:59:07 | 02:06:48 | 00:00:00 | |
| DL1CLM-18 | 2026-09-01 11:40:51 | 52.82633 | 8.67366 | 95° | 80km/h | 9077m | -4.2m/s | -39.7°C | 17.1% | 312.8hPa | 2.6V | 07:58:00 | 00:00:00 | 00:00:00 | |
| DL1XH1-15 | 2026-09-01 11:40:50 | 52.82638 | 8.67234 | 94° | 78km/h | 9095m | -4.7m/s | -39.8°C | 20.6% | 311.9hPa | 2.6V | 07:58:11 | 02:06:44 | 00:00:00 | |
| DO2JMG | 2026-09-01 11:40:49 | 52.82636 | 8.67299 | 94° | 78km/h | 9085m | -4.5m/s | -39.7°C | 22.2% | 312.3hPa | 2.5V | 07:58:16 | 02:06:46 | 00:00:00 | |
| DD8BA-10 | 2026-09-01 11:40:48 | 52.82637 | 8.67267 | 94° | 88km/h | 9090m | -4.9m/s | -39.7°C | 20.6% | 312.1hPa | 2.5V | 00:00:00 | 00:00:00 | 00:00:00 | |
| DL1XH-15 | 2026-09-01 11:40:47 | 52.82640 | 8.67201 | 95° | 80km/h | 9099m | -4.5m/s | -39.8°C | 20.7% | 311.7hPa | 2.5V | 07:58:12 | 02:06:43 | 00:00:00 | |
| HSKMA3-T | 2026-09-01 11:40:45 | 52.82645 | 8.67131 | 98° | 88km/h | 9108m | -4.2m/s | -39.8°C | 22.4% | 311.3hPa | 2.5V | 07:58:16 | 02:06:41 | 00:00:00 | |
| DL1XH-west | 2026-09-01 11:40:43 | 52.82648 | 8.67094 | 98° | 91km/h | 9112m | -4.2m/s | -39.8°C | 22.5% | 311.1hPa | 2.6V | 07:58:16 | 02:06:40 | 00:00:00 | |
| AA1-15 | 2026-09-01 11:40:41 | 52.82658 | 8.66976 | 98° | 97km/h | 9125m | -4.3m/s | -39.8°C | 22.7% | 310.5hPa | 2.5V | 07:59:07 | 02:06:37 | 00:00:00 | |
| DL1XH-15 | 2026-09-01 11:40:41 | 52.82676 | 8.66777 | 98° | 99km/h | 9146m | -4.1m/s | -40°C | 22% | 309.5hPa | 2.6V | 07:58:23 | 02:06:32 | 00:00:00 | |
| DL1XH1-15 | 2026-09-01 11:40:41 | 52.82669 | 8.66857 | 98° | 95km/h | 9138m | -4.6m/s | -39.9°C | 21.7% | 309.9hPa | 2.5V | 07:58:21 | 02:06:34 | 00:00:00 | |
| DO2JMG | 2026-09-01 11:40:39 | 52.82661 | 8.66936 | 98° | 97km/h | 9129m | -4.4m/s | -39.9°C | 22.8% | 310.3hPa | 2.5V | 07:59:07 | 02:06:36 | 00:00:00 | |
| BIOWL1-15 | 2026-09-01 11:40:38 | 52.82680 | 8.66737 | 99° | 99km/h | 9151m | -4.6m/s | -40°C | 23.2% | 309.3hPa | 2.6V | 07:59:07 | 02:06:31 | 00:00:00 | |
| DF8AY | 2026-09-01 11:40:36 | 52.82676 | 8.66777 | 99° | 99km/h | 9147m | -4.1m/s | -40°C | 23.2% | 309.5hPa | 2.6V | 07:59:07 | 02:06:32 | 00:00:00 | |
| DL1XH-west | 2026-09-01 11:40:33 | 52.82684 | 8.66696 | 97° | 100km/h | 9156m | -4.6m/s | -40.1°C | 23.3% | 309hPa | 2.5V | 07:59:07 | 02:06:30 | 00:00:00 | |
| GOEST3-10 | 2026-09-01 11:40:32 | 52.82686 | 8.66654 | 96° | 104km/h | 9160m | -4.3m/s | -40.1°C | 22.2% | 308.8hPa | 2.5V | 00:00:00 | 02:06:29 | 00:00:00 | |
| DL1XH1-15 | 2026-09-01 11:40:30 | 52.82693 | 8.66437 | 92° | 106km/h | 9181m | -4.3m/s | -40.3°C | 22.5% | 307.9hPa | 2.5V | 07:58:31 | 02:06:24 | 00:00:00 | |
| AA1-15 | 2026-09-01 11:40:30 | 52.82691 | 8.66524 | 92° | 104km/h | 9173m | -4.2m/s | -40.3°C | 23.5% | 308.3hPa | 2.6V | 07:59:07 | 02:06:26 | 00:00:00 | |
| DO2JMG | 2026-09-01 11:40:28 | 52.82692 | 8.66480 | 92° | 106km/h | 9177m | -4.3m/s | -40.3°C | 23.4% | 308.1hPa | 2.5V | 07:59:07 | 02:06:25 | 00:00:00 | |
| BIOWL1-15 | 2026-09-01 11:40:27 | 52.82693 | 8.66437 | 93° | 106km/h | 9181m | -4.3m/s | -40.3°C | 23.5% | 307.9hPa | 2.5V | 07:59:07 | 02:06:24 | 00:00:00 | |
| DF8AY | 2026-09-01 11:40:25 | 52.82696 | 8.66348 | 92° | 106km/h | 9190m | -4.5m/s | -40.4°C | 23.4% | 307.5hPa | 2.6V | 07:59:07 | 02:06:22 | 00:00:00 | |
| DL1XH-west | 2026-09-01 11:40:23 | 52.82696 | 8.66261 | 89° | 104km/h | 9199m | -4.4m/s | -40.5°C | 23.3% | 307.1hPa | 2.6V | 07:59:07 | 02:06:20 | 00:00:00 | |
| DO2JMG | 2026-09-01 11:40:19 | 52.82690 | 8.66056 | 86° | 95km/h | 9221m | -4.6m/s | -40.6°C | 22.7% | 306hPa | 2.6V | 07:59:07 | 02:06:15 | 00:00:00 | |
| BIOWL1-15 | 2026-09-01 11:40:17 | 52.82688 | 8.66017 | 86° | 93km/h | 9226m | -4.8m/s | -40.6°C | 22.5% | 305.9hPa | 2.6V | 07:59:07 | 02:06:14 | 00:00:00 | |
| DF8AY | 2026-09-01 11:40:14 | 52.82686 | 8.65905 | 92° | 86km/h | 9240m | -4.6m/s | -40.7°C | 22.5% | 305.2hPa | 2.5V | 07:59:07 | 02:06:11 | 00:00:00 | |
| DL1XH-west | 2026-09-01 11:40:13 | 52.82690 | 8.65833 | 98° | 89km/h | 9249m | -4.4m/s | -40.6°C | 22.8% | 304.9hPa | 2.6V | 07:59:07 | 02:06:09 | 00:00:00 | |
| GOEST3-10 | 2026-09-01 11:40:12 | 52.82690 | 8.65833 | 98° | 95km/h | 9249m | -4.4m/s | -40.6°C | 21.0% | 304.8hPa | 2.6V | 00:00:00 | 02:06:09 | 00:00:00 | |
| DB0DAN | 2026-09-01 11:40:10 | 52.82698 | 8.65757 | 100° | 91km/h | 9258m | -4.2m/s | -40.7°C | 18.4% | 304.46hPa | 2.5V | 00:00:00 | 00:00:00 | 00:00:00 | |
| HSKMA3-T | 2026-09-01 11:40:10 | 52.82698 | 8.65757 | 100° | 95km/h | 9258m | -4.2m/s | -40.7°C | 23.5% | 304.5hPa | 2.5V | 07:59:07 | 02:06:07 | 00:00:00 | |
| DO2JMG | 2026-09-01 11:40:08 | 52.82707 | 8.65677 | 100° | 100km/h | 9267m | -4.6m/s | -40.7°C | 24.3% | 304.1hPa | 2.5V | 07:59:07 | 02:06:05 | 00:00:00 | |
| DM0DOS-11 | 2026-09-01 11:40:08 | 52.82730 | 8.65411 | 95° | 111km/h | 9295m | -4.8m/s | -40.9°C | 26.4% | 302.8hPa | 2.5V | 07:58:56 | 02:05:59 | 00:00:00 | |
| AA1-15 | 2026-09-01 11:40:07 | 52.82711 | 8.65635 | 100° | 102km/h | 9272m | -4.6m/s | -40.8°C | 24.8% | 303.9hPa | 2.6V | 07:59:07 | 02:06:04 | 00:00:00 | |
| BIOWL1-15 | 2026-09-01 11:40:06 | 52.82724 | 8.65503 | 98° | 110km/h | 9285m | -4.7m/s | -40.8°C | 26.9% | 303.2hPa | 2.5V | 07:59:07 | 02:06:01 | 00:00:00 | |
| DF8AY | 2026-09-01 11:40:03 | 52.82727 | 8.65457 | 97° | 111km/h | 9290m | -4.7m/s | -40.8°C | 27.3% | 303hPa | 2.5V | 07:59:07 | 02:06:00 | 00:00:00 | |
| DL1XH-west | 2026-09-01 11:40:01 | 52.82733 | 8.65364 | 94° | 113km/h | 9299m | -4.8m/s | -40.9°C | 28.1% | 302.6hPa | 2.5V | 07:59:07 | 02:05:58 | 00:00:00 | |
| DL1XH1-15 | 2026-09-01 11:40:01 | 52.82732 | 8.65182 | 86° | 104km/h | 9317m | -4.5m/s | -41.2°C | 28.2% | 301.8hPa | 2.5V | 07:59:01 | 02:05:54 | 00:00:00 | |
| DL1XH-15 | 2026-09-01 11:40:00 | 52.82729 | 8.65099 | 86° | 97km/h | 9327m | -4.7m/s | -41.3°C | 28.8% | 301.4hPa | 2.5V | 07:59:03 | 02:05:52 | 00:00:00 | |
| HSKMA3-T | 2026-09-01 11:40:00 | 52.82734 | 8.65317 | 92° | 111km/h | 9304m | -4.8m/s | -41°C | 28.5% | 302.4hPa | 2.6V | 07:59:07 | 02:05:57 | 00:00:00 | |
| DJ2DS-15 | 2026-09-01 11:40:00 | 52.82734 | 8.65271 | 89° | 108km/h | 9309m | -4.5m/s | -41.1°C | 23.4% | 302.2hPa | 2.6V | 00:00:00 | 00:00:00 | 00:00:00 | |
| DL3AQ-11 | 2026-09-01 11:39:59 | 52.82734 | 8.65226 | 87° | 106km/h | 9313m | -4.3m/s | -41.2°C | 23.9% | 302.0hPa | 2.6V | 00:00:00 | 00:00:00 | 00:00:00 | |
| DD8BA-10 | 2026-09-01 11:39:58 | 52.82734 | 8.65226 | 88° | 95km/h | 9313m | -4.2m/s | -41.1°C | 27.9% | 301.9hPa | 2.6V | 00:00:00 | 00:00:00 | 00:00:00 | |
| DM0DOS-11 | 2026-09-01 11:39:57 | 52.82726 | 8.65021 | 88° | 91km/h | 9336m | -4.7m/s | -41.4°C | 29.1% | 301hPa | 2.6V | 07:59:05 | 02:05:50 | 00:00:00 | |
| AA1-15 | 2026-09-01 11:39:57 | 52.82732 | 8.65182 | 86° | 104km/h | 9317m | -4.5m/s | -41.2°C | 29.9% | 301.8hPa | 2.5V | 07:59:07 | 02:05:54 | 00:00:00 | |
| BIOWL9-15 | 2026-09-01 11:39:56 | 52.82727 | 8.65060 | 86° | 93km/h | 9331m | -4.7m/s | -41.3°C | 24.8% | 301.2hPa | 2.5V | 00:00:00 | 00:00:00 | 00:00:00 | |
| DB0DAN | 2026-09-01 11:39:55 | 52.82729 | 8.65099 | 86° | 91km/h | 9327m | -4.7m/s | -41.3°C | 24.7% | 301.36hPa | 2.5V | 00:00:00 | 00:00:00 | 00:00:00 | |
| DF8AY | 2026-09-01 11:39:53 | 52.82726 | 8.65021 | 88° | 91km/h | 9336m | -4.7m/s | -41.4°C | 31.2% | 301hPa | 2.6V | 07:59:07 | 02:05:50 | 00:00:00 | |
| DL1XH-west | 2026-09-01 11:39:51 | 52.82727 | 8.64946 | 93° | 89km/h | 9345m | -4.6m/s | -41.5°C | 31.4% | 300.6hPa | 2.5V | 07:59:07 | 02:05:48 | 00:00:00 | |
| HSKMA3-T | 2026-09-01 11:39:49 | 52.82731 | 8.64871 | 97° | 91km/h | 9354m | -4.8m/s | -41.5°C | 31.5% | 300.2hPa | 2.6V | 08:00:49 | 02:05:46 | 00:00:00 | |
| DC6BW-12 | 2026-09-01 11:39:49 | 52.82731 | 8.64871 | 98° | 91km/h | 9355m | -4.8m/s | -41.5°C | 25.1% | 300.2hPa | 2.5V | 07:59:00 | 00:00:00 | 00:00:00 | |
| DL1XH1-15 | 2026-09-01 11:39:49 | 52.82738 | 8.64793 | 99° | 97km/h | 9364m | -4.5m/s | -41.5°C | 29.8% | 299.7hPa | 2.6V | 07:59:11 | 02:05:44 | 00:00:00 | |
| DD8BA-10 | 2026-09-01 11:39:48 | 52.82734 | 8.64832 | 99° | 106km/h | 9359m | -4.7m/s | -41.5°C | 29.6% | 299.9hPa | 2.5V | 00:00:00 | 00:00:00 | 00:00:00 | |
| DM0DOS-11 | 2026-09-01 11:39:47 | 52.82755 | 8.64624 | 98° | 108km/h | 9382m | -4.7m/s | -41.6°C | 32.4% | 299hPa | 2.5V | 07:59:15 | 02:05:40 | 00:00:00 | |
| AA1-15 | 2026-09-01 11:39:47 | 52.82742 | 8.64753 | 100° | 99km/h | 9368m | -4.5m/s | -41.6°C | 32.2% | 299.6hPa | 2.5V | 07:59:58 | 02:05:43 | 00:00:00 | |
| BIOWL1-15 | 2026-09-01 11:39:43 | 52.82759 | 8.64579 | 98° | 111km/h | 9387m | -4.7m/s | -41.6°C | 34% | 298.8hPa | 2.6V | 07:59:58 | 02:05:39 | 00:00:00 | |
| DL8OAI-8 | 2026-09-01 11:39:42 | 52.82759 | 8.64579 | 99° | 111km/h | 9387m | -4.7m/s | -41.6°C | 28.6% | 298.8hPa | 2.6V | 07:59:00 | 00:00:00 | 00:00:00 | |
| DL1XH-15 | 2026-09-01 11:39:41 | 52.82771 | 8.64253 | 88° | 108km/h | 9419m | -4.6m/s | -42.1°C | 35.7% | 297.3hPa | 2.6V | 07:59:23 | 02:05:32 | 00:00:00 | |
| DL1XH-west | 2026-09-01 11:39:40 | 52.82766 | 8.64486 | 96° | 113km/h | 9396m | -4.6m/s | -41.7°C | 35% | 298.3hPa | 2.6V | 07:59:58 | 02:05:37 | 00:00:00 | |
| DB0DAN | 2026-09-01 11:39:40 | 52.82766 | 8.64486 | 96° | 108km/h | 9396m | -4.6m/s | -41.7°C | 29.5% | 298.33hPa | 2.6V | 00:00:00 | 00:00:00 | 00:00:00 | |
| HSKMA3-T | 2026-09-01 11:39:36 | 52.82772 | 8.64298 | 90° | 110km/h | 9415m | -4.4m/s | -42°C | 36.8% | 297.5hPa | 2.5V | 08:00:49 | 02:05:33 | 00:00:00 | |
| DM0DOS-11 | 2026-09-01 11:39:35 | 52.82769 | 8.64165 | 88° | 104km/h | 9428m | -4.4m/s | -42.2°C | 36.4% | 296.9hPa | 2.6V | 07:59:25 | 02:05:30 | 00:00:00 | |
| AA1-15 | 2026-09-01 11:39:35 | 52.82771 | 8.64253 | 89° | 108km/h | 9419m | -4.6m/s | -42.1°C | 37.1% | 297.3hPa | 2.6V | 07:59:58 | 02:05:32 | 00:00:00 | |
| DF8AY | 2026-09-01 11:39:32 | 52.82766 | 8.64038 | 87° | 100km/h | 9441m | -4.5m/s | -42.3°C | 38.4% | 296.3hPa | 2.5V | 07:59:58 | 02:05:27 | 00:00:00 | |
| DL1XH-west | 2026-09-01 11:39:29 | 52.82765 | 8.63996 | 87° | 102km/h | 9445m | -4.6m/s | -42.4°C | 38.4% | 296.2hPa | 2.6V | 07:59:58 | 02:05:26 | 00:00:00 | |
| DO2SHX-10 | 2026-09-01 11:39:29 | 52.82765 | 8.63996 | 87° | 102km/h | 9446m | -4.5m/s | -42.3°C | 36.5% | 296.1hPa | 2.6V | 00:00:00 | 02:05:26 | 00:00:00 | |
| DD8BA-10 | 2026-09-01 11:39:28 | 52.82763 | 8.63953 | 86° | 95km/h | 9450m | -4.7m/s | -42.3°C | 36.2% | 295.9hPa | 2.6V | 00:00:00 | 00:00:00 | 00:00:00 | |
| DL1XH-15 | 2026-09-01 11:39:27 | 52.82757 | 8.63828 | 85° | 97km/h | 9464m | -4.9m/s | -42.4°C | 35.8% | 295.3hPa | 2.5V | 07:59:33 | 02:05:22 | 00:00:00 | |
| HSKMA3-T | 2026-09-01 11:39:26 | 52.82759 | 8.63869 | 85° | 99km/h | 9459m | -4.9m/s | -42.4°C | 38.1% | 295.5hPa | 2.5V | 08:00:49 | 02:05:23 | 00:00:00 | |
| DB0DAN | 2026-09-01 11:39:25 | 52.82757 | 8.63828 | 85° | 93km/h | 9464m | -4.9m/s | -42.4°C | 30.9% | 295.3hPa | 2.5V | 00:00:00 | 00:00:00 | 00:00:00 | |
| AA1-15 | 2026-09-01 11:39:25 | 52.82755 | 8.63788 | 85° | 95km/h | 9470m | -5.2m/s | -42.5°C | 37.8% | 295.1hPa | 2.6V | 07:59:58 | 02:05:21 | 00:00:00 | |
| BIOWL1-15 | 2026-09-01 11:39:23 | 52.82753 | 8.63673 | 93° | 89km/h | 9484m | -4.6m/s | -42.5°C | 37.3% | 294.4hPa | 2.5V | 07:59:58 | 02:05:18 | 00:00:00 | |
| DF8AY | 2026-09-01 11:39:22 | 52.82753 | 8.63710 | 90° | 91km/h | 9480m | -4.9m/s | -42.5°C | 37.5% | 294.6hPa | 2.6V | 07:59:58 | 02:05:19 | 00:00:00 | |
| DO2SHX-10 | 2026-09-01 11:39:22 | 52.82753 | 8.63710 | 90° | 99km/h | 9480m | -4.9m/s | -42.5°C | 36.3% | 294.6hPa | 2.6V | 00:00:00 | 02:05:19 | 00:00:00 | |
| DJ2DS-15 | 2026-09-01 11:39:21 | 52.82753 | 8.63673 | 94° | 104km/h | 9484m | -4.6m/s | -42.5°C | 36.4% | 294.4hPa | 2.6V | 00:00:00 | 02:05:18 | 00:00:00 | |
| DL1XH-15 | 2026-09-01 11:39:20 | 52.82772 | 8.63428 | 95° | 110km/h | 9513m | -4.6m/s | -42.7°C | 36.2% | 293.2hPa | 2.6V | 07:59:43 | 02:05:12 | 00:00:00 | |
| DL1XH-west | 2026-09-01 11:39:19 | 52.82761 | 8.63556 | 99° | 99km/h | 9498m | -4.9m/s | -42.6°C | 37.2% | 293.8hPa | 2.5V | 07:59:58 | 02:05:15 | 00:00:00 | |
| AA1-15 | 2026-09-01 11:39:14 | 52.82775 | 8.63334 | 91° | 113km/h | 9522m | -4.5m/s | -42.8°C | 37.1% | 292.8hPa | 2.5V | 07:59:58 | 02:05:10 | 00:00:00 | |
| GOEST3-10 | 2026-09-01 11:39:12 | 52.82775 | 8.63286 | 90° | 113km/h | 9527m | -4.5m/s | -42.8°C | 35.9% | 292.6hPa | 2.5V | 00:00:00 | 02:05:09 | 00:00:00 | |
| DF8AY | 2026-09-01 11:39:12 | 52.82775 | 8.63239 | 89° | 115km/h | 9531m | -4.9m/s | -42.9°C | 37.1% | 292.4hPa | 2.5V | 07:59:58 | 02:05:08 | 00:00:00 | |
| DD1CC3-15 | 2026-09-01 11:39:11 | 52.82775 | 8.63286 | 91° | 115km/h | 9527m | -4.5m/s | -42.9°C | 31.0% | 292.6hPa | 2.5V | 07:59:00 | 00:00:00 | 00:00:00 | |
| DL4BBY-15 | 2026-09-01 11:39:10 | 52.82774 | 8.63191 | 88° | 97km/h | 9537m | -5.1m/s | -41.5°C | 0% | 0hPa | 2.5V | 00:00:00 | 00:00:00 | 00:00:00 | |
| DB0DAN | 2026-09-01 11:39:10 | 52.82774 | 8.63191 | 88° | 108km/h | 9537m | -5.1m/s | -42.9°C | 31% | 292.19hPa | 2.6V | 00:00:00 | 00:00:00 | 00:00:00 | |
| DL1XH-15 | 2026-09-01 11:39:08 | 52.82764 | 8.62967 | 85° | 99km/h | 9561m | -4.6m/s | -43.1°C | 35.3% | 291.1hPa | 2.5V | 07:59:53 | 02:05:02 | 00:00:00 | |
| DL1XH-west | 2026-09-01 11:39:07 | 52.82769 | 8.63052 | 85° | 108km/h | 9552m | -4.9m/s | -43°C | 36.6% | 291.5hPa | 2.5V | 07:59:58 | 02:05:04 | 00:00:00 | |
| DO2JMG | 2026-09-01 11:39:04 | 52.82762 | 8.62926 | 86° | 95km/h | 9566m | -4.4m/s | -43.2°C | 36.3% | 290.9hPa | 2.6V | 07:59:58 | 02:05:01 | 00:00:00 | |
| AA1-15 | 2026-09-01 11:39:02 | 52.82761 | 8.62849 | 90° | 91km/h | 9575m | -4.7m/s | -43.2°C | 36.4% | 290.5hPa | 2.5V | 07:59:58 | 02:04:59 | 00:00:00 | |
| DF8AY | 2026-09-01 11:39:01 | 52.82761 | 8.62811 | 91° | 91km/h | 9580m | -4.6m/s | -43.2°C | 36.4% | 290.3hPa | 2.5V | 07:59:58 | 02:04:58 | 00:00:00 | |
| DJ2DS-15 | 2026-09-01 11:39:01 | 52.82760 | 8.62810 | 91° | 93km/h | 9580m | -4.6m/s | -43.1°C | 35.3% | 290.3hPa | 2.5V | 00:00:00 | 02:04:58 | 00:00:00 | |
| DL1XH1-15 | 2026-09-01 11:39:00 | 52.82762 | 8.62656 | 89° | 93km/h | 9599m | -4.8m/s | -43.3°C | 35.3% | 289.5hPa | 2.6V | 08:00:01 | 02:04:54 | 00:00:00 | |
| BIOWL1-15 | 2026-09-01 11:39:00 | 52.82761 | 8.62772 | 91° | 91km/h | 9584m | -4.9m/s | -43.2°C | 36.5% | 290.1hPa | 2.5V | 07:59:58 | 02:04:57 | 00:00:00 | |
| HSKMA3-T | 2026-09-01 11:38:59 | 52.82762 | 8.62695 | 91° | 93km/h | 9594m | -4.7m/s | -43.3°C | 36.7% | 289.7hPa | 2.6V | 08:00:49 | 02:04:55 | 00:00:00 | |
| DL1XH-west | 2026-09-01 11:38:56 | 52.82762 | 8.62617 | 89° | 93km/h | 9604m | -4.6m/s | -43.4°C | 36.7% | 289.3hPa | 2.5V | 08:00:49 | 02:04:53 | 00:00:00 | |
| BUE01 | 2026-09-01 11:38:56 | 52.82761 | 8.62579 | 88° | 93km/h | 9608m | -4.7m/s | -43.4°C | 29.7% | 289.1hPa | 2.5V | 00:00:00 | 00:00:00 | 00:00:00 | |
| DB0DAN | 2026-09-01 11:38:55 | 52.82761 | 8.62579 | 89° | 89km/h | 9608m | -4.7m/s | -43.4°C | 29.7% | 289.07hPa | 2.5V | 00:00:00 | 00:00:00 | 00:00:00 | |
| DM0DOS-11 | 2026-09-01 11:38:55 | 52.82760 | 8.62462 | 88° | 91km/h | 9622m | -4.8m/s | -43.5°C | 33.1% | 288.5hPa | 2.6V | 08:00:06 | 02:04:49 | 00:00:00 | |
| DO2JMG | 2026-09-01 11:38:54 | 52.82760 | 8.62501 | 89° | 93km/h | 9618m | -4.7m/s | -43.4°C | 35.7% | 288.7hPa | 2.5V | 08:00:49 | 02:04:50 | 00:00:00 | |
| AA1-15 | 2026-09-01 11:38:51 | 52.82759 | 8.62424 | 89° | 91km/h | 9627m | -4.7m/s | -43.5°C | 35.2% | 288.2hPa | 2.6V | 08:00:49 | 02:04:48 | 00:00:00 | |
| DL1XH1-15 | 2026-09-01 11:38:50 | 52.82760 | 8.62274 | 91° | 89km/h | 9647m | -5.2m/s | -43.6°C | 32.4% | 287.4hPa | 2.5V | 08:00:11 | 02:04:44 | 00:00:00 | |
| DF8AY | 2026-09-01 11:38:50 | 52.82759 | 8.62386 | 90° | 91km/h | 9632m | -4.9m/s | -43.5°C | 34.9% | 288.1hPa | 2.6V | 08:00:49 | 02:04:47 | 00:00:00 | |
| HSKMA3-T | 2026-09-01 11:38:49 | 52.82759 | 8.62311 | 91° | 89km/h | 9642m | -5m/s | -43.6°C | 34.3% | 287.7hPa | 2.5V | 08:00:49 | 02:04:45 | 00:00:00 | |
| DL1XH-west | 2026-09-01 11:38:46 | 52.82761 | 8.62236 | 94° | 91km/h | 9652m | -5.1m/s | -43.6°C | 33.9% | 287.2hPa | 2.5V | 08:00:49 | 02:04:43 | 00:00:00 | |
| DO2JMG | 2026-09-01 11:38:44 | 52.82768 | 8.62115 | 97° | 102km/h | 9667m | -4.8m/s | -43.7°C | 34.3% | 286.5hPa | 2.6V | 08:00:49 | 02:04:40 | 00:00:00 | |
| DF8AY | 2026-09-01 11:38:41 | 52.82776 | 8.61932 | 90° | 115km/h | 9687m | -5.1m/s | -43.9°C | 35.4% | 285.7hPa | 2.6V | 08:00:49 | 02:04:36 | 00:00:00 | |
| DL1XH1-15 | 2026-09-01 11:38:40 | 52.82774 | 8.61837 | 86° | 113km/h | 9697m | -4.8m/s | -44°C | 34.1% | 285.3hPa | 2.5V | 08:00:21 | 02:04:34 | 00:00:00 | |
| DL1XH-15 | 2026-09-01 11:38:40 | 52.82766 | 8.61703 | 81° | 104km/h | 9712m | -4.8m/s | -44.1°C | 33.7% | 284.7hPa | 2.6V | 08:00:24 | 02:04:31 | 00:00:00 | |
| AA1-15 | 2026-09-01 11:38:40 | 52.82775 | 8.61980 | 93° | 113km/h | 9682m | -5.1m/s | -43.8°C | 35.2% | 285.9hPa | 2.5V | 08:00:49 | 02:04:37 | 00:00:00 | |
| HSKMA3-T | 2026-09-01 11:38:37 | 52.82774 | 8.61837 | 86° | 113km/h | 9697m | -4.8m/s | -44°C | 35.6% | 285.3hPa | 2.5V | 08:00:49 | 02:04:34 | 00:00:00 | |
| DL1XH-west | 2026-09-01 11:38:36 | 52.82769 | 8.61747 | 84° | 106km/h | 9706m | -5.1m/s | -44.1°C | 35.6% | 284.9hPa | 2.5V | 08:00:49 | 02:04:32 | 00:00:00 | |
| DM0DOS-11 | 2026-09-01 11:38:35 | 52.82759 | 8.61619 | 82° | 99km/h | 9721m | -5.1m/s | -44.2°C | 33.8% | 284.2hPa | 2.5V | 08:00:26 | 02:04:29 | 00:00:00 | |
| DO2JMG | 2026-09-01 11:38:33 | 52.82759 | 8.61619 | 82° | 99km/h | 9721m | -5.1m/s | -44.2°C | 35.9% | 284.2hPa | 2.5V | 08:00:49 | 02:04:29 | 00:00:00 | |
| AA1-15 | 2026-09-01 11:38:29 | 52.82749 | 8.61500 | 84° | 93km/h | 9737m | -5.3m/s | -44.3°C | 36.2% | 283.6hPa | 2.6V | 08:00:49 | 02:04:26 | 00:00:00 | |
| DD8BA-10 | 2026-09-01 11:38:28 | 52.82747 | 8.61461 | 86° | 99km/h | 9742m | -4.9m/s | -44.3°C | 34.2% | 283.3hPa | 2.6V | 08:00:00 | 00:00:00 | 00:00:00 | |
| DL1XH-15 | 2026-09-01 11:38:27 | 52.82745 | 8.61346 | 92° | 95km/h | 9757m | -4.9m/s | -44.4°C | 35% | 282.8hPa | 2.5V | 08:00:33 | 02:04:22 | 00:00:00 | |
| HSKMA3-T | 2026-09-01 11:38:26 | 52.82745 | 8.61385 | 90° | 91km/h | 9752m | -4.8m/s | -44.4°C | 36.6% | 283hPa | 2.5V | 08:00:49 | 02:04:23 | 00:00:00 | |
| DL1XH-west | 2026-09-01 11:38:25 | 52.82746 | 8.61346 | 92° | 95km/h | 9757m | -4.9m/s | -44.4°C | 36.9% | 282.8hPa | 2.5V | 08:00:49 | 02:04:22 | 00:00:00 | |
| DB0DAN | 2026-09-01 11:38:25 | 52.82746 | 8.61346 | 92° | 89km/h | 9757m | -4.9m/s | -44.4°C | 29.9% | 282.77hPa | 2.5V | 00:00:00 | 00:00:00 | 00:00:00 | |
| BUE01 | 2026-09-01 11:38:25 | 52.82747 | 8.61306 | 93° | 97km/h | 9762m | -4.9m/s | -44.5°C | 30.1% | 282.6hPa | 2.6V | 00:00:00 | 00:00:00 | 00:00:00 | |
| DM0DOS-11 | 2026-09-01 11:38:24 | 52.82751 | 8.61223 | 94° | 102km/h | 9771m | -4.7m/s | -44.5°C | 35.7% | 282.2hPa | 2.6V | 08:00:36 | 02:04:19 | 00:00:00 | |
| DO2JMG | 2026-09-01 11:38:22 | 52.82751 | 8.61223 | 95° | 102km/h | 9771m | -4.7m/s | -44.5°C | 37.5% | 282.2hPa | 2.6V | 08:00:49 | 02:04:19 | 00:00:00 | |
| AA1-15 | 2026-09-01 11:38:18 | 52.82759 | 8.61049 | 94° | 108km/h | 9791m | -5.2m/s | -44.7°C | 38.5% | 281.3hPa | 2.5V | 08:00:49 | 02:04:15 | 00:00:00 | |
| DL1XH-west | 2026-09-01 11:38:15 | 52.82763 | 8.60910 | 90° | 115km/h | 9806m | -5m/s | -44.8°C | 39.4% | 280.7hPa | 2.6V | 08:00:49 | 02:04:12 | 00:00:00 | |
| HSKMA3-T | 2026-09-01 11:38:13 | 52.82762 | 8.60813 | 88° | 117km/h | 9816m | -5.2m/s | -44.9°C | 40.3% | 280.3hPa | 2.6V | 08:00:49 | 02:04:10 | 00:00:00 | |
| BIOWL1-15 | 2026-09-01 11:38:13 | 52.82752 | 8.60571 | 85° | 117km/h | 9842m | -5.3m/s | -45.1°C | 42.9% | 279.2hPa | 2.6V | 08:01:40 | 02:04:05 | 00:00:00 | |
| GOEST3-10 | 2026-09-01 11:38:12 | 52.82760 | 8.60765 | 87° | 117km/h | 9821m | -4.9m/s | -44.9°C | 39.9% | 280.0hPa | 2.5V | 08:00:00 | 02:04:09 | 00:00:00 | |
| DO2JMG | 2026-09-01 11:38:12 | 52.82759 | 8.60716 | 86° | 117km/h | 9826m | -5.2m/s | -45°C | 41.4% | 279.9hPa | 2.5V | 08:00:49 | 02:04:08 | 00:00:00 | |
| DK9SH | 2026-09-01 11:38:11 | 52.82760 | 8.60765 | 88° | 117km/h | 9821m | -5.0m/s | -45.0°C | 34.2% | 280.1hPa | 2.5V | 08:00:00 | 00:00:00 | 00:00:00 | |
| DB0DAN | 2026-09-01 11:38:10 | 52.82756 | 8.60668 | 85° | 111km/h | 9831m | -5m/s | -45°C | 35.1% | 279.61hPa | 2.5V | 00:00:00 | 00:00:00 | 00:00:00 | |
| DD1CC3-15 | 2026-09-01 11:38:10 | 52.82756 | 8.60668 | 86° | 117km/h | 9831m | -5.0m/s | -45.0°C | 35.1% | 279.6hPa | 2.5V | 08:00:00 | 00:00:00 | 00:00:00 | |
| HTAHTA | 2026-09-01 11:38:09 | 52.82752 | 8.60571 | 85° | 115km/h | 9841m | -5.3m/s | -45.1°C | 35.9% | 279.2hPa | 2.5V | 00:00:00 | 00:00:00 | 00:00:00 | |
| DL1XH-15 | 2026-09-01 11:38:08 | 52.82743 | 8.60430 | 82° | 110km/h | 9857m | -4.9m/s | -45.4°C | 42.6% | 278.5hPa | 2.5V | 08:00:53 | 02:04:02 | 00:00:00 | |
| AA1-15 | 2026-09-01 11:38:07 | 52.82749 | 8.60523 | 85° | 115km/h | 9847m | -5.3m/s | -45.2°C | 43.2% | 279hPa | 2.6V | 08:01:40 | 02:04:04 | 00:00:00 | |
| DL1XH-west | 2026-09-01 11:38:05 | 52.82739 | 8.60385 | 83° | 108km/h | 9862m | -4.9m/s | -45.4°C | 44% | 278.4hPa | 2.5V | 08:01:40 | 02:04:01 | 00:00:00 | |
| BIOWL1-15 | 2026-09-01 11:38:02 | 52.82721 | 8.60164 | 82° | 106km/h | 9887m | -5.2m/s | -45.7°C | 44.4% | 277.4hPa | 2.6V | 08:01:40 | 02:03:56 | 00:00:00 | |
| HSKMA3-T | 2026-09-01 11:38:01 | 52.82729 | 8.60252 | 83° | 108km/h | 9877m | -5m/s | -45.6°C | 44.4% | 277.8hPa | 2.6V | 08:01:40 | 02:03:58 | 00:00:00 | |
| DL1XH-15 | 2026-09-01 11:38:01 | 52.82705 | 8.59991 | 80° | 104km/h | 9908m | -5.5m/s | -45.7°C | 41.6% | 276.4hPa | 2.5V | 08:01:03 | 02:03:52 | 00:00:00 | |
| AA1-15 | 2026-09-01 11:37:56 | 52.82709 | 8.60034 | 80° | 104km/h | 9903m | -5.5m/s | -45.7°C | 44.2% | 276.6hPa | 2.5V | 08:01:40 | 02:03:53 | 00:00:00 | |
| DL1XH-west | 2026-09-01 11:37:54 | 52.82700 | 8.59949 | 81° | 102km/h | 9914m | -5.6m/s | -45.8°C | 43.8% | 276.2hPa | 2.6V | 08:01:40 | 02:03:51 | 00:00:00 | |
| DM0DOS-11 | 2026-09-01 11:37:54 | 52.82693 | 8.59866 | 83° | 99km/h | 9924m | -4.7m/s | -45.9°C | 41.7% | 275.8hPa | 2.6V | 08:01:06 | 02:03:49 | 00:00:00 | |
| BIOWL1-15 | 2026-09-01 11:37:51 | 52.82692 | 8.59825 | 88° | 97km/h | 9929m | -4.9m/s | -45.9°C | 43.6% | 275.6hPa | 2.5V | 08:01:40 | 02:03:48 | 00:00:00 | |
| DO2JMG | 2026-09-01 11:37:50 | 52.82691 | 8.59784 | 90° | 99km/h | 9934m | -5.1m/s | -45.9°C | 43.6% | 275.4hPa | 2.5V | 08:01:40 | 02:03:47 | 00:00:00 | |
| AA1-15 | 2026-09-01 11:37:46 | 52.82695 | 8.59618 | 92° | 100km/h | 9954m | -5.1m/s | -46.1°C | 43.9% | 274.5hPa | 2.6V | 08:01:40 | 02:03:43 | 00:00:00 | |
| DF8AY | 2026-09-01 11:37:46 | 52.82696 | 8.59576 | 90° | 99km/h | 9960m | -5.2m/s | -46.2°C | 44.1% | 274.3hPa | 2.6V | 08:03:22 | 02:03:42 | 00:00:00 | |
| DD1CC8 | 2026-09-01 11:37:45 | 52.82695 | 8.59535 | 87° | 97km/h | 9965m | -4.6m/s | -46.2°C | 36.9% | 274.1hPa | 2.5V | 00:00:00 | 00:00:00 | 00:00:00 | |
| DM0DOS-11 | 2026-09-01 11:37:44 | 52.82692 | 8.59455 | 84° | 97km/h | 9974m | -5.3m/s | -46.4°C | 43.4% | 273.7hPa | 2.5V | 08:01:16 | 02:03:39 | 00:00:00 | |
| DL1XH-west | 2026-09-01 11:37:44 | 52.82695 | 8.59535 | 88° | 97km/h | 9965m | -4.6m/s | -46.2°C | 44.2% | 274.1hPa | 2.5V | 08:01:40 | 02:03:41 | 00:00:00 | |
| BIOWL1-15 | 2026-09-01 11:37:41 | 52.82689 | 8.59415 | 85° | 95km/h | 9980m | -5.5m/s | -46.4°C | 44.4% | 273.4hPa | 2.5V | 08:01:40 | 02:03:38 | 00:00:00 | |
| HSKMA3-T | 2026-09-01 11:37:40 | 52.82687 | 8.59376 | 85° | 95km/h | 9985m | -5.6m/s | -46.4°C | 44.4% | 273.2hPa | 2.6V | 08:01:40 | 02:03:37 | 00:00:00 | |
| DD8BA-10 | 2026-09-01 11:37:38 | 52.82682 | 8.59295 | 84° | 113km/h | 9997m | -5.2m/s | -46.5°C | 43.5% | 272.7hPa | 2.6V | 00:00:00 | 00:00:00 | 00:00:00 | |
| DM0DOS-11 | 2026-09-01 11:37:37 | 52.82664 | 8.58962 | 83° | 115km/h | 10033m | -5.7m/s | -46.9°C | 43.2% | 271.2hPa | 2.6V | 08:01:27 | 02:03:28 | 00:00:00 | |
| AA1-15 | 2026-09-01 11:37:35 | 52.82674 | 8.59159 | 86° | 117km/h | 10012m | -4.8m/s | -46.7°C | 44.6% | 272.2hPa | 2.5V | 08:01:40 | 02:03:32 | 00:00:00 | |
| DL1XH-west | 2026-09-01 11:37:34 | 52.82672 | 8.59110 | 86° | 119km/h | 10017m | -5m/s | -46.7°C | 44.6% | 271.9hPa | 2.5V | 08:01:40 | 02:03:31 | 00:00:00 | |
| BIOWL1-15 | 2026-09-01 11:37:33 | 52.82664 | 8.58962 | 84° | 115km/h | 10033m | -5.7m/s | -46.9°C | 44.6% | 271.2hPa | 2.6V | 08:01:40 | 02:03:28 | 00:00:00 | |
| DO2JMG | 2026-09-01 11:37:30 | 52.82661 | 8.58916 | 83° | 111km/h | 10039m | -5.1m/s | -46.9°C | 44.5% | 271.1hPa | 2.5V | 08:01:40 | 02:03:27 | 00:00:00 | |
| HSKMA3-T | 2026-09-01 11:37:29 | 52.82657 | 8.58871 | 82° | 106km/h | 10044m | -5.1m/s | -47°C | 44.4% | 270.9hPa | 2.5V | 08:01:40 | 02:03:26 | 00:00:00 | |
| DL1XH-west | 2026-09-01 11:37:28 | 52.82645 | 8.58626 | 89° | 95km/h | 10075m | -5.4m/s | -47.1°C | 42.1% | 269.6hPa | 2.5V | 08:01:40 | 02:03:20 | 00:00:00 | |
| GOEST3-10 | 2026-09-01 11:37:27 | 52.82651 | 8.58786 | 84° | 97km/h | 10054m | -5.2m/s | -47.0°C | 42.0% | 270.4hPa | 2.5V | 08:01:00 | 00:00:00 | 00:00:00 | |
| DM0DOS-11 | 2026-09-01 11:37:26 | 52.82645 | 8.58545 | 92° | 99km/h | 10086m | -5m/s | -47.2°C | 39.9% | 269.1hPa | 2.5V | 08:01:37 | 02:03:18 | 00:00:00 | |
| AA1-15 | 2026-09-01 11:37:24 | 52.82645 | 8.58666 | 88° | 95km/h | 10070m | -5.3m/s | -47.1°C | 42.6% | 269.8hPa | 2.6V | 08:01:40 | 02:03:21 | 00:00:00 | |
| BIOWL1-15 | 2026-09-01 11:37:21 | 52.82645 | 8.58545 | 92° | 99km/h | 10086m | -5m/s | -47.2°C | 41.5% | 269.1hPa | 2.5V | 08:01:40 | 02:03:18 | 00:00:00 | |
| HSKMA3-T | 2026-09-01 11:37:19 | 52.82649 | 8.58461 | 95° | 102km/h | 10096m | -5.2m/s | -47.3°C | 41.5% | 268.7hPa | 2.6V | 08:01:40 | 02:03:16 | 00:00:00 | |
| DL3AQ-11 | 2026-09-01 11:37:19 | 52.82651 | 8.58419 | 95° | 102km/h | 10101m | -5.4m/s | -47.3°C | 34.6% | 268.6hPa | 2.6V | 00:00:00 | 00:00:00 | 00:00:00 | |
| DD8BA-10 | 2026-09-01 11:37:18 | 52.82651 | 8.58419 | 96° | 99km/h | 10101m | -5.3m/s | -47.3°C | 40.8% | 268.5hPa | 2.6V | 00:00:00 | 00:00:00 | 00:00:00 | |
| GOEST3-10 | 2026-09-01 11:37:17 | 52.82654 | 8.58376 | 96° | 97km/h | 10107m | -5.3m/s | -47.3°C | 41.2% | 268.2hPa | 2.6V | 00:00:00 | 00:00:00 | 00:00:00 | |
| DM0DOS-11 | 2026-09-01 11:37:15 | 52.82658 | 8.58135 | 87° | 97km/h | 10139m | -5.1m/s | -47.7°C | 41.4% | 267hPa | 2.6V | 08:01:47 | 02:03:08 | 00:00:00 | |
| AA1-15 | 2026-09-01 11:37:13 | 52.82659 | 8.58214 | 90° | 93km/h | 10128m | -5.7m/s | -47.5°C | 42.8% | 267.5hPa | 2.5V | 08:02:31 | 02:03:10 | 00:00:00 | |
| DL1XH-west | 2026-09-01 11:37:12 | 52.82659 | 8.58175 | 89° | 95km/h | 10134m | -5.5m/s | -47.6°C | 42.8% | 267.2hPa | 2.6V | 08:02:31 | 02:03:09 | 00:00:00 | |
| DF8AY | 2026-09-01 11:37:11 | 52.82658 | 8.58135 | 87° | 97km/h | 10139m | -5.1m/s | -47.7°C | 42.8% | 267hPa | 2.6V | 08:03:22 | 02:03:08 | 00:00:00 | |
| BIOWL1-15 | 2026-09-01 11:37:10 | 52.82651 | 8.58011 | 83° | 102km/h | 10155m | -5.3m/s | -47.9°C | 42.4% | 266.4hPa | 2.5V | 08:02:31 | 02:03:05 | 00:00:00 | |
| HSKMA3-T | 2026-09-01 11:37:09 | 52.82654 | 8.58054 | 83° | 100km/h | 10150m | -5.1m/s | -47.9°C | 42.5% | 266.6hPa | 2.5V | 08:02:31 | 02:03:06 | 00:00:00 | |
| GOEST3-10 | 2026-09-01 11:37:08 | 52.82647 | 8.57969 | 82° | 100km/h | 10160m | -5.2m/s | -47.9°C | 39.8% | 266.1hPa | 2.5V | 00:00:00 | 00:00:00 | 00:00:00 | |
| DM0DOS-11 | 2026-09-01 11:37:05 | 52.82629 | 8.57724 | 89° | 93km/h | 10193m | -5.3m/s | -48.1°C | 38.9% | 264.8hPa | 2.5V | 08:01:57 | 02:02:58 | 00:00:00 | |
| AA1-15 | 2026-09-01 11:37:02 | 52.82630 | 8.57763 | 86° | 93km/h | 10187m | -5.2m/s | -48.1°C | 40.9% | 265.1hPa | 2.5V | 08:08:28 | 02:02:59 | 00:00:00 | |
| DL1XH-west | 2026-09-01 11:37:01 | 52.82629 | 8.57685 | 92° | 95km/h | 10198m | -5.1m/s | -48.1°C | 40.7% | 264.6hPa | 2.5V | 08:02:31 | 02:02:57 | 00:00:00 | |
| DF8AY | 2026-09-01 11:37:01 | 52.82629 | 8.57724 | 90° | 93km/h | 10193m | -5.3m/s | -48.1°C | 40.8% | 264.8hPa | 2.5V | 08:03:22 | 02:02:58 | 00:00:00 | |
| DJ2DS-15 | 2026-09-01 11:37:01 | 52.82629 | 8.57724 | 90° | 106km/h | 10193m | -5.3m/s | -48.0°C | 38.9% | 264.8hPa | 2.5V | 08:01:00 | 02:02:58 | 00:00:00 | |
| DL1XH1-15 | 2026-09-01 11:37:00 | 52.82635 | 8.57563 | 95° | 100km/h | 10213m | -5.1m/s | -48.2°C | 40.1% | 264hPa | 2.6V | 08:02:01 | 02:02:54 | 00:00:00 | |
| DL1XH-15 | 2026-09-01 11:37:00 | 52.82640 | 8.57480 | 96° | 100km/h | 10224m | -5.4m/s | -48.3°C | 40.7% | 263.6hPa | 2.5V | 08:02:03 | 02:02:52 | 00:00:00 | |
| BIOWL1-15 | 2026-09-01 11:36:59 | 52.82630 | 8.57645 | 94° | 97km/h | 10203m | -5.2m/s | -48.1°C | 40.7% | 264.4hPa | 2.5V | 08:02:31 | 02:02:56 | 00:00:00 | |
| HSKMA3-T | 2026-09-01 11:36:58 | 52.82632 | 8.57605 | 95° | 99km/h | 10208m | -5.2m/s | -48.2°C | 40.9% | 264.2hPa | 2.6V | 08:02:31 | 02:02:55 | 00:00:00 | |
| GOEST3-10 | 2026-09-01 11:36:57 | 52.82635 | 8.57563 | 96° | 102km/h | 10213m | -5.1m/s | -48.2°C | 40.1% | 264.0hPa | 2.6V | 00:00:00 | 00:00:00 | 00:00:00 | |
| DL8OAI-8 | 2026-09-01 11:36:56 | 52.82635 | 8.57563 | 97° | 100km/h | 10213m | -5.1m/s | -48.2°C | 33.9% | 264.0hPa | 2.5V | 08:02:00 | 00:00:00 | 00:00:00 | |
| DB0DAN | 2026-09-01 11:36:55 | 52.82640 | 8.57480 | 96° | 97km/h | 10224m | -5.4m/s | -48.3°C | 34.3% | 263.55hPa | 2.5V | 00:00:00 | 00:00:00 | 00:00:00 | |
| DM0DOS-11 | 2026-09-01 11:36:55 | 52.82649 | 8.57304 | 92° | 111km/h | 10245m | -5.2m/s | -48.5°C | 41.2% | 262.7hPa | 2.6V | 08:02:07 | 02:02:48 | 00:00:00 | |
| AA1-15 | 2026-09-01 11:36:51 | 52.82649 | 8.57304 | 92° | 111km/h | 10245m | -5.2m/s | -48.5°C | 42.3% | 262.7hPa | 2.6V | 08:02:31 | 02:02:48 | 00:00:00 | |
| DL1XH-west | 2026-09-01 11:36:49 | 52.82644 | 8.56978 | 86° | 111km/h | 10282m | -5.2m/s | -48.9°C | 42.5% | 261.3hPa | 2.6V | 08:02:31 | 02:02:41 | 00:00:00 | |
| DF8AY | 2026-09-01 11:36:49 | 52.82650 | 8.57211 | 89° | 111km/h | 10256m | -5.2m/s | -48.6°C | 42.5% | 262.3hPa | 2.6V | 08:03:22 | 02:02:46 | 00:00:00 | |
| DO2JMG | 2026-09-01 11:36:48 | 52.82649 | 8.57164 | 88° | 111km/h | 10261m | -5.1m/s | -48.7°C | 42.7% | 262.1hPa | 2.5V | 08:02:31 | 02:02:45 | 00:00:00 | |
| DL1XH1-15 | 2026-09-01 11:36:48 | 52.82648 | 8.57118 | 87° | 111km/h | 10266m | -5.1m/s | -48.7°C | 41% | 261.9hPa | 2.5V | 08:02:11 | 02:02:44 | 00:00:00 | |
| HSKMA3-T | 2026-09-01 11:36:47 | 52.82648 | 8.57118 | 88° | 111km/h | 10266m | -5.1m/s | -48.7°C | 42.6% | 261.9hPa | 2.5V | 08:02:31 | 02:02:44 | 00:00:00 | |
| DD1CC3-15 | 2026-09-01 11:36:47 | 52.82648 | 8.57118 | 89° | 111km/h | 10266m | -5.1m/s | -48.7°C | 34.7% | 261.9hPa | 2.5V | 08:02:00 | 00:00:00 | 00:00:00 | |
| DM0DOS-11 | 2026-09-01 11:36:45 | 52.82637 | 8.56838 | 84° | 113km/h | 10298m | -5.3m/s | -48.9°C | 41.3% | 260.6hPa | 2.5V | 08:02:17 | 02:02:38 | 00:00:00 | |
| DF5WG-10 | 2026-09-01 11:36:44 | 52.82644 | 8.56978 | 87° | 113km/h | 10282m | -5.2m/s | -48.9°C | 41.0% | 261.2hPa | 2.6V | 00:00:00 | 02:02:41 | 00:00:00 | |
| DD1CC8 | 2026-09-01 11:36:43 | 52.82640 | 8.56885 | 85° | 111km/h | 10292m | -5.5m/s | -48.9°C | 34.6% | 260.8hPa | 2.6V | 00:00:00 | 00:00:00 | 00:00:00 | |
| GOEST3-10 | 2026-09-01 11:36:42 | 52.82640 | 8.56885 | 86° | 115km/h | 10292m | -5.4m/s | -48.9°C | 41.0% | 260.8hPa | 2.6V | 08:02:00 | 02:02:39 | 00:00:00 | |
| DB0DAN | 2026-09-01 11:36:40 | 52.82635 | 8.56791 | 85° | 110km/h | 10303m | -5.4m/s | -49°C | 34.8% | 260.35hPa | 2.5V | 00:00:00 | 00:00:00 | 00:00:00 | |
| DB0DAN | 2026-09-01 11:36:40 | 52.82632 | 8.56743 | 86° | 110km/h | 10308m | -5.7m/s | -49°C | 34.9% | 260.13hPa | 2.5V | 00:00:00 | 00:00:00 | 00:00:00 | |
| DL1XH1-15 | 2026-09-01 11:36:40 | 52.82629 | 8.56647 | 88° | 115km/h | 10320m | -5.8m/s | -49.1°C | 41.5% | 259.7hPa | 2.6V | 08:02:21 | 02:02:34 | 00:00:00 | |
| DL1XH-15 | 2026-09-01 11:36:40 | 52.82629 | 8.56554 | 91° | 106km/h | 10331m | -5.4m/s | -49.3°C | 41.6% | 259.3hPa | 2.6V | 08:02:23 | 02:02:32 | 00:00:00 | |
| AA1-15 | 2026-09-01 11:36:40 | 52.82635 | 8.56791 | 85° | 115km/h | 10303m | -5.4m/s | -49°C | 42.7% | 260.4hPa | 2.5V | 08:02:31 | 02:02:37 | 00:00:00 | |
| BIOWL1-15 | 2026-09-01 11:36:38 | 52.82630 | 8.56695 | 87° | 115km/h | 10314m | -5.7m/s | -49°C | 42.9% | 259.9hPa | 2.5V | 08:02:31 | 02:02:35 | 00:00:00 | |
| HSKMA3-T | 2026-09-01 11:36:37 | 52.82629 | 8.56647 | 89° | 115km/h | 10320m | -5.8m/s | -49.1°C | 43.1% | 259.7hPa | 2.6V | 08:02:31 | 02:02:34 | 00:00:00 | |
| GOEST3-10 | 2026-09-01 11:36:37 | 52.82629 | 8.56647 | 89° | 104km/h | 10320m | -5.8m/s | -49.0°C | 41.5% | 259.6hPa | 2.5V | 00:00:00 | 00:00:00 | 00:00:00 | |
| DM0DOS-11 | 2026-09-01 11:36:35 | 52.82628 | 8.56397 | 87° | 89km/h | 10352m | -5.7m/s | -49.4°C | 40.6% | 258.4hPa | 2.5V | 08:02:27 | 02:02:28 | 00:00:00 | |
| DL1XH-west | 2026-09-01 11:36:34 | 52.82637 | 8.56082 | 95° | 95km/h | 10396m | -5.9m/s | -49.7°C | 43.8% | 256.7hPa | 2.6V | 08:03:22 | 02:02:20 | 00:00:00 | |
| AA1-15 | 2026-09-01 11:36:29 | 52.82627 | 8.56321 | 91° | 91km/h | 10363m | -5.3m/s | -49.5°C | 42.9% | 258hPa | 2.6V | 08:02:31 | 02:02:26 | 00:00:00 | |
| DL1XH1-15 | 2026-09-01 11:36:28 | 52.82629 | 8.56243 | 93° | 97km/h | 10373m | -5.5m/s | -49.6°C | 42% | 257.6hPa | 2.5V | 08:02:31 | 02:02:24 | 00:00:00 | |
| DD8BA-10 | 2026-09-01 11:36:28 | 52.82627 | 8.56282 | 93° | 95km/h | 10368m | -4.9m/s | -49.5°C | 41.5% | 257.7hPa | 2.6V | 00:00:00 | 00:00:00 | 00:00:00 | |
| DL1XH-15 | 2026-09-01 11:36:27 | 52.82633 | 8.56162 | 95° | 97km/h | 10384m | -5.6m/s | -49.6°C | 43.2% | 257.2hPa | 2.5V | 08:02:33 | 02:02:22 | 00:00:00 | |
| HSKMA3-T | 2026-09-01 11:36:27 | 52.82629 | 8.56243 | 94° | 97km/h | 10373m | -5.5m/s | -49.6°C | 43% | 257.6hPa | 2.5V | 08:02:31 | 02:02:24 | 00:00:00 | |
| GOEST3-10 | 2026-09-01 11:36:27 | 52.82629 | 8.56243 | 94° | 97km/h | 10373m | -5.4m/s | -49.5°C | 42.0% | 257.6hPa | 2.5V | 00:00:00 | 00:00:00 | 00:00:00 | |
| DB0DAN | 2026-09-01 11:36:25 | 52.82633 | 8.56162 | 95° | 93km/h | 10384m | -5.6m/s | -49.6°C | 36.4% | 257.16hPa | 2.5V | 00:00:00 | 00:00:00 | 00:00:00 | |
| DD1CC3-15 | 2026-09-01 11:36:25 | 52.82630 | 8.56202 | 96° | 97km/h | 10379m | -5.4m/s | -49.6°C | 35.8% | 257.4hPa | 2.5V | 08:03:00 | 00:00:00 | 00:00:00 | |
| DO9LL-15 | 2026-09-01 11:36:24 | 52.82635 | 8.56122 | 96° | 95km/h | 10390m | -5.8m/s | -49.6°C | 43.7% | 256.9hPa | 2.5V | 00:00:00 | 02:02:21 | 00:00:00 | |
| DJ2DS-15 | 2026-09-01 11:36:23 | 52.82637 | 8.56082 | 95° | 95km/h | 10396m | -5.9m/s | -49.7°C | 36.9% | 256.7hPa | 2.6V | 00:00:00 | 00:00:00 | 00:00:00 | |
| GOEST3-10 | 2026-09-01 11:36:22 | 52.82639 | 8.56043 | 95° | 91km/h | 10401m | -5.9m/s | -49.7°C | 43.6% | 256.4hPa | 2.6V | 00:00:00 | 02:02:19 | 00:00:00 | |
| DJ2DS-15 | 2026-09-01 11:36:21 | 52.82641 | 8.56004 | 93° | 89km/h | 10407m | -5.7m/s | -49.8°C | 43.4% | 256.2hPa | 2.6V | 00:00:00 | 02:02:18 | 00:00:00 | |
| DL1XH-15 | 2026-09-01 11:36:20 | 52.82625 | 8.55774 | 79° | 95km/h | 10440m | -5.6m/s | -50.2°C | 42.9% | 255hPa | 2.6V | 08:02:43 | 02:02:12 | 00:00:00 | |
| DL1XH-west | 2026-09-01 11:36:18 | 52.82637 | 8.55891 | 82° | 93km/h | 10423m | -5.5m/s | -50°C | 44.3% | 255.7hPa | 2.5V | 08:03:22 | 02:02:15 | 00:00:00 | |
| BIOWL1-15 | 2026-09-01 11:36:16 | 52.82629 | 8.55813 | 80° | 95km/h | 10434m | -5.8m/s | -50.1°C | 44.4% | 255.3hPa | 2.6V | 08:03:22 | 02:02:13 | 00:00:00 | |
| DM0DOS-11 | 2026-09-01 11:36:15 | 52.82610 | 8.55622 | 83° | 89km/h | 10462m | -5.3m/s | -50.3°C | 44% | 254.1hPa | 2.5V | 08:02:47 | 02:02:08 | 00:00:00 | |
| DL4XJ-10 | 2026-09-01 11:36:14 | 52.82621 | 8.55736 | 81° | 95km/h | 10445m | -5.4m/s | -48.8°C | 0% | 0hPa | 2.5V | 00:00:00 | 00:00:00 | 00:00:00 | |
| GOEST3-10 | 2026-09-01 11:36:12 | 52.82613 | 8.55659 | 82° | 88km/h | 10457m | -5.6m/s | -50.3°C | 43.9% | 254.3hPa | 2.5V | 00:00:00 | 02:02:09 | 00:00:00 | |
| DL1LOL-11 | 2026-09-01 11:36:11 | 52.82613 | 8.55659 | 83° | 91km/h | 10457m | -5.7m/s | -50.3°C | 36.8% | 254.4hPa | 2.5V | 00:00:00 | 00:00:00 | 00:00:00 | |
| DB0DAN | 2026-09-01 11:36:10 | 52.82608 | 8.55586 | 85° | 84km/h | 10468m | -5.5m/s | -50.4°C | 37.2% | 253.9hPa | 2.5V | 00:00:00 | 00:00:00 | 00:00:00 | |
| DL4BBY-15 | 2026-09-01 11:36:10 | 52.82608 | 8.55586 | 85° | 93km/h | 10468m | -5.5m/s | -49.0°C | 0% | 0hPa | 2.6V | 00:00:00 | 00:00:00 | 00:00:00 | |
| DL1XH1-15 | 2026-09-01 11:36:08 | 52.82603 | 8.55478 | 86° | 84km/h | 10484m | -5.5m/s | -50.4°C | 44.7% | 253.3hPa | 2.6V | 08:02:51 | 02:02:04 | 00:00:00 | |
| DD8BA-10 | 2026-09-01 11:36:08 | 52.82605 | 8.55514 | 87° | 91km/h | 10478m | -5.1m/s | -50.4°C | 44.7% | 253.5hPa | 2.5V | 00:00:00 | 00:00:00 | 00:00:00 | |
| DL1XH-15 | 2026-09-01 11:36:07 | 52.82599 | 8.55408 | 82° | 86km/h | 10495m | -5.8m/s | -50.5°C | 44.6% | 252.9hPa | 2.5V | 08:02:53 | 02:02:02 | 00:00:00 | |
| DL1XH-west | 2026-09-01 11:36:07 | 52.82603 | 8.55478 | 86° | 84km/h | 10484m | -5.5m/s | -50.4°C | 45.5% | 253.3hPa | 2.6V | 08:03:22 | 02:02:04 | 00:00:00 | |
| HSKMA3-T | 2026-09-01 11:36:06 | 52.82602 | 8.55443 | 85° | 84km/h | 10489m | -5.7m/s | -50.5°C | 45.6% | 253.1hPa | 2.5V | 08:03:22 | 02:02:03 | 00:00:00 | |
| BIOWL1-15 | 2026-09-01 11:36:05 | 52.82582 | 8.55259 | 77° | 99km/h | 10518m | -5.5m/s | -50.8°C | 46.1% | 252hPa | 2.6V | 08:03:22 | 02:01:58 | 00:00:00 | |
| DO2JMG | 2026-09-01 11:36:05 | 52.82599 | 8.55408 | 83° | 86km/h | 10495m | -5.8m/s | -50.5°C | 45.7% | 252.9hPa | 2.5V | 08:03:22 | 02:02:02 | 00:00:00 | |
| DF5WG-10 | 2026-09-01 11:36:04 | 52.82596 | 8.55373 | 81° | 100km/h | 10501m | -5.8m/s | -50.5°C | 44.7% | 252.6hPa | 2.6V | 00:00:00 | 02:02:01 | 00:00:00 | |
| DM0DOS-11 | 2026-09-01 11:36:03 | 52.82582 | 8.55259 | 77° | 99km/h | 10517m | -5.5m/s | -50.8°C | 45.4% | 252hPa | 2.6V | 08:02:57 | 02:01:58 | 00:00:00 | |
| GOEST3-10 | 2026-09-01 11:36:02 | 52.82588 | 8.55299 | 78° | 102km/h | 10512m | -5.5m/s | -50.7°C | 45.2% | 252.1hPa | 2.6V | 00:00:00 | 02:01:59 | 00:00:00 | |
| DJ2DS-15 | 2026-09-01 11:36:01 | 52.82582 | 8.55259 | 78° | 97km/h | 10518m | -5.5m/s | -50.7°C | 45.4% | 251.9hPa | 2.6V | 00:00:00 | 02:01:58 | 00:00:00 | |
| DL1XH1-15 | 2026-09-01 11:36:00 | 52.82565 | 8.55084 | 84° | 111km/h | 10540m | -5.7m/s | -50.9°C | 45.5% | 251.1hPa | 2.5V | 08:03:01 | 02:01:54 | 00:00:00 | |
| DL1XH-west | 2026-09-01 11:35:57 | 52.82565 | 8.55084 | 85° | 111km/h | 10540m | -5.7m/s | -50.9°C | 46.3% | 251.1hPa | 2.5V | 08:03:22 | 02:01:54 | 00:00:00 | |
| HSKMA3-T | 2026-09-01 11:35:56 | 52.82563 | 8.55038 | 87° | 110km/h | 10546m | -5.8m/s | -50.9°C | 46.3% | 250.9hPa | 2.5V | 08:03:22 | 02:01:53 | 00:00:00 | |
| DB0DAN | 2026-09-01 11:35:55 | 52.82562 | 8.54992 | 89° | 100km/h | 10552m | -5.4m/s | -51°C | 37.9% | 250.69hPa | 2.6V | 00:00:00 | 00:00:00 | 00:00:00 | |
| DO2JMG | 2026-09-01 11:35:54 | 52.82561 | 8.54950 | 89° | 99km/h | 10557m | -5.2m/s | -51.2°C | 46.4% | 250.5hPa | 2.6V | 08:03:22 | 02:01:51 | 00:00:00 | |
| BIOWL1-15 | 2026-09-01 11:35:50 | 52.82553 | 8.54727 | 89° | 88km/h | 10589m | -5.1m/s | -51.3°C | 46.4% | 249.2hPa | 2.6V | 08:03:22 | 02:01:45 | 00:00:00 | |
| D01LWL | 2026-09-01 11:35:50 | 52.82555 | 8.54800 | 84° | 86km/h | 10578m | -5.7m/s | -51.2°C | 37.9% | 249.6hPa | 2.6V | 00:00:00 | 00:00:00 | 00:00:00 | |
| BUE01 | 2026-09-01 11:35:49 | 52.82554 | 8.54764 | 86° | 86km/h | 10584m | -5.5m/s | -51.3°C | 38.0% | 249.5hPa | 2.6V | 00:00:00 | 00:00:00 | 00:00:00 | |
| DL1XH1-15 | 2026-09-01 11:35:48 | 52.82552 | 8.54690 | 89° | 89km/h | 10595m | -5.4m/s | -51.4°C | 45.4% | 249hPa | 2.6V | 08:03:11 | 02:01:44 | 00:00:00 | |
| DD1CC2-15 | 2026-09-01 11:35:48 | 52.82553 | 8.54727 | 90° | 88km/h | 10590m | -5.1m/s | -51.3°C | 38.0% | 249.2hPa | 2.5V | 08:03:00 | 00:00:00 | 00:00:00 | |
| DL1XH-15 | 2026-09-01 11:35:47 | 52.82553 | 8.54613 | 91° | 95km/h | 10606m | -5.2m/s | -51.4°C | 45.8% | 248.6hPa | 2.5V | 08:03:13 | 02:01:42 | 00:00:00 | |
| DL1XH-west | 2026-09-01 11:35:47 | 52.82552 | 8.54690 | 90° | 89km/h | 10595m | -5.4m/s | -51.4°C | 46.5% | 249.1hPa | 2.6V | 08:03:22 | 02:01:44 | 00:00:00 | |
| HSKMA3-T | 2026-09-01 11:35:46 | 52.82553 | 8.54652 | 91° | 91km/h | 10600m | -5.5m/s | -51.4°C | 46.5% | 248.8hPa | 2.6V | 08:03:22 | 02:01:43 | 00:00:00 | |
| DO2JMG | 2026-09-01 11:35:44 | 52.82554 | 8.54574 | 92° | 95km/h | 10611m | -5.6m/s | -51.5°C | 46.6% | 248.4hPa | 2.5V | 08:03:22 | 02:01:41 | 00:00:00 | |
| DF8AY | 2026-09-01 11:35:43 | 52.82555 | 8.54496 | 91° | 91km/h | 10622m | -5.4m/s | -51.6°C | 46.7% | 248hPa | 2.5V | 08:03:22 | 02:01:39 | 00:00:00 | |
| GOEST3-10 | 2026-09-01 11:35:42 | 52.82555 | 8.54496 | 92° | 88km/h | 10622m | -5.3m/s | -51.5°C | 45.9% | 248.0hPa | 2.5V | 00:00:00 | 02:01:39 | 00:00:00 | |
| DL1XH1-15 | 2026-09-01 11:35:41 | 52.82556 | 8.54313 | 91° | 89km/h | 10650m | -5.7m/s | -51.7°C | 45.3% | 246.9hPa | 2.5V | 08:03:21 | 02:01:34 | 00:00:00 | |
| DB0DAN | 2026-09-01 11:35:40 | 52.82555 | 8.54422 | 90° | 82km/h | 10633m | -5.5m/s | -51.6°C | 38.2% | 247.59hPa | 2.6V | 00:00:00 | 00:00:00 | 00:00:00 | |
| BIOWL1-15 | 2026-09-01 11:35:39 | 52.82555 | 8.54386 | 90° | 86km/h | 10638m | -5.5m/s | -51.7°C | 46.8% | 247.4hPa | 2.6V | 08:03:22 | 02:01:36 | 00:00:00 | |
| DL1XH-west | 2026-09-01 11:35:36 | 52.82556 | 8.54275 | 92° | 93km/h | 10656m | -5.5m/s | -51.8°C | 47% | 246.8hPa | 2.5V | 08:03:22 | 02:01:33 | 00:00:00 | |
| HSKMA3-T | 2026-09-01 11:35:35 | 52.82557 | 8.54236 | 91° | 97km/h | 10661m | -5.4m/s | -51.9°C | 46.9% | 246.6hPa | 2.5V | 08:04:13 | 02:01:32 | 00:00:00 | |
| DO2JMG | 2026-09-01 11:35:33 | 52.82557 | 8.54151 | 91° | 106km/h | 10672m | -5.3m/s | -51.9°C | 47% | 246.1hPa | 2.6V | 08:04:13 | 02:01:30 | 00:00:00 | |
| DF8AY | 2026-09-01 11:35:32 | 52.82558 | 8.54106 | 91° | 108km/h | 10677m | -5.3m/s | -51.9°C | 47.2% | 246hPa | 2.6V | 08:04:13 | 02:01:29 | 00:00:00 | |
| DL3AQ-11 | 2026-09-01 11:35:31 | 52.82558 | 8.54062 | 91° | 106km/h | 10682m | -5.3m/s | -51.9°C | 38.8% | 245.7hPa | 2.6V | 00:00:00 | 00:00:00 | 00:00:00 | |
| DO9LL-15 | 2026-09-01 11:35:29 | 52.82561 | 8.53973 | 95° | 95km/h | 10693m | -5.6m/s | -51.9°C | 47.5% | 245.3hPa | 2.6V | 00:00:00 | 02:01:26 | 00:00:00 | |
| DL1XH1-15 | 2026-09-01 11:35:28 | 52.82565 | 8.53887 | 95° | 102km/h | 10705m | -6.1m/s | -52.1°C | 48.7% | 244.9hPa | 2.6V | 08:03:31 | 02:01:24 | 00:00:00 | |
| DL1XH-west | 2026-09-01 11:35:26 | 52.82568 | 8.53845 | 95° | 99km/h | 10711m | -6.1m/s | -52.1°C | 48.1% | 244.7hPa | 2.6V | 08:04:13 | 02:01:23 | 00:00:00 | |
| DB0DAN | 2026-09-01 11:35:25 | 52.82570 | 8.53805 | 94° | 89km/h | 10717m | -5.6m/s | -52.2°C | 41% | 244.36hPa | 2.6V | 00:00:00 | 00:00:00 | 00:00:00 | |
| HSKMA3-T | 2026-09-01 11:35:25 | 52.82570 | 8.53805 | 94° | 95km/h | 10717m | -5.6m/s | -52.2°C | 48.3% | 244.4hPa | 2.6V | 08:04:13 | 02:01:22 | 00:00:00 | |
| DO2JMG | 2026-09-01 11:35:23 | 52.82570 | 8.53731 | 87° | 86km/h | 10728m | -5.3m/s | -52.4°C | 48.3% | 244hPa | 2.5V | 08:04:13 | 02:01:20 | 00:00:00 | |
| GOEST3-10 | 2026-09-01 11:35:22 | 52.82568 | 8.53695 | 83° | 93km/h | 10734m | -5.2m/s | -52.4°C | 47.8% | 243.8hPa | 2.5V | 00:00:00 | 02:01:19 | 00:00:00 | |
| DJ2DS-15 | 2026-09-01 11:35:21 | 52.82565 | 8.53659 | 80° | 95km/h | 10739m | -5.4m/s | -52.5°C | 47.0% | 243.5hPa | 2.5V | 00:00:00 | 02:01:18 | 00:00:00 | |
| DL1XH-15 | 2026-09-01 11:35:20 | 52.82539 | 8.53412 | 87° | 110km/h | 10774m | -5.2m/s | -52.8°C | 46.2% | 242.4hPa | 2.5V | 08:03:43 | 02:01:12 | 00:00:00 | |
| DM0DOS-11 | 2026-09-01 11:35:20 | 52.82560 | 8.53621 | 77° | 93km/h | 10745m | -5.8m/s | -52.6°C | 46.4% | 243.4hPa | 2.6V | 08:03:38 | 02:01:17 | 00:00:00 | |
| DL1XH1-15 | 2026-09-01 11:35:20 | 52.82545 | 8.53501 | 80° | 102km/h | 10763m | -5.4m/s | -52.7°C | 46.2% | 242.7hPa | 2.5V | 08:03:41 | 02:01:14 | 00:00:00 | |
| DF8AY | 2026-09-01 11:35:19 | 52.82555 | 8.53583 | 78° | 97km/h | 10751m | -6m/s | -52.6°C | 47.4% | 243.1hPa | 2.6V | 08:04:13 | 02:01:16 | 00:00:00 | |
| DL1XH-west | 2026-09-01 11:35:16 | 52.82541 | 8.53457 | 83° | 108km/h | 10768m | -5.5m/s | -52.7°C | 47% | 242.5hPa | 2.5V | 08:04:13 | 02:01:13 | 00:00:00 | |
| HSKMA3-T | 2026-09-01 11:35:14 | 52.82539 | 8.53367 | 91° | 110km/h | 10779m | -5.3m/s | -52.8°C | 47% | 242.2hPa | 2.5V | 08:04:13 | 02:01:11 | 00:00:00 | |
| DO2JMG | 2026-09-01 11:35:12 | 52.82542 | 8.53279 | 96° | 100km/h | 10790m | -5.7m/s | -52.9°C | 47.1% | 241.7hPa | 2.6V | 08:04:13 | 02:01:09 | 00:00:00 | |
| GOEST3-10 | 2026-09-01 11:35:12 | 52.82542 | 8.53279 | 96° | 93km/h | 10791m | -5.7m/s | -52.8°C | 46.5% | 241.6hPa | 2.6V | 08:03:00 | 02:01:09 | 00:00:00 | |
| DB0DAN | 2026-09-01 11:35:10 | 52.82547 | 8.53199 | 95° | 88km/h | 10802m | -5.5m/s | -53°C | 39.2% | 241.31hPa | 2.5V | 00:00:00 | 00:00:00 | 00:00:00 | |
| DF8AY | 2026-09-01 11:35:09 | 52.82548 | 8.53162 | 92° | 89km/h | 10807m | -5.3m/s | -53.1°C | 47.2% | 241.1hPa | 2.5V | 08:04:13 | 02:01:06 | 00:00:00 | |
| DD8BA-10 | 2026-09-01 11:35:08 | 52.82547 | 8.53125 | 88° | 91km/h | 10813m | -5.2m/s | -53.0°C | 47.1% | 240.8hPa | 2.6V | 00:00:00 | 00:00:00 | 00:00:00 | |
| DL1XH-15 | 2026-09-01 11:35:07 | 52.82539 | 8.53011 | 81° | 93km/h | 10828m | -5.6m/s | -53.2°C | 46.7% | 240.3hPa | 2.6V | 08:03:53 | 02:01:02 | 00:00:00 | |
| DL1XH-west | 2026-09-01 11:35:06 | 52.82543 | 8.53050 | 82° | 93km/h | 10823m | -5.1m/s | -53.1°C | 47.1% | 240.5hPa | 2.6V | 08:04:13 | 02:01:03 | 00:00:00 | |
| DM0DOS-11 | 2026-09-01 11:35:05 | 52.82521 | 8.52823 | 79° | 91km/h | 10856m | -5.6m/s | -53.4°C | 47.7% | 239.3hPa | 2.5V | 08:03:58 | 02:00:57 | 00:00:00 | |
| AA1-15 | 2026-09-01 11:35:05 | 52.82539 | 8.53011 | 81° | 95km/h | 10828m | -5.6m/s | -53.2°C | 47.1% | 240.3hPa | 2.6V | 08:04:13 | 02:01:02 | 00:00:00 | |
| HSKMA3-T | 2026-09-01 11:35:03 | 52.82532 | 8.52935 | 80° | 91km/h | 10839m | -5.8m/s | -53.2°C | 47.2% | 239.9hPa | 2.5V | 08:04:13 | 02:01:00 | 00:00:00 | |
| DO2JMG | 2026-09-01 11:35:03 | 52.82528 | 8.52897 | 80° | 89km/h | 10845m | -5.3m/s | -53.3°C | 47.2% | 239.7hPa | 2.5V | 08:04:13 | 02:00:59 | 00:00:00 | |
| DJ2DS-15 | 2026-09-01 11:35:01 | 52.82524 | 8.52860 | 82° | 102km/h | 10851m | -5.8m/s | -53.3°C | 47.3% | 239.5hPa | 2.5V | 00:00:00 | 02:00:58 | 00:00:00 | |
| DL1XH-15 | 2026-09-01 11:35:00 | 52.82502 | 8.52623 | 83° | 102km/h | 10882m | -4.8m/s | -53.6°C | 48.6% | 238.3hPa | 2.5V | 08:04:03 | 02:00:52 | 00:00:00 | |
| DF8AY | 2026-09-01 11:34:58 | 52.82513 | 8.52746 | 81° | 97km/h | 10867m | -5.2m/s | -53.4°C | 47.6% | 238.9hPa | 2.6V | 08:04:13 | 02:00:55 | 00:00:00 | |
| DL1XH-west | 2026-09-01 11:34:55 | 52.82502 | 8.52623 | 83° | 102km/h | 10882m | -4.8m/s | -53.6°C | 47.9% | 238.3hPa | 2.5V | 08:04:13 | 02:00:52 | 00:00:00 | |
| AA1-15 | 2026-09-01 11:34:54 | 52.82499 | 8.52581 | 83° | 102km/h | 10887m | -4.8m/s | -53.6°C | 47.9% | 238.1hPa | 2.5V | 08:04:13 | 02:00:51 | 00:00:00 | |
| HSKMA3-T | 2026-09-01 11:34:53 | 52.82496 | 8.52539 | 84° | 102km/h | 10892m | -5m/s | -53.7°C | 48% | 237.9hPa | 2.5V | 08:04:13 | 02:00:50 | 00:00:00 | |
| DO2JMG | 2026-09-01 11:34:51 | 52.82491 | 8.52453 | 84° | 104km/h | 10901m | -4.7m/s | -53.8°C | 47.9% | 237.6hPa | 2.6V | 08:04:13 | 02:00:48 | 00:00:00 | |
| DF8AY | 2026-09-01 11:34:48 | 52.82482 | 8.52323 | 82° | 106km/h | 10917m | -6m/s | -53.9°C | 47.7% | 236.9hPa | 2.5V | 08:04:13 | 02:00:45 | 00:00:00 | |
| DD8BA-10 | 2026-09-01 11:34:48 | 52.82482 | 8.52323 | 82° | 100km/h | 10917m | -6.0m/s | -53.8°C | 48.0% | 236.9hPa | 2.6V | 00:00:00 | 00:00:00 | 00:00:00 | |
| DL1XH-15 | 2026-09-01 11:34:47 | 52.82474 | 8.52187 | 86° | 110km/h | 10934m | -5.5m/s | -54°C | 47.7% | 236.3hPa | 2.6V | 08:04:13 | 02:00:42 | 00:00:00 | |
| DL1XH-west | 2026-09-01 11:34:45 | 52.82474 | 8.52187 | 87° | 110km/h | 10934m | -5.5m/s | -54°C | 47.2% | 236.3hPa | 2.6V | 08:04:13 | 02:00:42 | 00:00:00 | |
| BIOWL9-15 | 2026-09-01 11:34:45 | 52.82474 | 8.52187 | 86° | 110km/h | 10934m | -5.5m/s | -54.0°C | 39.4% | 236.3hPa | 2.6V | 00:00:00 | 00:00:00 | 00:00:00 | |
| AA1-15 | 2026-09-01 11:34:43 | 52.82473 | 8.52098 | 91° | 104km/h | 10944m | -5.8m/s | -54°C | 46.9% | 235.9hPa | 2.6V | 08:05:04 | 02:00:40 | 00:00:00 | |
| HSKMA3-T | 2026-09-01 11:34:42 | 52.82475 | 8.52055 | 95° | 100km/h | 10950m | -6m/s | -54°C | 46.8% | 235.7hPa | 2.5V | 08:05:04 | 02:00:39 | 00:00:00 | |
| DF5WG-10 | 2026-09-01 11:34:42 | 52.82475 | 8.52055 | 95° | 89km/h | 10950m | -5.9m/s | -54.0°C | 47.6% | 235.7hPa | 2.5V | 00:00:00 | 02:00:39 | 00:00:00 | |
| DO2JMG | 2026-09-01 11:34:42 | 52.82477 | 8.52015 | 95° | 91km/h | 10955m | -5.3m/s | -54°C | 46.8% | 235.5hPa | 2.5V | 08:05:04 | 02:00:38 | 00:00:00 | |
| DB0DAN | 2026-09-01 11:34:40 | 52.82479 | 8.51978 | 94° | 84km/h | 10959m | -5.3m/s | -54°C | 39% | 235.34hPa | 2.5V | 00:00:00 | 00:00:00 | 00:00:00 | |
| DF8AY | 2026-09-01 11:34:37 | 52.82478 | 8.51875 | 85° | 78km/h | 10976m | -6.5m/s | -54°C | 46.7% | 234.7hPa | 2.6V | 08:05:04 | 02:00:34 | 00:00:00 | |
| DL1XH-west | 2026-09-01 11:34:34 | 52.82469 | 8.51774 | 78° | 86km/h | 10993m | -5.8m/s | -54.1°C | 46.7% | 234.2hPa | 2.5V | 08:05:04 | 02:00:31 | 00:00:00 | |
| AA1-15 | 2026-09-01 11:34:32 | 52.82461 | 8.51702 | 79° | 86km/h | 11004m | -4.6m/s | -54.2°C | 46.7% | 233.7hPa | 2.5V | 08:05:04 | 02:00:29 | 00:00:00 | |
| DM0DOS-11 | 2026-09-01 11:34:31 | 52.82452 | 8.51632 | 77° | 86km/h | 11014m | -4.9m/s | -54.2°C | 46.7% | 233.4hPa | 2.6V | 08:04:28 | 02:00:27 | 00:00:00 | |
| HSKMA3-T | 2026-09-01 11:34:31 | 52.82456 | 8.51667 | 77° | 86km/h | 11009m | -5.1m/s | -54.2°C | 46.7% | 233.5hPa | 2.6V | 08:05:04 | 02:00:28 | 00:00:00 | |
| BIOWL1-15 | 2026-09-01 11:34:30 | 52.82417 | 8.51428 | 73° | 93km/h | 11047m | -4.9m/s | -54.2°C | 46.6% | 232.2hPa | 2.6V | 08:05:04 | 02:00:21 | 00:00:00 | |
| DO2JMG | 2026-09-01 11:34:30 | 52.82451 | 8.51632 | 78° | 86km/h | 11014m | -4.9m/s | -54.2°C | 46.6% | 233.4hPa | 2.6V | 08:05:04 | 02:00:27 | 00:00:00 | |
| DO9LL-15 | 2026-09-01 11:34:29 | 52.82447 | 8.51598 | 77° | 97km/h | 11019m | -4.7m/s | -54.1°C | 46.6% | 233.1hPa | 2.6V | 08:04:00 | 02:00:26 | 00:00:00 | |
| DL3AQ-11 | 2026-09-01 11:34:28 | 52.82436 | 8.51532 | 74° | 82km/h | 11029m | -5.7m/s | -54.1°C | 38.0% | 232.8hPa | 2.5V | 00:00:00 | 00:00:00 | 00:00:00 | |
| DL1XH-15 | 2026-09-01 11:34:27 | 52.82424 | 8.51464 | 72° | 88km/h | 11041m | -6.2m/s | -54.1°C | 46.1% | 232.3hPa | 2.5V | 08:04:33 | 02:00:22 | 00:00:00 | |
| SONCRA | 2026-09-01 11:34:27 | 52.82430 | 8.51499 | 74° | 86km/h | 11035m | -6.1m/s | -54.1°C | 38.1% | 232.5hPa | 2.5V | 00:00:00 | 00:00:00 | 00:00:00 | |
| DM0DOS-11 | 2026-09-01 11:34:26 | 52.82395 | 8.51264 | 84° | 104km/h | 11068m | -5.8m/s | -54.4°C | 47% | 231.4hPa | 2.5V | 08:04:38 | 02:00:17 | 00:00:00 | |
| DF8AY | 2026-09-01 11:34:26 | 52.82424 | 8.51464 | 73° | 88km/h | 11041m | -6.2m/s | -54.1°C | 46.4% | 232.3hPa | 2.5V | 08:05:04 | 02:00:22 | 00:00:00 | |
| DB0DAN | 2026-09-01 11:34:25 | 52.82424 | 8.51464 | 73° | 84km/h | 11041m | -6.2m/s | -54.1°C | 37.9% | 232.34hPa | 2.5V | 00:00:00 | 00:00:00 | 00:00:00 | |
| DL1XH-west | 2026-09-01 11:34:23 | 52.82410 | 8.51389 | 74° | 99km/h | 11052m | -5.4m/s | -54.3°C | 46.7% | 231.9hPa | 2.6V | 08:05:04 | 02:00:20 | 00:00:00 | |
| HSKMA3-T | 2026-09-01 11:34:21 | 52.82399 | 8.51307 | 80° | 104km/h | 11063m | -5.5m/s | -54.4°C | 46.9% | 231.6hPa | 2.5V | 08:05:04 | 02:00:18 | 00:00:00 | |
| BIOWL1-15 | 2026-09-01 11:34:21 | 52.82393 | 8.51222 | 86° | 99km/h | 11073m | -4.6m/s | -54.4°C | 47.1% | 231.2hPa | 2.5V | 08:05:04 | 02:00:16 | 00:00:00 | |
| DO2JMG | 2026-09-01 11:34:20 | 52.82395 | 8.51264 | 84° | 104km/h | 11068m | -5.8m/s | -54.4°C | 46.9% | 231.4hPa | 2.5V | 08:05:04 | 02:00:17 | 00:00:00 | |
| DL1XH-west | 2026-09-01 11:34:13 | 52.82384 | 8.51001 | 79° | 82km/h | 11104m | -5.5m/s | -54.7°C | 47.7% | 230hPa | 2.5V | 08:05:04 | 02:00:10 | 00:00:00 | |
| DF8AY | 2026-09-01 11:34:12 | 52.82379 | 8.50967 | 73° | 82km/h | 11110m | -6.4m/s | -54.8°C | 47.7% | 229.8hPa | 2.5V | 08:05:04 | 02:00:09 | 00:00:00 | |
| HSKMA3-T | 2026-09-01 11:34:11 | 52.82373 | 8.50935 | 73° | 80km/h | 11116m | -6.1m/s | -54.8°C | 47.7% | 229.6hPa | 2.5V | 08:05:04 | 02:00:08 | 00:00:00 | |
| DB0DAN | 2026-09-01 11:34:10 | 52.82368 | 8.50903 | 73° | 77km/h | 11122m | -6m/s | -54.8°C | 38.8% | 229.43hPa | 2.6V | 00:00:00 | 00:00:00 | 00:00:00 | |
| DM0DOS-11 | 2026-09-01 11:34:10 | 52.82368 | 8.50903 | 72° | 80km/h | 11122m | -6m/s | -54.8°C | 47.2% | 229.4hPa | 2.6V | 08:04:48 | 02:00:07 | 00:00:00 | |
| AA1-15 | 2026-09-01 11:34:10 | 52.82368 | 8.50903 | 73° | 80km/h | 11122m | -6m/s | -54.8°C | 47.8% | 229.4hPa | 2.6V | 08:05:04 | 02:00:07 | 00:00:00 | |
| DL1XH-west | 2026-09-01 11:34:03 | 52.82318 | 8.50653 | 77° | 106km/h | 11160m | -5.6m/s | -55.2°C | 48% | 227.9hPa | 2.6V | 08:05:04 | 02:00:00 | 00:00:00 | |
| DF8AY | 2026-09-01 11:34:01 | 52.82308 | 8.50566 | 81° | 108km/h | 11172m | -5.7m/s | -55.3°C | 48% | 227.5hPa | 2.6V | 08:05:04 | 01:59:58 | 00:00:00 | |
| DJ2DS-15 | 2026-09-01 11:34:01 | 52.82308 | 8.50566 | 82° | 99km/h | 11172m | -5.6m/s | -55.2°C | 47.0% | 227.5hPa | 2.6V | 08:04:00 | 01:59:58 | 00:00:00 | |
| DL1XH1-15 | 2026-09-01 11:34:00 | 52.82298 | 8.50395 | 87° | 93km/h | 11195m | -6.2m/s | -55.5°C | 48.8% | 226.7hPa | 2.5V | 08:05:01 | 01:59:54 | 00:00:00 | |
| HSKMA3-T | 2026-09-01 11:34:00 | 52.82304 | 8.50521 | 83° | 108km/h | 11177m | -6.6m/s | -55.3°C | 48% | 227.3hPa | 2.5V | 08:05:04 | 01:59:57 | 00:00:00 | |
| DO2JMG | 2026-09-01 11:33:59 | 52.82301 | 8.50477 | 84° | 104km/h | 11183m | -6.2m/s | -55.4°C | 48% | 227hPa | 2.5V | 08:05:04 | 01:59:56 | 00:00:00 | |
| BIOWL1-15 | 2026-09-01 11:33:57 | 52.82295 | 8.50322 | 83° | 82km/h | 11207m | -5.8m/s | -55.6°C | 48.2% | 226.2hPa | 2.6V | 08:05:04 | 01:59:52 | 00:00:00 | |
| SONCRA | 2026-09-01 11:33:56 | 52.82295 | 8.50322 | 83° | 82km/h | 11207m | -5.8m/s | -55.6°C | 40.5% | 226.2hPa | 2.6V | 00:00:00 | 00:00:00 | 00:00:00 | |
| DB0DAN | 2026-09-01 11:33:55 | 52.82295 | 8.50322 | 83° | 78km/h | 11207m | -5.8m/s | -55.6°C | 40.5% | 226.24hPa | 2.6V | 00:00:00 | 00:00:00 | 00:00:00 | |
| DL1XH-west | 2026-09-01 11:33:53 | 52.82286 | 8.50256 | 74° | 82km/h | 11218m | -5.6m/s | -55.7°C | 48.2% | 225.9hPa | 2.5V | 08:05:55 | 01:59:50 | 00:00:00 | |
| DF8AY | 2026-09-01 11:33:51 | 52.82273 | 8.50186 | 72° | 95km/h | 11229m | -5m/s | -55.9°C | 48.1% | 225.5hPa | 2.5V | 08:05:55 | 01:59:48 | 00:00:00 | |
| HSKMA3-T | 2026-09-01 11:33:50 | 52.82266 | 8.50146 | 73° | 100km/h | 11233m | -5.2m/s | -55.9°C | 48% | 225.3hPa | 2.5V | 08:05:55 | 01:59:47 | 00:00:00 | |
| AA1-15 | 2026-09-01 11:33:49 | 52.82259 | 8.50105 | 74° | 106km/h | 11239m | -5.8m/s | -56°C | 48% | 225.2hPa | 2.6V | 08:05:55 | 01:59:46 | 00:00:00 | |
| DO2JMG | 2026-09-01 11:33:48 | 52.82252 | 8.50062 | 76° | 110km/h | 11245m | -5.8m/s | -56°C | 47.8% | 224.9hPa | 2.6V | 08:05:55 | 01:59:45 | 00:00:00 | |
| DL1XH1-15 | 2026-09-01 11:33:48 | 52.82245 | 8.50018 | 75° | 110km/h | 11250m | -5.5m/s | -56.1°C | 48.9% | 224.7hPa | 2.6V | 08:05:11 | 01:59:44 | 00:00:00 | |
| DD8BA-10 | 2026-09-01 11:33:48 | 52.82252 | 8.50062 | 77° | 102km/h | 11245m | -5.7m/s | -56.0°C | 49.0% | 224.9hPa | 2.5V | 00:00:00 | 00:00:00 | 00:00:00 | |
| DL1XH-15 | 2026-09-01 11:33:47 | 52.82230 | 8.49930 | 73° | 108km/h | 11262m | -5.8m/s | -56.1°C | 48.3% | 224.3hPa | 2.5V | 08:05:13 | 01:59:42 | 00:00:00 | |
| D01LWL | 2026-09-01 11:33:46 | 52.82230 | 8.49930 | 73° | 108km/h | 11262m | -5.8m/s | -56.1°C | 39.4% | 224.3hPa | 2.6V | 00:00:00 | 00:00:00 | 00:00:00 | |
| DM0DOS-11 | 2026-09-01 11:33:45 | 52.82186 | 8.49732 | 67° | 93km/h | 11289m | -5.5m/s | -56.4°C | 46.8% | 223.3hPa | 2.6V | 08:05:18 | 01:59:37 | 00:00:00 | |
| BIOWL1-15 | 2026-09-01 11:33:44 | 52.82222 | 8.49887 | 72° | 108km/h | 11268m | -5.9m/s | -56.2°C | 46.9% | 224.1hPa | 2.5V | 08:05:55 | 01:59:41 | 00:00:00 | |
| DL1XH-west | 2026-09-01 11:33:42 | 52.82205 | 8.49806 | 68° | 100km/h | 11279m | -5.2m/s | -56.3°C | 46.3% | 223.7hPa | 2.6V | 08:05:55 | 01:59:39 | 00:00:00 | |
| DD1CC3-15 | 2026-09-01 11:33:42 | 52.82205 | 8.49806 | 69° | 100km/h | 11279m | -5.2m/s | -56.3°C | 38.3% | 223.7hPa | 2.6V | 08:05:00 | 00:00:00 | 00:00:00 | |
| DB0DAN | 2026-09-01 11:33:40 | 52.82186 | 8.49732 | 67° | 88km/h | 11289m | -5.5m/s | -56.4°C | 38% | 223.33hPa | 2.6V | 00:00:00 | 00:00:00 | 00:00:00 | |
| AA1-15 | 2026-09-01 11:33:39 | 52.82177 | 8.49696 | 68° | 91km/h | 11295m | -5.8m/s | -56.4°C | 45.5% | 223.1hPa | 2.5V | 08:05:55 | 01:59:36 | 00:00:00 | |
| DO2JMG | 2026-09-01 11:33:38 | 52.82169 | 8.49661 | 68° | 89km/h | 11300m | -5.7m/s | -56.4°C | 45.2% | 222.9hPa | 2.5V | 08:05:55 | 01:59:35 | 00:00:00 | |
| DF8AY | 2026-09-01 11:33:36 | 52.82154 | 8.49592 | 73° | 88km/h | 11311m | -5.1m/s | -56.5°C | 44.8% | 222.6hPa | 2.5V | 08:05:55 | 01:59:33 | 00:00:00 | |
| DL1XH-15 | 2026-09-01 11:33:36 | 52.82148 | 8.49557 | 76° | 88km/h | 11316m | -4.6m/s | -56.4°C | 47.6% | 222.4hPa | 2.6V | 08:05:23 | 01:59:32 | 00:00:00 | |
| DM0DOS-11 | 2026-09-01 11:33:35 | 52.82128 | 8.49379 | 76° | 84km/h | 11343m | -5.7m/s | -56.5°C | 47.1% | 221.4hPa | 2.5V | 08:05:28 | 01:59:27 | 00:00:00 | |
| BIOWL1-15 | 2026-09-01 11:33:34 | 52.82143 | 8.49521 | 79° | 88km/h | 11321m | -4.9m/s | -56.4°C | 44.3% | 222.2hPa | 2.6V | 08:05:55 | 01:59:31 | 00:00:00 | |
| DL1XH-west | 2026-09-01 11:33:32 | 52.82136 | 8.49449 | 81° | 88km/h | 11331m | -5.7m/s | -56.5°C | 44% | 221.8hPa | 2.5V | 08:05:55 | 01:59:29 | 00:00:00 | |
| DL3AQ-11 | 2026-09-01 11:33:32 | 52.82132 | 8.49414 | 78° | 84km/h | 11337m | -6.0m/s | -56.5°C | 38.7% | 221.7hPa | 2.5V | 00:00:00 | 00:00:00 | 00:00:00 | |
| GOEST3-10 | 2026-09-01 11:33:31 | 52.82132 | 8.49414 | 79° | 86km/h | 11337m | -6.0m/s | -56.5°C | 47.8% | 221.6hPa | 2.5V | 00:00:00 | 01:59:28 | 00:00:00 | |
| DO2SHX-10 | 2026-09-01 11:33:30 | 52.82127 | 8.49379 | 77° | 86km/h | 11343m | -5.6m/s | -56.4°C | 47.1% | 221.4hPa | 2.5V | 08:05:00 | 01:59:27 | 00:00:00 | |
| DL1XH1-15 | 2026-09-01 11:33:28 | 52.82106 | 8.49278 | 67° | 91km/h | 11359m | -5.4m/s | -56.5°C | 44.5% | 220.8hPa | 2.5V | 08:05:31 | 01:59:24 | 00:00:00 | |
| HSKMA3-T | 2026-09-01 11:33:28 | 52.82115 | 8.49312 | 69° | 88km/h | 11353m | -5.3m/s | -56.5°C | 42.6% | 221hPa | 2.6V | 08:05:55 | 01:59:25 | 00:00:00 | |
| DO2JMG | 2026-09-01 11:33:27 | 52.82106 | 8.49278 | 67° | 91km/h | 11359m | -5.4m/s | -56.5°C | 42.1% | 220.9hPa | 2.5V | 08:05:55 | 01:59:24 | 00:00:00 | |
| DF8AY | 2026-09-01 11:33:25 | 52.82086 | 8.49204 | 66° | 102km/h | 11369m | -5.3m/s | -56.6°C | 41.2% | 220.5hPa | 2.5V | 08:05:55 | 01:59:22 | 00:00:00 | |
| DL1XH-west | 2026-09-01 11:33:21 | 52.82045 | 8.49037 | 70° | 113km/h | 11390m | -5.8m/s | -56.3°C | 39.6% | 219.7hPa | 2.5V | 08:05:55 | 01:59:18 | 00:00:00 | |
| DO2SHX-10 | 2026-09-01 11:33:21 | 52.82045 | 8.49037 | 71° | 113km/h | 11391m | -5.7m/s | -56.2°C | 41.4% | 219.6hPa | 2.6V | 00:00:00 | 01:59:18 | 00:00:00 | |
| DL1XH1-15 | 2026-09-01 11:33:20 | 52.82016 | 8.48858 | 80° | 108km/h | 11412m | -5.4m/s | -56.1°C | 39.8% | 219hPa | 2.6V | 08:05:41 | 01:59:14 | 00:00:00 | |
| DM0DOS-11 | 2026-09-01 11:33:20 | 52.82036 | 8.48992 | 72° | 113km/h | 11396m | -5.7m/s | -56.2°C | 41% | 219.5hPa | 2.5V | 08:05:38 | 01:59:17 | 00:00:00 | |
| HSKMA3-T | 2026-09-01 11:33:17 | 52.82016 | 8.48858 | 80° | 108km/h | 11412m | -5.4m/s | -56.1°C | 38% | 219hPa | 2.6V | 08:05:55 | 01:59:14 | 00:00:00 | |
| DO2JMG | 2026-09-01 11:33:16 | 52.82012 | 8.48814 | 81° | 104km/h | 11417m | -5.4m/s | -56.1°C | 37.6% | 218.8hPa | 2.5V | 08:05:55 | 01:59:13 | 00:00:00 | |
| BIOWL1-15 | 2026-09-01 11:33:10 | 52.81996 | 8.48530 | 87° | 95km/h | 11456m | -6.2m/s | -55.9°C | 34.7% | 217.4hPa | 2.5V | 08:05:55 | 01:59:06 | 00:00:00 | |
| DB0DAN | 2026-09-01 11:33:10 | 52.81997 | 8.48570 | 87° | 91km/h | 11450m | -6.1m/s | -55.9°C | 29.1% | 217.59hPa | 2.6V | 00:00:00 | 00:00:00 | 00:00:00 | |
| DL1XH-west | 2026-09-01 11:33:10 | 52.81997 | 8.48570 | 87° | 95km/h | 11450m | -6.1m/s | -55.9°C | 35.1% | 217.6hPa | 2.6V | 08:05:55 | 01:59:07 | 00:00:00 | |
| HSKMA3-T | 2026-09-01 11:33:07 | 52.81993 | 8.48453 | 86° | 91km/h | 11467m | -6m/s | -55.7°C | 34% | 216.9hPa | 2.5V | 08:05:55 | 01:59:04 | 00:00:00 | |
| AA1-15 | 2026-09-01 11:33:06 | 52.81991 | 8.48415 | 84° | 91km/h | 11473m | -5.4m/s | -55.6°C | 33.7% | 216.8hPa | 2.5V | 08:05:55 | 01:59:03 | 00:00:00 | |
| DL1XH-15 | 2026-09-01 11:33:06 | 52.81988 | 8.48377 | 80° | 91km/h | 11478m | -5m/s | -55.7°C | 35.4% | 216.6hPa | 2.6V | 08:05:53 | 01:59:02 | 00:00:00 | |
| DO2JMG | 2026-09-01 11:33:05 | 52.81988 | 8.48377 | 81° | 91km/h | 11478m | -5m/s | -55.7°C | 33.5% | 216.7hPa | 2.6V | 08:05:55 | 01:59:02 | 00:00:00 | |
| DF8AY | 2026-09-01 11:33:02 | 52.81973 | 8.48260 | 77° | 99km/h | 11493m | -5.9m/s | -55.6°C | 32.6% | 216.2hPa | 2.5V | 08:07:37 | 01:58:59 | 00:00:00 | |
| DJ2DS-15 | 2026-09-01 11:33:01 | 52.81967 | 8.48221 | 77° | 100km/h | 11499m | -5.7m/s | -55.5°C | 33.4% | 215.9hPa | 2.5V | 00:00:00 | 01:58:58 | 00:00:00 | |
| DL1XH1-15 | 2026-09-01 11:33:00 | 52.81944 | 8.48065 | 75° | 99km/h | 11521m | -5.3m/s | -55.4°C | 31.7% | 215.2hPa | 2.6V | 08:06:01 | 01:58:54 | 00:00:00 | |
| DL1XH-west | 2026-09-01 11:32:59 | 52.81955 | 8.48143 | 76° | 97km/h | 11510m | -5.9m/s | -55.5°C | 31.7% | 215.6hPa | 2.5V | 08:06:46 | 01:58:56 | 00:00:00 | |
| BIOWL1-15 | 2026-09-01 11:32:58 | 52.81949 | 8.48104 | 76° | 97km/h | 11515m | -5.2m/s | -55.4°C | 31.5% | 215.4hPa | 2.6V | 08:06:46 | 01:58:55 | 00:00:00 | |
| DJ2KF-10 | 2026-09-01 11:32:58 | 52.81949 | 8.48104 | 77° | 97km/h | 11516m | -5.2m/s | -55.4°C | 32.1% | 215.3hPa | 2.5V | 00:00:00 | 01:58:55 | 00:00:00 | |
| DO2SHX-10 | 2026-09-01 11:32:57 | 52.81943 | 8.48065 | 76° | 102km/h | 11521m | -5.2m/s | -55.4°C | 31.7% | 215.2hPa | 2.5V | 00:00:00 | 01:58:54 | 00:00:00 | |
| DL1XH-15 | 2026-09-01 11:32:56 | 52.81932 | 8.47982 | 77° | 106km/h | 11531m | -5.6m/s | -55.3°C | 31.1% | 214.8hPa | 2.5V | 08:06:03 | 01:58:52 | 00:00:00 | |
| HSKMA3-T | 2026-09-01 11:32:56 | 52.81937 | 8.48024 | 77° | 102km/h | 11526m | -5.5m/s | -55.3°C | 31.1% | 215hPa | 2.6V | 08:06:46 | 01:58:53 | 00:00:00 | |
| AA1-15 | 2026-09-01 11:32:56 | 52.81932 | 8.47982 | 78° | 106km/h | 11531m | -5.6m/s | -55.3°C | 30.9% | 214.8hPa | 2.5V | 08:06:46 | 01:58:52 | 00:00:00 | |
| DO2JMG | 2026-09-01 11:32:54 | 52.81926 | 8.47938 | 80° | 108km/h | 11536m | -5.3m/s | -55.3°C | 30.7% | 214.7hPa | 2.5V | 08:06:46 | 01:58:51 | 00:00:00 | |
| DF8AY | 2026-09-01 11:32:51 | 52.81917 | 8.47801 | 87° | 111km/h | 11552m | -5.8m/s | -55.3°C | 30.2% | 214.1hPa | 2.6V | 08:07:37 | 01:58:48 | 00:00:00 | |
| DO2SHX-10 | 2026-09-01 11:32:51 | 52.81917 | 8.47801 | 88° | 110km/h | 11552m | -5.8m/s | -55.2°C | 30.3% | 214.0hPa | 2.6V | 00:00:00 | 01:58:48 | 00:00:00 | |
| DL1XH1-15 | 2026-09-01 11:32:50 | 52.81919 | 8.47621 | 95° | 104km/h | 11574m | -5.8m/s | -55.4°C | 29.9% | 213.3hPa | 2.6V | 08:06:11 | 01:58:44 | 00:00:00 | |
| DL1XH-west | 2026-09-01 11:32:49 | 52.81917 | 8.47665 | 93° | 106km/h | 11568m | -6.5m/s | -55.4°C | 29.8% | 213.5hPa | 2.5V | 08:06:46 | 01:58:45 | 00:00:00 | |
| HSKMA3-T | 2026-09-01 11:32:46 | 52.81922 | 8.47579 | 96° | 100km/h | 11580m | -6.6m/s | -55.4°C | 29.6% | 213.1hPa | 2.6V | 08:06:46 | 01:58:43 | 00:00:00 | |
| AA1-15 | 2026-09-01 11:32:44 | 52.81926 | 8.47502 | 95° | 88km/h | 11592m | -6.6m/s | -55.5°C | 29.3% | 212.7hPa | 2.5V | 08:06:46 | 01:58:41 | 00:00:00 | |
| DM0DOS-11 | 2026-09-01 11:32:44 | 52.81922 | 8.47334 | 79° | 82km/h | 11621m | -6.3m/s | -55.6°C | 29.2% | 211.7hPa | 2.5V | 08:06:19 | 01:58:36 | 00:00:00 | |
| DO2JMG | 2026-09-01 11:32:43 | 52.81928 | 8.47466 | 94° | 82km/h | 11599m | -5.9m/s | -55.6°C | 29.2% | 212.6hPa | 2.6V | 08:06:46 | 01:58:40 | 00:00:00 | |
| DO2SHX-10 | 2026-09-01 11:32:42 | 52.81929 | 8.47433 | 90° | 78km/h | 11604m | -5.9m/s | -55.5°C | 29.8% | 212.3hPa | 2.6V | 00:00:00 | 01:58:39 | 00:00:00 | |
| DD1CC2-15 | 2026-09-01 11:32:41 | 52.81929 | 8.47433 | 90° | 78km/h | 11604m | -6.0m/s | -55.6°C | 23.1% | 212.3hPa | 2.5V | 08:06:00 | 00:00:00 | 00:00:00 | |
| DB0DAN | 2026-09-01 11:32:40 | 52.81925 | 8.47367 | 82° | 77km/h | 11615m | -5.5m/s | -55.6°C | 22.8% | 211.95hPa | 2.5V | 00:00:00 | 00:00:00 | 00:00:00 | |
| DF8AY | 2026-09-01 11:32:40 | 52.81925 | 8.47367 | 82° | 80km/h | 11615m | -5.5m/s | -55.6°C | 28.6% | 211.9hPa | 2.5V | 08:07:37 | 01:58:37 | 00:00:00 | |
| DL4BBY-15 | 2026-09-01 11:32:40 | 52.81925 | 8.47367 | 82° | 84km/h | 11615m | -5.5m/s | -54.3°C | 0% | 0hPa | 2.6V | 00:00:00 | 00:00:00 | 00:00:00 | |
| DO2SHX-10 | 2026-09-01 11:32:39 | 52.81922 | 8.47334 | 80° | 88km/h | 11621m | -6.3m/s | -55.5°C | 29.2% | 211.7hPa | 2.6V | 00:00:00 | 01:58:36 | 00:00:00 | |
| DL1XH1-15 | 2026-09-01 11:32:38 | 52.81914 | 8.47263 | 80° | 93km/h | 11633m | -5.9m/s | -55.5°C | 28.6% | 211.3hPa | 2.6V | 08:06:21 | 01:58:34 | 00:00:00 | |
| DL1XH-west | 2026-09-01 11:32:37 | 52.81914 | 8.47263 | 81° | 93km/h | 11633m | -5.9m/s | -55.5°C | 28% | 211.3hPa | 2.6V | 08:06:46 | 01:58:34 | 00:00:00 | |
| HSKMA3-T | 2026-09-01 11:32:36 | 52.81911 | 8.47224 | 84° | 97km/h | 11638m | -5.4m/s | -55.5°C | 27.8% | 211.2hPa | 2.5V | 08:06:46 | 01:58:33 | 00:00:00 | |
| AA1-15 | 2026-09-01 11:32:34 | 52.81908 | 8.47139 | 90° | 106km/h | 11649m | -5.1m/s | -55.5°C | 27.4% | 210.8hPa | 2.5V | 08:06:46 | 01:58:31 | 00:00:00 | |
| DO2JMG | 2026-09-01 11:32:32 | 52.81909 | 8.47050 | 92° | 106km/h | 11659m | -6.1m/s | -55.4°C | 27.1% | 210.4hPa | 2.6V | 08:06:46 | 01:58:29 | 00:00:00 | |
| DF8AY | 2026-09-01 11:32:29 | 52.81914 | 8.46919 | 96° | 100km/h | 11677m | -6.3m/s | -55.5°C | 26.7% | 209.9hPa | 2.5V | 08:07:37 | 01:58:26 | 00:00:00 | |
| DL1XH-west | 2026-09-01 11:32:27 | 52.81921 | 8.46841 | 98° | 88km/h | 11688m | -5.4m/s | -55.6°C | 26.6% | 209.5hPa | 2.5V | 08:06:46 | 01:58:24 | 00:00:00 | |
| DB0DAN | 2026-09-01 11:32:25 | 52.81926 | 8.46772 | 97° | 75km/h | 11698m | -6m/s | -55.3°C | 20.4% | 209.13hPa | 2.6V | 00:00:00 | 00:00:00 | 00:00:00 | |
| BIOWL1-15 | 2026-09-01 11:32:25 | 52.81934 | 8.46550 | 95° | 73km/h | 11735m | -6m/s | -55.3°C | 25.3% | 207.9hPa | 2.6V | 08:06:46 | 01:58:15 | 00:00:00 | |
| HSKMA3-T | 2026-09-01 11:32:25 | 52.81926 | 8.46772 | 97° | 78km/h | 11698m | -6m/s | -55.3°C | 26.1% | 209.1hPa | 2.6V | 08:06:46 | 01:58:22 | 00:00:00 | |
| AA1-15 | 2026-09-01 11:32:24 | 52.81928 | 8.46739 | 94° | 77km/h | 11703m | -6.1m/s | -55.2°C | 25.9% | 208.9hPa | 2.6V | 08:06:46 | 01:58:21 | 00:00:00 | |
| DO2JMG | 2026-09-01 11:32:22 | 52.81930 | 8.46676 | 92° | 75km/h | 11714m | -5.9m/s | -55.1°C | 25.6% | 208.6hPa | 2.5V | 08:06:46 | 01:58:19 | 00:00:00 | |
| DF8AY | 2026-09-01 11:32:19 | 52.81933 | 8.46581 | 92° | 75km/h | 11730m | -6.2m/s | -55.2°C | 25.4% | 208.1hPa | 2.6V | 08:07:37 | 01:58:16 | 00:00:00 | |
| DL1XH-west | 2026-09-01 11:32:18 | 52.81936 | 8.46520 | 94° | 71km/h | 11741m | -6.2m/s | -55.4°C | 25.3% | 207.7hPa | 2.6V | 08:06:46 | 01:58:14 | 00:00:00 | |
| HSKMA3-T | 2026-09-01 11:32:14 | 52.81940 | 8.46435 | 89° | 64km/h | 11759m | -6.9m/s | -55.3°C | 24.7% | 207.1hPa | 2.5V | 08:06:46 | 01:58:11 | 00:00:00 | |
| DM0DOS-11 | 2026-09-01 11:32:14 | 52.81932 | 8.46297 | 83° | 75km/h | 11792m | -6.5m/s | -55.3°C | 24.3% | 206.1hPa | 2.6V | 08:06:49 | 01:58:06 | 00:00:00 | |
| AA1-15 | 2026-09-01 11:32:13 | 52.81939 | 8.46408 | 87° | 64km/h | 11766m | -7.2m/s | -55.3°C | 24.8% | 206.9hPa | 2.6V | 08:06:46 | 01:58:10 | 00:00:00 | |
| BIOWL1-15 | 2026-09-01 11:32:12 | 52.81938 | 8.46382 | 85° | 64km/h | 11773m | -7.2m/s | -55.2°C | 24.7% | 206.7hPa | 2.6V | 08:06:46 | 01:58:09 | 00:00:00 | |
| DO2JMG | 2026-09-01 11:32:11 | 52.81936 | 8.46355 | 83° | 66km/h | 11780m | -7m/s | -55.2°C | 24.5% | 206.5hPa | 2.5V | 08:07:37 | 01:58:08 | 00:00:00 | |
| DB0DAN | 2026-09-01 11:32:10 | 52.81934 | 8.46327 | 82° | 68km/h | 11786m | -6.7m/s | -55.3°C | 18.4% | 206.24hPa | 2.5V | 00:00:00 | 00:00:00 | 00:00:00 | |
| DF8AY | 2026-09-01 11:32:09 | 52.81932 | 8.46297 | 83° | 75km/h | 11792m | -6.5m/s | -55.3°C | 24.5% | 206.1hPa | 2.6V | 08:07:37 | 01:58:06 | 00:00:00 | |
| DD8BA-10 | 2026-09-01 11:32:08 | 52.81929 | 8.46265 | 82° | 88km/h | 11799m | -5.7m/s | -55.3°C | 24.2% | 205.8hPa | 2.5V | 00:00:00 | 00:00:00 | 00:00:00 | |
| DF5WG-10 | 2026-09-01 11:32:07 | 52.81925 | 8.46230 | 84° | 86km/h | 11805m | -5.7m/s | -55.3°C | 24.1% | 205.7hPa | 2.5V | 00:00:00 | 01:58:04 | 00:00:00 | |
| DL1XH-15 | 2026-09-01 11:32:06 | 52.81923 | 8.46154 | 90° | 95km/h | 11817m | -6.7m/s | -55.5°C | 24% | 205.3hPa | 2.5V | 08:06:53 | 01:58:02 | 00:00:00 | |
| DL1XH-west | 2026-09-01 11:32:06 | 52.81923 | 8.46193 | 87° | 93km/h | 11811m | -5.9m/s | -55.4°C | 24.2% | 205.5hPa | 2.6V | 08:07:37 | 01:58:03 | 00:00:00 | |
| DM0DOS-11 | 2026-09-01 11:32:04 | 52.81937 | 8.45939 | 100° | 73km/h | 11854m | -6m/s | -55.7°C | 23.7% | 204.2hPa | 2.6V | 08:06:59 | 01:57:56 | 00:00:00 | |
| HSKMA3-T | 2026-09-01 11:32:03 | 52.81925 | 8.46075 | 95° | 93km/h | 11830m | -6.9m/s | -55.5°C | 24% | 205hPa | 2.5V | 08:07:37 | 01:58:00 | 00:00:00 | |
| AA1-15 | 2026-09-01 11:32:02 | 52.81928 | 8.46038 | 97° | 89km/h | 11836m | -6.8m/s | -55.6°C | 23.9% | 204.8hPa | 2.6V | 08:07:37 | 01:57:59 | 00:00:00 | |
| BIOWL1-15 | 2026-09-01 11:32:01 | 52.81940 | 8.45911 | 98° | 64km/h | 11860m | -6.3m/s | -55.7°C | 23.5% | 204hPa | 2.5V | 08:07:37 | 01:57:55 | 00:00:00 | |
| DO2JMG | 2026-09-01 11:32:01 | 52.81930 | 8.46002 | 97° | 82km/h | 11843m | -6.2m/s | -55.6°C | 23.8% | 204.5hPa | 2.6V | 08:07:37 | 01:57:58 | 00:00:00 | |
| DF8AY | 2026-09-01 11:31:59 | 52.81937 | 8.45939 | 100° | 73km/h | 11854m | -6m/s | -55.7°C | 23.6% | 204.2hPa | 2.6V | 08:07:37 | 01:57:56 | 00:00:00 | |
| DL3AQ-11 | 2026-09-01 11:31:59 | 52.81940 | 8.45911 | 98° | 64km/h | 11860m | -6.3m/s | -55.7°C | 17.7% | 204.0hPa | 2.5V | 00:00:00 | 00:00:00 | 00:00:00 | |
| EDDB2-12 | 2026-09-01 11:31:58 | 52.81940 | 8.45911 | 98° | 64km/h | 11860m | -6.3m/s | -55.7°C | 17.7% | 204.0hPa | 2.5V | 00:00:00 | 00:00:00 | 00:00:00 | |
| SONDE2-11 | 2026-09-01 11:31:57 | 52.81943 | 8.45860 | 93° | 60km/h | 11873m | -6.9m/s | -55.7°C | 17.5% | 203.6hPa | 2.5V | 00:00:00 | 00:00:00 | 00:00:00 | |
| DL1XH-15 | 2026-09-01 11:31:56 | 52.81944 | 8.45835 | 92° | 60km/h | 11879m | -6.9m/s | -55.7°C | 23.1% | 203.4hPa | 2.5V | 08:07:03 | 01:57:52 | 00:00:00 | |
| HTAHTA | 2026-09-01 11:31:56 | 52.81944 | 8.45835 | 92° | 60km/h | 11879m | -6.9m/s | -55.7°C | 17.3% | 203.4hPa | 2.5V | 00:00:00 | 00:00:00 | 00:00:00 | |
| DB0DAN | 2026-09-01 11:31:55 | 52.81944 | 8.45835 | 93° | 57km/h | 11879m | -6.9m/s | -55.7°C | 17.3% | 203.41hPa | 2.5V | 00:00:00 | 00:00:00 | 00:00:00 | |
| DL1XH-west | 2026-09-01 11:31:55 | 52.81944 | 8.45835 | 93° | 60km/h | 11879m | -6.9m/s | -55.7°C | 23.1% | 203.4hPa | 2.5V | 08:07:37 | 01:57:52 | 00:00:00 | |
| DM0DOS-11 | 2026-09-01 11:31:54 | 52.81927 | 8.45676 | 73° | 73km/h | 11920m | -6.6m/s | -55.8°C | 22% | 202.2hPa | 2.6V | 08:07:09 | 01:57:46 | 00:00:00 | |
| HSKMA3-T | 2026-09-01 11:31:52 | 52.81941 | 8.45758 | 79° | 64km/h | 11900m | -6.6m/s | -55.7°C | 22.7% | 202.8hPa | 2.6V | 08:07:37 | 01:57:49 | 00:00:00 | |
| BIOWL1-15 | 2026-09-01 11:31:51 | 52.81937 | 8.45732 | 75° | 66km/h | 11907m | -6.1m/s | -55.8°C | 22.5% | 202.6hPa | 2.5V | 08:07:37 | 01:57:48 | 00:00:00 | |
| DO2JMG | 2026-09-01 11:31:51 | 52.81932 | 8.45705 | 73° | 69km/h | 11913m | -6.3m/s | -55.8°C | 22.3% | 202.4hPa | 2.5V | 08:07:37 | 01:57:47 | 00:00:00 | |
| DF8AY | 2026-09-01 11:31:48 | 52.81922 | 8.45646 | 75° | 75km/h | 11927m | -6.9m/s | -55.8°C | 22% | 202hPa | 2.6V | 08:07:37 | 01:57:45 | 00:00:00 | |
| DL1XH-west | 2026-09-01 11:31:44 | 52.81910 | 8.45512 | 89° | 82km/h | 11953m | -5.9m/s | -56°C | 21.3% | 201.2hPa | 2.6V | 08:07:37 | 01:57:41 | 00:00:00 | |
| HSKMA3-T | 2026-09-01 11:31:42 | 52.81910 | 8.45447 | 94° | 71km/h | 11965m | -5.9m/s | -56°C | 20.9% | 200.8hPa | 2.6V | 08:07:37 | 01:57:39 | 00:00:00 | |
| BIOWL1-15 | 2026-09-01 11:31:41 | 52.81911 | 8.45419 | 94° | 64km/h | 11971m | -5.8m/s | -56.1°C | 20.8% | 200.6hPa | 2.6V | 08:07:37 | 01:57:38 | 00:00:00 | |
| DO2JMG | 2026-09-01 11:31:40 | 52.81912 | 8.45394 | 93° | 57km/h | 11977m | -6.1m/s | -56.1°C | 20.6% | 200.5hPa | 2.5V | 08:07:37 | 01:57:37 | 00:00:00 | |
| DF8AY | 2026-09-01 11:31:38 | 52.81912 | 8.45349 | 87° | 51km/h | 11990m | -5.9m/s | -56.1°C | 20.1% | 200.1hPa | 2.5V | 08:07:37 | 01:57:35 | 00:00:00 | |
| SMARD9-15 | 2026-09-01 11:31:37 | 52.81911 | 8.45328 | 79° | 51km/h | 11996m | -6.0m/s | -56.1°C | 14.9% | 199.8hPa | 2.6V | 00:00:00 | 00:00:00 | 00:00:00 | |
| DF5WG-10 | 2026-09-01 11:31:36 | 52.81908 | 8.45307 | 76° | 68km/h | 12002m | -6.2m/s | -56.1°C | 20.2% | 199.6hPa | 2.6V | 00:00:00 | 01:57:33 | 00:00:00 | |
| DJ2DS-15 | 2026-09-01 11:31:35 | 52.81904 | 8.45286 | 73° | 53km/h | 12008m | -6.0m/s | -56.1°C | 14.5% | 199.5hPa | 2.6V | 00:00:00 | 00:00:00 | 00:00:00 | |
| DM0DOS-11 | 2026-09-01 11:31:34 | 52.81866 | 8.45133 | 70° | 78km/h | 12044m | -6.1m/s | -56.3°C | 18.7% | 198.3hPa | 2.6V | 08:07:29 | 01:57:26 | 00:00:00 | |
| DL1XH-west | 2026-09-01 11:31:34 | 52.81899 | 8.45264 | 66° | 57km/h | 12014m | -6.3m/s | -56.1°C | 19.2% | 199.3hPa | 2.6V | 08:07:37 | 01:57:31 | 00:00:00 | |
| DL4XJ-10 | 2026-09-01 11:31:34 | 52.81899 | 8.45264 | 66° | 64km/h | 12015m | -6.2m/s | -54.8°C | 0% | 0hPa | 2.5V | 00:00:00 | 00:00:00 | 00:00:00 | |
| DL1XH1-15 | 2026-09-01 11:31:32 | 52.81855 | 8.45069 | 77° | 80km/h | 12056m | -6.4m/s | -56.4°C | 18.3% | 198hPa | 2.5V | 08:07:31 | 01:57:24 | 00:00:00 | |
| HSKMA3-T | 2026-09-01 11:31:31 | 52.81880 | 8.45192 | 66° | 73km/h | 12033m | -5.6m/s | -56.3°C | 18.4% | 198.7hPa | 2.5V | 08:07:37 | 01:57:28 | 00:00:00 | |
| DO2JMG | 2026-09-01 11:31:30 | 52.81873 | 8.45163 | 69° | 77km/h | 12038m | -5.7m/s | -56.3°C | 18.1% | 198.5hPa | 2.6V | 08:07:37 | 01:57:27 | 00:00:00 | |
| AA1-15 | 2026-09-01 11:31:29 | 52.81866 | 8.45133 | 71° | 78km/h | 12044m | -6.1m/s | -56.3°C | 17.9% | 198.3hPa | 2.6V | 08:07:37 | 01:57:26 | 00:00:00 | |
| DF8AY | 2026-09-01 11:31:27 | 52.81855 | 8.45069 | 77° | 80km/h | 12056m | -6.4m/s | -56.4°C | 17.3% | 198hPa | 2.5V | 08:07:37 | 01:57:24 | 00:00:00 | |
| DL1XH-west | 2026-09-01 11:31:23 | 52.81843 | 8.44940 | 84° | 75km/h | 12081m | -5.9m/s | -56.4°C | 16.2% | 197.2hPa | 2.6V | 08:07:37 | 01:57:20 | 00:00:00 | |
| HSKMA3-T | 2026-09-01 11:31:21 | 52.81841 | 8.44880 | 86° | 69km/h | 12094m | -6.9m/s | -56.4°C | 15.7% | 196.8hPa | 2.5V | 08:07:37 | 01:57:18 | 00:00:00 | |
| DO2JMG | 2026-09-01 11:31:20 | 52.81839 | 8.44852 | 86° | 68km/h | 12101m | -6.4m/s | -56.4°C | 15.5% | 196.7hPa | 2.5V | 08:08:28 | 01:57:17 | 00:00:00 | |
| DM0DOS-11 | 2026-09-01 11:31:20 | 52.81838 | 8.44824 | 82° | 66km/h | 12107m | -6.3m/s | -56.4°C | 17.5% | 196.5hPa | 2.5V | 08:07:39 | 01:57:16 | 00:00:00 | |
| AA1-15 | 2026-09-01 11:31:19 | 52.81838 | 8.44824 | 82° | 66km/h | 12107m | -6.3m/s | -56.4°C | 15.2% | 196.5hPa | 2.5V | 08:08:28 | 01:57:16 | 00:00:00 | |
| DF8AY | 2026-09-01 11:31:17 | 52.81831 | 8.44771 | 73° | 64km/h | 12119m | -5.9m/s | -56.4°C | 14.6% | 196.1hPa | 2.6V | 08:08:28 | 01:57:14 | 00:00:00 | |
| GOEST3-10 | 2026-09-01 11:31:16 | 52.81825 | 8.44747 | 68° | 62km/h | 12125m | -5.9m/s | -56.4°C | 16.5% | 195.8hPa | 2.5V | 00:00:00 | 00:00:00 | 00:00:00 | |
| DF5WG-10 | 2026-09-01 11:31:15 | 52.81819 | 8.44722 | 66° | 68km/h | 12131m | -6.1m/s | -56.4°C | 16.2% | 195.7hPa | 2.5V | 00:00:00 | 01:57:12 | 00:00:00 | |
| DM0DOS-11 | 2026-09-01 11:31:14 | 52.81777 | 8.44584 | 61° | 66km/h | 12169m | -6.3m/s | -56.1°C | 14.4% | 194.6hPa | 2.5V | 08:07:49 | 01:57:06 | 00:00:00 | |
| DL1XH-west | 2026-09-01 11:31:13 | 52.81769 | 8.44559 | 62° | 71km/h | 12175m | -6.5m/s | -56.2°C | 11.6% | 194.4hPa | 2.5V | 08:08:28 | 01:57:05 | 00:00:00 | |
| BIOWL1-15 | 2026-09-01 11:31:12 | 52.81761 | 8.44532 | 65° | 75km/h | 12182m | -6.4m/s | -56°C | 11.2% | 194.2hPa | 2.6V | 08:08:28 | 01:57:04 | 00:00:00 | |
| DB0DAN | 2026-09-01 11:31:10 | 52.81785 | 8.44607 | 62° | 60km/h | 12163m | -6.4m/s | -56.1°C | 9.8% | 194.76hPa | 2.5V | 00:00:00 | 00:00:00 | 00:00:00 | |
| HSKMA3-T | 2026-09-01 11:31:10 | 52.81785 | 8.44607 | 62° | 62km/h | 12163m | -6.4m/s | -56.1°C | 12.3% | 194.8hPa | 2.5V | 08:08:28 | 01:57:07 | 00:00:00 | |
| AA1-15 | 2026-09-01 11:31:09 | 52.81777 | 8.44584 | 62° | 66km/h | 12169m | -6.3m/s | -56.1°C | 12% | 194.6hPa | 2.5V | 08:08:28 | 01:57:06 | 00:00:00 | |
| DL1XH1-15 | 2026-09-01 11:31:08 | 52.81761 | 8.44532 | 64° | 75km/h | 12182m | -6.4m/s | -56°C | 13.7% | 194.2hPa | 2.6V | 08:07:51 | 01:57:04 | 00:00:00 | |
| DF8AY | 2026-09-01 11:31:06 | 52.81753 | 8.44502 | 67° | 80km/h | 12188m | -5.9m/s | -56°C | 10.8% | 194hPa | 2.6V | 08:08:28 | 01:57:03 | 00:00:00 | |
| DL1XH-west | 2026-09-01 11:31:01 | 52.81722 | 8.44327 | 76° | 91km/h | 12218m | -6.2m/s | -54.9°C | 9.1% | 193hPa | 2.6V | 08:08:28 | 01:56:58 | 00:00:00 | |
| DJ2DS-15 | 2026-09-01 11:31:01 | 52.81722 | 8.44327 | 76° | 89km/h | 12219m | -6.2m/s | -54.9°C | 11.5% | 193.0hPa | 2.6V | 08:07:00 | 01:56:58 | 00:00:00 | |
| DM0DOS-11 | 2026-09-01 11:31:00 | 52.81710 | 8.44253 | 75° | 93km/h | 12230m | -6m/s | -54.7°C | 10.7% | 192.7hPa | 2.6V | 08:07:59 | 01:56:56 | 00:00:00 | |
| DL1XH1-15 | 2026-09-01 11:31:00 | 52.81699 | 8.44177 | 77° | 95km/h | 12243m | -6.5m/s | -54.4°C | 10.2% | 192.3hPa | 2.5V | 08:08:01 | 01:56:54 | 00:00:00 | |
| HSKMA3-T | 2026-09-01 11:31:00 | 52.81716 | 8.44291 | 75° | 93km/h | 12224m | -5.9m/s | -54.8°C | 8.8% | 192.8hPa | 2.7V | 08:08:28 | 01:56:57 | 00:00:00 | |
| AA1-15 | 2026-09-01 11:31:00 | 52.81710 | 8.44253 | 75° | 93km/h | 12230m | -6.1m/s | -54.7°C | 8.5% | 192.7hPa | 2.6V | 08:08:28 | 01:56:56 | 00:00:00 | |
| DF8AY | 2026-09-01 11:30:57 | 52.81694 | 8.44138 | 79° | 95km/h | 12249m | -6.4m/s | -54.4°C | 7.7% | 192.2hPa | 2.5V | 08:08:28 | 01:56:53 | 00:00:00 | |
| BIOWL1-15 | 2026-09-01 11:30:56 | 52.81687 | 8.44060 | 84° | 95km/h | 12262m | -6.3m/s | -54.2°C | 7.3% | 191.7hPa | 2.6V | 08:08:28 | 01:56:51 | 00:00:00 | |
| SONDE2-11 | 2026-09-01 11:30:55 | 52.81687 | 8.44060 | 83° | 93km/h | 12262m | -6.3m/s | -54.2°C | 5.9% | 191.7hPa | 2.6V | 00:00:00 | 00:00:00 | 00:00:00 | |
| DM0DOS-11 | 2026-09-01 11:30:54 | 52.81688 | 8.43873 | 94° | 86km/h | 12293m | -6.1m/s | -54°C | 8.8% | 190.8hPa | 2.6V | 08:08:09 | 01:56:46 | 00:00:00 | |
| DL1XH-west | 2026-09-01 11:30:50 | 52.81686 | 8.43908 | 94° | 88km/h | 12287m | -6.1m/s | -54°C | 6.6% | 191hPa | 2.6V | 08:08:28 | 01:56:47 | 00:00:00 | |
| DL1XH-15 | 2026-09-01 11:30:50 | 52.81695 | 8.43730 | 95° | 88km/h | 12317m | -5.8m/s | -53.9°C | 8.4% | 190.1hPa | 2.5V | 08:08:13 | 01:56:42 | 00:00:00 | |
| HSKMA3-T | 2026-09-01 11:30:49 | 52.81687 | 8.43873 | 95° | 86km/h | 12293m | -6.1m/s | -54°C | 6.4% | 190.8hPa | 2.6V | 08:08:28 | 01:56:46 | 00:00:00 | |
| DL1XH1-15 | 2026-09-01 11:30:48 | 52.81691 | 8.43801 | 94° | 86km/h | 12305m | -5.9m/s | -54°C | 8.6% | 190.4hPa | 2.6V | 08:08:11 | 01:56:44 | 00:00:00 | |
| AA1-15 | 2026-09-01 11:30:48 | 52.81689 | 8.43837 | 95° | 86km/h | 12299m | -6m/s | -54°C | 6.2% | 190.6hPa | 2.6V | 08:08:28 | 01:56:45 | 00:00:00 | |
| BIOWL1-15 | 2026-09-01 11:30:46 | 52.81693 | 8.43766 | 95° | 86km/h | 12311m | -5.9m/s | -54°C | 5.9% | 190.2hPa | 2.5V | 08:08:28 | 01:56:43 | 00:00:00 | |
| DF8AY | 2026-09-01 11:30:45 | 52.81695 | 8.43730 | 95° | 88km/h | 12317m | -5.8m/s | -53.9°C | 5.7% | 190.1hPa | 2.5V | 08:08:28 | 01:56:42 | 00:00:00 | |
| DF5WG-10 | 2026-09-01 11:30:45 | 52.81695 | 8.43730 | 96° | 82km/h | 12317m | -5.7m/s | -53.9°C | 8.4% | 190.0hPa | 2.5V | 08:08:00 | 01:56:42 | 00:00:00 | |
| DL4XJ-10 | 2026-09-01 11:30:42 | 52.81703 | 8.43621 | 99° | 73km/h | 12335m | -5.9m/s | -52.1°C | 0% | 0hPa | 2.5V | 00:00:00 | 00:00:00 | 00:00:00 | |
| DJ2DS-15 | 2026-09-01 11:30:41 | 52.81706 | 8.43585 | 101° | 73km/h | 12340m | -5.9m/s | -53.2°C | 7.7% | 189.3hPa | 2.5V | 00:00:00 | 01:56:38 | 00:00:00 | |
| DM0DOS-11 | 2026-09-01 11:30:40 | 52.81715 | 8.43515 | 102° | 82km/h | 12353m | -6.6m/s | -52.8°C | 7.5% | 188.9hPa | 2.5V | 08:08:19 | 01:56:36 | 00:00:00 | |
| DL1XH-west | 2026-09-01 11:30:40 | 52.81711 | 8.43550 | 102° | 86km/h | 12346m | -6.3m/s | -53°C | 5% | 189.2hPa | 2.6V | 08:08:28 | 01:56:37 | 00:00:00 | |
| HSKMA3-T | 2026-09-01 11:30:39 | 52.81715 | 8.43515 | 103° | 82km/h | 12353m | -6.6m/s | -52.8°C | 4.9% | 188.9hPa | 2.5V | 08:08:28 | 01:56:36 | 00:00:00 | |
| AA1-15 | 2026-09-01 11:30:38 | 52.81720 | 8.43482 | 103° | 80km/h | 12359m | -6.7m/s | -52.7°C | 4.8% | 188.8hPa | 2.5V | 08:08:28 | 01:56:35 | 00:00:00 | |
| DO2JMG | 2026-09-01 11:30:37 | 52.81724 | 8.43450 | 102° | 77km/h | 12366m | -6.9m/s | -52.6°C | 4.9% | 188.7hPa | 2.5V | 08:08:28 | 01:56:34 | 00:00:00 | |
| DF8AY | 2026-09-01 11:30:36 | 52.81731 | 8.43390 | 99° | 69km/h | 12379m | -6.2m/s | -52.4°C | 4.7% | 188.3hPa | 2.6V | 08:08:28 | 01:56:32 | 00:00:00 | |
| DL1XH-15 | 2026-09-01 11:30:36 | 52.81731 | 8.43390 | 98° | 69km/h | 12379m | -6.2m/s | -52.4°C | 7.1% | 188.3hPa | 2.6V | 08:08:23 | 01:56:32 | 00:00:00 | |
| GOEST3-10 | 2026-09-01 11:30:36 | 52.81728 | 8.43419 | 102° | 68km/h | 12373m | -6.6m/s | -52.4°C | 7.2% | 188.4hPa | 2.6V | 00:00:00 | 00:00:00 | 00:00:00 | |
| DM0DOS-11 | 2026-09-01 11:30:35 | 52.81731 | 8.43226 | 84° | 66km/h | 12416m | -6m/s | -52.1°C | 6.8% | 187.2hPa | 2.6V | 08:08:29 | 01:56:26 | 00:00:00 | |
| SMARD9-15 | 2026-09-01 11:30:35 | 52.81731 | 8.43390 | 98° | 69km/h | 12379m | -6.2m/s | -52.4°C | 4.0% | 188.3hPa | 2.5V | 00:00:00 | 00:00:00 | 00:00:00 | |
| DF5WG-10 | 2026-09-01 11:30:34 | 52.81733 | 8.43362 | 96° | 68km/h | 12385m | -5.6m/s | -52.4°C | 7.0% | 188.1hPa | 2.5V | 00:00:00 | 01:56:31 | 00:00:00 | |
| GOEST3-10 | 2026-09-01 11:30:31 | 52.81733 | 8.43280 | 87° | 66km/h | 12403m | -6.3m/s | -52.2°C | 6.9% | 187.5hPa | 2.5V | 00:00:00 | 01:56:28 | 00:00:00 | |
| DL1XH-15 | 2026-09-01 11:30:30 | 52.81721 | 8.43113 | 80° | 71km/h | 12439m | -6.1m/s | -51.9°C | 6.6% | 186.5hPa | 2.5V | 08:08:33 | 01:56:22 | 00:00:00 | |
| DO9LL-15 | 2026-09-01 11:30:30 | 52.81732 | 8.43253 | 87° | 69km/h | 12410m | -6.2m/s | -52.1°C | 6.8% | 187.4hPa | 2.6V | 00:00:00 | 01:56:27 | 00:00:00 | |
| DL1XH1-15 | 2026-09-01 11:30:29 | 52.81726 | 8.43170 | 82° | 69km/h | 12428m | -6m/s | -52°C | 6.7% | 186.9hPa | 2.5V | 08:08:31 | 01:56:24 | 00:00:00 | |
| HSKMA3-T | 2026-09-01 11:30:28 | 52.81724 | 8.43142 | 82° | 69km/h | 12434m | -5.9m/s | -51.9°C | 4.3% | 186.7hPa | 2.5V | 08:09:19 | 01:56:23 | 00:00:00 | |
| AA1-15 | 2026-09-01 11:30:28 | 52.81727 | 8.43170 | 82° | 69km/h | 12428m | -6.1m/s | -52°C | 4.4% | 186.9hPa | 2.5V | 08:09:19 | 01:56:24 | 00:00:00 | |
| DL8OAI-8 | 2026-09-01 11:30:28 | 52.81729 | 8.43199 | 84° | 68km/h | 12422m | -6.1m/s | -52.0°C | 3.8% | 187.0hPa | 2.5V | 08:09:00 | 00:00:00 | 00:00:00 | |
| DB0DAN | 2026-09-01 11:30:25 | 52.81721 | 8.43113 | 80° | 68km/h | 12440m | -6.1m/s | -51.9°C | 3.7% | 186.47hPa | 2.5V | 00:00:00 | 00:00:00 | 00:00:00 | |
| DF8AY | 2026-09-01 11:30:24 | 52.81718 | 8.43083 | 80° | 73km/h | 12446m | -6.1m/s | -52°C | 4.3% | 186.3hPa | 2.7V | 08:09:19 | 01:56:21 | 00:00:00 | |
| BIOWL1-15 | 2026-09-01 11:30:24 | 52.81708 | 8.42994 | 78° | 71km/h | 12464m | -6m/s | -51.9°C | 4.2% | 185.8hPa | 2.5V | 08:09:19 | 01:56:18 | 00:00:00 | |
| DF5WG-10 | 2026-09-01 11:30:24 | 52.81718 | 8.43083 | 80° | 69km/h | 12446m | -6.0m/s | -51.9°C | 6.6% | 186.3hPa | 2.6V | 00:00:00 | 01:56:21 | 00:00:00 | |
| HTAHTA | 2026-09-01 11:30:23 | 52.81711 | 8.43024 | 78° | 71km/h | 12458m | -6.1m/s | -51.9°C | 3.6% | 186.0hPa | 2.6V | 00:00:00 | 00:00:00 | 00:00:00 | |
| DL4XJ-10 | 2026-09-01 11:30:22 | 52.81711 | 8.43023 | 79° | 68km/h | 12458m | -6.1m/s | -50.6°C | 0% | 0hPa | 2.6V | 00:00:00 | 00:00:00 | 00:00:00 | |
| DJ2DS-15 | 2026-09-01 11:30:21 | 52.81708 | 8.42994 | 78° | 69km/h | 12464m | -6.0m/s | -51.8°C | 6.5% | 185.7hPa | 2.6V | 00:00:00 | 01:56:18 | 00:00:00 | |
| DL1XH1-15 | 2026-09-01 11:30:20 | 52.81692 | 8.42882 | 75° | 69km/h | 12487m | -6m/s | -52°C | 6.3% | 185.2hPa | 2.6V | 08:08:41 | 01:56:14 | 00:00:00 | |
| DL1XH-west | 2026-09-01 11:30:18 | 52.81696 | 8.42910 | 76° | 69km/h | 12482m | -5.9m/s | -52°C | 4.1% | 185.3hPa | 2.6V | 08:09:19 | 01:56:15 | 00:00:00 | |
| AA1-15 | 2026-09-01 11:30:17 | 52.81692 | 8.42882 | 76° | 69km/h | 12487m | -6.1m/s | -52°C | 4% | 185.2hPa | 2.6V | 08:09:19 | 01:56:14 | 00:00:00 | |
| DO2JMG | 2026-09-01 11:30:17 | 52.81687 | 8.42854 | 75° | 69km/h | 12494m | -6.3m/s | -52.1°C | 4% | 185hPa | 2.5V | 08:09:19 | 01:56:13 | 00:00:00 | |
| DL1XH-15 | 2026-09-01 11:30:17 | 52.81683 | 8.42827 | 76° | 66km/h | 12500m | -6.3m/s | -52.1°C | 6.3% | 184.7hPa | 2.6V | 08:08:43 | 01:56:12 | 00:00:00 | |
| DF8AY | 2026-09-01 11:30:14 | 52.81680 | 8.42800 | 79° | 64km/h | 12506m | -5.8m/s | -52.1°C | 3.9% | 184.6hPa | 2.6V | 08:09:19 | 01:56:11 | 00:00:00 | |
| BIOWL1-15 | 2026-09-01 11:30:12 | 52.81675 | 8.42750 | 84° | 60km/h | 12518m | -6.2m/s | -52.2°C | 3.9% | 184.3hPa | 2.6V | 08:09:19 | 01:56:09 | 00:00:00 | |
| DB0DAN | 2026-09-01 11:30:10 | 52.81673 | 8.42699 | 90° | 58km/h | 12530m | -5.9m/s | -52.1°C | 3.5% | 183.9hPa | 2.5V | 00:00:00 | 00:00:00 | 00:00:00 | |
| DL1XH-15 | 2026-09-01 11:30:10 | 52.81680 | 8.42559 | 95° | 75km/h | 12561m | -6.3m/s | -51.9°C | 6.2% | 183hPa | 2.6V | 08:08:53 | 01:56:02 | 00:00:00 | |
| DL4BBY-15 | 2026-09-01 11:30:10 | 52.81673 | 8.42699 | 91° | 73km/h | 12530m | -5.9m/s | -50.7°C | 0% | 0hPa | 2.6V | 00:00:00 | 00:00:00 | 00:00:00 | |
| DL1XH1-15 | 2026-09-01 11:30:09 | 52.81676 | 8.42618 | 95° | 68km/h | 12549m | -6.3m/s | -52°C | 6.4% | 183.4hPa | 2.6V | 08:08:51 | 01:56:04 | 00:00:00 | |
| DL1XH-west | 2026-09-01 11:30:08 | 52.81675 | 8.42646 | 95° | 66km/h | 12543m | -6.3m/s | -52°C | 3.8% | 183.6hPa | 2.6V | 08:09:19 | 01:56:05 | 00:00:00 | |
| AA1-15 | 2026-09-01 11:30:07 | 52.81677 | 8.42618 | 96° | 68km/h | 12549m | -6.3m/s | -52°C | 3.7% | 183.4hPa | 2.6V | 08:09:19 | 01:56:04 | 00:00:00 | |
| DO2JMG | 2026-09-01 11:30:06 | 52.81678 | 8.42589 | 96° | 73km/h | 12555m | -6.1m/s | -51.9°C | 3.7% | 183.2hPa | 2.7V | 08:09:19 | 01:56:03 | 00:00:00 | |
| DF8AY | 2026-09-01 11:30:03 | 52.81683 | 8.42493 | 92° | 82km/h | 12573m | -5.7m/s | -51.8°C | 3.4% | 182.7hPa | 2.5V | 08:09:19 | 01:56:00 | 00:00:00 | |
| BIOWL1-15 | 2026-09-01 11:30:02 | 52.81683 | 8.42133 | 99° | 84km/h | 12635m | -6.3m/s | -51.3°C | 3.1% | 180.9hPa | 2.6V | 08:09:19 | 01:55:50 | 00:00:00 | |
| GOEST3-10 | 2026-09-01 11:30:01 | 52.81683 | 8.42423 | 90° | 88km/h | 12585m | -5.9m/s | -51.7°C | 5.8% | 182.4hPa | 2.6V | 00:00:00 | 01:55:58 | 00:00:00 | |
| DM0DOS-11 | 2026-09-01 11:30:00 | 52.81682 | 8.42352 | 87° | 88km/h | 12597m | -5.8m/s | -51.6°C | 5.7% | 182.1hPa | 2.6V | 08:08:59 | 01:55:56 | 00:00:00 | |
| DL1XH-west | 2026-09-01 11:29:57 | 52.81680 | 8.42279 | 87° | 89km/h | 12609m | -6.4m/s | -51.5°C | 3.1% | 181.7hPa | 2.6V | 08:09:19 | 01:55:54 | 00:00:00 | |
| DL1XH-15 | 2026-09-01 11:29:56 | 52.81679 | 8.42204 | 91° | 89km/h | 12622m | -6.8m/s | -51.3°C | 5.6% | 181.3hPa | 2.7V | 08:09:03 | 01:55:52 | 00:00:00 | |
| HSKMA3-T | 2026-09-01 11:29:56 | 52.81679 | 8.42242 | 89° | 89km/h | 12615m | -6.6m/s | -51.4°C | 3% | 181.5hPa | 2.6V | 08:09:19 | 01:55:53 | 00:00:00 | |
| DO2JMG | 2026-09-01 11:29:55 | 52.81679 | 8.42204 | 92° | 89km/h | 12622m | -6.8m/s | -51.3°C | 3.1% | 181.3hPa | 2.7V | 08:09:19 | 01:55:52 | 00:00:00 | |
| DM0DOS-11 | 2026-09-01 11:29:55 | 52.81699 | 8.42015 | 104° | 62km/h | 12661m | -6.7m/s | -51.2°C | 5.6% | 180.3hPa | 2.6V | 08:09:09 | 01:55:46 | 00:00:00 | |
| DF8AY | 2026-09-01 11:29:53 | 52.81686 | 8.42100 | 102° | 78km/h | 12642m | -6.2m/s | -51.3°C | 3% | 180.8hPa | 2.5V | 08:09:19 | 01:55:49 | 00:00:00 | |
| BIOWL1-15 | 2026-09-01 11:29:50 | 52.81695 | 8.42041 | 105° | 68km/h | 12654m | -6.5m/s | -51.3°C | 3% | 180.4hPa | 2.5V | 08:09:19 | 01:55:47 | 00:00:00 | |
| DL1XH1-15 | 2026-09-01 11:29:48 | 52.81705 | 8.41968 | 98° | 55km/h | 12674m | -6.4m/s | -51.2°C | 5.5% | 179.8hPa | 2.6V | 08:09:11 | 01:55:44 | 00:00:00 | |
| DL1XH-west | 2026-09-01 11:29:47 | 52.81705 | 8.41968 | 98° | 55km/h | 12674m | -6.4m/s | -51.3°C | 2.8% | 179.8hPa | 2.6V | 08:09:19 | 01:55:44 | 00:00:00 | |
| HSKMA3-T | 2026-09-01 11:29:46 | 52.81707 | 8.41946 | 91° | 53km/h | 12681m | -6m/s | -51.3°C | 2.8% | 179.7hPa | 2.6V | 08:09:19 | 01:55:43 | 00:00:00 | |
| AA1-15 | 2026-09-01 11:29:46 | 52.81706 | 8.41923 | 84° | 57km/h | 12687m | -6.2m/s | -51.4°C | 2.7% | 179.5hPa | 2.5V | 08:09:19 | 01:55:42 | 00:00:00 | |
| DO2JMG | 2026-09-01 11:29:44 | 52.81704 | 8.41898 | 81° | 62km/h | 12693m | -6.3m/s | -51.5°C | 2.7% | 179.3hPa | 2.5V | 08:09:19 | 01:55:41 | 00:00:00 | |
| DF8AY | 2026-09-01 11:29:41 | 52.81698 | 8.41812 | 89° | 75km/h | 12712m | -6.2m/s | 0°C | 0% | 178.9hPa | 2.6V | 08:09:19 | 01:55:38 | 00:00:00 | |
| GOEST3-10 | 2026-09-01 11:29:41 | 52.81698 | 8.41812 | 89° | 77km/h | 12712m | -6.1m/s | -51.6°C | 5.2% | 178.8hPa | 2.6V | 00:00:00 | 01:55:38 | 00:00:00 | |
| DL1XH1-15 | 2026-09-01 11:29:40 | 52.81711 | 8.41685 | 106° | 77km/h | 12736m | -6.5m/s | -51.5°C | 5.3% | 178.3hPa | 2.7V | 08:09:21 | 01:55:34 | 00:00:00 | |
| BIOWL1-15 | 2026-09-01 11:29:40 | 52.81699 | 8.41780 | 94° | 77km/h | 12718m | -5.5m/s | -51.7°C | 2.6% | 178.7hPa | 2.5V | 08:09:19 | 01:55:37 | 00:00:00 | |
| DK9SH | 2026-09-01 11:29:38 | 52.81705 | 8.41716 | 105° | 78km/h | 12730m | -6.0m/s | -51.6°C | 2.6% | 178.4hPa | 2.6V | 08:10:00 | 00:00:00 | 00:00:00 | |
| D01LWL | 2026-09-01 11:29:37 | 52.81711 | 8.41685 | 106° | 77km/h | 12736m | -6.5m/s | -51.5°C | 2.6% | 178.3hPa | 2.6V | 00:00:00 | 00:00:00 | 00:00:00 | |
| DL1XH-15 | 2026-09-01 11:29:36 | 52.81722 | 8.41626 | 109° | 71km/h | 12749m | -6.5m/s | -51.2°C | 5.3% | 177.8hPa | 2.6V | 08:09:23 | 01:55:32 | 00:00:00 | |
| DL1XH-west | 2026-09-01 11:29:36 | 52.81716 | 8.41655 | 108° | 75km/h | 12742m | -6.7m/s | -51.4°C | 2.5% | 178.1hPa | 2.6V | 08:10:10 | 01:55:33 | 00:00:00 | |
| HSKMA3-T | 2026-09-01 11:29:35 | 52.81722 | 8.41626 | 109° | 71km/h | 12749m | -6.5m/s | -51.3°C | 2.5% | 177.8hPa | 2.6V | 08:10:10 | 01:55:32 | 00:00:00 | |
| DO2JMG | 2026-09-01 11:29:35 | 52.81728 | 8.41599 | 110° | 66km/h | 12755m | -6.4m/s | -51.3°C | 2.5% | 177.7hPa | 2.5V | 08:10:10 | 01:55:31 | 00:00:00 | |
| DF8AY | 2026-09-01 11:29:30 | 52.81744 | 8.41516 | 97° | 44km/h | 12780m | -6.5m/s | 0°C | 0% | 0hPa | 2.7V | 18:12:15 | 01:55:27 | 00:00:00 | |
| BIOWL1-15 | 2026-09-01 11:29:29 | 52.81745 | 8.41498 | 90° | 44km/h | 12786m | -6.7m/s | -51.2°C | 2.4% | 176.8hPa | 2.6V | 08:10:10 | 01:55:26 | 00:00:00 | |
| DL1XH1-15 | 2026-09-01 11:29:28 | 52.81743 | 8.41459 | 81° | 51km/h | 12799m | -6.2m/s | -51.3°C | 5% | 176.4hPa | 2.5V | 08:09:31 | 01:55:24 | 00:00:00 | |
| DL1XH-west | 2026-09-01 11:29:26 | 52.81741 | 8.41437 | 80° | 57km/h | 12805m | -5.8m/s | -51.4°C | 2.4% | 176.3hPa | 2.6V | 08:10:10 | 01:55:23 | 00:00:00 | |
| DB0DAN | 2026-09-01 11:29:25 | 52.81738 | 8.41413 | 79° | 60km/h | 12811m | -6m/s | -51.4°C | 2.4% | 176.12hPa | 2.6V | 00:00:00 | 00:00:00 | 00:00:00 | |
| HSKMA3-T | 2026-09-01 11:29:25 | 52.81738 | 8.41413 | 79° | 62km/h | 12811m | -6m/s | -51.4°C | 2.3% | 176.1hPa | 2.6V | 08:10:10 | 01:55:22 | 00:00:00 | |
| AA1-15 | 2026-09-01 11:29:25 | 52.81735 | 8.41386 | 80° | 68km/h | 12817m | -6.1m/s | -51.4°C | 2.3% | 175.9hPa | 2.7V | 08:10:10 | 01:55:21 | 00:00:00 | |
| DM0DOS-11 | 2026-09-01 11:29:24 | 52.81723 | 8.41241 | 87° | 69km/h | 12849m | -6.2m/s | -51.7°C | 5% | 175hPa | 2.7V | 08:09:39 | 01:55:16 | 00:00:00 | |
| DO2JMG | 2026-09-01 11:29:24 | 52.81732 | 8.41358 | 81° | 69km/h | 12824m | -6.6m/s | -51.4°C | 2.3% | 175.8hPa | 2.7V | 08:10:10 | 01:55:20 | 00:00:00 | |
| DF8AY | 2026-09-01 11:29:20 | 52.81725 | 8.41270 | 85° | 71km/h | 12843m | -6.6m/s | 0°C | 0% | 0hPa | 2.6V | 18:12:15 | 01:55:17 | 00:00:00 | |
| DL1XH1-15 | 2026-09-01 11:29:20 | 52.81725 | 8.41186 | 96° | 64km/h | 12861m | -5.8m/s | -51.7°C | 5.1% | 174.7hPa | 2.6V | 08:09:41 | 01:55:14 | 00:00:00 | |
| BIOWL1-15 | 2026-09-01 11:29:18 | 52.81725 | 8.41186 | 97° | 64km/h | 12861m | -5.8m/s | -51.7°C | 2.3% | 174.8hPa | 2.6V | 08:10:10 | 01:55:14 | 00:00:00 | |
| DD8BA-10 | 2026-09-01 11:29:18 | 52.81723 | 8.41213 | 92° | 57km/h | 12855m | -5.7m/s | -51.7°C | 5.1% | 174.9hPa | 2.6V | 00:00:00 | 00:00:00 | 00:00:00 | |
| DL1XH-15 | 2026-09-01 11:29:16 | 52.81729 | 8.41135 | 98° | 60km/h | 12873m | -6.3m/s | -51.8°C | 5.1% | 174.4hPa | 2.6V | 08:09:43 | 01:55:12 | 00:00:00 | |
| DL1XH-west | 2026-09-01 11:29:15 | 52.81729 | 8.41135 | 99° | 60km/h | 12873m | -6.3m/s | -51.8°C | 2.3% | 174.4hPa | 2.6V | 08:10:10 | 01:55:12 | 00:00:00 | |
| HSKMA3-T | 2026-09-01 11:29:14 | 52.81731 | 8.41111 | 98° | 58km/h | 12879m | -6m/s | -51.8°C | 2.3% | 174.3hPa | 2.6V | 08:10:10 | 01:55:11 | 00:00:00 | |
| DO2JMG | 2026-09-01 11:29:13 | 52.81733 | 8.41087 | 97° | 57km/h | 12885m | -6m/s | -51.9°C | 2.3% | 174.2hPa | 2.6V | 08:10:10 | 01:55:10 | 00:00:00 | |
| DO2SHX-10 | 2026-09-01 11:29:13 | 52.81733 | 8.41087 | 98° | 55km/h | 12885m | -6.0m/s | -51.8°C | 5.1% | 174.1hPa | 2.6V | 00:00:00 | 01:55:10 | 00:00:00 | |
| DD1CC3-15 | 2026-09-01 11:29:12 | 52.81733 | 8.41087 | 98° | 57km/h | 12885m | -6.0m/s | -51.9°C | 2.5% | 174.2hPa | 2.6V | 08:10:00 | 00:00:00 | 00:00:00 | |
| DB0DAN | 2026-09-01 11:29:10 | 52.81737 | 8.41020 | 93° | 47km/h | 12903m | -6.1m/s | -52°C | 2.5% | 173.57hPa | 2.6V | 00:00:00 | 00:00:00 | 00:00:00 | |
| DL1XH-15 | 2026-09-01 11:29:10 | 52.81735 | 8.40902 | 86° | 44km/h | 12939m | -6.3m/s | -52.2°C | 5.4% | 172.7hPa | 2.5V | 08:09:54 | 01:55:01 | 00:00:00 | |
| DF8AY | 2026-09-01 11:29:09 | 52.81737 | 8.41000 | 91° | 49km/h | 12909m | -5.9m/s | 0°C | 0% | 0hPa | 2.5V | 18:12:15 | 01:55:06 | 00:00:00 | |
| BIOWL1-15 | 2026-09-01 11:29:07 | 52.81737 | 8.40959 | 89° | 47km/h | 12921m | -5.9m/s | -52.1°C | 2.4% | 173.1hPa | 2.6V | 08:10:10 | 01:55:04 | 00:00:00 | |
| DL1XH-west | 2026-09-01 11:29:04 | 52.81735 | 8.40902 | 86° | 44km/h | 12939m | -6.3m/s | -52.2°C | 2.5% | 172.7hPa | 2.5V | 08:10:10 | 01:55:01 | 00:00:00 | |
| DO2JMG | 2026-09-01 11:29:02 | 52.81733 | 8.40868 | 79° | 40km/h | 12952m | -6.7m/s | -52.1°C | 2.5% | 172.3hPa | 2.6V | 08:10:10 | 01:54:59 | 00:00:00 | |
| DO3DL | 2026-09-01 11:29:02 | 52.81732 | 8.40868 | 80° | 40km/h | 12952m | -6.7m/s | -52.1°C | 2.6% | 172.3hPa | 2.6V | 08:10:00 | 00:00:00 | 00:00:00 | |
| DM0DOS-11 | 2026-09-01 11:29:01 | 52.81723 | 8.40818 | 66° | 46km/h | 12973m | -6.7m/s | -52.2°C | 5.3% | 171.7hPa | 2.6V | 08:09:59 | 01:54:56 | 00:00:00 | |
| DF8AY | 2026-09-01 11:28:58 | 52.81718 | 8.40799 | 64° | 51km/h | 12979m | -6.3m/s | 0°C | 0% | 0hPa | 2.5V | 18:12:15 | 01:54:55 | 00:00:00 | |
| BIOWL1-15 | 2026-09-01 11:28:56 | 52.81663 | 8.40519 | 89° | 68km/h | 13043m | -5.7m/s | -52.2°C | 2.2% | 169.8hPa | 2.7V | 08:10:10 | 01:54:45 | 00:00:00 | |
| DL1XH-15 | 2026-09-01 11:28:56 | 52.81697 | 8.40730 | 65° | 71km/h | 12997m | -6.4m/s | -52.4°C | 5% | 171.1hPa | 2.6V | 08:10:03 | 01:54:52 | 00:00:00 | |
| DD1CC2-15 | 2026-09-01 11:28:56 | 52.81705 | 8.40756 | 65° | 66km/h | 12991m | -5.9m/s | -52.4°C | 2.4% | 171.3hPa | 2.6V | 08:10:00 | 00:00:00 | 00:00:00 | |
| DL3OBA | 2026-09-01 11:28:55 | 52.81705 | 8.40756 | 65° | 66km/h | 12991m | -5.9m/s | -52.4°C | 2.4% | 171.3hPa | 2.6V | 08:10:00 | 00:00:00 | 00:00:00 | |
| DB0DAN | 2026-09-01 11:28:55 | 52.81697 | 8.40730 | 66° | 68km/h | 12997m | -6.4m/s | -52.4°C | 2.4% | 171.09hPa | 2.6V | 00:00:00 | 00:00:00 | 00:00:00 | |
| DM0DOS-11 | 2026-09-01 11:28:54 | 52.81664 | 8.40549 | 84° | 73km/h | 13038m | -6.1m/s | -52.2°C | 5.2% | 170hPa | 2.6V | 08:10:09 | 01:54:46 | 00:00:00 | |
| AA1-15 | 2026-09-01 11:28:54 | 52.81676 | 8.40643 | 72° | 78km/h | 13017m | -7.2m/s | -52.5°C | 2.2% | 170.6hPa | 2.6V | 08:10:10 | 01:54:49 | 00:00:00 | |
| DL1XH-west | 2026-09-01 11:28:53 | 52.81683 | 8.40673 | 69° | 77km/h | 13010m | -6.9m/s | -52.4°C | 2.1% | 170.7hPa | 2.7V | 08:10:10 | 01:54:50 | 00:00:00 | |
| DO2JMG | 2026-09-01 11:28:52 | 52.81671 | 8.40611 | 76° | 78km/h | 13024m | -7.1m/s | -52.4°C | 2.1% | 170.3hPa | 2.5V | 08:10:10 | 01:54:48 | 00:00:00 | |
| DL3AQ-11 | 2026-09-01 11:28:52 | 52.81671 | 8.40611 | 75° | 77km/h | 13024m | -7.1m/s | -52.4°C | 2.4% | 170.3hPa | 2.6V | 00:00:00 | 00:00:00 | 00:00:00 | |
| SONDE2-11 | 2026-09-01 11:28:50 | 52.81667 | 8.40580 | 79° | 77km/h | 13031m | -6.5m/s | -52.4°C | 2.4% | 170.2hPa | 2.6V | 00:00:00 | 00:00:00 | 00:00:00 | |
| DF5WG-10 | 2026-09-01 11:28:49 | 52.81664 | 8.40549 | 85° | 55km/h | 13038m | -6.0m/s | -52.2°C | 5.2% | 169.9hPa | 2.6V | 00:00:00 | 01:54:46 | 00:00:00 | |
| DL1XH1-15 | 2026-09-01 11:28:48 | 52.81663 | 8.40493 | 91° | 60km/h | 13049m | -5.8m/s | -52.3°C | 5.4% | 169.7hPa | 2.6V | 08:10:11 | 01:54:44 | 00:00:00 | |
| BIOWL1-15 | 2026-09-01 11:28:48 | 52.81663 | 8.40469 | 91° | 53km/h | 13055m | -6.4m/s | -52.3°C | 2.1% | 169.6hPa | 2.5V | 08:11:01 | 01:54:43 | 00:00:00 | |
| SONCRA | 2026-09-01 11:28:45 | 52.81663 | 8.40448 | 89° | 49km/h | 13062m | -6.8m/s | -52.2°C | 2.4% | 169.4hPa | 2.6V | 00:00:00 | 00:00:00 | 00:00:00 | |
| DL1XH-west | 2026-09-01 11:28:42 | 52.81661 | 8.40388 | 81° | 47km/h | 13083m | -7.3m/s | -52.1°C | 2% | 168.8hPa | 2.6V | 08:11:01 | 01:54:39 | 00:00:00 | |
| AA1-15 | 2026-09-01 11:28:41 | 52.81658 | 8.40368 | 75° | 51km/h | 13090m | -7m/s | -52.2°C | 1.9% | 168.7hPa | 2.6V | 08:11:01 | 01:54:38 | 00:00:00 | |
| DJ2DS-15 | 2026-09-01 11:28:41 | 52.81658 | 8.40368 | 76° | 69km/h | 13090m | -7.0m/s | -52.2°C | 5.0% | 168.7hPa | 2.6V | 00:00:00 | 01:54:38 | 00:00:00 | |
| DO2JMG | 2026-09-01 11:28:40 | 52.81654 | 8.40347 | 72° | 57km/h | 13096m | -5.7m/s | -52.3°C | 1.9% | 168.5hPa | 2.5V | 08:11:01 | 01:54:37 | 00:00:00 | |
| DM0DOS-11 | 2026-09-01 11:28:40 | 52.81649 | 8.40323 | 69° | 64km/h | 13102m | -6m/s | -52.2°C | 4.9% | 168.4hPa | 2.6V | 08:10:19 | 01:54:36 | 00:00:00 | |
| BIOWL1-15 | 2026-09-01 11:28:35 | 52.81620 | 8.40174 | 75° | 82km/h | 13134m | -6.9m/s | -51.8°C | 1.7% | 167.5hPa | 2.6V | 08:11:01 | 01:54:31 | 00:00:00 | |
| HSKMA3-T | 2026-09-01 11:28:32 | 52.81610 | 8.40106 | 79° | 84km/h | 13149m | -7.2m/s | -51.6°C | 1.6% | 167.1hPa | 2.7V | 08:11:01 | 01:54:29 | 00:00:00 | |
| AA1-15 | 2026-09-01 11:28:31 | 52.81605 | 8.40037 | 86° | 82km/h | 13162m | -7m/s | -51.5°C | 1.6% | 166.8hPa | 2.6V | 08:11:01 | 01:54:27 | 00:00:00 | |
| DO2JMG | 2026-09-01 11:28:29 | 52.81604 | 8.40004 | 89° | 77km/h | 13169m | -6.8m/s | -51.5°C | 1.6% | 166.6hPa | 2.6V | 08:11:01 | 01:54:26 | 00:00:00 | |
| BIOWL1-15 | 2026-09-01 11:28:24 | 52.81603 | 8.39878 | 81° | 53km/h | 13201m | -7.3m/s | -51.7°C | 1.7% | 165.8hPa | 2.7V | 08:11:01 | 01:54:21 | 00:00:00 | |
| HSKMA3-T | 2026-09-01 11:28:22 | 52.81593 | 8.39804 | 75° | 71km/h | 13221m | -6m/s | -51.8°C | 1.7% | 165.3hPa | 2.6V | 08:11:01 | 01:54:18 | 00:00:00 | |
| DL1XH-15 | 2026-09-01 11:28:21 | 52.81562 | 8.39598 | 72° | 88km/h | 13260m | -7m/s | -51.8°C | 4.7% | 164.4hPa | 2.6V | 08:10:43 | 01:54:12 | 00:00:00 | |
| DO2JMG | 2026-09-01 11:28:19 | 52.81583 | 8.39740 | 77° | 86km/h | 13233m | -6.1m/s | -51.8°C | 1.7% | 165hPa | 2.7V | 08:11:01 | 01:54:16 | 00:00:00 | |
| BIOWL1-15 | 2026-09-01 11:28:15 | 52.81548 | 8.39533 | 68° | 78km/h | 13273m | -6.9m/s | -51.4°C | 1.4% | 164hPa | 2.7V | 08:11:01 | 01:54:10 | 00:00:00 | |
| DM0DOS-11 | 2026-09-01 11:28:14 | 52.81524 | 8.39428 | 74° | 57km/h | 13301m | -6.5m/s | -51.1°C | 4.4% | 163.3hPa | 2.6V | 08:10:49 | 01:54:06 | 00:00:00 | |
| DL1XH-west | 2026-09-01 11:28:11 | 52.81534 | 8.39476 | 68° | 68km/h | 13287m | -6.7m/s | -51.3°C | 1.4% | 163.6hPa | 2.6V | 08:11:01 | 01:54:08 | 00:00:00 | |
| DO2JMG | 2026-09-01 11:28:09 | 52.81523 | 8.39428 | 75° | 57km/h | 13301m | -6.5m/s | -51.2°C | 1.4% | 163.3hPa | 2.6V | 08:11:01 | 01:54:06 | 00:00:00 | |
| DL1XH-15 | 2026-09-01 11:28:09 | 52.81519 | 8.39340 | 95° | 55km/h | 13327m | -7.2m/s | -51.1°C | 4.4% | 162.6hPa | 2.7V | 08:10:53 | 01:54:02 | 00:00:00 | |
| BIOWL1-15 | 2026-09-01 11:28:03 | 52.81523 | 8.39293 | 100° | 60km/h | 13341m | -7.1m/s | -51.1°C | 1.4% | 162.3hPa | 2.6V | 08:11:01 | 01:54:00 | 00:00:00 | |
| DM0DOS-11 | 2026-09-01 11:28:02 | 52.81531 | 8.39180 | 89° | 77km/h | 13368m | -6.2m/s | -51.3°C | 4.5% | 161.6hPa | 2.5V | 08:10:59 | 01:53:56 | 00:00:00 | |
| DL1XH-west | 2026-09-01 11:28:01 | 52.81528 | 8.39240 | 98° | 68km/h | 13355m | -6.8m/s | -51.2°C | 1.4% | 161.9hPa | 2.7V | 08:11:01 | 01:53:58 | 00:00:00 | |
| DO2JMG | 2026-09-01 11:27:58 | 52.81530 | 8.39148 | 86° | 80km/h | 13374m | -5.9m/s | -51.4°C | 1.4% | 161.5hPa | 2.6V | 08:11:01 | 01:53:55 | 00:00:00 | |
| DD8BA-10 | 2026-09-01 11:27:58 | 52.81530 | 8.39148 | 86° | 73km/h | 13374m | -5.9m/s | -51.4°C | 4.5% | 161.4hPa | 2.6V | 08:11:00 | 00:00:00 | 00:00:00 | |
| DL1XH-15 | 2026-09-01 11:27:56 | 52.81522 | 8.39046 | 83° | 82km/h | 13394m | -7.7m/s | -51.4°C | 4.5% | 160.9hPa | 2.7V | 08:11:03 | 01:53:52 | 00:00:00 | |
| DB0DAN | 2026-09-01 11:27:55 | 52.81522 | 8.39046 | 83° | 78km/h | 13394m | -7.7m/s | -51.4°C | 1.9% | 160.91hPa | 2.7V | 00:00:00 | 00:00:00 | 00:00:00 | |
| DO2SHX-10 | 2026-09-01 11:27:55 | 52.81522 | 8.39046 | 84° | 78km/h | 13394m | -7.6m/s | -51.4°C | 4.5% | 160.9hPa | 2.7V | 00:00:00 | 01:53:52 | 00:00:00 | |
| DM0DOS-11 | 2026-09-01 11:27:54 | 52.81519 | 8.38870 | 92° | 53km/h | 13434m | -6.5m/s | -51.2°C | 4.2% | 160hPa | 2.7V | 08:11:09 | 01:53:46 | 00:00:00 | |
| DL1XH-west | 2026-09-01 11:27:51 | 52.81518 | 8.38918 | 91° | 66km/h | 13422m | -6.1m/s | -51.4°C | 1.2% | 160.3hPa | 2.6V | 08:11:52 | 01:53:48 | 00:00:00 | |
| DO2JMG | 2026-09-01 11:27:49 | 52.81519 | 8.38848 | 93° | 53km/h | 13441m | -6.9m/s | -51.2°C | 1.1% | 159.8hPa | 2.6V | 08:11:52 | 01:53:45 | 00:00:00 | |
| AA1-15 | 2026-09-01 11:27:47 | 52.81520 | 8.38825 | 95° | 55km/h | 13448m | -7.1m/s | -51.1°C | 1.1% | 159.6hPa | 2.6V | 08:11:52 | 01:53:44 | 00:00:00 | |
| HTAHTA | 2026-09-01 11:27:47 | 52.81520 | 8.38825 | 94° | 55km/h | 13448m | -7.1m/s | -51.1°C | 1.8% | 159.6hPa | 2.5V | 00:00:00 | 00:00:00 | 00:00:00 | |
| BIOWL1-15 | 2026-09-01 11:27:42 | 52.81531 | 8.38658 | 93° | 78km/h | 13490m | -6.9m/s | -50.9°C | 1.3% | 158.6hPa | 2.5V | 08:11:52 | 01:53:38 | 00:00:00 | |
| DL4XJ-10 | 2026-09-01 11:27:42 | 52.81529 | 8.38690 | 95° | 68km/h | 13483m | -7.0m/s | -49.6°C | 0% | 0hPa | 2.6V | 00:00:00 | 00:00:00 | 00:00:00 | |
| DM0DOS-11 | 2026-09-01 11:27:41 | 52.81532 | 8.38590 | 88° | 82km/h | 13504m | -7.2m/s | -50.9°C | 4.4% | 158.2hPa | 2.6V | 08:11:19 | 01:53:36 | 00:00:00 | |
| DB0DAN | 2026-09-01 11:27:40 | 52.81532 | 8.38624 | 91° | 77km/h | 13497m | -7.1m/s | -50.9°C | 1.8% | 158.45hPa | 2.6V | 00:00:00 | 00:00:00 | 00:00:00 | |
| DL1XH1-15 | 2026-09-01 11:27:40 | 52.81528 | 8.38522 | 81° | 82km/h | 13518m | -7m/s | -51°C | 4.4% | 157.9hPa | 2.7V | 08:11:21 | 01:53:34 | 00:00:00 | |
| DL1XH-west | 2026-09-01 11:27:40 | 52.81532 | 8.38624 | 91° | 80km/h | 13497m | -7.1m/s | -50.9°C | 1.3% | 158.4hPa | 2.6V | 08:11:52 | 01:53:37 | 00:00:00 | |
| AA1-15 | 2026-09-01 11:27:37 | 52.81528 | 8.38522 | 81° | 82km/h | 13518m | -7m/s | -51.1°C | 1.2% | 157.9hPa | 2.7V | 08:11:52 | 01:53:34 | 00:00:00 | |
| DO2SHX-10 | 2026-09-01 11:27:37 | 52.81527 | 8.38522 | 82° | 80km/h | 13518m | -6.9m/s | -51.0°C | 4.4% | 157.8hPa | 2.6V | 00:00:00 | 01:53:34 | 00:00:00 | |
| DK9SH | 2026-09-01 11:27:36 | 52.81524 | 8.38489 | 78° | 80km/h | 13525m | -6.4m/s | -51.1°C | 1.8% | 157.8hPa | 2.6V | 08:11:00 | 00:00:00 | 00:00:00 | |
| DM0DOS-11 | 2026-09-01 11:27:34 | 52.81484 | 8.38292 | 73° | 57km/h | 13574m | -7m/s | -50.9°C | 4.4% | 156.4hPa | 2.6V | 08:11:29 | 01:53:26 | 00:00:00 | |
| DF8AY | 2026-09-01 11:27:31 | 52.81494 | 8.38340 | 70° | 68km/h | 13560m | -7.1m/s | 0°C | 0% | 0hPa | 2.7V | 18:12:15 | 01:53:28 | 00:00:00 | |
| DL1XH-west | 2026-09-01 11:27:30 | 52.81489 | 8.38315 | 71° | 62km/h | 13567m | -7.1m/s | -51°C | 1.2% | 156.7hPa | 2.6V | 08:11:52 | 01:53:27 | 00:00:00 | |
| HSKMA3-T | 2026-09-01 11:27:29 | 52.81484 | 8.38292 | 73° | 57km/h | 13574m | -7m/s | -50.9°C | 1.2% | 156.4hPa | 2.6V | 08:11:52 | 01:53:26 | 00:00:00 | |
| DL1XH1-15 | 2026-09-01 11:27:28 | 52.81479 | 8.38249 | 82° | 49km/h | 13588m | -7m/s | -50.8°C | 4.3% | 156.2hPa | 2.7V | 08:11:31 | 01:53:24 | 00:00:00 | |
| AA1-15 | 2026-09-01 11:27:27 | 52.81479 | 8.38249 | 83° | 49km/h | 13588m | -7m/s | -50.8°C | 1.2% | 156.2hPa | 2.7V | 08:15:16 | 01:53:24 | 00:00:00 | |
| GOEST3-10 | 2026-09-01 11:27:26 | 52.81477 | 8.38229 | 89° | 51km/h | 13595m | -6.9m/s | -50.7°C | 4.4% | 156.0hPa | 2.7V | 00:00:00 | 00:00:00 | 00:00:00 | |
| DO2SHX-10 | 2026-09-01 11:27:25 | 52.81478 | 8.38209 | 93° | 49km/h | 13602m | -7.4m/s | -50.6°C | 4.3% | 155.8hPa | 2.6V | 00:00:00 | 01:53:22 | 00:00:00 | |
| DF5WG-10 | 2026-09-01 11:27:24 | 52.81479 | 8.38188 | 96° | 62km/h | 13610m | -7.0m/s | -50.5°C | 4.4% | 155.6hPa | 2.6V | 00:00:00 | 01:53:21 | 00:00:00 | |
| DJ2DS-15 | 2026-09-01 11:27:23 | 52.81482 | 8.38146 | 101° | 53km/h | 13624m | -7.1m/s | -50.4°C | 1.8% | 155.3hPa | 2.6V | 00:00:00 | 00:00:00 | 00:00:00 | |
| DL4XJ-10 | 2026-09-01 11:27:22 | 52.81483 | 8.38145 | 102° | 60km/h | 13625m | -7.1m/s | -49.0°C | 0% | 0hPa | 2.6V | 00:00:00 | 00:00:00 | 00:00:00 | |
| DM0DOS-11 | 2026-09-01 11:27:21 | 52.81491 | 8.38073 | 98° | 64km/h | 13645m | -7.2m/s | -50.4°C | 4.1% | 154.9hPa | 2.6V | 08:11:39 | 01:53:16 | 00:00:00 | |
| BIOWL1-15 | 2026-09-01 11:27:20 | 52.81494 | 8.38018 | 91° | 69km/h | 13659m | -6.3m/s | -50.4°C | 0.9% | 154.6hPa | 2.6V | 08:11:52 | 01:53:14 | 00:00:00 | |
| DL1XH1-15 | 2026-09-01 11:27:20 | 52.81494 | 8.38018 | 91° | 69km/h | 13659m | -6.3m/s | -50.4°C | 4% | 154.6hPa | 2.6V | 08:11:41 | 01:53:14 | 00:00:00 | |
| DL1XH-west | 2026-09-01 11:27:19 | 52.81491 | 8.38073 | 99° | 64km/h | 13645m | -7.2m/s | -50.4°C | 1% | 154.9hPa | 2.6V | 08:11:52 | 01:53:16 | 00:00:00 | |
| HSKMA3-T | 2026-09-01 11:27:18 | 52.81493 | 8.38046 | 95° | 66km/h | 13653m | -6.9m/s | -50.4°C | 1% | 154.7hPa | 2.6V | 08:11:52 | 01:53:15 | 00:00:00 | |
| AA1-15 | 2026-09-01 11:27:16 | 52.81494 | 8.37988 | 88° | 73km/h | 13666m | -6.7m/s | -50.3°C | 1% | 154.4hPa | 2.7V | 08:15:16 | 01:53:13 | 00:00:00 | |
| DM0DOS-11 | 2026-09-01 11:27:15 | 52.81496 | 8.37773 | 101° | 64km/h | 13717m | -7.4m/s | -49.8°C | 4.1% | 153.2hPa | 2.7V | 08:11:49 | 01:53:06 | 00:00:00 | |
| DF5WG-10 | 2026-09-01 11:27:14 | 52.81492 | 8.37926 | 87° | 64km/h | 13680m | -6.9m/s | -50.0°C | 4.0% | 154.0hPa | 2.6V | 00:00:00 | 01:53:11 | 00:00:00 | |
| DO2SHX-10 | 2026-09-01 11:27:13 | 52.81491 | 8.37894 | 89° | 69km/h | 13687m | -7.3m/s | -49.8°C | 4.0% | 153.8hPa | 2.6V | 08:11:00 | 01:53:10 | 00:00:00 | |
| DL1LOL-11 | 2026-09-01 11:27:12 | 52.81491 | 8.37862 | 92° | 77km/h | 13695m | -7.7m/s | -49.8°C | 1.6% | 153.7hPa | 2.6V | 00:00:00 | 00:00:00 | 00:00:00 | |
| DL3OBA | 2026-09-01 11:27:11 | 52.81491 | 8.37862 | 92° | 77km/h | 13695m | -7.7m/s | -49.8°C | 1.6% | 153.7hPa | 2.6V | 08:11:00 | 00:00:00 | 00:00:00 | |
| DB0DAN | 2026-09-01 11:27:10 | 52.81494 | 8.37801 | 98° | 68km/h | 13710m | -7.6m/s | -49.8°C | 1.7% | 153.31hPa | 2.6V | 00:00:00 | 00:00:00 | 00:00:00 | |
| DL1XH-west | 2026-09-01 11:27:09 | 52.81496 | 8.37773 | 102° | 64km/h | 13718m | -7.4m/s | -49.8°C | 1.1% | 153.2hPa | 2.7V | 08:11:52 | 01:53:06 | 00:00:00 | |
| DL1XH1-15 | 2026-09-01 11:27:08 | 52.81503 | 8.37728 | 102° | 47km/h | 13732m | -7.2m/s | -49.8°C | 4.1% | 152.8hPa | 2.7V | 08:11:51 | 01:53:04 | 00:00:00 | |
| HSKMA3-T | 2026-09-01 11:27:08 | 52.81500 | 8.37749 | 104° | 57km/h | 13725m | -7.6m/s | -49.8°C | 1.1% | 153hPa | 2.7V | 08:11:52 | 01:53:05 | 00:00:00 | |
| DF8AY | 2026-09-01 11:27:07 | 52.81503 | 8.37728 | 102° | 47km/h | 13732m | -7.2m/s | 0°C | 0% | 0hPa | 2.7V | 18:12:15 | 01:53:04 | 00:00:00 | |
| AA1-15 | 2026-09-01 11:27:06 | 52.81504 | 8.37710 | 96° | 40km/h | 13739m | -6.8m/s | -49.9°C | 1.1% | 152.6hPa | 2.6V | 08:11:52 | 01:53:03 | 00:00:00 | |
| DO2JMG | 2026-09-01 11:27:05 | 52.81504 | 8.37694 | 84° | 37km/h | 13746m | -6.8m/s | -50°C | 1% | 152.4hPa | 2.6V | 08:12:43 | 01:53:02 | 00:00:00 | |
| DF5WG-10 | 2026-09-01 11:27:04 | 52.81503 | 8.37679 | 73° | 62km/h | 13753m | -7.0m/s | -50.0°C | 3.9% | 152.2hPa | 2.6V | 00:00:00 | 01:53:01 | 00:00:00 | |
| DO3DL | 2026-09-01 11:27:03 | 52.81499 | 8.37663 | 66° | 42km/h | 13761m | -7.6m/s | -50.1°C | 1.6% | 152.1hPa | 2.6V | 08:12:00 | 00:00:00 | 00:00:00 | |
| BUE01 | 2026-09-01 11:27:02 | 52.81488 | 8.37628 | 62° | 53km/h | 13776m | -7.9m/s | -50.2°C | 1.6% | 151.8hPa | 2.6V | 00:00:00 | 00:00:00 | 00:00:00 | |
| DM0DOS-11 | 2026-09-01 11:27:01 | 52.81476 | 8.37581 | 70° | 68km/h | 13791m | -6.9m/s | -50.3°C | 4% | 151.4hPa | 2.6V | 08:11:59 | 01:52:56 | 00:00:00 | |
| GOEST3-10 | 2026-09-01 11:27:01 | 52.81488 | 8.37627 | 63° | 66km/h | 13777m | -7.8m/s | -50.2°C | 3.9% | 151.7hPa | 2.7V | 00:00:00 | 01:52:58 | 00:00:00 | |
| DL1XH1-15 | 2026-09-01 11:27:00 | 52.81467 | 8.37525 | 82° | 71km/h | 13805m | -6.9m/s | -50.4°C | 4% | 151.1hPa | 2.7V | 08:12:01 | 01:52:54 | 00:00:00 | |
| BIOWL1-15 | 2026-09-01 11:26:59 | 52.81476 | 8.37581 | 71° | 68km/h | 13791m | -6.9m/s | -50.3°C | 1% | 151.4hPa | 2.6V | 08:12:43 | 01:52:56 | 00:00:00 | |
| DL1XH-west | 2026-09-01 11:26:58 | 52.81471 | 8.37554 | 76° | 71km/h | 13798m | -6.8m/s | -50.4°C | 1% | 151.3hPa | 2.7V | 08:12:43 | 01:52:55 | 00:00:00 | |
| AA1-15 | 2026-09-01 11:26:55 | 52.81465 | 8.37466 | 92° | 68km/h | 13820m | -7.6m/s | -50.4°C | 1.1% | 150.8hPa | 2.6V | 08:12:43 | 01:52:52 | 00:00:00 | |
| DO2JMG | 2026-09-01 11:26:54 | 52.81466 | 8.37439 | 95° | 64km/h | 13827m | -7.5m/s | -50.4°C | 1.1% | 150.6hPa | 2.6V | 08:12:43 | 01:52:51 | 00:00:00 | |
| BIOWL1-15 | 2026-09-01 11:26:49 | 52.81474 | 8.37344 | 84° | 33km/h | 13864m | -7m/s | -50.5°C | 1% | 149.7hPa | 2.6V | 08:12:43 | 01:52:46 | 00:00:00 | |
| DL1XH1-15 | 2026-09-01 11:26:48 | 52.81469 | 8.37315 | 66° | 40km/h | 13877m | -6.9m/s | -50.7°C | 4% | 149.4hPa | 2.7V | 08:12:11 | 01:52:44 | 00:00:00 | |
| DL1XH-west | 2026-09-01 11:26:47 | 52.81469 | 8.37315 | 66° | 40km/h | 13877m | -6.9m/s | -50.7°C | 1% | 149.4hPa | 2.7V | 08:12:43 | 01:52:44 | 00:00:00 | |
| DF8AY | 2026-09-01 11:26:47 | 52.81465 | 8.37298 | 65° | 47km/h | 13884m | -7.2m/s | 0°C | 0% | 0hPa | 2.7V | 18:12:15 | 01:52:43 | 00:00:00 | |
| AA1-15 | 2026-09-01 11:26:45 | 52.81460 | 8.37279 | 67° | 53km/h | 13892m | -7.1m/s | -50.9°C | 1% | 149.1hPa | 2.6V | 08:12:43 | 01:52:42 | 00:00:00 | |
| DO2JMG | 2026-09-01 11:26:44 | 52.81455 | 8.37258 | 71° | 57km/h | 13898m | -6.8m/s | -50.9°C | 1% | 148.9hPa | 2.5V | 08:12:43 | 01:52:41 | 00:00:00 | |
| BIOWL1-15 | 2026-09-01 11:26:41 | 52.81436 | 8.37130 | 81° | 69km/h | 13934m | -7.7m/s | -50.7°C | 1.1% | 148.1hPa | 2.7V | 08:12:43 | 01:52:36 | 00:00:00 | |
| GOEST3-10 | 2026-09-01 11:26:41 | 52.81442 | 8.37184 | 77° | 68km/h | 13920m | -6.9m/s | -50.9°C | 4.1% | 148.4hPa | 2.6V | 00:00:00 | 01:52:38 | 00:00:00 | |
| DM0DOS-11 | 2026-09-01 11:26:40 | 52.81435 | 8.37129 | 80° | 69km/h | 13934m | -7.7m/s | -50.7°C | 4.1% | 148.1hPa | 2.7V | 08:12:19 | 01:52:36 | 00:00:00 | |
| DL1XH1-15 | 2026-09-01 11:26:40 | 52.81432 | 8.37072 | 87° | 69km/h | 13950m | -8m/s | -50.8°C | 4.2% | 147.7hPa | 2.6V | 08:12:21 | 01:52:34 | 00:00:00 | |
| DL8OAI-8 | 2026-09-01 11:26:40 | 52.81439 | 8.37158 | 80° | 68km/h | 13927m | -7.2m/s | -50.9°C | 1.7% | 148.3hPa | 2.6V | 08:12:00 | 00:00:00 | 00:00:00 | |
| DL1XH-15 | 2026-09-01 11:26:39 | 52.81432 | 8.37018 | 95° | 60km/h | 13966m | -7.5m/s | -50.9°C | 4.2% | 147.4hPa | 2.6V | 08:12:23 | 01:52:32 | 00:00:00 | |
| HSKMA3-T | 2026-09-01 11:26:37 | 52.81431 | 8.37072 | 87° | 69km/h | 13950m | -8m/s | -50.8°C | 1.1% | 147.7hPa | 2.6V | 08:12:43 | 01:52:34 | 00:00:00 | |
| DL1XH-west | 2026-09-01 11:26:36 | 52.81431 | 8.37044 | 92° | 66km/h | 13958m | -7.9m/s | -50.8°C | 1.2% | 147.5hPa | 2.6V | 08:12:43 | 01:52:33 | 00:00:00 | |
| AA1-15 | 2026-09-01 11:26:35 | 52.81436 | 8.36975 | 97° | 44km/h | 13980m | -6.8m/s | -51.1°C | 1.1% | 147.1hPa | 2.6V | 08:12:43 | 01:52:30 | 00:00:00 | |
| DO2JMG | 2026-09-01 11:26:34 | 52.81434 | 8.36994 | 98° | 53km/h | 13973m | -7.1m/s | -51°C | 1.2% | 147.2hPa | 2.7V | 08:12:43 | 01:52:31 | 00:00:00 | |
| DF8AY | 2026-09-01 11:26:30 | 52.81430 | 8.36914 | 68° | 38km/h | 14009m | -7.7m/s | 0°C | 0% | 0hPa | 2.7V | 18:12:15 | 01:52:26 | 00:00:00 | |
| BIOWL1-15 | 2026-09-01 11:26:29 | 52.81420 | 8.36881 | 64° | 49km/h | 14024m | -7.2m/s | -51.3°C | 1.2% | 146.1hPa | 2.6V | 08:12:43 | 01:52:24 | 00:00:00 | |
| DL1XH1-15 | 2026-09-01 11:26:28 | 52.81421 | 8.36881 | 63° | 49km/h | 14024m | -7.2m/s | -51.3°C | 4.3% | 146.1hPa | 2.6V | 08:12:31 | 01:52:24 | 00:00:00 | |
| DD8BA-10 | 2026-09-01 11:26:28 | 52.81425 | 8.36898 | 65° | 58km/h | 14017m | -7.1m/s | -51.3°C | 4.3% | 146.2hPa | 2.7V | 08:12:00 | 00:00:00 | 00:00:00 | |
| DD1CC3-15 | 2026-09-01 11:26:27 | 52.81425 | 8.36898 | 66° | 44km/h | 14017m | -7.2m/s | -51.4°C | 1.8% | 146.2hPa | 2.6V | 08:12:00 | 00:00:00 | 00:00:00 | |
| DL1XH-15 | 2026-09-01 11:26:26 | 52.81408 | 8.36840 | 63° | 60km/h | 14038m | -7.2m/s | -51.3°C | 4.2% | 145.8hPa | 2.6V | 08:12:33 | 01:52:22 | 00:00:00 | |
| DL1XH-west | 2026-09-01 11:26:26 | 52.81415 | 8.36862 | 63° | 55km/h | 14031m | -7m/s | -51.4°C | 1.1% | 145.9hPa | 2.5V | 08:12:43 | 01:52:23 | 00:00:00 | |
| DB0DAN | 2026-09-01 11:26:25 | 52.81408 | 8.36840 | 64° | 57km/h | 14038m | -7.2m/s | -51.3°C | 1.7% | 145.76hPa | 2.6V | 00:00:00 | 00:00:00 | 00:00:00 | |
| DO2JMG | 2026-09-01 11:26:24 | 52.81401 | 8.36817 | 64° | 62km/h | 14045m | -7m/s | -51.3°C | 1.1% | 145.6hPa | 2.6V | 08:12:43 | 01:52:21 | 00:00:00 | |
| DM0DOS-11 | 2026-09-01 11:26:24 | 52.81366 | 8.36701 | 60° | 53km/h | 14083m | -7.1m/s | -51.5°C | 4.3% | 144.8hPa | 2.6V | 08:12:39 | 01:52:16 | 00:00:00 | |
| AA1-15 | 2026-09-01 11:26:22 | 52.81387 | 8.36769 | 64° | 66km/h | 14060m | -7.9m/s | -51.3°C | 1.1% | 145.3hPa | 2.7V | 08:12:43 | 01:52:19 | 00:00:00 | |
| DD1CC8 | 2026-09-01 11:26:22 | 52.81380 | 8.36745 | 62° | 62km/h | 14068m | -7.9m/s | -51.4°C | 1.7% | 145.1hPa | 2.7V | 00:00:00 | 00:00:00 | 00:00:00 | |
| BIOWL7-15 | 2026-09-01 11:26:21 | 52.81380 | 8.36745 | 64° | 64km/h | 14068m | -7.9m/s | -51.4°C | 1.7% | 145.1hPa | 2.7V | 00:00:00 | 00:00:00 | 00:00:00 | |
| DL1XH1-15 | 2026-09-01 11:26:20 | 52.81354 | 8.36666 | 66° | 42km/h | 14097m | -6.5m/s | -51.5°C | 4.3% | 144.4hPa | 2.7V | 08:12:41 | 01:52:14 | 00:00:00 | |
| DJ2DS-15 | 2026-09-01 11:26:20 | 52.81372 | 8.36722 | 62° | 53km/h | 14076m | -7.8m/s | -51.4°C | 4.2% | 144.9hPa | 2.6V | 00:00:00 | 01:52:17 | 00:00:00 | |
| DL1XH-15 | 2026-09-01 11:26:19 | 52.81347 | 8.36635 | 71° | 37km/h | 14111m | -6.8m/s | -51.4°C | 4.4% | 144.1hPa | 2.6V | 08:12:43 | 01:52:12 | 00:00:00 | |
| BIOWL1-15 | 2026-09-01 11:26:19 | 52.81350 | 8.36650 | 69° | 38km/h | 14104m | -7m/s | -51.4°C | 1.2% | 144.3hPa | 2.7V | 08:12:43 | 01:52:13 | 00:00:00 | |
| DL1XH-west | 2026-09-01 11:26:15 | 52.81347 | 8.36635 | 71° | 37km/h | 14111m | -6.8m/s | -51.4°C | 1.3% | 144.2hPa | 2.6V | 08:12:43 | 01:52:12 | 00:00:00 | |
| DO2JMG | 2026-09-01 11:26:13 | 52.81341 | 8.36607 | 67° | 35km/h | 14126m | -7.8m/s | -51.3°C | 1.2% | 143.8hPa | 2.6V | 08:13:34 | 01:52:10 | 00:00:00 | |
| AA1-15 | 2026-09-01 11:26:12 | 52.81328 | 8.36564 | 63° | 42km/h | 14150m | -8.1m/s | -51.5°C | 1.1% | 143.3hPa | 2.5V | 08:13:34 | 01:52:07 | 00:00:00 | |
| DL3AQ-11 | 2026-09-01 11:26:12 | 52.81333 | 8.36579 | 63° | 37km/h | 14142m | -8.1m/s | -51.4°C | 1.8% | 143.5hPa | 2.6V | 00:00:00 | 00:00:00 | 00:00:00 | |
| DM0DOS-11 | 2026-09-01 11:26:11 | 52.81323 | 8.36548 | 62° | 47km/h | 14157m | -7.6m/s | -51.6°C | 4.3% | 143.1hPa | 2.6V | 08:12:49 | 01:52:06 | 00:00:00 | |
| DB0DAN | 2026-09-01 11:26:10 | 52.81328 | 8.36564 | 63° | 40km/h | 14150m | -8.1m/s | -51.5°C | 1.7% | 143.28hPa | 2.5V | 00:00:00 | 00:00:00 | 00:00:00 | |
| DL3OBA | 2026-09-01 11:26:10 | 52.81328 | 8.36564 | 64° | 42km/h | 14150m | -8.1m/s | -51.5°C | 1.7% | 143.3hPa | 2.7V | 08:13:00 | 00:00:00 | 00:00:00 | |
| DL1XH1-15 | 2026-09-01 11:26:08 | 52.81311 | 8.36506 | 65° | 64km/h | 14172m | -7m/s | -51.7°C | 4.3% | 142.8hPa | 2.7V | 08:12:51 | 01:52:04 | 00:00:00 | |
| BIOWL1-15 | 2026-09-01 11:26:08 | 52.81317 | 8.36528 | 64° | 57km/h | 14165m | -6.8m/s | -51.6°C | 1.1% | 143hPa | 2.6V | 08:13:34 | 01:52:05 | 00:00:00 | |
| DL1XH-west | 2026-09-01 11:26:05 | 52.81298 | 8.36453 | 71° | 71km/h | 14186m | -7.6m/s | -51.7°C | 1.2% | 142.5hPa | 2.7V | 08:13:34 | 01:52:02 | 00:00:00 | |
| HSKMA3-T | 2026-09-01 11:26:04 | 52.81292 | 8.36424 | 72° | 73km/h | 14194m | -7.8m/s | -51.6°C | 1.2% | 142.3hPa | 2.6V | 08:13:34 | 01:52:01 | 00:00:00 | |
| DO2JMG | 2026-09-01 11:26:02 | 52.81283 | 8.36364 | 79° | 77km/h | 14210m | -8.2m/s | -51.6°C | 1.2% | 142hPa | 2.6V | 08:13:34 | 01:51:59 | 00:00:00 | |
| AA1-15 | 2026-09-01 11:26:00 | 52.81279 | 8.36301 | 89° | 73km/h | 14226m | -7.9m/s | -51.5°C | 1.2% | 141.6hPa | 2.7V | 08:13:34 | 01:51:57 | 00:00:00 | |
| BIOWL1-15 | 2026-09-01 11:25:58 | 52.81284 | 8.36195 | 96° | 51km/h | 14257m | -7m/s | -51.4°C | 1.3% | 140.9hPa | 2.6V | 08:13:34 | 01:51:53 | 00:00:00 | |
| BIOWL9-15 | 2026-09-01 11:25:57 | 52.81282 | 8.36218 | 97° | 57km/h | 14249m | -7.5m/s | -51.4°C | 1.8% | 141.1hPa | 2.6V | 00:00:00 | 00:00:00 | 00:00:00 | |
| SMARD9-15 | 2026-09-01 11:25:56 | 52.81284 | 8.36175 | 90° | 44km/h | 14264m | -7.1m/s | -51.5°C | 1.8% | 140.8hPa | 2.6V | 00:00:00 | 00:00:00 | 00:00:00 | |
| DB0DAN | 2026-09-01 11:25:55 | 52.81284 | 8.36175 | 91° | 42km/h | 14264m | -7.1m/s | -51.5°C | 1.8% | 140.81hPa | 2.6V | 00:00:00 | 00:00:00 | 00:00:00 | |
| HSKMA3-T | 2026-09-01 11:25:54 | 52.81284 | 8.36158 | 83° | 42km/h | 14271m | -7.6m/s | -51.5°C | 1.2% | 140.6hPa | 2.7V | 08:13:34 | 01:51:51 | 00:00:00 | |
| DO2JMG | 2026-09-01 11:25:52 | 52.81279 | 8.36123 | 72° | 46km/h | 14287m | -7.8m/s | -51.5°C | 1.2% | 140.3hPa | 2.6V | 08:13:34 | 01:51:49 | 00:00:00 | |
| AA1-15 | 2026-09-01 11:25:49 | 52.81264 | 8.36062 | 66° | 60km/h | 14310m | -7.6m/s | -51.4°C | 1.1% | 139.8hPa | 2.7V | 08:13:34 | 01:51:46 | 00:00:00 | |
| DL3AQ-11 | 2026-09-01 11:25:48 | 52.81252 | 8.36011 | 70° | 69km/h | 14325m | -7.5m/s | -51.4°C | 1.6% | 139.4hPa | 2.6V | 00:00:00 | 00:00:00 | 00:00:00 | |
| DC6BW-12 | 2026-09-01 11:25:47 | 52.81258 | 8.36038 | 69° | 66km/h | 14318m | -7.6m/s | -51.5°C | 1.7% | 139.6hPa | 2.6V | 08:13:00 | 00:00:00 | 00:00:00 | |
| DL1XH-15 | 2026-09-01 11:25:46 | 52.81241 | 8.35952 | 76° | 77km/h | 14340m | -7.4m/s | -51.4°C | 4.3% | 139.1hPa | 2.6V | 08:13:13 | 01:51:42 | 00:00:00 | |
| BIOWL1-15 | 2026-09-01 11:25:45 | 52.81241 | 8.35952 | 77° | 77km/h | 14340m | -7.4m/s | -51.4°C | 1.2% | 139.1hPa | 2.6V | 08:13:34 | 01:51:42 | 00:00:00 | |
| DL1XH-west | 2026-09-01 11:25:44 | 52.81237 | 8.35921 | 81° | 78km/h | 14348m | -8.1m/s | -51.4°C | 1.1% | 139hPa | 2.6V | 08:13:34 | 01:51:41 | 00:00:00 | |
| HSKMA3-T | 2026-09-01 11:25:43 | 52.81235 | 8.35888 | 84° | 78km/h | 14356m | -7.6m/s | -51.4°C | 1.1% | 138.8hPa | 2.7V | 08:13:34 | 01:51:40 | 00:00:00 | |
| DO2JMG | 2026-09-01 11:25:41 | 52.81233 | 8.35823 | 92° | 77km/h | 14372m | -8m/s | -51.4°C | 1.2% | 138.5hPa | 2.6V | 08:13:34 | 01:51:38 | 00:00:00 | |
| DL1XH-15 | 2026-09-01 11:25:41 | 52.81244 | 8.35676 | 82° | 40km/h | 14419m | -7m/s | -51.2°C | 4.2% | 137.5hPa | 2.6V | 08:13:23 | 01:51:32 | 00:00:00 | |
| DB0DAN | 2026-09-01 11:25:40 | 52.81235 | 8.35792 | 96° | 71km/h | 14380m | -8.2m/s | -51.4°C | 1.8% | 138.3hPa | 2.6V | 00:00:00 | 00:00:00 | 00:00:00 | |
| DL1XH1-15 | 2026-09-01 11:25:40 | 52.81242 | 8.35713 | 99° | 51km/h | 14404m | -7.6m/s | -51.3°C | 4.4% | 137.8hPa | 2.7V | 08:13:21 | 01:51:34 | 00:00:00 | |
| AA1-15 | 2026-09-01 11:25:39 | 52.81237 | 8.35762 | 99° | 68km/h | 14388m | -8.5m/s | -51.4°C | 1.3% | 138.1hPa | 2.6V | 08:13:34 | 01:51:36 | 00:00:00 | |
| SONCRA | 2026-09-01 11:25:39 | 52.81240 | 8.35736 | 100° | 60km/h | 14396m | -8.1m/s | -51.3°C | 1.8% | 137.9hPa | 2.6V | 00:00:00 | 00:00:00 | 00:00:00 | |
| DJ2DS-15 | 2026-09-01 11:25:38 | 52.81240 | 8.35736 | 101° | 66km/h | 14396m | -8.0m/s | -51.3°C | 4.5% | 137.9hPa | 2.6V | 00:00:00 | 01:51:35 | 00:00:00 | |
| GOEST3-10 | 2026-09-01 11:25:36 | 52.81244 | 8.35693 | 94° | 46km/h | 14412m | -7.2m/s | -51.2°C | 4.3% | 137.6hPa | 2.6V | 00:00:00 | 00:00:00 | 00:00:00 | |
| DM0DOS-11 | 2026-09-01 11:25:34 | 52.81211 | 8.35552 | 68° | 73km/h | 14464m | -7.5m/s | -51.1°C | 4.1% | 136.5hPa | 2.6V | 08:13:29 | 01:51:26 | 00:00:00 | |
| DL1XH-west | 2026-09-01 11:25:34 | 52.81241 | 8.35659 | 72° | 42km/h | 14426m | -7.5m/s | -51.2°C | 1% | 137.3hPa | 2.6V | 08:13:34 | 01:51:31 | 00:00:00 | |
| HSKMA3-T | 2026-09-01 11:25:33 | 52.81237 | 8.35642 | 66° | 46km/h | 14433m | -8m/s | -51.2°C | 1% | 137.1hPa | 2.6V | 08:13:34 | 01:51:30 | 00:00:00 | |
| DO2JMG | 2026-09-01 11:25:31 | 52.81225 | 8.35602 | 63° | 60km/h | 14450m | -7.5m/s | -51.1°C | 1% | 136.8hPa | 2.7V | 08:13:34 | 01:51:28 | 00:00:00 | |
| AA1-15 | 2026-09-01 11:25:28 | 52.81205 | 8.35523 | 72° | 77km/h | 14472m | -7.8m/s | -51.1°C | 1% | 136.3hPa | 2.6V | 08:13:34 | 01:51:25 | 00:00:00 | |
| BIOWL1-15 | 2026-09-01 11:25:24 | 52.81193 | 8.35395 | 89° | 78km/h | 14501m | -7.6m/s | -51°C | 1% | 135.7hPa | 2.6V | 08:13:34 | 01:51:21 | 00:00:00 | |
| DL1XH-west | 2026-09-01 11:25:23 | 52.81193 | 8.35362 | 90° | 78km/h | 14509m | -7.7m/s | -51°C | 1% | 135.6hPa | 2.6V | 08:14:25 | 01:51:20 | 00:00:00 | |
| HSKMA3-T | 2026-09-01 11:25:22 | 52.81193 | 8.35330 | 91° | 78km/h | 14517m | -7.8m/s | -51.1°C | 1% | 135.4hPa | 2.6V | 08:14:25 | 01:51:19 | 00:00:00 | |
| DO2JMG | 2026-09-01 11:25:20 | 52.81194 | 8.35267 | 91° | 73km/h | 14533m | -7.5m/s | -51.2°C | 1% | 135.1hPa | 2.7V | 08:14:25 | 01:51:17 | 00:00:00 | |
| AA1-15 | 2026-09-01 11:25:18 | 52.81192 | 8.35185 | 84° | 60km/h | 14554m | -6.8m/s | -51.4°C | 1% | 134.7hPa | 2.6V | 08:14:25 | 01:51:14 | 00:00:00 | |
| DD8BA-10 | 2026-09-01 11:25:18 | 52.81193 | 8.35210 | 88° | 57km/h | 14547m | -7.1m/s | -51.3°C | 4.1% | 134.7hPa | 2.6V | 00:00:00 | 00:00:00 | 00:00:00 | |
| DL8OAI-8 | 2026-09-01 11:25:17 | 52.81193 | 8.35210 | 88° | 64km/h | 14547m | -7.1m/s | -51.3°C | 1.6% | 134.8hPa | 2.6V | 08:14:00 | 00:00:00 | 00:00:00 | |
| DL1XH-15 | 2026-09-01 11:25:16 | 52.81189 | 8.35137 | 83° | 57km/h | 14569m | -7.4m/s | -51.3°C | 4.1% | 134.3hPa | 2.6V | 08:13:43 | 01:51:12 | 00:00:00 | |
| GOEST3-10 | 2026-09-01 11:25:16 | 52.81191 | 8.35160 | 83° | 55km/h | 14562m | -7.2m/s | -51.4°C | 4.2% | 134.5hPa | 2.7V | 00:00:00 | 00:00:00 | 00:00:00 | |
| EDDB2-12 | 2026-09-01 11:25:15 | 52.81188 | 8.35114 | 85° | 55km/h | 14576m | -7.0m/s | -51.4°C | 1.6% | 134.2hPa | 2.7V | 00:00:00 | 00:00:00 | 00:00:00 | |
| DM0DOS-11 | 2026-09-01 11:25:14 | 52.81187 | 8.35001 | 94° | 55km/h | 14613m | -7.5m/s | -51.1°C | 4.3% | 133.4hPa | 2.7V | 08:13:49 | 01:51:06 | 00:00:00 | |
| BIOWL1-15 | 2026-09-01 11:25:14 | 52.81186 | 8.35046 | 89° | 53km/h | 14597m | -7.4m/s | -51.3°C | 1% | 133.8hPa | 2.6V | 08:14:25 | 01:51:08 | 00:00:00 | |
| HSKMA3-T | 2026-09-01 11:25:12 | 52.81186 | 8.35068 | 88° | 55km/h | 14590m | -7.2m/s | -51.3°C | 1% | 133.9hPa | 2.6V | 08:14:25 | 01:51:09 | 00:00:00 | |
| DO2JMG | 2026-09-01 11:25:09 | 52.81187 | 8.35001 | 94° | 55km/h | 14613m | -7.5m/s | -51.1°C | 1.1% | 133.4hPa | 2.7V | 08:14:25 | 01:51:06 | 00:00:00 | |
| AA1-15 | 2026-09-01 11:25:06 | 52.81193 | 8.34928 | 100° | 66km/h | 14636m | -7.6m/s | -50.9°C | 1% | 132.9hPa | 2.6V | 08:15:16 | 01:51:03 | 00:00:00 | |
| GOEST3-10 | 2026-09-01 11:25:06 | 52.81192 | 8.34928 | 100° | 71km/h | 14636m | -7.6m/s | -50.8°C | 4.2% | 132.9hPa | 2.6V | 00:00:00 | 00:00:00 | 00:00:00 | |
| DD1CC3-15 | 2026-09-01 11:25:05 | 52.81193 | 8.34928 | 101° | 66km/h | 14636m | -7.6m/s | -50.9°C | 1.6% | 132.9hPa | 2.6V | 08:14:00 | 00:00:00 | 00:00:00 | |
| DM0DOS-11 | 2026-09-01 11:25:04 | 52.81201 | 8.34711 | 89° | 80km/h | 14686m | -7.5m/s | -50.7°C | 3.9% | 132hPa | 2.6V | 08:13:59 | 01:50:56 | 00:00:00 | |
| BIOWL1-15 | 2026-09-01 11:25:03 | 52.81200 | 8.34841 | 95° | 75km/h | 14658m | -6.9m/s | -50.8°C | 0.8% | 132.5hPa | 2.7V | 08:14:25 | 01:51:00 | 00:00:00 | |
| HSKMA3-T | 2026-09-01 11:25:02 | 52.81201 | 8.34810 | 92° | 77km/h | 14665m | -7.2m/s | -50.9°C | 0.8% | 132.4hPa | 2.5V | 08:14:25 | 01:50:59 | 00:00:00 | |
| DL1XH-west | 2026-09-01 11:25:01 | 52.81201 | 8.34777 | 90° | 78km/h | 14672m | -6.8m/s | -50.9°C | 0.8% | 132.3hPa | 2.6V | 08:14:25 | 01:50:58 | 00:00:00 | |
| GOEST3-10 | 2026-09-01 11:25:01 | 52.81201 | 8.34777 | 90° | 80km/h | 14672m | -6.7m/s | -50.8°C | 4.0% | 132.2hPa | 2.6V | 00:00:00 | 01:50:58 | 00:00:00 | |
| DL1XH-15 | 2026-09-01 11:24:59 | 52.81205 | 8.34578 | 96° | 75km/h | 14716m | -7.7m/s | -50.7°C | 4.1% | 131.3hPa | 2.6V | 08:14:03 | 01:50:52 | 00:00:00 | |
| DO2JMG | 2026-09-01 11:24:58 | 52.81201 | 8.34677 | 91° | 80km/h | 14693m | -7.6m/s | -50.7°C | 0.8% | 131.8hPa | 2.7V | 08:14:25 | 01:50:55 | 00:00:00 | |
| DF8AY | 2026-09-01 11:24:55 | 52.81205 | 8.34578 | 96° | 75km/h | 14717m | -7.7m/s | -50.7°C | 0.8% | 131.3hPa | 2.6V | 08:15:16 | 01:50:52 | 00:00:00 | |
| DM0DOS-11 | 2026-09-01 11:24:54 | 52.81217 | 8.34421 | 96° | 53km/h | 14760m | -7.5m/s | -50.7°C | 4% | 130.4hPa | 2.6V | 08:14:09 | 01:50:46 | 00:00:00 | |
| BIOWL1-15 | 2026-09-01 11:24:52 | 52.81217 | 8.34421 | 97° | 53km/h | 14760m | -7.5m/s | -50.7°C | 0.8% | 130.4hPa | 2.6V | 08:14:25 | 01:50:46 | 00:00:00 | |
| DL1XH-west | 2026-09-01 11:24:51 | 52.81213 | 8.34466 | 98° | 58km/h | 14746m | -7m/s | -50.7°C | 0.8% | 130.7hPa | 2.7V | 08:14:25 | 01:50:48 | 00:00:00 | |
| DO2JMG | 2026-09-01 11:24:48 | 52.81219 | 8.34398 | 97° | 55km/h | 14768m | -7.6m/s | -50.8°C | 0.8% | 130.3hPa | 2.6V | 08:14:25 | 01:50:45 | 00:00:00 | |
| AA1-15 | 2026-09-01 11:24:44 | 52.81228 | 8.34292 | 99° | 71km/h | 14796m | -7.1m/s | -50.9°C | 0.7% | 129.7hPa | 2.5V | 08:14:25 | 01:50:41 | 00:00:00 | |
| DL1LOL-11 | 2026-09-01 11:24:43 | 52.81231 | 8.34263 | 102° | 71km/h | 14804m | -7.5m/s | -50.9°C | 1.4% | 129.6hPa | 2.7V | 00:00:00 | 00:00:00 | 00:00:00 | |
| GOEST3-10 | 2026-09-01 11:24:42 | 52.81239 | 8.34208 | 106° | 55km/h | 14820m | -8.1m/s | -50.7°C | 3.9% | 129.2hPa | 2.7V | 08:14:00 | 01:50:38 | 00:00:00 | |
| DL1XH-west | 2026-09-01 11:24:42 | 52.81239 | 8.34208 | 105° | 66km/h | 14819m | -8.1m/s | -50.8°C | 0.7% | 129.2hPa | 2.7V | 08:14:25 | 01:50:38 | 00:00:00 | |
| DL1XH1-15 | 2026-09-01 11:24:40 | 52.81252 | 8.34119 | 91° | 44km/h | 14851m | -7.4m/s | -50.4°C | 3.9% | 128.6hPa | 2.6V | 08:14:21 | 01:50:34 | 00:00:00 | |
| BIOWL1-15 | 2026-09-01 11:24:40 | 52.81243 | 8.34182 | 106° | 62km/h | 14828m | -8.2m/s | -50.7°C | 0.8% | 129.1hPa | 2.7V | 08:14:25 | 01:50:37 | 00:00:00 | |
| DF8AY | 2026-09-01 11:24:38 | 52.81250 | 8.34138 | 101° | 49km/h | 14844m | -7.8m/s | -50.5°C | 0.8% | 128.7hPa | 2.6V | 08:15:16 | 01:50:35 | 00:00:00 | |
| SONCRA | 2026-09-01 11:24:37 | 52.81251 | 8.34100 | 79° | 46km/h | 14859m | -7.2m/s | -50.4°C | 1.5% | 128.5hPa | 2.7V | 00:00:00 | 00:00:00 | 00:00:00 | |
| GOEST3-10 | 2026-09-01 11:24:36 | 52.81251 | 8.34100 | 80° | 58km/h | 14859m | -7.1m/s | -50.4°C | 4.0% | 128.4hPa | 2.7V | 00:00:00 | 00:00:00 | 00:00:00 | |
| DM0DOS-11 | 2026-09-01 11:24:35 | 52.81210 | 8.33924 | 75° | 77km/h | 14912m | -7.9m/s | -50.7°C | 4% | 127.4hPa | 2.7V | 08:14:29 | 01:50:26 | 00:00:00 | |
| AA1-15 | 2026-09-01 11:24:34 | 52.81242 | 8.34059 | 67° | 58km/h | 14873m | -7.3m/s | -50.5°C | 0.8% | 128.2hPa | 2.7V | 08:14:25 | 01:50:31 | 00:00:00 | |
| BIOWL1-15 | 2026-09-01 11:24:31 | 52.81218 | 8.33635 | 86° | 53km/h | 14989m | -6.9m/s | -50.4°C | 0.7% | 125.9hPa | 2.7V | 08:15:16 | 01:50:16 | 00:00:00 | |
| DL1XH-west | 2026-09-01 11:24:31 | 52.81222 | 8.33983 | 68° | 73km/h | 14896m | -8.1m/s | -50.6°C | 0.8% | 127.7hPa | 2.6V | 08:15:16 | 01:50:28 | 00:00:00 | |
| HSKMA3-T | 2026-09-01 11:24:29 | 52.81210 | 8.33924 | 76° | 77km/h | 14912m | -7.9m/s | -50.7°C | 0.9% | 127.4hPa | 2.7V | 08:15:16 | 01:50:26 | 00:00:00 | |
| DL1XH1-15 | 2026-09-01 11:24:28 | 52.81204 | 8.33861 | 87° | 77km/h | 14927m | -6.7m/s | -50.7°C | 3.9% | 127.2hPa | 2.6V | 08:14:31 | 01:50:24 | 00:00:00 | |
| DO2JMG | 2026-09-01 11:24:27 | 52.81204 | 8.33861 | 88° | 77km/h | 14927m | -6.7m/s | -50.7°C | 0.7% | 127.2hPa | 2.6V | 08:15:16 | 01:50:24 | 00:00:00 | |
| DL3OBA | 2026-09-01 11:24:26 | 52.81204 | 8.33861 | 89° | 77km/h | 14927m | -6.7m/s | -50.7°C | 1.4% | 127.2hPa | 2.7V | 08:15:00 | 00:00:00 | 00:00:00 | |
| DB0DAN | 2026-09-01 11:24:25 | 52.81206 | 8.33798 | 96° | 71km/h | 14941m | -7.5m/s | -50.8°C | 1.4% | 126.88hPa | 2.7V | 00:00:00 | 00:00:00 | 00:00:00 | |
| DM0DOS-11 | 2026-09-01 11:24:24 | 52.81218 | 8.33635 | 86° | 53km/h | 14988m | -6.9m/s | -50.4°C | 3.9% | 125.9hPa | 2.7V | 08:14:39 | 01:50:16 | 00:00:00 | |
| DF8AY | 2026-09-01 11:24:24 | 52.81209 | 8.33768 | 99° | 73km/h | 14949m | -8m/s | -50.7°C | 0.7% | 126.7hPa | 2.7V | 08:15:16 | 01:50:21 | 00:00:00 | |
| AA1-15 | 2026-09-01 11:24:23 | 52.81211 | 8.33738 | 99° | 71km/h | 14957m | -8m/s | -50.7°C | 0.7% | 126.5hPa | 2.7V | 08:15:16 | 01:50:20 | 00:00:00 | |
| DL4XJ-10 | 2026-09-01 11:24:22 | 52.81214 | 8.33709 | 100° | 62km/h | 14965m | -8.3m/s | -49.2°C | 0% | 0hPa | 2.6V | 00:00:00 | 00:00:00 | 00:00:00 | |
| GOEST3-10 | 2026-09-01 11:24:21 | 52.81217 | 8.33682 | 98° | 55km/h | 14973m | -8.1m/s | -50.4°C | 3.9% | 126.2hPa | 2.6V | 00:00:00 | 01:50:18 | 00:00:00 | |
| DL1XH1-15 | 2026-09-01 11:24:20 | 52.81213 | 8.33593 | 69° | 51km/h | 15002m | -6.9m/s | -50.4°C | 3.8% | 125.7hPa | 2.6V | 08:14:41 | 01:50:14 | 00:00:00 | |
| DL1XH-west | 2026-09-01 11:24:20 | 52.81218 | 8.33657 | 93° | 57km/h | 14981m | -7.6m/s | -50.5°C | 0.7% | 126hPa | 2.6V | 08:15:16 | 01:50:17 | 00:00:00 | |
| DL1XH-15 | 2026-09-01 11:24:19 | 52.81202 | 8.33553 | 64° | 53km/h | 15017m | -7.5m/s | -50.4°C | 3.8% | 125.4hPa | 2.6V | 08:14:43 | 01:50:12 | 00:00:00 | |
| HSKMA3-T | 2026-09-01 11:24:18 | 52.81216 | 8.33614 | 77° | 51km/h | 14995m | -6.8m/s | -50.4°C | 0.7% | 125.8hPa | 2.7V | 08:15:16 | 01:50:15 | 00:00:00 | |
| DO2JMG | 2026-09-01 11:24:17 | 52.81213 | 8.33593 | 70° | 51km/h | 15002m | -6.9m/s | -50.4°C | 0.7% | 125.7hPa | 2.6V | 08:15:16 | 01:50:14 | 00:00:00 | |
| BIOWL1-15 | 2026-09-01 11:24:15 | 52.81202 | 8.33553 | 64° | 53km/h | 15017m | -7.6m/s | -50.4°C | 0.7% | 125.4hPa | 2.6V | 08:15:16 | 01:50:12 | 00:00:00 | |
| DF8AY | 2026-09-01 11:24:14 | 52.81196 | 8.33533 | 63° | 51km/h | 15025m | -7.4m/s | -50.5°C | 0.7% | 125.2hPa | 2.7V | 08:15:16 | 01:50:11 | 00:00:00 | |
| AA1-15 | 2026-09-01 11:24:12 | 52.81184 | 8.33495 | 61° | 53km/h | 15040m | -7.6m/s | -50.5°C | 0.7% | 124.9hPa | 2.7V | 08:15:16 | 01:50:09 | 00:00:00 | |
| DL1XH-west | 2026-09-01 11:24:09 | 52.81162 | 8.33431 | 62° | 66km/h | 15063m | -7.5m/s | -50.7°C | 0.8% | 124.5hPa | 2.6V | 08:15:16 | 01:50:06 | 00:00:00 | |
| HSKMA3-T | 2026-09-01 11:24:08 | 52.81154 | 8.33406 | 64° | 69km/h | 15070m | -7.6m/s | -50.8°C | 0.8% | 124.3hPa | 2.7V | 08:15:16 | 01:50:05 | 00:00:00 | |
| BIOWL1-15 | 2026-09-01 11:24:07 | 52.81133 | 8.33321 | 72° | 77km/h | 15093m | -7.6m/s | -50.8°C | 0.7% | 123.9hPa | 2.6V | 08:15:16 | 01:50:02 | 00:00:00 | |
| DO2JMG | 2026-09-01 11:24:06 | 52.81139 | 8.33350 | 68° | 75km/h | 15085m | -7.4m/s | -50.8°C | 0.8% | 124.1hPa | 2.6V | 08:15:16 | 01:50:03 | 00:00:00 | |
| DL1XH-15 | 2026-09-01 11:24:06 | 52.81133 | 8.33321 | 71° | 77km/h | 15093m | -7.6m/s | -50.8°C | 3.9% | 123.9hPa | 2.6V | 08:14:53 | 01:50:02 | 00:00:00 | |
| DF8AY | 2026-09-01 11:24:04 | 52.81127 | 8.33289 | 76° | 78km/h | 15101m | -8m/s | -50.8°C | 0.7% | 123.8hPa | 2.6V | 08:15:16 | 01:50:01 | 00:00:00 | |
| AA1-15 | 2026-09-01 11:24:02 | 52.81120 | 8.33225 | 84° | 77km/h | 15117m | -8m/s | -50.9°C | 0.6% | 123.5hPa | 2.7V | 08:15:16 | 01:49:59 | 00:00:00 | |
| DL4XJ-10 | 2026-09-01 11:24:02 | 52.81120 | 8.33225 | 84° | 57km/h | 15117m | -7.9m/s | -49.5°C | 0% | 0hPa | 2.7V | 00:00:00 | 00:00:00 | 00:00:00 | |
| GOEST3-10 | 2026-09-01 11:24:01 | 52.81119 | 8.33194 | 89° | 62km/h | 15125m | -8.0m/s | -50.9°C | 3.8% | 123.3hPa | 2.7V | 00:00:00 | 01:49:58 | 00:00:00 | |
| DL1XH1-15 | 2026-09-01 11:24:00 | 52.81124 | 8.33091 | 99° | 49km/h | 15156m | -7.7m/s | -51°C | 3.8% | 122.7hPa | 2.7V | 08:15:01 | 01:49:54 | 00:00:00 | |
| DL1XH-15 | 2026-09-01 11:23:59 | 52.81126 | 8.33055 | 94° | 40km/h | 15171m | -8.1m/s | -50.9°C | 3.9% | 122.4hPa | 2.6V | 08:15:03 | 01:49:52 | 00:00:00 | |
| HSKMA3-T | 2026-09-01 11:23:58 | 52.81122 | 8.33113 | 98° | 55km/h | 15148m | -7.5m/s | -51°C | 0.7% | 122.9hPa | 2.6V | 08:15:16 | 01:49:55 | 00:00:00 | |
| DO2JMG | 2026-09-01 11:23:56 | 52.81125 | 8.33072 | 98° | 44km/h | 15163m | -8m/s | -50.9°C | 0.7% | 122.6hPa | 2.7V | 08:15:16 | 01:49:53 | 00:00:00 | |
| BIOWL1-15 | 2026-09-01 11:23:54 | 52.81127 | 8.33039 | 88° | 37km/h | 15179m | -7.7m/s | -50.9°C | 0.7% | 122.2hPa | 2.6V | 08:15:16 | 01:49:51 | 00:00:00 | |
| DF8AY | 2026-09-01 11:23:53 | 52.81126 | 8.33023 | 78° | 37km/h | 15187m | -7.8m/s | -50.9°C | 0.7% | 122.1hPa | 2.6V | 08:15:16 | 01:49:50 | 00:00:00 | |
| AA1-15 | 2026-09-01 11:23:52 | 52.81119 | 8.32993 | 65° | 44km/h | 15203m | -7.9m/s | -51°C | 0.7% | 121.8hPa | 2.7V | 08:15:16 | 01:49:48 | 00:00:00 | |
| SMARD9-15 | 2026-09-01 11:23:52 | 52.81119 | 8.32993 | 65° | 42km/h | 15203m | -7.9m/s | -51.0°C | 1.4% | 121.8hPa | 2.6V | 00:00:00 | 00:00:00 | 00:00:00 | |
| GOEST3-10 | 2026-09-01 11:23:51 | 52.81119 | 8.32992 | 66° | 55km/h | 15203m | -7.9m/s | -50.9°C | 3.9% | 121.8hPa | 2.6V | 00:00:00 | 01:49:48 | 00:00:00 | |
| DO3DL | 2026-09-01 11:23:50 | 52.81114 | 8.32975 | 63° | 49km/h | 15211m | -7.7m/s | -51.0°C | 1.4% | 121.7hPa | 2.6V | 08:15:00 | 00:00:00 | 00:00:00 | |
| BIOWL7-15 | 2026-09-01 11:23:49 | 52.81108 | 8.32956 | 62° | 55km/h | 15219m | -7.8m/s | -51.1°C | 1.4% | 121.5hPa | 2.6V | 00:00:00 | 00:00:00 | 00:00:00 | |
| DL1XH1-15 | 2026-09-01 11:23:48 | 52.81094 | 8.32911 | 65° | 66km/h | 15235m | -8.4m/s | -51.2°C | 4% | 121.3hPa | 2.6V | 08:15:11 | 01:49:44 | 00:00:00 | |
| HSKMA3-T | 2026-09-01 11:23:48 | 52.81101 | 8.32935 | 63° | 62km/h | 15226m | -8m/s | -51.2°C | 0.7% | 121.4hPa | 2.6V | 08:15:16 | 01:49:45 | 00:00:00 | |
| DL1XH-west | 2026-09-01 11:23:47 | 52.81094 | 8.32911 | 66° | 66km/h | 15235m | -8.4m/s | -51.2°C | 0.7% | 121.3hPa | 2.6V | 08:15:16 | 01:49:44 | 00:00:00 | |
| DL1XH-15 | 2026-09-01 11:23:46 | 52.81082 | 8.32857 | 75° | 71km/h | 15251m | -7.8m/s | -51.3°C | 3.9% | 121hPa | 2.7V | 08:15:13 | 01:49:42 | 00:00:00 | |
| DO2JMG | 2026-09-01 11:23:45 | 52.81082 | 8.32857 | 76° | 71km/h | 15251m | -7.8m/s | -51.3°C | 0.7% | 121hPa | 2.7V | 08:15:16 | 01:49:42 | 00:00:00 | |
| BIOWL1-15 | 2026-09-01 11:23:45 | 52.81078 | 8.32798 | 90° | 73km/h | 15266m | -7.3m/s | -51.4°C | 0.7% | 120.7hPa | 2.6V | 08:15:16 | 01:49:40 | 00:00:00 | |
| DM0DOS-11 | 2026-09-01 11:23:44 | 52.81085 | 8.32686 | 100° | 58km/h | 15298m | -8.2m/s | -51.7°C | 4% | 120.1hPa | 2.7V | 08:15:19 | 01:49:36 | 00:00:00 | |
| DF8AY | 2026-09-01 11:23:42 | 52.81078 | 8.32768 | 95° | 71km/h | 15273m | -7.8m/s | -51.5°C | 0.7% | 120.5hPa | 2.6V | 08:15:16 | 01:49:39 | 00:00:00 | |
| AA1-15 | 2026-09-01 11:23:41 | 52.81083 | 8.32711 | 99° | 66km/h | 15289m | -8.2m/s | -51.6°C | 0.6% | 120.3hPa | 2.7V | 08:16:07 | 01:49:37 | 00:00:00 | |
| DL1XH-15 | 2026-09-01 11:23:40 | 52.81090 | 8.32609 | 80° | 37km/h | 15329m | -7.8m/s | -51.7°C | 4% | 119.5hPa | 2.7V | 08:15:23 | 01:49:32 | 00:00:00 | |
| HSKMA3-T | 2026-09-01 11:23:38 | 52.81088 | 8.32663 | 100° | 53km/h | 15306m | -8.1m/s | -51.7°C | 0.7% | 119.9hPa | 2.6V | 08:16:07 | 01:49:35 | 00:00:00 | |
| DL1XH-west | 2026-09-01 11:23:37 | 52.81090 | 8.32643 | 97° | 46km/h | 15314m | -7.7m/s | -51.7°C | 0.7% | 119.8hPa | 2.6V | 08:16:07 | 01:49:34 | 00:00:00 | |
| BIOWL1-15 | 2026-09-01 11:23:35 | 52.81084 | 8.32580 | 64° | 38km/h | 15346m | -8.4m/s | -51.9°C | 0.9% | 119.2hPa | 2.6V | 08:16:07 | 01:49:30 | 00:00:00 | |
| DO2JMG | 2026-09-01 11:23:34 | 52.81087 | 8.32595 | 71° | 37km/h | 15337m | -8.2m/s | -51.8°C | 0.8% | 119.3hPa | 2.7V | 08:16:07 | 01:49:31 | 00:00:00 | |
| DF8AY | 2026-09-01 11:23:32 | 52.81079 | 8.32565 | 61° | 44km/h | 15354m | -8.7m/s | -51.9°C | 0.8% | 119hPa | 2.6V | 08:17:49 | 01:49:29 | 00:00:00 | |
| DL3AQ-11 | 2026-09-01 11:23:32 | 52.81073 | 8.32549 | 57° | 49km/h | 15363m | -8.2m/s | -52.0°C | 1.5% | 118.9hPa | 2.6V | 00:00:00 | 00:00:00 | 00:00:00 | |
| GOEST3-10 | 2026-09-01 11:23:31 | 52.81073 | 8.32549 | 58° | 64km/h | 15363m | -8.2m/s | -52.0°C | 4.2% | 118.8hPa | 2.6V | 00:00:00 | 01:49:28 | 00:00:00 | |
| DL1XH-15 | 2026-09-01 11:23:30 | 52.81031 | 8.32392 | 75° | 77km/h | 15410m | -8.6m/s | -52.2°C | 4.2% | 118hPa | 2.6V | 08:15:33 | 01:49:22 | 00:00:00 | |
| AA1-15 | 2026-09-01 11:23:30 | 52.81066 | 8.32530 | 58° | 58km/h | 15371m | -7.7m/s | -52.1°C | 0.9% | 118.7hPa | 2.7V | 08:16:07 | 01:49:27 | 00:00:00 | |
| HSKMA3-T | 2026-09-01 11:23:27 | 52.81042 | 8.32453 | 69° | 77km/h | 15394m | -7.9m/s | -52.2°C | 0.9% | 118.3hPa | 2.6V | 08:16:07 | 01:49:24 | 00:00:00 | |
| DL1XH-west | 2026-09-01 11:23:26 | 52.81036 | 8.32423 | 72° | 77km/h | 15402m | -8.3m/s | -52.2°C | 0.9% | 118.1hPa | 2.6V | 08:16:07 | 01:49:23 | 00:00:00 | |
| DB0DAN | 2026-09-01 11:23:25 | 52.81030 | 8.32392 | 75° | 73km/h | 15410m | -8.6m/s | -52.2°C | 1.5% | 117.99hPa | 2.6V | 00:00:00 | 00:00:00 | 00:00:00 | |
| DO2JMG | 2026-09-01 11:23:24 | 52.81026 | 8.32361 | 79° | 75km/h | 15419m | -8.3m/s | -52.3°C | 0.8% | 117.9hPa | 2.7V | 08:16:07 | 01:49:21 | 00:00:00 | |
| BIOWL1-15 | 2026-09-01 11:23:22 | 52.81022 | 8.32304 | 89° | 64km/h | 15434m | -7.6m/s | -52.3°C | 0.8% | 117.5hPa | 2.6V | 08:16:07 | 01:49:19 | 00:00:00 | |
| DF8AY | 2026-09-01 11:23:21 | 52.81023 | 8.32279 | 92° | 55km/h | 15442m | -7.4m/s | -52.2°C | 0.8% | 117.4hPa | 2.6V | 08:17:49 | 01:49:18 | 00:00:00 | |
| SMARD9-15 | 2026-09-01 11:23:21 | 52.81023 | 8.32258 | 93° | 46km/h | 15449m | -7.5m/s | -52.1°C | 1.4% | 117.3hPa | 2.7V | 00:00:00 | 00:00:00 | 00:00:00 | |
| DL1XH1-15 | 2026-09-01 11:23:20 | 52.81023 | 8.32208 | 81° | 35km/h | 15473m | -8.5m/s | -52°C | 4% | 116.8hPa | 2.7V | 08:15:41 | 01:49:14 | 00:00:00 | |
| DL1XH-15 | 2026-09-01 11:23:20 | 52.81017 | 8.32180 | 63° | 38km/h | 15490m | -8.1m/s | -51.9°C | 4.2% | 116.5hPa | 2.6V | 08:15:43 | 01:49:12 | 00:00:00 | |
| AA1-15 | 2026-09-01 11:23:20 | 52.81023 | 8.32258 | 93° | 47km/h | 15449m | -7.5m/s | -52.1°C | 0.7% | 117.3hPa | 2.6V | 08:16:07 | 01:49:17 | 00:00:00 | |
| HSKMA3-T | 2026-09-01 11:23:17 | 52.81023 | 8.32208 | 82° | 35km/h | 15473m | -8.5m/s | -52°C | 0.7% | 116.8hPa | 2.7V | 08:16:07 | 01:49:14 | 00:00:00 | |
| BIOWL1-15 | 2026-09-01 11:23:16 | 52.80998 | 8.32131 | 55° | 57km/h | 15513m | -7.9m/s | -52°C | 0.9% | 116.2hPa | 2.7V | 08:16:07 | 01:49:09 | 00:00:00 | |
| DL1XH-west | 2026-09-01 11:23:15 | 52.81017 | 8.32180 | 64° | 38km/h | 15490m | -8.1m/s | -51.9°C | 0.9% | 116.5hPa | 2.6V | 08:16:07 | 01:49:12 | 00:00:00 | |
| DO2JMG | 2026-09-01 11:23:13 | 52.81006 | 8.32149 | 54° | 49km/h | 15505m | -7.6m/s | -51.9°C | 0.8% | 116.3hPa | 2.7V | 08:16:07 | 01:49:10 | 00:00:00 | |
| DF8AY | 2026-09-01 11:23:11 | 52.80990 | 8.32111 | 57° | 60km/h | 15521m | -8.1m/s | -52°C | 0.9% | 116hPa | 2.6V | 08:17:49 | 01:49:08 | 00:00:00 | |
| DF5WG-10 | 2026-09-01 11:23:11 | 52.80990 | 8.32111 | 57° | 66km/h | 15521m | -8.1m/s | -51.9°C | 4.2% | 116.0hPa | 2.5V | 00:00:00 | 01:49:08 | 00:00:00 | |
| DL1XH-15 | 2026-09-01 11:23:10 | 52.80954 | 8.31953 | 85° | 68km/h | 15569m | -7.4m/s | -52.1°C | 4.1% | 115.1hPa | 2.5V | 08:15:53 | 01:49:02 | 00:00:00 | |
| HSKMA3-T | 2026-09-01 11:23:07 | 52.80960 | 8.32009 | 73° | 71km/h | 15554m | -8.2m/s | -51.9°C | 0.8% | 115.4hPa | 2.7V | 08:16:07 | 01:49:04 | 00:00:00 | |
| DL1XH-west | 2026-09-01 11:23:04 | 52.80953 | 8.31926 | 90° | 64km/h | 15577m | -7.5m/s | -52.2°C | 0.7% | 115hPa | 2.6V | 08:16:07 | 01:49:01 | 00:00:00 | |
| BIOWL1-15 | 2026-09-01 11:23:04 | 52.80955 | 8.31876 | 97° | 57km/h | 15593m | -7.8m/s | -52.3°C | 0.7% | 114.8hPa | 2.7V | 08:16:07 | 01:48:59 | 00:00:00 | |
| DO2JMG | 2026-09-01 11:23:03 | 52.80954 | 8.31900 | 94° | 60km/h | 15585m | -7.8m/s | -52.3°C | 0.7% | 114.9hPa | 2.6V | 08:16:07 | 01:49:00 | 00:00:00 | |
| DM0DOS-11 | 2026-09-01 11:23:02 | 52.80961 | 8.31813 | 98° | 47km/h | 15617m | -8.8m/s | -52.4°C | 4.2% | 114.2hPa | 2.6V | 08:15:59 | 01:48:56 | 00:00:00 | |
| DF8AY | 2026-09-01 11:23:00 | 52.80959 | 8.31833 | 100° | 49km/h | 15609m | -8.5m/s | -52.4°C | 0.8% | 114.5hPa | 2.6V | 08:17:49 | 01:48:57 | 00:00:00 | |
| DL1XH-15 | 2026-09-01 11:22:59 | 52.80959 | 8.31736 | 72° | 51km/h | 15649m | -7.1m/s | -52.2°C | 4.2% | 113.8hPa | 2.7V | 08:16:03 | 01:48:52 | 00:00:00 | |
| HSKMA3-T | 2026-09-01 11:22:56 | 52.80961 | 8.31756 | 80° | 46km/h | 15641m | -7.3m/s | -52.3°C | 0.8% | 113.9hPa | 2.7V | 08:16:07 | 01:48:53 | 00:00:00 | |
| GOEST3-10 | 2026-09-01 11:22:56 | 52.80961 | 8.31756 | 80° | 53km/h | 15642m | -7.3m/s | -52.2°C | 4.2% | 113.8hPa | 2.7V | 00:00:00 | 00:00:00 | 00:00:00 | |
| DM0DOS-11 | 2026-09-01 11:22:54 | 52.80928 | 8.31613 | 64° | 49km/h | 15694m | -7.7m/s | -52.3°C | 4.3% | 113hPa | 2.6V | 08:16:09 | 01:48:46 | 00:00:00 | |
| DL1XH-west | 2026-09-01 11:22:53 | 52.80949 | 8.31694 | 69° | 57km/h | 15663m | -7.7m/s | -52.3°C | 0.9% | 113.4hPa | 2.6V | 08:16:07 | 01:48:50 | 00:00:00 | |
| DO2JMG | 2026-09-01 11:22:52 | 52.80944 | 8.31672 | 69° | 55km/h | 15671m | -7.9m/s | -52.3°C | 0.9% | 113.4hPa | 2.6V | 08:16:07 | 01:48:49 | 00:00:00 | |
| BIOWL1-15 | 2026-09-01 11:22:51 | 52.80939 | 8.31651 | 67° | 51km/h | 15679m | -7.4m/s | -52.3°C | 0.8% | 113.2hPa | 2.7V | 08:16:07 | 01:48:48 | 00:00:00 | |
| BIOWL9-15 | 2026-09-01 11:22:51 | 52.80934 | 8.31632 | 65° | 49km/h | 15687m | -7.6m/s | -52.3°C | 1.5% | 113.1hPa | 2.7V | 00:00:00 | 00:00:00 | 00:00:00 | |
| SMARD9-15 | 2026-09-01 11:22:50 | 52.80928 | 8.31613 | 64° | 47km/h | 15694m | -7.7m/s | -52.3°C | 1.5% | 113.0hPa | 2.7V | 00:00:00 | 00:00:00 | 00:00:00 | |
| DL1XH-15 | 2026-09-01 11:22:49 | 52.80904 | 8.31536 | 64° | 57km/h | 15727m | -8.5m/s | -52.2°C | 4.2% | 112.3hPa | 2.7V | 08:16:13 | 01:48:42 | 00:00:00 | |
| DF8AY | 2026-09-01 11:22:48 | 52.80923 | 8.31594 | 63° | 49km/h | 15702m | -8.1m/s | -52.3°C | 0.9% | 112.8hPa | 2.6V | 08:17:49 | 01:48:45 | 00:00:00 | |
| HSKMA3-T | 2026-09-01 11:22:45 | 52.80905 | 8.31536 | 64° | 57km/h | 15727m | -8.5m/s | -52.2°C | 0.8% | 112.3hPa | 2.7V | 08:16:58 | 01:48:42 | 00:00:00 | |
| DD1CC8 | 2026-09-01 11:22:44 | 52.80898 | 8.31513 | 67° | 60km/h | 15735m | -8.2m/s | -52.2°C | 1.4% | 112.2hPa | 2.6V | 00:00:00 | 00:00:00 | 00:00:00 | |
| DL1XH-west | 2026-09-01 11:22:42 | 52.80889 | 8.31461 | 78° | 71km/h | 15751m | -7.4m/s | -52.1°C | 0.7% | 112hPa | 2.6V | 08:16:58 | 01:48:39 | 00:00:00 | |
| DO2JMG | 2026-09-01 11:22:41 | 52.80886 | 8.31431 | 84° | 75km/h | 15758m | -7.8m/s | -52.1°C | 0.7% | 111.8hPa | 2.6V | 08:16:58 | 01:48:38 | 00:00:00 | |
| BIOWL1-15 | 2026-09-01 11:22:40 | 52.80884 | 8.31400 | 87° | 77km/h | 15767m | -8.5m/s | -52.1°C | 0.7% | 111.7hPa | 2.7V | 08:16:58 | 01:48:37 | 00:00:00 | |
| DF8AY | 2026-09-01 11:22:37 | 52.80886 | 8.31310 | 96° | 64km/h | 15792m | -8.3m/s | -52.1°C | 0.7% | 111.3hPa | 2.6V | 08:17:49 | 01:48:34 | 00:00:00 | |
| AA1-15 | 2026-09-01 11:22:35 | 52.80890 | 8.31263 | 101° | 49km/h | 15808m | -7.3m/s | -52.2°C | 0.8% | 111hPa | 2.7V | 08:16:58 | 01:48:32 | 00:00:00 | |
| HSKMA3-T | 2026-09-01 11:22:34 | 52.80892 | 8.31244 | 101° | 44km/h | 15815m | -7.5m/s | -52.2°C | 0.8% | 110.8hPa | 2.6V | 08:16:58 | 01:48:31 | 00:00:00 | |
| DL1XH-west | 2026-09-01 11:22:31 | 52.80897 | 8.31196 | 95° | 37km/h | 15839m | -8.4m/s | -52.1°C | 0.8% | 110.5hPa | 2.7V | 08:16:58 | 01:48:28 | 00:00:00 | |
| DO2JMG | 2026-09-01 11:22:30 | 52.80897 | 8.31181 | 91° | 37km/h | 15847m | -8.2m/s | -52.1°C | 0.8% | 110.3hPa | 2.7V | 08:16:58 | 01:48:27 | 00:00:00 | |
| BIOWL1-15 | 2026-09-01 11:22:29 | 52.80895 | 8.31152 | 74° | 37km/h | 15864m | -7.9m/s | -52.2°C | 0.8% | 110hPa | 2.6V | 08:16:58 | 01:48:25 | 00:00:00 | |
| DL1XH1-15 | 2026-09-01 11:22:28 | 52.80892 | 8.31137 | 67° | 38km/h | 15872m | -7.9m/s | -52.2°C | 4.1% | 109.9hPa | 2.6V | 08:16:31 | 01:48:24 | 00:00:00 | |
| DF8AY | 2026-09-01 11:22:26 | 52.80887 | 8.31122 | 63° | 42km/h | 15879m | -8.1m/s | -52.3°C | 0.8% | 109.7hPa | 2.6V | 08:17:49 | 01:48:23 | 00:00:00 | |
| DB0DAN | 2026-09-01 11:22:25 | 52.80882 | 8.31106 | 62° | 42km/h | 15888m | -8.3m/s | -52.4°C | 1.4% | 109.61hPa | 2.7V | 00:00:00 | 00:00:00 | 00:00:00 | |
| AA1-15 | 2026-09-01 11:22:24 | 52.80877 | 8.31090 | 63° | 46km/h | 15896m | -8.3m/s | -52.4°C | 0.8% | 109.5hPa | 2.7V | 08:17:49 | 01:48:21 | 00:00:00 | |
| HSKMA3-T | 2026-09-01 11:22:23 | 52.80872 | 8.31072 | 64° | 49km/h | 15904m | -8.3m/s | -52.5°C | 0.8% | 109.3hPa | 2.6V | 08:16:58 | 01:48:20 | 00:00:00 | |
| DL1XH-west | 2026-09-01 11:22:21 | 52.80862 | 8.31031 | 74° | 57km/h | 15920m | -7.8m/s | -52.5°C | 0.8% | 109hPa | 2.6V | 08:16:58 | 01:48:18 | 00:00:00 | |
| DO2JMG | 2026-09-01 11:22:20 | 52.80858 | 8.31007 | 78° | 58km/h | 15928m | -8m/s | -52.5°C | 0.9% | 109hPa | 2.7V | 08:16:58 | 01:48:17 | 00:00:00 | |
| DL1XH1-15 | 2026-09-01 11:22:20 | 52.80851 | 8.30931 | 83° | 64km/h | 15952m | -8m/s | -52.6°C | 4.3% | 108.5hPa | 2.6V | 08:16:41 | 01:48:14 | 00:00:00 | |
| BIOWL9-15 | 2026-09-01 11:22:20 | 52.80855 | 8.30983 | 81° | 60km/h | 15936m | -7.7m/s | -52.6°C | 1.5% | 108.8hPa | 2.6V | 00:00:00 | 00:00:00 | 00:00:00 | |
| DL1XH-15 | 2026-09-01 11:22:19 | 52.80847 | 8.30877 | 80° | 66km/h | 15968m | -8.2m/s | -52.7°C | 4.4% | 108.2hPa | 2.6V | 08:16:43 | 01:48:12 | 00:00:00 | |
| BIOWL1-15 | 2026-09-01 11:22:19 | 52.80855 | 8.30983 | 81° | 62km/h | 15936m | -7.7m/s | -52.6°C | 0.8% | 108.8hPa | 2.7V | 08:16:58 | 01:48:16 | 00:00:00 | |
| DF8AY | 2026-09-01 11:22:15 | 52.80847 | 8.30877 | 80° | 66km/h | 15968m | -8.2m/s | -52.7°C | 0.9% | 108.2hPa | 2.6V | 08:17:49 | 01:48:12 | 00:00:00 | |
| AA1-15 | 2026-09-01 11:22:14 | 52.80844 | 8.30850 | 78° | 66km/h | 15976m | -7.9m/s | -52.7°C | 0.9% | 108.2hPa | 2.7V | 08:16:58 | 01:48:11 | 00:00:00 | |
| HSKMA3-T | 2026-09-01 11:22:13 | 52.80840 | 8.30823 | 77° | 68km/h | 15984m | -8.2m/s | -52.6°C | 0.9% | 108hPa | 2.7V | 08:16:58 | 01:48:10 | 00:00:00 | |
| DL3AQ-11 | 2026-09-01 11:22:12 | 52.80831 | 8.30769 | 71° | 68km/h | 16001m | -8.3m/s | -52.5°C | 1.5% | 107.7hPa | 2.7V | 00:00:00 | 00:00:00 | 00:00:00 | |
| DM0DOS-11 | 2026-09-01 11:22:11 | 52.80818 | 8.30717 | 63° | 64km/h | 16018m | -8.5m/s | -52.3°C | 4.3% | 107.4hPa | 2.7V | 08:16:49 | 01:48:06 | 00:00:00 | |
| DB0DAN | 2026-09-01 11:22:10 | 52.80825 | 8.30742 | 68° | 64km/h | 16009m | -8.6m/s | -52.4°C | 1.4% | 107.55hPa | 2.6V | 00:00:00 | 00:00:00 | 00:00:00 | |
| DL1XH-west | 2026-09-01 11:22:10 | 52.80825 | 8.30742 | 68° | 68km/h | 16009m | -8.6m/s | -52.4°C | 0.8% | 107.5hPa | 2.6V | 08:16:58 | 01:48:07 | 00:00:00 | |
| DO2JMG | 2026-09-01 11:22:09 | 52.80818 | 8.30717 | 64° | 64km/h | 16018m | -8.5m/s | -52.3°C | 0.8% | 107.4hPa | 2.7V | 08:16:58 | 01:48:06 | 00:00:00 | |
| DL1XH-15 | 2026-09-01 11:22:09 | 52.80790 | 8.30643 | 54° | 38km/h | 16053m | -8.8m/s | -51.8°C | 4.1% | 106.8hPa | 2.6V | 08:16:53 | 01:48:02 | 00:00:00 | |
| DL1XH1-15 | 2026-09-01 11:22:09 | 52.80803 | 8.30674 | 56° | 55km/h | 16035m | -9m/s | -52°C | 4.2% | 107.1hPa | 2.7V | 08:16:51 | 01:48:04 | 00:00:00 | |
| DF8AY | 2026-09-01 11:22:05 | 52.80790 | 8.30643 | 55° | 38km/h | 16053m | -8.8m/s | -51.8°C | 0.7% | 106.8hPa | 2.6V | 08:17:49 | 01:48:02 | 00:00:00 | |
| AA1-15 | 2026-09-01 11:22:03 | 52.80783 | 8.30620 | 82° | 24km/h | 16071m | -9m/s | -51.7°C | 0.6% | 106.5hPa | 2.7V | 08:16:58 | 01:48:00 | 00:00:00 | |
| HSKMA3-T | 2026-09-01 11:22:02 | 52.80783 | 8.30610 | 104° | 26km/h | 16079m | -9.1m/s | -51.6°C | 0.7% | 106.4hPa | 2.7V | 08:16:58 | 01:47:59 | 00:00:00 | |
| DL4XJ-10 | 2026-09-01 11:22:02 | 52.80783 | 8.30610 | 104° | 51km/h | 16079m | -9.0m/s | -50.2°C | 0% | 0hPa | 2.7V | 00:00:00 | 00:00:00 | 00:00:00 | |
| DM0DOS-11 | 2026-09-01 11:22:01 | 52.80795 | 8.30564 | 113° | 55km/h | 16106m | -8.5m/s | -51.7°C | 4% | 105.9hPa | 2.7V | 08:16:59 | 01:47:56 | 00:00:00 | |
| GOEST3-10 | 2026-09-01 11:22:01 | 52.80786 | 8.30598 | 114° | 53km/h | 16089m | -8.9m/s | -51.5°C | 4.0% | 106.2hPa | 2.6V | 00:00:00 | 01:47:58 | 00:00:00 | |
| DL1XH-15 | 2026-09-01 11:22:00 | 52.80806 | 8.30453 | 85° | 73km/h | 16140m | -9m/s | -51.4°C | 4% | 105.4hPa | 2.6V | 08:17:03 | 01:47:52 | 00:00:00 | |
| DL1XH-west | 2026-09-01 11:22:00 | 52.80790 | 8.30583 | 116° | 44km/h | 16097m | -8.7m/s | -51.6°C | 0.7% | 106hPa | 2.6V | 08:16:58 | 01:47:57 | 00:00:00 | |
| DO2JMG | 2026-09-01 11:21:58 | 52.80800 | 8.30541 | 107° | 64km/h | 16114m | -8.3m/s | -51.7°C | 0.7% | 105.8hPa | 2.7V | 08:17:49 | 01:47:55 | 00:00:00 | |
| DF8AY | 2026-09-01 11:21:54 | 52.80803 | 8.30423 | 78° | 71km/h | 16150m | -9m/s | -51.4°C | 0.6% | 105.2hPa | 2.7V | 08:17:49 | 01:47:51 | 00:00:00 | |
| HSKMA3-T | 2026-09-01 11:21:52 | 52.80793 | 8.30371 | 65° | 60km/h | 16167m | -8.9m/s | -51.4°C | 0.6% | 104.9hPa | 2.7V | 08:17:49 | 01:47:49 | 00:00:00 | |
| SMARD9-10 | 2026-09-01 11:21:52 | 52.80792 | 8.30371 | 66° | 60km/h | 16168m | -8.9m/s | -51.4°C | 1.3% | 104.9hPa | 2.6V | 08:17:00 | 00:00:00 | 00:00:00 | |
| GOEST3-10 | 2026-09-01 11:21:51 | 52.80786 | 8.30350 | 61° | 37km/h | 16176m | -9.0m/s | -51.5°C | 3.9% | 104.7hPa | 2.6V | 00:00:00 | 01:47:48 | 00:00:00 | |
| DM0DOS-11 | 2026-09-01 11:21:50 | 52.80776 | 8.30319 | 66° | 33km/h | 16194m | -9m/s | -51.6°C | 3.9% | 104.5hPa | 2.6V | 08:17:09 | 01:47:46 | 00:00:00 | |
| DL1XH-west | 2026-09-01 11:21:50 | 52.80780 | 8.30333 | 60° | 42km/h | 16185m | -9.1m/s | -51.6°C | 0.7% | 104.7hPa | 2.6V | 08:17:49 | 01:47:47 | 00:00:00 | |
| DL1XH-15 | 2026-09-01 11:21:49 | 52.80782 | 8.30267 | 117° | 47km/h | 16228m | -8.6m/s | -51.6°C | 4% | 103.9hPa | 2.6V | 08:17:13 | 01:47:42 | 00:00:00 | |
| DO2JMG | 2026-09-01 11:21:48 | 52.80774 | 8.30308 | 83° | 27km/h | 16203m | -8.6m/s | -51.7°C | 0.6% | 104.4hPa | 2.7V | 08:17:49 | 01:47:45 | 00:00:00 | |
| DL1XH1-15 | 2026-09-01 11:21:48 | 52.80775 | 8.30296 | 104° | 29km/h | 16211m | -8.5m/s | -51.6°C | 4% | 104.2hPa | 2.7V | 08:17:11 | 01:47:44 | 00:00:00 | |
| BIOWL1-15 | 2026-09-01 11:21:47 | 52.80778 | 8.30283 | 116° | 38km/h | 16220m | -8.6m/s | -51.6°C | 0.6% | 104.1hPa | 2.6V | 08:17:49 | 01:47:43 | 00:00:00 | |
| DF8AY | 2026-09-01 11:21:45 | 52.80788 | 8.30248 | 115° | 57km/h | 16237m | -8.6m/s | -51.7°C | 0.7% | 103.8hPa | 2.6V | 08:17:49 | 01:47:41 | 00:00:00 | |
| DM0DOS-11 | 2026-09-01 11:21:45 | 52.80794 | 8.30085 | 70° | 64km/h | 16290m | -9m/s | -51.6°C | 4.2% | 103hPa | 2.6V | 08:17:20 | 01:47:35 | 00:00:00 | |
| HSKMA3-T | 2026-09-01 11:21:41 | 52.80801 | 8.30170 | 94° | 69km/h | 16264m | -9.1m/s | -51.7°C | 0.8% | 103.4hPa | 2.7V | 08:17:49 | 01:47:38 | 00:00:00 | |
| DB0DAN | 2026-09-01 11:21:40 | 52.80801 | 8.30140 | 86° | 68km/h | 16273m | -8.7m/s | -51.7°C | 1.4% | 103.28hPa | 2.6V | 00:00:00 | 00:00:00 | 00:00:00 | |
| DL1XH1-15 | 2026-09-01 11:21:40 | 52.80788 | 8.30062 | 63° | 58km/h | 16299m | -9.5m/s | -51.5°C | 4.1% | 102.8hPa | 2.7V | 08:17:21 | 01:47:34 | 00:00:00 | |
| DL1XH-west | 2026-09-01 11:21:39 | 52.80794 | 8.30085 | 70° | 64km/h | 16290m | -9m/s | -51.6°C | 0.7% | 103hPa | 2.6V | 08:17:49 | 01:47:35 | 00:00:00 | |
| BIOWL1-15 | 2026-09-01 11:21:37 | 52.80788 | 8.30062 | 64° | 58km/h | 16299m | -9.5m/s | -51.5°C | 0.7% | 102.8hPa | 2.7V | 08:17:49 | 01:47:34 | 00:00:00 | |
| DF8AY | 2026-09-01 11:21:33 | 52.80762 | 8.29997 | 81° | 16km/h | 16344m | -8.8m/s | -51.2°C | 0.6% | 102.1hPa | 2.7V | 08:17:49 | 01:47:29 | 00:00:00 | |
| DM0DOS-11 | 2026-09-01 11:21:33 | 52.80769 | 8.29967 | 115° | 40km/h | 16371m | -9.2m/s | -51.3°C | 4.1% | 101.7hPa | 2.6V | 08:17:29 | 01:47:26 | 00:00:00 | |
| HSKMA3-T | 2026-09-01 11:21:30 | 52.80765 | 8.29980 | 118° | 29km/h | 16362m | -8.8m/s | -51.2°C | 0.6% | 101.8hPa | 2.7V | 08:17:49 | 01:47:27 | 00:00:00 | |
| DL1XH-west | 2026-09-01 11:21:29 | 52.80773 | 8.29949 | 111° | 49km/h | 16380m | -9.1m/s | -51.3°C | 0.7% | 101.6hPa | 2.6V | 08:17:49 | 01:47:25 | 00:00:00 | |
| DL1XH-15 | 2026-09-01 11:21:29 | 52.80780 | 8.29877 | 87° | 68km/h | 16407m | -9.1m/s | -51°C | 4% | 101.1hPa | 2.7V | 08:17:33 | 01:47:22 | 00:00:00 | |
| DL1XH1-15 | 2026-09-01 11:21:28 | 52.80777 | 8.29928 | 103° | 57km/h | 16389m | -9.3m/s | -51.3°C | 4.1% | 101.4hPa | 2.6V | 08:17:31 | 01:47:24 | 00:00:00 | |
| DO2JMG | 2026-09-01 11:21:28 | 52.80777 | 8.29928 | 104° | 57km/h | 16389m | -9.3m/s | -51.3°C | 0.7% | 101.4hPa | 2.6V | 08:17:49 | 01:47:24 | 00:00:00 | |
| BIOWL1-15 | 2026-09-01 11:21:26 | 52.80779 | 8.29849 | 80° | 69km/h | 16417m | -9m/s | -50.8°C | 0.6% | 101hPa | 2.6V | 08:17:49 | 01:47:21 | 00:00:00 | |
| DB0DAN | 2026-09-01 11:21:25 | 52.80781 | 8.29877 | 88° | 64km/h | 16408m | -9.1m/s | -51°C | 1.3% | 101.12hPa | 2.7V | 00:00:00 | 00:00:00 | 00:00:00 | |
| DO3DL | 2026-09-01 11:21:24 | 52.80780 | 8.29877 | 89° | 68km/h | 16408m | -9.1m/s | -51.0°C | 1.3% | 101.1hPa | 2.6V | 08:17:00 | 00:00:00 | 00:00:00 | |
| DD1CC2-15 | 2026-09-01 11:21:23 | 52.80779 | 8.29849 | 81° | 69km/h | 16417m | -9.0m/s | -50.8°C | 1.3% | 101.0hPa | 2.6V | 08:17:00 | 00:00:00 | 00:00:00 | |
| DM0DOS-11 | 2026-09-01 11:21:22 | 52.80746 | 8.29740 | 51° | 38km/h | 16462m | -9m/s | -50.3°C | 3.8% | 100.3hPa | 2.6V | 08:17:39 | 01:47:16 | 00:00:00 | |
| HSKMA3-T | 2026-09-01 11:21:20 | 52.80753 | 8.29755 | 53° | 49km/h | 16453m | -9.3m/s | -50.4°C | 0.5% | 100.4hPa | 2.6V | 08:17:49 | 01:47:17 | 00:00:00 | |
| DL1XH-west | 2026-09-01 11:21:19 | 52.80746 | 8.29740 | 52° | 38km/h | 16462m | -9m/s | -50.3°C | 0.5% | 100.3hPa | 2.6V | 08:17:49 | 01:47:16 | 00:00:00 | |
| DO2JMG | 2026-09-01 11:21:17 | 52.80738 | 8.29719 | 78° | 24km/h | 16479m | -8.2m/s | -50.3°C | 0.5% | 100hPa | 2.7V | 08:17:49 | 01:47:14 | 00:00:00 | |
| BIOWL1-15 | 2026-09-01 11:21:16 | 52.80749 | 8.29647 | 97° | 51km/h | 16523m | -8.7m/s | -50.3°C | 0.6% | 99.3hPa | 2.6V | 08:17:49 | 01:47:09 | 00:00:00 | |
| GOEST3-10 | 2026-09-01 11:21:16 | 52.80738 | 8.29709 | 102° | 38km/h | 16488m | -8.3m/s | -50.3°C | 3.7% | 99.8hPa | 2.6V | 00:00:00 | 00:00:00 | 00:00:00 | |
| DL8OAI-8 | 2026-09-01 11:21:13 | 52.80747 | 8.29667 | 106° | 46km/h | 16514m | -9.2m/s | -50.4°C | 1.3% | 99.5hPa | 2.6V | 08:17:00 | 00:00:00 | 00:00:00 | |
| DM0DOS-11 | 2026-09-01 11:21:12 | 52.80745 | 8.29580 | 72° | 57km/h | 16547m | -8m/s | -50°C | 3.8% | 99hPa | 2.6V | 08:17:49 | 01:47:06 | 00:00:00 | |
| HSKMA3-T | 2026-09-01 11:21:10 | 52.80748 | 8.29603 | 79° | 57km/h | 16539m | -7.6m/s | -50.1°C | 0.6% | 99.1hPa | 2.7V | 08:17:49 | 01:47:07 | 00:00:00 | |
| DL1XH-west | 2026-09-01 11:21:09 | 52.80740 | 8.29558 | 68° | 57km/h | 16555m | -8.2m/s | -50°C | 0.5% | 98.9hPa | 2.6V | 08:18:40 | 01:47:05 | 00:00:00 | |
| DL1XH1-15 | 2026-09-01 11:21:08 | 52.80734 | 8.29536 | 66° | 58km/h | 16563m | -8.2m/s | -50°C | 3.8% | 98.7hPa | 2.6V | 08:17:51 | 01:47:04 | 00:00:00 | |
| DO2JMG | 2026-09-01 11:21:06 | 52.80728 | 8.29513 | 68° | 60km/h | 16571m | -8.7m/s | -49.9°C | 0.4% | 98.7hPa | 2.7V | 08:18:40 | 01:47:03 | 00:00:00 | |
| BIOWL1-15 | 2026-09-01 11:21:03 | 52.80708 | 8.29391 | 84° | 58km/h | 16617m | -9.4m/s | -49.9°C | 0.4% | 97.9hPa | 2.6V | 08:18:40 | 01:46:58 | 00:00:00 | |
| DF5WG-10 | 2026-09-01 11:21:03 | 52.80713 | 8.29440 | 76° | 42km/h | 16598m | -9.2m/s | -49.8°C | 3.6% | 98.2hPa | 2.7V | 00:00:00 | 01:47:00 | 00:00:00 | |
| DM0DOS-11 | 2026-09-01 11:21:02 | 52.80707 | 8.29347 | 93° | 46km/h | 16635m | -8.9m/s | -50°C | 3.6% | 97.7hPa | 2.7V | 08:17:59 | 01:46:56 | 00:00:00 | |
| DF8AY | 2026-09-01 11:21:00 | 52.80707 | 8.29368 | 89° | 53km/h | 16626m | -8.9m/s | -49.9°C | 0.4% | 97.8hPa | 2.7V | 08:18:40 | 01:46:57 | 00:00:00 | |
| DL1XH1-15 | 2026-09-01 11:21:00 | 52.80709 | 8.29317 | 94° | 29km/h | 16652m | -8.4m/s | -50°C | 3.6% | 97.4hPa | 2.6V | 08:18:01 | 01:46:54 | 00:00:00 | |
| HSKMA3-T | 2026-09-01 11:20:59 | 52.80707 | 8.29347 | 94° | 46km/h | 16635m | -8.9m/s | -50°C | 0.4% | 97.7hPa | 2.7V | 08:18:40 | 01:46:56 | 00:00:00 | |
| DL1XH-west | 2026-09-01 11:20:58 | 52.80708 | 8.29330 | 96° | 37km/h | 16644m | -8.2m/s | -50°C | 0.4% | 97.6hPa | 2.6V | 08:18:40 | 01:46:55 | 00:00:00 | |
| DO2JMG | 2026-09-01 11:20:55 | 52.80708 | 8.29298 | 77° | 18km/h | 16670m | -9m/s | -50°C | 0.5% | 97.2hPa | 2.7V | 08:18:40 | 01:46:52 | 00:00:00 | |
| DF5WG-10 | 2026-09-01 11:20:53 | 52.80704 | 8.29284 | 45° | 47km/h | 16688m | -9.5m/s | -50.0°C | 3.6% | 96.8hPa | 2.7V | 00:00:00 | 01:46:50 | 00:00:00 | |
| DM0DOS-11 | 2026-09-01 11:20:52 | 52.80678 | 8.29250 | 45° | 47km/h | 16724m | -8.1m/s | -50.3°C | 3.8% | 96.3hPa | 2.7V | 08:18:09 | 01:46:46 | 00:00:00 | |
| BIOWL1-15 | 2026-09-01 11:20:51 | 52.80661 | 8.29214 | 56° | 60km/h | 16741m | -8.3m/s | -50.3°C | 0.6% | 96.1hPa | 2.6V | 08:18:40 | 01:46:44 | 00:00:00 | |
| DF8AY | 2026-09-01 11:20:50 | 52.80686 | 8.29262 | 40° | 40km/h | 16716m | -8.8m/s | -50.2°C | 0.5% | 96.5hPa | 2.7V | 08:18:40 | 01:46:47 | 00:00:00 | |
| HSKMA3-T | 2026-09-01 11:20:49 | 52.80678 | 8.29250 | 45° | 47km/h | 16724m | -8.1m/s | -50.3°C | 0.5% | 96.3hPa | 2.7V | 08:18:40 | 01:46:46 | 00:00:00 | |
| BUE01 | 2026-09-01 11:20:49 | 52.80652 | 8.29193 | 58° | 62km/h | 16749m | -8.7m/s | -50.4°C | 1.3% | 96.0hPa | 2.7V | 00:00:00 | 00:00:00 | 00:00:00 | |
| DL1XH-15 | 2026-09-01 11:20:48 | 52.80645 | 8.29170 | 60° | 64km/h | 16758m | -8.8m/s | -50.4°C | 3.8% | 95.8hPa | 2.7V | 08:18:13 | 01:46:42 | 00:00:00 | |
| DL1XH1-15 | 2026-09-01 11:20:48 | 52.80661 | 8.29214 | 55° | 60km/h | 16741m | -8.3m/s | -50.3°C | 3.9% | 96.1hPa | 2.6V | 08:18:11 | 01:46:44 | 00:00:00 | |
| DL1XH-west | 2026-09-01 11:20:48 | 52.80669 | 8.29234 | 51° | 55km/h | 16732m | -7.9m/s | -50.3°C | 0.6% | 96.2hPa | 2.6V | 08:18:40 | 01:46:45 | 00:00:00 | |
| DO2JMG | 2026-09-01 11:20:45 | 52.80644 | 8.29170 | 61° | 64km/h | 16758m | -8.8m/s | -50.4°C | 0.6% | 95.8hPa | 2.7V | 08:18:40 | 01:46:42 | 00:00:00 | |
| DK9SH | 2026-09-01 11:20:44 | 52.80636 | 8.29147 | 64° | 66km/h | 16767m | -8.6m/s | -50.4°C | 1.2% | 95.7hPa | 2.7V | 08:18:00 | 00:00:00 | 00:00:00 | |
| DD1CC2-15 | 2026-09-01 11:20:43 | 52.80629 | 8.29122 | 66° | 66km/h | 16775m | -8.6m/s | -50.4°C | 1.3% | 95.6hPa | 2.7V | 08:18:00 | 00:00:00 | 00:00:00 | |
| DL4XJ-10 | 2026-09-01 11:20:42 | 52.80623 | 8.29097 | 69° | 47km/h | 16784m | -8.4m/s | -49.1°C | 0% | 0hPa | 2.7V | 00:00:00 | 00:00:00 | 00:00:00 | |
| DB0DAN | 2026-09-01 11:20:40 | 52.80613 | 8.29043 | 77° | 66km/h | 16801m | -8.9m/s | -50.5°C | 1.2% | 95.22hPa | 2.7V | 00:00:00 | 00:00:00 | 00:00:00 | |
| DL1XH1-15 | 2026-09-01 11:20:40 | 52.80606 | 8.28959 | 87° | 66km/h | 16829m | -9.4m/s | -50.5°C | 3.8% | 94.8hPa | 2.6V | 08:18:21 | 01:46:34 | 00:00:00 | |
| DF8AY | 2026-09-01 11:20:40 | 52.80613 | 8.29043 | 78° | 68km/h | 16801m | -8.9m/s | -50.5°C | 0.5% | 95.2hPa | 2.7V | 08:18:40 | 01:46:37 | 00:00:00 | |
| DL4BBY-15 | 2026-09-01 11:20:40 | 52.80613 | 8.29043 | 78° | 46km/h | 16801m | -8.9m/s | -49.2°C | 0% | 0hPa | 2.6V | 00:00:00 | 00:00:00 | 00:00:00 | |
| DL1XH-15 | 2026-09-01 11:20:39 | 52.80606 | 8.28909 | 94° | 55km/h | 16847m | -9.1m/s | -50.4°C | 3.7% | 94.5hPa | 2.6V | 08:18:23 | 01:46:32 | 00:00:00 | |
| HSKMA3-T | 2026-09-01 11:20:39 | 52.80610 | 8.29015 | 81° | 68km/h | 16810m | -9.1m/s | -50.6°C | 0.5% | 95.1hPa | 2.7V | 08:18:40 | 01:46:36 | 00:00:00 | |
| BIOWL1-15 | 2026-09-01 11:20:38 | 52.80606 | 8.28933 | 91° | 60km/h | 16838m | -9.1m/s | -50.4°C | 0.5% | 94.6hPa | 2.6V | 08:18:40 | 01:46:33 | 00:00:00 | |
| DL1XH-west | 2026-09-01 11:20:38 | 52.80607 | 8.28987 | 84° | 68km/h | 16819m | -9.4m/s | -50.6°C | 0.6% | 94.9hPa | 2.7V | 08:18:40 | 01:46:35 | 00:00:00 | |
| AA1-15 | 2026-09-01 11:20:37 | 52.80606 | 8.28959 | 87° | 66km/h | 16829m | -9.4m/s | -50.5°C | 0.5% | 94.8hPa | 2.6V | 08:18:40 | 01:46:34 | 00:00:00 | |
| DO2JMG | 2026-09-01 11:20:34 | 52.80607 | 8.28889 | 95° | 47km/h | 16856m | -8.7m/s | -50.4°C | 0.5% | 94.4hPa | 2.7V | 08:18:40 | 01:46:31 | 00:00:00 | |
| DO3DL | 2026-09-01 11:20:33 | 52.80608 | 8.28871 | 93° | 40km/h | 16865m | -8.3m/s | -50.4°C | 1.2% | 94.3hPa | 2.7V | 08:18:00 | 00:00:00 | 00:00:00 | |
| DM0DOS-11 | 2026-09-01 11:20:32 | 52.80602 | 8.28821 | 63° | 27km/h | 16899m | -8.9m/s | -50.3°C | 3.8% | 93.8hPa | 2.7V | 08:18:29 | 01:46:26 | 00:00:00 | |
| GOEST3-10 | 2026-09-01 11:20:31 | 52.80607 | 8.28843 | 78° | 29km/h | 16881m | -8.6m/s | -50.3°C | 3.7% | 94.0hPa | 2.7V | 00:00:00 | 01:46:28 | 00:00:00 | |
| DL1XH-15 | 2026-09-01 11:20:30 | 52.80577 | 8.28766 | 56° | 46km/h | 16945m | -9m/s | -50.2°C | 3.8% | 93.2hPa | 2.7V | 08:18:34 | 01:46:21 | 00:00:00 | |
| DO9LL-15 | 2026-09-01 11:20:30 | 52.80605 | 8.28832 | 72° | 40km/h | 16890m | -8.9m/s | -50.3°C | 3.8% | 93.9hPa | 2.6V | 00:00:00 | 01:46:27 | 00:00:00 | |
| DL1XH1-15 | 2026-09-01 11:20:28 | 52.80594 | 8.28802 | 49° | 31km/h | 16918m | -9.6m/s | -50.2°C | 3.8% | 93.5hPa | 2.6V | 08:18:31 | 01:46:24 | 00:00:00 | |
| HSKMA3-T | 2026-09-01 11:20:28 | 52.80599 | 8.28812 | 55° | 27km/h | 16908m | -9.2m/s | -50.2°C | 0.5% | 93.7hPa | 2.6V | 08:18:40 | 01:46:25 | 00:00:00 | |
| DL1XH-west | 2026-09-01 11:20:27 | 52.80594 | 8.28802 | 50° | 31km/h | 16918m | -9.6m/s | -50.2°C | 0.5% | 93.5hPa | 2.6V | 08:18:40 | 01:46:24 | 00:00:00 | |
| AA1-15 | 2026-09-01 11:20:26 | 52.80589 | 8.28792 | 49° | 35km/h | 16927m | -9.3m/s | -50.2°C | 0.5% | 93.4hPa | 2.6V | 08:18:40 | 01:46:23 | 00:00:00 | |
| BIOWL1-15 | 2026-09-01 11:20:26 | 52.80577 | 8.28766 | 57° | 46km/h | 16945m | -9m/s | -50.3°C | 0.6% | 93.2hPa | 2.7V | 08:18:40 | 01:46:21 | 00:00:00 | |
| DB0DAN | 2026-09-01 11:20:25 | 52.80583 | 8.28780 | 52° | 37km/h | 16936m | -9.1m/s | -50.2°C | 1.3% | 93.27hPa | 2.7V | 00:00:00 | 00:00:00 | 00:00:00 | |
| DO2JMG | 2026-09-01 11:20:24 | 52.80571 | 8.28748 | 64° | 51km/h | 16954m | -8.6m/s | -50.3°C | 0.6% | 93hPa | 2.7V | 08:18:40 | 01:46:20 | 00:00:00 | |
| DK9SH | 2026-09-01 11:20:23 | 52.80577 | 8.28766 | 58° | 46km/h | 16946m | -9.0m/s | -50.2°C | 1.2% | 93.2hPa | 2.7V | 08:18:00 | 00:00:00 | 00:00:00 | |
| DM0DOS-11 | 2026-09-01 11:20:22 | 52.80557 | 8.28654 | 88° | 62km/h | 16990m | -9.6m/s | -50.3°C | 3.7% | 92.5hPa | 2.7V | 08:18:39 | 01:46:16 | 00:00:00 | |
| DL4XJ-10 | 2026-09-01 11:20:22 | 52.80565 | 8.28728 | 71° | 40km/h | 16963m | -8.6m/s | -48.9°C | 0% | 0hPa | 2.6V | 00:00:00 | 00:00:00 | 00:00:00 | |
| DL1XH1-15 | 2026-09-01 11:20:20 | 52.80559 | 8.28605 | 99° | 57km/h | 17010m | -9.9m/s | -50.2°C | 3.6% | 92.2hPa | 2.6V | 08:18:41 | 01:46:14 | 00:00:00 | |
| DC6BW-12 | 2026-09-01 11:20:20 | 52.80558 | 8.28680 | 84° | 62km/h | 16981m | -9.2m/s | -50.3°C | 1.3% | 92.7hPa | 2.7V | 00:00:00 | 00:00:00 | 00:00:00 | |
| DL1XH-15 | 2026-09-01 11:20:19 | 52.80566 | 8.28564 | 112° | 42km/h | 17029m | -9.2m/s | -50.2°C | 3.7% | 92hPa | 2.7V | 08:18:43 | 01:46:12 | 00:00:00 | |
| DL1XH-west | 2026-09-01 11:20:17 | 52.80559 | 8.28605 | 100° | 57km/h | 17010m | -9.9m/s | -50.2°C | 0.4% | 92.2hPa | 2.6V | 08:19:31 | 01:46:14 | 00:00:00 | |
| AA1-15 | 2026-09-01 11:20:16 | 52.80562 | 8.28583 | 106° | 51km/h | 17020m | -9.6m/s | -50.2°C | 0.4% | 92.1hPa | 2.6V | 08:19:31 | 01:46:13 | 00:00:00 | |
| BIOWL1-15 | 2026-09-01 11:20:15 | 52.80566 | 8.28564 | 112° | 44km/h | 17029m | -9.2m/s | -50.2°C | 0.5% | 92hPa | 2.7V | 08:19:31 | 01:46:12 | 00:00:00 | |
| DO2JMG | 2026-09-01 11:20:12 | 52.80576 | 8.28533 | 114° | 15km/h | 17056m | -9.3m/s | -49.9°C | 0.4% | 91.6hPa | 2.6V | 08:19:31 | 01:46:09 | 00:00:00 | |
| DM0DOS-11 | 2026-09-01 11:20:12 | 52.80573 | 8.28516 | 48° | 22km/h | 17084m | -8.9m/s | -50°C | 3.7% | 91.2hPa | 2.7V | 08:18:49 | 01:46:06 | 00:00:00 | |
| DO3DL | 2026-09-01 11:20:12 | 52.80576 | 8.28533 | 115° | 15km/h | 17056m | -9.3m/s | -49.9°C | 1.2% | 91.6hPa | 2.6V | 08:19:00 | 00:00:00 | 00:00:00 | |
| GOEST3-10 | 2026-09-01 11:20:11 | 52.80577 | 8.28528 | 86° | 24km/h | 17066m | -9.5m/s | -49.9°C | 3.6% | 91.4hPa | 2.6V | 08:18:00 | 01:46:08 | 00:00:00 | |
| DJ2DS-15 | 2026-09-01 11:20:10 | 52.80573 | 8.28516 | 48° | 20km/h | 17084m | -8.9m/s | -50.0°C | 1.2% | 91.2hPa | 2.6V | 00:00:00 | 00:00:00 | 00:00:00 | |
| DL1XH-15 | 2026-09-01 11:20:09 | 52.80549 | 8.28471 | 54° | 44km/h | 17120m | -9.2m/s | -50.3°C | 3.8% | 90.7hPa | 2.6V | 08:18:53 | 01:46:02 | 00:00:00 | |
| DF8AY | 2026-09-01 11:20:07 | 52.80562 | 8.28498 | 48° | 38km/h | 17102m | -8.7m/s | -50.2°C | 0.5% | 90.9hPa | 2.6V | 08:19:31 | 01:46:04 | 00:00:00 | |
| DL1XH-west | 2026-09-01 11:20:06 | 52.80556 | 8.28486 | 51° | 42km/h | 17111m | -9m/s | -50.2°C | 0.6% | 90.9hPa | 2.6V | 08:19:31 | 01:46:03 | 00:00:00 | |
| AA1-15 | 2026-09-01 11:20:05 | 52.80549 | 8.28471 | 54° | 44km/h | 17120m | -9.2m/s | -50.3°C | 0.5% | 90.7hPa | 2.6V | 08:19:31 | 01:46:02 | 00:00:00 | |
| DO2JMG | 2026-09-01 11:20:02 | 52.80532 | 8.28421 | 70° | 49km/h | 17147m | -8.5m/s | -50.3°C | 0.5% | 90.3hPa | 2.6V | 08:19:31 | 01:45:59 | 00:00:00 | |
| DM0DOS-11 | 2026-09-01 11:20:02 | 52.80523 | 8.28356 | 79° | 58km/h | 17173m | -9.1m/s | -50.4°C | 3.8% | 90hPa | 2.7V | 08:18:59 | 01:45:56 | 00:00:00 | |
| DL4XJ-10 | 2026-09-01 11:20:02 | 52.80532 | 8.28421 | 70° | 44km/h | 17147m | -8.5m/s | -48.9°C | 0% | 0hPa | 2.6V | 00:00:00 | 00:00:00 | 00:00:00 | |
| GOEST3-10 | 2026-09-01 11:20:01 | 52.80529 | 8.28401 | 76° | 58km/h | 17155m | -8.3m/s | -50.2°C | 3.7% | 90.2hPa | 2.6V | 00:00:00 | 01:45:58 | 00:00:00 | |
| DO9LL-15 | 2026-09-01 11:20:00 | 52.80525 | 8.28379 | 79° | 44km/h | 17164m | -8.9m/s | -50.3°C | 3.8% | 90.1hPa | 2.6V | 00:00:00 | 01:45:57 | 00:00:00 | |
| DL1XH-15 | 2026-09-01 11:19:59 | 52.80516 | 8.28253 | 90° | 62km/h | 17211m | -10m/s | -50.4°C | 3.7% | 89.4hPa | 2.6V | 08:19:03 | 01:45:52 | 00:00:00 | |
| HSKMA3-T | 2026-09-01 11:19:56 | 52.80516 | 8.28279 | 86° | 64km/h | 17201m | -10.1m/s | -50.5°C | 0.5% | 89.5hPa | 2.6V | 08:19:31 | 01:45:53 | 00:00:00 | |
| DL1XH-west | 2026-09-01 11:19:55 | 52.80515 | 8.28253 | 91° | 62km/h | 17211m | -10m/s | -50.4°C | 0.5% | 89.4hPa | 2.6V | 08:19:31 | 01:45:52 | 00:00:00 | |
| AA1-15 | 2026-09-01 11:19:55 | 52.80516 | 8.28228 | 96° | 57km/h | 17222m | -9.9m/s | -50.4°C | 0.5% | 89.3hPa | 2.6V | 08:19:31 | 01:45:51 | 00:00:00 | |
| DO2JMG | 2026-09-01 11:19:51 | 52.80522 | 8.28176 | 103° | 27km/h | 17249m | -8.7m/s | -50.6°C | 0.5% | 88.9hPa | 2.7V | 08:19:31 | 01:45:48 | 00:00:00 | |
| GOEST3-10 | 2026-09-01 11:19:51 | 52.80522 | 8.28176 | 104° | 20km/h | 17249m | -8.7m/s | -50.5°C | 3.8% | 88.8hPa | 2.7V | 00:00:00 | 01:45:48 | 00:00:00 | |
| DL8OAI-8 | 2026-09-01 11:19:50 | 52.80522 | 8.28176 | 104° | 27km/h | 17249m | -8.7m/s | -50.6°C | 1.2% | 88.9hPa | 2.7V | 00:00:00 | 00:00:00 | 00:00:00 | |
| DL1XH-15 | 2026-09-01 11:19:49 | 52.80506 | 8.28134 | 35° | 37km/h | 17307m | -9.9m/s | -50.4°C | 3.9% | 88.1hPa | 2.7V | 08:19:13 | 01:45:42 | 00:00:00 | |
| HSKMA3-T | 2026-09-01 11:19:46 | 52.80512 | 8.28142 | 34° | 29km/h | 17297m | -10.2m/s | -50.4°C | 0.6% | 88.2hPa | 2.7V | 08:19:31 | 01:45:43 | 00:00:00 | |
| DL1XH-west | 2026-09-01 11:19:45 | 52.80506 | 8.28134 | 36° | 37km/h | 17307m | -9.9m/s | -50.4°C | 0.6% | 88.1hPa | 2.7V | 08:19:31 | 01:45:42 | 00:00:00 | |
| AA1-15 | 2026-09-01 11:19:44 | 52.80498 | 8.28124 | 41° | 44km/h | 17317m | -9.2m/s | -50.4°C | 0.6% | 88hPa | 2.7V | 08:19:31 | 01:45:41 | 00:00:00 | |
| DO2JMG | 2026-09-01 11:19:41 | 52.80474 | 8.28071 | 65° | 58km/h | 17345m | -9.2m/s | -50.3°C | 0.6% | 87.6hPa | 2.6V | 08:19:31 | 01:45:38 | 00:00:00 | |
| DF8AY | 2026-09-01 11:19:41 | 52.80459 | 8.27958 | 88° | 53km/h | 17390m | -9.4m/s | -50.6°C | 0.6% | 87hPa | 2.6V | 08:19:31 | 01:45:33 | 00:00:00 | |
| DB0DAN | 2026-09-01 11:19:40 | 52.80469 | 8.28048 | 71° | 55km/h | 17354m | -9.2m/s | -50.3°C | 1.2% | 87.5hPa | 2.7V | 00:00:00 | 00:00:00 | 00:00:00 | |
| DL1XH1-15 | 2026-09-01 11:19:40 | 52.80460 | 8.27980 | 85° | 53km/h | 17381m | -9.2m/s | -50.6°C | 3.8% | 87.1hPa | 2.6V | 08:19:21 | 01:45:34 | 00:00:00 | |
| DL4BBY-15 | 2026-09-01 11:19:40 | 52.80468 | 8.28048 | 72° | 46km/h | 17354m | -9.1m/s | -48.9°C | 0% | 0hPa | 2.6V | 00:00:00 | 00:00:00 | 00:00:00 | |
| DL1XH-15 | 2026-09-01 11:19:39 | 52.80459 | 8.27937 | 90° | 51km/h | 17400m | -9.7m/s | -50.6°C | 3.8% | 86.9hPa | 2.6V | 08:19:23 | 01:45:32 | 00:00:00 | |
| HSKMA3-T | 2026-09-01 11:19:35 | 52.80459 | 8.27937 | 91° | 51km/h | 17400m | -9.7m/s | -50.6°C | 0.6% | 86.9hPa | 2.6V | 08:19:31 | 01:45:32 | 00:00:00 | |
| DL1XH-west | 2026-09-01 11:19:34 | 52.80460 | 8.27916 | 94° | 49km/h | 17410m | -9.7m/s | -50.6°C | 0.6% | 86.7hPa | 2.7V | 08:19:31 | 01:45:31 | 00:00:00 | |
| AA1-15 | 2026-09-01 11:19:33 | 52.80461 | 8.27897 | 96° | 46km/h | 17420m | -10m/s | -50.6°C | 0.5% | 86.6hPa | 2.7V | 08:19:31 | 01:45:30 | 00:00:00 | |
| DO2JMG | 2026-09-01 11:19:31 | 52.80463 | 8.27864 | 95° | 33km/h | 17440m | -9.6m/s | -50.6°C | 0.6% | 86.3hPa | 2.6V | 08:19:31 | 01:45:28 | 00:00:00 | |
| GOEST3-10 | 2026-09-01 11:19:31 | 52.80463 | 8.27864 | 96° | 27km/h | 17440m | -9.5m/s | -50.5°C | 3.9% | 86.3hPa | 2.6V | 00:00:00 | 01:45:28 | 00:00:00 | |
| DO9LL-15 | 2026-09-01 11:19:30 | 52.80463 | 8.27851 | 88° | 37km/h | 17449m | -9.3m/s | -50.4°C | 3.9% | 86.1hPa | 2.6V | 00:00:00 | 01:45:27 | 00:00:00 | |
| DL1XH-15 | 2026-09-01 11:19:29 | 52.80444 | 8.27804 | 46° | 40km/h | 17499m | -10.4m/s | -50.1°C | 3.9% | 85.6hPa | 2.6V | 08:19:33 | 01:45:22 | 00:00:00 | |
| DL8OAI-8 | 2026-09-01 11:19:29 | 52.80462 | 8.27841 | 75° | 24km/h | 17459m | -9.6m/s | -50.3°C | 1.3% | 86.1hPa | 2.7V | 00:00:00 | 00:00:00 | 00:00:00 | |
| DD8BA-10 | 2026-09-01 11:19:28 | 52.80460 | 8.27832 | 58° | 49km/h | 17468m | -9.7m/s | -50.2°C | 3.9% | 85.9hPa | 2.7V | 00:00:00 | 00:00:00 | 00:00:00 | |
| DL3OBA | 2026-09-01 11:19:27 | 52.80460 | 8.27832 | 59° | 24km/h | 17468m | -9.7m/s | -50.3°C | 1.2% | 85.9hPa | 2.6V | 00:00:00 | 00:00:00 | 00:00:00 | |
| DB0DAN | 2026-09-01 11:19:25 | 52.80444 | 8.27804 | 46° | 38km/h | 17499m | -10.4m/s | -50.1°C | 1.3% | 85.58hPa | 2.6V | 00:00:00 | 00:00:00 | 00:00:00 | |
| BIOWL1-15 | 2026-09-01 11:19:25 | 52.80444 | 8.27804 | 46° | 40km/h | 17499m | -10.4m/s | -50.1°C | 0.7% | 85.6hPa | 2.6V | 08:20:22 | 01:45:22 | 00:00:00 | |
| AA1-15 | 2026-09-01 11:19:23 | 52.80422 | 8.27751 | 64° | 62km/h | 17528m | -9.1m/s | -50°C | 0.5% | 85.2hPa | 2.7V | 08:20:22 | 01:45:19 | 00:00:00 | |
| DL1XH-west | 2026-09-01 11:19:23 | 52.80429 | 8.27773 | 57° | 55km/h | 17519m | -9.4m/s | -50°C | 0.7% | 85.3hPa | 2.7V | 08:20:22 | 01:45:20 | 00:00:00 | |
| DO2JMG | 2026-09-01 11:19:20 | 52.80411 | 8.27700 | 77° | 68km/h | 17548m | -10.6m/s | -50°C | 0.6% | 85hPa | 2.6V | 08:20:22 | 01:45:17 | 00:00:00 | |
| DL1XH1-15 | 2026-09-01 11:19:20 | 52.80407 | 8.27620 | 95° | 60km/h | 17579m | -10m/s | -49.9°C | 3.8% | 84.5hPa | 2.6V | 08:19:41 | 01:45:14 | 00:00:00 | |
| HSKMA3-T | 2026-09-01 11:19:14 | 52.80418 | 8.27560 | 122° | 40km/h | 17608m | -9.6m/s | -49.7°C | 0.4% | 84.2hPa | 2.7V | 08:20:22 | 01:45:11 | 00:00:00 | |
| DL1XH-west | 2026-09-01 11:19:13 | 52.80423 | 8.27548 | 129° | 33km/h | 17618m | -9.7m/s | -49.6°C | 0.5% | 84hPa | 2.7V | 08:20:22 | 01:45:10 | 00:00:00 | |
| AA1-15 | 2026-09-01 11:19:11 | 52.80432 | 8.27532 | 141° | 20km/h | 17637m | -9.7m/s | -49.4°C | 0.5% | 83.7hPa | 2.6V | 08:20:22 | 01:45:08 | 00:00:00 | |
| DO2JMG | 2026-09-01 11:19:10 | 52.80436 | 8.27528 | 147° | 13km/h | 17647m | -10.2m/s | -49.2°C | 0.4% | 83.6hPa | 2.6V | 08:20:22 | 01:45:07 | 00:00:00 | |
| DL1XH1-15 | 2026-09-01 11:19:10 | 52.80437 | 8.27524 | 13° | 9km/h | 17678m | -10.2m/s | -49.1°C | 3.5% | 83.2hPa | 2.7V | 08:19:51 | 01:45:04 | 00:00:00 | |
| DF8AY | 2026-09-01 11:19:04 | 52.80423 | 8.27512 | 39° | 29km/h | 17707m | -9.2m/s | -49.2°C | 0.5% | 82.8hPa | 2.7V | 08:20:22 | 01:45:01 | 00:00:00 | |
| BIOWL1-15 | 2026-09-01 11:19:03 | 52.80412 | 8.27489 | 60° | 40km/h | 17726m | -9.5m/s | -49.3°C | 0.4% | 82.6hPa | 2.6V | 08:20:22 | 01:44:59 | 00:00:00 | |
| DL1XH-west | 2026-09-01 11:19:03 | 52.80418 | 8.27502 | 51° | 37km/h | 17717m | -9.4m/s | -49.3°C | 0.5% | 82.7hPa | 2.7V | 08:20:22 | 01:45:00 | 00:00:00 | |
| AA1-15 | 2026-09-01 11:19:00 | 52.80405 | 8.27457 | 78° | 42km/h | 17745m | -9.6m/s | -49.5°C | 0.4% | 82.4hPa | 2.6V | 08:20:22 | 01:44:57 | 00:00:00 | |
| DO2JMG | 2026-09-01 11:18:59 | 52.80403 | 8.27440 | 85° | 42km/h | 17755m | -9m/s | -49.6°C | 0.4% | 82.3hPa | 2.7V | 08:20:22 | 01:44:56 | 00:00:00 | |
| DL1XH-15 | 2026-09-01 11:18:59 | 52.80410 | 8.27378 | 114° | 33km/h | 17794m | -10.3m/s | -50°C | 3.6% | 81.8hPa | 2.6V | 08:20:03 | 01:44:52 | 00:00:00 | |
| DJ2DS-15 | 2026-09-01 11:18:58 | 52.80405 | 8.27406 | 101° | 38km/h | 17773m | -9.6m/s | -49.9°C | 1.2% | 82.0hPa | 2.6V | 00:00:00 | 00:00:00 | 00:00:00 | |
| DO3DL | 2026-09-01 11:18:57 | 52.80403 | 8.27423 | 97° | 40km/h | 17764m | -9.5m/s | -49.7°C | 1.1% | 82.2hPa | 2.6V | 08:20:00 | 00:00:00 | 00:00:00 | |
| DD1CC3-15 | 2026-09-01 11:18:56 | 52.80405 | 8.27406 | 102° | 40km/h | 17774m | -9.6m/s | -49.9°C | 1.2% | 82.0hPa | 2.6V | 08:20:00 | 00:00:00 | 00:00:00 | |
| DB0DAN | 2026-09-01 11:18:55 | 52.80410 | 8.27377 | 115° | 31km/h | 17794m | -10.3m/s | -50.1°C | 1.2% | 81.76hPa | 2.6V | 00:00:00 | 00:00:00 | 00:00:00 | |
| DF8AY | 2026-09-01 11:18:54 | 52.80414 | 8.27366 | 120° | 27km/h | 17804m | -10.7m/s | -50°C | 0.5% | 81.7hPa | 2.6V | 08:20:22 | 01:44:51 | 00:00:00 | |
| BIOWL1-15 | 2026-09-01 11:18:53 | 52.80418 | 8.27346 | 14° | 13km/h | 17843m | -9m/s | -50.2°C | 0.6% | 81.2hPa | 2.6V | 08:20:22 | 01:44:47 | 00:00:00 | |
| DL1XH-west | 2026-09-01 11:18:53 | 52.80417 | 8.27358 | 125° | 20km/h | 17815m | -10.4m/s | -50.1°C | 0.5% | 81.5hPa | 2.7V | 08:20:22 | 01:44:50 | 00:00:00 | |
| HSKMA3-T | 2026-09-01 11:18:52 | 52.80419 | 8.27352 | 117° | 13km/h | 17825m | -9.8m/s | -50.2°C | 0.6% | 81.4hPa | 2.7V | 08:20:22 | 01:44:49 | 00:00:00 | |
| DO3DL | 2026-09-01 11:18:52 | 52.80419 | 8.27352 | 118° | 13km/h | 17825m | -9.8m/s | -50.2°C | 1.2% | 81.4hPa | 2.7V | 08:20:00 | 00:00:00 | 00:00:00 | |
| DM0DOS-11 | 2026-09-01 11:18:51 | 52.80414 | 8.27345 | 7° | 18km/h | 17852m | -9.6m/s | -50.2°C | 3.7% | 81.1hPa | 2.7V | 08:20:09 | 01:44:46 | 00:00:00 | |
| GOEST3-10 | 2026-09-01 11:18:51 | 52.80420 | 8.27348 | 72° | 16km/h | 17834m | -8.9m/s | -50.1°C | 3.8% | 81.2hPa | 2.6V | 00:00:00 | 01:44:48 | 00:00:00 | |
| DL1XH-15 | 2026-09-01 11:18:50 | 52.80391 | 8.27337 | 20° | 29km/h | 17892m | -9.8m/s | -50.3°C | 3.8% | 80.5hPa | 2.6V | 08:20:13 | 01:44:42 | 00:00:00 | |
| AA1-15 | 2026-09-01 11:18:49 | 52.80414 | 8.27345 | 8° | 18km/h | 17852m | -9.6m/s | -50.2°C | 0.6% | 81.1hPa | 2.7V | 08:20:22 | 01:44:46 | 00:00:00 | |
| DO2JMG | 2026-09-01 11:18:48 | 52.80409 | 8.27344 | 9° | 24km/h | 17862m | -9.8m/s | -50.2°C | 0.6% | 81hPa | 2.7V | 08:20:22 | 01:44:45 | 00:00:00 | |
| DL1XH1-15 | 2026-09-01 11:18:48 | 52.80403 | 8.27342 | 9° | 24km/h | 17872m | -10.1m/s | -50.2°C | 3.8% | 80.8hPa | 2.6V | 08:20:11 | 01:44:44 | 00:00:00 | |
| D01LWL | 2026-09-01 11:18:46 | 52.80391 | 8.27336 | 20° | 27km/h | 17892m | -9.8m/s | -50.3°C | 1.2% | 80.5hPa | 2.6V | 00:00:00 | 00:00:00 | 00:00:00 | |
| DO3DL | 2026-09-01 11:18:45 | 52.80390 | 8.27336 | 22° | 29km/h | 17892m | -9.8m/s | -50.3°C | 1.2% | 80.5hPa | 2.6V | 08:20:00 | 00:00:00 | 00:00:00 | |
| DM0DOS-11 | 2026-09-01 11:18:44 | 52.80345 | 8.27266 | 54° | 55km/h | 17949m | -10.3m/s | -50.7°C | 3.9% | 79.9hPa | 2.6V | 08:20:19 | 01:44:36 | 00:00:00 | |
| DF8AY | 2026-09-01 11:18:43 | 52.80376 | 8.27323 | 36° | 37km/h | 17911m | -9.2m/s | -50.4°C | 0.7% | 80.3hPa | 2.7V | 08:20:22 | 01:44:40 | 00:00:00 | |
| DL1XH-west | 2026-09-01 11:18:42 | 52.80368 | 8.27312 | 43° | 42km/h | 17920m | -9.4m/s | -50.5°C | 0.7% | 80.2hPa | 2.7V | 08:20:22 | 01:44:39 | 00:00:00 | |
| HSKMA3-T | 2026-09-01 11:18:41 | 52.80360 | 8.27299 | 49° | 47km/h | 17930m | -9.3m/s | -50.6°C | 0.7% | 80.1hPa | 2.6V | 08:20:22 | 01:44:38 | 00:00:00 | |
| DB0DAN | 2026-09-01 11:18:40 | 52.80353 | 8.27283 | 52° | 49km/h | 17939m | -9.8m/s | -50.6°C | 1.3% | 79.99hPa | 2.6V | 00:00:00 | 00:00:00 | 00:00:00 | |
| DL1XH-15 | 2026-09-01 11:18:40 | 52.80319 | 8.27188 | 71° | 47km/h | 17991m | -9.7m/s | -51°C | 4% | 79.3hPa | 2.6V | 08:20:23 | 01:44:32 | 00:00:00 | |
| BIOWL1-15 | 2026-09-01 11:18:39 | 52.80319 | 8.27188 | 72° | 47km/h | 17991m | -9.7m/s | -51°C | 0.8% | 79.3hPa | 2.6V | 08:21:13 | 01:44:32 | 00:00:00 | |
| AA1-15 | 2026-09-01 11:18:38 | 52.80337 | 8.27247 | 57° | 57km/h | 17960m | -10.7m/s | -50.8°C | 0.6% | 79.7hPa | 2.7V | 08:20:22 | 01:44:35 | 00:00:00 | |
| DD8BA-10 | 2026-09-01 11:18:38 | 52.80337 | 8.27247 | 57° | 44km/h | 17960m | -10.6m/s | -50.7°C | 3.8% | 79.7hPa | 2.7V | 00:00:00 | 00:00:00 | 00:00:00 | |
| DO3DL | 2026-09-01 11:18:37 | 52.80337 | 8.27247 | 58° | 57km/h | 17960m | -10.7m/s | -50.8°C | 1.2% | 79.7hPa | 2.7V | 08:20:00 | 00:00:00 | 00:00:00 | |
| GOEST3-10 | 2026-09-01 11:18:36 | 52.80323 | 8.27207 | 66° | 42km/h | 17982m | -10.6m/s | -50.8°C | 3.9% | 79.4hPa | 2.7V | 00:00:00 | 00:00:00 | 00:00:00 | |
| DD1CC3-15 | 2026-09-01 11:18:35 | 52.80323 | 8.27207 | 66° | 51km/h | 17982m | -10.6m/s | -50.9°C | 1.3% | 79.5hPa | 2.7V | 08:20:00 | 00:00:00 | 00:00:00 | |
| DC6BW-12 | 2026-09-01 11:18:33 | 52.80316 | 8.27170 | 82° | 42km/h | 18001m | -8.5m/s | -51.0°C | 1.4% | 79.2hPa | 2.7V | 08:21:00 | 00:00:00 | 00:00:00 | |
| DM0DOS-11 | 2026-09-01 11:18:32 | 52.80322 | 8.27096 | 99° | 44km/h | 18047m | -9.7m/s | -50.7°C | 4.1% | 78.7hPa | 2.7V | 08:20:29 | 01:44:26 | 00:00:00 | |
| DL1XH-west | 2026-09-01 11:18:32 | 52.80316 | 8.27141 | 100° | 33km/h | 18018m | -9.2m/s | -51°C | 0.8% | 79hPa | 2.6V | 08:21:13 | 01:44:29 | 00:00:00 | |
| HSKMA3-T | 2026-09-01 11:18:30 | 52.80320 | 8.27112 | 102° | 38km/h | 18037m | -10m/s | -50.9°C | 0.9% | 78.8hPa | 2.6V | 08:21:13 | 01:44:27 | 00:00:00 | |
| AA1-15 | 2026-09-01 11:18:28 | 52.80323 | 8.27077 | 97° | 49km/h | 18057m | -9.9m/s | -50.6°C | 0.9% | 78.5hPa | 2.7V | 08:21:13 | 01:44:25 | 00:00:00 | |
| DO2JMG | 2026-09-01 11:18:27 | 52.80324 | 8.27056 | 94° | 51km/h | 18067m | -10.1m/s | -50.6°C | 0.9% | 78.4hPa | 2.7V | 08:21:13 | 01:44:24 | 00:00:00 | |
| BIOWL1-15 | 2026-09-01 11:18:25 | 52.80322 | 8.26986 | 79° | 58km/h | 18098m | -10.7m/s | -50.7°C | 0.9% | 78hPa | 2.6V | 08:21:13 | 01:44:21 | 00:00:00 | |
| DM0DOS-11 | 2026-09-01 11:18:24 | 52.80287 | 8.26879 | 41° | 37km/h | 18157m | -9.4m/s | -50.9°C | 4.1% | 77.3hPa | 2.7V | 08:20:40 | 01:44:15 | 00:00:00 | |
| DL1XH-west | 2026-09-01 11:18:22 | 52.80314 | 8.26940 | 68° | 55km/h | 18119m | -10.5m/s | -50.8°C | 0.8% | 77.8hPa | 2.7V | 08:21:13 | 01:44:19 | 00:00:00 | |
| DF8AY | 2026-09-01 11:18:21 | 52.80308 | 8.26920 | 60° | 51km/h | 18129m | -9.5m/s | -50.9°C | 0.8% | 77.7hPa | 2.6V | 08:21:13 | 01:44:18 | 00:00:00 | |
| GOEST3-10 | 2026-09-01 11:18:21 | 52.80308 | 8.26920 | 61° | 42km/h | 18129m | -9.4m/s | -50.8°C | 4.1% | 77.6hPa | 2.6V | 00:00:00 | 01:44:18 | 00:00:00 | |
| DL1XH1-15 | 2026-09-01 11:18:20 | 52.80280 | 8.26869 | 39° | 35km/h | 18166m | -9.8m/s | -50.9°C | 4.1% | 77.2hPa | 2.6V | 08:20:41 | 01:44:14 | 00:00:00 | |
| HSKMA3-T | 2026-09-01 11:18:20 | 52.80301 | 8.26903 | 53° | 46km/h | 18138m | -9.4m/s | -50.9°C | 0.9% | 77.5hPa | 2.6V | 08:21:13 | 01:44:17 | 00:00:00 | |
| AA1-15 | 2026-09-01 11:18:17 | 52.80280 | 8.26869 | 39° | 35km/h | 18166m | -9.8m/s | -50.9°C | 0.9% | 77.2hPa | 2.6V | 08:21:13 | 01:44:14 | 00:00:00 | |
| DO2JMG | 2026-09-01 11:18:16 | 52.80274 | 8.26860 | 42° | 37km/h | 18176m | -9.9m/s | -50.9°C | 0.8% | 77.1hPa | 2.6V | 08:21:13 | 01:44:13 | 00:00:00 | |
| BIOWL1-15 | 2026-09-01 11:18:15 | 52.80261 | 8.26837 | 51° | 40km/h | 18196m | -9.7m/s | -50.7°C | 0.9% | 76.9hPa | 2.7V | 08:21:13 | 01:44:11 | 00:00:00 | |
| D01LWL | 2026-09-01 11:18:14 | 52.80261 | 8.26837 | 50° | 40km/h | 18196m | -9.7m/s | -50.7°C | 1.4% | 76.9hPa | 2.7V | 00:00:00 | 00:00:00 | 00:00:00 | |
| DM0DOS-11 | 2026-09-01 11:18:13 | 52.80223 | 8.26727 | 67° | 57km/h | 18255m | -10.4m/s | -50.5°C | 4% | 76.2hPa | 2.7V | 08:20:50 | 01:44:05 | 00:00:00 | |
| DL1XH-west | 2026-09-01 11:18:11 | 52.80241 | 8.26788 | 62° | 51km/h | 18225m | -9.8m/s | -50.6°C | 0.9% | 76.5hPa | 2.6V | 08:21:13 | 01:44:08 | 00:00:00 | |
| DB0DAN | 2026-09-01 11:18:10 | 52.80235 | 8.26769 | 63° | 51km/h | 18235m | -10.1m/s | -50.6°C | 1.4% | 76.45hPa | 2.6V | 00:00:00 | 00:00:00 | 00:00:00 | |
| DO3DL | 2026-09-01 11:18:10 | 52.80235 | 8.26769 | 64° | 53km/h | 18235m | -10.1m/s | -50.6°C | 1.4% | 76.5hPa | 2.6V | 08:21:00 | 00:00:00 | 00:00:00 | |
| DL1XH-15 | 2026-09-01 11:18:09 | 52.80213 | 8.26660 | 83° | 55km/h | 18286m | -10.5m/s | -50.4°C | 4% | 75.8hPa | 2.6V | 08:20:53 | 01:44:02 | 00:00:00 | |
| HSKMA3-T | 2026-09-01 11:18:09 | 52.80229 | 8.26748 | 64° | 55km/h | 18245m | -10m/s | -50.6°C | 0.9% | 76.3hPa | 2.6V | 08:21:13 | 01:44:06 | 00:00:00 | |
| DL1XH1-15 | 2026-09-01 11:18:08 | 52.80219 | 8.26705 | 72° | 57km/h | 18265m | -10.5m/s | -50.4°C | 4% | 76hPa | 2.7V | 08:20:51 | 01:44:04 | 00:00:00 | |
| AA1-15 | 2026-09-01 11:18:07 | 52.80219 | 8.26705 | 72° | 57km/h | 18265m | -10.5m/s | -50.4°C | 0.9% | 76hPa | 2.7V | 08:21:13 | 01:44:04 | 00:00:00 | |
| BIOWL1-15 | 2026-09-01 11:18:07 | 52.80213 | 8.26660 | 84° | 55km/h | 18286m | -10.5m/s | -50.4°C | 0.9% | 75.8hPa | 2.6V | 08:21:13 | 01:44:02 | 00:00:00 | |
| DO2JMG | 2026-09-01 11:18:06 | 52.80215 | 8.26683 | 78° | 57km/h | 18276m | -10.6m/s | -50.4°C | 0.8% | 75.9hPa | 2.6V | 08:21:13 | 01:44:03 | 00:00:00 | |
| GOEST3-10 | 2026-09-01 11:18:06 | 52.80215 | 8.26682 | 78° | 51km/h | 18276m | -10.6m/s | -50.4°C | 4.0% | 75.9hPa | 2.7V | 00:00:00 | 00:00:00 | 00:00:00 | |
| DL8OAI-8 | 2026-09-01 11:18:05 | 52.80215 | 8.26682 | 79° | 57km/h | 18276m | -10.6m/s | -50.4°C | 1.4% | 75.9hPa | 2.7V | 08:21:00 | 00:00:00 | 00:00:00 | |
| SMARD9-10 | 2026-09-01 11:18:04 | 52.80213 | 8.26660 | 85° | 55km/h | 18286m | -10.5m/s | -50.4°C | 1.3% | 75.8hPa | 2.7V | 00:00:00 | 00:00:00 | 00:00:00 | |
| DM0DOS-11 | 2026-09-01 11:18:03 | 52.80233 | 8.26550 | 139° | 24km/h | 18358m | -10.7m/s | -50°C | 4.2% | 75hPa | 2.7V | 08:21:00 | 01:43:55 | 00:00:00 | |
| DL4XJ-10 | 2026-09-01 11:18:02 | 52.80215 | 8.26598 | 108° | 37km/h | 18317m | -10.2m/s | 0°C | 0% | 0hPa | 2.7V | 00:00:00 | 00:00:00 | 00:00:00 | |
| DL1XH1-15 | 2026-09-01 11:18:01 | 52.80237 | 8.26545 | 146° | 18km/h | 18368m | -10.9m/s | -49.8°C | 4.1% | 74.8hPa | 2.7V | 08:21:01 | 01:43:54 | 00:00:00 | |
| DL1XH-west | 2026-09-01 11:18:00 | 52.80224 | 8.26569 | 122° | 35km/h | 18337m | -10.4m/s | -50.1°C | 0.9% | 75.2hPa | 2.6V | 08:21:13 | 01:43:57 | 00:00:00 | |
| HSKMA3-T | 2026-09-01 11:17:59 | 52.80228 | 8.26558 | 130° | 29km/h | 18347m | -10.2m/s | -50.1°C | 0.9% | 75.1hPa | 2.7V | 08:21:13 | 01:43:56 | 00:00:00 | |
| AA1-15 | 2026-09-01 11:17:56 | 52.80240 | 8.26542 | 150° | 11km/h | 18380m | -11.3m/s | -49.7°C | 0.9% | 74.7hPa | 2.6V | 08:21:13 | 01:43:53 | 00:00:00 | |
| DB0DAN | 2026-09-01 11:17:55 | 52.80241 | 8.26541 | 129° | 4km/h | 18391m | -11.4m/s | -49.5°C | 1.4% | 74.59hPa | 2.6V | 00:00:00 | 00:00:00 | 00:00:00 | |
| DO2JMG | 2026-09-01 11:17:55 | 52.80241 | 8.26541 | 129° | 4km/h | 18391m | -11.4m/s | -49.5°C | 0.9% | 74.6hPa | 2.6V | 08:21:13 | 01:43:52 | 00:00:00 | |
| BIOWL1-15 | 2026-09-01 11:17:54 | 52.80241 | 8.26540 | 17° | 7km/h | 18402m | -11m/s | -49.5°C | 0.8% | 74.4hPa | 2.6V | 08:21:13 | 01:43:51 | 00:00:00 | |
| DF8AY | 2026-09-01 11:17:50 | 52.80216 | 8.26521 | 34° | 44km/h | 18443m | -10.5m/s | -49.5°C | 0.7% | 74hPa | 2.6V | 08:21:13 | 01:43:47 | 00:00:00 | |
| HSKMA3-T | 2026-09-01 11:17:48 | 52.80198 | 8.26496 | 48° | 49km/h | 18465m | -11.5m/s | -49.4°C | 0.7% | 73.7hPa | 2.7V | 08:21:13 | 01:43:45 | 00:00:00 | |
| DL1XH1-15 | 2026-09-01 11:17:48 | 52.80190 | 8.26480 | 56° | 47km/h | 18476m | -11.1m/s | -49.5°C | 3.7% | 73.6hPa | 2.6V | 08:21:11 | 01:43:44 | 00:00:00 | |
| AA1-15 | 2026-09-01 11:17:45 | 52.80182 | 8.26445 | 81° | 42km/h | 18497m | -9.3m/s | -49.7°C | 0.8% | 73.4hPa | 2.6V | 08:21:13 | 01:43:42 | 00:00:00 | |
| DO2JMG | 2026-09-01 11:17:44 | 52.80181 | 8.26429 | 95° | 38km/h | 18506m | -9.3m/s | -49.7°C | 0.7% | 73.3hPa | 2.7V | 08:22:04 | 01:43:41 | 00:00:00 | |
| BUE01 | 2026-09-01 11:17:43 | 52.80185 | 8.26402 | 111° | 27km/h | 18527m | -10.9m/s | -49.7°C | 1.4% | 73.1hPa | 2.7V | 00:00:00 | 00:00:00 | 00:00:00 | |
| DL3OBA | 2026-09-01 11:17:41 | 52.80188 | 8.26392 | 118° | 24km/h | 18538m | -11.0m/s | -49.7°C | 1.4% | 73.0hPa | 2.7V | 08:22:00 | 00:00:00 | 00:00:00 | |
| DL1XH1-15 | 2026-09-01 11:17:40 | 52.80193 | 8.26374 | 35° | 7km/h | 18580m | -10.3m/s | -49.8°C | 4% | 72.5hPa | 2.7V | 08:21:21 | 01:43:34 | 00:00:00 | |
| DL4BBY-15 | 2026-09-01 11:17:40 | 52.80191 | 8.26384 | 123° | 29km/h | 18549m | -10.9m/s | -48.3°C | 0% | 0hPa | 2.6V | 00:00:00 | 00:00:00 | 00:00:00 | |
| DL1XH-15 | 2026-09-01 11:17:39 | 52.80186 | 8.26368 | 31° | 22km/h | 18600m | -9.9m/s | -50°C | 4% | 72.2hPa | 2.6V | 08:21:23 | 01:43:32 | 00:00:00 | |
| DM0DOS-11 | 2026-09-01 11:17:39 | 52.80194 | 8.26376 | 92° | 5km/h | 18569m | -10.5m/s | -49.8°C | 4% | 72.6hPa | 2.7V | 08:21:20 | 01:43:35 | 00:00:00 | |
| DL1XH-west | 2026-09-01 11:17:39 | 52.80193 | 8.26379 | 123° | 11km/h | 18559m | -10.4m/s | -49.7°C | 0.8% | 72.7hPa | 2.6V | 08:22:04 | 01:43:36 | 00:00:00 | |
| HSKMA3-T | 2026-09-01 11:17:38 | 52.80194 | 8.26376 | 92° | 5km/h | 18569m | -10.5m/s | -49.8°C | 0.8% | 72.6hPa | 2.7V | 08:22:04 | 01:43:35 | 00:00:00 | |
| AA1-15 | 2026-09-01 11:17:34 | 52.80181 | 8.26362 | 35° | 29km/h | 18610m | -9.7m/s | -50°C | 0.8% | 72.2hPa | 2.6V | 08:22:04 | 01:43:31 | 00:00:00 | |
| DO2JMG | 2026-09-01 11:17:33 | 52.80174 | 8.26354 | 38° | 37km/h | 18620m | -9.7m/s | -49.9°C | 0.7% | 72hPa | 2.6V | 08:22:04 | 01:43:30 | 00:00:00 | |
| BIOWL1-15 | 2026-09-01 11:17:33 | 52.80167 | 8.26344 | 41° | 42km/h | 18630m | -10.2m/s | -49.9°C | 0.8% | 71.9hPa | 2.6V | 08:22:04 | 01:43:29 | 00:00:00 | |
| GOEST3-10 | 2026-09-01 11:17:31 | 52.80159 | 8.26332 | 43° | 47km/h | 18641m | -10.7m/s | -49.8°C | 3.9% | 71.8hPa | 2.7V | 00:00:00 | 01:43:28 | 00:00:00 | |
| DO9LL-15 | 2026-09-01 11:17:30 | 52.80150 | 8.26318 | 47° | 37km/h | 18652m | -11.5m/s | -49.8°C | 3.8% | 71.6hPa | 2.7V | 00:00:00 | 01:43:27 | 00:00:00 | |
| DL1XH-15 | 2026-09-01 11:17:29 | 52.80124 | 8.26230 | 89° | 49km/h | 18705m | -9.1m/s | -49.7°C | 4% | 71.1hPa | 2.7V | 08:21:33 | 01:43:22 | 00:00:00 | |
| DF8AY | 2026-09-01 11:17:29 | 52.80142 | 8.26303 | 50° | 49km/h | 18663m | -11.8m/s | -49.8°C | 0.8% | 71.5hPa | 2.7V | 08:22:04 | 01:43:26 | 00:00:00 | |
| DL1XH-west | 2026-09-01 11:17:28 | 52.80135 | 8.26287 | 57° | 49km/h | 18674m | -11.4m/s | -49.9°C | 0.8% | 71.4hPa | 2.6V | 08:22:04 | 01:43:25 | 00:00:00 | |
| HSKMA3-T | 2026-09-01 11:17:27 | 52.80129 | 8.26269 | 66° | 49km/h | 18685m | -10.4m/s | -49.9°C | 0.9% | 71.3hPa | 2.6V | 08:22:04 | 01:43:24 | 00:00:00 | |
| DB0DAN | 2026-09-01 11:17:25 | 52.80124 | 8.26230 | 90° | 47km/h | 18705m | -9.1m/s | -49.7°C | 1.3% | 71.09hPa | 2.7V | 00:00:00 | 00:00:00 | 00:00:00 | |
| BIOWL1-15 | 2026-09-01 11:17:23 | 52.80128 | 8.26189 | 104° | 49km/h | 18724m | -10.5m/s | -49.5°C | 0.9% | 70.9hPa | 2.7V | 08:22:04 | 01:43:20 | 00:00:00 | |
| SONCRA | 2026-09-01 11:17:22 | 52.80134 | 8.26150 | 105° | 46km/h | 18747m | -11.9m/s | -49.3°C | 1.3% | 70.6hPa | 2.6V | 00:00:00 | 00:00:00 | 00:00:00 | |
| GOEST3-10 | 2026-09-01 11:17:21 | 52.80134 | 8.26150 | 106° | 33km/h | 18747m | -11.8m/s | -49.2°C | 3.9% | 70.6hPa | 2.6V | 00:00:00 | 01:43:18 | 00:00:00 | |
| DL3OBA | 2026-09-01 11:17:20 | 52.80134 | 8.26150 | 107° | 47km/h | 18747m | -11.9m/s | -49.3°C | 1.3% | 70.6hPa | 2.6V | 08:22:00 | 00:00:00 | 00:00:00 | |
| DL1XH-15 | 2026-09-01 11:17:19 | 52.80134 | 8.26093 | 357° | 16km/h | 18809m | -9.8m/s | -49.6°C | 4% | 69.9hPa | 2.6V | 08:21:43 | 01:43:12 | 00:00:00 | |
| DL1XH-west | 2026-09-01 11:17:18 | 52.80140 | 8.26106 | 94° | 24km/h | 18782m | -10.1m/s | -49.5°C | 0.8% | 70.3hPa | 2.7V | 08:22:04 | 01:43:15 | 00:00:00 | |
| HSKMA3-T | 2026-09-01 11:17:17 | 52.80140 | 8.26098 | 69° | 15km/h | 18791m | -8.7m/s | -49.5°C | 0.9% | 70.2hPa | 2.6V | 08:22:04 | 01:43:14 | 00:00:00 | |
| DO2JMG | 2026-09-01 11:17:13 | 52.80126 | 8.26095 | 345° | 13km/h | 18830m | -10.9m/s | -49.6°C | 0.9% | 69.7hPa | 2.7V | 08:22:04 | 01:43:10 | 00:00:00 | |
| BIOWL1-15 | 2026-09-01 11:17:13 | 52.80123 | 8.26096 | 117° | 4km/h | 18852m | -10.7m/s | -49.6°C | 1% | 69.5hPa | 2.6V | 08:22:04 | 01:43:08 | 00:00:00 | |
| AA1-15 | 2026-09-01 11:17:12 | 52.80124 | 8.26096 | 347° | 5km/h | 18841m | -11m/s | -49.6°C | 1% | 69.6hPa | 2.7V | 08:22:04 | 01:43:09 | 00:00:00 | |
| DB0DAN | 2026-09-01 11:17:10 | 52.80124 | 8.26093 | 121° | 11km/h | 18863m | -10.9m/s | -49.6°C | 1.5% | 69.39hPa | 2.6V | 00:00:00 | 00:00:00 | 00:00:00 | |
| DJ2DS-15 | 2026-09-01 11:17:10 | 52.80126 | 8.26087 | 114° | 20km/h | 18874m | -10.9m/s | -49.6°C | 1.5% | 69.2hPa | 2.6V | 00:00:00 | 00:00:00 | 00:00:00 | |
| DL1XH-15 | 2026-09-01 11:17:09 | 52.80132 | 8.26029 | 89° | 49km/h | 18916m | -10.7m/s | -48.6°C | 4% | 68.8hPa | 2.6V | 08:21:53 | 01:43:02 | 00:00:00 | |
| DF8AY | 2026-09-01 11:17:08 | 52.80128 | 8.26078 | 108° | 29km/h | 18884m | -10.6m/s | -49.6°C | 1.2% | 69.1hPa | 2.7V | 08:22:04 | 01:43:05 | 00:00:00 | |
| DL1XH1-15 | 2026-09-01 11:17:08 | 52.80130 | 8.26065 | 101° | 37km/h | 18895m | -10.1m/s | -49.3°C | 4.3% | 69hPa | 2.7V | 08:21:51 | 01:43:04 | 00:00:00 | |
| DL1XH-west | 2026-09-01 11:17:07 | 52.80130 | 8.26065 | 101° | 37km/h | 18895m | -10.1m/s | -49.3°C | 1.2% | 69hPa | 2.7V | 08:22:04 | 01:43:04 | 00:00:00 | |
| HSKMA3-T | 2026-09-01 11:17:06 | 52.80131 | 8.26048 | 95° | 44km/h | 18905m | -10.8m/s | -49°C | 1.1% | 68.9hPa | 2.7V | 08:22:04 | 01:43:03 | 00:00:00 | |
| DO2JMG | 2026-09-01 11:17:02 | 52.80124 | 8.25963 | 68° | 57km/h | 18949m | -12m/s | -48.3°C | 0.8% | 68.5hPa | 2.7V | 08:22:04 | 01:42:59 | 00:00:00 | |
| BIOWL1-15 | 2026-09-01 11:17:02 | 52.80110 | 8.25923 | 50° | 53km/h | 18973m | -11.2m/s | -48.4°C | 0.8% | 68.2hPa | 2.6V | 08:22:04 | 01:42:57 | 00:00:00 | |
| AA1-15 | 2026-09-01 11:17:01 | 52.80118 | 8.25942 | 60° | 57km/h | 18961m | -11.8m/s | -48.4°C | 0.9% | 68.3hPa | 2.7V | 08:22:04 | 01:42:58 | 00:00:00 | |
| DL1XH-west | 2026-09-01 11:16:56 | 52.80076 | 8.25889 | 8° | 24km/h | 19016m | -11.3m/s | -48.7°C | 0.8% | 67.8hPa | 2.7V | 08:22:04 | 01:42:53 | 00:00:00 | |
| HSKMA3-T | 2026-09-01 11:16:55 | 52.80071 | 8.25889 | 358° | 15km/h | 19027m | -11.2m/s | -48.5°C | 0.8% | 67.7hPa | 2.7V | 08:22:04 | 01:42:52 | 00:00:00 | |
| DB0DAN | 2026-09-01 11:16:55 | 52.80071 | 8.25889 | 358° | 13km/h | 19027m | -11.2m/s | -48.5°C | 1.3% | 67.65hPa | 2.7V | 00:00:00 | 00:00:00 | 00:00:00 | |
| DF8AY | 2026-09-01 11:16:55 | 52.80069 | 8.25889 | 339° | 5km/h | 19038m | -11.3m/s | -48.4°C | 0.8% | 67.5hPa | 2.6V | 08:22:04 | 01:42:51 | 00:00:00 | |
| BIOWL1-15 | 2026-09-01 11:16:52 | 52.80071 | 8.25888 | 156° | 15km/h | 19061m | -11.3m/s | -48.2°C | 0.8% | 67.3hPa | 2.6V | 08:22:55 | 01:42:49 | 00:00:00 | |
| AA1-15 | 2026-09-01 11:16:50 | 52.80080 | 8.25876 | 130° | 31km/h | 19084m | -11.4m/s | -48.3°C | 0.9% | 67hPa | 2.7V | 08:22:55 | 01:42:47 | 00:00:00 | |
| HSKMA3-T | 2026-09-01 11:16:45 | 52.80085 | 8.25794 | 66° | 46km/h | 19140m | -11.4m/s | -48.5°C | 0.8% | 66.5hPa | 2.7V | 08:22:55 | 01:42:42 | 00:00:00 | |
| DF8AY | 2026-09-01 11:16:45 | 52.80080 | 8.25778 | 53° | 46km/h | 19151m | -11.2m/s | -48.4°C | 0.7% | 66.4hPa | 2.7V | 08:22:55 | 01:42:41 | 00:00:00 | |
| BIOWL1-15 | 2026-09-01 11:16:41 | 52.80054 | 8.25750 | 9° | 37km/h | 19186m | -11.4m/s | -48.5°C | 0.8% | 66hPa | 2.6V | 08:22:55 | 01:42:38 | 00:00:00 | |
| DB0DAN | 2026-09-01 11:16:40 | 52.80045 | 8.25750 | 354° | 31km/h | 19197m | -11.6m/s | -48.5°C | 1.3% | 65.91hPa | 2.7V | 00:00:00 | 00:00:00 | 00:00:00 | |
| AA1-15 | 2026-09-01 11:16:39 | 52.80038 | 8.25753 | 335° | 27km/h | 19209m | -11.2m/s | -48.6°C | 0.8% | 65.8hPa | 2.7V | 08:22:55 | 01:42:36 | 00:00:00 | |
| DD8BA-10 | 2026-09-01 11:16:38 | 52.80032 | 8.25759 | 313° | 26km/h | 19220m | -10.9m/s | -48.4°C | 3.6% | 65.6hPa | 2.6V | 00:00:00 | 00:00:00 | 00:00:00 | |
| SMARD9-15 | 2026-09-01 11:16:37 | 52.80030 | 8.25767 | 284° | 18km/h | 19231m | -11.4m/s | 0°C | -1.0% | -1.0hPa | 2.6V | 00:00:00 | 00:00:00 | 00:00:00 | |
| DM0DOS-11 | 2026-09-01 11:16:36 | 52.80032 | 8.25779 | 211° | 16km/h | 19254m | -11.9m/s | -48.5°C | 3.7% | 65.3hPa | 2.6V | 08:22:23 | 01:42:32 | 00:00:00 | |
| HSKMA3-T | 2026-09-01 11:16:35 | 52.80032 | 8.25779 | 212° | 16km/h | 19254m | -12m/s | -48.5°C | 0.8% | 65.3hPa | 2.6V | 08:22:55 | 01:42:32 | 00:00:00 | |
| DL1XH-west | 2026-09-01 11:16:34 | 52.80036 | 8.25781 | 176° | 18km/h | 19266m | -12.4m/s | -48.5°C | 0.8% | 65.2hPa | 2.7V | 08:22:55 | 01:42:31 | 00:00:00 | |
| BIOWL1-15 | 2026-09-01 11:16:31 | 52.80048 | 8.25759 | 103° | 33km/h | 19302m | -11.7m/s | -48.7°C | 0.9% | 64.9hPa | 2.6V | 08:22:55 | 01:42:28 | 00:00:00 | |
| DO2JMG | 2026-09-01 11:16:30 | 52.80048 | 8.25745 | 84° | 38km/h | 19314m | -10.9m/s | -48.8°C | 0.8% | 64.7hPa | 2.6V | 08:22:55 | 01:42:27 | 00:00:00 | |
| AA1-15 | 2026-09-01 11:16:29 | 52.80046 | 8.25728 | 66° | 42km/h | 19324m | -10.6m/s | -48.9°C | 0.8% | 64.6hPa | 2.6V | 08:22:55 | 01:42:26 | 00:00:00 | |
| DL1XH1-15 | 2026-09-01 11:16:28 | 52.80032 | 8.25700 | 37° | 46km/h | 19346m | -10.8m/s | -49.1°C | 3.8% | 64.4hPa | 2.7V | 08:22:31 | 01:42:24 | 00:00:00 | |
| HSKMA3-T | 2026-09-01 11:16:25 | 52.80012 | 8.25683 | 18° | 42km/h | 19368m | -11.5m/s | -49.4°C | 0.8% | 64.2hPa | 2.6V | 08:22:55 | 01:42:22 | 00:00:00 | |
| DL1XH-west | 2026-09-01 11:16:24 | 52.80002 | 8.25679 | 8° | 40km/h | 19379m | -11.5m/s | -49.4°C | 0.7% | 64.1hPa | 2.7V | 08:22:55 | 01:42:21 | 00:00:00 | |
| DF8AY | 2026-09-01 11:16:23 | 52.79993 | 8.25678 | 359° | 35km/h | 19391m | -12m/s | -49.5°C | 0.8% | 64hPa | 2.7V | 08:22:55 | 01:42:20 | 00:00:00 | |
| BIOWL1-15 | 2026-09-01 11:16:21 | 52.79978 | 8.25682 | 338° | 24km/h | 19415m | -11.4m/s | -49.5°C | 0.8% | 63.8hPa | 2.6V | 08:22:55 | 01:42:18 | 00:00:00 | |
| DO2JMG | 2026-09-01 11:16:20 | 52.79974 | 8.25686 | 322° | 15km/h | 19426m | -11.6m/s | -49.6°C | 0.8% | 63.7hPa | 2.6V | 08:22:55 | 01:42:17 | 00:00:00 | |
| AA1-15 | 2026-09-01 11:16:18 | 52.79972 | 8.25692 | 215° | 7km/h | 19449m | -11.5m/s | -49.6°C | 1% | 63.5hPa | 2.7V | 08:22:55 | 01:42:15 | 00:00:00 | |
| HSKMA3-T | 2026-09-01 11:16:14 | 52.79988 | 8.25676 | 131° | 31km/h | 19496m | -12.4m/s | -49.6°C | 1.1% | 63hPa | 2.6V | 08:22:55 | 01:42:11 | 00:00:00 | |
| DF8AY | 2026-09-01 11:16:13 | 52.79997 | 8.25650 | 108° | 38km/h | 19521m | -12.4m/s | -49.7°C | 1.1% | 62.8hPa | 2.7V | 08:22:55 | 01:42:09 | 00:00:00 | |
| DD1CC3-15 | 2026-09-01 11:16:12 | 52.79997 | 8.25650 | 109° | 38km/h | 19521m | -12.4m/s | -49.7°C | 1.5% | 62.7hPa | 2.7V | 08:22:00 | 00:00:00 | 00:00:00 | |
| GOEST3-10 | 2026-09-01 11:16:11 | 52.79999 | 8.25634 | 95° | 40km/h | 19533m | -12.3m/s | -49.7°C | 4.1% | 62.6hPa | 2.7V | 00:00:00 | 01:42:08 | 00:00:00 | |
| DM0DOS-11 | 2026-09-01 11:16:10 | 52.79965 | 8.25570 | 355° | 35km/h | 19606m | -12.3m/s | -49.6°C | 3.8% | 61.9hPa | 2.6V | 08:22:53 | 01:42:02 | 00:00:00 | |
| DO2JMG | 2026-09-01 11:16:09 | 52.79995 | 8.25601 | 65° | 42km/h | 19557m | -12.4m/s | -49.9°C | 1% | 62.4hPa | 2.6V | 08:22:55 | 01:42:06 | 00:00:00 | |
| AA1-15 | 2026-09-01 11:16:07 | 52.79982 | 8.25577 | 31° | 38km/h | 19582m | -11.9m/s | -49.8°C | 0.9% | 62.2hPa | 2.7V | 08:22:55 | 01:42:04 | 00:00:00 | |
| HSKMA3-T | 2026-09-01 11:16:04 | 52.79957 | 8.25573 | 337° | 31km/h | 19618m | -12.1m/s | -49.6°C | 0.9% | 61.8hPa | 2.6V | 08:22:55 | 01:42:01 | 00:00:00 | |
| BIOWL1-15 | 2026-09-01 11:16:03 | 52.79951 | 8.25606 | 191° | 16km/h | 19678m | -11.8m/s | -49.8°C | 1% | 61.2hPa | 2.6V | 08:23:46 | 01:41:56 | 00:00:00 | |
| DL1XH-west | 2026-09-01 11:16:01 | 52.79946 | 8.25596 | 265° | 20km/h | 19654m | -11.7m/s | -49.7°C | 0.9% | 61.4hPa | 2.7V | 08:23:46 | 01:41:58 | 00:00:00 | |
| DD1CC8 | 2026-09-01 11:16:01 | 52.79948 | 8.25603 | 230° | 15km/h | 19666m | -11.7m/s | -49.7°C | 1.3% | 61.4hPa | 2.6V | 00:00:00 | 00:00:00 | 00:00:00 | |
| DL1XH1-15 | 2026-09-01 11:16:00 | 52.79958 | 8.25600 | 121° | 22km/h | 19701m | -12m/s | -49.8°C | 4% | 61hPa | 2.6V | 08:23:01 | 01:41:54 | 00:00:00 | |
| DO2JMG | 2026-09-01 11:15:58 | 52.79955 | 8.25605 | 152° | 18km/h | 19689m | -12.1m/s | -49.8°C | 1% | 61.2hPa | 2.6V | 08:23:46 | 01:41:55 | 00:00:00 | |
| AA1-15 | 2026-09-01 11:15:57 | 52.79960 | 8.25591 | 99° | 27km/h | 19714m | -12m/s | -49.8°C | 0.9% | 60.9hPa | 2.7V | 08:23:46 | 01:41:53 | 00:00:00 | |
| EDDB2-12 | 2026-09-01 11:15:56 | 52.79960 | 8.25591 | 98° | 26km/h | 19714m | -12.0m/s | -49.8°C | 1.3% | 60.9hPa | 2.7V | 00:00:00 | 00:00:00 | 00:00:00 | |
| DB0DAN | 2026-09-01 11:15:55 | 52.79960 | 8.25578 | 80° | 31km/h | 19725m | -11.9m/s | -49.8°C | 1.3% | 60.8hPa | 2.7V | 00:00:00 | 00:00:00 | 00:00:00 | |
| HSKMA3-T | 2026-09-01 11:15:53 | 52.79952 | 8.25550 | 50° | 44km/h | 19749m | -11.8m/s | -49.8°C | 0.9% | 60.6hPa | 2.6V | 08:23:46 | 01:41:50 | 00:00:00 | |
| DL1XH-west | 2026-09-01 11:15:51 | 52.79933 | 8.25527 | 24° | 51km/h | 19773m | -12m/s | -50°C | 0.9% | 60.4hPa | 2.6V | 08:23:46 | 01:41:48 | 00:00:00 | |
| DF8AY | 2026-09-01 11:15:50 | 52.79920 | 8.25521 | 13° | 51km/h | 19785m | -12.1m/s | -50.1°C | 0.8% | 60.2hPa | 2.7V | 08:23:46 | 01:41:47 | 00:00:00 | |
| BIOWL1-15 | 2026-09-01 11:15:49 | 52.79876 | 8.25530 | 329° | 37km/h | 19832m | -11.8m/s | -50.4°C | 0.8% | 59.8hPa | 2.7V | 08:23:46 | 01:41:43 | 00:00:00 | |
| DO2JMG | 2026-09-01 11:15:48 | 52.79895 | 8.25519 | 351° | 47km/h | 19809m | -11.8m/s | -50.3°C | 0.8% | 60hPa | 2.6V | 08:23:46 | 01:41:45 | 00:00:00 | |
| DL1XH1-15 | 2026-09-01 11:15:48 | 52.79884 | 8.25523 | 340° | 42km/h | 19821m | -11.7m/s | -50.4°C | 3.8% | 59.9hPa | 2.6V | 08:23:11 | 01:41:44 | 00:00:00 | |
| AA1-15 | 2026-09-01 11:15:45 | 52.79869 | 8.25538 | 317° | 29km/h | 19844m | -11.6m/s | -50.5°C | 0.8% | 59.7hPa | 2.7V | 08:23:46 | 01:41:42 | 00:00:00 | |
| HSKMA3-T | 2026-09-01 11:15:43 | 52.79863 | 8.25553 | 220° | 4km/h | 19880m | -11.9m/s | -50.6°C | 1% | 59.4hPa | 2.6V | 08:23:46 | 01:41:39 | 00:00:00 | |
| DL8OAI-8 | 2026-09-01 11:15:42 | 52.79863 | 8.25553 | 221° | 2km/h | 19880m | -11.9m/s | -50.6°C | 1.4% | 59.4hPa | 2.7V | 08:23:00 | 00:00:00 | 00:00:00 | |
| DB0DAN | 2026-09-01 11:15:40 | 52.79865 | 8.25548 | 106° | 16km/h | 19903m | -11.5m/s | -50.6°C | 1.4% | 59.17hPa | 2.7V | 00:00:00 | 00:00:00 | 00:00:00 | |
| DL1XH-west | 2026-09-01 11:15:40 | 52.79865 | 8.25548 | 106° | 16km/h | 19903m | -11.5m/s | -50.6°C | 1% | 59.2hPa | 2.7V | 08:23:46 | 01:41:37 | 00:00:00 | |
| DF8AY | 2026-09-01 11:15:39 | 52.79866 | 8.25539 | 95° | 24km/h | 19915m | -11.7m/s | -50.6°C | 1% | 59.1hPa | 2.7V | 08:23:46 | 01:41:36 | 00:00:00 | |
| BIOWL1-15 | 2026-09-01 11:15:38 | 52.79861 | 8.25499 | 66° | 40km/h | 19950m | -12.3m/s | -50.8°C | 1% | 58.8hPa | 2.6V | 08:23:46 | 01:41:33 | 00:00:00 | |
| DO2JMG | 2026-09-01 11:15:37 | 52.79864 | 8.25514 | 75° | 37km/h | 19938m | -11.9m/s | -50.7°C | 1% | 58.9hPa | 2.6V | 08:23:46 | 01:41:34 | 00:00:00 | |
| DF5WG-10 | 2026-09-01 11:15:37 | 52.79864 | 8.25514 | 76° | 37km/h | 19938m | -11.8m/s | -50.7°C | 4.1% | 58.8hPa | 2.6V | 00:00:00 | 01:41:34 | 00:00:00 | |
| DM0DOS-11 | 2026-09-01 11:15:36 | 52.79856 | 8.25483 | 56° | 46km/h | 19962m | -11.7m/s | -50.9°C | 4.1% | 58.6hPa | 2.7V | 08:23:23 | 01:41:32 | 00:00:00 | |
| AA1-15 | 2026-09-01 11:15:34 | 52.79848 | 8.25468 | 46° | 47km/h | 19974m | -11.6m/s | -51.1°C | 1.1% | 58.5hPa | 2.7V | 08:23:46 | 01:41:31 | 00:00:00 | |
| HSKMA3-T | 2026-09-01 11:15:32 | 52.79829 | 8.25445 | 26° | 47km/h | 19997m | -11.6m/s | -51.5°C | 1.1% | 58.3hPa | 2.6V | 08:23:46 | 01:41:29 | 00:00:00 | |
| DL1XH-west | 2026-09-01 11:15:29 | 52.79797 | 8.25433 | 359° | 38km/h | 20032m | -11.8m/s | -51.9°C | 1% | 58hPa | 2.7V | 08:23:46 | 01:41:26 | 00:00:00 | |
| DF8AY | 2026-09-01 11:15:28 | 52.79788 | 8.25434 | 350° | 33km/h | 20043m | -11.5m/s | -51.9°C | 1.1% | 57.9hPa | 2.7V | 08:23:46 | 01:41:25 | 00:00:00 | |
| DL1XH-15 | 2026-09-01 11:15:28 | 52.79773 | 8.25446 | 304° | 13km/h | 20079m | -11.7m/s | -51.8°C | 4.4% | 57.6hPa | 2.7V | 08:23:33 | 01:41:22 | 00:00:00 | |
| DL1XH1-15 | 2026-09-01 11:15:28 | 52.79781 | 8.25438 | 340° | 27km/h | 20055m | -11.8m/s | -51.9°C | 4.3% | 57.8hPa | 2.6V | 08:23:31 | 01:41:24 | 00:00:00 | |
| DO2JMG | 2026-09-01 11:15:27 | 52.79781 | 8.25438 | 341° | 27km/h | 20055m | -11.8m/s | -51.9°C | 1.1% | 57.8hPa | 2.6V | 08:23:46 | 01:41:24 | 00:00:00 | |
| DL4XJ-10 | 2026-09-01 11:15:27 | 52.79781 | 8.25437 | 341° | 29km/h | 20055m | -11.7m/s | -50.5°C | 0% | 0hPa | 2.7V | 00:00:00 | 00:00:00 | 00:00:00 | |
| DC6BW-12 | 2026-09-01 11:15:26 | 52.79781 | 8.25438 | 342° | 27km/h | 20056m | -11.8m/s | -51.9°C | 1.5% | 57.8hPa | 2.7V | 08:23:00 | 00:00:00 | 00:00:00 | |
| DB0DAN | 2026-09-01 11:15:25 | 52.79773 | 8.25446 | 304° | 13km/h | 20079m | -11.7m/s | -51.8°C | 1.5% | 57.6hPa | 2.7V | 00:00:00 | 00:00:00 | 00:00:00 | |
| AA1-15 | 2026-09-01 11:15:23 | 52.79773 | 8.25452 | 193° | 9km/h | 20103m | -12.3m/s | -51.7°C | 1.3% | 57.4hPa | 2.6V | 08:23:46 | 01:41:20 | 00:00:00 | |
| HSKMA3-T | 2026-09-01 11:15:21 | 52.79780 | 8.25447 | 142° | 22km/h | 20127m | -12.1m/s | -51.5°C | 1.3% | 57.1hPa | 2.6V | 08:23:46 | 01:41:18 | 00:00:00 | |
| DL1XH-west | 2026-09-01 11:15:18 | 52.79791 | 8.25415 | 97° | 37km/h | 20165m | -12.3m/s | -51.4°C | 1.2% | 56.8hPa | 2.7V | 08:23:46 | 01:41:15 | 00:00:00 | |
| DO2JMG | 2026-09-01 11:15:17 | 52.79787 | 8.25384 | 63° | 40km/h | 20189m | -12.2m/s | -51.6°C | 1.3% | 56.6hPa | 2.6V | 08:23:46 | 01:41:13 | 00:00:00 | |
| AA1-15 | 2026-09-01 11:15:12 | 52.79753 | 8.25346 | 5° | 40km/h | 20238m | -12.5m/s | -51.6°C | 1.1% | 56.2hPa | 2.7V | 08:23:46 | 01:41:09 | 00:00:00 | |
| DL1XH1-15 | 2026-09-01 11:15:11 | 52.79723 | 8.25374 | 266° | 20km/h | 20299m | -12.1m/s | -51.4°C | 4.2% | 55.6hPa | 2.7V | 08:23:51 | 01:41:04 | 00:00:00 | |
| HSKMA3-T | 2026-09-01 11:15:10 | 52.79735 | 8.25350 | 336° | 33km/h | 20262m | -12.2m/s | -51.4°C | 1.1% | 56hPa | 2.6V | 08:24:37 | 01:41:07 | 00:00:00 | |
| DF8AY | 2026-09-01 11:15:08 | 52.79724 | 8.25365 | 296° | 24km/h | 20287m | -12.3m/s | -51.5°C | 1.2% | 55.7hPa | 2.7V | 08:24:37 | 01:41:05 | 00:00:00 | |
| DL1XH-west | 2026-09-01 11:15:07 | 52.79723 | 8.25374 | 266° | 20km/h | 20299m | -12.1m/s | -51.4°C | 1.2% | 55.6hPa | 2.7V | 08:24:37 | 01:41:04 | 00:00:00 | |
| DO2JMG | 2026-09-01 11:15:06 | 52.79725 | 8.25381 | 233° | 18km/h | 20311m | -11.9m/s | -51.5°C | 1.2% | 55.5hPa | 2.6V | 08:24:37 | 01:41:03 | 00:00:00 | |
| AA1-15 | 2026-09-01 11:15:01 | 52.79749 | 8.25362 | 114° | 37km/h | 20373m | -12.6m/s | -51.8°C | 1.4% | 55hPa | 2.6V | 08:24:37 | 01:40:58 | 00:00:00 | |
| BIOWL1-15 | 2026-09-01 11:14:59 | 52.79752 | 8.25329 | 85° | 44km/h | 20398m | -12.5m/s | -51.9°C | 1.3% | 54.8hPa | 2.7V | 08:24:37 | 01:40:56 | 00:00:00 | |
| DD1CC8 | 2026-09-01 11:14:59 | 52.79750 | 8.25311 | 71° | 44km/h | 20411m | -12.6m/s | -52.0°C | 1.5% | 54.7hPa | 2.7V | 00:00:00 | 00:00:00 | 00:00:00 | |
| DL1XH1-15 | 2026-09-01 11:14:58 | 52.79745 | 8.25295 | 56° | 42km/h | 20423m | -12.2m/s | -52.1°C | 4.5% | 54.5hPa | 2.7V | 08:24:01 | 01:40:54 | 00:00:00 | |
| DL1XH-west | 2026-09-01 11:14:57 | 52.79745 | 8.25295 | 57° | 42km/h | 20423m | -12.3m/s | -52.1°C | 1.3% | 54.5hPa | 2.7V | 08:24:37 | 01:40:54 | 00:00:00 | |
| DO2JMG | 2026-09-01 11:14:56 | 52.79738 | 8.25282 | 44° | 40km/h | 20435m | -12.1m/s | -52.2°C | 1.2% | 54.5hPa | 2.6V | 08:24:37 | 01:40:53 | 00:00:00 | |
| EDDB2-12 | 2026-09-01 11:14:54 | 52.79718 | 8.25269 | 345° | 18km/h | 20472m | -12.3m/s | -52.4°C | 1.5% | 54.2hPa | 2.7V | 00:00:00 | 00:00:00 | 00:00:00 | |
| SONDE2-11 | 2026-09-01 11:14:52 | 52.79715 | 8.25273 | 308° | 13km/h | 20484m | -12.3m/s | -52.4°C | 1.5% | 54.1hPa | 2.7V | 00:00:00 | 00:00:00 | 00:00:00 | |
| GOEST3-10 | 2026-09-01 11:14:51 | 52.79714 | 8.25278 | 264° | 24km/h | 20497m | -12.3m/s | -52.2°C | 4.6% | 53.9hPa | 2.7V | 00:00:00 | 01:40:48 | 00:00:00 | |
| DL1XH1-15 | 2026-09-01 11:14:50 | 52.79735 | 8.25291 | 170° | 33km/h | 20546m | -12.6m/s | -51.5°C | 4.5% | 53.5hPa | 2.7V | 08:24:11 | 01:40:44 | 00:00:00 | |
| AA1-15 | 2026-09-01 11:14:50 | 52.79716 | 8.25284 | 228° | 18km/h | 20509m | -12.4m/s | -51.9°C | 1.3% | 53.9hPa | 2.6V | 08:24:37 | 01:40:47 | 00:00:00 | |
| BIOWL1-15 | 2026-09-01 11:14:50 | 52.79727 | 8.25292 | 186° | 29km/h | 20534m | -12.5m/s | -51.7°C | 1.3% | 53.7hPa | 2.6V | 08:24:37 | 01:40:45 | 00:00:00 | |
| HSKMA3-T | 2026-09-01 11:14:49 | 52.79720 | 8.25289 | 204° | 24km/h | 20521m | -12.5m/s | -51.8°C | 1.3% | 53.7hPa | 2.6V | 08:24:37 | 01:40:46 | 00:00:00 | |
| DL1XH-west | 2026-09-01 11:14:46 | 52.79743 | 8.25287 | 155° | 37km/h | 20559m | -12.7m/s | -51.4°C | 1.3% | 53.5hPa | 2.7V | 08:24:37 | 01:40:43 | 00:00:00 | |
| DO2JMG | 2026-09-01 11:14:45 | 52.79751 | 8.25278 | 140° | 38km/h | 20572m | -13.1m/s | -51.3°C | 1.3% | 53.3hPa | 2.6V | 08:24:37 | 01:40:42 | 00:00:00 | |
| DM0DOS-11 | 2026-09-01 11:14:45 | 52.79751 | 8.25278 | 139° | 38km/h | 20572m | -13.1m/s | -51.3°C | 4.5% | 53.3hPa | 2.6V | 08:24:13 | 01:40:42 | 00:00:00 | |
| AA1-15 | 2026-09-01 11:14:39 | 52.79746 | 8.25201 | 25° | 38km/h | 20648m | -12.2m/s | -51.5°C | 1.1% | 52.7hPa | 2.6V | 08:24:37 | 01:40:36 | 00:00:00 | |
| DL1XH1-15 | 2026-09-01 11:14:38 | 52.79726 | 8.25196 | 353° | 38km/h | 20672m | -12.7m/s | -51.7°C | 4.2% | 52.5hPa | 2.7V | 08:24:21 | 01:40:34 | 00:00:00 | |
| HSKMA3-T | 2026-09-01 11:14:38 | 52.79736 | 8.25197 | 8° | 38km/h | 20660m | -12.3m/s | -51.6°C | 1.2% | 52.6hPa | 2.7V | 08:24:37 | 01:40:35 | 00:00:00 | |
| DL1XH-15 | 2026-09-01 11:14:38 | 52.79710 | 8.25207 | 322° | 33km/h | 20698m | -13m/s | -51.8°C | 4.3% | 52.3hPa | 2.6V | 08:24:23 | 01:40:32 | 00:00:00 | |
| BIOWL1-15 | 2026-09-01 11:14:37 | 52.79726 | 8.25196 | 354° | 38km/h | 20672m | -12.7m/s | -51.7°C | 1.2% | 52.5hPa | 2.7V | 08:24:37 | 01:40:34 | 00:00:00 | |
| DL1XH-west | 2026-09-01 11:14:35 | 52.79710 | 8.25207 | 323° | 33km/h | 20699m | -13m/s | -51.8°C | 1.2% | 52.3hPa | 2.6V | 08:24:37 | 01:40:32 | 00:00:00 | |
| DO3DL | 2026-09-01 11:14:34 | 52.79704 | 8.25216 | 308° | 27km/h | 20712m | -13.3m/s | -51.8°C | 1.5% | 52.2hPa | 2.6V | 08:24:00 | 00:00:00 | 00:00:00 | |
| DD1CC2-15 | 2026-09-01 11:14:33 | 52.79704 | 8.25216 | 308° | 27km/h | 20712m | -13.3m/s | -51.8°C | 1.5% | 52.2hPa | 2.6V | 08:24:00 | 00:00:00 | 00:00:00 | |
| GOEST3-10 | 2026-09-01 11:14:31 | 52.79703 | 8.25234 | 186° | 27km/h | 20750m | -12.0m/s | -52.0°C | 4.6% | 51.8hPa | 2.6V | 00:00:00 | 01:40:28 | 00:00:00 | |
| DL1XH1-15 | 2026-09-01 11:14:30 | 52.79712 | 8.25196 | 86° | 42km/h | 20799m | -13m/s | -52°C | 4.7% | 51.5hPa | 2.6V | 08:24:31 | 01:40:24 | 00:00:00 | |
| BIOWL1-15 | 2026-09-01 11:14:29 | 52.79712 | 8.25196 | 87° | 42km/h | 20799m | -13m/s | -52°C | 1.4% | 51.5hPa | 2.6V | 08:24:37 | 01:40:24 | 00:00:00 | |
| HSKMA3-T | 2026-09-01 11:14:28 | 52.79712 | 8.25212 | 99° | 37km/h | 20786m | -12.7m/s | -52.1°C | 1.5% | 51.6hPa | 2.6V | 08:24:37 | 01:40:25 | 00:00:00 | |
| DL3AQ-11 | 2026-09-01 11:14:28 | 52.79712 | 8.25196 | 86° | 42km/h | 20800m | -13.0m/s | -52.0°C | 1.6% | 51.5hPa | 2.7V | 00:00:00 | 00:00:00 | 00:00:00 | |
| DL1XH-15 | 2026-09-01 11:14:27 | 52.79706 | 8.25159 | 64° | 49km/h | 20825m | -12.6m/s | -52°C | 4.6% | 51.2hPa | 2.7V | 08:24:33 | 01:40:22 | 00:00:00 | |
| DL1XH-west | 2026-09-01 11:14:25 | 52.79706 | 8.25159 | 64° | 49km/h | 20825m | -12.6m/s | -52°C | 1.4% | 51.2hPa | 2.7V | 08:24:37 | 01:40:22 | 00:00:00 | |
| DO2JMG | 2026-09-01 11:14:24 | 52.79699 | 8.25141 | 52° | 49km/h | 20838m | -13m/s | -52.1°C | 1.4% | 51.1hPa | 2.7V | 08:24:37 | 01:40:21 | 00:00:00 | |
| EDDB2-12 | 2026-09-01 11:14:23 | 52.79681 | 8.25116 | 25° | 46km/h | 20864m | -12.6m/s | -52.1°C | 1.5% | 51.0hPa | 2.7V | 00:00:00 | 00:00:00 | 00:00:00 | |
| GOEST3-10 | 2026-09-01 11:14:21 | 52.79670 | 8.25110 | 10° | 35km/h | 20876m | -12.8m/s | -51.9°C | 4.4% | 50.8hPa | 2.7V | 00:00:00 | 01:40:18 | 00:00:00 | |
| DO3DL | 2026-09-01 11:14:20 | 52.79670 | 8.25110 | 11° | 42km/h | 20876m | -12.9m/s | -52.0°C | 1.4% | 50.8hPa | 2.7V | 08:24:00 | 00:00:00 | 00:00:00 | |
| DL8OAI-8 | 2026-09-01 11:14:19 | 52.79660 | 8.25110 | 354° | 38km/h | 20889m | -12.6m/s | -51.7°C | 1.5% | 50.8hPa | 2.7V | 08:25:00 | 00:00:00 | 00:00:00 | |
| DL1XH-15 | 2026-09-01 11:14:18 | 52.79638 | 8.25147 | 249° | 16km/h | 20953m | -13.4m/s | -51°C | 4.2% | 50.2hPa | 2.7V | 08:24:43 | 01:40:12 | 00:00:00 | |
| DL1XH1-15 | 2026-09-01 11:14:18 | 52.79639 | 8.25130 | 299° | 26km/h | 20927m | -12.8m/s | -51.3°C | 4.2% | 50.5hPa | 2.6V | 08:24:41 | 01:40:14 | 00:00:00 | |
| HSKMA3-T | 2026-09-01 11:14:17 | 52.79639 | 8.25130 | 300° | 26km/h | 20927m | -12.8m/s | -51.3°C | 1.1% | 50.5hPa | 2.6V | 08:25:28 | 01:40:14 | 00:00:00 | |
| BIOWL1-15 | 2026-09-01 11:14:16 | 52.79637 | 8.25139 | 278° | 22km/h | 20940m | -12.9m/s | -51.2°C | 1.1% | 50.3hPa | 2.7V | 08:25:28 | 01:40:13 | 00:00:00 | |
| DL1XH-west | 2026-09-01 11:14:15 | 52.79638 | 8.25147 | 250° | 16km/h | 20953m | -13.5m/s | -51°C | 1.1% | 50.3hPa | 2.7V | 08:25:28 | 01:40:12 | 00:00:00 | |
| DO2JMG | 2026-09-01 11:14:14 | 52.79640 | 8.25152 | 213° | 15km/h | 20966m | -13.1m/s | -50.9°C | 1.1% | 50.1hPa | 2.6V | 08:25:28 | 01:40:11 | 00:00:00 | |
| DF8AY | 2026-09-01 11:14:13 | 52.79644 | 8.25153 | 170° | 16km/h | 20979m | -13m/s | -50.9°C | 1.2% | 50hPa | 2.6V | 08:25:28 | 01:40:10 | 00:00:00 | |
| GOEST3-10 | 2026-09-01 11:14:11 | 52.79651 | 8.25142 | 113° | 35km/h | 21005m | -12.8m/s | -51.1°C | 4.3% | 49.8hPa | 2.7V | 08:24:00 | 01:40:08 | 00:00:00 | |
| DL1XH1-15 | 2026-09-01 11:14:10 | 52.79642 | 8.25089 | 44° | 42km/h | 21057m | -13.3m/s | -51.1°C | 4.1% | 49.5hPa | 2.6V | 08:24:51 | 01:40:04 | 00:00:00 | |
| DL4BBY-15 | 2026-09-01 11:14:10 | 52.79652 | 8.25130 | 94° | 33km/h | 21017m | -13.3m/s | -49.8°C | 0% | 0hPa | 2.7V | 00:00:00 | 00:00:00 | 00:00:00 | |
| DJ2DS-15 | 2026-09-01 11:14:09 | 52.79651 | 8.25116 | 76° | 35km/h | 21031m | -13.4m/s | -51.0°C | 1.4% | 49.7hPa | 2.7V | 00:00:00 | 00:00:00 | 00:00:00 | |
| DD1CC3-15 | 2026-09-01 11:14:08 | 52.79648 | 8.25102 | 62° | 40km/h | 21044m | -13.5m/s | -51.0°C | 1.4% | 49.6hPa | 2.7V | 08:25:00 | 00:00:00 | 00:00:00 | |
| HSKMA3-T | 2026-09-01 11:14:08 | 52.79642 | 8.25089 | 45° | 42km/h | 21057m | -13.3m/s | -51.1°C | 1% | 49.5hPa | 2.6V | 08:25:28 | 01:40:04 | 00:00:00 | |
| DL4XJ-10 | 2026-09-01 11:14:07 | 52.79642 | 8.25089 | 45° | 31km/h | 21058m | -13.2m/s | -49.7°C | 0% | 0hPa | 2.7V | 00:00:00 | 00:00:00 | 00:00:00 | |
| DL1XH-15 | 2026-09-01 11:14:06 | 52.79623 | 8.25072 | 12° | 44km/h | 21084m | -12.9m/s | -51.5°C | 4.2% | 49.2hPa | 2.7V | 08:24:53 | 01:40:02 | 00:00:00 | |
| AA1-15 | 2026-09-01 11:14:06 | 52.79633 | 8.25078 | 29° | 44km/h | 21071m | -13.1m/s | -51.3°C | 1% | 49.4hPa | 2.6V | 08:25:28 | 01:40:03 | 00:00:00 | |
| BIOWL1-15 | 2026-09-01 11:14:06 | 52.79594 | 8.25081 | 323° | 37km/h | 21122m | -12.8m/s | -51.7°C | 1.1% | 49hPa | 2.6V | 08:25:28 | 01:39:59 | 00:00:00 | |
| DL1XH-west | 2026-09-01 11:14:04 | 52.79612 | 8.25071 | 356° | 42km/h | 21096m | -12.7m/s | -51.6°C | 1% | 49.2hPa | 2.7V | 08:25:28 | 01:40:01 | 00:00:00 | |
| DF8AY | 2026-09-01 11:14:03 | 52.79603 | 8.25074 | 339° | 40km/h | 21109m | -12.7m/s | -51.7°C | 1.1% | 49.1hPa | 2.7V | 08:25:28 | 01:40:00 | 00:00:00 | |
| BIOWL9-15 | 2026-09-01 11:14:03 | 52.79594 | 8.25081 | 323° | 35km/h | 21122m | -12.8m/s | -51.7°C | 1.4% | 49.0hPa | 2.6V | 00:00:00 | 00:00:00 | 00:00:00 | |
| DL3AQ-11 | 2026-09-01 11:13:59 | 52.79585 | 8.25124 | 246° | 24km/h | 21174m | -12.7m/s | -51.2°C | 1.4% | 48.6hPa | 2.6V | 00:00:00 | 00:00:00 | 00:00:00 | |
| DL1XH-15 | 2026-09-01 11:13:58 | 52.79597 | 8.25140 | 180° | 20km/h | 21212m | -13m/s | -51.3°C | 4.4% | 48.3hPa | 2.6V | 08:25:03 | 01:39:52 | 00:00:00 | |
| AA1-15 | 2026-09-01 11:13:56 | 52.79593 | 8.25138 | 204° | 22km/h | 21199m | -12.9m/s | -51.2°C | 1.1% | 48.4hPa | 2.6V | 08:25:28 | 01:39:53 | 00:00:00 | |
| DL8DAS-14 | 2026-09-01 11:13:56 | 52.79598 | 8.25140 | 180° | 18km/h | 21212m | -13.0m/s | -51.3°C | 1.5% | 48.3hPa | 2.6V | 00:00:00 | 00:00:00 | 00:00:00 | |
| DB0DAN | 2026-09-01 11:13:55 | 52.79598 | 8.25140 | 180° | 18km/h | 21212m | -13m/s | -51.3°C | 1.5% | 48.27hPa | 2.6V | 00:00:00 | 00:00:00 | 00:00:00 | |
| DL1XH-west | 2026-09-01 11:13:53 | 52.79605 | 8.25133 | 121° | 20km/h | 21238m | -13.3m/s | -51.4°C | 1.3% | 48.1hPa | 2.7V | 08:25:28 | 01:39:50 | 00:00:00 | |
| DO2JMG | 2026-09-01 11:13:52 | 52.79607 | 8.25124 | 95° | 24km/h | 21252m | -13.3m/s | -51.3°C | 1.3% | 48hPa | 2.7V | 08:25:28 | 01:39:49 | 00:00:00 | |
| EDDB2-12 | 2026-09-01 11:13:52 | 52.79606 | 8.25113 | 76° | 27km/h | 21265m | -13.0m/s | -51.0°C | 1.5% | 47.9hPa | 2.6V | 00:00:00 | 00:00:00 | 00:00:00 | |
| SONDE2-11 | 2026-09-01 11:13:50 | 52.79603 | 8.25102 | 59° | 33km/h | 21278m | -13.5m/s | -51.0°C | 1.4% | 47.8hPa | 2.6V | 00:00:00 | 00:00:00 | 00:00:00 | |
| HTAHTA | 2026-09-01 11:13:49 | 52.79598 | 8.25090 | 45° | 38km/h | 21291m | -13.5m/s | -51.1°C | 1.4% | 47.7hPa | 2.6V | 00:00:00 | 00:00:00 | 00:00:00 | |
| DL3AQ-11 | 2026-09-01 11:13:48 | 52.79580 | 8.25072 | 18° | 44km/h | 21318m | -13.0m/s | -51.2°C | 1.4% | 47.5hPa | 2.6V | 00:00:00 | 00:00:00 | 00:00:00 | |
| DL4XJ-10 | 2026-09-01 11:13:47 | 52.79580 | 8.25072 | 19° | 38km/h | 21318m | -13.0m/s | -49.8°C | 0% | 0hPa | 2.6V | 00:00:00 | 00:00:00 | 00:00:00 | |
| DM0DOS-11 | 2026-09-01 11:13:46 | 52.79558 | 8.25069 | 351° | 44km/h | 21345m | -13.3m/s | -51.4°C | 4.2% | 47.3hPa | 2.6V | 08:25:13 | 01:39:42 | 00:00:00 | |
| HSKMA3-T | 2026-09-01 11:13:46 | 52.79569 | 8.25068 | 5° | 46km/h | 21331m | -13.1m/s | -51.3°C | 1% | 47.4hPa | 2.6V | 08:25:28 | 01:39:43 | 00:00:00 | |
| AA1-15 | 2026-09-01 11:13:45 | 52.79558 | 8.25069 | 351° | 44km/h | 21345m | -13.3m/s | -51.4°C | 1.1% | 47.3hPa | 2.6V | 08:25:28 | 01:39:42 | 00:00:00 | |
| SONCRA | 2026-09-01 11:13:44 | 52.79548 | 8.25074 | 336° | 40km/h | 21358m | -13.5m/s | -51.5°C | 1.4% | 47.2hPa | 2.7V | 00:00:00 | 00:00:00 | 00:00:00 | |
| DL1XH-west | 2026-09-01 11:13:43 | 52.79539 | 8.25082 | 322° | 37km/h | 21371m | -13.4m/s | -51.4°C | 1.1% | 47.1hPa | 2.7V | 08:25:28 | 01:39:40 | 00:00:00 | |
| DF8AY | 2026-09-01 11:13:42 | 52.79534 | 8.25117 | 165° | 13km/h | 21438m | -13.4m/s | -51.3°C | 1.2% | 46.6hPa | 2.7V | 08:25:28 | 01:39:35 | 00:00:00 | |
| DO2JMG | 2026-09-01 11:13:41 | 52.79530 | 8.25102 | 288° | 26km/h | 21398m | -13.4m/s | -51.4°C | 1.1% | 46.9hPa | 2.6V | 08:25:28 | 01:39:38 | 00:00:00 | |
| SMARD9-10 | 2026-09-01 11:13:41 | 52.79530 | 8.25102 | 289° | 26km/h | 21398m | -13.4m/s | -51.4°C | 1.4% | 46.9hPa | 2.7V | 00:00:00 | 00:00:00 | 00:00:00 | |
| DL4BBY-15 | 2026-09-01 11:13:40 | 52.79529 | 8.25111 | 263° | 38km/h | 21412m | -13.5m/s | -50.0°C | 0% | 0hPa | 2.7V | 00:00:00 | 00:00:00 | 00:00:00 | |
| DO3DL | 2026-09-01 11:13:39 | 52.79529 | 8.25111 | 264° | 18km/h | 21412m | -13.5m/s | -51.4°C | 1.4% | 46.8hPa | 2.7V | 08:25:00 | 00:00:00 | 00:00:00 | |
| DL1XH1-15 | 2026-09-01 11:13:38 | 52.79537 | 8.25113 | 126° | 20km/h | 21452m | -13.4m/s | -51.3°C | 4.5% | 46.5hPa | 2.7V | 08:25:21 | 01:39:34 | 00:00:00 | |
| HSKMA3-T | 2026-09-01 11:13:36 | 52.79539 | 8.25104 | 103° | 27km/h | 21465m | -13.6m/s | -51.3°C | 1.2% | 46.4hPa | 2.7V | 08:25:28 | 01:39:33 | 00:00:00 | |
| AA1-15 | 2026-09-01 11:13:35 | 52.79540 | 8.25091 | 86° | 35km/h | 21478m | -13.7m/s | -51.3°C | 1.2% | 46.3hPa | 2.6V | 08:25:28 | 01:39:32 | 00:00:00 | |
| DL1XH-west | 2026-09-01 11:13:33 | 52.79533 | 8.25059 | 58° | 49km/h | 21505m | -13m/s | -51.2°C | 1.1% | 46.1hPa | 2.6V | 08:25:28 | 01:39:30 | 00:00:00 | |
| BIOWL1-15 | 2026-09-01 11:13:31 | 52.79501 | 8.25018 | 21° | 57km/h | 21545m | -13.1m/s | -51.3°C | 1.1% | 45.8hPa | 2.7V | 08:25:28 | 01:39:27 | 00:00:00 | |
| DO2JMG | 2026-09-01 11:13:31 | 52.79514 | 8.25028 | 33° | 55km/h | 21532m | -13.3m/s | -51.3°C | 1% | 45.9hPa | 2.7V | 08:25:28 | 01:39:28 | 00:00:00 | |
| DF8AY | 2026-09-01 11:13:27 | 52.79463 | 8.25013 | 347° | 46km/h | 21585m | -13.7m/s | -51.2°C | 1% | 45.5hPa | 2.6V | 08:26:19 | 01:39:24 | 00:00:00 | |
| DL4XJ-10 | 2026-09-01 11:13:27 | 52.79463 | 8.25012 | 347° | 38km/h | 21585m | -13.6m/s | -49.8°C | 0% | 0hPa | 2.7V | 00:00:00 | 00:00:00 | 00:00:00 | |
| DO3DL | 2026-09-01 11:13:26 | 52.79464 | 8.25013 | 348° | 46km/h | 21585m | -13.7m/s | -51.2°C | 1.3% | 45.5hPa | 2.7V | 08:26:00 | 00:00:00 | 00:00:00 | |
| DB0DAN | 2026-09-01 11:13:25 | 52.79446 | 8.25026 | 322° | 29km/h | 21612m | -13.8m/s | -51.1°C | 1.3% | 45.36hPa | 2.7V | 00:00:00 | 00:00:00 | 00:00:00 | |
| HSKMA3-T | 2026-09-01 11:13:25 | 52.79446 | 8.25026 | 322° | 31km/h | 21612m | -13.8m/s | -51.1°C | 0.9% | 45.4hPa | 2.7V | 08:26:19 | 01:39:22 | 00:00:00 | |
| AA1-15 | 2026-09-01 11:13:24 | 52.79441 | 8.25033 | 305° | 22km/h | 21626m | -13.4m/s | -51.1°C | 1% | 45.2hPa | 2.7V | 08:26:19 | 01:39:21 | 00:00:00 | |
| DL1XH-west | 2026-09-01 11:13:23 | 52.79439 | 8.25042 | 221° | 4km/h | 21652m | -13.4m/s | -51.2°C | 1% | 45hPa | 2.6V | 08:26:19 | 01:39:19 | 00:00:00 | |
| DF8AY | 2026-09-01 11:13:22 | 52.79438 | 8.24994 | 70° | 47km/h | 21719m | -13.6m/s | -51.3°C | 1% | 44.6hPa | 2.6V | 08:26:19 | 01:39:14 | 00:00:00 | |
| DO2JMG | 2026-09-01 11:13:20 | 52.79441 | 8.25035 | 101° | 20km/h | 21679m | -13.1m/s | -51.4°C | 1.1% | 44.9hPa | 2.7V | 08:26:19 | 01:39:17 | 00:00:00 | |
| BIOWL1-15 | 2026-09-01 11:13:19 | 52.79442 | 8.25025 | 88° | 29km/h | 21692m | -13.4m/s | -51.5°C | 1.1% | 44.8hPa | 2.7V | 08:26:19 | 01:39:16 | 00:00:00 | |
| HSKMA3-T | 2026-09-01 11:13:15 | 52.79424 | 8.24954 | 52° | 60km/h | 21746m | -13.9m/s | -51.3°C | 1% | 44.4hPa | 2.7V | 08:26:19 | 01:39:12 | 00:00:00 | |
| AA1-15 | 2026-09-01 11:13:13 | 52.79401 | 8.24919 | 35° | 66km/h | 21774m | -14.6m/s | -51.5°C | 1% | 44.2hPa | 2.6V | 08:26:19 | 01:39:10 | 00:00:00 | |
| DL1XH-west | 2026-09-01 11:13:12 | 52.79372 | 8.24898 | 13° | 58km/h | 21802m | -13.2m/s | -51.7°C | 0.9% | 44hPa | 2.7V | 08:26:19 | 01:39:08 | 00:00:00 | |
| DO2JMG | 2026-09-01 11:13:09 | 52.79348 | 8.24897 | 349° | 40km/h | 21829m | -13.3m/s | -51.6°C | 0.9% | 43.9hPa | 2.6V | 08:26:19 | 01:39:06 | 00:00:00 | |
| DF8AY | 2026-09-01 11:13:06 | 52.79332 | 8.24906 | 332° | 4km/h | 21870m | -13.9m/s | -51.5°C | 0.8% | 43.6hPa | 2.7V | 08:26:19 | 01:39:03 | 00:00:00 | |
| DM0DOS-11 | 2026-09-01 11:13:06 | 52.79332 | 8.24905 | 126° | 7km/h | 21883m | -13.4m/s | -51.6°C | 4.1% | 43.5hPa | 2.7V | 08:25:53 | 01:39:02 | 00:00:00 | |
| HSKMA3-T | 2026-09-01 11:13:04 | 52.79334 | 8.24900 | 121° | 20km/h | 21897m | -13.6m/s | -51.7°C | 1% | 43.4hPa | 2.6V | 08:26:19 | 01:39:01 | 00:00:00 | |
| AA1-15 | 2026-09-01 11:13:03 | 52.79337 | 8.24891 | 114° | 33km/h | 21911m | -13.7m/s | -51.7°C | 1% | 43.3hPa | 2.6V | 08:26:19 | 01:39:00 | 00:00:00 | |
| DL1XH-west | 2026-09-01 11:13:01 | 52.79343 | 8.24858 | 99° | 49km/h | 21939m | -14.5m/s | -51.8°C | 1.1% | 43.2hPa | 2.7V | 08:26:19 | 01:38:58 | 00:00:00 | |
| DO2JMG | 2026-09-01 11:12:59 | 52.79342 | 8.24815 | 80° | 58km/h | 21968m | -13.7m/s | -51.7°C | 1.1% | 42.9hPa | 2.7V | 08:26:19 | 01:38:56 | 00:00:00 | |
| DL1XH-15 | 2026-09-01 11:12:58 | 52.79316 | 8.24743 | 33° | 40km/h | 22024m | -14.1m/s | -51.5°C | 4.2% | 42.6hPa | 2.7V | 08:26:03 | 01:38:52 | 00:00:00 | |
| BIOWL1-15 | 2026-09-01 11:12:58 | 52.79339 | 8.24792 | 67° | 57km/h | 21982m | -13.7m/s | -51.8°C | 1.1% | 42.8hPa | 2.6V | 08:26:19 | 01:38:55 | 00:00:00 | |
| SMARD9-10 | 2026-09-01 11:12:58 | 52.79338 | 8.24792 | 68° | 57km/h | 21982m | -13.7m/s | -51.8°C | 1.4% | 42.8hPa | 2.7V | 00:00:00 | 00:00:00 | 00:00:00 | |
| DL1LOL-11 | 2026-09-01 11:12:57 | 52.79332 | 8.24772 | 58° | 53km/h | 21996m | -13.7m/s | -51.7°C | 1.3% | 42.7hPa | 2.7V | 00:00:00 | 00:00:00 | 00:00:00 | |
| DL8DAS-15 | 2026-09-01 11:12:56 | 52.79332 | 8.24772 | 58° | 53km/h | 21996m | -13.7m/s | 0°C | 0% | 0hPa | 2.7V | 00:00:00 | 00:00:00 | 00:00:00 | |
| DB0DAN | 2026-09-01 11:12:55 | 52.79316 | 8.24743 | 33° | 38km/h | 22024m | -14.1m/s | -51.5°C | 1.3% | 42.56hPa | 2.7V | 00:00:00 | 00:00:00 | 00:00:00 | |
| HSKMA3-T | 2026-09-01 11:12:54 | 52.79307 | 8.24737 | 16° | 35km/h | 22038m | -14.2m/s | -51.4°C | 0.9% | 42.5hPa | 2.7V | 08:26:19 | 01:38:51 | 00:00:00 | |
| AA1-15 | 2026-09-01 11:12:53 | 52.79300 | 8.24734 | 2° | 24km/h | 22052m | -14.5m/s | -51.4°C | 0.9% | 42.4hPa | 2.7V | 08:26:19 | 01:38:50 | 00:00:00 | |
| DL1XH-west | 2026-09-01 11:12:51 | 52.79293 | 8.24741 | 283° | 15km/h | 22078m | -12.9m/s | -51.4°C | 0.9% | 42.2hPa | 2.6V | 08:26:19 | 01:38:48 | 00:00:00 | |
| DO2JMG | 2026-09-01 11:12:48 | 52.79304 | 8.24760 | 204° | 31km/h | 22119m | -14m/s | -51.2°C | 0.9% | 41.9hPa | 2.7V | 08:26:19 | 01:38:45 | 00:00:00 | |
| SONDE2-11 | 2026-09-01 11:12:48 | 52.79304 | 8.24760 | 204° | 31km/h | 22119m | -14.0m/s | -51.2°C | 1.3% | 41.9hPa | 2.6V | 00:00:00 | 00:00:00 | 00:00:00 | |
| HTAHTA | 2026-09-01 11:12:47 | 52.79332 | 8.24764 | 166° | 42km/h | 22161m | -14.0m/s | -51.3°C | 1.3% | 41.6hPa | 2.6V | 00:00:00 | 00:00:00 | 00:00:00 | |
| DM0DOS-11 | 2026-09-01 11:12:46 | 52.79332 | 8.24764 | 166° | 44km/h | 22161m | -14m/s | -51.3°C | 4.2% | 41.6hPa | 2.6V | 08:26:13 | 01:38:42 | 00:00:00 | |
| HSKMA3-T | 2026-09-01 11:12:43 | 52.79351 | 8.24748 | 138° | 44km/h | 22189m | -14m/s | -51.1°C | 0.9% | 41.5hPa | 2.7V | 08:26:19 | 01:38:40 | 00:00:00 | |
| AA1-15 | 2026-09-01 11:12:42 | 52.79358 | 8.24735 | 121° | 40km/h | 22203m | -14.7m/s | -51.1°C | 0.9% | 41.4hPa | 2.7V | 08:26:19 | 01:38:39 | 00:00:00 | |
| DL1XH-west | 2026-09-01 11:12:41 | 52.79361 | 8.24721 | 102° | 35km/h | 22217m | -14.6m/s | -51°C | 0.9% | 41.3hPa | 2.6V | 08:26:19 | 01:38:38 | 00:00:00 | |
| BIOWL1-15 | 2026-09-01 11:12:37 | 52.79347 | 8.24689 | 352° | 31km/h | 22276m | -13.7m/s | -51.2°C | 0.8% | 40.9hPa | 2.6V | 08:27:10 | 01:38:34 | 00:00:00 | |
| DL4BBY-15 | 2026-09-01 11:12:37 | 52.79347 | 8.24689 | 352° | 37km/h | 22277m | -13.7m/s | -49.8°C | 0% | 0hPa | 2.7V | 00:00:00 | 00:00:00 | 00:00:00 | |
| DL1XH-15 | 2026-09-01 11:12:36 | 52.79333 | 8.24704 | 311° | 38km/h | 22303m | -13.6m/s | -51.3°C | 4% | 40.8hPa | 2.7V | 08:26:23 | 01:38:32 | 00:00:00 | |
| HSKMA3-T | 2026-09-01 11:12:33 | 52.79325 | 8.24735 | 276° | 44km/h | 22331m | -14.8m/s | -51.5°C | 0.9% | 40.6hPa | 2.6V | 08:27:10 | 01:38:30 | 00:00:00 | |
| DF8AY | 2026-09-01 11:12:32 | 52.79325 | 8.24753 | 265° | 46km/h | 22346m | -15.1m/s | -51.6°C | 0.9% | 40.5hPa | 2.6V | 08:27:10 | 01:38:29 | 00:00:00 | |
| DL1XH-west | 2026-09-01 11:12:31 | 52.79328 | 8.24771 | 247° | 44km/h | 22361m | -14.7m/s | -51.6°C | 0.9% | 40.4hPa | 2.6V | 08:27:10 | 01:38:28 | 00:00:00 | |
| BIOWL9-15 | 2026-09-01 11:12:30 | 52.79339 | 8.24796 | 215° | 33km/h | 22392m | -15.4m/s | -51.6°C | 1.3% | 40.2hPa | 2.6V | 00:00:00 | 00:00:00 | 00:00:00 | |
| DL1XH-15 | 2026-09-01 11:12:28 | 52.79356 | 8.24787 | 72° | 24km/h | 22450m | -14.3m/s | -51.5°C | 4.3% | 39.9hPa | 2.6V | 08:26:33 | 01:38:22 | 00:00:00 | |
| BIOWL1-15 | 2026-09-01 11:12:27 | 52.79352 | 8.24801 | 158° | 18km/h | 22420m | -14.6m/s | -51.6°C | 1% | 40hPa | 2.6V | 08:27:10 | 01:38:24 | 00:00:00 | |
| DO2JMG | 2026-09-01 11:12:27 | 52.79355 | 8.24795 | 116° | 20km/h | 22435m | -14.9m/s | -51.5°C | 1.1% | 39.9hPa | 2.6V | 08:27:10 | 01:38:23 | 00:00:00 | |
| HSKMA3-T | 2026-09-01 11:12:23 | 52.79346 | 8.24768 | 32° | 38km/h | 22479m | -14.8m/s | -51.5°C | 0.9% | 39.6hPa | 2.7V | 08:27:10 | 01:38:20 | 00:00:00 | |
| DL1XH-west | 2026-09-01 11:12:21 | 52.79324 | 8.24758 | 1° | 47km/h | 22508m | -14.6m/s | -51.5°C | 0.9% | 39.5hPa | 2.6V | 08:27:10 | 01:38:18 | 00:00:00 | |
| AA1-15 | 2026-09-01 11:12:20 | 52.79312 | 8.24760 | 349° | 51km/h | 22523m | -15m/s | -51.4°C | 0.9% | 39.4hPa | 2.6V | 08:27:10 | 01:38:17 | 00:00:00 | |
| BIOWL1-15 | 2026-09-01 11:12:18 | 52.79281 | 8.24817 | 206° | 16km/h | 22612m | -15.1m/s | -51.3°C | 1% | 38.9hPa | 2.6V | 08:27:10 | 01:38:11 | 00:00:00 | |
| DO2JMG | 2026-09-01 11:12:16 | 52.79280 | 8.24801 | 285° | 27km/h | 22582m | -14.6m/s | -51.4°C | 0.9% | 39hPa | 2.7V | 08:27:10 | 01:38:13 | 00:00:00 | |
| DL1XH-15 | 2026-09-01 11:12:16 | 52.79279 | 8.24811 | 263° | 20km/h | 22597m | -15.1m/s | -51.3°C | 4.2% | 38.9hPa | 2.6V | 08:26:43 | 01:38:12 | 00:00:00 | |
| HSKMA3-T | 2026-09-01 11:12:12 | 52.79290 | 8.24813 | 130° | 27km/h | 22641m | -14.5m/s | -51°C | 0.9% | 38.7hPa | 2.7V | 08:27:10 | 01:38:09 | 00:00:00 | |
| DF8AY | 2026-09-01 11:12:11 | 52.79294 | 8.24801 | 115° | 38km/h | 22656m | -15.1m/s | -50.9°C | 0.9% | 38.6hPa | 2.7V | 08:27:10 | 01:38:08 | 00:00:00 | |
| AA1-15 | 2026-09-01 11:12:10 | 52.79293 | 8.24743 | 71° | 53km/h | 22702m | -16m/s | -50.9°C | 0.9% | 38.3hPa | 2.6V | 08:27:10 | 01:38:05 | 00:00:00 | |
| DL1XH-15 | 2026-09-01 11:12:10 | 52.79271 | 8.24699 | 21° | 40km/h | 22750m | -14.4m/s | -51°C | 4.1% | 38hPa | 2.7V | 08:26:53 | 01:38:02 | 00:00:00 | |
| DO2JMG | 2026-09-01 11:12:06 | 52.79280 | 8.24709 | 42° | 47km/h | 22735m | -16m/s | -51°C | 0.9% | 38.1hPa | 2.7V | 08:27:10 | 01:38:03 | 00:00:00 | |
| BIOWL1-15 | 2026-09-01 11:12:04 | 52.79253 | 8.24726 | 233° | 29km/h | 22823m | -15.7m/s | -50.8°C | 0.8% | 37.6hPa | 2.6V | 08:27:10 | 01:37:57 | 00:00:00 | |
| DL1XH1-15 | 2026-09-01 11:12:03 | 52.79273 | 8.24736 | 163° | 33km/h | 22870m | -15.9m/s | -50.5°C | 4% | 37.3hPa | 2.7V | 08:27:01 | 01:37:54 | 00:00:00 | |
| HSKMA3-T | 2026-09-01 11:12:02 | 52.79251 | 8.24707 | 288° | 24km/h | 22792m | -15.7m/s | -50.8°C | 0.8% | 37.8hPa | 2.7V | 08:27:10 | 01:37:59 | 00:00:00 | |
| DF8AY | 2026-09-01 11:12:01 | 52.79251 | 8.24717 | 258° | 24km/h | 22808m | -15.2m/s | -50.8°C | 0.8% | 37.7hPa | 2.7V | 08:27:10 | 01:37:58 | 00:00:00 | |
| DL4BBY-15 | 2026-09-01 11:12:01 | 52.79251 | 8.24717 | 258° | 33km/h | 22808m | -15.1m/s | -49.4°C | 0% | 0hPa | 2.7V | 00:00:00 | 00:00:00 | 00:00:00 | |
| DO9LL-15 | 2026-09-01 11:11:59 | 52.79258 | 8.24734 | 212° | 35km/h | 22839m | -15.9m/s | -50.6°C | 3.9% | 37.4hPa | 2.7V | 00:00:00 | 01:37:56 | 00:00:00 | |
| DD8BA-10 | 2026-09-01 11:11:58 | 52.79265 | 8.24738 | 184° | 37km/h | 22855m | -15.3m/s | -50.5°C | 4.0% | 37.3hPa | 2.7V | 00:00:00 | 00:00:00 | 00:00:00 | |
| DL1XH-15 | 2026-09-01 11:11:57 | 52.79286 | 8.24719 | 117° | 35km/h | 22901m | -15.8m/s | -50.3°C | 4% | 37.1hPa | 2.6V | 08:27:03 | 01:37:52 | 00:00:00 | |
| AA1-15 | 2026-09-01 11:11:57 | 52.79273 | 8.24736 | 164° | 33km/h | 22870m | -15.9m/s | -50.5°C | 0.9% | 37.3hPa | 2.7V | 08:27:10 | 01:37:54 | 00:00:00 | |
| DB0DAN | 2026-09-01 11:11:55 | 52.79286 | 8.24719 | 118° | 33km/h | 22901m | -15.8m/s | -50.3°C | 1.2% | 37.14hPa | 2.6V | 00:00:00 | 00:00:00 | 00:00:00 | |
| DO2JMG | 2026-09-01 11:11:55 | 52.79286 | 8.24719 | 118° | 35km/h | 22901m | -15.8m/s | -50.3°C | 0.8% | 37.1hPa | 2.6V | 08:27:10 | 01:37:52 | 00:00:00 | |
| DL8OAI-8 | 2026-09-01 11:11:54 | 52.79286 | 8.24719 | 119° | 35km/h | 22901m | -15.8m/s | -50.3°C | 1.2% | 37.1hPa | 2.7V | 08:27:00 | 00:00:00 | 00:00:00 | |
| DL1XH1-15 | 2026-09-01 11:11:52 | 52.79238 | 8.24685 | 314° | 42km/h | 23022m | -15.1m/s | -50.6°C | 3.8% | 36.5hPa | 2.7V | 08:27:11 | 01:37:44 | 00:00:00 | |
| HSKMA3-T | 2026-09-01 11:11:51 | 52.79276 | 8.24670 | 24° | 37km/h | 22963m | -14.7m/s | -50.4°C | 0.7% | 36.8hPa | 2.6V | 08:27:10 | 01:37:48 | 00:00:00 | |
| BIOWL1-15 | 2026-09-01 11:11:50 | 52.79246 | 8.24674 | 329° | 42km/h | 23007m | -14.8m/s | -50.5°C | 0.6% | 36.5hPa | 2.7V | 08:27:10 | 01:37:45 | 00:00:00 | |
| DL1XH-west | 2026-09-01 11:11:47 | 52.79238 | 8.24685 | 315° | 42km/h | 23022m | -15.1m/s | -50.6°C | 0.7% | 36.5hPa | 2.7V | 08:28:01 | 01:37:44 | 00:00:00 | |
| AA1-15 | 2026-09-01 11:11:46 | 52.79232 | 8.24698 | 300° | 40km/h | 23037m | -15.9m/s | -50.7°C | 0.8% | 36.3hPa | 2.6V | 08:28:01 | 01:37:43 | 00:00:00 | |
| DO2JMG | 2026-09-01 11:11:45 | 52.79228 | 8.24713 | 286° | 38km/h | 23053m | -16.1m/s | -50.8°C | 0.7% | 36.3hPa | 2.6V | 08:28:01 | 01:37:42 | 00:00:00 | |
| HTAHTA | 2026-09-01 11:11:45 | 52.79227 | 8.24727 | 264° | 31km/h | 23070m | -16.6m/s | -50.9°C | 1.2% | 36.2hPa | 2.6V | 00:00:00 | 00:00:00 | 00:00:00 | |
| BIOWL1-15 | 2026-09-01 11:11:42 | 52.79245 | 8.24724 | 98° | 33km/h | 23159m | -14.2m/s | -51.1°C | 0.9% | 35.7hPa | 2.6V | 08:28:01 | 01:37:35 | 00:00:00 | |
| DL1XH1-15 | 2026-09-01 11:11:42 | 52.79245 | 8.24710 | 84° | 35km/h | 23174m | -14.7m/s | -51.1°C | 4.2% | 35.6hPa | 2.7V | 08:27:21 | 01:37:34 | 00:00:00 | |
| DB0DAN | 2026-09-01 11:11:40 | 52.79239 | 8.24743 | 140° | 18km/h | 23130m | -14.7m/s | -51.1°C | 1.2% | 35.89hPa | 2.6V | 00:00:00 | 00:00:00 | 00:00:00 | |
| HSKMA3-T | 2026-09-01 11:11:40 | 52.79239 | 8.24743 | 140° | 20km/h | 23131m | -14.7m/s | -51.1°C | 0.8% | 35.9hPa | 2.6V | 08:28:01 | 01:37:37 | 00:00:00 | |
| DL1XH-west | 2026-09-01 11:11:37 | 52.79245 | 8.24710 | 85° | 35km/h | 23174m | -14.7m/s | -51.1°C | 0.9% | 35.6hPa | 2.7V | 08:28:01 | 01:37:34 | 00:00:00 | |
| AA1-15 | 2026-09-01 11:11:35 | 52.79241 | 8.24680 | 65° | 40km/h | 23203m | -14.9m/s | -51.1°C | 0.9% | 35.4hPa | 2.7V | 08:28:01 | 01:37:32 | 00:00:00 | |
| DO2JMG | 2026-09-01 11:11:34 | 52.79236 | 8.24666 | 55° | 42km/h | 23218m | -14.9m/s | -51.1°C | 0.9% | 35.4hPa | 2.6V | 08:28:01 | 01:37:31 | 00:00:00 | |
| DL1XH1-15 | 2026-09-01 11:11:32 | 52.79181 | 8.24636 | 345° | 27km/h | 23319m | -14.8m/s | -51°C | 4.1% | 34.9hPa | 2.6V | 08:27:31 | 01:37:24 | 00:00:00 | |
| BIOWL1-15 | 2026-09-01 11:11:30 | 52.79205 | 8.24634 | 7° | 35km/h | 23275m | -14.4m/s | -51.1°C | 0.8% | 35.1hPa | 2.7V | 08:28:01 | 01:37:27 | 00:00:00 | |
| HSKMA3-T | 2026-09-01 11:11:29 | 52.79196 | 8.24633 | 0° | 33km/h | 23290m | -14.2m/s | -51.1°C | 0.8% | 35hPa | 2.7V | 08:28:01 | 01:37:26 | 00:00:00 | |
| DL1XH-west | 2026-09-01 11:11:26 | 52.79174 | 8.24640 | 332° | 27km/h | 23334m | -15.8m/s | -50.9°C | 0.8% | 34.8hPa | 2.6V | 08:28:01 | 01:37:23 | 00:00:00 | |
| DB0DAN | 2026-09-01 11:11:25 | 52.79169 | 8.24645 | 318° | 20km/h | 23350m | -15.6m/s | -50.8°C | 1.2% | 34.67hPa | 2.7V | 00:00:00 | 00:00:00 | 00:00:00 | |
| AA1-15 | 2026-09-01 11:11:25 | 52.79169 | 8.24645 | 318° | 20km/h | 23350m | -15.6m/s | -50.8°C | 0.7% | 34.7hPa | 2.7V | 08:28:01 | 01:37:22 | 00:00:00 | |
| DO2JMG | 2026-09-01 11:11:23 | 52.79164 | 8.24659 | 276° | 20km/h | 23381m | -15.1m/s | -50.7°C | 0.7% | 34.5hPa | 2.7V | 08:28:01 | 01:37:20 | 00:00:00 | |
| HSKMA3-T | 2026-09-01 11:11:19 | 52.79171 | 8.24684 | 215° | 20km/h | 23438m | -14.3m/s | -50.8°C | 0.8% | 34.2hPa | 2.7V | 08:28:01 | 01:37:16 | 00:00:00 | |
| DC6BW-12 | 2026-09-01 11:11:18 | 52.79171 | 8.24684 | 216° | 20km/h | 23439m | -14.3m/s | -50.8°C | 1.2% | 34.2hPa | 2.6V | 08:28:00 | 00:00:00 | 00:00:00 | |
| DL1XH-15 | 2026-09-01 11:11:17 | 52.79189 | 8.24698 | 201° | 20km/h | 23495m | -14.1m/s | -50.5°C | 3.9% | 33.9hPa | 2.6V | 08:27:43 | 01:37:12 | 00:00:00 | |
| DL1XH-west | 2026-09-01 11:11:15 | 52.79189 | 8.24698 | 201° | 20km/h | 23495m | -14.1m/s | -50.5°C | 0.7% | 33.9hPa | 2.6V | 08:28:01 | 01:37:12 | 00:00:00 | |
| AA1-15 | 2026-09-01 11:11:14 | 52.79193 | 8.24701 | 198° | 20km/h | 23509m | -13.6m/s | -50.5°C | 0.7% | 33.8hPa | 2.6V | 08:28:01 | 01:37:11 | 00:00:00 | |
| DO2JMG | 2026-09-01 11:11:13 | 52.79204 | 8.24706 | 195° | 22km/h | 23536m | -14.1m/s | -50.4°C | 0.7% | 33.7hPa | 2.7V | 08:28:01 | 01:37:09 | 00:00:00 | |
| DL1LOL-11 | 2026-09-01 11:11:11 | 52.79209 | 8.24709 | 199° | 22km/h | 23550m | -14.9m/s | -50.3°C | 1.1% | 33.6hPa | 2.7V | 00:00:00 | 00:00:00 | 00:00:00 | |
| DL1XH-15 | 2026-09-01 11:11:09 | 52.79236 | 8.24750 | 244° | 27km/h | 23638m | -14.4m/s | -50.6°C | 3.9% | 33.2hPa | 2.7V | 08:27:53 | 01:37:02 | 00:00:00 | |
| HSKMA3-T | 2026-09-01 11:11:09 | 52.79219 | 8.24718 | 214° | 27km/h | 23580m | -15.1m/s | -50.3°C | 0.6% | 33.5hPa | 2.7V | 08:28:01 | 01:37:06 | 00:00:00 | |
| BIOWL1-15 | 2026-09-01 11:11:08 | 52.79233 | 8.24740 | 240° | 27km/h | 23623m | -14.9m/s | -50.6°C | 0.7% | 33.2hPa | 2.6V | 08:28:01 | 01:37:03 | 00:00:00 | |
| DM0DOS-11 | 2026-09-01 11:11:08 | 52.79240 | 8.24788 | 272° | 33km/h | 23682m | -15.6m/s | -50.7°C | 3.8% | 32.9hPa | 2.6V | 08:27:56 | 01:36:59 | 00:00:00 | |
| DF8AY | 2026-09-01 11:11:08 | 52.79225 | 8.24725 | 216° | 26km/h | 23595m | -14.8m/s | -50.4°C | 0.7% | 33.4hPa | 2.7V | 08:28:01 | 01:37:05 | 00:00:00 | |
| DL1XH-west | 2026-09-01 11:11:05 | 52.79236 | 8.24750 | 244° | 27km/h | 23638m | -14.4m/s | -50.6°C | 0.7% | 33.2hPa | 2.7V | 08:28:01 | 01:37:02 | 00:00:00 | |
| AA1-15 | 2026-09-01 11:11:03 | 52.79240 | 8.24775 | 260° | 33km/h | 23667m | -15.2m/s | -50.6°C | 0.7% | 33hPa | 2.6V | 08:28:01 | 01:37:00 | 00:00:00 | |
| DO2JMG | 2026-09-01 11:11:01 | 52.79239 | 8.24803 | 278° | 38km/h | 23698m | -16.2m/s | -50.7°C | 0.7% | 32.8hPa | 2.7V | 08:28:01 | 01:36:58 | 00:00:00 | |
| HSKMA3-T | 2026-09-01 11:10:58 | 52.79228 | 8.24845 | 307° | 37km/h | 23747m | -16.2m/s | -50.9°C | 0.7% | 32.6hPa | 2.6V | 08:28:01 | 01:36:55 | 00:00:00 | |
| DF8AY | 2026-09-01 11:10:57 | 52.79187 | 8.24865 | 33° | 29km/h | 23836m | -13.6m/s | -51.3°C | 0.8% | 32.2hPa | 2.6V | 08:28:52 | 01:36:49 | 00:00:00 | |
| DM0DOS-11 | 2026-09-01 11:10:57 | 52.79187 | 8.24865 | 32° | 29km/h | 23836m | -13.6m/s | -51.3°C | 4% | 32.2hPa | 2.6V | 08:28:06 | 01:36:49 | 00:00:00 | |
| DL1XH-15 | 2026-09-01 11:10:57 | 52.79207 | 8.24870 | 347° | 27km/h | 23794m | -14.4m/s | -51.2°C | 4% | 32.4hPa | 2.7V | 08:28:03 | 01:36:52 | 00:00:00 | |
| BIOWL9-15 | 2026-09-01 11:10:57 | 52.79214 | 8.24865 | 328° | 31km/h | 23779m | -15.8m/s | -51.1°C | 1.2% | 32.5hPa | 2.7V | 00:00:00 | 00:00:00 | 00:00:00 | |
| DB0DAN | 2026-09-01 11:10:55 | 52.79207 | 8.24870 | 347° | 27km/h | 23794m | -14.4m/s | -51.2°C | 1.2% | 32.37hPa | 2.7V | 00:00:00 | 00:00:00 | 00:00:00 | |
| BIOWL1-15 | 2026-09-01 11:10:55 | 52.79207 | 8.24870 | 347° | 27km/h | 23794m | -14.4m/s | -51.2°C | 0.8% | 32.4hPa | 2.7V | 08:28:52 | 01:36:52 | 00:00:00 | |
| DL1XH-west | 2026-09-01 11:10:54 | 52.79200 | 8.24871 | 359° | 29km/h | 23808m | -14.6m/s | -51.3°C | 0.8% | 32.3hPa | 2.7V | 08:28:52 | 01:36:51 | 00:00:00 | |
| AA1-15 | 2026-09-01 11:10:53 | 52.79193 | 8.24870 | 15° | 26km/h | 23823m | -14m/s | -51.3°C | 0.8% | 32.2hPa | 2.6V | 08:28:52 | 01:36:50 | 00:00:00 | |
| DO2JMG | 2026-09-01 11:10:51 | 52.79180 | 8.24859 | 29° | 31km/h | 23850m | -15m/s | -51.4°C | 0.8% | 32.1hPa | 2.6V | 08:28:52 | 01:36:48 | 00:00:00 | |
| HSKMA3-T | 2026-09-01 11:10:48 | 52.79158 | 8.24841 | 13° | 37km/h | 23896m | -15.9m/s | -51.5°C | 0.8% | 31.9hPa | 2.7V | 08:28:52 | 01:36:45 | 00:00:00 | |
| DD8BA-10 | 2026-09-01 11:10:48 | 52.79158 | 8.24840 | 13° | 38km/h | 23896m | -15.9m/s | -51.5°C | 4.1% | 31.8hPa | 2.6V | 00:00:00 | 00:00:00 | 00:00:00 | |
| DD1CC2-15 | 2026-09-01 11:10:47 | 52.79158 | 8.24840 | 14° | 37km/h | 23896m | -15.9m/s | -51.5°C | 1.2% | 31.9hPa | 2.6V | 08:28:00 | 00:00:00 | 00:00:00 | |
| DL1XH-15 | 2026-09-01 11:10:46 | 52.79128 | 8.24835 | 357° | 38km/h | 23941m | -15m/s | -51.4°C | 4% | 31.6hPa | 2.6V | 08:28:13 | 01:36:42 | 00:00:00 | |
| BIOWL1-15 | 2026-09-01 11:10:45 | 52.79128 | 8.24835 | 358° | 38km/h | 23941m | -15m/s | -51.4°C | 0.8% | 31.6hPa | 2.6V | 08:28:52 | 01:36:42 | 00:00:00 | |
| DL1XH-west | 2026-09-01 11:10:44 | 52.79118 | 8.24836 | 357° | 40km/h | 23956m | -15.4m/s | -51.4°C | 0.8% | 31.6hPa | 2.7V | 08:28:52 | 01:36:41 | 00:00:00 | |
| DF8AY-15 | 2026-09-01 11:10:44 | 52.79118 | 8.24836 | 358° | 27km/h | 23956m | -15.3m/s | 0°C | 0% | 0hPa | 2.7V | 00:00:00 | 01:36:41 | 00:00:00 | |
| DF4FW | 2026-09-01 11:10:43 | 52.79118 | 8.24836 | 358° | 40km/h | 23956m | -15.4m/s | -51.4°C | 1.2% | 31.6hPa | 2.7V | 08:28:00 | 00:00:00 | 00:00:00 | |
| DM0DOS-11 | 2026-09-01 11:10:42 | 52.79099 | 8.24841 | 351° | 38km/h | 23986m | -15.1m/s | -51.4°C | 4% | 31.4hPa | 2.7V | 08:28:16 | 01:36:39 | 00:00:00 | |
| AA1-15 | 2026-09-01 11:10:42 | 52.79098 | 8.24841 | 352° | 38km/h | 23986m | -15.1m/s | -51.4°C | 0.8% | 31.4hPa | 2.7V | 08:28:52 | 01:36:39 | 00:00:00 | |
| DF8AY | 2026-09-01 11:10:41 | 52.79089 | 8.24844 | 345° | 42km/h | 24001m | -15.7m/s | -51.4°C | 0.8% | 31.3hPa | 2.6V | 08:28:52 | 01:36:38 | 00:00:00 | |
| DB0DAN | 2026-09-01 11:10:40 | 52.79079 | 8.24849 | 343° | 33km/h | 24016m | -14.6m/s | -51.4°C | 1.2% | 31.27hPa | 2.6V | 00:00:00 | 00:00:00 | 00:00:00 | |
| HSKMA3-T | 2026-09-01 11:10:37 | 52.79055 | 8.24861 | 347° | 31km/h | 24060m | -14.8m/s | -51.7°C | 0.9% | 31.1hPa | 2.7V | 08:28:52 | 01:36:34 | 00:00:00 | |
| BIOWL1-15 | 2026-09-01 11:10:34 | 52.79031 | 8.24872 | 347° | 35km/h | 24103m | -15.6m/s | -51.7°C | 0.9% | 30.8hPa | 2.6V | 08:28:52 | 01:36:31 | 00:00:00 | |
| DL1XH-west | 2026-09-01 11:10:33 | 52.79023 | 8.24874 | 353° | 31km/h | 24119m | -15.6m/s | -51.7°C | 0.9% | 30.8hPa | 2.6V | 08:28:52 | 01:36:30 | 00:00:00 | |
| DF8AY | 2026-09-01 11:10:31 | 52.79007 | 8.24877 | 359° | 31km/h | 24151m | -15.9m/s | -51.6°C | 0.9% | 30.6hPa | 2.7V | 08:28:52 | 01:36:28 | 00:00:00 | |
| GOEST3-10 | 2026-09-01 11:10:31 | 52.79007 | 8.24877 | 359° | 38km/h | 24151m | -15.9m/s | -51.6°C | 4.2% | 30.6hPa | 2.6V | 00:00:00 | 01:36:28 | 00:00:00 | |
| DO9LL-15 | 2026-09-01 11:10:29 | 52.78989 | 8.24874 | 15° | 33km/h | 24182m | -15.5m/s | -51.6°C | 4.2% | 30.5hPa | 2.6V | 00:00:00 | 01:36:26 | 00:00:00 | |
| DL1XH1-15 | 2026-09-01 11:10:27 | 52.78970 | 8.24864 | 26° | 44km/h | 24213m | -16.2m/s | -51.7°C | 4.2% | 30.3hPa | 2.6V | 08:28:31 | 01:36:24 | 00:00:00 | |
| HSKMA3-T | 2026-09-01 11:10:27 | 52.78969 | 8.24864 | 27° | 44km/h | 24213m | -16.2m/s | -51.7°C | 0.9% | 30.3hPa | 2.6V | 08:28:52 | 01:36:24 | 00:00:00 | |
| BIOWL1-15 | 2026-09-01 11:10:24 | 52.78926 | 8.24766 | 108° | 31km/h | 24346m | -16.4m/s | -51.3°C | 0.8% | 29.7hPa | 2.7V | 08:28:52 | 01:36:16 | 00:00:00 | |
| DL1XH-west | 2026-09-01 11:10:23 | 52.78934 | 8.24823 | 53° | 42km/h | 24279m | -16.9m/s | -51.4°C | 0.9% | 30hPa | 2.6V | 08:28:52 | 01:36:20 | 00:00:00 | |
| DM0DOS-11 | 2026-09-01 11:10:22 | 52.78929 | 8.24809 | 65° | 38km/h | 24295m | -17.3m/s | -51.4°C | 4.1% | 30hPa | 2.6V | 08:28:36 | 01:36:19 | 00:00:00 | |
| DF8AY | 2026-09-01 11:10:21 | 52.78925 | 8.24795 | 74° | 37km/h | 24312m | -17.8m/s | -51.3°C | 0.8% | 29.9hPa | 2.6V | 08:28:52 | 01:36:18 | 00:00:00 | |
| AA1-15 | 2026-09-01 11:10:20 | 52.78925 | 8.24780 | 94° | 37km/h | 24330m | -16.1m/s | -51.2°C | 0.9% | 29.8hPa | 2.7V | 08:28:52 | 01:36:17 | 00:00:00 | |
| DL1XH-15 | 2026-09-01 11:10:19 | 52.78947 | 8.24736 | 179° | 27km/h | 24412m | -17.1m/s | -51.3°C | 4.1% | 29.4hPa | 2.6V | 08:28:43 | 01:36:12 | 00:00:00 | |
| DD1CC8 | 2026-09-01 11:10:19 | 52.78926 | 8.24766 | 108° | 31km/h | 24346m | -16.4m/s | -51.3°C | 1.2% | 29.7hPa | 2.7V | 00:00:00 | 00:00:00 | 00:00:00 | |
| DD8BA-10 | 2026-09-01 11:10:18 | 52.78930 | 8.24754 | 124° | 27km/h | 24362m | -17.4m/s | -51.2°C | 4.1% | 29.6hPa | 2.7V | 00:00:00 | 00:00:00 | 00:00:00 | |
| DM0DOS-11 | 2026-09-01 11:10:17 | 52.78964 | 8.24749 | 234° | 24km/h | 24461m | -15.8m/s | -51.3°C | 4.1% | 29.2hPa | 2.7V | 08:28:46 | 01:36:09 | 00:00:00 | |
| HSKMA3-T | 2026-09-01 11:10:16 | 52.78941 | 8.24739 | 152° | 27km/h | 24396m | -17.3m/s | -51.3°C | 0.9% | 29.5hPa | 2.6V | 08:28:52 | 01:36:13 | 00:00:00 | |
| BIOWL1-15 | 2026-09-01 11:10:13 | 52.78974 | 8.24796 | 258° | 35km/h | 24525m | -17.7m/s | -51.2°C | 0.8% | 28.9hPa | 2.7V | 08:28:52 | 01:36:05 | 00:00:00 | |
| DL1XH-west | 2026-09-01 11:10:12 | 52.78964 | 8.24749 | 234° | 24km/h | 24461m | -15.9m/s | -51.3°C | 0.9% | 29.2hPa | 2.7V | 08:28:52 | 01:36:09 | 00:00:00 | |
| GOEST3-10 | 2026-09-01 11:10:11 | 52.78968 | 8.24759 | 246° | 31km/h | 24477m | -16.0m/s | -51.2°C | 4.1% | 29.1hPa | 2.6V | 00:00:00 | 01:36:08 | 00:00:00 | |
| DL1XH1-15 | 2026-09-01 11:10:10 | 52.78976 | 8.24809 | 250° | 29km/h | 24542m | -17.2m/s | -51.2°C | 4% | 28.8hPa | 2.7V | 08:28:51 | 01:36:04 | 00:00:00 | |
| DF8AY | 2026-09-01 11:10:10 | 52.78970 | 8.24771 | 259° | 29km/h | 24492m | -16.2m/s | -51.2°C | 0.9% | 29hPa | 2.6V | 08:28:52 | 01:36:07 | 00:00:00 | |
| AA1-15 | 2026-09-01 11:10:09 | 52.78972 | 8.24783 | 255° | 31km/h | 24508m | -16.1m/s | -51.2°C | 0.8% | 29hPa | 2.6V | 08:28:52 | 01:36:06 | 00:00:00 | |
| DD8BA-10 | 2026-09-01 11:10:08 | 52.78973 | 8.24796 | 259° | 26km/h | 24525m | -17.6m/s | -51.2°C | 4.0% | 28.9hPa | 2.6V | 00:00:00 | 00:00:00 | 00:00:00 | |
| DM0DOS-11 | 2026-09-01 11:10:07 | 52.78995 | 8.24842 | 157° | 15km/h | 24628m | -16.9m/s | -51.4°C | 4.2% | 28.4hPa | 2.6V | 08:28:56 | 01:35:59 | 00:00:00 | |
| DL1XH-15 | 2026-09-01 11:10:06 | 52.78983 | 8.24830 | 239° | 26km/h | 24575m | -18.2m/s | -51.2°C | 4% | 28.6hPa | 2.6V | 08:28:53 | 01:36:02 | 00:00:00 | |
| HSKMA3-T | 2026-09-01 11:10:05 | 52.78983 | 8.24830 | 239° | 26km/h | 24575m | -18.2m/s | -51.2°C | 0.8% | 28.6hPa | 2.6V | 08:29:43 | 01:36:02 | 00:00:00 | |
| SMARD9-10 | 2026-09-01 11:10:03 | 52.78991 | 8.24841 | 206° | 16km/h | 24611m | -18.4m/s | -51.3°C | 1.2% | 28.5hPa | 2.6V | 08:29:00 | 00:00:00 | 00:00:00 | |
| DL1XH1-15 | 2026-09-01 11:10:02 | 52.78992 | 8.24789 | 51° | 44km/h | 24719m | -19.3m/s | -51.5°C | 4.3% | 28hPa | 2.6V | 08:29:01 | 01:35:54 | 00:00:00 | |
| DL1XH-west | 2026-09-01 11:10:01 | 52.78998 | 8.24837 | 126° | 20km/h | 24645m | -17.8m/s | -51.5°C | 1% | 28.3hPa | 2.6V | 08:29:43 | 01:35:58 | 00:00:00 | |
| BIOWL1-15 | 2026-09-01 11:10:00 | 52.79000 | 8.24829 | 94° | 22km/h | 24663m | -18.2m/s | -51.5°C | 1% | 28.3hPa | 2.7V | 08:29:43 | 01:35:57 | 00:00:00 | |
| DL1XH-15 | 2026-09-01 11:09:59 | 52.78973 | 8.24764 | 22° | 53km/h | 24759m | -19.4m/s | -51.4°C | 4.2% | 27.8hPa | 2.7V | 08:29:03 | 01:35:52 | 00:00:00 | |
| AA1-15 | 2026-09-01 11:09:58 | 52.78997 | 8.24803 | 69° | 40km/h | 24700m | -18.9m/s | -51.6°C | 1% | 28.1hPa | 2.6V | 08:29:43 | 01:35:55 | 00:00:00 | |
| DD8BA-10 | 2026-09-01 11:09:58 | 52.78997 | 8.24803 | 70° | 44km/h | 24700m | -18.9m/s | -51.5°C | 4.4% | 28.1hPa | 2.6V | 08:29:00 | 00:00:00 | 00:00:00 | |
| DM0DOS-11 | 2026-09-01 11:09:57 | 52.78930 | 8.24775 | 311° | 38km/h | 24832m | -18.3m/s | -51.2°C | 4% | 27.6hPa | 2.7V | 08:29:07 | 01:35:48 | 00:00:00 | |
| HSKMA3-T | 2026-09-01 11:09:54 | 52.78962 | 8.24759 | 8° | 47km/h | 24779m | -18.9m/s | -51.4°C | 0.9% | 27.8hPa | 2.6V | 08:29:43 | 01:35:51 | 00:00:00 | |
| DO1YAY-16 | 2026-09-01 11:09:53 | 52.78951 | 8.24759 | 350° | 49km/h | 24798m | -17.7m/s | -51.3°C | 1.2% | 27.7hPa | 2.7V | 00:00:00 | 00:00:00 | 00:00:00 | |
| DL1XH1-15 | 2026-09-01 11:09:52 | 52.78930 | 8.24817 | 190° | 22km/h | 24906m | -18m/s | -50.9°C | 4% | 27.2hPa | 2.7V | 08:29:11 | 01:35:44 | 00:00:00 | |
| DL1XH-west | 2026-09-01 11:09:50 | 52.78926 | 8.24788 | 288° | 35km/h | 24851m | -18.3m/s | -51°C | 0.8% | 27.5hPa | 2.6V | 08:29:43 | 01:35:47 | 00:00:00 | |
| BIOWL1-15 | 2026-09-01 11:09:49 | 52.78930 | 8.24817 | 191° | 22km/h | 24906m | -18m/s | -50.9°C | 0.8% | 27.2hPa | 2.7V | 08:29:43 | 01:35:44 | 00:00:00 | |
| AA1-15 | 2026-09-01 11:09:48 | 52.78926 | 8.24812 | 238° | 24km/h | 24888m | -18.9m/s | -50.9°C | 0.8% | 27.3hPa | 2.7V | 08:29:43 | 01:35:45 | 00:00:00 | |
| DL3AQ-11 | 2026-09-01 11:09:48 | 52.78936 | 8.24816 | 160° | 29km/h | 24924m | -18.2m/s | -50.9°C | 1.2% | 27.1hPa | 2.6V | 00:00:00 | 00:00:00 | 00:00:00 | |
| DF4FW | 2026-09-01 11:09:47 | 52.78926 | 8.24812 | 238° | 24km/h | 24888m | -18.9m/s | -50.9°C | 1.2% | 27.3hPa | 2.6V | 08:29:00 | 00:00:00 | 00:00:00 | |
| DM0DOS-11 | 2026-09-01 11:09:46 | 52.78939 | 8.24719 | 55° | 53km/h | 25032m | -18.6m/s | -50.7°C | 4% | 26.7hPa | 2.6V | 08:29:18 | 01:35:37 | 00:00:00 | |
| HSKMA3-T | 2026-09-01 11:09:44 | 52.78947 | 8.24797 | 109° | 40km/h | 24960m | -17.8m/s | -51°C | 0.9% | 27hPa | 2.6V | 08:29:43 | 01:35:41 | 00:00:00 | |
| DO3DL | 2026-09-01 11:09:44 | 52.78947 | 8.24797 | 110° | 40km/h | 24960m | -17.8m/s | -51.0°C | 1.2% | 27.0hPa | 2.7V | 08:29:00 | 00:00:00 | 00:00:00 | |
| EDDB2-12 | 2026-09-01 11:09:43 | 52.78949 | 8.24779 | 94° | 47km/h | 24978m | -17.6m/s | -50.9°C | 1.2% | 26.9hPa | 2.7V | 00:00:00 | 00:00:00 | 00:00:00 | |
| SONDE2-11 | 2026-09-01 11:09:42 | 52.78945 | 8.24737 | 69° | 51km/h | 25014m | -18.5m/s | -50.7°C | 1.2% | 26.8hPa | 2.7V | 00:00:00 | 00:00:00 | 00:00:00 | |
| DL1XH1-15 | 2026-09-01 11:09:40 | 52.78909 | 8.24684 | 13° | 40km/h | 25087m | -18.2m/s | -50.7°C | 3.9% | 26.5hPa | 2.7V | 08:29:21 | 01:35:34 | 00:00:00 | |
| DL1XH-west | 2026-09-01 11:09:40 | 52.78939 | 8.24719 | 56° | 53km/h | 25032m | -18.6m/s | -50.7°C | 0.8% | 26.7hPa | 2.6V | 08:29:43 | 01:35:37 | 00:00:00 | |
| BIOWL1-15 | 2026-09-01 11:09:38 | 52.78920 | 8.24691 | 27° | 49km/h | 25069m | -18.4m/s | -50.7°C | 0.8% | 26.5hPa | 2.6V | 08:29:43 | 01:35:35 | 00:00:00 | |
| AA1-15 | 2026-09-01 11:09:37 | 52.78909 | 8.24684 | 13° | 42km/h | 25087m | -18.2m/s | -50.7°C | 0.7% | 26.5hPa | 2.7V | 08:29:43 | 01:35:34 | 00:00:00 | |
| SONCRA | 2026-09-01 11:09:36 | 52.78899 | 8.24683 | 355° | 37km/h | 25105m | -18.3m/s | -50.7°C | 1.1% | 26.4hPa | 2.7V | 00:00:00 | 00:00:00 | 00:00:00 | |
| DM0DOS-11 | 2026-09-01 11:09:35 | 52.78899 | 8.24704 | 180° | 31km/h | 25208m | -17.6m/s | -51.1°C | 4.1% | 26hPa | 2.7V | 08:29:28 | 01:35:27 | 00:00:00 | |
| HSKMA3-T | 2026-09-01 11:09:33 | 52.78885 | 8.24695 | 275° | 15km/h | 25158m | -17.6m/s | -50.9°C | 0.8% | 26.2hPa | 2.6V | 08:29:43 | 01:35:30 | 00:00:00 | |
| DL1XH-west | 2026-09-01 11:09:30 | 52.78899 | 8.24703 | 181° | 31km/h | 25208m | -17.6m/s | -51.1°C | 0.8% | 26hPa | 2.7V | 08:29:43 | 01:35:27 | 00:00:00 | |
| DO2JMG | 2026-09-01 11:09:29 | 52.78908 | 8.24702 | 165° | 40km/h | 25226m | -18.1m/s | -51.1°C | 0.9% | 26hPa | 2.7V | 08:29:43 | 01:35:26 | 00:00:00 | |
| AA1-15 | 2026-09-01 11:09:27 | 52.78929 | 8.24689 | 152° | 44km/h | 25261m | -18.3m/s | -51°C | 0.9% | 25.8hPa | 2.6V | 08:29:43 | 01:35:24 | 00:00:00 | |
| DB0DAN | 2026-09-01 11:09:25 | 52.78948 | 8.24667 | 138° | 44km/h | 25297m | -17.9m/s | -50.7°C | 1.2% | 25.6hPa | 2.7V | 00:00:00 | 00:00:00 | 00:00:00 | |
| DM0DOS-11 | 2026-09-01 11:09:24 | 52.78965 | 8.24593 | 75° | 31km/h | 25386m | -18.5m/s | -50.7°C | 4.1% | 25.3hPa | 2.6V | 08:29:38 | 01:35:17 | 00:00:00 | |
| HSKMA3-T | 2026-09-01 11:09:22 | 52.78965 | 8.24622 | 101° | 37km/h | 25350m | -17.9m/s | -50.7°C | 0.8% | 25.4hPa | 2.6V | 08:29:43 | 01:35:19 | 00:00:00 | |
| DL1XH-west | 2026-09-01 11:09:19 | 52.78962 | 8.24581 | 60° | 33km/h | 25405m | -18.5m/s | -50.7°C | 0.8% | 25.2hPa | 2.7V | 08:29:43 | 01:35:16 | 00:00:00 | |
| DO2JMG | 2026-09-01 11:09:18 | 52.78957 | 8.24571 | 42° | 27km/h | 25423m | -18.4m/s | -50.7°C | 0.8% | 25.1hPa | 2.7V | 08:29:43 | 01:35:15 | 00:00:00 | |
| AA1-15 | 2026-09-01 11:09:16 | 52.78944 | 8.24563 | 3° | 31km/h | 25460m | -18.7m/s | -50.5°C | 0.8% | 25hPa | 2.6V | 08:29:43 | 01:35:13 | 00:00:00 | |
| HSKMA3-T | 2026-09-01 11:09:11 | 52.78916 | 8.24612 | 279° | 42km/h | 25550m | -18.7m/s | -50.1°C | 0.8% | 24.6hPa | 2.7V | 18:12:15 | 01:35:08 | 00:00:00 | |
| DB0DAN | 2026-09-01 11:09:10 | 52.78916 | 8.24630 | 266° | 44km/h | 25569m | -19.8m/s | -50.1°C | 1.1% | 24.62hPa | 2.6V | 00:00:00 | 00:00:00 | 00:00:00 | |
| DL1XH-west | 2026-09-01 11:09:09 | 52.78917 | 8.24649 | 262° | 47km/h | 25589m | -21m/s | -50°C | 0.8% | 24.5hPa | 2.6V | 18:12:15 | 01:35:06 | 00:00:00 | |
| DO2JMG | 2026-09-01 11:09:08 | 52.78920 | 8.24667 | 250° | 40km/h | 25610m | -20.9m/s | -50°C | 0.7% | 24.4hPa | 2.6V | 18:12:15 | 01:35:05 | 00:00:00 | |
| DF8AY | 2026-09-01 11:09:07 | 52.78924 | 8.24681 | 231° | 37km/h | 25629m | -20.2m/s | -50°C | 0.7% | 24.3hPa | 2.7V | 18:12:15 | 01:35:04 | 00:00:00 | |
| AA1-15 | 2026-09-01 11:09:05 | 52.78935 | 8.24695 | 182° | 18km/h | 25666m | -17m/s | -50.2°C | 0.8% | 24.2hPa | 2.7V | 18:12:15 | 01:35:02 | 00:00:00 | |
| HSKMA3-T | 2026-09-01 11:09:01 | 52.78946 | 8.24666 | 114° | 27km/h | 25733m | -17.5m/s | -50.1°C | 0.8% | 23.9hPa | 2.7V | 18:12:15 | 01:34:58 | 00:00:00 | |
| DL1XH-west | 2026-09-01 11:08:59 | 52.78954 | 8.24645 | 128° | 33km/h | 25768m | -17.9m/s | -50°C | 0.8% | 23.8hPa | 2.7V | 18:12:15 | 01:34:56 | 00:00:00 | |
| DO9LL-15 | 2026-09-01 11:08:59 | 52.78954 | 8.24645 | 129° | 31km/h | 25768m | -17.9m/s | -50.0°C | 4.0% | 23.8hPa | 2.6V | 00:00:00 | 01:34:56 | 00:00:00 | |
| DL1XH1-15 | 2026-09-01 11:08:58 | 52.78965 | 8.24627 | 141° | 31km/h | 25805m | -18.5m/s | -50°C | 4% | 23.7hPa | 2.6V | 08:30:00 | 01:34:54 | 00:00:00 | |
| DO2JMG | 2026-09-01 11:08:57 | 52.78965 | 8.24627 | 142° | 31km/h | 25805m | -18.5m/s | -50°C | 0.8% | 23.7hPa | 2.6V | 18:12:15 | 01:34:54 | 00:00:00 | |
| DF8AY | 2026-09-01 11:08:56 | 52.78979 | 8.24616 | 164° | 27km/h | 25841m | -18.4m/s | -50°C | 0.8% | 23.6hPa | 2.7V | 18:12:15 | 01:34:52 | 00:00:00 | |
| BUE01 | 2026-09-01 11:08:55 | 52.78992 | 8.24616 | 198° | 22km/h | 25878m | -18.1m/s | -49.9°C | 1.2% | 23.4hPa | 2.6V | 00:00:00 | 00:00:00 | 00:00:00 | |
| DM0DOS-11 | 2026-09-01 11:08:54 | 52.79004 | 8.24632 | 246° | 22km/h | 25932m | -18.9m/s | -49.6°C | 4% | 23.3hPa | 2.6V | 08:30:00 | 01:34:47 | 00:00:00 | |
| BIOWL1-15 | 2026-09-01 11:08:54 | 52.78986 | 8.24614 | 180° | 26km/h | 25859m | -18.3m/s | -49.9°C | 0.8% | 23.5hPa | 2.7V | 18:12:15 | 01:34:51 | 00:00:00 | |
| HSKMA3-T | 2026-09-01 11:08:51 | 52.79001 | 8.24625 | 227° | 24km/h | 25913m | -18.6m/s | -49.7°C | 0.7% | 23.3hPa | 2.6V | 18:12:15 | 01:34:48 | 00:00:00 | |
| DL1XH1-15 | 2026-09-01 11:08:50 | 52.79006 | 8.24660 | 288° | 29km/h | 25990m | -19.7m/s | -49.4°C | 4% | 23.1hPa | 2.7V | 08:30:00 | 01:34:44 | 00:00:00 | |
| DO3DL | 2026-09-01 11:08:50 | 52.79004 | 8.24632 | 248° | 22km/h | 25932m | -18.9m/s | -49.6°C | 1.1% | 23.3hPa | 2.6V | 00:00:00 | 00:00:00 | 00:00:00 | |
| DL1XH-15 | 2026-09-01 11:08:49 | 52.78991 | 8.24688 | 330° | 35km/h | 26049m | -19.2m/s | -49.1°C | 3.9% | 22.8hPa | 2.6V | 08:30:00 | 01:34:41 | 00:00:00 | |
| DL1XH-west | 2026-09-01 11:08:48 | 52.79007 | 8.24650 | 267° | 24km/h | 25970m | -19.4m/s | -49.5°C | 0.8% | 23.1hPa | 2.7V | 18:12:15 | 01:34:45 | 00:00:00 | |
| DO2JMG | 2026-09-01 11:08:47 | 52.79006 | 8.24660 | 289° | 29km/h | 25990m | -19.7m/s | -49.4°C | 0.8% | 23.1hPa | 2.7V | 18:12:15 | 01:34:44 | 00:00:00 | |
| DF8AY | 2026-09-01 11:08:44 | 52.78991 | 8.24688 | 331° | 35km/h | 26049m | -19.2m/s | -49.1°C | 0.7% | 22.8hPa | 2.6V | 18:12:15 | 01:34:41 | 00:00:00 | |
| DM0DOS-11 | 2026-09-01 11:08:44 | 52.78951 | 8.24687 | 20° | 47km/h | 26124m | -19.7m/s | -48.6°C | 3.7% | 22.6hPa | 2.6V | 08:30:00 | 01:34:37 | 00:00:00 | |
| BIOWL1-15 | 2026-09-01 11:08:43 | 52.78982 | 8.24693 | 347° | 37km/h | 26068m | -18.3m/s | -49.1°C | 0.7% | 22.8hPa | 2.7V | 18:12:15 | 01:34:40 | 00:00:00 | |
| EDDB2-12 | 2026-09-01 11:08:42 | 52.78962 | 8.24692 | 11° | 46km/h | 26105m | -18.6m/s | -48.8°C | 1.1% | 22.6hPa | 2.7V | 00:00:00 | 00:00:00 | 00:00:00 | |
| DL1XH1-15 | 2026-09-01 11:08:40 | 52.78924 | 8.24662 | 35° | 31km/h | 26185m | -19.3m/s | -48.4°C | 3.5% | 22.4hPa | 2.7V | 08:30:00 | 01:34:34 | 00:00:00 | |
| HSKMA3-T | 2026-09-01 11:08:40 | 52.78951 | 8.24687 | 21° | 47km/h | 26124m | -19.7m/s | -48.6°C | 0.7% | 22.6hPa | 2.6V | 18:12:15 | 01:34:37 | 00:00:00 | |
| SONDE2-11 | 2026-09-01 11:08:40 | 52.78940 | 8.24679 | 28° | 42km/h | 26145m | -20.6m/s | -48.5°C | 1.1% | 22.5hPa | 2.6V | 00:00:00 | 00:00:00 | 00:00:00 | |
| DL1XH-15 | 2026-09-01 11:08:39 | 52.78916 | 8.24646 | 85° | 7km/h | 26244m | -21.5m/s | -48.4°C | 3.5% | 22.2hPa | 2.6V | 08:30:00 | 01:34:31 | 00:00:00 | |
| DL1XH-west | 2026-09-01 11:08:38 | 52.78931 | 8.24671 | 31° | 40km/h | 26165m | -20.6m/s | -48.4°C | 0.5% | 22.5hPa | 2.6V | 18:12:15 | 01:34:35 | 00:00:00 | |
| DO2JMG | 2026-09-01 11:08:36 | 52.78919 | 8.24655 | 47° | 22km/h | 26205m | -17.8m/s | -48.4°C | 0.5% | 22.3hPa | 2.7V | 18:12:15 | 01:34:33 | 00:00:00 | |
| BIOWL1-15 | 2026-09-01 11:08:33 | 52.78916 | 8.24642 | 104° | 11km/h | 26266m | -23.2m/s | -48.4°C | 0.5% | 22.1hPa | 2.7V | 18:12:15 | 01:34:30 | 00:00:00 | |
| AA1-15 | 2026-09-01 11:08:32 | 52.78917 | 8.24638 | 113° | 13km/h | 26289m | -23m/s | -48.4°C | 0.4% | 22.1hPa | 2.7V | 18:12:15 | 01:34:29 | 00:00:00 | |
| DL4BBY-15 | 2026-09-01 11:08:31 | 52.78918 | 8.24632 | 110° | 16km/h | 26314m | -24.6m/s | -46.9°C | 0% | 0hPa | 2.7V | 00:00:00 | 00:00:00 | 00:00:00 | |
| DL1XH-15 | 2026-09-01 11:08:29 | 52.78928 | 8.24568 | 78° | 18km/h | 26336m | 7.3m/s | -48.1°C | 3.5% | 21.8hPa | 2.7V | 08:30:00 | 01:34:21 | 00:00:00 | |
| HSKMA3-T | 2026-09-01 11:08:29 | 52.78922 | 8.24615 | 113° | 24km/h | 26351m | -11.1m/s | -48.1°C | 0.5% | 21.8hPa | 2.7V | 18:12:15 | 01:34:26 | 00:00:00 | |
| DL1XH-west | 2026-09-01 11:08:27 | 52.78927 | 8.24597 | 111° | 24km/h | 26355m | 7.4m/s | -48°C | 0.5% | 21.7hPa | 2.6V | 18:12:15 | 01:34:24 | 00:00:00 | |
| DO2JMG | 2026-09-01 11:08:25 | 52.78929 | 8.24577 | 86° | 24km/h | 26343m | 5.4m/s | -48.1°C | 0.5% | 21.8hPa | 2.7V | 18:12:15 | 01:34:22 | 00:00:00 | |
| DB0DAN | 2026-09-01 11:08:25 | 52.78929 | 8.24577 | 85° | 22km/h | 26343m | 5.4m/s | -48.1°C | 1% | 21.78hPa | 2.7V | 00:00:00 | 00:00:00 | 00:00:00 | |
| DL4XJ-10 | 2026-09-01 11:08:25 | 52.78929 | 8.24577 | 86° | 16km/h | 26342m | 5.4m/s | -46.7°C | 0% | 0hPa | 2.7V | 00:00:00 | 00:00:00 | 00:00:00 | |
| GOEST3-10 | 2026-09-01 11:08:24 | 52.78928 | 8.24568 | 79° | 13km/h | 26337m | 7.2m/s | -48.1°C | 3.5% | 21.8hPa | 2.7V | 00:00:00 | 00:00:00 | 00:00:00 | |
| DM0DOS-11 | 2026-09-01 11:08:23 | 52.78925 | 8.24548 | 94° | 13km/h | 26312m | 6.5m/s | -48.3°C | 3.5% | 21.9hPa | 2.7V | 08:30:00 | 01:34:17 | 00:00:00 | |
| AA1-15 | 2026-09-01 11:08:22 | 52.78926 | 8.24557 | 69° | 9km/h | 26324m | 4.7m/s | -48.2°C | 0.5% | 21.9hPa | 2.6V | 18:12:15 | 01:34:19 | 00:00:00 | |
| HSKMA3-T | 2026-09-01 11:08:19 | 52.78926 | 8.24542 | 101° | 16km/h | 26306m | 5.4m/s | -48.4°C | 0.5% | 21.9hPa | 2.6V | 18:12:15 | 01:34:16 | 00:00:00 | |
| DL1XH-west | 2026-09-01 11:08:16 | 52.78927 | 8.24525 | 73° | 11km/h | 26289m | 5.6m/s | -48.6°C | 0.5% | 22hPa | 2.7V | 18:12:15 | 01:34:13 | 00:00:00 | |
| DO2JMG | 2026-09-01 11:08:15 | 52.78924 | 8.24516 | 53° | 18km/h | 26279m | 5.6m/s | -48.6°C | 0.6% | 22hPa | 2.7V | 18:12:15 | 01:34:11 | 00:00:00 | |
| DD1CC8 | 2026-09-01 11:08:15 | 52.78924 | 8.24516 | 52° | 18km/h | 26279m | 5.6m/s | -48.6°C | 1.1% | 22.0hPa | 2.7V | 00:00:00 | 00:00:00 | 00:00:00 | |
| GOEST3-10 | 2026-09-01 11:08:14 | 52.78923 | 8.24516 | 53° | 26km/h | 26279m | 5.5m/s | -48.5°C | 3.7% | 22.0hPa | 2.7V | 00:00:00 | 00:00:00 | 00:00:00 | |
| DM0DOS-11 | 2026-09-01 11:08:13 | 52.78913 | 8.24477 | 73° | 24km/h | 26254m | 6.8m/s | -48.3°C | 3.6% | 22.1hPa | 2.7V | 08:30:00 | 01:34:07 | 00:00:00 | |
| BIOWL1-15 | 2026-09-01 11:08:12 | 52.78918 | 8.24499 | 67° | 29km/h | 26266m | 5.8m/s | -48.3°C | 0.5% | 22.1hPa | 2.6V | 18:12:15 | 01:34:09 | 00:00:00 | |
| DF8AY | 2026-09-01 11:08:11 | 52.78915 | 8.24488 | 71° | 29km/h | 26260m | 5.4m/s | -48.3°C | 0.5% | 22.1hPa | 2.6V | 18:12:15 | 01:34:08 | 00:00:00 | |
| HSKMA3-T | 2026-09-01 11:08:09 | 52.78912 | 8.24469 | 75° | 16km/h | 26248m | 5.9m/s | -48.3°C | 0.5% | 22.1hPa | 2.7V | 18:12:15 | 01:34:06 | 00:00:00 | |
| DL1XH-west | 2026-09-01 11:08:05 | 52.78912 | 8.24452 | 99° | 13km/h | 26224m | 6m/s | -48.2°C | 0.5% | 22.2hPa | 2.6V | 18:12:15 | 01:34:02 | 00:00:00 | |
| DL1XH-15 | 2026-09-01 11:08:04 | 52.78912 | 8.24446 | 90° | 13km/h | 26218m | 5.8m/s | -48.3°C | 3.5% | 22.2hPa | 2.7V | 08:30:00 | 01:34:01 | 00:00:00 | |
| BIOWL1-15 | 2026-09-01 11:08:03 | 52.78910 | 8.24436 | 55° | 13km/h | 26205m | 5.7m/s | -48.3°C | 0.4% | 22.3hPa | 2.7V | 18:12:15 | 01:33:59 | 00:00:00 | |
| DO2JMG | 2026-09-01 11:08:03 | 52.78911 | 8.24441 | 75° | 13km/h | 26212m | 7.5m/s | -48.4°C | 0.5% | 22.2hPa | 2.7V | 18:12:15 | 01:34:00 | 00:00:00 | |
| AA1-15 | 2026-09-01 11:08:01 | 52.78908 | 8.24431 | 49° | 18km/h | 26200m | 5.4m/s | -48.2°C | 0.5% | 22.3hPa | 2.6V | 18:12:15 | 01:33:58 | 00:00:00 | |
| DL4BBY-15 | 2026-09-01 11:08:01 | 52.78907 | 8.24431 | 50° | 13km/h | 26200m | 5.4m/s | -46.8°C | 0% | 0hPa | 2.6V | 00:00:00 | 00:00:00 | 00:00:00 | |
| DL1XH-15 | 2026-09-01 11:07:59 | 52.78891 | 8.24398 | 54° | 4km/h | 26158m | 7m/s | -48.4°C | 3.5% | 22.4hPa | 2.6V | 08:30:00 | 01:33:51 | 00:00:00 | |
| HSKMA3-T | 2026-09-01 11:07:58 | 52.78899 | 8.24410 | 57° | 20km/h | 26183m | 4.7m/s | -48.2°C | 0.5% | 22.3hPa | 2.7V | 18:12:15 | 01:33:55 | 00:00:00 | |
| DL1XH-west | 2026-09-01 11:07:55 | 52.78892 | 8.24399 | 17° | 5km/h | 26164m | 5.5m/s | -48.3°C | 0.4% | 22.4hPa | 2.6V | 18:12:15 | 01:33:52 | 00:00:00 | |
| DO2JMG | 2026-09-01 11:07:52 | 52.78891 | 8.24394 | 92° | 7km/h | 26146m | 5m/s | -48.4°C | 0.5% | 22.5hPa | 2.7V | 18:12:15 | 01:33:49 | 00:00:00 | |
| BIOWL1-15 | 2026-09-01 11:07:51 | 52.78891 | 8.24390 | 77° | 7km/h | 26140m | 6.4m/s | -48.5°C | 0.4% | 22.5hPa | 2.7V | 18:12:15 | 01:33:48 | 00:00:00 | |
| DF8AY | 2026-09-01 11:07:50 | 52.78890 | 8.24388 | 44° | 7km/h | 26134m | 6.3m/s | -48.6°C | 0.5% | 22.5hPa | 2.7V | 18:12:15 | 01:33:47 | 00:00:00 | |
| HSKMA3-T | 2026-09-01 11:07:47 | 52.78883 | 8.24375 | 56° | 20km/h | 26116m | 7.2m/s | -49°C | 0.6% | 22.6hPa | 2.6V | 18:12:15 | 01:33:44 | 00:00:00 | |
| BIOWL1-15 | 2026-09-01 11:07:44 | 52.78860 | 8.24349 | 66° | 9km/h | 26074m | 6.2m/s | -49.1°C | 0.5% | 22.7hPa | 2.7V | 18:12:15 | 01:33:37 | 00:00:00 | |
| DL1XH-west | 2026-09-01 11:07:44 | 52.78872 | 8.24356 | 29° | 20km/h | 26097m | 7.2m/s | -49.2°C | 0.7% | 22.6hPa | 2.7V | 18:12:15 | 01:33:41 | 00:00:00 | |
| DF5WG-10 | 2026-09-01 11:07:43 | 52.78868 | 8.24354 | 13° | 11km/h | 26091m | 4.6m/s | -49.0°C | 3.6% | 22.6hPa | 2.7V | 00:00:00 | 01:33:40 | 00:00:00 | |
| DD1CC2-15 | 2026-09-01 11:07:42 | 52.78864 | 8.24353 | 9° | 13km/h | 26087m | 4.7m/s | -49.1°C | 1.1% | 22.7hPa | 2.7V | 00:00:00 | 00:00:00 | 00:00:00 | |
| DO2JMG | 2026-09-01 11:07:42 | 52.78861 | 8.24352 | 19° | 11km/h | 26081m | 6.8m/s | -49.1°C | 0.6% | 22.7hPa | 2.6V | 18:12:15 | 01:33:38 | 00:00:00 | |
| DM0DOS-11 | 2026-09-01 11:07:42 | 52.78860 | 8.24349 | 65° | 9km/h | 26074m | 6.2m/s | -49.1°C | 3.6% | 22.7hPa | 2.7V | 08:30:00 | 01:33:37 | 00:00:00 | |
| DL8OAI-8 | 2026-09-01 11:07:41 | 52.78864 | 8.24353 | 9° | 13km/h | 26087m | 4.7m/s | -49.1°C | 1.1% | 22.7hPa | 2.7V | 00:00:00 | 00:00:00 | 00:00:00 | |
| DB0DAN | 2026-09-01 11:07:40 | 52.78860 | 8.24349 | 66° | 9km/h | 26074m | 6.2m/s | -49.1°C | 1% | 22.69hPa | 2.7V | 00:00:00 | 00:00:00 | 00:00:00 | |
| DL1XH1-15 | 2026-09-01 11:07:40 | 52.78860 | 8.24338 | 89° | 7km/h | 26056m | 6.8m/s | -49.2°C | 3.7% | 22.8hPa | 2.6V | 08:30:00 | 01:33:34 | 00:00:00 | |
| AA1-15 | 2026-09-01 11:07:39 | 52.78859 | 8.24346 | 92° | 9km/h | 26068m | 5.7m/s | -49.2°C | 0.6% | 22.8hPa | 2.7V | 18:12:15 | 01:33:36 | 00:00:00 | |
| HSKMA3-T | 2026-09-01 11:07:36 | 52.78859 | 8.24335 | 76° | 7km/h | 26050m | 5.4m/s | -49.1°C | 0.6% | 22.8hPa | 2.6V | 18:12:15 | 01:33:33 | 00:00:00 | |
| Es werden nur die letzten 3500 von 7296 Frames angezeigt. GPX/KML und Diagramme bleiben verfügbar. | |||||||||||||||